<?xml version='1.0' encoding='UTF-8'?><gpx version="1.1" creator="JPX - https://github.com/jenetics/jpx" xmlns="http://www.topografix.com/GPX/1/1"><trk><trkseg><trkpt lat="43.5596056" lon="11.5281938"><ele>144.0</ele><time>2026-04-25T09:02:43.423Z</time></trkpt><trkpt lat="43.5595282" lon="11.5281804"><ele>144.0</ele><time>2026-04-25T09:03:37.947Z</time></trkpt><trkpt lat="43.5594887" lon="11.5280518"><ele>144.0</ele><time>2026-04-25T09:03:39.954Z</time></trkpt><trkpt lat="43.5594125" lon="11.5279983"><ele>144.0</ele><time>2026-04-25T09:03:42.963Z</time></trkpt><trkpt lat="43.5592626" lon="11.5280392"><ele>144.0</ele><time>2026-04-25T09:03:44.962Z</time></trkpt><trkpt lat="43.5591625" lon="11.5280686"><ele>144.0</ele><time>2026-04-25T09:03:45.963Z</time></trkpt><trkpt lat="43.5590528" lon="11.5281036"><ele>144.0</ele><time>2026-04-25T09:03:46.951Z</time></trkpt><trkpt lat="43.5589272" lon="11.5281266"><ele>144.0</ele><time>2026-04-25T09:03:47.96Z</time></trkpt><trkpt lat="43.5587948" lon="11.5281451"><ele>144.0</ele><time>2026-04-25T09:03:48.963Z</time></trkpt><trkpt lat="43.55865" lon="11.5281825"><ele>144.25</ele><time>2026-04-25T09:03:49.96Z</time></trkpt><trkpt lat="43.558502" lon="11.5282145"><ele>144.5</ele><time>2026-04-25T09:03:50.947Z</time></trkpt><trkpt lat="43.5583732" lon="11.5282534"><ele>144.75</ele><time>2026-04-25T09:03:51.958Z</time></trkpt><trkpt lat="43.5582552" lon="11.5282845"><ele>145.0</ele><time>2026-04-25T09:03:52.939Z</time></trkpt><trkpt lat="43.5581479" lon="11.5283208"><ele>145.0</ele><time>2026-04-25T09:03:53.953Z</time></trkpt><trkpt lat="43.5580565" lon="11.5283829"><ele>145.0</ele><time>2026-04-25T09:03:54.963Z</time></trkpt><trkpt lat="43.5579828" lon="11.5284882"><ele>145.0</ele><time>2026-04-25T09:03:55.948Z</time></trkpt><trkpt lat="43.5579233" lon="11.5286366"><ele>145.0</ele><time>2026-04-25T09:03:56.963Z</time></trkpt><trkpt lat="43.5578571" lon="11.5288166"><ele>144.25</ele><time>2026-04-25T09:03:57.948Z</time></trkpt><trkpt lat="43.5578027" lon="11.5290173"><ele>143.5</ele><time>2026-04-25T09:03:58.948Z</time></trkpt><trkpt lat="43.5577608" lon="11.5292085"><ele>142.75</ele><time>2026-04-25T09:03:59.959Z</time></trkpt><trkpt lat="43.5577351" lon="11.5293925"><ele>142.0</ele><time>2026-04-25T09:04:00.95Z</time></trkpt><trkpt lat="43.5577167" lon="11.5295713"><ele>140.5</ele><time>2026-04-25T09:04:01.952Z</time></trkpt><trkpt lat="43.5577058" lon="11.5297417"><ele>139.0</ele><time>2026-04-25T09:04:02.957Z</time></trkpt><trkpt lat="43.5576962" lon="11.5299055"><ele>137.5</ele><time>2026-04-25T09:04:03.959Z</time></trkpt><trkpt lat="43.5576876" lon="11.5300639"><ele>136.0</ele><time>2026-04-25T09:04:04.953Z</time></trkpt><trkpt lat="43.5576788" lon="11.5302286"><ele>136.0</ele><time>2026-04-25T09:04:05.951Z</time></trkpt><trkpt lat="43.5576776" lon="11.5303878"><ele>136.0</ele><time>2026-04-25T09:04:06.954Z</time></trkpt><trkpt lat="43.5576979" lon="11.5305478"><ele>136.0</ele><time>2026-04-25T09:04:07.957Z</time></trkpt><trkpt lat="43.5577224" lon="11.530698"><ele>136.0</ele><time>2026-04-25T09:04:08.958Z</time></trkpt><trkpt lat="43.5577282" lon="11.5308638"><ele>135.5</ele><time>2026-04-25T09:04:09.947Z</time></trkpt><trkpt lat="43.5577097" lon="11.5310404"><ele>135.0</ele><time>2026-04-25T09:04:10.947Z</time></trkpt><trkpt lat="43.5576761" lon="11.5312392"><ele>134.5</ele><time>2026-04-25T09:04:11.961Z</time></trkpt><trkpt lat="43.5576564" lon="11.5314554"><ele>134.0</ele><time>2026-04-25T09:04:12.945Z</time></trkpt><trkpt lat="43.557646" lon="11.5316879"><ele>133.66666666666666</ele><time>2026-04-25T09:04:13.969Z</time></trkpt><trkpt lat="43.5576436" lon="11.5319242"><ele>133.33333333333334</ele><time>2026-04-25T09:04:14.956Z</time></trkpt><trkpt lat="43.5576521" lon="11.5321526"><ele>133.0</ele><time>2026-04-25T09:04:15.965Z</time></trkpt><trkpt lat="43.5576868" lon="11.5323576"><ele>133.33333333333334</ele><time>2026-04-25T09:04:16.959Z</time></trkpt><trkpt lat="43.557754" lon="11.5325791"><ele>133.66666666666666</ele><time>2026-04-25T09:04:17.965Z</time></trkpt><trkpt lat="43.5578507" lon="11.5327965"><ele>134.0</ele><time>2026-04-25T09:04:18.976Z</time></trkpt><trkpt lat="43.557957" lon="11.5329894"><ele>134.0</ele><time>2026-04-25T09:04:19.951Z</time></trkpt><trkpt lat="43.5580772" lon="11.533153"><ele>134.0</ele><time>2026-04-25T09:04:20.952Z</time></trkpt><trkpt lat="43.5582046" lon="11.5333061"><ele>134.0</ele><time>2026-04-25T09:04:21.956Z</time></trkpt><trkpt lat="43.55833" lon="11.5334307"><ele>134.0</ele><time>2026-04-25T09:04:22.966Z</time></trkpt><trkpt lat="43.5584435" lon="11.5335749"><ele>134.0</ele><time>2026-04-25T09:04:23.959Z</time></trkpt><trkpt lat="43.5585473" lon="11.5337369"><ele>134.0</ele><time>2026-04-25T09:04:24.953Z</time></trkpt><trkpt lat="43.5586458" lon="11.533936"><ele>135.0</ele><time>2026-04-25T09:04:25.955Z</time></trkpt><trkpt lat="43.5587299" lon="11.5341399"><ele>136.0</ele><time>2026-04-25T09:04:26.951Z</time></trkpt><trkpt lat="43.5588095" lon="11.5343141"><ele>137.0</ele><time>2026-04-25T09:04:27.957Z</time></trkpt><trkpt lat="43.5588852" lon="11.5344772"><ele>137.0</ele><time>2026-04-25T09:04:28.954Z</time></trkpt><trkpt lat="43.558969" lon="11.5346356"><ele>137.0</ele><time>2026-04-25T09:04:29.956Z</time></trkpt><trkpt lat="43.5590449" lon="11.5347836"><ele>137.0</ele><time>2026-04-25T09:04:30.959Z</time></trkpt><trkpt lat="43.5591032" lon="11.5349125"><ele>137.0</ele><time>2026-04-25T09:04:31.948Z</time></trkpt><trkpt lat="43.5591447" lon="11.5350094"><ele>137.0</ele><time>2026-04-25T09:04:32.951Z</time></trkpt><trkpt lat="43.5592003" lon="11.5350902"><ele>137.0</ele><time>2026-04-25T09:04:34.953Z</time></trkpt><trkpt lat="43.5592539" lon="11.5351777"><ele>137.0</ele><time>2026-04-25T09:05:23.952Z</time></trkpt><trkpt lat="43.5593192" lon="11.5351753"><ele>137.0</ele><time>2026-04-25T09:05:24.96Z</time></trkpt><trkpt lat="43.5593936" lon="11.5351245"><ele>137.0</ele><time>2026-04-25T09:05:25.959Z</time></trkpt><trkpt lat="43.5594786" lon="11.5350368"><ele>137.0</ele><time>2026-04-25T09:05:26.957Z</time></trkpt><trkpt lat="43.5595638" lon="11.5349608"><ele>137.16666666666666</ele><time>2026-04-25T09:05:27.967Z</time></trkpt><trkpt lat="43.5596406" lon="11.5348878"><ele>137.33333333333331</ele><time>2026-04-25T09:05:28.945Z</time></trkpt><trkpt lat="43.5597148" lon="11.5348228"><ele>137.5</ele><time>2026-04-25T09:05:29.964Z</time></trkpt><trkpt lat="43.5597883" lon="11.5347785"><ele>137.66666666666666</ele><time>2026-04-25T09:05:30.961Z</time></trkpt><trkpt lat="43.5598519" lon="11.534732"><ele>137.83333333333334</ele><time>2026-04-25T09:05:31.963Z</time></trkpt><trkpt lat="43.5599599" lon="11.5347141"><ele>138.0</ele><time>2026-04-25T09:05:33.948Z</time></trkpt><trkpt lat="43.5600421" lon="11.5348699"><ele>138.0</ele><time>2026-04-25T09:05:35.954Z</time></trkpt><trkpt lat="43.5600876" lon="11.5349745"><ele>138.0</ele><time>2026-04-25T09:05:36.959Z</time></trkpt><trkpt lat="43.5601465" lon="11.5350876"><ele>138.0</ele><time>2026-04-25T09:05:37.946Z</time></trkpt><trkpt lat="43.560201" lon="11.5351974"><ele>138.0</ele><time>2026-04-25T09:05:38.962Z</time></trkpt><trkpt lat="43.5602601" lon="11.5353089"><ele>138.0</ele><time>2026-04-25T09:05:39.955Z</time></trkpt><trkpt lat="43.5603127" lon="11.5354222"><ele>138.0</ele><time>2026-04-25T09:05:40.953Z</time></trkpt><trkpt lat="43.5603652" lon="11.5355312"><ele>138.0</ele><time>2026-04-25T09:05:41.962Z</time></trkpt><trkpt lat="43.5604156" lon="11.5356366"><ele>138.0</ele><time>2026-04-25T09:05:42.961Z</time></trkpt><trkpt lat="43.560466" lon="11.5357401"><ele>138.0</ele><time>2026-04-25T09:05:43.953Z</time></trkpt><trkpt lat="43.5605204" lon="11.5358429"><ele>138.0</ele><time>2026-04-25T09:05:44.957Z</time></trkpt><trkpt lat="43.5605769" lon="11.5359514"><ele>138.0</ele><time>2026-04-25T09:05:45.963Z</time></trkpt><trkpt lat="43.560632" lon="11.5360691"><ele>138.0</ele><time>2026-04-25T09:05:46.95Z</time></trkpt><trkpt lat="43.5606866" lon="11.5361869"><ele>138.0</ele><time>2026-04-25T09:05:47.952Z</time></trkpt><trkpt lat="43.5607336" lon="11.5362987"><ele>138.0</ele><time>2026-04-25T09:05:48.957Z</time></trkpt><trkpt lat="43.5607869" lon="11.5364125"><ele>138.0</ele><time>2026-04-25T09:05:49.957Z</time></trkpt><trkpt lat="43.5608313" lon="11.5365206"><ele>138.0</ele><time>2026-04-25T09:05:50.948Z</time></trkpt><trkpt lat="43.5608784" lon="11.5366328"><ele>138.0</ele><time>2026-04-25T09:05:51.949Z</time></trkpt><trkpt lat="43.5609301" lon="11.5367549"><ele>138.0</ele><time>2026-04-25T09:05:52.952Z</time></trkpt><trkpt lat="43.560987" lon="11.5368843"><ele>138.0</ele><time>2026-04-25T09:05:53.952Z</time></trkpt><trkpt lat="43.5610435" lon="11.537013"><ele>138.0</ele><time>2026-04-25T09:05:54.963Z</time></trkpt><trkpt lat="43.5610938" lon="11.5371225"><ele>138.0</ele><time>2026-04-25T09:05:55.952Z</time></trkpt><trkpt lat="43.5611376" lon="11.5372188"><ele>138.0</ele><time>2026-04-25T09:05:56.961Z</time></trkpt><trkpt lat="43.5611728" lon="11.5372933"><ele>138.0</ele><time>2026-04-25T09:05:57.954Z</time></trkpt><trkpt lat="43.5612045" lon="11.5373818"><ele>138.0</ele><time>2026-04-25T09:05:59.954Z</time></trkpt><trkpt lat="43.5611698" lon="11.5374548"><ele>138.0</ele><time>2026-04-25T09:06:07.974Z</time></trkpt><trkpt lat="43.5610956" lon="11.5374864"><ele>138.0</ele><time>2026-04-25T09:06:09.951Z</time></trkpt><trkpt lat="43.5610314" lon="11.5375316"><ele>138.0</ele><time>2026-04-25T09:06:11.961Z</time></trkpt><trkpt lat="43.5609901" lon="11.5376274"><ele>138.0</ele><time>2026-04-25T09:06:13.968Z</time></trkpt><trkpt lat="43.560992" lon="11.537789"><ele>138.0</ele><time>2026-04-25T09:06:15.952Z</time></trkpt><trkpt lat="43.5609725" lon="11.5378808"><ele>138.0</ele><time>2026-04-25T09:06:17.968Z</time></trkpt><trkpt lat="43.560912" lon="11.5379272"><ele>138.0</ele><time>2026-04-25T09:06:20.958Z</time></trkpt><trkpt lat="43.5608494" lon="11.5379682"><ele>138.0</ele><time>2026-04-25T09:09:20.953Z</time></trkpt><trkpt lat="43.5607828" lon="11.537962"><ele>138.0</ele><time>2026-04-25T09:11:01.943Z</time></trkpt><trkpt lat="43.5607062" lon="11.5379194"><ele>137.6</ele><time>2026-04-25T09:11:03.951Z</time></trkpt><trkpt lat="43.5606308" lon="11.5379044"><ele>137.20000000000002</ele><time>2026-04-25T09:11:06.944Z</time></trkpt><trkpt lat="43.560521" lon="11.5379677"><ele>136.8</ele><time>2026-04-25T09:11:29.95Z</time></trkpt><trkpt lat="43.5604481" lon="11.5380019"><ele>136.4</ele><time>2026-04-25T09:11:30.959Z</time></trkpt><trkpt lat="43.5603497" lon="11.5380553"><ele>136.0</ele><time>2026-04-25T09:11:31.955Z</time></trkpt><trkpt lat="43.5602377" lon="11.5381173"><ele>136.0</ele><time>2026-04-25T09:11:32.952Z</time></trkpt><trkpt lat="43.5601047" lon="11.5381987"><ele>136.0</ele><time>2026-04-25T09:11:33.954Z</time></trkpt><trkpt lat="43.559971" lon="11.5382765"><ele>136.0</ele><time>2026-04-25T09:11:34.941Z</time></trkpt><trkpt lat="43.5598354" lon="11.5383634"><ele>136.0</ele><time>2026-04-25T09:11:35.967Z</time></trkpt><trkpt lat="43.5596965" lon="11.5384464"><ele>136.0</ele><time>2026-04-25T09:11:36.945Z</time></trkpt><trkpt lat="43.5595559" lon="11.5385315"><ele>136.0</ele><time>2026-04-25T09:11:37.95Z</time></trkpt><trkpt lat="43.5594127" lon="11.5386254"><ele>136.0</ele><time>2026-04-25T09:11:38.947Z</time></trkpt><trkpt lat="43.5592713" lon="11.5387114"><ele>135.33333333333334</ele><time>2026-04-25T09:11:39.939Z</time></trkpt><trkpt lat="43.5591277" lon="11.5387919"><ele>134.66666666666666</ele><time>2026-04-25T09:11:40.956Z</time></trkpt><trkpt lat="43.5589742" lon="11.5388689"><ele>134.0</ele><time>2026-04-25T09:11:41.953Z</time></trkpt><trkpt lat="43.5588147" lon="11.5389316"><ele>134.0</ele><time>2026-04-25T09:11:42.956Z</time></trkpt><trkpt lat="43.5586484" lon="11.5389829"><ele>134.0</ele><time>2026-04-25T09:11:43.959Z</time></trkpt><trkpt lat="43.5584921" lon="11.5390276"><ele>134.0</ele><time>2026-04-25T09:11:44.957Z</time></trkpt><trkpt lat="43.5583463" lon="11.5390514"><ele>134.0</ele><time>2026-04-25T09:11:45.95Z</time></trkpt><trkpt lat="43.5582079" lon="11.5390709"><ele>134.0</ele><time>2026-04-25T09:11:46.952Z</time></trkpt><trkpt lat="43.5580718" lon="11.5390798"><ele>134.0</ele><time>2026-04-25T09:11:47.954Z</time></trkpt><trkpt lat="43.5579322" lon="11.5390807"><ele>134.0</ele><time>2026-04-25T09:11:48.951Z</time></trkpt><trkpt lat="43.5577916" lon="11.5390722"><ele>134.0</ele><time>2026-04-25T09:11:49.96Z</time></trkpt><trkpt lat="43.5576469" lon="11.5390595"><ele>134.0</ele><time>2026-04-25T09:11:50.955Z</time></trkpt><trkpt lat="43.5574975" lon="11.5390371"><ele>134.0</ele><time>2026-04-25T09:11:51.953Z</time></trkpt><trkpt lat="43.557344" lon="11.5390101"><ele>134.0</ele><time>2026-04-25T09:11:52.949Z</time></trkpt><trkpt lat="43.5571918" lon="11.5389844"><ele>134.0</ele><time>2026-04-25T09:11:53.956Z</time></trkpt><trkpt lat="43.557042" lon="11.5389606"><ele>134.0</ele><time>2026-04-25T09:11:54.945Z</time></trkpt><trkpt lat="43.5569024" lon="11.5389263"><ele>134.0</ele><time>2026-04-25T09:11:55.952Z</time></trkpt><trkpt lat="43.5567742" lon="11.538898"><ele>134.25</ele><time>2026-04-25T09:11:56.962Z</time></trkpt><trkpt lat="43.5566516" lon="11.5388668"><ele>134.5</ele><time>2026-04-25T09:11:57.941Z</time></trkpt><trkpt lat="43.5565346" lon="11.5388321"><ele>134.75</ele><time>2026-04-25T09:11:58.955Z</time></trkpt><trkpt lat="43.5564245" lon="11.5387936"><ele>135.0</ele><time>2026-04-25T09:11:59.963Z</time></trkpt><trkpt lat="43.5563196" lon="11.5387717"><ele>135.0</ele><time>2026-04-25T09:12:00.961Z</time></trkpt><trkpt lat="43.5562336" lon="11.5387591"><ele>135.0</ele><time>2026-04-25T09:12:01.945Z</time></trkpt><trkpt lat="43.556157" lon="11.5387523"><ele>135.0</ele><time>2026-04-25T09:12:02.948Z</time></trkpt><trkpt lat="43.5560845" lon="11.5387338"><ele>135.0</ele><time>2026-04-25T09:12:03.957Z</time></trkpt><trkpt lat="43.5560205" lon="11.5387133"><ele>135.0</ele><time>2026-04-25T09:12:04.952Z</time></trkpt><trkpt lat="43.5559059" lon="11.5386705"><ele>135.0</ele><time>2026-04-25T09:12:06.948Z</time></trkpt><trkpt lat="43.5557853" lon="11.5386123"><ele>135.0</ele><time>2026-04-25T09:12:08.945Z</time></trkpt><trkpt lat="43.5556724" lon="11.5385675"><ele>135.0</ele><time>2026-04-25T09:12:10.953Z</time></trkpt><trkpt lat="43.555599" lon="11.5385489"><ele>135.0</ele><time>2026-04-25T09:12:11.96Z</time></trkpt><trkpt lat="43.5555104" lon="11.5385764"><ele>135.0</ele><time>2026-04-25T09:12:12.956Z</time></trkpt><trkpt lat="43.5554007" lon="11.5386604"><ele>135.0</ele><time>2026-04-25T09:12:13.952Z</time></trkpt><trkpt lat="43.5552729" lon="11.5387649"><ele>135.0</ele><time>2026-04-25T09:12:14.947Z</time></trkpt><trkpt lat="43.5551392" lon="11.5388967"><ele>135.0</ele><time>2026-04-25T09:12:15.953Z</time></trkpt><trkpt lat="43.5549894" lon="11.5390244"><ele>135.0</ele><time>2026-04-25T09:12:16.953Z</time></trkpt><trkpt lat="43.5548345" lon="11.5391614"><ele>135.0</ele><time>2026-04-25T09:12:17.951Z</time></trkpt><trkpt lat="43.5546717" lon="11.5393083"><ele>135.0</ele><time>2026-04-25T09:12:18.953Z</time></trkpt><trkpt lat="43.5544982" lon="11.5394576"><ele>135.0</ele><time>2026-04-25T09:12:19.955Z</time></trkpt><trkpt lat="43.5543193" lon="11.5396248"><ele>136.0</ele><time>2026-04-25T09:12:20.956Z</time></trkpt><trkpt lat="43.5541334" lon="11.5397879"><ele>137.0</ele><time>2026-04-25T09:12:21.946Z</time></trkpt><trkpt lat="43.5539599" lon="11.5399381"><ele>138.0</ele><time>2026-04-25T09:12:22.955Z</time></trkpt><trkpt lat="43.5538049" lon="11.540088"><ele>138.0</ele><time>2026-04-25T09:12:23.948Z</time></trkpt><trkpt lat="43.5536365" lon="11.5402391"><ele>138.0</ele><time>2026-04-25T09:12:24.947Z</time></trkpt><trkpt lat="43.5534793" lon="11.540384"><ele>138.0</ele><time>2026-04-25T09:12:25.946Z</time></trkpt><trkpt lat="43.5533256" lon="11.5405205"><ele>138.0</ele><time>2026-04-25T09:12:26.943Z</time></trkpt><trkpt lat="43.5531911" lon="11.540642"><ele>138.0</ele><time>2026-04-25T09:12:27.952Z</time></trkpt><trkpt lat="43.5530764" lon="11.5407556"><ele>138.0</ele><time>2026-04-25T09:12:28.95Z</time></trkpt><trkpt lat="43.5529542" lon="11.5408629"><ele>138.0</ele><time>2026-04-25T09:12:29.958Z</time></trkpt><trkpt lat="43.5528395" lon="11.5409595"><ele>137.8</ele><time>2026-04-25T09:12:30.965Z</time></trkpt><trkpt lat="43.55274" lon="11.5410532"><ele>137.60000000000002</ele><time>2026-04-25T09:12:31.944Z</time></trkpt><trkpt lat="43.5526486" lon="11.541133"><ele>137.39999999999998</ele><time>2026-04-25T09:12:32.947Z</time></trkpt><trkpt lat="43.5525674" lon="11.5412006"><ele>137.2</ele><time>2026-04-25T09:12:33.954Z</time></trkpt><trkpt lat="43.5525011" lon="11.5412582"><ele>137.0</ele><time>2026-04-25T09:12:34.963Z</time></trkpt><trkpt lat="43.5524128" lon="11.5413441"><ele>137.2</ele><time>2026-04-25T09:12:36.953Z</time></trkpt><trkpt lat="43.5523299" lon="11.5413929"><ele>137.39999999999998</ele><time>2026-04-25T09:12:38.957Z</time></trkpt><trkpt lat="43.5522397" lon="11.5414186"><ele>137.60000000000002</ele><time>2026-04-25T09:12:40.95Z</time></trkpt><trkpt lat="43.5521415" lon="11.541438"><ele>137.8</ele><time>2026-04-25T09:12:42.95Z</time></trkpt><trkpt lat="43.5520619" lon="11.5415433"><ele>138.0</ele><time>2026-04-25T09:12:44.949Z</time></trkpt><trkpt lat="43.5519968" lon="11.5416753"><ele>138.0</ele><time>2026-04-25T09:12:46.959Z</time></trkpt><trkpt lat="43.5519474" lon="11.5417585"><ele>138.0</ele><time>2026-04-25T09:12:47.952Z</time></trkpt><trkpt lat="43.5518864" lon="11.5418274"><ele>138.0</ele><time>2026-04-25T09:12:48.952Z</time></trkpt><trkpt lat="43.5518174" lon="11.5418957"><ele>138.0</ele><time>2026-04-25T09:12:49.946Z</time></trkpt><trkpt lat="43.5517333" lon="11.5419797"><ele>138.0</ele><time>2026-04-25T09:12:50.958Z</time></trkpt><trkpt lat="43.5516456" lon="11.5420721"><ele>137.66666666666666</ele><time>2026-04-25T09:12:51.95Z</time></trkpt><trkpt lat="43.5515418" lon="11.5421779"><ele>137.33333333333331</ele><time>2026-04-25T09:12:52.946Z</time></trkpt><trkpt lat="43.5513996" lon="11.5422841"><ele>137.0</ele><time>2026-04-25T09:12:53.967Z</time></trkpt><trkpt lat="43.551226" lon="11.542406"><ele>137.33333333333331</ele><time>2026-04-25T09:12:54.953Z</time></trkpt><trkpt lat="43.5510454" lon="11.5425507"><ele>137.66666666666666</ele><time>2026-04-25T09:12:55.962Z</time></trkpt><trkpt lat="43.5508767" lon="11.5427056"><ele>138.0</ele><time>2026-04-25T09:12:56.942Z</time></trkpt><trkpt lat="43.550713" lon="11.5428645"><ele>138.0</ele><time>2026-04-25T09:12:57.958Z</time></trkpt><trkpt lat="43.5505464" lon="11.5430155"><ele>138.0</ele><time>2026-04-25T09:12:58.945Z</time></trkpt><trkpt lat="43.5503804" lon="11.5431595"><ele>138.0</ele><time>2026-04-25T09:12:59.952Z</time></trkpt><trkpt lat="43.5502217" lon="11.5432968"><ele>137.66666666666666</ele><time>2026-04-25T09:13:00.961Z</time></trkpt><trkpt lat="43.5500775" lon="11.5434297"><ele>137.33333333333331</ele><time>2026-04-25T09:13:01.948Z</time></trkpt><trkpt lat="43.5499365" lon="11.5435585"><ele>137.0</ele><time>2026-04-25T09:13:02.95Z</time></trkpt><trkpt lat="43.5497987" lon="11.5436718"><ele>137.0</ele><time>2026-04-25T09:13:03.954Z</time></trkpt><trkpt lat="43.5496793" lon="11.5437684"><ele>137.0</ele><time>2026-04-25T09:13:04.949Z</time></trkpt><trkpt lat="43.5495775" lon="11.5438405"><ele>137.0</ele><time>2026-04-25T09:13:05.952Z</time></trkpt><trkpt lat="43.5494879" lon="11.5438792"><ele>137.0</ele><time>2026-04-25T09:13:06.951Z</time></trkpt><trkpt lat="43.5494026" lon="11.5438866"><ele>137.0</ele><time>2026-04-25T09:13:07.956Z</time></trkpt><trkpt lat="43.5493218" lon="11.5438841"><ele>137.0</ele><time>2026-04-25T09:13:08.966Z</time></trkpt><trkpt lat="43.5492491" lon="11.543915"><ele>137.0</ele><time>2026-04-25T09:13:09.974Z</time></trkpt><trkpt lat="43.5491973" lon="11.5439809"><ele>137.0</ele><time>2026-04-25T09:13:10.982Z</time></trkpt><trkpt lat="43.5491801" lon="11.5440731"><ele>137.0</ele><time>2026-04-25T09:13:11.963Z</time></trkpt><trkpt lat="43.5491707" lon="11.5441743"><ele>137.0</ele><time>2026-04-25T09:13:12.964Z</time></trkpt><trkpt lat="43.549149" lon="11.5442643"><ele>137.0</ele><time>2026-04-25T09:13:13.954Z</time></trkpt><trkpt lat="43.5490659" lon="11.5443443"><ele>137.0</ele><time>2026-04-25T09:13:14.957Z</time></trkpt><trkpt lat="43.5489763" lon="11.5444246"><ele>137.0</ele><time>2026-04-25T09:13:15.949Z</time></trkpt><trkpt lat="43.5488725" lon="11.5445445"><ele>137.0</ele><time>2026-04-25T09:13:16.962Z</time></trkpt><trkpt lat="43.5487206" lon="11.5446827"><ele>137.0</ele><time>2026-04-25T09:13:17.948Z</time></trkpt><trkpt lat="43.5485518" lon="11.5448036"><ele>136.66666666666666</ele><time>2026-04-25T09:13:18.951Z</time></trkpt><trkpt lat="43.5483682" lon="11.5449533"><ele>136.33333333333334</ele><time>2026-04-25T09:13:19.949Z</time></trkpt><trkpt lat="43.5481864" lon="11.5451273"><ele>136.0</ele><time>2026-04-25T09:13:20.954Z</time></trkpt><trkpt lat="43.547999" lon="11.5452987"><ele>135.5</ele><time>2026-04-25T09:13:21.957Z</time></trkpt><trkpt lat="43.5478024" lon="11.5454751"><ele>135.0</ele><time>2026-04-25T09:13:22.955Z</time></trkpt><trkpt lat="43.5476123" lon="11.5456462"><ele>135.0</ele><time>2026-04-25T09:13:23.953Z</time></trkpt><trkpt lat="43.5474335" lon="11.5457996"><ele>135.0</ele><time>2026-04-25T09:13:24.949Z</time></trkpt><trkpt lat="43.5472585" lon="11.5459551"><ele>135.0</ele><time>2026-04-25T09:13:25.955Z</time></trkpt><trkpt lat="43.5470819" lon="11.546106"><ele>134.66666666666666</ele><time>2026-04-25T09:13:26.956Z</time></trkpt><trkpt lat="43.5469105" lon="11.5462643"><ele>134.33333333333331</ele><time>2026-04-25T09:13:27.95Z</time></trkpt><trkpt lat="43.5467433" lon="11.5464185"><ele>134.0</ele><time>2026-04-25T09:13:28.95Z</time></trkpt><trkpt lat="43.5465829" lon="11.5465609"><ele>134.0</ele><time>2026-04-25T09:13:29.954Z</time></trkpt><trkpt lat="43.5464281" lon="11.5466946"><ele>134.0</ele><time>2026-04-25T09:13:30.948Z</time></trkpt><trkpt lat="43.5462882" lon="11.5468173"><ele>134.0</ele><time>2026-04-25T09:13:31.967Z</time></trkpt><trkpt lat="43.546155" lon="11.5469307"><ele>134.75</ele><time>2026-04-25T09:13:32.955Z</time></trkpt><trkpt lat="43.5460307" lon="11.5470417"><ele>135.5</ele><time>2026-04-25T09:13:33.946Z</time></trkpt><trkpt lat="43.5459173" lon="11.5471474"><ele>136.25</ele><time>2026-04-25T09:13:34.952Z</time></trkpt><trkpt lat="43.5458029" lon="11.5472493"><ele>137.0</ele><time>2026-04-25T09:13:35.959Z</time></trkpt><trkpt lat="43.5456926" lon="11.5473438"><ele>137.0</ele><time>2026-04-25T09:13:36.964Z</time></trkpt><trkpt lat="43.5455932" lon="11.5474312"><ele>137.0</ele><time>2026-04-25T09:13:37.948Z</time></trkpt><trkpt lat="43.5454891" lon="11.5475199"><ele>137.0</ele><time>2026-04-25T09:13:38.958Z</time></trkpt><trkpt lat="43.5453919" lon="11.5476094"><ele>137.0</ele><time>2026-04-25T09:13:39.953Z</time></trkpt><trkpt lat="43.5452956" lon="11.547693"><ele>137.16666666666666</ele><time>2026-04-25T09:13:40.95Z</time></trkpt><trkpt lat="43.5452117" lon="11.5477691"><ele>137.33333333333331</ele><time>2026-04-25T09:13:41.952Z</time></trkpt><trkpt lat="43.5451405" lon="11.5478413"><ele>137.5</ele><time>2026-04-25T09:13:42.949Z</time></trkpt><trkpt lat="43.5450771" lon="11.5479013"><ele>137.66666666666666</ele><time>2026-04-25T09:13:43.959Z</time></trkpt><trkpt lat="43.5450129" lon="11.5479378"><ele>137.83333333333334</ele><time>2026-04-25T09:13:44.957Z</time></trkpt><trkpt lat="43.5449462" lon="11.5479475"><ele>138.0</ele><time>2026-04-25T09:13:45.952Z</time></trkpt><trkpt lat="43.5448788" lon="11.5479265"><ele>138.0</ele><time>2026-04-25T09:13:46.947Z</time></trkpt><trkpt lat="43.5448097" lon="11.5479088"><ele>138.0</ele><time>2026-04-25T09:13:47.947Z</time></trkpt><trkpt lat="43.5447309" lon="11.5479128"><ele>138.0</ele><time>2026-04-25T09:13:48.947Z</time></trkpt><trkpt lat="43.5446552" lon="11.5479489"><ele>138.0</ele><time>2026-04-25T09:13:49.947Z</time></trkpt><trkpt lat="43.5445913" lon="11.5480259"><ele>138.0</ele><time>2026-04-25T09:13:50.966Z</time></trkpt><trkpt lat="43.5445344" lon="11.5481366"><ele>138.0</ele><time>2026-04-25T09:13:51.949Z</time></trkpt><trkpt lat="43.5445259" lon="11.5482586"><ele>138.0</ele><time>2026-04-25T09:13:52.955Z</time></trkpt><trkpt lat="43.5445596" lon="11.548376"><ele>138.0</ele><time>2026-04-25T09:13:53.95Z</time></trkpt><trkpt lat="43.5446233" lon="11.5484931"><ele>138.0</ele><time>2026-04-25T09:13:54.959Z</time></trkpt><trkpt lat="43.5447203" lon="11.5485895"><ele>138.0</ele><time>2026-04-25T09:13:55.946Z</time></trkpt><trkpt lat="43.5448265" lon="11.5486884"><ele>138.0</ele><time>2026-04-25T09:13:56.949Z</time></trkpt><trkpt lat="43.544907" lon="11.548841"><ele>136.66666666666666</ele><time>2026-04-25T09:13:57.943Z</time></trkpt><trkpt lat="43.5449761" lon="11.5490624"><ele>135.33333333333331</ele><time>2026-04-25T09:13:58.953Z</time></trkpt><trkpt lat="43.5450332" lon="11.5492885"><ele>134.0</ele><time>2026-04-25T09:13:59.945Z</time></trkpt><trkpt lat="43.5451019" lon="11.54953"><ele>134.33333333333331</ele><time>2026-04-25T09:14:00.962Z</time></trkpt><trkpt lat="43.5451782" lon="11.5497778"><ele>134.66666666666666</ele><time>2026-04-25T09:14:01.95Z</time></trkpt><trkpt lat="43.5452558" lon="11.5500447"><ele>135.0</ele><time>2026-04-25T09:14:02.957Z</time></trkpt><trkpt lat="43.5453506" lon="11.5503141"><ele>134.33333333333334</ele><time>2026-04-25T09:14:03.945Z</time></trkpt><trkpt lat="43.5454696" lon="11.5505554"><ele>133.66666666666669</ele><time>2026-04-25T09:14:04.953Z</time></trkpt><trkpt lat="43.545595" lon="11.5507508"><ele>133.0</ele><time>2026-04-25T09:14:05.948Z</time></trkpt><trkpt lat="43.5457162" lon="11.5509204"><ele>133.0</ele><time>2026-04-25T09:14:06.958Z</time></trkpt><trkpt lat="43.5458245" lon="11.5510574"><ele>133.0</ele><time>2026-04-25T09:14:07.964Z</time></trkpt><trkpt lat="43.5459082" lon="11.5511898"><ele>133.0</ele><time>2026-04-25T09:14:08.952Z</time></trkpt><trkpt lat="43.5459808" lon="11.5513097"><ele>133.0</ele><time>2026-04-25T09:14:09.949Z</time></trkpt><trkpt lat="43.5460182" lon="11.5514327"><ele>133.4</ele><time>2026-04-25T09:14:10.95Z</time></trkpt><trkpt lat="43.5460121" lon="11.5515485"><ele>133.8</ele><time>2026-04-25T09:14:11.945Z</time></trkpt><trkpt lat="43.5459633" lon="11.551662"><ele>134.2</ele><time>2026-04-25T09:14:12.965Z</time></trkpt><trkpt lat="43.5458975" lon="11.5517577"><ele>134.6</ele><time>2026-04-25T09:14:13.946Z</time></trkpt><trkpt lat="43.5458136" lon="11.551868"><ele>135.0</ele><time>2026-04-25T09:14:14.949Z</time></trkpt><trkpt lat="43.5457217" lon="11.552005"><ele>135.25</ele><time>2026-04-25T09:14:15.961Z</time></trkpt><trkpt lat="43.5456222" lon="11.5521474"><ele>135.5</ele><time>2026-04-25T09:14:16.959Z</time></trkpt><trkpt lat="43.5455325" lon="11.5522808"><ele>135.75</ele><time>2026-04-25T09:14:17.954Z</time></trkpt><trkpt lat="43.5454353" lon="11.5524166"><ele>136.0</ele><time>2026-04-25T09:14:18.949Z</time></trkpt><trkpt lat="43.545337" lon="11.5525515"><ele>136.0</ele><time>2026-04-25T09:14:19.944Z</time></trkpt><trkpt lat="43.5452343" lon="11.5526932"><ele>136.0</ele><time>2026-04-25T09:14:20.952Z</time></trkpt><trkpt lat="43.5451306" lon="11.552837"><ele>136.0</ele><time>2026-04-25T09:14:21.961Z</time></trkpt><trkpt lat="43.5450355" lon="11.5529804"><ele>136.0</ele><time>2026-04-25T09:14:22.951Z</time></trkpt><trkpt lat="43.5449402" lon="11.5531107"><ele>136.5</ele><time>2026-04-25T09:14:23.945Z</time></trkpt><trkpt lat="43.5448507" lon="11.5532349"><ele>137.0</ele><time>2026-04-25T09:14:24.951Z</time></trkpt><trkpt lat="43.5447625" lon="11.5533566"><ele>137.5</ele><time>2026-04-25T09:14:25.939Z</time></trkpt><trkpt lat="43.544677" lon="11.5534695"><ele>138.0</ele><time>2026-04-25T09:14:26.943Z</time></trkpt><trkpt lat="43.5446004" lon="11.5535805"><ele>137.8</ele><time>2026-04-25T09:14:27.95Z</time></trkpt><trkpt lat="43.5445255" lon="11.5536807"><ele>137.60000000000002</ele><time>2026-04-25T09:14:28.948Z</time></trkpt><trkpt lat="43.5444511" lon="11.5537796"><ele>137.39999999999998</ele><time>2026-04-25T09:14:29.958Z</time></trkpt><trkpt lat="43.544372" lon="11.5538838"><ele>137.2</ele><time>2026-04-25T09:14:30.941Z</time></trkpt><trkpt lat="43.5442829" lon="11.5540043"><ele>137.0</ele><time>2026-04-25T09:14:31.944Z</time></trkpt><trkpt lat="43.5441939" lon="11.5541332"><ele>136.75</ele><time>2026-04-25T09:14:32.944Z</time></trkpt><trkpt lat="43.544125" lon="11.5542747"><ele>136.5</ele><time>2026-04-25T09:14:33.944Z</time></trkpt><trkpt lat="43.5440843" lon="11.5544311"><ele>136.25</ele><time>2026-04-25T09:14:34.944Z</time></trkpt><trkpt lat="43.5440511" lon="11.554597"><ele>136.0</ele><time>2026-04-25T09:14:35.959Z</time></trkpt><trkpt lat="43.5440161" lon="11.5547595"><ele>136.0</ele><time>2026-04-25T09:14:36.949Z</time></trkpt><trkpt lat="43.5439698" lon="11.5549177"><ele>136.0</ele><time>2026-04-25T09:14:37.954Z</time></trkpt><trkpt lat="43.5439286" lon="11.5550784"><ele>136.0</ele><time>2026-04-25T09:14:38.942Z</time></trkpt><trkpt lat="43.5438901" lon="11.5552376"><ele>136.0</ele><time>2026-04-25T09:14:39.948Z</time></trkpt><trkpt lat="43.5438481" lon="11.5554072"><ele>136.0</ele><time>2026-04-25T09:14:40.968Z</time></trkpt><trkpt lat="43.5437979" lon="11.5555842"><ele>136.0</ele><time>2026-04-25T09:14:41.944Z</time></trkpt><trkpt lat="43.5437417" lon="11.5557837"><ele>136.0</ele><time>2026-04-25T09:14:42.95Z</time></trkpt><trkpt lat="43.5436717" lon="11.5560069"><ele>136.0</ele><time>2026-04-25T09:14:43.946Z</time></trkpt><trkpt lat="43.543597" lon="11.5562395"><ele>136.0</ele><time>2026-04-25T09:14:44.957Z</time></trkpt><trkpt lat="43.5435165" lon="11.5564883"><ele>136.0</ele><time>2026-04-25T09:14:45.949Z</time></trkpt><trkpt lat="43.5434336" lon="11.5567476"><ele>136.0</ele><time>2026-04-25T09:14:46.957Z</time></trkpt><trkpt lat="43.5433521" lon="11.5570184"><ele>136.0</ele><time>2026-04-25T09:14:47.947Z</time></trkpt><trkpt lat="43.5432697" lon="11.557272"><ele>136.0</ele><time>2026-04-25T09:14:48.955Z</time></trkpt><trkpt lat="43.5431667" lon="11.55752"><ele>136.66666666666669</ele><time>2026-04-25T09:14:49.947Z</time></trkpt><trkpt lat="43.543039" lon="11.5577399"><ele>137.33333333333334</ele><time>2026-04-25T09:14:50.949Z</time></trkpt><trkpt lat="43.5429168" lon="11.5579505"><ele>138.0</ele><time>2026-04-25T09:14:51.948Z</time></trkpt><trkpt lat="43.5427917" lon="11.5581535"><ele>138.33333333333334</ele><time>2026-04-25T09:14:52.967Z</time></trkpt><trkpt lat="43.5426726" lon="11.5583514"><ele>138.66666666666669</ele><time>2026-04-25T09:14:53.95Z</time></trkpt><trkpt lat="43.5425631" lon="11.5585362"><ele>139.0</ele><time>2026-04-25T09:14:54.952Z</time></trkpt><trkpt lat="43.5424561" lon="11.558724"><ele>139.0</ele><time>2026-04-25T09:14:55.948Z</time></trkpt><trkpt lat="43.5423512" lon="11.5589022"><ele>139.0</ele><time>2026-04-25T09:14:56.962Z</time></trkpt><trkpt lat="43.5422558" lon="11.5590564"><ele>139.0</ele><time>2026-04-25T09:14:57.942Z</time></trkpt><trkpt lat="43.5421636" lon="11.5591731"><ele>139.0</ele><time>2026-04-25T09:14:58.953Z</time></trkpt><trkpt lat="43.5420618" lon="11.5592526"><ele>138.5</ele><time>2026-04-25T09:14:59.95Z</time></trkpt><trkpt lat="43.5419814" lon="11.5593517"><ele>138.0</ele><time>2026-04-25T09:15:00.948Z</time></trkpt><trkpt lat="43.541927" lon="11.5594967"><ele>137.5</ele><time>2026-04-25T09:15:01.949Z</time></trkpt><trkpt lat="43.5418716" lon="11.5596557"><ele>137.0</ele><time>2026-04-25T09:15:02.964Z</time></trkpt><trkpt lat="43.5417897" lon="11.5598121"><ele>136.33333333333331</ele><time>2026-04-25T09:15:03.958Z</time></trkpt><trkpt lat="43.5416817" lon="11.5599807"><ele>135.66666666666666</ele><time>2026-04-25T09:15:04.948Z</time></trkpt><trkpt lat="43.5415783" lon="11.5601547"><ele>135.0</ele><time>2026-04-25T09:15:05.961Z</time></trkpt><trkpt lat="43.5414742" lon="11.5603332"><ele>135.0</ele><time>2026-04-25T09:15:06.941Z</time></trkpt><trkpt lat="43.5413686" lon="11.5605099"><ele>135.0</ele><time>2026-04-25T09:15:07.962Z</time></trkpt><trkpt lat="43.5412493" lon="11.5607023"><ele>135.0</ele><time>2026-04-25T09:15:08.958Z</time></trkpt><trkpt lat="43.5411178" lon="11.5609086"><ele>136.0</ele><time>2026-04-25T09:15:09.952Z</time></trkpt><trkpt lat="43.54098" lon="11.561128"><ele>137.0</ele><time>2026-04-25T09:15:10.954Z</time></trkpt><trkpt lat="43.5408525" lon="11.5613388"><ele>138.0</ele><time>2026-04-25T09:15:11.966Z</time></trkpt><trkpt lat="43.5407185" lon="11.5615494"><ele>138.33333333333334</ele><time>2026-04-25T09:15:12.942Z</time></trkpt><trkpt lat="43.5405884" lon="11.5617532"><ele>138.66666666666669</ele><time>2026-04-25T09:15:13.942Z</time></trkpt><trkpt lat="43.5404683" lon="11.5619471"><ele>139.0</ele><time>2026-04-25T09:15:14.94Z</time></trkpt><trkpt lat="43.540261" lon="11.5622931"><ele>139.0</ele><time>2026-04-25T09:15:16.941Z</time></trkpt><trkpt lat="43.5401639" lon="11.5624578"><ele>139.0</ele><time>2026-04-25T09:15:17.947Z</time></trkpt><trkpt lat="43.5400512" lon="11.56263"><ele>139.0</ele><time>2026-04-25T09:15:18.946Z</time></trkpt><trkpt lat="43.539933" lon="11.5628039"><ele>138.66666666666669</ele><time>2026-04-25T09:15:19.941Z</time></trkpt><trkpt lat="43.5398264" lon="11.5629753"><ele>138.33333333333334</ele><time>2026-04-25T09:15:20.945Z</time></trkpt><trkpt lat="43.5397366" lon="11.5631498"><ele>138.0</ele><time>2026-04-25T09:15:21.942Z</time></trkpt><trkpt lat="43.5396869" lon="11.5633496"><ele>138.0</ele><time>2026-04-25T09:15:22.949Z</time></trkpt><trkpt lat="43.5396669" lon="11.5635529"><ele>138.0</ele><time>2026-04-25T09:15:23.94Z</time></trkpt><trkpt lat="43.5396358" lon="11.5637443"><ele>138.0</ele><time>2026-04-25T09:15:24.943Z</time></trkpt><trkpt lat="43.5395357" lon="11.5640513"><ele>137.33333333333334</ele><time>2026-04-25T09:15:26.956Z</time></trkpt><trkpt lat="43.5393077" lon="11.5641826"><ele>136.66666666666669</ele><time>2026-04-25T09:15:28.942Z</time></trkpt><trkpt lat="43.5391724" lon="11.5641913"><ele>136.0</ele><time>2026-04-25T09:15:29.939Z</time></trkpt><trkpt lat="43.5390576" lon="11.564151"><ele>136.0</ele><time>2026-04-25T09:15:30.942Z</time></trkpt><trkpt lat="43.5389478" lon="11.564053"><ele>136.0</ele><time>2026-04-25T09:15:31.942Z</time></trkpt><trkpt lat="43.5388237" lon="11.5639547"><ele>136.0</ele><time>2026-04-25T09:15:32.94Z</time></trkpt><trkpt lat="43.5387222" lon="11.5638594"><ele>136.0</ele><time>2026-04-25T09:15:33.943Z</time></trkpt><trkpt lat="43.5386488" lon="11.5637827"><ele>136.33333333333334</ele><time>2026-04-25T09:15:34.946Z</time></trkpt><trkpt lat="43.5385907" lon="11.5637164"><ele>136.66666666666669</ele><time>2026-04-25T09:15:35.952Z</time></trkpt><trkpt lat="43.538549" lon="11.563632"><ele>137.0</ele><time>2026-04-25T09:15:36.953Z</time></trkpt><trkpt lat="43.5385326" lon="11.5635382"><ele>137.33333333333334</ele><time>2026-04-25T09:15:37.95Z</time></trkpt><trkpt lat="43.5385537" lon="11.5634208"><ele>137.66666666666666</ele><time>2026-04-25T09:15:38.962Z</time></trkpt><trkpt lat="43.5386159" lon="11.5633311"><ele>138.0</ele><time>2026-04-25T09:15:39.95Z</time></trkpt><trkpt lat="43.5386837" lon="11.563234"><ele>138.20000000000002</ele><time>2026-04-25T09:15:40.954Z</time></trkpt><trkpt lat="43.5387732" lon="11.5631891"><ele>138.4</ele><time>2026-04-25T09:15:41.946Z</time></trkpt><trkpt lat="43.5388672" lon="11.5631896"><ele>138.60000000000002</ele><time>2026-04-25T09:15:42.963Z</time></trkpt><trkpt lat="43.5389499" lon="11.5632387"><ele>138.8</ele><time>2026-04-25T09:15:43.954Z</time></trkpt><trkpt lat="43.5390145" lon="11.5633309"><ele>139.0</ele><time>2026-04-25T09:15:44.957Z</time></trkpt><trkpt lat="43.5390948" lon="11.5634605"><ele>139.0</ele><time>2026-04-25T09:15:45.95Z</time></trkpt><trkpt lat="43.5391941" lon="11.5636044"><ele>139.0</ele><time>2026-04-25T09:15:46.958Z</time></trkpt><trkpt lat="43.5393087" lon="11.5637575"><ele>139.0</ele><time>2026-04-25T09:15:47.956Z</time></trkpt><trkpt lat="43.5394265" lon="11.5639166"><ele>138.66666666666669</ele><time>2026-04-25T09:15:48.957Z</time></trkpt><trkpt lat="43.5395405" lon="11.5640718"><ele>138.33333333333334</ele><time>2026-04-25T09:15:49.947Z</time></trkpt><trkpt lat="43.5396492" lon="11.5642145"><ele>138.0</ele><time>2026-04-25T09:15:50.954Z</time></trkpt><trkpt lat="43.5397524" lon="11.5643606"><ele>138.0</ele><time>2026-04-25T09:15:51.954Z</time></trkpt><trkpt lat="43.5398576" lon="11.5644963"><ele>138.0</ele><time>2026-04-25T09:15:52.959Z</time></trkpt><trkpt lat="43.5399569" lon="11.5646324"><ele>138.0</ele><time>2026-04-25T09:15:53.953Z</time></trkpt><trkpt lat="43.5400633" lon="11.5647758"><ele>138.0</ele><time>2026-04-25T09:15:54.961Z</time></trkpt><trkpt lat="43.5401647" lon="11.5649123"><ele>138.0</ele><time>2026-04-25T09:15:55.955Z</time></trkpt><trkpt lat="43.5402575" lon="11.5650463"><ele>138.0</ele><time>2026-04-25T09:15:56.952Z</time></trkpt><trkpt lat="43.5403408" lon="11.5651786"><ele>138.0</ele><time>2026-04-25T09:15:57.958Z</time></trkpt><trkpt lat="43.5404187" lon="11.5652772"><ele>138.0</ele><time>2026-04-25T09:15:58.963Z</time></trkpt><trkpt lat="43.5404879" lon="11.5653725"><ele>137.20000000000002</ele><time>2026-04-25T09:15:59.945Z</time></trkpt><trkpt lat="43.540562" lon="11.5654712"><ele>136.4</ele><time>2026-04-25T09:16:00.95Z</time></trkpt><trkpt lat="43.5406405" lon="11.5655741"><ele>135.60000000000002</ele><time>2026-04-25T09:16:01.953Z</time></trkpt><trkpt lat="43.5407235" lon="11.5656762"><ele>134.8</ele><time>2026-04-25T09:16:02.971Z</time></trkpt><trkpt lat="43.5408086" lon="11.5657883"><ele>134.0</ele><time>2026-04-25T09:16:03.959Z</time></trkpt><trkpt lat="43.5409156" lon="11.5659183"><ele>134.0</ele><time>2026-04-25T09:16:04.948Z</time></trkpt><trkpt lat="43.5410412" lon="11.5660757"><ele>134.0</ele><time>2026-04-25T09:16:05.956Z</time></trkpt><trkpt lat="43.5411824" lon="11.5662585"><ele>134.0</ele><time>2026-04-25T09:16:06.949Z</time></trkpt><trkpt lat="43.5413233" lon="11.566459"><ele>134.66666666666666</ele><time>2026-04-25T09:16:07.946Z</time></trkpt><trkpt lat="43.5414713" lon="11.5666574"><ele>135.33333333333334</ele><time>2026-04-25T09:16:08.965Z</time></trkpt><trkpt lat="43.5416084" lon="11.5668397"><ele>136.0</ele><time>2026-04-25T09:16:09.939Z</time></trkpt><trkpt lat="43.5417391" lon="11.5670203"><ele>136.66666666666669</ele><time>2026-04-25T09:16:10.949Z</time></trkpt><trkpt lat="43.541864" lon="11.5671947"><ele>137.33333333333334</ele><time>2026-04-25T09:16:11.957Z</time></trkpt><trkpt lat="43.5419892" lon="11.5673652"><ele>138.0</ele><time>2026-04-25T09:16:12.95Z</time></trkpt><trkpt lat="43.5421135" lon="11.5675362"><ele>138.0</ele><time>2026-04-25T09:16:13.958Z</time></trkpt><trkpt lat="43.5422383" lon="11.5677406"><ele>138.0</ele><time>2026-04-25T09:16:14.948Z</time></trkpt><trkpt lat="43.5423653" lon="11.5679608"><ele>138.0</ele><time>2026-04-25T09:16:15.947Z</time></trkpt><trkpt lat="43.5424793" lon="11.5682008"><ele>138.66666666666666</ele><time>2026-04-25T09:16:16.954Z</time></trkpt><trkpt lat="43.5425947" lon="11.5684323"><ele>139.33333333333331</ele><time>2026-04-25T09:16:17.953Z</time></trkpt><trkpt lat="43.5426976" lon="11.568656"><ele>140.0</ele><time>2026-04-25T09:16:18.948Z</time></trkpt><trkpt lat="43.5428065" lon="11.568871"><ele>140.33333333333331</ele><time>2026-04-25T09:16:19.958Z</time></trkpt><trkpt lat="43.5429093" lon="11.5690801"><ele>140.66666666666666</ele><time>2026-04-25T09:16:20.945Z</time></trkpt><trkpt lat="43.5430061" lon="11.5692593"><ele>141.0</ele><time>2026-04-25T09:16:21.952Z</time></trkpt><trkpt lat="43.5430823" lon="11.5694231"><ele>140.8</ele><time>2026-04-25T09:16:22.965Z</time></trkpt><trkpt lat="43.5431275" lon="11.5695552"><ele>140.6</ele><time>2026-04-25T09:16:23.962Z</time></trkpt><trkpt lat="43.5431416" lon="11.5696798"><ele>140.4</ele><time>2026-04-25T09:16:24.958Z</time></trkpt><trkpt lat="43.5431317" lon="11.5698028"><ele>140.2</ele><time>2026-04-25T09:16:25.95Z</time></trkpt><trkpt lat="43.5430948" lon="11.5698968"><ele>140.0</ele><time>2026-04-25T09:16:26.959Z</time></trkpt><trkpt lat="43.5430231" lon="11.5699773"><ele>140.0</ele><time>2026-04-25T09:16:27.947Z</time></trkpt><trkpt lat="43.542927" lon="11.5700702"><ele>140.0</ele><time>2026-04-25T09:16:28.948Z</time></trkpt><trkpt lat="43.5428054" lon="11.5701967"><ele>140.0</ele><time>2026-04-25T09:16:29.961Z</time></trkpt><trkpt lat="43.5426865" lon="11.5703426"><ele>140.0</ele><time>2026-04-25T09:16:30.949Z</time></trkpt><trkpt lat="43.5425701" lon="11.570495"><ele>140.25</ele><time>2026-04-25T09:16:31.951Z</time></trkpt><trkpt lat="43.5424472" lon="11.5706275"><ele>140.5</ele><time>2026-04-25T09:16:32.95Z</time></trkpt><trkpt lat="43.542352" lon="11.5707398"><ele>140.75</ele><time>2026-04-25T09:16:33.957Z</time></trkpt><trkpt lat="43.5422698" lon="11.570837"><ele>141.0</ele><time>2026-04-25T09:16:34.951Z</time></trkpt><trkpt lat="43.5421887" lon="11.5709214"><ele>141.0</ele><time>2026-04-25T09:16:35.952Z</time></trkpt><trkpt lat="43.5421106" lon="11.5709478"><ele>141.0</ele><time>2026-04-25T09:16:36.95Z</time></trkpt><trkpt lat="43.5420233" lon="11.570931"><ele>141.0</ele><time>2026-04-25T09:16:37.952Z</time></trkpt><trkpt lat="43.5419195" lon="11.5709104"><ele>141.0</ele><time>2026-04-25T09:16:38.96Z</time></trkpt><trkpt lat="43.5417881" lon="11.5708752"><ele>141.0</ele><time>2026-04-25T09:16:39.952Z</time></trkpt><trkpt lat="43.5416327" lon="11.5708347"><ele>141.33333333333334</ele><time>2026-04-25T09:16:40.95Z</time></trkpt><trkpt lat="43.541463" lon="11.5707968"><ele>141.66666666666669</ele><time>2026-04-25T09:16:41.949Z</time></trkpt><trkpt lat="43.5412915" lon="11.5707588"><ele>142.0</ele><time>2026-04-25T09:16:42.949Z</time></trkpt><trkpt lat="43.5411468" lon="11.5707193"><ele>142.0</ele><time>2026-04-25T09:16:43.953Z</time></trkpt><trkpt lat="43.5410087" lon="11.5706792"><ele>142.0</ele><time>2026-04-25T09:16:44.951Z</time></trkpt><trkpt lat="43.5408837" lon="11.5706412"><ele>142.0</ele><time>2026-04-25T09:16:45.964Z</time></trkpt><trkpt lat="43.5407626" lon="11.570609"><ele>142.0</ele><time>2026-04-25T09:16:46.947Z</time></trkpt><trkpt lat="43.5406623" lon="11.5705769"><ele>142.0</ele><time>2026-04-25T09:16:47.95Z</time></trkpt><trkpt lat="43.5405716" lon="11.5705397"><ele>142.0</ele><time>2026-04-25T09:16:48.956Z</time></trkpt><trkpt lat="43.5405047" lon="11.5704861"><ele>142.0</ele><time>2026-04-25T09:16:49.944Z</time></trkpt><trkpt lat="43.5404542" lon="11.570422"><ele>142.0</ele><time>2026-04-25T09:16:50.956Z</time></trkpt><trkpt lat="43.5404061" lon="11.5703544"><ele>142.0</ele><time>2026-04-25T09:16:51.959Z</time></trkpt><trkpt lat="43.5403448" lon="11.5703084"><ele>142.0</ele><time>2026-04-25T09:16:52.956Z</time></trkpt><trkpt lat="43.5402704" lon="11.5703101"><ele>141.83333333333334</ele><time>2026-04-25T09:16:53.949Z</time></trkpt><trkpt lat="43.5401984" lon="11.5703516"><ele>141.66666666666669</ele><time>2026-04-25T09:16:54.948Z</time></trkpt><trkpt lat="43.5401466" lon="11.5704355"><ele>141.5</ele><time>2026-04-25T09:16:55.953Z</time></trkpt><trkpt lat="43.5401038" lon="11.5705375"><ele>141.33333333333334</ele><time>2026-04-25T09:16:56.948Z</time></trkpt><trkpt lat="43.5400566" lon="11.5706381"><ele>141.16666666666666</ele><time>2026-04-25T09:16:57.942Z</time></trkpt><trkpt lat="43.539966" lon="11.570732"><ele>141.0</ele><time>2026-04-25T09:16:58.956Z</time></trkpt><trkpt lat="43.5398468" lon="11.5708558"><ele>141.0</ele><time>2026-04-25T09:16:59.95Z</time></trkpt><trkpt lat="43.5397262" lon="11.5709937"><ele>141.0</ele><time>2026-04-25T09:17:00.957Z</time></trkpt><trkpt lat="43.5395916" lon="11.5711707"><ele>141.0</ele><time>2026-04-25T09:17:01.948Z</time></trkpt><trkpt lat="43.5394513" lon="11.5713592"><ele>140.33333333333334</ele><time>2026-04-25T09:17:02.953Z</time></trkpt><trkpt lat="43.5393071" lon="11.5715642"><ele>139.66666666666669</ele><time>2026-04-25T09:17:03.953Z</time></trkpt><trkpt lat="43.5391551" lon="11.5717874"><ele>139.0</ele><time>2026-04-25T09:17:04.962Z</time></trkpt><trkpt lat="43.5390106" lon="11.5720263"><ele>140.0</ele><time>2026-04-25T09:17:05.951Z</time></trkpt><trkpt lat="43.5388697" lon="11.5722544"><ele>141.0</ele><time>2026-04-25T09:17:06.95Z</time></trkpt><trkpt lat="43.5387418" lon="11.5724847"><ele>142.0</ele><time>2026-04-25T09:17:07.958Z</time></trkpt><trkpt lat="43.5386053" lon="11.5727304"><ele>142.0</ele><time>2026-04-25T09:17:08.954Z</time></trkpt><trkpt lat="43.5384627" lon="11.5729775"><ele>142.0</ele><time>2026-04-25T09:17:09.949Z</time></trkpt><trkpt lat="43.5383217" lon="11.5732275"><ele>142.0</ele><time>2026-04-25T09:17:10.951Z</time></trkpt><trkpt lat="43.5381726" lon="11.5734913"><ele>142.0</ele><time>2026-04-25T09:17:11.952Z</time></trkpt><trkpt lat="43.5380205" lon="11.5737638"><ele>142.5</ele><time>2026-04-25T09:17:12.954Z</time></trkpt><trkpt lat="43.537866" lon="11.5740454"><ele>143.0</ele><time>2026-04-25T09:17:13.949Z</time></trkpt><trkpt lat="43.5377053" lon="11.5743254"><ele>142.0</ele><time>2026-04-25T09:17:14.957Z</time></trkpt><trkpt lat="43.5375533" lon="11.5745997"><ele>141.0</ele><time>2026-04-25T09:17:15.961Z</time></trkpt><trkpt lat="43.5374035" lon="11.5748676"><ele>141.0</ele><time>2026-04-25T09:17:16.951Z</time></trkpt><trkpt lat="43.5372528" lon="11.5751321"><ele>141.0</ele><time>2026-04-25T09:17:17.951Z</time></trkpt><trkpt lat="43.5371072" lon="11.5753973"><ele>141.0</ele><time>2026-04-25T09:17:18.95Z</time></trkpt><trkpt lat="43.5369594" lon="11.5756564"><ele>141.0</ele><time>2026-04-25T09:17:19.948Z</time></trkpt><trkpt lat="43.5368129" lon="11.5759162"><ele>141.0</ele><time>2026-04-25T09:17:20.971Z</time></trkpt><trkpt lat="43.5366665" lon="11.5761773"><ele>141.0</ele><time>2026-04-25T09:17:21.963Z</time></trkpt><trkpt lat="43.5365248" lon="11.5764351"><ele>141.5</ele><time>2026-04-25T09:17:22.948Z</time></trkpt><trkpt lat="43.5363809" lon="11.5766899"><ele>142.0</ele><time>2026-04-25T09:17:23.957Z</time></trkpt><trkpt lat="43.5362361" lon="11.5769464"><ele>141.5</ele><time>2026-04-25T09:17:24.948Z</time></trkpt><trkpt lat="43.5360979" lon="11.5772051"><ele>141.0</ele><time>2026-04-25T09:17:25.949Z</time></trkpt><trkpt lat="43.5359584" lon="11.5774619"><ele>141.0</ele><time>2026-04-25T09:17:26.95Z</time></trkpt><trkpt lat="43.5358195" lon="11.5777157"><ele>141.0</ele><time>2026-04-25T09:17:27.954Z</time></trkpt><trkpt lat="43.5356778" lon="11.5779685"><ele>141.0</ele><time>2026-04-25T09:17:28.949Z</time></trkpt><trkpt lat="43.5355338" lon="11.5782223"><ele>141.0</ele><time>2026-04-25T09:17:29.949Z</time></trkpt><trkpt lat="43.5353936" lon="11.5784751"><ele>141.0</ele><time>2026-04-25T09:17:30.952Z</time></trkpt><trkpt lat="43.5352515" lon="11.5787327"><ele>141.0</ele><time>2026-04-25T09:17:31.95Z</time></trkpt><trkpt lat="43.5351071" lon="11.5789981"><ele>141.0</ele><time>2026-04-25T09:17:32.945Z</time></trkpt><trkpt lat="43.5349553" lon="11.5792708"><ele>141.0</ele><time>2026-04-25T09:17:33.945Z</time></trkpt><trkpt lat="43.5348055" lon="11.5795325"><ele>142.0</ele><time>2026-04-25T09:17:34.939Z</time></trkpt><trkpt lat="43.5346624" lon="11.5797825"><ele>143.0</ele><time>2026-04-25T09:17:35.94Z</time></trkpt><trkpt lat="43.534521" lon="11.5800274"><ele>143.0</ele><time>2026-04-25T09:17:36.941Z</time></trkpt><trkpt lat="43.5343704" lon="11.5802736"><ele>143.0</ele><time>2026-04-25T09:17:37.94Z</time></trkpt><trkpt lat="43.5342152" lon="11.5805196"><ele>143.0</ele><time>2026-04-25T09:17:38.956Z</time></trkpt><trkpt lat="43.5340637" lon="11.5807683"><ele>143.0</ele><time>2026-04-25T09:17:39.947Z</time></trkpt><trkpt lat="43.5339175" lon="11.581013"><ele>143.0</ele><time>2026-04-25T09:17:40.957Z</time></trkpt><trkpt lat="43.5337788" lon="11.5812721"><ele>143.0</ele><time>2026-04-25T09:17:41.943Z</time></trkpt><trkpt lat="43.5336337" lon="11.581541"><ele>143.0</ele><time>2026-04-25T09:17:42.938Z</time></trkpt><trkpt lat="43.5334925" lon="11.5818138"><ele>143.0</ele><time>2026-04-25T09:17:43.948Z</time></trkpt><trkpt lat="43.5333562" lon="11.5820867"><ele>143.0</ele><time>2026-04-25T09:17:44.958Z</time></trkpt><trkpt lat="43.533223" lon="11.5823471"><ele>143.0</ele><time>2026-04-25T09:17:45.95Z</time></trkpt><trkpt lat="43.5330978" lon="11.5825943"><ele>143.0</ele><time>2026-04-25T09:17:46.953Z</time></trkpt><trkpt lat="43.5329734" lon="11.5828314"><ele>143.0</ele><time>2026-04-25T09:17:47.95Z</time></trkpt><trkpt lat="43.5328548" lon="11.5830523"><ele>143.0</ele><time>2026-04-25T09:17:48.951Z</time></trkpt><trkpt lat="43.5327422" lon="11.5832566"><ele>143.0</ele><time>2026-04-25T09:17:49.953Z</time></trkpt><trkpt lat="43.5326359" lon="11.5834508"><ele>143.0</ele><time>2026-04-25T09:17:50.96Z</time></trkpt><trkpt lat="43.5325276" lon="11.5836427"><ele>143.0</ele><time>2026-04-25T09:17:51.947Z</time></trkpt><trkpt lat="43.5324216" lon="11.5838414"><ele>143.0</ele><time>2026-04-25T09:17:52.961Z</time></trkpt><trkpt lat="43.5323105" lon="11.5840382"><ele>143.0</ele><time>2026-04-25T09:17:53.943Z</time></trkpt><trkpt lat="43.5322069" lon="11.5842234"><ele>143.0</ele><time>2026-04-25T09:17:54.944Z</time></trkpt><trkpt lat="43.5321045" lon="11.5844129"><ele>143.33333333333331</ele><time>2026-04-25T09:17:55.961Z</time></trkpt><trkpt lat="43.5320031" lon="11.5846002"><ele>143.66666666666666</ele><time>2026-04-25T09:17:56.95Z</time></trkpt><trkpt lat="43.5319078" lon="11.5847804"><ele>144.0</ele><time>2026-04-25T09:17:57.954Z</time></trkpt><trkpt lat="43.5318097" lon="11.5849644"><ele>144.0</ele><time>2026-04-25T09:17:58.948Z</time></trkpt><trkpt lat="43.5317167" lon="11.5851393"><ele>144.0</ele><time>2026-04-25T09:17:59.948Z</time></trkpt><trkpt lat="43.5316227" lon="11.5853309"><ele>144.0</ele><time>2026-04-25T09:18:00.956Z</time></trkpt><trkpt lat="43.5315175" lon="11.5855397"><ele>143.66666666666666</ele><time>2026-04-25T09:18:01.964Z</time></trkpt><trkpt lat="43.53139" lon="11.585774"><ele>143.33333333333331</ele><time>2026-04-25T09:18:02.958Z</time></trkpt><trkpt lat="43.5312467" lon="11.5860322"><ele>143.0</ele><time>2026-04-25T09:18:03.954Z</time></trkpt><trkpt lat="43.5310874" lon="11.5862992"><ele>143.0</ele><time>2026-04-25T09:18:04.971Z</time></trkpt><trkpt lat="43.5309104" lon="11.5865943"><ele>143.0</ele><time>2026-04-25T09:18:05.958Z</time></trkpt><trkpt lat="43.5307336" lon="11.5868948"><ele>143.5</ele><time>2026-04-25T09:18:06.954Z</time></trkpt><trkpt lat="43.5305565" lon="11.5872073"><ele>144.0</ele><time>2026-04-25T09:18:07.952Z</time></trkpt><trkpt lat="43.5303707" lon="11.5875433"><ele>144.5</ele><time>2026-04-25T09:18:08.951Z</time></trkpt><trkpt lat="43.530175" lon="11.5878935"><ele>145.0</ele><time>2026-04-25T09:18:09.956Z</time></trkpt><trkpt lat="43.5299799" lon="11.5882454"><ele>145.0</ele><time>2026-04-25T09:18:10.95Z</time></trkpt><trkpt lat="43.5298001" lon="11.5885744"><ele>145.0</ele><time>2026-04-25T09:18:11.953Z</time></trkpt><trkpt lat="43.5296372" lon="11.5888828"><ele>145.5</ele><time>2026-04-25T09:18:12.952Z</time></trkpt><trkpt lat="43.5294928" lon="11.5891811"><ele>146.0</ele><time>2026-04-25T09:18:13.958Z</time></trkpt><trkpt lat="43.5293551" lon="11.5894604"><ele>145.5</ele><time>2026-04-25T09:18:14.949Z</time></trkpt><trkpt lat="43.5292044" lon="11.5897392"><ele>145.0</ele><time>2026-04-25T09:18:15.952Z</time></trkpt><trkpt lat="43.5290563" lon="11.5900134"><ele>145.0</ele><time>2026-04-25T09:18:16.942Z</time></trkpt><trkpt lat="43.5289084" lon="11.590274"><ele>145.0</ele><time>2026-04-25T09:18:17.942Z</time></trkpt><trkpt lat="43.5287684" lon="11.5905255"><ele>144.33333333333334</ele><time>2026-04-25T09:18:18.956Z</time></trkpt><trkpt lat="43.5286423" lon="11.5907723"><ele>143.66666666666666</ele><time>2026-04-25T09:18:19.946Z</time></trkpt><trkpt lat="43.5285355" lon="11.5910041"><ele>143.0</ele><time>2026-04-25T09:18:20.937Z</time></trkpt><trkpt lat="43.5284406" lon="11.5912349"><ele>144.33333333333331</ele><time>2026-04-25T09:18:21.942Z</time></trkpt><trkpt lat="43.5283651" lon="11.5914465"><ele>145.66666666666666</ele><time>2026-04-25T09:18:22.949Z</time></trkpt><trkpt lat="43.528294" lon="11.5916325"><ele>147.0</ele><time>2026-04-25T09:18:23.943Z</time></trkpt><trkpt lat="43.5282277" lon="11.5917921"><ele>147.0</ele><time>2026-04-25T09:18:24.946Z</time></trkpt><trkpt lat="43.5281425" lon="11.5919077"><ele>147.0</ele><time>2026-04-25T09:18:25.947Z</time></trkpt><trkpt lat="43.5280415" lon="11.5919991"><ele>147.0</ele><time>2026-04-25T09:18:26.96Z</time></trkpt><trkpt lat="43.5279273" lon="11.5921228"><ele>147.0</ele><time>2026-04-25T09:18:27.966Z</time></trkpt><trkpt lat="43.5278119" lon="11.592296"><ele>146.66666666666666</ele><time>2026-04-25T09:18:28.953Z</time></trkpt><trkpt lat="43.52769" lon="11.5925019"><ele>146.33333333333331</ele><time>2026-04-25T09:18:29.966Z</time></trkpt><trkpt lat="43.5275643" lon="11.5927296"><ele>146.0</ele><time>2026-04-25T09:18:30.951Z</time></trkpt><trkpt lat="43.5274372" lon="11.5929705"><ele>146.0</ele><time>2026-04-25T09:18:31.95Z</time></trkpt><trkpt lat="43.52731" lon="11.593203"><ele>146.0</ele><time>2026-04-25T09:18:32.953Z</time></trkpt><trkpt lat="43.5271871" lon="11.593415"><ele>146.0</ele><time>2026-04-25T09:18:33.955Z</time></trkpt><trkpt lat="43.5270578" lon="11.5936154"><ele>146.0</ele><time>2026-04-25T09:18:34.945Z</time></trkpt><trkpt lat="43.5269159" lon="11.5938174"><ele>146.0</ele><time>2026-04-25T09:18:35.953Z</time></trkpt><trkpt lat="43.5267683" lon="11.5940161"><ele>146.0</ele><time>2026-04-25T09:18:36.956Z</time></trkpt><trkpt lat="43.5266354" lon="11.5942397"><ele>146.0</ele><time>2026-04-25T09:18:37.95Z</time></trkpt><trkpt lat="43.5265086" lon="11.5944676"><ele>146.0</ele><time>2026-04-25T09:18:38.961Z</time></trkpt><trkpt lat="43.5263785" lon="11.5947011"><ele>146.0</ele><time>2026-04-25T09:18:39.956Z</time></trkpt><trkpt lat="43.5262489" lon="11.5949359"><ele>145.66666666666666</ele><time>2026-04-25T09:18:40.943Z</time></trkpt><trkpt lat="43.5261184" lon="11.5951784"><ele>145.33333333333334</ele><time>2026-04-25T09:18:41.949Z</time></trkpt><trkpt lat="43.5259833" lon="11.5954293"><ele>145.0</ele><time>2026-04-25T09:18:42.944Z</time></trkpt><trkpt lat="43.5258455" lon="11.5956893"><ele>145.0</ele><time>2026-04-25T09:18:43.942Z</time></trkpt><trkpt lat="43.5256928" lon="11.5959681"><ele>145.0</ele><time>2026-04-25T09:18:44.956Z</time></trkpt><trkpt lat="43.5255318" lon="11.5962593"><ele>145.0</ele><time>2026-04-25T09:18:45.96Z</time></trkpt><trkpt lat="43.5253631" lon="11.5965643"><ele>145.0</ele><time>2026-04-25T09:18:46.945Z</time></trkpt><trkpt lat="43.525195" lon="11.5968654"><ele>143.5</ele><time>2026-04-25T09:18:47.951Z</time></trkpt><trkpt lat="43.5250323" lon="11.5971524"><ele>142.0</ele><time>2026-04-25T09:18:48.952Z</time></trkpt><trkpt lat="43.5248819" lon="11.5974227"><ele>142.0</ele><time>2026-04-25T09:18:49.944Z</time></trkpt><trkpt lat="43.5247363" lon="11.5976953"><ele>142.0</ele><time>2026-04-25T09:18:50.953Z</time></trkpt><trkpt lat="43.5245799" lon="11.5979745"><ele>144.5</ele><time>2026-04-25T09:18:51.947Z</time></trkpt><trkpt lat="43.5244274" lon="11.59826"><ele>147.0</ele><time>2026-04-25T09:18:52.954Z</time></trkpt><trkpt lat="43.5242731" lon="11.5985342"><ele>146.0</ele><time>2026-04-25T09:18:53.951Z</time></trkpt><trkpt lat="43.5241315" lon="11.598795"><ele>145.0</ele><time>2026-04-25T09:18:54.952Z</time></trkpt><trkpt lat="43.5239894" lon="11.5990478"><ele>145.0</ele><time>2026-04-25T09:18:55.942Z</time></trkpt><trkpt lat="43.5238506" lon="11.5993053"><ele>145.0</ele><time>2026-04-25T09:18:56.957Z</time></trkpt><trkpt lat="43.5237094" lon="11.5995617"><ele>146.0</ele><time>2026-04-25T09:18:57.947Z</time></trkpt><trkpt lat="43.523563" lon="11.5998096"><ele>147.0</ele><time>2026-04-25T09:18:58.965Z</time></trkpt><trkpt lat="43.5234151" lon="11.6000569"><ele>147.0</ele><time>2026-04-25T09:18:59.951Z</time></trkpt><trkpt lat="43.5232595" lon="11.6003223"><ele>147.0</ele><time>2026-04-25T09:19:00.948Z</time></trkpt><trkpt lat="43.5230965" lon="11.6005978"><ele>148.0</ele><time>2026-04-25T09:19:01.954Z</time></trkpt><trkpt lat="43.5229329" lon="11.6008642"><ele>149.0</ele><time>2026-04-25T09:19:02.95Z</time></trkpt><trkpt lat="43.5227792" lon="11.6011168"><ele>148.0</ele><time>2026-04-25T09:19:03.953Z</time></trkpt><trkpt lat="43.5226244" lon="11.6013695"><ele>147.0</ele><time>2026-04-25T09:19:04.953Z</time></trkpt><trkpt lat="43.5224725" lon="11.6016187"><ele>147.0</ele><time>2026-04-25T09:19:05.952Z</time></trkpt><trkpt lat="43.5223193" lon="11.6018795"><ele>147.0</ele><time>2026-04-25T09:19:06.954Z</time></trkpt><trkpt lat="43.5221589" lon="11.6021517"><ele>146.0</ele><time>2026-04-25T09:19:07.948Z</time></trkpt><trkpt lat="43.5219966" lon="11.6024356"><ele>145.0</ele><time>2026-04-25T09:19:08.95Z</time></trkpt><trkpt lat="43.521828" lon="11.6027281"><ele>146.0</ele><time>2026-04-25T09:19:09.957Z</time></trkpt><trkpt lat="43.5216615" lon="11.6030049"><ele>147.0</ele><time>2026-04-25T09:19:10.954Z</time></trkpt><trkpt lat="43.521489" lon="11.6032826"><ele>147.0</ele><time>2026-04-25T09:19:11.945Z</time></trkpt><trkpt lat="43.5213133" lon="11.6035612"><ele>147.0</ele><time>2026-04-25T09:19:12.948Z</time></trkpt><trkpt lat="43.5211403" lon="11.6038515"><ele>147.5</ele><time>2026-04-25T09:19:13.972Z</time></trkpt><trkpt lat="43.5209653" lon="11.6041551"><ele>148.0</ele><time>2026-04-25T09:19:14.95Z</time></trkpt><trkpt lat="43.5207883" lon="11.6044517"><ele>149.0</ele><time>2026-04-25T09:19:15.948Z</time></trkpt><trkpt lat="43.5206181" lon="11.604733"><ele>150.0</ele><time>2026-04-25T09:19:16.946Z</time></trkpt><trkpt lat="43.5204408" lon="11.6050167"><ele>149.5</ele><time>2026-04-25T09:19:17.951Z</time></trkpt><trkpt lat="43.5202662" lon="11.6053112"><ele>149.0</ele><time>2026-04-25T09:19:18.952Z</time></trkpt><trkpt lat="43.5200922" lon="11.6055981"><ele>149.0</ele><time>2026-04-25T09:19:19.953Z</time></trkpt><trkpt lat="43.5199217" lon="11.6058773"><ele>149.0</ele><time>2026-04-25T09:19:20.952Z</time></trkpt><trkpt lat="43.5197578" lon="11.6061456"><ele>149.0</ele><time>2026-04-25T09:19:21.945Z</time></trkpt><trkpt lat="43.5195948" lon="11.6064083"><ele>149.0</ele><time>2026-04-25T09:19:22.958Z</time></trkpt><trkpt lat="43.5194267" lon="11.6066705"><ele>149.0</ele><time>2026-04-25T09:19:23.956Z</time></trkpt><trkpt lat="43.5192524" lon="11.6069469"><ele>149.0</ele><time>2026-04-25T09:19:24.955Z</time></trkpt><trkpt lat="43.519077" lon="11.6072129"><ele>150.5</ele><time>2026-04-25T09:19:25.953Z</time></trkpt><trkpt lat="43.5189087" lon="11.607452"><ele>152.0</ele><time>2026-04-25T09:19:26.95Z</time></trkpt><trkpt lat="43.5187484" lon="11.607682"><ele>151.0</ele><time>2026-04-25T09:19:27.946Z</time></trkpt><trkpt lat="43.5185883" lon="11.6079113"><ele>150.0</ele><time>2026-04-25T09:19:28.95Z</time></trkpt><trkpt lat="43.5184316" lon="11.6081608"><ele>150.0</ele><time>2026-04-25T09:19:29.955Z</time></trkpt><trkpt lat="43.518279" lon="11.608425"><ele>150.0</ele><time>2026-04-25T09:19:30.949Z</time></trkpt><trkpt lat="43.5181272" lon="11.6086824"><ele>150.5</ele><time>2026-04-25T09:19:31.954Z</time></trkpt><trkpt lat="43.5179818" lon="11.6089353"><ele>151.0</ele><time>2026-04-25T09:19:32.95Z</time></trkpt><trkpt lat="43.5178279" lon="11.6092"><ele>151.0</ele><time>2026-04-25T09:19:33.945Z</time></trkpt><trkpt lat="43.5176736" lon="11.6094811"><ele>151.0</ele><time>2026-04-25T09:19:34.96Z</time></trkpt><trkpt lat="43.5175168" lon="11.6097701"><ele>152.0</ele><time>2026-04-25T09:19:35.946Z</time></trkpt><trkpt lat="43.5173582" lon="11.6100514"><ele>153.0</ele><time>2026-04-25T09:19:36.947Z</time></trkpt><trkpt lat="43.5172085" lon="11.6103155"><ele>152.0</ele><time>2026-04-25T09:19:37.945Z</time></trkpt><trkpt lat="43.5170605" lon="11.6105725"><ele>151.0</ele><time>2026-04-25T09:19:38.952Z</time></trkpt><trkpt lat="43.5169151" lon="11.6108362"><ele>151.0</ele><time>2026-04-25T09:19:39.965Z</time></trkpt><trkpt lat="43.5167751" lon="11.6111018"><ele>151.0</ele><time>2026-04-25T09:19:40.956Z</time></trkpt><trkpt lat="43.5166412" lon="11.6113527"><ele>152.0</ele><time>2026-04-25T09:19:41.943Z</time></trkpt><trkpt lat="43.5165117" lon="11.6116362"><ele>153.0</ele><time>2026-04-25T09:19:42.959Z</time></trkpt><trkpt lat="43.5163881" lon="11.6119385"><ele>153.0</ele><time>2026-04-25T09:19:43.951Z</time></trkpt><trkpt lat="43.5162787" lon="11.6122663"><ele>153.0</ele><time>2026-04-25T09:19:44.95Z</time></trkpt><trkpt lat="43.5161776" lon="11.6125934"><ele>151.5</ele><time>2026-04-25T09:19:45.956Z</time></trkpt><trkpt lat="43.5160809" lon="11.6129144"><ele>150.0</ele><time>2026-04-25T09:19:46.949Z</time></trkpt><trkpt lat="43.5159818" lon="11.6132307"><ele>150.0</ele><time>2026-04-25T09:19:47.948Z</time></trkpt><trkpt lat="43.5158828" lon="11.6135532"><ele>150.0</ele><time>2026-04-25T09:19:48.943Z</time></trkpt><trkpt lat="43.5157814" lon="11.6138689"><ele>152.5</ele><time>2026-04-25T09:19:49.945Z</time></trkpt><trkpt lat="43.5156833" lon="11.6141775"><ele>155.0</ele><time>2026-04-25T09:19:50.942Z</time></trkpt><trkpt lat="43.5155944" lon="11.6144661"><ele>156.0</ele><time>2026-04-25T09:19:51.952Z</time></trkpt><trkpt lat="43.5155164" lon="11.6147569"><ele>157.0</ele><time>2026-04-25T09:19:52.954Z</time></trkpt><trkpt lat="43.5154435" lon="11.615052"><ele>152.0</ele><time>2026-04-25T09:19:53.953Z</time></trkpt><trkpt lat="43.5153814" lon="11.6153558"><ele>147.0</ele><time>2026-04-25T09:19:54.952Z</time></trkpt><trkpt lat="43.5153197" lon="11.6156582"><ele>147.0</ele><time>2026-04-25T09:19:55.945Z</time></trkpt><trkpt lat="43.5152609" lon="11.6159211"><ele>147.0</ele><time>2026-04-25T09:19:56.955Z</time></trkpt><trkpt lat="43.5152088" lon="11.6161603"><ele>147.0</ele><time>2026-04-25T09:19:57.95Z</time></trkpt><trkpt lat="43.5151689" lon="11.6163903"><ele>148.0</ele><time>2026-04-25T09:19:58.955Z</time></trkpt><trkpt lat="43.5151345" lon="11.6166337"><ele>149.0</ele><time>2026-04-25T09:19:59.95Z</time></trkpt><trkpt lat="43.5151088" lon="11.6168906"><ele>150.0</ele><time>2026-04-25T09:20:00.956Z</time></trkpt><trkpt lat="43.5150734" lon="11.6171554"><ele>151.33333333333334</ele><time>2026-04-25T09:20:01.952Z</time></trkpt><trkpt lat="43.5150356" lon="11.6173892"><ele>152.66666666666669</ele><time>2026-04-25T09:20:02.952Z</time></trkpt><trkpt lat="43.5149993" lon="11.6176074"><ele>154.0</ele><time>2026-04-25T09:20:03.954Z</time></trkpt><trkpt lat="43.5149704" lon="11.6178016"><ele>154.33333333333334</ele><time>2026-04-25T09:20:04.963Z</time></trkpt><trkpt lat="43.5149533" lon="11.6180027"><ele>154.66666666666666</ele><time>2026-04-25T09:20:05.94Z</time></trkpt><trkpt lat="43.5149465" lon="11.618226"><ele>155.0</ele><time>2026-04-25T09:20:06.957Z</time></trkpt><trkpt lat="43.5149407" lon="11.6184588"><ele>154.66666666666666</ele><time>2026-04-25T09:20:07.949Z</time></trkpt><trkpt lat="43.5149365" lon="11.6187045"><ele>154.33333333333334</ele><time>2026-04-25T09:20:08.958Z</time></trkpt><trkpt lat="43.5149327" lon="11.6189604"><ele>154.0</ele><time>2026-04-25T09:20:09.95Z</time></trkpt><trkpt lat="43.5149264" lon="11.6192319"><ele>154.0</ele><time>2026-04-25T09:20:10.95Z</time></trkpt><trkpt lat="43.5149128" lon="11.6195159"><ele>154.0</ele><time>2026-04-25T09:20:11.95Z</time></trkpt><trkpt lat="43.5148929" lon="11.6198048"><ele>154.0</ele><time>2026-04-25T09:20:12.951Z</time></trkpt><trkpt lat="43.5148766" lon="11.6200845"><ele>155.0</ele><time>2026-04-25T09:20:13.946Z</time></trkpt><trkpt lat="43.5148618" lon="11.6203544"><ele>156.0</ele><time>2026-04-25T09:20:14.955Z</time></trkpt><trkpt lat="43.5148432" lon="11.6206199"><ele>157.0</ele><time>2026-04-25T09:20:15.949Z</time></trkpt><trkpt lat="43.514824" lon="11.6208794"><ele>157.0</ele><time>2026-04-25T09:20:16.956Z</time></trkpt><trkpt lat="43.5148074" lon="11.621136"><ele>157.0</ele><time>2026-04-25T09:20:17.953Z</time></trkpt><trkpt lat="43.5147931" lon="11.6213911"><ele>157.0</ele><time>2026-04-25T09:20:18.959Z</time></trkpt><trkpt lat="43.5147795" lon="11.6216479"><ele>157.0</ele><time>2026-04-25T09:20:19.949Z</time></trkpt><trkpt lat="43.5147713" lon="11.6219044"><ele>157.0</ele><time>2026-04-25T09:20:20.956Z</time></trkpt><trkpt lat="43.5147636" lon="11.6221602"><ele>157.0</ele><time>2026-04-25T09:20:21.944Z</time></trkpt><trkpt lat="43.5147605" lon="11.6224152"><ele>156.33333333333334</ele><time>2026-04-25T09:20:22.948Z</time></trkpt><trkpt lat="43.5147539" lon="11.6226751"><ele>155.66666666666666</ele><time>2026-04-25T09:20:23.952Z</time></trkpt><trkpt lat="43.5147396" lon="11.622934"><ele>155.0</ele><time>2026-04-25T09:20:24.958Z</time></trkpt><trkpt lat="43.5147242" lon="11.6231851"><ele>155.0</ele><time>2026-04-25T09:20:25.947Z</time></trkpt><trkpt lat="43.5147126" lon="11.6234154"><ele>155.0</ele><time>2026-04-25T09:20:26.95Z</time></trkpt><trkpt lat="43.5146972" lon="11.6236403"><ele>155.0</ele><time>2026-04-25T09:20:27.955Z</time></trkpt><trkpt lat="43.5146848" lon="11.6238573"><ele>155.25</ele><time>2026-04-25T09:20:28.946Z</time></trkpt><trkpt lat="43.5146756" lon="11.6240669"><ele>155.5</ele><time>2026-04-25T09:20:29.95Z</time></trkpt><trkpt lat="43.5146659" lon="11.6242732"><ele>155.75</ele><time>2026-04-25T09:20:30.951Z</time></trkpt><trkpt lat="43.5146591" lon="11.6244748"><ele>156.0</ele><time>2026-04-25T09:20:31.954Z</time></trkpt><trkpt lat="43.5146672" lon="11.6246599"><ele>156.25</ele><time>2026-04-25T09:20:32.955Z</time></trkpt><trkpt lat="43.5146831" lon="11.6248389"><ele>156.5</ele><time>2026-04-25T09:20:33.961Z</time></trkpt><trkpt lat="43.5147038" lon="11.6250041"><ele>156.75</ele><time>2026-04-25T09:20:34.952Z</time></trkpt><trkpt lat="43.5147288" lon="11.6251782"><ele>157.0</ele><time>2026-04-25T09:20:35.947Z</time></trkpt><trkpt lat="43.5147429" lon="11.625344"><ele>157.0</ele><time>2026-04-25T09:20:36.953Z</time></trkpt><trkpt lat="43.5147393" lon="11.6255045"><ele>157.0</ele><time>2026-04-25T09:20:37.941Z</time></trkpt><trkpt lat="43.5147247" lon="11.6256578"><ele>157.0</ele><time>2026-04-25T09:20:38.946Z</time></trkpt><trkpt lat="43.5146989" lon="11.6258196"><ele>157.0</ele><time>2026-04-25T09:20:39.948Z</time></trkpt><trkpt lat="43.5146721" lon="11.6260034"><ele>157.25</ele><time>2026-04-25T09:20:40.95Z</time></trkpt><trkpt lat="43.5146432" lon="11.6261915"><ele>157.5</ele><time>2026-04-25T09:20:41.951Z</time></trkpt><trkpt lat="43.5146077" lon="11.6263728"><ele>157.75</ele><time>2026-04-25T09:20:42.947Z</time></trkpt><trkpt lat="43.5145694" lon="11.6265262"><ele>158.0</ele><time>2026-04-25T09:20:43.949Z</time></trkpt><trkpt lat="43.5145305" lon="11.6266657"><ele>156.6</ele><time>2026-04-25T09:20:44.953Z</time></trkpt><trkpt lat="43.5144835" lon="11.6267675"><ele>155.20000000000002</ele><time>2026-04-25T09:20:45.95Z</time></trkpt><trkpt lat="43.514408" lon="11.6268377"><ele>153.8</ele><time>2026-04-25T09:20:46.944Z</time></trkpt><trkpt lat="43.5143095" lon="11.626842"><ele>152.4</ele><time>2026-04-25T09:20:47.945Z</time></trkpt><trkpt lat="43.5142071" lon="11.626838"><ele>151.0</ele><time>2026-04-25T09:20:48.947Z</time></trkpt><trkpt lat="43.5141181" lon="11.6268801"><ele>153.25</ele><time>2026-04-25T09:20:49.945Z</time></trkpt><trkpt lat="43.5140368" lon="11.6269864"><ele>155.5</ele><time>2026-04-25T09:20:50.943Z</time></trkpt><trkpt lat="43.513966" lon="11.6271405"><ele>157.75</ele><time>2026-04-25T09:20:51.948Z</time></trkpt><trkpt lat="43.5138933" lon="11.6273162"><ele>160.0</ele><time>2026-04-25T09:20:52.944Z</time></trkpt><trkpt lat="43.5138205" lon="11.6274943"><ele>157.66666666666669</ele><time>2026-04-25T09:20:53.946Z</time></trkpt><trkpt lat="43.5137364" lon="11.627682"><ele>155.33333333333334</ele><time>2026-04-25T09:20:54.954Z</time></trkpt><trkpt lat="43.5136554" lon="11.6278833"><ele>153.0</ele><time>2026-04-25T09:20:55.957Z</time></trkpt><trkpt lat="43.5135851" lon="11.6280862"><ele>153.0</ele><time>2026-04-25T09:20:56.943Z</time></trkpt><trkpt lat="43.5135365" lon="11.6283015"><ele>153.0</ele><time>2026-04-25T09:20:57.951Z</time></trkpt><trkpt lat="43.5134918" lon="11.6285283"><ele>153.0</ele><time>2026-04-25T09:20:58.957Z</time></trkpt><trkpt lat="43.5134459" lon="11.6287487"><ele>153.66666666666666</ele><time>2026-04-25T09:20:59.96Z</time></trkpt><trkpt lat="43.5133973" lon="11.6289632"><ele>154.33333333333331</ele><time>2026-04-25T09:21:00.955Z</time></trkpt><trkpt lat="43.5133435" lon="11.629166"><ele>155.0</ele><time>2026-04-25T09:21:01.955Z</time></trkpt><trkpt lat="43.5132921" lon="11.6293619"><ele>155.5</ele><time>2026-04-25T09:21:02.959Z</time></trkpt><trkpt lat="43.5132507" lon="11.6295515"><ele>156.0</ele><time>2026-04-25T09:21:03.952Z</time></trkpt><trkpt lat="43.5132114" lon="11.6297357"><ele>156.5</ele><time>2026-04-25T09:21:04.945Z</time></trkpt><trkpt lat="43.513172" lon="11.6299122"><ele>157.0</ele><time>2026-04-25T09:21:05.946Z</time></trkpt><trkpt lat="43.5131391" lon="11.6300729"><ele>157.0</ele><time>2026-04-25T09:21:06.945Z</time></trkpt><trkpt lat="43.5131076" lon="11.6302255"><ele>157.0</ele><time>2026-04-25T09:21:07.957Z</time></trkpt><trkpt lat="43.5130843" lon="11.6303491"><ele>157.0</ele><time>2026-04-25T09:21:08.945Z</time></trkpt><trkpt lat="43.5130623" lon="11.630441"><ele>157.0</ele><time>2026-04-25T09:21:09.944Z</time></trkpt><trkpt lat="43.5130349" lon="11.6305373"><ele>157.0</ele><time>2026-04-25T09:21:11.944Z</time></trkpt><trkpt lat="43.5130241" lon="11.6306569"><ele>157.0</ele><time>2026-04-25T09:21:15.947Z</time></trkpt><trkpt lat="43.5131516" lon="11.6307284"><ele>157.2</ele><time>2026-04-25T09:21:17.949Z</time></trkpt><trkpt lat="43.5132395" lon="11.6307583"><ele>157.39999999999998</ele><time>2026-04-25T09:21:18.939Z</time></trkpt><trkpt lat="43.5133312" lon="11.6308062"><ele>157.60000000000002</ele><time>2026-04-25T09:21:19.943Z</time></trkpt><trkpt lat="43.5134243" lon="11.6308785"><ele>157.8</ele><time>2026-04-25T09:21:20.94Z</time></trkpt><trkpt lat="43.513476" lon="11.6309489"><ele>158.0</ele><time>2026-04-25T09:21:21.939Z</time></trkpt><trkpt lat="43.5135508" lon="11.631092"><ele>158.0</ele><time>2026-04-25T09:21:23.941Z</time></trkpt><trkpt lat="43.5135415" lon="11.6311881"><ele>158.0</ele><time>2026-04-25T09:21:24.936Z</time></trkpt><trkpt lat="43.513518" lon="11.6312832"><ele>158.0</ele><time>2026-04-25T09:21:25.953Z</time></trkpt><trkpt lat="43.5134874" lon="11.6313886"><ele>158.0</ele><time>2026-04-25T09:21:26.943Z</time></trkpt><trkpt lat="43.5134591" lon="11.631493"><ele>158.0</ele><time>2026-04-25T09:21:27.94Z</time></trkpt><trkpt lat="43.5133992" lon="11.6316122"><ele>158.0</ele><time>2026-04-25T09:21:28.941Z</time></trkpt><trkpt lat="43.5133058" lon="11.6316925"><ele>158.0</ele><time>2026-04-25T09:21:29.937Z</time></trkpt><trkpt lat="43.5132323" lon="11.63179"><ele>158.0</ele><time>2026-04-25T09:21:30.947Z</time></trkpt><trkpt lat="43.5131632" lon="11.6318651"><ele>158.0</ele><time>2026-04-25T09:21:31.947Z</time></trkpt><trkpt lat="43.5131087" lon="11.631955"><ele>158.0</ele><time>2026-04-25T09:21:32.95Z</time></trkpt><trkpt lat="43.51307" lon="11.6320736"><ele>158.0</ele><time>2026-04-25T09:21:33.951Z</time></trkpt><trkpt lat="43.5130372" lon="11.6322068"><ele>158.60000000000002</ele><time>2026-04-25T09:21:34.938Z</time></trkpt><trkpt lat="43.51301" lon="11.6323446"><ele>159.20000000000002</ele><time>2026-04-25T09:21:35.94Z</time></trkpt><trkpt lat="43.513005" lon="11.6324805"><ele>159.8</ele><time>2026-04-25T09:21:36.939Z</time></trkpt><trkpt lat="43.513017" lon="11.6326228"><ele>160.4</ele><time>2026-04-25T09:21:37.933Z</time></trkpt><trkpt lat="43.513051" lon="11.6327585"><ele>161.0</ele><time>2026-04-25T09:21:38.941Z</time></trkpt><trkpt lat="43.5131192" lon="11.6328734"><ele>162.75</ele><time>2026-04-25T09:21:39.947Z</time></trkpt><trkpt lat="43.5132144" lon="11.6329716"><ele>164.5</ele><time>2026-04-25T09:21:40.952Z</time></trkpt><trkpt lat="43.5133361" lon="11.6330478"><ele>166.25</ele><time>2026-04-25T09:21:41.939Z</time></trkpt><trkpt lat="43.5134663" lon="11.6331326"><ele>168.0</ele><time>2026-04-25T09:21:42.955Z</time></trkpt><trkpt lat="43.5136159" lon="11.6332395"><ele>165.66666666666666</ele><time>2026-04-25T09:21:43.955Z</time></trkpt><trkpt lat="43.5137724" lon="11.6333568"><ele>163.33333333333331</ele><time>2026-04-25T09:21:44.96Z</time></trkpt><trkpt lat="43.5139373" lon="11.6334779"><ele>161.0</ele><time>2026-04-25T09:21:45.947Z</time></trkpt><trkpt lat="43.5141082" lon="11.6336123"><ele>164.33333333333331</ele><time>2026-04-25T09:21:46.942Z</time></trkpt><trkpt lat="43.5142956" lon="11.6337329"><ele>167.66666666666666</ele><time>2026-04-25T09:21:47.944Z</time></trkpt><trkpt lat="43.5144717" lon="11.6338577"><ele>171.0</ele><time>2026-04-25T09:21:48.946Z</time></trkpt><trkpt lat="43.5146313" lon="11.6339705"><ele>172.66666666666666</ele><time>2026-04-25T09:21:49.947Z</time></trkpt><trkpt lat="43.5147877" lon="11.6340594"><ele>174.33333333333331</ele><time>2026-04-25T09:21:50.947Z</time></trkpt><trkpt lat="43.5149302" lon="11.6341492"><ele>176.0</ele><time>2026-04-25T09:21:51.957Z</time></trkpt><trkpt lat="43.5150727" lon="11.6342259"><ele>176.0</ele><time>2026-04-25T09:21:52.95Z</time></trkpt><trkpt lat="43.515215" lon="11.6342898"><ele>176.0</ele><time>2026-04-25T09:21:53.944Z</time></trkpt><trkpt lat="43.5153348" lon="11.6343604"><ele>176.0</ele><time>2026-04-25T09:21:54.951Z</time></trkpt><trkpt lat="43.5154331" lon="11.6344562"><ele>176.0</ele><time>2026-04-25T09:21:55.953Z</time></trkpt><trkpt lat="43.5155094" lon="11.6345709"><ele>177.4</ele><time>2026-04-25T09:21:56.944Z</time></trkpt><trkpt lat="43.5155624" lon="11.6347026"><ele>178.8</ele><time>2026-04-25T09:21:57.949Z</time></trkpt><trkpt lat="43.5155929" lon="11.6348476"><ele>180.20000000000002</ele><time>2026-04-25T09:21:58.944Z</time></trkpt><trkpt lat="43.5155877" lon="11.6349723"><ele>181.60000000000002</ele><time>2026-04-25T09:21:59.945Z</time></trkpt><trkpt lat="43.5155411" lon="11.6350521"><ele>183.0</ele><time>2026-04-25T09:22:00.95Z</time></trkpt><trkpt lat="43.5154705" lon="11.6351012"><ele>183.85714285714286</ele><time>2026-04-25T09:22:01.957Z</time></trkpt><trkpt lat="43.5153974" lon="11.6351075"><ele>184.71428571428572</ele><time>2026-04-25T09:22:02.949Z</time></trkpt><trkpt lat="43.5153391" lon="11.6350583"><ele>185.57142857142856</ele><time>2026-04-25T09:22:03.949Z</time></trkpt><trkpt lat="43.5152829" lon="11.6349981"><ele>186.42857142857144</ele><time>2026-04-25T09:22:04.953Z</time></trkpt><trkpt lat="43.515211" lon="11.6349928"><ele>187.28571428571428</ele><time>2026-04-25T09:22:05.95Z</time></trkpt><trkpt lat="43.515167" lon="11.6350909"><ele>188.14285714285714</ele><time>2026-04-25T09:22:06.961Z</time></trkpt><trkpt lat="43.5151716" lon="11.6351889"><ele>189.0</ele><time>2026-04-25T09:22:07.95Z</time></trkpt><trkpt lat="43.5151956" lon="11.6353028"><ele>190.6</ele><time>2026-04-25T09:22:08.946Z</time></trkpt><trkpt lat="43.5152204" lon="11.6354328"><ele>192.2</ele><time>2026-04-25T09:22:09.947Z</time></trkpt><trkpt lat="43.5152199" lon="11.6355611"><ele>193.79999999999998</ele><time>2026-04-25T09:22:10.957Z</time></trkpt><trkpt lat="43.515192" lon="11.6356841"><ele>195.39999999999998</ele><time>2026-04-25T09:22:11.951Z</time></trkpt><trkpt lat="43.5151647" lon="11.6358176"><ele>197.0</ele><time>2026-04-25T09:22:12.952Z</time></trkpt><trkpt lat="43.5151892" lon="11.635946"><ele>197.0</ele><time>2026-04-25T09:22:13.95Z</time></trkpt><trkpt lat="43.515239" lon="11.6360792"><ele>197.0</ele><time>2026-04-25T09:22:14.962Z</time></trkpt><trkpt lat="43.515332" lon="11.636213"><ele>197.0</ele><time>2026-04-25T09:22:15.945Z</time></trkpt><trkpt lat="43.515426" lon="11.6363478"><ele>197.0</ele><time>2026-04-25T09:22:16.94Z</time></trkpt><trkpt lat="43.5154944" lon="11.6364684"><ele>198.66666666666669</ele><time>2026-04-25T09:22:17.944Z</time></trkpt><trkpt lat="43.515539" lon="11.6365743"><ele>200.33333333333334</ele><time>2026-04-25T09:22:18.936Z</time></trkpt><trkpt lat="43.5155454" lon="11.6366697"><ele>202.0</ele><time>2026-04-25T09:22:19.938Z</time></trkpt><trkpt lat="43.5155058" lon="11.6367423"><ele>203.66666666666669</ele><time>2026-04-25T09:22:20.948Z</time></trkpt><trkpt lat="43.5154466" lon="11.6368057"><ele>205.33333333333334</ele><time>2026-04-25T09:22:21.946Z</time></trkpt><trkpt lat="43.5153683" lon="11.6368826"><ele>207.0</ele><time>2026-04-25T09:22:22.933Z</time></trkpt><trkpt lat="43.5153207" lon="11.636968"><ele>209.16666666666666</ele><time>2026-04-25T09:22:23.944Z</time></trkpt><trkpt lat="43.5152907" lon="11.6370677"><ele>211.33333333333331</ele><time>2026-04-25T09:22:24.947Z</time></trkpt><trkpt lat="43.5152731" lon="11.6371871"><ele>213.5</ele><time>2026-04-25T09:22:25.94Z</time></trkpt><trkpt lat="43.515246" lon="11.6372915"><ele>215.66666666666666</ele><time>2026-04-25T09:22:26.937Z</time></trkpt><trkpt lat="43.5152244" lon="11.637392"><ele>217.83333333333331</ele><time>2026-04-25T09:22:27.955Z</time></trkpt><trkpt lat="43.5151846" lon="11.6375437"><ele>220.0</ele><time>2026-04-25T09:22:28.972Z</time></trkpt><trkpt lat="43.5151587" lon="11.6376759"><ele>223.25</ele><time>2026-04-25T09:22:29.964Z</time></trkpt><trkpt lat="43.5151154" lon="11.6378071"><ele>226.5</ele><time>2026-04-25T09:22:30.963Z</time></trkpt><trkpt lat="43.5150757" lon="11.6379794"><ele>229.75</ele><time>2026-04-25T09:22:31.952Z</time></trkpt><trkpt lat="43.5150258" lon="11.638152"><ele>233.0</ele><time>2026-04-25T09:22:32.963Z</time></trkpt><trkpt lat="43.5149919" lon="11.6382975"><ele>233.00000000000003</ele><time>2026-04-25T09:22:33.946Z</time></trkpt><trkpt lat="43.5149603" lon="11.6384046"><ele>233.0</ele><time>2026-04-25T09:22:34.95Z</time></trkpt><trkpt lat="43.5149182" lon="11.6384699"><ele>233.0</ele><time>2026-04-25T09:22:35.948Z</time></trkpt><trkpt lat="43.5148574" lon="11.6385399"><ele>233.0</ele><time>2026-04-25T09:22:36.953Z</time></trkpt><trkpt lat="43.5147657" lon="11.6385906"><ele>233.00000000000003</ele><time>2026-04-25T09:22:37.952Z</time></trkpt><trkpt lat="43.5146733" lon="11.6386437"><ele>233.0</ele><time>2026-04-25T09:22:38.953Z</time></trkpt><trkpt lat="43.5145807" lon="11.6386979"><ele>231.8</ele><time>2026-04-25T09:22:39.947Z</time></trkpt><trkpt lat="43.5145086" lon="11.6387741"><ele>230.60000000000002</ele><time>2026-04-25T09:22:40.957Z</time></trkpt><trkpt lat="43.5144407" lon="11.638875"><ele>229.39999999999998</ele><time>2026-04-25T09:22:41.95Z</time></trkpt><trkpt lat="43.5143769" lon="11.6390154"><ele>228.2</ele><time>2026-04-25T09:22:42.956Z</time></trkpt><trkpt lat="43.5143071" lon="11.6391653"><ele>227.0</ele><time>2026-04-25T09:22:43.948Z</time></trkpt><trkpt lat="43.5142401" lon="11.6392636"><ele>227.00000000000003</ele><time>2026-04-25T09:22:44.951Z</time></trkpt><trkpt lat="43.5141717" lon="11.6392908"><ele>227.0</ele><time>2026-04-25T09:22:45.951Z</time></trkpt><trkpt lat="43.5140808" lon="11.6392813"><ele>227.0</ele><time>2026-04-25T09:22:46.954Z</time></trkpt><trkpt lat="43.513986" lon="11.6392677"><ele>227.0</ele><time>2026-04-25T09:22:47.962Z</time></trkpt><trkpt lat="43.5139083" lon="11.6392827"><ele>227.00000000000003</ele><time>2026-04-25T09:22:48.961Z</time></trkpt><trkpt lat="43.5138466" lon="11.6393278"><ele>227.0</ele><time>2026-04-25T09:22:49.955Z</time></trkpt><trkpt lat="43.5138038" lon="11.6394144"><ele>228.0</ele><time>2026-04-25T09:22:50.968Z</time></trkpt><trkpt lat="43.5137625" lon="11.639529"><ele>229.0</ele><time>2026-04-25T09:22:51.953Z</time></trkpt><trkpt lat="43.5137176" lon="11.6396618"><ele>230.0</ele><time>2026-04-25T09:22:52.956Z</time></trkpt><trkpt lat="43.5136738" lon="11.6397994"><ele>231.0</ele><time>2026-04-25T09:22:53.945Z</time></trkpt><trkpt lat="43.5136343" lon="11.6399366"><ele>232.0</ele><time>2026-04-25T09:22:54.949Z</time></trkpt><trkpt lat="43.5135978" lon="11.6400695"><ele>230.49999999999997</ele><time>2026-04-25T09:22:55.954Z</time></trkpt><trkpt lat="43.5135825" lon="11.6401832"><ele>229.0</ele><time>2026-04-25T09:22:56.957Z</time></trkpt><trkpt lat="43.5135911" lon="11.6402917"><ele>227.5</ele><time>2026-04-25T09:22:57.959Z</time></trkpt><trkpt lat="43.5136122" lon="11.6404144"><ele>226.0</ele><time>2026-04-25T09:22:58.948Z</time></trkpt><trkpt lat="43.5136266" lon="11.6405367"><ele>224.49999999999997</ele><time>2026-04-25T09:22:59.956Z</time></trkpt><trkpt lat="43.5135979" lon="11.6406722"><ele>223.0</ele><time>2026-04-25T09:23:00.956Z</time></trkpt><trkpt lat="43.5135653" lon="11.6408181"><ele>223.0</ele><time>2026-04-25T09:23:01.961Z</time></trkpt><trkpt lat="43.5135338" lon="11.6409776"><ele>223.0</ele><time>2026-04-25T09:23:02.946Z</time></trkpt><trkpt lat="43.5134945" lon="11.641148"><ele>223.0</ele><time>2026-04-25T09:23:03.946Z</time></trkpt><trkpt lat="43.5134599" lon="11.6413091"><ele>223.0</ele><time>2026-04-25T09:23:04.949Z</time></trkpt><trkpt lat="43.5134378" lon="11.6414741"><ele>224.5</ele><time>2026-04-25T09:23:05.959Z</time></trkpt><trkpt lat="43.5134421" lon="11.6416514"><ele>226.0</ele><time>2026-04-25T09:23:06.951Z</time></trkpt><trkpt lat="43.5134446" lon="11.6418375"><ele>227.5</ele><time>2026-04-25T09:23:07.946Z</time></trkpt><trkpt lat="43.513445" lon="11.6420323"><ele>229.0</ele><time>2026-04-25T09:23:08.949Z</time></trkpt><trkpt lat="43.5134479" lon="11.642216"><ele>230.39999999999998</ele><time>2026-04-25T09:23:09.964Z</time></trkpt><trkpt lat="43.5134631" lon="11.6423872"><ele>231.79999999999998</ele><time>2026-04-25T09:23:10.953Z</time></trkpt><trkpt lat="43.513482" lon="11.6425366"><ele>233.20000000000002</ele><time>2026-04-25T09:23:11.952Z</time></trkpt><trkpt lat="43.5134965" lon="11.6426768"><ele>234.60000000000002</ele><time>2026-04-25T09:23:12.959Z</time></trkpt><trkpt lat="43.5135113" lon="11.6428017"><ele>236.0</ele><time>2026-04-25T09:23:13.951Z</time></trkpt><trkpt lat="43.5135237" lon="11.6429238"><ele>236.33333333333334</ele><time>2026-04-25T09:23:14.966Z</time></trkpt><trkpt lat="43.5135329" lon="11.6430339"><ele>236.66666666666669</ele><time>2026-04-25T09:23:15.939Z</time></trkpt><trkpt lat="43.5135415" lon="11.6431268"><ele>237.0</ele><time>2026-04-25T09:23:16.939Z</time></trkpt><trkpt lat="43.5135517" lon="11.6432198"><ele>237.33333333333331</ele><time>2026-04-25T09:23:17.942Z</time></trkpt><trkpt lat="43.5135574" lon="11.6433342"><ele>237.66666666666666</ele><time>2026-04-25T09:23:19.936Z</time></trkpt><trkpt lat="43.5135719" lon="11.6434277"><ele>238.0</ele><time>2026-04-25T09:23:43.964Z</time></trkpt><trkpt lat="43.51359" lon="11.6436289"><ele>239.33333333333331</ele><time>2026-04-25T09:23:45.953Z</time></trkpt><trkpt lat="43.5136148" lon="11.6438028"><ele>240.66666666666669</ele><time>2026-04-25T09:23:46.954Z</time></trkpt><trkpt lat="43.5136333" lon="11.6440247"><ele>242.0</ele><time>2026-04-25T09:23:47.954Z</time></trkpt><trkpt lat="43.5136598" lon="11.6442757"><ele>242.75</ele><time>2026-04-25T09:23:48.946Z</time></trkpt><trkpt lat="43.5136751" lon="11.6445147"><ele>243.5</ele><time>2026-04-25T09:23:49.96Z</time></trkpt><trkpt lat="43.5136718" lon="11.6447078"><ele>244.25</ele><time>2026-04-25T09:23:50.947Z</time></trkpt><trkpt lat="43.5136722" lon="11.6448727"><ele>245.0</ele><time>2026-04-25T09:23:51.955Z</time></trkpt><trkpt lat="43.5136817" lon="11.6450101"><ele>245.00000000000003</ele><time>2026-04-25T09:23:52.955Z</time></trkpt><trkpt lat="43.5137002" lon="11.6451044"><ele>245.0</ele><time>2026-04-25T09:23:53.943Z</time></trkpt><trkpt lat="43.5137406" lon="11.645182"><ele>245.0</ele><time>2026-04-25T09:23:54.955Z</time></trkpt><trkpt lat="43.513844" lon="11.6452589"><ele>245.0</ele><time>2026-04-25T09:23:56.954Z</time></trkpt><trkpt lat="43.513914" lon="11.6452603"><ele>245.00000000000003</ele><time>2026-04-25T09:23:57.947Z</time></trkpt><trkpt lat="43.5140129" lon="11.6452131"><ele>245.0</ele><time>2026-04-25T09:23:58.947Z</time></trkpt><trkpt lat="43.5141307" lon="11.6451595"><ele>245.5</ele><time>2026-04-25T09:23:59.965Z</time></trkpt><trkpt lat="43.5142494" lon="11.6451246"><ele>246.0</ele><time>2026-04-25T09:24:00.946Z</time></trkpt><trkpt lat="43.51437" lon="11.6451056"><ele>246.5</ele><time>2026-04-25T09:24:01.946Z</time></trkpt><trkpt lat="43.5144992" lon="11.6451187"><ele>247.0</ele><time>2026-04-25T09:24:02.942Z</time></trkpt><trkpt lat="43.514644" lon="11.6451464"><ele>245.66666666666666</ele><time>2026-04-25T09:24:03.947Z</time></trkpt><trkpt lat="43.5148068" lon="11.6451976"><ele>244.33333333333331</ele><time>2026-04-25T09:24:04.954Z</time></trkpt><trkpt lat="43.5149751" lon="11.6452714"><ele>243.0</ele><time>2026-04-25T09:24:05.949Z</time></trkpt><trkpt lat="43.5151122" lon="11.6453452"><ele>242.8</ele><time>2026-04-25T09:24:06.943Z</time></trkpt><trkpt lat="43.5152201" lon="11.6454206"><ele>242.60000000000002</ele><time>2026-04-25T09:24:07.95Z</time></trkpt><trkpt lat="43.5153072" lon="11.6454992"><ele>242.39999999999998</ele><time>2026-04-25T09:24:08.943Z</time></trkpt><trkpt lat="43.5153792" lon="11.6455994"><ele>242.2</ele><time>2026-04-25T09:24:09.952Z</time></trkpt><trkpt lat="43.5154295" lon="11.6457161"><ele>242.0</ele><time>2026-04-25T09:24:10.941Z</time></trkpt><trkpt lat="43.5154543" lon="11.6458417"><ele>242.8</ele><time>2026-04-25T09:24:11.957Z</time></trkpt><trkpt lat="43.5154663" lon="11.6459754"><ele>243.6</ele><time>2026-04-25T09:24:12.948Z</time></trkpt><trkpt lat="43.5154585" lon="11.6461104"><ele>244.40000000000003</ele><time>2026-04-25T09:24:13.939Z</time></trkpt><trkpt lat="43.5154387" lon="11.6462365"><ele>245.20000000000002</ele><time>2026-04-25T09:24:14.936Z</time></trkpt><trkpt lat="43.5154287" lon="11.6463282"><ele>246.0</ele><time>2026-04-25T09:24:15.942Z</time></trkpt><trkpt lat="43.5154896" lon="11.6464271"><ele>246.4</ele><time>2026-04-25T09:24:18.949Z</time></trkpt><trkpt lat="43.5155621" lon="11.646463"><ele>246.8</ele><time>2026-04-25T09:24:21.946Z</time></trkpt><trkpt lat="43.5156702" lon="11.6464732"><ele>247.20000000000002</ele><time>2026-04-25T09:24:27.94Z</time></trkpt><trkpt lat="43.5157552" lon="11.6464885"><ele>247.60000000000002</ele><time>2026-04-25T09:24:28.941Z</time></trkpt><trkpt lat="43.515856" lon="11.646482"><ele>248.0</ele><time>2026-04-25T09:24:29.949Z</time></trkpt><trkpt lat="43.5159477" lon="11.6464878"><ele>248.00000000000003</ele><time>2026-04-25T09:24:30.947Z</time></trkpt><trkpt lat="43.5160296" lon="11.646521"><ele>248.0</ele><time>2026-04-25T09:24:31.946Z</time></trkpt><trkpt lat="43.5160849" lon="11.6465658"><ele>248.0</ele><time>2026-04-25T09:24:32.945Z</time></trkpt><trkpt lat="43.5161203" lon="11.6466487"><ele>248.0</ele><time>2026-04-25T09:24:33.952Z</time></trkpt><trkpt lat="43.5161324" lon="11.6467424"><ele>248.00000000000003</ele><time>2026-04-25T09:24:34.935Z</time></trkpt><trkpt lat="43.5161242" lon="11.6468793"><ele>248.0</ele><time>2026-04-25T09:24:35.938Z</time></trkpt><trkpt lat="43.5161044" lon="11.6470396"><ele>247.25</ele><time>2026-04-25T09:24:36.947Z</time></trkpt><trkpt lat="43.516091" lon="11.6471913"><ele>246.5</ele><time>2026-04-25T09:24:37.96Z</time></trkpt><trkpt lat="43.516103" lon="11.6473281"><ele>245.75</ele><time>2026-04-25T09:24:38.938Z</time></trkpt><trkpt lat="43.5161493" lon="11.6474797"><ele>245.0</ele><time>2026-04-25T09:24:39.938Z</time></trkpt><trkpt lat="43.5162163" lon="11.6476619"><ele>245.5</ele><time>2026-04-25T09:24:40.96Z</time></trkpt><trkpt lat="43.5162739" lon="11.6478262"><ele>246.0</ele><time>2026-04-25T09:24:41.935Z</time></trkpt><trkpt lat="43.516302" lon="11.647993"><ele>246.5</ele><time>2026-04-25T09:24:42.942Z</time></trkpt><trkpt lat="43.5163161" lon="11.6481498"><ele>247.0</ele><time>2026-04-25T09:24:43.945Z</time></trkpt><trkpt lat="43.5163171" lon="11.6482862"><ele>247.0</ele><time>2026-04-25T09:24:44.94Z</time></trkpt><trkpt lat="43.5163212" lon="11.6483873"><ele>247.0</ele><time>2026-04-25T09:24:45.944Z</time></trkpt><trkpt lat="43.5163426" lon="11.648552"><ele>247.0</ele><time>2026-04-25T09:24:47.94Z</time></trkpt><trkpt lat="43.5163877" lon="11.6486865"><ele>247.0</ele><time>2026-04-25T09:24:49.937Z</time></trkpt><trkpt lat="43.5164371" lon="11.6487436"><ele>247.0</ele><time>2026-04-25T09:24:59.954Z</time></trkpt><trkpt lat="43.5165375" lon="11.6486926"><ele>247.0</ele><time>2026-04-25T09:25:03.952Z</time></trkpt><trkpt lat="43.5165923" lon="11.648643"><ele>247.0</ele><time>2026-04-25T09:25:04.951Z</time></trkpt><trkpt lat="43.5166495" lon="11.6485826"><ele>247.0</ele><time>2026-04-25T09:25:05.955Z</time></trkpt><trkpt lat="43.5167126" lon="11.6485239"><ele>247.0</ele><time>2026-04-25T09:25:06.945Z</time></trkpt><trkpt lat="43.516773" lon="11.6484648"><ele>247.0</ele><time>2026-04-25T09:25:07.958Z</time></trkpt><trkpt lat="43.5168232" lon="11.6484095"><ele>247.0</ele><time>2026-04-25T09:25:08.947Z</time></trkpt><trkpt lat="43.5169041" lon="11.6483391"><ele>247.0</ele><time>2026-04-25T09:25:10.955Z</time></trkpt><trkpt lat="43.5169756" lon="11.6482997"><ele>246.99999999999997</ele><time>2026-04-25T09:25:12.953Z</time></trkpt><trkpt lat="43.5170542" lon="11.6483458"><ele>247.0</ele><time>2026-04-25T09:25:14.951Z</time></trkpt><trkpt lat="43.5171053" lon="11.6484119"><ele>247.0</ele><time>2026-04-25T09:25:16.945Z</time></trkpt><trkpt lat="43.517128" lon="11.6485083"><ele>247.0</ele><time>2026-04-25T09:25:18.951Z</time></trkpt><trkpt lat="43.5170647" lon="11.6485713"><ele>246.99999999999997</ele><time>2026-04-25T09:25:20.944Z</time></trkpt><trkpt lat="43.5169827" lon="11.6485207"><ele>247.0</ele><time>2026-04-25T09:25:23.944Z</time></trkpt><trkpt lat="43.5169253" lon="11.648396"><ele>247.0</ele><time>2026-04-25T09:25:25.938Z</time></trkpt><trkpt lat="43.5168596" lon="11.6483516"><ele>247.0</ele><time>2026-04-25T09:25:28.948Z</time></trkpt><trkpt lat="43.5167634" lon="11.6484407"><ele>247.0</ele><time>2026-04-25T09:25:30.95Z</time></trkpt><trkpt lat="43.5167021" lon="11.6485115"><ele>247.0</ele><time>2026-04-25T09:25:31.947Z</time></trkpt><trkpt lat="43.5166267" lon="11.6485891"><ele>247.0</ele><time>2026-04-25T09:25:32.943Z</time></trkpt><trkpt lat="43.5165406" lon="11.6486692"><ele>247.16666666666666</ele><time>2026-04-25T09:25:33.964Z</time></trkpt><trkpt lat="43.5164737" lon="11.6487362"><ele>247.33333333333331</ele><time>2026-04-25T09:25:34.949Z</time></trkpt><trkpt lat="43.5164206" lon="11.6487993"><ele>247.5</ele><time>2026-04-25T09:25:35.945Z</time></trkpt><trkpt lat="43.516369" lon="11.648885"><ele>247.66666666666669</ele><time>2026-04-25T09:25:36.95Z</time></trkpt><trkpt lat="43.5163246" lon="11.6489873"><ele>247.83333333333334</ele><time>2026-04-25T09:25:37.952Z</time></trkpt><trkpt lat="43.516287" lon="11.6490911"><ele>248.0</ele><time>2026-04-25T09:25:38.948Z</time></trkpt><trkpt lat="43.51625" lon="11.6492036"><ele>247.4</ele><time>2026-04-25T09:25:39.946Z</time></trkpt><trkpt lat="43.5162215" lon="11.6493131"><ele>246.8</ele><time>2026-04-25T09:25:40.948Z</time></trkpt><trkpt lat="43.516216" lon="11.6494395"><ele>246.2</ele><time>2026-04-25T09:25:41.942Z</time></trkpt><trkpt lat="43.516223" lon="11.6495813"><ele>245.6</ele><time>2026-04-25T09:25:42.942Z</time></trkpt><trkpt lat="43.5162399" lon="11.6497346"><ele>245.0</ele><time>2026-04-25T09:25:43.957Z</time></trkpt><trkpt lat="43.5162601" lon="11.649892"><ele>245.0</ele><time>2026-04-25T09:25:44.946Z</time></trkpt><trkpt lat="43.516284" lon="11.6500195"><ele>245.0</ele><time>2026-04-25T09:25:45.963Z</time></trkpt><trkpt lat="43.5163141" lon="11.6501211"><ele>245.0</ele><time>2026-04-25T09:25:46.951Z</time></trkpt><trkpt lat="43.5163659" lon="11.6501915"><ele>245.0</ele><time>2026-04-25T09:25:47.966Z</time></trkpt><trkpt lat="43.5164514" lon="11.6502472"><ele>245.0</ele><time>2026-04-25T09:25:48.947Z</time></trkpt><trkpt lat="43.5165752" lon="11.6502929"><ele>244.6</ele><time>2026-04-25T09:25:49.95Z</time></trkpt><trkpt lat="43.5167048" lon="11.650327"><ele>244.2</ele><time>2026-04-25T09:25:50.952Z</time></trkpt><trkpt lat="43.5168313" lon="11.6503712"><ele>243.8</ele><time>2026-04-25T09:25:51.956Z</time></trkpt><trkpt lat="43.5169307" lon="11.6504157"><ele>243.4</ele><time>2026-04-25T09:25:52.953Z</time></trkpt><trkpt lat="43.517" lon="11.6504619"><ele>243.0</ele><time>2026-04-25T09:25:53.953Z</time></trkpt><trkpt lat="43.5170727" lon="11.650594"><ele>243.0</ele><time>2026-04-25T09:25:55.958Z</time></trkpt><trkpt lat="43.5170839" lon="11.6506914"><ele>243.0</ele><time>2026-04-25T09:25:56.951Z</time></trkpt><trkpt lat="43.5170752" lon="11.6507945"><ele>243.0</ele><time>2026-04-25T09:25:57.944Z</time></trkpt><trkpt lat="43.5170345" lon="11.6509491"><ele>243.0</ele><time>2026-04-25T09:25:58.948Z</time></trkpt><trkpt lat="43.5169798" lon="11.6511331"><ele>243.0</ele><time>2026-04-25T09:25:59.963Z</time></trkpt><trkpt lat="43.516917" lon="11.6513457"><ele>242.0</ele><time>2026-04-25T09:26:00.951Z</time></trkpt><trkpt lat="43.516865" lon="11.6515603"><ele>241.0</ele><time>2026-04-25T09:26:01.942Z</time></trkpt><trkpt lat="43.5168081" lon="11.6517629"><ele>240.0</ele><time>2026-04-25T09:26:02.951Z</time></trkpt><trkpt lat="43.5167544" lon="11.6519298"><ele>239.75</ele><time>2026-04-25T09:26:03.949Z</time></trkpt><trkpt lat="43.516688" lon="11.6520615"><ele>239.5</ele><time>2026-04-25T09:26:04.951Z</time></trkpt><trkpt lat="43.5166211" lon="11.6521861"><ele>239.25</ele><time>2026-04-25T09:26:05.947Z</time></trkpt><trkpt lat="43.5165466" lon="11.6523013"><ele>239.0</ele><time>2026-04-25T09:26:06.947Z</time></trkpt><trkpt lat="43.5164611" lon="11.6524204"><ele>239.0</ele><time>2026-04-25T09:26:07.946Z</time></trkpt><trkpt lat="43.5163466" lon="11.6525317"><ele>239.0</ele><time>2026-04-25T09:26:08.947Z</time></trkpt><trkpt lat="43.5162332" lon="11.6526338"><ele>239.0</ele><time>2026-04-25T09:26:09.943Z</time></trkpt><trkpt lat="43.5161381" lon="11.652733"><ele>239.0</ele><time>2026-04-25T09:26:10.955Z</time></trkpt><trkpt lat="43.5160533" lon="11.6528825"><ele>239.5</ele><time>2026-04-25T09:26:11.953Z</time></trkpt><trkpt lat="43.5159708" lon="11.6530148"><ele>240.0</ele><time>2026-04-25T09:26:12.951Z</time></trkpt><trkpt lat="43.5158835" lon="11.65311"><ele>240.5</ele><time>2026-04-25T09:26:13.958Z</time></trkpt><trkpt lat="43.5157729" lon="11.6531953"><ele>241.0</ele><time>2026-04-25T09:26:14.952Z</time></trkpt><trkpt lat="43.5156498" lon="11.6532701"><ele>241.0</ele><time>2026-04-25T09:26:15.943Z</time></trkpt><trkpt lat="43.5155624" lon="11.6533456"><ele>241.0</ele><time>2026-04-25T09:26:16.953Z</time></trkpt><trkpt lat="43.5154833" lon="11.6534759"><ele>241.0</ele><time>2026-04-25T09:26:17.952Z</time></trkpt><trkpt lat="43.5154053" lon="11.653616"><ele>241.0</ele><time>2026-04-25T09:26:18.95Z</time></trkpt><trkpt lat="43.5152969" lon="11.653764"><ele>239.75</ele><time>2026-04-25T09:26:19.949Z</time></trkpt><trkpt lat="43.5151887" lon="11.6538997"><ele>238.5</ele><time>2026-04-25T09:26:20.95Z</time></trkpt><trkpt lat="43.5150811" lon="11.6540085"><ele>237.25</ele><time>2026-04-25T09:26:21.951Z</time></trkpt><trkpt lat="43.5149478" lon="11.6541206"><ele>236.0</ele><time>2026-04-25T09:26:22.958Z</time></trkpt><trkpt lat="43.514827" lon="11.6542268"><ele>236.0</ele><time>2026-04-25T09:26:23.953Z</time></trkpt><trkpt lat="43.5147206" lon="11.654319"><ele>236.0</ele><time>2026-04-25T09:26:24.959Z</time></trkpt><trkpt lat="43.5146237" lon="11.6544376"><ele>236.0</ele><time>2026-04-25T09:26:25.947Z</time></trkpt><trkpt lat="43.5145286" lon="11.6545886"><ele>236.0</ele><time>2026-04-25T09:26:26.956Z</time></trkpt><trkpt lat="43.5144442" lon="11.6547437"><ele>235.0</ele><time>2026-04-25T09:26:27.942Z</time></trkpt><trkpt lat="43.5143706" lon="11.6548648"><ele>234.0</ele><time>2026-04-25T09:26:28.943Z</time></trkpt><trkpt lat="43.5142862" lon="11.6549843"><ele>233.0</ele><time>2026-04-25T09:26:29.941Z</time></trkpt><trkpt lat="43.5141813" lon="11.6550892"><ele>232.0</ele><time>2026-04-25T09:26:30.946Z</time></trkpt><trkpt lat="43.5140237" lon="11.655213"><ele>229.66666666666666</ele><time>2026-04-25T09:26:31.941Z</time></trkpt><trkpt lat="43.5138622" lon="11.6553365"><ele>227.33333333333331</ele><time>2026-04-25T09:26:32.96Z</time></trkpt><trkpt lat="43.5137151" lon="11.6554436"><ele>225.0</ele><time>2026-04-25T09:26:33.949Z</time></trkpt><trkpt lat="43.513579" lon="11.6555286"><ele>224.5</ele><time>2026-04-25T09:26:34.963Z</time></trkpt><trkpt lat="43.5134506" lon="11.6556241"><ele>224.0</ele><time>2026-04-25T09:26:35.947Z</time></trkpt><trkpt lat="43.5133255" lon="11.6557167"><ele>223.5</ele><time>2026-04-25T09:26:36.944Z</time></trkpt><trkpt lat="43.5132107" lon="11.6558139"><ele>223.0</ele><time>2026-04-25T09:26:37.945Z</time></trkpt><trkpt lat="43.5130866" lon="11.655903"><ele>223.0</ele><time>2026-04-25T09:26:38.954Z</time></trkpt><trkpt lat="43.5129612" lon="11.655989"><ele>223.0</ele><time>2026-04-25T09:26:39.945Z</time></trkpt><trkpt lat="43.5128357" lon="11.6560727"><ele>223.0</ele><time>2026-04-25T09:26:40.948Z</time></trkpt><trkpt lat="43.512708" lon="11.6561515"><ele>223.0</ele><time>2026-04-25T09:26:41.951Z</time></trkpt><trkpt lat="43.5125835" lon="11.656227"><ele>220.25</ele><time>2026-04-25T09:26:42.948Z</time></trkpt><trkpt lat="43.5124591" lon="11.6563014"><ele>217.5</ele><time>2026-04-25T09:26:43.951Z</time></trkpt><trkpt lat="43.5123402" lon="11.6563562"><ele>214.75</ele><time>2026-04-25T09:26:44.956Z</time></trkpt><trkpt lat="43.5122259" lon="11.6563981"><ele>212.0</ele><time>2026-04-25T09:26:45.953Z</time></trkpt><trkpt lat="43.5121134" lon="11.6564177"><ele>210.16666666666669</ele><time>2026-04-25T09:26:46.949Z</time></trkpt><trkpt lat="43.5120197" lon="11.6564285"><ele>208.33333333333334</ele><time>2026-04-25T09:26:47.949Z</time></trkpt><trkpt lat="43.5119362" lon="11.6564296"><ele>206.5</ele><time>2026-04-25T09:26:48.946Z</time></trkpt><trkpt lat="43.511868" lon="11.656405"><ele>204.66666666666669</ele><time>2026-04-25T09:26:49.955Z</time></trkpt><trkpt lat="43.5118059" lon="11.6562616"><ele>202.83333333333334</ele><time>2026-04-25T09:26:51.949Z</time></trkpt><trkpt lat="43.5117986" lon="11.6561517"><ele>201.0</ele><time>2026-04-25T09:26:52.944Z</time></trkpt><trkpt lat="43.5118023" lon="11.6560353"><ele>201.0</ele><time>2026-04-25T09:26:53.954Z</time></trkpt><trkpt lat="43.511805" lon="11.6559302"><ele>201.0</ele><time>2026-04-25T09:26:54.943Z</time></trkpt><trkpt lat="43.5118069" lon="11.6558373"><ele>201.0</ele><time>2026-04-25T09:26:55.951Z</time></trkpt><trkpt lat="43.5117671" lon="11.6557095"><ele>201.0</ele><time>2026-04-25T09:26:57.952Z</time></trkpt><trkpt lat="43.5116646" lon="11.6556618"><ele>201.0</ele><time>2026-04-25T09:26:59.96Z</time></trkpt><trkpt lat="43.5115958" lon="11.6556686"><ele>201.0</ele><time>2026-04-25T09:27:00.953Z</time></trkpt><trkpt lat="43.5115217" lon="11.6556979"><ele>201.0</ele><time>2026-04-25T09:27:01.951Z</time></trkpt><trkpt lat="43.5114427" lon="11.6557536"><ele>201.0</ele><time>2026-04-25T09:27:02.946Z</time></trkpt><trkpt lat="43.5113552" lon="11.6558281"><ele>201.0</ele><time>2026-04-25T09:27:03.942Z</time></trkpt><trkpt lat="43.5112785" lon="11.6559167"><ele>201.0</ele><time>2026-04-25T09:27:04.954Z</time></trkpt><trkpt lat="43.5112132" lon="11.6560268"><ele>201.0</ele><time>2026-04-25T09:27:05.945Z</time></trkpt><trkpt lat="43.5111624" lon="11.6561565"><ele>196.8</ele><time>2026-04-25T09:27:06.959Z</time></trkpt><trkpt lat="43.5111121" lon="11.6562945"><ele>192.60000000000002</ele><time>2026-04-25T09:27:07.954Z</time></trkpt><trkpt lat="43.5110709" lon="11.6564375"><ele>188.4</ele><time>2026-04-25T09:27:08.946Z</time></trkpt><trkpt lat="43.5110291" lon="11.6565831"><ele>184.2</ele><time>2026-04-25T09:27:09.944Z</time></trkpt><trkpt lat="43.5109954" lon="11.65673"><ele>180.0</ele><time>2026-04-25T09:27:10.946Z</time></trkpt><trkpt lat="43.5109653" lon="11.6568661"><ele>178.5</ele><time>2026-04-25T09:27:11.943Z</time></trkpt><trkpt lat="43.5109415" lon="11.6569941"><ele>177.0</ele><time>2026-04-25T09:27:12.946Z</time></trkpt><trkpt lat="43.5109142" lon="11.6571111"><ele>175.5</ele><time>2026-04-25T09:27:13.946Z</time></trkpt><trkpt lat="43.5108889" lon="11.6572106"><ele>174.0</ele><time>2026-04-25T09:27:14.942Z</time></trkpt><trkpt lat="43.5108542" lon="11.6573002"><ele>172.5</ele><time>2026-04-25T09:27:15.944Z</time></trkpt><trkpt lat="43.5108029" lon="11.6573711"><ele>171.0</ele><time>2026-04-25T09:27:16.952Z</time></trkpt><trkpt lat="43.5107363" lon="11.6574225"><ele>171.0</ele><time>2026-04-25T09:27:17.938Z</time></trkpt><trkpt lat="43.5106595" lon="11.657452"><ele>171.0</ele><time>2026-04-25T09:27:18.942Z</time></trkpt><trkpt lat="43.5105898" lon="11.6574911"><ele>171.0</ele><time>2026-04-25T09:27:19.938Z</time></trkpt><trkpt lat="43.510525" lon="11.6576061"><ele>171.0</ele><time>2026-04-25T09:27:20.96Z</time></trkpt><trkpt lat="43.510448" lon="11.6577373"><ele>171.0</ele><time>2026-04-25T09:27:21.94Z</time></trkpt><trkpt lat="43.5103627" lon="11.6578821"><ele>170.60000000000002</ele><time>2026-04-25T09:27:22.952Z</time></trkpt><trkpt lat="43.5102869" lon="11.6580184"><ele>170.2</ele><time>2026-04-25T09:27:23.947Z</time></trkpt><trkpt lat="43.5102261" lon="11.6581332"><ele>169.8</ele><time>2026-04-25T09:27:24.949Z</time></trkpt><trkpt lat="43.5101936" lon="11.6582385"><ele>169.39999999999998</ele><time>2026-04-25T09:27:25.938Z</time></trkpt><trkpt lat="43.5101834" lon="11.6583569"><ele>169.0</ele><time>2026-04-25T09:27:26.954Z</time></trkpt><trkpt lat="43.5102026" lon="11.6584913"><ele>169.0</ele><time>2026-04-25T09:27:27.951Z</time></trkpt><trkpt lat="43.510244" lon="11.6586748"><ele>169.0</ele><time>2026-04-25T09:27:28.945Z</time></trkpt><trkpt lat="43.510278" lon="11.6588905"><ele>169.0</ele><time>2026-04-25T09:27:29.949Z</time></trkpt><trkpt lat="43.5103061" lon="11.6591312"><ele>169.0</ele><time>2026-04-25T09:27:30.962Z</time></trkpt><trkpt lat="43.5103205" lon="11.6593711"><ele>169.0</ele><time>2026-04-25T09:27:31.958Z</time></trkpt><trkpt lat="43.5103291" lon="11.6596023"><ele>169.0</ele><time>2026-04-25T09:27:32.963Z</time></trkpt><trkpt lat="43.5103371" lon="11.6598484"><ele>169.75</ele><time>2026-04-25T09:27:33.945Z</time></trkpt><trkpt lat="43.5103406" lon="11.6600772"><ele>170.5</ele><time>2026-04-25T09:27:34.947Z</time></trkpt><trkpt lat="43.5103313" lon="11.6602624"><ele>171.25</ele><time>2026-04-25T09:27:35.948Z</time></trkpt><trkpt lat="43.5102874" lon="11.660447"><ele>172.0</ele><time>2026-04-25T09:27:36.943Z</time></trkpt><trkpt lat="43.5102207" lon="11.6606778"><ele>175.33333333333334</ele><time>2026-04-25T09:27:37.945Z</time></trkpt><trkpt lat="43.5101471" lon="11.6608765"><ele>178.66666666666666</ele><time>2026-04-25T09:27:38.944Z</time></trkpt><trkpt lat="43.5100733" lon="11.6610527"><ele>182.0</ele><time>2026-04-25T09:27:39.946Z</time></trkpt><trkpt lat="43.509996" lon="11.6612175"><ele>185.25</ele><time>2026-04-25T09:27:40.944Z</time></trkpt><trkpt lat="43.509908" lon="11.6613695"><ele>188.5</ele><time>2026-04-25T09:27:41.942Z</time></trkpt><trkpt lat="43.5098109" lon="11.6614975"><ele>191.75</ele><time>2026-04-25T09:27:42.941Z</time></trkpt><trkpt lat="43.5096996" lon="11.6616051"><ele>195.0</ele><time>2026-04-25T09:27:43.945Z</time></trkpt><trkpt lat="43.5095843" lon="11.6617263"><ele>196.25</ele><time>2026-04-25T09:27:44.946Z</time></trkpt><trkpt lat="43.5094853" lon="11.661842"><ele>197.5</ele><time>2026-04-25T09:27:45.95Z</time></trkpt><trkpt lat="43.5093951" lon="11.6619592"><ele>198.75</ele><time>2026-04-25T09:27:46.955Z</time></trkpt><trkpt lat="43.5093102" lon="11.6620984"><ele>200.0</ele><time>2026-04-25T09:27:47.944Z</time></trkpt><trkpt lat="43.509232" lon="11.6622459"><ele>200.0</ele><time>2026-04-25T09:27:48.953Z</time></trkpt><trkpt lat="43.5091752" lon="11.6623876"><ele>200.0</ele><time>2026-04-25T09:27:49.943Z</time></trkpt><trkpt lat="43.5091333" lon="11.6625369"><ele>200.0</ele><time>2026-04-25T09:27:50.947Z</time></trkpt><trkpt lat="43.5091074" lon="11.6627109"><ele>200.0</ele><time>2026-04-25T09:27:51.95Z</time></trkpt><trkpt lat="43.5090911" lon="11.6629079"><ele>201.8</ele><time>2026-04-25T09:27:52.949Z</time></trkpt><trkpt lat="43.5090686" lon="11.6630827"><ele>203.6</ele><time>2026-04-25T09:27:53.947Z</time></trkpt><trkpt lat="43.5090554" lon="11.6632174"><ele>205.39999999999998</ele><time>2026-04-25T09:27:54.954Z</time></trkpt><trkpt lat="43.5090564" lon="11.663343"><ele>207.2</ele><time>2026-04-25T09:27:55.954Z</time></trkpt><trkpt lat="43.5090877" lon="11.6634608"><ele>209.0</ele><time>2026-04-25T09:27:56.949Z</time></trkpt><trkpt lat="43.5091343" lon="11.6635972"><ele>210.75</ele><time>2026-04-25T09:27:57.948Z</time></trkpt><trkpt lat="43.5091709" lon="11.6637423"><ele>212.5</ele><time>2026-04-25T09:27:58.951Z</time></trkpt><trkpt lat="43.5092102" lon="11.6639108"><ele>214.25</ele><time>2026-04-25T09:27:59.951Z</time></trkpt><trkpt lat="43.5092449" lon="11.6641083"><ele>216.0</ele><time>2026-04-25T09:28:00.947Z</time></trkpt><trkpt lat="43.5092555" lon="11.6643243"><ele>216.75</ele><time>2026-04-25T09:28:01.952Z</time></trkpt><trkpt lat="43.5093219" lon="11.6645249"><ele>217.5</ele><time>2026-04-25T09:28:02.963Z</time></trkpt><trkpt lat="43.5093922" lon="11.6646865"><ele>218.25</ele><time>2026-04-25T09:28:03.943Z</time></trkpt><trkpt lat="43.5094495" lon="11.6648019"><ele>219.0</ele><time>2026-04-25T09:28:04.943Z</time></trkpt><trkpt lat="43.5095255" lon="11.6648894"><ele>221.0</ele><time>2026-04-25T09:28:05.946Z</time></trkpt><trkpt lat="43.509609" lon="11.6649401"><ele>222.99999999999997</ele><time>2026-04-25T09:28:06.95Z</time></trkpt><trkpt lat="43.509691" lon="11.6649729"><ele>224.99999999999997</ele><time>2026-04-25T09:28:07.946Z</time></trkpt><trkpt lat="43.5097787" lon="11.6650019"><ele>227.0</ele><time>2026-04-25T09:28:08.941Z</time></trkpt><trkpt lat="43.5098726" lon="11.6650148"><ele>229.0</ele><time>2026-04-25T09:28:09.944Z</time></trkpt><trkpt lat="43.5099626" lon="11.6650372"><ele>229.0</ele><time>2026-04-25T09:28:10.956Z</time></trkpt><trkpt lat="43.5100427" lon="11.6650696"><ele>228.99999999999997</ele><time>2026-04-25T09:28:11.945Z</time></trkpt><trkpt lat="43.5101059" lon="11.6651519"><ele>228.99999999999997</ele><time>2026-04-25T09:28:12.953Z</time></trkpt><trkpt lat="43.5101413" lon="11.6652525"><ele>229.0</ele><time>2026-04-25T09:28:13.945Z</time></trkpt><trkpt lat="43.5101658" lon="11.6653942"><ele>229.0</ele><time>2026-04-25T09:28:14.948Z</time></trkpt><trkpt lat="43.5102001" lon="11.6655567"><ele>229.0</ele><time>2026-04-25T09:28:15.951Z</time></trkpt><trkpt lat="43.510238" lon="11.6657192"><ele>228.99999999999997</ele><time>2026-04-25T09:28:16.944Z</time></trkpt><trkpt lat="43.5102786" lon="11.6658818"><ele>228.99999999999997</ele><time>2026-04-25T09:28:17.956Z</time></trkpt><trkpt lat="43.5103137" lon="11.6660121"><ele>229.0</ele><time>2026-04-25T09:28:18.951Z</time></trkpt><trkpt lat="43.5103491" lon="11.6661317"><ele>229.0</ele><time>2026-04-25T09:28:19.951Z</time></trkpt><trkpt lat="43.5103859" lon="11.6662417"><ele>228.71428571428572</ele><time>2026-04-25T09:28:20.94Z</time></trkpt><trkpt lat="43.5104175" lon="11.6663399"><ele>228.42857142857144</ele><time>2026-04-25T09:28:21.955Z</time></trkpt><trkpt lat="43.5104487" lon="11.6664239"><ele>228.14285714285717</ele><time>2026-04-25T09:28:22.946Z</time></trkpt><trkpt lat="43.5104856" lon="11.6665166"><ele>227.85714285714286</ele><time>2026-04-25T09:28:23.948Z</time></trkpt><trkpt lat="43.5105221" lon="11.6666064"><ele>227.5714285714286</ele><time>2026-04-25T09:28:24.948Z</time></trkpt><trkpt lat="43.5105566" lon="11.6667025"><ele>227.2857142857143</ele><time>2026-04-25T09:28:25.952Z</time></trkpt><trkpt lat="43.5105964" lon="11.6667868"><ele>227.0</ele><time>2026-04-25T09:28:26.951Z</time></trkpt><trkpt lat="43.5106366" lon="11.6668749"><ele>227.83333333333334</ele><time>2026-04-25T09:28:27.946Z</time></trkpt><trkpt lat="43.5106826" lon="11.6669595"><ele>228.66666666666669</ele><time>2026-04-25T09:28:28.961Z</time></trkpt><trkpt lat="43.5107361" lon="11.6670319"><ele>229.5</ele><time>2026-04-25T09:28:29.952Z</time></trkpt><trkpt lat="43.5107866" lon="11.6671054"><ele>230.33333333333331</ele><time>2026-04-25T09:28:30.951Z</time></trkpt><trkpt lat="43.5108728" lon="11.667222"><ele>231.16666666666666</ele><time>2026-04-25T09:28:32.945Z</time></trkpt><trkpt lat="43.5109412" lon="11.6672832"><ele>232.0</ele><time>2026-04-25T09:28:34.946Z</time></trkpt><trkpt lat="43.5109932" lon="11.6673404"><ele>231.99999999999997</ele><time>2026-04-25T09:28:37.95Z</time></trkpt><trkpt lat="43.5110443" lon="11.6674049"><ele>232.0</ele><time>2026-04-25T09:29:40.958Z</time></trkpt><trkpt lat="43.5111012" lon="11.6674716"><ele>232.0</ele><time>2026-04-25T09:29:41.955Z</time></trkpt><trkpt lat="43.5111721" lon="11.6675587"><ele>232.0</ele><time>2026-04-25T09:29:42.952Z</time></trkpt><trkpt lat="43.5112479" lon="11.6676332"><ele>231.99999999999997</ele><time>2026-04-25T09:29:43.951Z</time></trkpt><trkpt lat="43.5113045" lon="11.6677132"><ele>232.0</ele><time>2026-04-25T09:29:44.943Z</time></trkpt><trkpt lat="43.5113536" lon="11.6677796"><ele>232.33333333333331</ele><time>2026-04-25T09:29:45.949Z</time></trkpt><trkpt lat="43.5114196" lon="11.6678965"><ele>232.66666666666666</ele><time>2026-04-25T09:29:47.948Z</time></trkpt><trkpt lat="43.5114251" lon="11.6679903"><ele>233.0</ele><time>2026-04-25T09:29:49.948Z</time></trkpt><trkpt lat="43.5114039" lon="11.6680964"><ele>233.33333333333331</ele><time>2026-04-25T09:29:51.948Z</time></trkpt><trkpt lat="43.5113494" lon="11.6681976"><ele>233.66666666666666</ele><time>2026-04-25T09:29:53.953Z</time></trkpt><trkpt lat="43.5113171" lon="11.6682785"><ele>234.0</ele><time>2026-04-25T09:29:55.949Z</time></trkpt><trkpt lat="43.5112695" lon="11.668403"><ele>234.0</ele><time>2026-04-25T09:29:57.948Z</time></trkpt><trkpt lat="43.511226" lon="11.6685215"><ele>234.0</ele><time>2026-04-25T09:29:59.953Z</time></trkpt><trkpt lat="43.5111944" lon="11.6686164"><ele>234.0</ele><time>2026-04-25T09:30:01.948Z</time></trkpt><trkpt lat="43.5111619" lon="11.6686958"><ele>234.0</ele><time>2026-04-25T09:30:03.948Z</time></trkpt><trkpt lat="43.5111238" lon="11.6687989"><ele>234.0</ele><time>2026-04-25T09:30:05.959Z</time></trkpt><trkpt lat="43.5110906" lon="11.6688776"><ele>234.0</ele><time>2026-04-25T09:30:06.952Z</time></trkpt><trkpt lat="43.5110495" lon="11.6689824"><ele>234.0</ele><time>2026-04-25T09:30:07.942Z</time></trkpt><trkpt lat="43.511001" lon="11.6690967"><ele>233.99999999999997</ele><time>2026-04-25T09:30:08.942Z</time></trkpt><trkpt lat="43.510968" lon="11.6692334"><ele>233.99999999999997</ele><time>2026-04-25T09:30:09.942Z</time></trkpt><trkpt lat="43.51095" lon="11.6693787"><ele>234.0</ele><time>2026-04-25T09:30:10.957Z</time></trkpt><trkpt lat="43.5109361" lon="11.6695251"><ele>234.0</ele><time>2026-04-25T09:30:11.955Z</time></trkpt><trkpt lat="43.5109155" lon="11.6696619"><ele>232.75</ele><time>2026-04-25T09:30:12.957Z</time></trkpt><trkpt lat="43.5108779" lon="11.6698136"><ele>231.5</ele><time>2026-04-25T09:30:13.958Z</time></trkpt><trkpt lat="43.5108181" lon="11.6699752"><ele>230.25</ele><time>2026-04-25T09:30:14.952Z</time></trkpt><trkpt lat="43.5107478" lon="11.6701388"><ele>229.0</ele><time>2026-04-25T09:30:15.955Z</time></trkpt><trkpt lat="43.5106893" lon="11.6703089"><ele>227.5</ele><time>2026-04-25T09:30:16.956Z</time></trkpt><trkpt lat="43.5106499" lon="11.6704665"><ele>226.0</ele><time>2026-04-25T09:30:17.945Z</time></trkpt><trkpt lat="43.5106242" lon="11.6706296"><ele>224.5</ele><time>2026-04-25T09:30:18.95Z</time></trkpt><trkpt lat="43.5106149" lon="11.6707917"><ele>223.0</ele><time>2026-04-25T09:30:19.938Z</time></trkpt><trkpt lat="43.5106035" lon="11.6709447"><ele>221.0</ele><time>2026-04-25T09:30:20.945Z</time></trkpt><trkpt lat="43.510565" lon="11.671116"><ele>219.0</ele><time>2026-04-25T09:30:21.945Z</time></trkpt><trkpt lat="43.5104912" lon="11.6713268"><ele>217.0</ele><time>2026-04-25T09:30:22.948Z</time></trkpt><trkpt lat="43.5104088" lon="11.6715376"><ele>214.66666666666666</ele><time>2026-04-25T09:30:23.956Z</time></trkpt><trkpt lat="43.5103302" lon="11.6717509"><ele>212.33333333333331</ele><time>2026-04-25T09:30:24.958Z</time></trkpt><trkpt lat="43.5102612" lon="11.6719536"><ele>210.0</ele><time>2026-04-25T09:30:25.95Z</time></trkpt><trkpt lat="43.5101995" lon="11.6721502"><ele>207.75</ele><time>2026-04-25T09:30:26.935Z</time></trkpt><trkpt lat="43.510151" lon="11.6723241"><ele>205.5</ele><time>2026-04-25T09:30:27.947Z</time></trkpt><trkpt lat="43.5101029" lon="11.6724724"><ele>203.25</ele><time>2026-04-25T09:30:28.952Z</time></trkpt><trkpt lat="43.5100376" lon="11.6726156"><ele>201.0</ele><time>2026-04-25T09:30:29.956Z</time></trkpt><trkpt lat="43.5099584" lon="11.6727176"><ele>199.8</ele><time>2026-04-25T09:30:30.949Z</time></trkpt><trkpt lat="43.5098549" lon="11.6727807"><ele>198.60000000000002</ele><time>2026-04-25T09:30:31.944Z</time></trkpt><trkpt lat="43.5097469" lon="11.6728016"><ele>197.4</ele><time>2026-04-25T09:30:32.955Z</time></trkpt><trkpt lat="43.5096527" lon="11.6728212"><ele>196.2</ele><time>2026-04-25T09:30:33.953Z</time></trkpt><trkpt lat="43.5095705" lon="11.6728345"><ele>195.0</ele><time>2026-04-25T09:30:34.95Z</time></trkpt><trkpt lat="43.5094985" lon="11.6728728"><ele>195.0</ele><time>2026-04-25T09:30:35.948Z</time></trkpt><trkpt lat="43.5094492" lon="11.6729404"><ele>195.0</ele><time>2026-04-25T09:30:36.95Z</time></trkpt><trkpt lat="43.5094304" lon="11.6730519"><ele>195.0</ele><time>2026-04-25T09:30:37.957Z</time></trkpt><trkpt lat="43.5094454" lon="11.6731626"><ele>195.0</ele><time>2026-04-25T09:30:38.954Z</time></trkpt><trkpt lat="43.509488" lon="11.6732638"><ele>195.0</ele><time>2026-04-25T09:30:39.95Z</time></trkpt><trkpt lat="43.5095453" lon="11.673361"><ele>195.0</ele><time>2026-04-25T09:30:40.946Z</time></trkpt><trkpt lat="43.5096056" lon="11.673459"><ele>194.2</ele><time>2026-04-25T09:30:41.946Z</time></trkpt><trkpt lat="43.5096469" lon="11.6735863"><ele>193.4</ele><time>2026-04-25T09:30:42.947Z</time></trkpt><trkpt lat="43.5096837" lon="11.6737228"><ele>192.60000000000002</ele><time>2026-04-25T09:30:43.946Z</time></trkpt><trkpt lat="43.5097194" lon="11.673864"><ele>191.8</ele><time>2026-04-25T09:30:44.95Z</time></trkpt><trkpt lat="43.5097876" lon="11.6739788"><ele>191.0</ele><time>2026-04-25T09:30:45.945Z</time></trkpt><trkpt lat="43.5098923" lon="11.6740975"><ele>191.0</ele><time>2026-04-25T09:30:46.943Z</time></trkpt><trkpt lat="43.5100126" lon="11.6742305"><ele>191.0</ele><time>2026-04-25T09:30:47.947Z</time></trkpt><trkpt lat="43.5101378" lon="11.6743496"><ele>191.0</ele><time>2026-04-25T09:30:48.938Z</time></trkpt><trkpt lat="43.5102414" lon="11.6744338"><ele>191.0</ele><time>2026-04-25T09:30:49.943Z</time></trkpt><trkpt lat="43.5103523" lon="11.6744763"><ele>189.8</ele><time>2026-04-25T09:30:50.939Z</time></trkpt><trkpt lat="43.5104263" lon="11.6745183"><ele>188.60000000000002</ele><time>2026-04-25T09:30:51.954Z</time></trkpt><trkpt lat="43.5105113" lon="11.6746056"><ele>187.4</ele><time>2026-04-25T09:30:53.948Z</time></trkpt><trkpt lat="43.5104422" lon="11.674684"><ele>186.2</ele><time>2026-04-25T09:30:56.943Z</time></trkpt><trkpt lat="43.5103277" lon="11.6746268"><ele>185.0</ele><time>2026-04-25T09:30:58.938Z</time></trkpt><trkpt lat="43.5102466" lon="11.6745813"><ele>186.5</ele><time>2026-04-25T09:30:59.939Z</time></trkpt><trkpt lat="43.5101434" lon="11.6745485"><ele>188.0</ele><time>2026-04-25T09:31:00.941Z</time></trkpt><trkpt lat="43.5100098" lon="11.6745087"><ele>189.5</ele><time>2026-04-25T09:31:01.949Z</time></trkpt><trkpt lat="43.5098491" lon="11.6744715"><ele>191.0</ele><time>2026-04-25T09:31:02.947Z</time></trkpt><trkpt lat="43.5096727" lon="11.6744266"><ele>196.66666666666666</ele><time>2026-04-25T09:31:03.949Z</time></trkpt><trkpt lat="43.5095103" lon="11.6743659"><ele>202.33333333333331</ele><time>2026-04-25T09:31:04.944Z</time></trkpt><trkpt lat="43.5093707" lon="11.6742622"><ele>208.0</ele><time>2026-04-25T09:31:05.946Z</time></trkpt><trkpt lat="43.5092686" lon="11.6741385"><ele>208.0</ele><time>2026-04-25T09:31:06.951Z</time></trkpt><trkpt lat="43.5091814" lon="11.6740061"><ele>208.0</ele><time>2026-04-25T09:31:07.952Z</time></trkpt><trkpt lat="43.5090579" lon="11.6738785"><ele>208.0</ele><time>2026-04-25T09:31:08.939Z</time></trkpt><trkpt lat="43.5089" lon="11.6737558"><ele>208.0</ele><time>2026-04-25T09:31:09.956Z</time></trkpt><trkpt lat="43.5087436" lon="11.6736244"><ele>208.0</ele><time>2026-04-25T09:31:10.946Z</time></trkpt><trkpt lat="43.5085721" lon="11.6734916"><ele>208.0</ele><time>2026-04-25T09:31:11.944Z</time></trkpt><trkpt lat="43.5083997" lon="11.6733549"><ele>208.33333333333331</ele><time>2026-04-25T09:31:12.947Z</time></trkpt><trkpt lat="43.5082351" lon="11.6732237"><ele>208.66666666666669</ele><time>2026-04-25T09:31:13.949Z</time></trkpt><trkpt lat="43.508096" lon="11.6730943"><ele>209.0</ele><time>2026-04-25T09:31:14.943Z</time></trkpt><trkpt lat="43.5079731" lon="11.6730077"><ele>210.0</ele><time>2026-04-25T09:31:15.943Z</time></trkpt><trkpt lat="43.5078451" lon="11.6729364"><ele>211.0</ele><time>2026-04-25T09:31:16.943Z</time></trkpt><trkpt lat="43.5077063" lon="11.6728787"><ele>212.0</ele><time>2026-04-25T09:31:17.942Z</time></trkpt><trkpt lat="43.5075563" lon="11.672845"><ele>213.0</ele><time>2026-04-25T09:31:18.946Z</time></trkpt><trkpt lat="43.5074098" lon="11.6728629"><ele>213.0</ele><time>2026-04-25T09:31:19.943Z</time></trkpt><trkpt lat="43.5072869" lon="11.6728947"><ele>213.0</ele><time>2026-04-25T09:31:20.956Z</time></trkpt><trkpt lat="43.5071547" lon="11.6729805"><ele>213.0</ele><time>2026-04-25T09:31:21.939Z</time></trkpt><trkpt lat="43.5070245" lon="11.6731471"><ele>213.0</ele><time>2026-04-25T09:31:22.943Z</time></trkpt><trkpt lat="43.5069104" lon="11.6733122"><ele>212.0</ele><time>2026-04-25T09:31:23.951Z</time></trkpt><trkpt lat="43.5068255" lon="11.6734517"><ele>211.0</ele><time>2026-04-25T09:31:24.943Z</time></trkpt><trkpt lat="43.5067483" lon="11.6735341"><ele>210.0</ele><time>2026-04-25T09:31:25.946Z</time></trkpt><trkpt lat="43.5066765" lon="11.6735776"><ele>209.0</ele><time>2026-04-25T09:31:26.946Z</time></trkpt><trkpt lat="43.5065992" lon="11.6735659"><ele>208.0</ele><time>2026-04-25T09:31:27.949Z</time></trkpt><trkpt lat="43.5064998" lon="11.6734917"><ele>208.0</ele><time>2026-04-25T09:31:28.949Z</time></trkpt><trkpt lat="43.5063832" lon="11.6734266"><ele>208.0</ele><time>2026-04-25T09:31:29.947Z</time></trkpt><trkpt lat="43.5062437" lon="11.6733469"><ele>208.0</ele><time>2026-04-25T09:31:30.95Z</time></trkpt><trkpt lat="43.5061111" lon="11.6732662"><ele>208.0</ele><time>2026-04-25T09:31:31.946Z</time></trkpt><trkpt lat="43.5059892" lon="11.6731547"><ele>208.0</ele><time>2026-04-25T09:31:32.946Z</time></trkpt><trkpt lat="43.5058689" lon="11.6729913"><ele>208.0</ele><time>2026-04-25T09:31:33.944Z</time></trkpt><trkpt lat="43.5057459" lon="11.6728229"><ele>208.0</ele><time>2026-04-25T09:31:34.94Z</time></trkpt><trkpt lat="43.5056541" lon="11.6726536"><ele>208.0</ele><time>2026-04-25T09:31:35.944Z</time></trkpt><trkpt lat="43.5056072" lon="11.6725172"><ele>208.0</ele><time>2026-04-25T09:31:36.947Z</time></trkpt><trkpt lat="43.5055829" lon="11.6723794"><ele>208.0</ele><time>2026-04-25T09:31:37.939Z</time></trkpt><trkpt lat="43.5055657" lon="11.672253"><ele>208.0</ele><time>2026-04-25T09:31:38.939Z</time></trkpt><trkpt lat="43.5055378" lon="11.6720877"><ele>208.0</ele><time>2026-04-25T09:31:39.938Z</time></trkpt><trkpt lat="43.5054912" lon="11.671948"><ele>207.0</ele><time>2026-04-25T09:31:40.948Z</time></trkpt><trkpt lat="43.5054172" lon="11.6718371"><ele>206.0</ele><time>2026-04-25T09:31:41.948Z</time></trkpt><trkpt lat="43.5053342" lon="11.6717973"><ele>205.0</ele><time>2026-04-25T09:31:42.946Z</time></trkpt><trkpt lat="43.5052578" lon="11.6718396"><ele>204.0</ele><time>2026-04-25T09:31:43.949Z</time></trkpt><trkpt lat="43.5051965" lon="11.6719144"><ele>203.0</ele><time>2026-04-25T09:31:44.937Z</time></trkpt><trkpt lat="43.5051579" lon="11.6720468"><ele>207.0</ele><time>2026-04-25T09:31:45.954Z</time></trkpt><trkpt lat="43.5051448" lon="11.6722135"><ele>211.0</ele><time>2026-04-25T09:31:46.948Z</time></trkpt><trkpt lat="43.505116" lon="11.6723936"><ele>215.0</ele><time>2026-04-25T09:31:47.948Z</time></trkpt><trkpt lat="43.5050958" lon="11.6725707"><ele>219.0</ele><time>2026-04-25T09:31:48.961Z</time></trkpt><trkpt lat="43.5050694" lon="11.6727389"><ele>217.66666666666669</ele><time>2026-04-25T09:31:49.954Z</time></trkpt><trkpt lat="43.505023" lon="11.6729582"><ele>216.33333333333334</ele><time>2026-04-25T09:31:50.952Z</time></trkpt><trkpt lat="43.5049731" lon="11.6732049"><ele>215.0</ele><time>2026-04-25T09:31:51.943Z</time></trkpt><trkpt lat="43.5049234" lon="11.6734466"><ele>214.33333333333334</ele><time>2026-04-25T09:31:52.966Z</time></trkpt><trkpt lat="43.50488" lon="11.6736797"><ele>213.66666666666669</ele><time>2026-04-25T09:31:53.957Z</time></trkpt><trkpt lat="43.5048312" lon="11.673884"><ele>213.0</ele><time>2026-04-25T09:31:54.948Z</time></trkpt><trkpt lat="43.504788" lon="11.6740545"><ele>213.0</ele><time>2026-04-25T09:31:55.971Z</time></trkpt><trkpt lat="43.5047529" lon="11.6742096"><ele>213.0</ele><time>2026-04-25T09:31:56.943Z</time></trkpt><trkpt lat="43.5047388" lon="11.6743537"><ele>213.0</ele><time>2026-04-25T09:31:57.952Z</time></trkpt><trkpt lat="43.5047458" lon="11.6744903"><ele>213.0</ele><time>2026-04-25T09:31:58.951Z</time></trkpt><trkpt lat="43.5047693" lon="11.6746039"><ele>213.0</ele><time>2026-04-25T09:31:59.95Z</time></trkpt><trkpt lat="43.5047795" lon="11.6747008"><ele>213.4</ele><time>2026-04-25T09:32:00.954Z</time></trkpt><trkpt lat="43.5047546" lon="11.6747822"><ele>213.8</ele><time>2026-04-25T09:32:01.947Z</time></trkpt><trkpt lat="43.5046468" lon="11.6748504"><ele>214.2</ele><time>2026-04-25T09:32:03.945Z</time></trkpt><trkpt lat="43.5045619" lon="11.6748291"><ele>214.6</ele><time>2026-04-25T09:32:04.952Z</time></trkpt><trkpt lat="43.5044586" lon="11.6747953"><ele>215.0</ele><time>2026-04-25T09:32:05.955Z</time></trkpt><trkpt lat="43.5043451" lon="11.6747793"><ele>212.0</ele><time>2026-04-25T09:32:06.938Z</time></trkpt><trkpt lat="43.5042306" lon="11.6748063"><ele>209.0</ele><time>2026-04-25T09:32:07.939Z</time></trkpt><trkpt lat="43.5041164" lon="11.6748758"><ele>206.0</ele><time>2026-04-25T09:32:08.942Z</time></trkpt><trkpt lat="43.5040156" lon="11.6749912"><ele>203.0</ele><time>2026-04-25T09:32:09.941Z</time></trkpt><trkpt lat="43.5039367" lon="11.6751627"><ele>206.0</ele><time>2026-04-25T09:32:10.943Z</time></trkpt><trkpt lat="43.5038789" lon="11.6753579"><ele>209.0</ele><time>2026-04-25T09:32:11.956Z</time></trkpt><trkpt lat="43.5038208" lon="11.6755263"><ele>212.0</ele><time>2026-04-25T09:32:12.952Z</time></trkpt><trkpt lat="43.5037439" lon="11.6756672"><ele>215.0</ele><time>2026-04-25T09:32:13.955Z</time></trkpt><trkpt lat="43.5036095" lon="11.6757445"><ele>206.33333333333334</ele><time>2026-04-25T09:32:14.941Z</time></trkpt><trkpt lat="43.5034617" lon="11.6758112"><ele>197.66666666666669</ele><time>2026-04-25T09:32:15.941Z</time></trkpt><trkpt lat="43.5033148" lon="11.6758912"><ele>189.0</ele><time>2026-04-25T09:32:16.948Z</time></trkpt><trkpt lat="43.5031847" lon="11.6759739"><ele>189.0</ele><time>2026-04-25T09:32:17.942Z</time></trkpt><trkpt lat="43.5030631" lon="11.6760693"><ele>189.0</ele><time>2026-04-25T09:32:18.948Z</time></trkpt><trkpt lat="43.5029476" lon="11.676179"><ele>189.0</ele><time>2026-04-25T09:32:19.948Z</time></trkpt><trkpt lat="43.5028365" lon="11.6763079"><ele>189.0</ele><time>2026-04-25T09:32:20.941Z</time></trkpt><trkpt lat="43.5027411" lon="11.6764632"><ele>187.79999999999998</ele><time>2026-04-25T09:32:21.945Z</time></trkpt><trkpt lat="43.5026751" lon="11.6766352"><ele>186.6</ele><time>2026-04-25T09:32:22.955Z</time></trkpt><trkpt lat="43.5026271" lon="11.676789"><ele>185.4</ele><time>2026-04-25T09:32:23.956Z</time></trkpt><trkpt lat="43.5025919" lon="11.6769156"><ele>184.2</ele><time>2026-04-25T09:32:24.945Z</time></trkpt><trkpt lat="43.5025655" lon="11.6770176"><ele>183.0</ele><time>2026-04-25T09:32:25.944Z</time></trkpt><trkpt lat="43.5024959" lon="11.677137"><ele>183.0</ele><time>2026-04-25T09:32:27.947Z</time></trkpt><trkpt lat="43.5024528" lon="11.6770566"><ele>183.0</ele><time>2026-04-25T09:32:30.958Z</time></trkpt><trkpt lat="43.502493" lon="11.676887"><ele>183.0</ele><time>2026-04-25T09:32:32.96Z</time></trkpt><trkpt lat="43.5025317" lon="11.6767688"><ele>183.0</ele><time>2026-04-25T09:32:33.95Z</time></trkpt><trkpt lat="43.5025758" lon="11.6766309"><ele>183.0</ele><time>2026-04-25T09:32:34.949Z</time></trkpt><trkpt lat="43.5026185" lon="11.6764737"><ele>182.0</ele><time>2026-04-25T09:32:35.946Z</time></trkpt><trkpt lat="43.5026626" lon="11.6763294"><ele>181.0</ele><time>2026-04-25T09:32:36.951Z</time></trkpt><trkpt lat="43.5026942" lon="11.6761808"><ele>180.0</ele><time>2026-04-25T09:32:37.952Z</time></trkpt><trkpt lat="43.5026986" lon="11.6760305"><ele>179.0</ele><time>2026-04-25T09:32:38.941Z</time></trkpt><trkpt lat="43.5026629" lon="11.675891"><ele>178.0</ele><time>2026-04-25T09:32:39.946Z</time></trkpt><trkpt lat="43.5025985" lon="11.6757619"><ele>176.5</ele><time>2026-04-25T09:32:40.965Z</time></trkpt><trkpt lat="43.5025088" lon="11.6756529"><ele>175.0</ele><time>2026-04-25T09:32:41.943Z</time></trkpt><trkpt lat="43.5024158" lon="11.6755465"><ele>173.5</ele><time>2026-04-25T09:32:42.945Z</time></trkpt><trkpt lat="43.5023159" lon="11.6754147"><ele>172.0</ele><time>2026-04-25T09:32:43.953Z</time></trkpt><trkpt lat="43.502198" lon="11.6752656"><ele>172.0</ele><time>2026-04-25T09:32:44.955Z</time></trkpt><trkpt lat="43.5020854" lon="11.6751008"><ele>172.0</ele><time>2026-04-25T09:32:45.949Z</time></trkpt><trkpt lat="43.5019886" lon="11.6749179"><ele>172.0</ele><time>2026-04-25T09:32:46.949Z</time></trkpt><trkpt lat="43.5019113" lon="11.6747069"><ele>172.0</ele><time>2026-04-25T09:32:47.94Z</time></trkpt><trkpt lat="43.501837" lon="11.6744996"><ele>172.0</ele><time>2026-04-25T09:32:48.954Z</time></trkpt><trkpt lat="43.501763" lon="11.6743061"><ele>172.0</ele><time>2026-04-25T09:32:49.94Z</time></trkpt><trkpt lat="43.5017006" lon="11.6741282"><ele>172.39999999999998</ele><time>2026-04-25T09:32:50.944Z</time></trkpt><trkpt lat="43.5016426" lon="11.6739733"><ele>172.79999999999998</ele><time>2026-04-25T09:32:51.943Z</time></trkpt><trkpt lat="43.5015847" lon="11.6738328"><ele>173.2</ele><time>2026-04-25T09:32:52.955Z</time></trkpt><trkpt lat="43.5015349" lon="11.6737339"><ele>173.6</ele><time>2026-04-25T09:32:53.952Z</time></trkpt><trkpt lat="43.5014859" lon="11.6736695"><ele>174.0</ele><time>2026-04-25T09:32:54.955Z</time></trkpt><trkpt lat="43.5014295" lon="11.6736134"><ele>174.0</ele><time>2026-04-25T09:32:56.954Z</time></trkpt><trkpt lat="43.5013578" lon="11.6736896"><ele>174.0</ele><time>2026-04-25T09:33:00.954Z</time></trkpt><trkpt lat="43.5013309" lon="11.6738554"><ele>174.0</ele><time>2026-04-25T09:33:02.958Z</time></trkpt><trkpt lat="43.501301" lon="11.6739758"><ele>174.0</ele><time>2026-04-25T09:33:03.949Z</time></trkpt><trkpt lat="43.501279" lon="11.6741468"><ele>174.0</ele><time>2026-04-25T09:33:04.949Z</time></trkpt><trkpt lat="43.5012642" lon="11.6743375"><ele>173.6</ele><time>2026-04-25T09:33:05.952Z</time></trkpt><trkpt lat="43.5012542" lon="11.6745207"><ele>173.2</ele><time>2026-04-25T09:33:06.953Z</time></trkpt><trkpt lat="43.5012391" lon="11.6746865"><ele>172.79999999999998</ele><time>2026-04-25T09:33:07.942Z</time></trkpt><trkpt lat="43.5012292" lon="11.6748249"><ele>172.39999999999998</ele><time>2026-04-25T09:33:08.955Z</time></trkpt><trkpt lat="43.5012092" lon="11.6749413"><ele>172.0</ele><time>2026-04-25T09:33:09.96Z</time></trkpt><trkpt lat="43.5011544" lon="11.6750932"><ele>172.39999999999998</ele><time>2026-04-25T09:33:11.956Z</time></trkpt><trkpt lat="43.5010746" lon="11.6752349"><ele>172.79999999999998</ele><time>2026-04-25T09:33:13.96Z</time></trkpt><trkpt lat="43.5010079" lon="11.6753169"><ele>173.2</ele><time>2026-04-25T09:33:14.954Z</time></trkpt><trkpt lat="43.500947" lon="11.6753733"><ele>173.6</ele><time>2026-04-25T09:33:15.945Z</time></trkpt><trkpt lat="43.5008725" lon="11.6754372"><ele>174.0</ele><time>2026-04-25T09:33:17.955Z</time></trkpt><trkpt lat="43.5007992" lon="11.6755371"><ele>174.0</ele><time>2026-04-25T09:33:42.944Z</time></trkpt><trkpt lat="43.5007429" lon="11.6756215"><ele>174.0</ele><time>2026-04-25T09:33:44.952Z</time></trkpt><trkpt lat="43.5007024" lon="11.6757014"><ele>174.0</ele><time>2026-04-25T09:33:46.947Z</time></trkpt><trkpt lat="43.5006245" lon="11.6757804"><ele>174.0</ele><time>2026-04-25T09:33:49.95Z</time></trkpt><trkpt lat="43.5005703" lon="11.6758328"><ele>174.0</ele><time>2026-04-25T09:33:51.947Z</time></trkpt><trkpt lat="43.5005191" lon="11.6759348"><ele>174.0</ele><time>2026-04-25T09:33:54.949Z</time></trkpt><trkpt lat="43.5005282" lon="11.6760664"><ele>173.83333333333334</ele><time>2026-04-25T09:33:57.949Z</time></trkpt><trkpt lat="43.5005655" lon="11.6762108"><ele>173.66666666666666</ele><time>2026-04-25T09:33:59.948Z</time></trkpt><trkpt lat="43.5006097" lon="11.6762976"><ele>173.5</ele><time>2026-04-25T09:34:00.949Z</time></trkpt><trkpt lat="43.5006442" lon="11.6763707"><ele>173.33333333333331</ele><time>2026-04-25T09:34:01.942Z</time></trkpt><trkpt lat="43.5006739" lon="11.6764753"><ele>173.16666666666666</ele><time>2026-04-25T09:34:03.953Z</time></trkpt><trkpt lat="43.500683" lon="11.6766189"><ele>173.0</ele><time>2026-04-25T09:34:06.945Z</time></trkpt><trkpt lat="43.5006766" lon="11.6767561"><ele>173.0</ele><time>2026-04-25T09:34:08.949Z</time></trkpt><trkpt lat="43.5006415" lon="11.6768975"><ele>173.0</ele><time>2026-04-25T09:34:10.948Z</time></trkpt><trkpt lat="43.5005759" lon="11.6769975"><ele>173.0</ele><time>2026-04-25T09:34:12.958Z</time></trkpt><trkpt lat="43.5004958" lon="11.6770844"><ele>173.0</ele><time>2026-04-25T09:34:14.952Z</time></trkpt><trkpt lat="43.5004103" lon="11.6771722"><ele>173.0</ele><time>2026-04-25T09:34:16.954Z</time></trkpt><trkpt lat="43.5003554" lon="11.6772262"><ele>173.5</ele><time>2026-04-25T09:34:17.945Z</time></trkpt><trkpt lat="43.5002914" lon="11.6772777"><ele>174.0</ele><time>2026-04-25T09:34:18.948Z</time></trkpt><trkpt lat="43.5002288" lon="11.6773378"><ele>174.5</ele><time>2026-04-25T09:34:19.952Z</time></trkpt><trkpt lat="43.500157" lon="11.6774014"><ele>175.0</ele><time>2026-04-25T09:34:20.953Z</time></trkpt><trkpt lat="43.5000875" lon="11.6774481"><ele>175.5</ele><time>2026-04-25T09:34:21.957Z</time></trkpt><trkpt lat="43.5000179" lon="11.6775057"><ele>176.0</ele><time>2026-04-25T09:34:22.945Z</time></trkpt><trkpt lat="43.4999433" lon="11.6775651"><ele>176.0</ele><time>2026-04-25T09:34:23.957Z</time></trkpt><trkpt lat="43.499857" lon="11.6776169"><ele>176.0</ele><time>2026-04-25T09:34:24.953Z</time></trkpt><trkpt lat="43.4997646" lon="11.6776714"><ele>176.0</ele><time>2026-04-25T09:34:25.947Z</time></trkpt><trkpt lat="43.4996527" lon="11.6777344"><ele>176.0</ele><time>2026-04-25T09:34:26.954Z</time></trkpt><trkpt lat="43.4995325" lon="11.6778124"><ele>176.0</ele><time>2026-04-25T09:34:27.953Z</time></trkpt><trkpt lat="43.4994214" lon="11.6779071"><ele>176.8</ele><time>2026-04-25T09:34:28.95Z</time></trkpt><trkpt lat="43.4993331" lon="11.6780127"><ele>177.60000000000002</ele><time>2026-04-25T09:34:29.943Z</time></trkpt><trkpt lat="43.4992809" lon="11.678107"><ele>178.4</ele><time>2026-04-25T09:34:30.945Z</time></trkpt><trkpt lat="43.4991762" lon="11.6781993"><ele>179.2</ele><time>2026-04-25T09:34:32.948Z</time></trkpt><trkpt lat="43.4991298" lon="11.6782686"><ele>180.0</ele><time>2026-04-25T09:34:33.946Z</time></trkpt><trkpt lat="43.49909" lon="11.6783473"><ele>180.0</ele><time>2026-04-25T09:34:34.946Z</time></trkpt><trkpt lat="43.4990606" lon="11.6784404"><ele>180.0</ele><time>2026-04-25T09:34:35.945Z</time></trkpt><trkpt lat="43.4990341" lon="11.6785484"><ele>180.0</ele><time>2026-04-25T09:34:36.947Z</time></trkpt><trkpt lat="43.499001" lon="11.6786597"><ele>180.0</ele><time>2026-04-25T09:34:37.951Z</time></trkpt><trkpt lat="43.498953" lon="11.6787761"><ele>180.0</ele><time>2026-04-25T09:34:38.947Z</time></trkpt><trkpt lat="43.4988849" lon="11.6788992"><ele>180.6</ele><time>2026-04-25T09:34:39.947Z</time></trkpt><trkpt lat="43.4988167" lon="11.6790127"><ele>181.2</ele><time>2026-04-25T09:34:40.929Z</time></trkpt><trkpt lat="43.4987557" lon="11.6790961"><ele>181.8</ele><time>2026-04-25T09:34:41.945Z</time></trkpt><trkpt lat="43.4986848" lon="11.6791907"><ele>182.4</ele><time>2026-04-25T09:34:43.946Z</time></trkpt><trkpt lat="43.4986612" lon="11.6792782"><ele>183.0</ele><time>2026-04-25T09:34:45.942Z</time></trkpt><trkpt lat="43.4986951" lon="11.6794881"><ele>183.0</ele><time>2026-04-25T09:34:47.947Z</time></trkpt><trkpt lat="43.4987079" lon="11.6796237"><ele>183.0</ele><time>2026-04-25T09:34:48.934Z</time></trkpt><trkpt lat="43.4987143" lon="11.6797137"><ele>183.0</ele><time>2026-04-25T09:34:49.94Z</time></trkpt><trkpt lat="43.4986725" lon="11.6798822"><ele>183.0</ele><time>2026-04-25T09:34:51.957Z</time></trkpt><trkpt lat="43.4986511" lon="11.6800023"><ele>183.0</ele><time>2026-04-25T09:34:52.951Z</time></trkpt><trkpt lat="43.4986301" lon="11.6801598"><ele>182.75</ele><time>2026-04-25T09:34:53.945Z</time></trkpt><trkpt lat="43.4986026" lon="11.6803582"><ele>182.5</ele><time>2026-04-25T09:34:54.946Z</time></trkpt><trkpt lat="43.4985662" lon="11.6805556"><ele>182.25</ele><time>2026-04-25T09:34:55.938Z</time></trkpt><trkpt lat="43.4985263" lon="11.6807451"><ele>182.0</ele><time>2026-04-25T09:34:56.945Z</time></trkpt><trkpt lat="43.498492" lon="11.6809108"><ele>182.0</ele><time>2026-04-25T09:34:57.946Z</time></trkpt><trkpt lat="43.4984594" lon="11.6810577"><ele>182.0</ele><time>2026-04-25T09:34:58.945Z</time></trkpt><trkpt lat="43.4984322" lon="11.6811927"><ele>182.0</ele><time>2026-04-25T09:34:59.943Z</time></trkpt><trkpt lat="43.4984118" lon="11.6813174"><ele>182.0</ele><time>2026-04-25T09:35:00.938Z</time></trkpt><trkpt lat="43.4984117" lon="11.6814283"><ele>182.0</ele><time>2026-04-25T09:35:01.945Z</time></trkpt><trkpt lat="43.4983995" lon="11.6815329"><ele>181.39999999999998</ele><time>2026-04-25T09:35:02.937Z</time></trkpt><trkpt lat="43.4983735" lon="11.6816629"><ele>180.79999999999998</ele><time>2026-04-25T09:35:03.941Z</time></trkpt><trkpt lat="43.498346" lon="11.6817984"><ele>180.2</ele><time>2026-04-25T09:35:04.93Z</time></trkpt><trkpt lat="43.4983173" lon="11.6819447"><ele>179.6</ele><time>2026-04-25T09:35:05.943Z</time></trkpt><trkpt lat="43.4982944" lon="11.6820687"><ele>179.0</ele><time>2026-04-25T09:35:06.934Z</time></trkpt><trkpt lat="43.4982844" lon="11.6821905"><ele>178.6</ele><time>2026-04-25T09:35:07.939Z</time></trkpt><trkpt lat="43.4982782" lon="11.6823345"><ele>178.2</ele><time>2026-04-25T09:35:08.943Z</time></trkpt><trkpt lat="43.4982761" lon="11.6824921"><ele>177.79999999999998</ele><time>2026-04-25T09:35:09.942Z</time></trkpt><trkpt lat="43.4982683" lon="11.6826318"><ele>177.39999999999998</ele><time>2026-04-25T09:35:10.937Z</time></trkpt><trkpt lat="43.4982456" lon="11.6827351"><ele>177.0</ele><time>2026-04-25T09:35:11.943Z</time></trkpt><trkpt lat="43.4982186" lon="11.682814"><ele>176.0</ele><time>2026-04-25T09:35:12.947Z</time></trkpt><trkpt lat="43.4981664" lon="11.6829306"><ele>175.0</ele><time>2026-04-25T09:35:14.935Z</time></trkpt><trkpt lat="43.498131" lon="11.6830752"><ele>174.0</ele><time>2026-04-25T09:35:16.947Z</time></trkpt><trkpt lat="43.498099" lon="11.683184"><ele>173.0</ele><time>2026-04-25T09:35:17.931Z</time></trkpt><trkpt lat="43.4980597" lon="11.6833388"><ele>172.0</ele><time>2026-04-25T09:35:18.937Z</time></trkpt><trkpt lat="43.498008" lon="11.683509"><ele>171.5</ele><time>2026-04-25T09:35:19.941Z</time></trkpt><trkpt lat="43.4979442" lon="11.6836682"><ele>171.0</ele><time>2026-04-25T09:35:20.938Z</time></trkpt><trkpt lat="43.497885" lon="11.6838088"><ele>170.5</ele><time>2026-04-25T09:35:21.936Z</time></trkpt><trkpt lat="43.497819" lon="11.6839492"><ele>170.0</ele><time>2026-04-25T09:35:22.95Z</time></trkpt><trkpt lat="43.4977503" lon="11.6841021"><ele>171.0</ele><time>2026-04-25T09:35:23.94Z</time></trkpt><trkpt lat="43.4976731" lon="11.684277"><ele>172.0</ele><time>2026-04-25T09:35:24.953Z</time></trkpt><trkpt lat="43.4976189" lon="11.6844326"><ele>173.0</ele><time>2026-04-25T09:35:25.938Z</time></trkpt><trkpt lat="43.4975612" lon="11.6845452"><ele>174.0</ele><time>2026-04-25T09:35:26.948Z</time></trkpt><trkpt lat="43.4974962" lon="11.6846585"><ele>174.0</ele><time>2026-04-25T09:35:27.953Z</time></trkpt><trkpt lat="43.4974028" lon="11.6847798"><ele>174.0</ele><time>2026-04-25T09:35:28.941Z</time></trkpt><trkpt lat="43.4972986" lon="11.6849208"><ele>174.0</ele><time>2026-04-25T09:35:29.957Z</time></trkpt><trkpt lat="43.4971958" lon="11.685068"><ele>174.0</ele><time>2026-04-25T09:35:30.94Z</time></trkpt><trkpt lat="43.4970995" lon="11.6852159"><ele>176.5</ele><time>2026-04-25T09:35:31.945Z</time></trkpt><trkpt lat="43.4970188" lon="11.6853555"><ele>179.0</ele><time>2026-04-25T09:35:32.939Z</time></trkpt><trkpt lat="43.4969414" lon="11.6854995"><ele>181.5</ele><time>2026-04-25T09:35:33.94Z</time></trkpt><trkpt lat="43.4968627" lon="11.6856454"><ele>184.0</ele><time>2026-04-25T09:35:34.959Z</time></trkpt><trkpt lat="43.4967777" lon="11.6857864"><ele>184.0</ele><time>2026-04-25T09:35:35.936Z</time></trkpt><trkpt lat="43.4966813" lon="11.6859292"><ele>184.0</ele><time>2026-04-25T09:35:36.946Z</time></trkpt><trkpt lat="43.4965774" lon="11.6860693"><ele>184.0</ele><time>2026-04-25T09:35:37.941Z</time></trkpt><trkpt lat="43.4964754" lon="11.6861853"><ele>184.0</ele><time>2026-04-25T09:35:38.946Z</time></trkpt><trkpt lat="43.4963943" lon="11.686288"><ele>185.33333333333334</ele><time>2026-04-25T09:35:39.942Z</time></trkpt><trkpt lat="43.4963213" lon="11.686362"><ele>186.66666666666669</ele><time>2026-04-25T09:35:40.938Z</time></trkpt><trkpt lat="43.4962544" lon="11.6864081"><ele>188.0</ele><time>2026-04-25T09:35:41.938Z</time></trkpt><trkpt lat="43.4961674" lon="11.6864623"><ele>189.33333333333334</ele><time>2026-04-25T09:35:43.944Z</time></trkpt><trkpt lat="43.4961427" lon="11.6865446"><ele>190.66666666666666</ele><time>2026-04-25T09:35:45.957Z</time></trkpt><trkpt lat="43.4961396" lon="11.6866728"><ele>192.0</ele><time>2026-04-25T09:35:47.95Z</time></trkpt><trkpt lat="43.4960903" lon="11.6868813"><ele>191.0</ele><time>2026-04-25T09:35:49.954Z</time></trkpt><trkpt lat="43.4960482" lon="11.687025"><ele>190.0</ele><time>2026-04-25T09:35:50.943Z</time></trkpt><trkpt lat="43.4960195" lon="11.6871691"><ele>189.0</ele><time>2026-04-25T09:35:51.944Z</time></trkpt><trkpt lat="43.4959844" lon="11.6873295"><ele>188.0</ele><time>2026-04-25T09:35:52.95Z</time></trkpt><trkpt lat="43.4959499" lon="11.6874972"><ele>188.0</ele><time>2026-04-25T09:35:53.94Z</time></trkpt><trkpt lat="43.4959156" lon="11.6876784"><ele>188.0</ele><time>2026-04-25T09:35:54.939Z</time></trkpt><trkpt lat="43.4958891" lon="11.6878408"><ele>188.0</ele><time>2026-04-25T09:35:55.945Z</time></trkpt><trkpt lat="43.4958671" lon="11.6879902"><ele>188.0</ele><time>2026-04-25T09:35:56.935Z</time></trkpt><trkpt lat="43.4958497" lon="11.6881234"><ele>186.4</ele><time>2026-04-25T09:35:57.948Z</time></trkpt><trkpt lat="43.495835" lon="11.6882312"><ele>184.8</ele><time>2026-04-25T09:35:58.942Z</time></trkpt><trkpt lat="43.4958232" lon="11.6883411"><ele>183.2</ele><time>2026-04-25T09:35:59.949Z</time></trkpt><trkpt lat="43.495844" lon="11.6884657"><ele>181.6</ele><time>2026-04-25T09:36:00.946Z</time></trkpt><trkpt lat="43.4958709" lon="11.6886098"><ele>180.0</ele><time>2026-04-25T09:36:01.942Z</time></trkpt><trkpt lat="43.4958811" lon="11.6887812"><ele>178.5</ele><time>2026-04-25T09:36:02.948Z</time></trkpt><trkpt lat="43.4958788" lon="11.6889687"><ele>177.0</ele><time>2026-04-25T09:36:03.937Z</time></trkpt><trkpt lat="43.4958649" lon="11.6891526"><ele>175.5</ele><time>2026-04-25T09:36:04.943Z</time></trkpt><trkpt lat="43.4958329" lon="11.6893173"><ele>174.0</ele><time>2026-04-25T09:36:05.947Z</time></trkpt><trkpt lat="43.4957811" lon="11.6894751"><ele>172.33333333333334</ele><time>2026-04-25T09:36:06.955Z</time></trkpt><trkpt lat="43.4957245" lon="11.6896607"><ele>170.66666666666669</ele><time>2026-04-25T09:36:07.945Z</time></trkpt><trkpt lat="43.4956623" lon="11.6898818"><ele>169.0</ele><time>2026-04-25T09:36:08.942Z</time></trkpt><trkpt lat="43.4956167" lon="11.6900818"><ele>169.0</ele><time>2026-04-25T09:36:09.946Z</time></trkpt><trkpt lat="43.4955912" lon="11.6902784"><ele>169.0</ele><time>2026-04-25T09:36:10.956Z</time></trkpt><trkpt lat="43.4955754" lon="11.6904824"><ele>169.0</ele><time>2026-04-25T09:36:11.946Z</time></trkpt><trkpt lat="43.4955623" lon="11.6907047"><ele>169.0</ele><time>2026-04-25T09:36:12.947Z</time></trkpt><trkpt lat="43.4955542" lon="11.6909226"><ele>169.0</ele><time>2026-04-25T09:36:13.951Z</time></trkpt><trkpt lat="43.4955425" lon="11.6911405"><ele>169.0</ele><time>2026-04-25T09:36:14.937Z</time></trkpt><trkpt lat="43.4955368" lon="11.6913508"><ele>169.0</ele><time>2026-04-25T09:36:15.947Z</time></trkpt><trkpt lat="43.4955361" lon="11.6915694"><ele>169.0</ele><time>2026-04-25T09:36:16.96Z</time></trkpt><trkpt lat="43.4955496" lon="11.6917685"><ele>169.0</ele><time>2026-04-25T09:36:17.948Z</time></trkpt><trkpt lat="43.4955525" lon="11.6919574"><ele>169.0</ele><time>2026-04-25T09:36:18.941Z</time></trkpt><trkpt lat="43.4955561" lon="11.6921384"><ele>169.0</ele><time>2026-04-25T09:36:19.951Z</time></trkpt><trkpt lat="43.4955582" lon="11.692337"><ele>169.0</ele><time>2026-04-25T09:36:20.944Z</time></trkpt><trkpt lat="43.495554" lon="11.6925329"><ele>169.0</ele><time>2026-04-25T09:36:21.938Z</time></trkpt><trkpt lat="43.4955503" lon="11.6927489"><ele>169.0</ele><time>2026-04-25T09:36:22.936Z</time></trkpt><trkpt lat="43.4955563" lon="11.6929898"><ele>169.33333333333334</ele><time>2026-04-25T09:36:23.96Z</time></trkpt><trkpt lat="43.4955586" lon="11.6932291"><ele>169.66666666666666</ele><time>2026-04-25T09:36:24.934Z</time></trkpt><trkpt lat="43.4955607" lon="11.693446"><ele>170.0</ele><time>2026-04-25T09:36:25.956Z</time></trkpt><trkpt lat="43.4955628" lon="11.6936473"><ele>170.25</ele><time>2026-04-25T09:36:26.937Z</time></trkpt><trkpt lat="43.4955642" lon="11.6938332"><ele>170.5</ele><time>2026-04-25T09:36:27.939Z</time></trkpt><trkpt lat="43.4955617" lon="11.6939965"><ele>170.75</ele><time>2026-04-25T09:36:28.941Z</time></trkpt><trkpt lat="43.4955488" lon="11.6941372"><ele>171.0</ele><time>2026-04-25T09:36:29.933Z</time></trkpt><trkpt lat="43.4955304" lon="11.6942731"><ele>171.0</ele><time>2026-04-25T09:36:30.944Z</time></trkpt><trkpt lat="43.4955113" lon="11.6943974"><ele>171.0</ele><time>2026-04-25T09:36:31.939Z</time></trkpt><trkpt lat="43.4954902" lon="11.6945151"><ele>171.0</ele><time>2026-04-25T09:36:32.955Z</time></trkpt><trkpt lat="43.4954649" lon="11.6946418"><ele>171.0</ele><time>2026-04-25T09:36:33.952Z</time></trkpt><trkpt lat="43.4954368" lon="11.6947618"><ele>171.0</ele><time>2026-04-25T09:36:34.961Z</time></trkpt><trkpt lat="43.4954085" lon="11.6948869"><ele>171.4</ele><time>2026-04-25T09:36:35.952Z</time></trkpt><trkpt lat="43.4953786" lon="11.6950238"><ele>171.8</ele><time>2026-04-25T09:36:36.944Z</time></trkpt><trkpt lat="43.4953507" lon="11.6951605"><ele>172.20000000000002</ele><time>2026-04-25T09:36:37.956Z</time></trkpt><trkpt lat="43.4953177" lon="11.6952923"><ele>172.60000000000002</ele><time>2026-04-25T09:36:38.95Z</time></trkpt><trkpt lat="43.4952864" lon="11.6954319"><ele>173.0</ele><time>2026-04-25T09:36:39.946Z</time></trkpt><trkpt lat="43.4952552" lon="11.6955826"><ele>173.0</ele><time>2026-04-25T09:36:40.945Z</time></trkpt><trkpt lat="43.4952182" lon="11.6957399"><ele>173.0</ele><time>2026-04-25T09:36:41.953Z</time></trkpt><trkpt lat="43.4951798" lon="11.695911"><ele>173.0</ele><time>2026-04-25T09:36:42.958Z</time></trkpt><trkpt lat="43.4951415" lon="11.6960861"><ele>173.0</ele><time>2026-04-25T09:36:43.944Z</time></trkpt><trkpt lat="43.4950973" lon="11.6962653"><ele>173.25</ele><time>2026-04-25T09:36:44.949Z</time></trkpt><trkpt lat="43.4950499" lon="11.6964322"><ele>173.5</ele><time>2026-04-25T09:36:45.961Z</time></trkpt><trkpt lat="43.4950034" lon="11.6965884"><ele>173.75</ele><time>2026-04-25T09:36:46.961Z</time></trkpt><trkpt lat="43.4949617" lon="11.6967336"><ele>174.0</ele><time>2026-04-25T09:36:47.949Z</time></trkpt><trkpt lat="43.4949216" lon="11.6968703"><ele>175.0</ele><time>2026-04-25T09:36:48.956Z</time></trkpt><trkpt lat="43.4948935" lon="11.6970095"><ele>176.0</ele><time>2026-04-25T09:36:49.945Z</time></trkpt><trkpt lat="43.4948914" lon="11.6971455"><ele>177.0</ele><time>2026-04-25T09:36:50.955Z</time></trkpt><trkpt lat="43.4949152" lon="11.6972993"><ele>178.0</ele><time>2026-04-25T09:36:51.947Z</time></trkpt><trkpt lat="43.4949435" lon="11.697464"><ele>179.0</ele><time>2026-04-25T09:36:52.934Z</time></trkpt><trkpt lat="43.4949732" lon="11.6976204"><ele>180.0</ele><time>2026-04-25T09:36:53.943Z</time></trkpt><trkpt lat="43.4950101" lon="11.697759"><ele>181.0</ele><time>2026-04-25T09:36:54.95Z</time></trkpt><trkpt lat="43.4950488" lon="11.6978644"><ele>182.0</ele><time>2026-04-25T09:36:55.944Z</time></trkpt><trkpt lat="43.4950926" lon="11.6979449"><ele>183.0</ele><time>2026-04-25T09:36:56.943Z</time></trkpt><trkpt lat="43.4952103" lon="11.6980467"><ele>184.0</ele><time>2026-04-25T09:36:58.943Z</time></trkpt><trkpt lat="43.4952745" lon="11.6981274"><ele>184.0</ele><time>2026-04-25T09:36:59.937Z</time></trkpt><trkpt lat="43.4953489" lon="11.6982148"><ele>184.0</ele><time>2026-04-25T09:37:00.951Z</time></trkpt><trkpt lat="43.4954487" lon="11.6983198"><ele>184.0</ele><time>2026-04-25T09:37:01.953Z</time></trkpt><trkpt lat="43.4955505" lon="11.6984394"><ele>184.0</ele><time>2026-04-25T09:37:02.958Z</time></trkpt><trkpt lat="43.4956493" lon="11.6985471"><ele>183.25</ele><time>2026-04-25T09:37:03.957Z</time></trkpt><trkpt lat="43.4957437" lon="11.6986575"><ele>182.5</ele><time>2026-04-25T09:37:04.944Z</time></trkpt><trkpt lat="43.495848" lon="11.6987715"><ele>181.75</ele><time>2026-04-25T09:37:05.944Z</time></trkpt><trkpt lat="43.495967" lon="11.6988757"><ele>181.0</ele><time>2026-04-25T09:37:06.96Z</time></trkpt><trkpt lat="43.4960797" lon="11.6989893"><ele>181.0</ele><time>2026-04-25T09:37:07.96Z</time></trkpt><trkpt lat="43.4961949" lon="11.6991006"><ele>181.0</ele><time>2026-04-25T09:37:08.955Z</time></trkpt><trkpt lat="43.4963081" lon="11.6992138"><ele>181.0</ele><time>2026-04-25T09:37:09.956Z</time></trkpt><trkpt lat="43.4964066" lon="11.6993189"><ele>181.0</ele><time>2026-04-25T09:37:10.942Z</time></trkpt><trkpt lat="43.4964933" lon="11.6994167"><ele>179.60000000000002</ele><time>2026-04-25T09:37:11.963Z</time></trkpt><trkpt lat="43.4965741" lon="11.6994968"><ele>178.2</ele><time>2026-04-25T09:37:12.949Z</time></trkpt><trkpt lat="43.4966421" lon="11.6995685"><ele>176.8</ele><time>2026-04-25T09:37:13.963Z</time></trkpt><trkpt lat="43.4967291" lon="11.699651"><ele>175.39999999999998</ele><time>2026-04-25T09:37:15.952Z</time></trkpt><trkpt lat="43.4968191" lon="11.6996087"><ele>174.0</ele><time>2026-04-25T09:37:17.954Z</time></trkpt><trkpt lat="43.4968682" lon="11.6995492"><ele>174.0</ele><time>2026-04-25T09:37:18.95Z</time></trkpt><trkpt lat="43.4969194" lon="11.6994929"><ele>174.0</ele><time>2026-04-25T09:37:19.933Z</time></trkpt><trkpt lat="43.4969979" lon="11.6994207"><ele>174.0</ele><time>2026-04-25T09:37:21.951Z</time></trkpt><trkpt lat="43.4970852" lon="11.6994698"><ele>174.0</ele><time>2026-04-25T09:37:24.95Z</time></trkpt><trkpt lat="43.4971559" lon="11.6996418"><ele>174.0</ele><time>2026-04-25T09:37:26.934Z</time></trkpt><trkpt lat="43.4972004" lon="11.6997788"><ele>173.75</ele><time>2026-04-25T09:37:27.934Z</time></trkpt><trkpt lat="43.4972456" lon="11.6999427"><ele>173.5</ele><time>2026-04-25T09:37:28.943Z</time></trkpt><trkpt lat="43.4972988" lon="11.7001046"><ele>173.25</ele><time>2026-04-25T09:37:29.939Z</time></trkpt><trkpt lat="43.4973571" lon="11.7002808"><ele>173.0</ele><time>2026-04-25T09:37:30.948Z</time></trkpt><trkpt lat="43.4974102" lon="11.7004708"><ele>173.0</ele><time>2026-04-25T09:37:31.939Z</time></trkpt><trkpt lat="43.497469" lon="11.7006653"><ele>173.0</ele><time>2026-04-25T09:37:32.954Z</time></trkpt><trkpt lat="43.4975287" lon="11.7008569"><ele>173.0</ele><time>2026-04-25T09:37:33.944Z</time></trkpt><trkpt lat="43.4975791" lon="11.7010373"><ele>173.0</ele><time>2026-04-25T09:37:34.941Z</time></trkpt><trkpt lat="43.497623" lon="11.7012138"><ele>173.0</ele><time>2026-04-25T09:37:35.949Z</time></trkpt><trkpt lat="43.497669" lon="11.7013858"><ele>173.0</ele><time>2026-04-25T09:37:36.945Z</time></trkpt><trkpt lat="43.4977208" lon="11.7015489"><ele>173.0</ele><time>2026-04-25T09:37:37.957Z</time></trkpt><trkpt lat="43.4977694" lon="11.7017149"><ele>173.0</ele><time>2026-04-25T09:37:38.951Z</time></trkpt><trkpt lat="43.4978179" lon="11.7018748"><ele>173.0</ele><time>2026-04-25T09:37:39.944Z</time></trkpt><trkpt lat="43.497864" lon="11.7020419"><ele>173.0</ele><time>2026-04-25T09:37:40.947Z</time></trkpt><trkpt lat="43.4979105" lon="11.7022018"><ele>173.0</ele><time>2026-04-25T09:37:41.977Z</time></trkpt><trkpt lat="43.4979575" lon="11.7023634"><ele>173.0</ele><time>2026-04-25T09:37:42.951Z</time></trkpt><trkpt lat="43.4980017" lon="11.7025142"><ele>172.83333333333331</ele><time>2026-04-25T09:37:43.95Z</time></trkpt><trkpt lat="43.4980408" lon="11.7026536"><ele>172.66666666666666</ele><time>2026-04-25T09:37:44.973Z</time></trkpt><trkpt lat="43.4980781" lon="11.702756"><ele>172.5</ele><time>2026-04-25T09:37:45.948Z</time></trkpt><trkpt lat="43.4981289" lon="11.7028284"><ele>172.33333333333334</ele><time>2026-04-25T09:37:46.952Z</time></trkpt><trkpt lat="43.4981955" lon="11.7028793"><ele>172.16666666666669</ele><time>2026-04-25T09:37:47.95Z</time></trkpt><trkpt lat="43.49828" lon="11.7028995"><ele>172.0</ele><time>2026-04-25T09:37:48.954Z</time></trkpt><trkpt lat="43.4983778" lon="11.702886"><ele>172.0</ele><time>2026-04-25T09:37:49.956Z</time></trkpt><trkpt lat="43.498499" lon="11.7028566"><ele>172.0</ele><time>2026-04-25T09:37:50.955Z</time></trkpt><trkpt lat="43.4986291" lon="11.7028354"><ele>172.0</ele><time>2026-04-25T09:37:51.943Z</time></trkpt><trkpt lat="43.4987568" lon="11.7028143"><ele>172.0</ele><time>2026-04-25T09:37:52.946Z</time></trkpt><trkpt lat="43.4988899" lon="11.7027942"><ele>172.16666666666669</ele><time>2026-04-25T09:37:53.951Z</time></trkpt><trkpt lat="43.4990097" lon="11.702779"><ele>172.33333333333334</ele><time>2026-04-25T09:37:54.949Z</time></trkpt><trkpt lat="43.499115" lon="11.7027591"><ele>172.5</ele><time>2026-04-25T09:37:55.95Z</time></trkpt><trkpt lat="43.499198" lon="11.7027582"><ele>172.66666666666666</ele><time>2026-04-25T09:37:56.941Z</time></trkpt><trkpt lat="43.4992658" lon="11.702777"><ele>172.83333333333331</ele><time>2026-04-25T09:37:57.941Z</time></trkpt><trkpt lat="43.4993193" lon="11.7028337"><ele>173.0</ele><time>2026-04-25T09:37:58.947Z</time></trkpt><trkpt lat="43.4993534" lon="11.7029123"><ele>173.0</ele><time>2026-04-25T09:37:59.942Z</time></trkpt><trkpt lat="43.4993616" lon="11.7030155"><ele>173.0</ele><time>2026-04-25T09:38:00.948Z</time></trkpt><trkpt lat="43.4993603" lon="11.703135"><ele>173.0</ele><time>2026-04-25T09:38:01.95Z</time></trkpt><trkpt lat="43.4993615" lon="11.7032937"><ele>173.0</ele><time>2026-04-25T09:38:02.949Z</time></trkpt><trkpt lat="43.4993512" lon="11.70345"><ele>173.0</ele><time>2026-04-25T09:38:03.938Z</time></trkpt><trkpt lat="43.4993525" lon="11.7036047"><ele>173.5</ele><time>2026-04-25T09:38:04.945Z</time></trkpt><trkpt lat="43.4993495" lon="11.7037553"><ele>174.0</ele><time>2026-04-25T09:38:05.948Z</time></trkpt><trkpt lat="43.4993404" lon="11.7039259"><ele>174.5</ele><time>2026-04-25T09:38:06.952Z</time></trkpt><trkpt lat="43.4993213" lon="11.7041081"><ele>175.0</ele><time>2026-04-25T09:38:07.95Z</time></trkpt><trkpt lat="43.4993108" lon="11.7042913"><ele>175.25</ele><time>2026-04-25T09:38:08.946Z</time></trkpt><trkpt lat="43.4992977" lon="11.7044772"><ele>175.5</ele><time>2026-04-25T09:38:09.957Z</time></trkpt><trkpt lat="43.4992813" lon="11.7046685"><ele>175.75</ele><time>2026-04-25T09:38:10.943Z</time></trkpt><trkpt lat="43.4992664" lon="11.7048496"><ele>176.0</ele><time>2026-04-25T09:38:11.947Z</time></trkpt><trkpt lat="43.4992427" lon="11.705048"><ele>175.0</ele><time>2026-04-25T09:38:12.949Z</time></trkpt><trkpt lat="43.4992258" lon="11.7052647"><ele>174.0</ele><time>2026-04-25T09:38:13.955Z</time></trkpt><trkpt lat="43.4992192" lon="11.7054853"><ele>173.0</ele><time>2026-04-25T09:38:14.95Z</time></trkpt><trkpt lat="43.4992065" lon="11.7057299"><ele>173.0</ele><time>2026-04-25T09:38:15.938Z</time></trkpt><trkpt lat="43.4991904" lon="11.706002"><ele>173.0</ele><time>2026-04-25T09:38:16.954Z</time></trkpt><trkpt lat="43.4991701" lon="11.7062741"><ele>173.0</ele><time>2026-04-25T09:38:17.951Z</time></trkpt><trkpt lat="43.4991532" lon="11.7065196"><ele>173.0</ele><time>2026-04-25T09:38:18.948Z</time></trkpt><trkpt lat="43.4991404" lon="11.7067613"><ele>173.0</ele><time>2026-04-25T09:38:19.943Z</time></trkpt><trkpt lat="43.4991251" lon="11.7070029"><ele>173.0</ele><time>2026-04-25T09:38:20.948Z</time></trkpt><trkpt lat="43.4991072" lon="11.7072529"><ele>173.0</ele><time>2026-04-25T09:38:21.952Z</time></trkpt><trkpt lat="43.499089" lon="11.7075077"><ele>173.0</ele><time>2026-04-25T09:38:22.943Z</time></trkpt><trkpt lat="43.4990669" lon="11.7077547"><ele>173.0</ele><time>2026-04-25T09:38:23.946Z</time></trkpt><trkpt lat="43.4990503" lon="11.7079994"><ele>173.0</ele><time>2026-04-25T09:38:24.953Z</time></trkpt><trkpt lat="43.4990398" lon="11.7082139"><ele>173.0</ele><time>2026-04-25T09:38:25.952Z</time></trkpt><trkpt lat="43.4990298" lon="11.7084064"><ele>173.0</ele><time>2026-04-25T09:38:26.944Z</time></trkpt><trkpt lat="43.4990143" lon="11.7085912"><ele>173.0</ele><time>2026-04-25T09:38:27.948Z</time></trkpt><trkpt lat="43.4990047" lon="11.7087614"><ele>173.0</ele><time>2026-04-25T09:38:28.956Z</time></trkpt><trkpt lat="43.4989949" lon="11.7089076"><ele>173.0</ele><time>2026-04-25T09:38:29.961Z</time></trkpt><trkpt lat="43.4989857" lon="11.7090395"><ele>173.0</ele><time>2026-04-25T09:38:30.953Z</time></trkpt><trkpt lat="43.49898" lon="11.709153"><ele>173.0</ele><time>2026-04-25T09:38:31.95Z</time></trkpt><trkpt lat="43.4989793" lon="11.7092449"><ele>173.0</ele><time>2026-04-25T09:38:32.955Z</time></trkpt><trkpt lat="43.4989681" lon="11.7094224"><ele>173.0</ele><time>2026-04-25T09:38:34.958Z</time></trkpt><trkpt lat="43.49895" lon="11.7095343"><ele>173.0</ele><time>2026-04-25T09:38:35.951Z</time></trkpt><trkpt lat="43.4989334" lon="11.7096642"><ele>173.0</ele><time>2026-04-25T09:38:36.949Z</time></trkpt><trkpt lat="43.4989045" lon="11.7097756"><ele>173.0</ele><time>2026-04-25T09:38:37.955Z</time></trkpt><trkpt lat="43.4988586" lon="11.7098794"><ele>173.0</ele><time>2026-04-25T09:38:38.95Z</time></trkpt><trkpt lat="43.4987965" lon="11.7099701"><ele>173.0</ele><time>2026-04-25T09:38:39.944Z</time></trkpt><trkpt lat="43.4987119" lon="11.7100536"><ele>173.0</ele><time>2026-04-25T09:38:40.944Z</time></trkpt><trkpt lat="43.4986399" lon="11.7101106"><ele>173.0</ele><time>2026-04-25T09:38:41.943Z</time></trkpt><trkpt lat="43.4985817" lon="11.7101755"><ele>173.0</ele><time>2026-04-25T09:38:42.938Z</time></trkpt><trkpt lat="43.4985833" lon="11.7103049"><ele>173.0</ele><time>2026-04-25T09:38:44.944Z</time></trkpt><trkpt lat="43.4986393" lon="11.7104367"><ele>173.0</ele><time>2026-04-25T09:38:46.949Z</time></trkpt><trkpt lat="43.4986978" lon="11.7104868"><ele>173.0</ele><time>2026-04-25T09:38:47.935Z</time></trkpt><trkpt lat="43.4987652" lon="11.7105355"><ele>172.66666666666666</ele><time>2026-04-25T09:38:48.949Z</time></trkpt><trkpt lat="43.4988269" lon="11.710606"><ele>172.33333333333331</ele><time>2026-04-25T09:38:49.931Z</time></trkpt><trkpt lat="43.4988638" lon="11.7106908"><ele>172.0</ele><time>2026-04-25T09:38:50.951Z</time></trkpt><trkpt lat="43.4988801" lon="11.7107996"><ele>171.66666666666666</ele><time>2026-04-25T09:38:51.95Z</time></trkpt><trkpt lat="43.4988728" lon="11.7109306"><ele>171.33333333333334</ele><time>2026-04-25T09:38:52.947Z</time></trkpt><trkpt lat="43.4988595" lon="11.7110899"><ele>171.0</ele><time>2026-04-25T09:38:53.933Z</time></trkpt><trkpt lat="43.4988379" lon="11.7112686"><ele>171.0</ele><time>2026-04-25T09:38:54.96Z</time></trkpt><trkpt lat="43.4988235" lon="11.7114516"><ele>171.0</ele><time>2026-04-25T09:38:55.946Z</time></trkpt><trkpt lat="43.4988103" lon="11.7116402"><ele>171.0</ele><time>2026-04-25T09:38:56.958Z</time></trkpt><trkpt lat="43.4987965" lon="11.7118494"><ele>171.0</ele><time>2026-04-25T09:38:57.945Z</time></trkpt><trkpt lat="43.4987776" lon="11.7120569"><ele>171.0</ele><time>2026-04-25T09:38:58.961Z</time></trkpt><trkpt lat="43.4987583" lon="11.7122621"><ele>171.0</ele><time>2026-04-25T09:38:59.951Z</time></trkpt><trkpt lat="43.4987413" lon="11.7124834"><ele>171.0</ele><time>2026-04-25T09:39:00.948Z</time></trkpt><trkpt lat="43.4987208" lon="11.7127066"><ele>171.33333333333334</ele><time>2026-04-25T09:39:01.94Z</time></trkpt><trkpt lat="43.4986995" lon="11.7129517"><ele>171.66666666666669</ele><time>2026-04-25T09:39:02.94Z</time></trkpt><trkpt lat="43.4986763" lon="11.7132065"><ele>172.0</ele><time>2026-04-25T09:39:03.947Z</time></trkpt><trkpt lat="43.498656" lon="11.713473"><ele>172.33333333333334</ele><time>2026-04-25T09:39:04.941Z</time></trkpt><trkpt lat="43.4986364" lon="11.713738"><ele>172.66666666666666</ele><time>2026-04-25T09:39:05.951Z</time></trkpt><trkpt lat="43.4986206" lon="11.7140057"><ele>173.0</ele><time>2026-04-25T09:39:06.941Z</time></trkpt><trkpt lat="43.4986014" lon="11.7142955"><ele>172.0</ele><time>2026-04-25T09:39:07.939Z</time></trkpt><trkpt lat="43.4985794" lon="11.7146055"><ele>171.0</ele><time>2026-04-25T09:39:08.947Z</time></trkpt><trkpt lat="43.4985592" lon="11.7149189"><ele>171.0</ele><time>2026-04-25T09:39:09.945Z</time></trkpt><trkpt lat="43.4985361" lon="11.7152276"><ele>171.0</ele><time>2026-04-25T09:39:10.939Z</time></trkpt><trkpt lat="43.4985073" lon="11.7155073"><ele>171.0</ele><time>2026-04-25T09:39:11.946Z</time></trkpt><trkpt lat="43.4984756" lon="11.7157818"><ele>171.33333333333334</ele><time>2026-04-25T09:39:12.944Z</time></trkpt><trkpt lat="43.4984515" lon="11.7160427"><ele>171.66666666666669</ele><time>2026-04-25T09:39:13.938Z</time></trkpt><trkpt lat="43.4984233" lon="11.7162958"><ele>172.0</ele><time>2026-04-25T09:39:14.941Z</time></trkpt><trkpt lat="43.4983923" lon="11.7165387"><ele>172.33333333333334</ele><time>2026-04-25T09:39:15.944Z</time></trkpt><trkpt lat="43.4983695" lon="11.7167775"><ele>172.66666666666666</ele><time>2026-04-25T09:39:16.952Z</time></trkpt><trkpt lat="43.4983484" lon="11.7170215"><ele>173.0</ele><time>2026-04-25T09:39:17.956Z</time></trkpt><trkpt lat="43.4983254" lon="11.7172722"><ele>173.0</ele><time>2026-04-25T09:39:18.939Z</time></trkpt><trkpt lat="43.4982966" lon="11.7175303"><ele>173.0</ele><time>2026-04-25T09:39:19.945Z</time></trkpt><trkpt lat="43.4982647" lon="11.7177815"><ele>173.0</ele><time>2026-04-25T09:39:20.947Z</time></trkpt><trkpt lat="43.4982276" lon="11.7180204"><ele>172.75</ele><time>2026-04-25T09:39:21.949Z</time></trkpt><trkpt lat="43.4981966" lon="11.718233"><ele>172.5</ele><time>2026-04-25T09:39:22.951Z</time></trkpt><trkpt lat="43.4981695" lon="11.7184346"><ele>172.25</ele><time>2026-04-25T09:39:23.95Z</time></trkpt><trkpt lat="43.4981434" lon="11.7186113"><ele>172.0</ele><time>2026-04-25T09:39:24.949Z</time></trkpt><trkpt lat="43.4981255" lon="11.7187568"><ele>172.0</ele><time>2026-04-25T09:39:25.948Z</time></trkpt><trkpt lat="43.4981104" lon="11.7188615"><ele>172.0</ele><time>2026-04-25T09:39:26.946Z</time></trkpt><trkpt lat="43.4981173" lon="11.7189808"><ele>172.0</ele><time>2026-04-25T09:39:28.954Z</time></trkpt><trkpt lat="43.4982171" lon="11.7190778"><ele>172.0</ele><time>2026-04-25T09:39:31.954Z</time></trkpt><trkpt lat="43.4983164" lon="11.7190919"><ele>172.0</ele><time>2026-04-25T09:39:32.938Z</time></trkpt><trkpt lat="43.4984508" lon="11.7191133"><ele>172.0</ele><time>2026-04-25T09:39:33.95Z</time></trkpt><trkpt lat="43.4985992" lon="11.7191431"><ele>172.0</ele><time>2026-04-25T09:39:34.934Z</time></trkpt><trkpt lat="43.498763" lon="11.7191774"><ele>172.0</ele><time>2026-04-25T09:39:35.945Z</time></trkpt><trkpt lat="43.498919" lon="11.7192116"><ele>172.0</ele><time>2026-04-25T09:39:36.96Z</time></trkpt><trkpt lat="43.499054" lon="11.719244"><ele>172.0</ele><time>2026-04-25T09:39:37.946Z</time></trkpt><trkpt lat="43.4991867" lon="11.7192724"><ele>172.0</ele><time>2026-04-25T09:39:38.938Z</time></trkpt><trkpt lat="43.4993102" lon="11.7192997"><ele>172.0</ele><time>2026-04-25T09:39:39.953Z</time></trkpt><trkpt lat="43.4994212" lon="11.7193172"><ele>172.0</ele><time>2026-04-25T09:39:40.957Z</time></trkpt><trkpt lat="43.4995237" lon="11.7193302"><ele>172.0</ele><time>2026-04-25T09:39:41.947Z</time></trkpt><trkpt lat="43.4996041" lon="11.7193297"><ele>172.0</ele><time>2026-04-25T09:39:42.956Z</time></trkpt><trkpt lat="43.4997032" lon="11.7193605"><ele>172.0</ele><time>2026-04-25T09:39:44.949Z</time></trkpt><trkpt lat="43.4997534" lon="11.7194669"><ele>172.0</ele><time>2026-04-25T09:39:46.946Z</time></trkpt><trkpt lat="43.4997261" lon="11.7196224"><ele>172.2</ele><time>2026-04-25T09:39:48.958Z</time></trkpt><trkpt lat="43.4996989" lon="11.7197238"><ele>172.39999999999998</ele><time>2026-04-25T09:39:49.949Z</time></trkpt><trkpt lat="43.4996772" lon="11.7198669"><ele>172.60000000000002</ele><time>2026-04-25T09:39:50.95Z</time></trkpt><trkpt lat="43.4996395" lon="11.7200021"><ele>172.8</ele><time>2026-04-25T09:39:51.949Z</time></trkpt><trkpt lat="43.499604" lon="11.7201525"><ele>173.0</ele><time>2026-04-25T09:39:52.946Z</time></trkpt><trkpt lat="43.4995569" lon="11.7203026"><ele>173.0</ele><time>2026-04-25T09:39:53.946Z</time></trkpt><trkpt lat="43.4995236" lon="11.7204665"><ele>173.0</ele><time>2026-04-25T09:39:54.949Z</time></trkpt><trkpt lat="43.4995048" lon="11.7206508"><ele>173.0</ele><time>2026-04-25T09:39:55.96Z</time></trkpt><trkpt lat="43.4994785" lon="11.720856"><ele>173.0</ele><time>2026-04-25T09:39:56.951Z</time></trkpt><trkpt lat="43.4994603" lon="11.7210818"><ele>173.0</ele><time>2026-04-25T09:39:57.939Z</time></trkpt><trkpt lat="43.499436" lon="11.721292"><ele>173.0</ele><time>2026-04-25T09:39:58.953Z</time></trkpt><trkpt lat="43.4994108" lon="11.7214788"><ele>173.0</ele><time>2026-04-25T09:39:59.943Z</time></trkpt><trkpt lat="43.4993949" lon="11.7216359"><ele>173.0</ele><time>2026-04-25T09:40:00.95Z</time></trkpt><trkpt lat="43.49938" lon="11.7217759"><ele>173.33333333333331</ele><time>2026-04-25T09:40:01.944Z</time></trkpt><trkpt lat="43.4993714" lon="11.7219006"><ele>173.66666666666666</ele><time>2026-04-25T09:40:02.944Z</time></trkpt><trkpt lat="43.499366" lon="11.7220113"><ele>174.0</ele><time>2026-04-25T09:40:03.94Z</time></trkpt><trkpt lat="43.4993562" lon="11.72211"><ele>174.33333333333334</ele><time>2026-04-25T09:40:04.948Z</time></trkpt><trkpt lat="43.4993665" lon="11.722205"><ele>174.66666666666669</ele><time>2026-04-25T09:40:05.933Z</time></trkpt><trkpt lat="43.4994104" lon="11.7222985"><ele>175.0</ele><time>2026-04-25T09:40:06.937Z</time></trkpt><trkpt lat="43.4994794" lon="11.7223918"><ele>175.0</ele><time>2026-04-25T09:40:07.951Z</time></trkpt><trkpt lat="43.4995631" lon="11.7224755"><ele>175.0</ele><time>2026-04-25T09:40:08.942Z</time></trkpt><trkpt lat="43.4996444" lon="11.722559"><ele>175.0</ele><time>2026-04-25T09:40:09.942Z</time></trkpt><trkpt lat="43.4997326" lon="11.7226493"><ele>175.0</ele><time>2026-04-25T09:40:10.95Z</time></trkpt><trkpt lat="43.4998175" lon="11.7227484"><ele>175.0</ele><time>2026-04-25T09:40:11.948Z</time></trkpt><trkpt lat="43.4999041" lon="11.7228517"><ele>175.6</ele><time>2026-04-25T09:40:12.968Z</time></trkpt><trkpt lat="43.499991" lon="11.7229552"><ele>176.2</ele><time>2026-04-25T09:40:13.94Z</time></trkpt><trkpt lat="43.5000749" lon="11.7230677"><ele>176.8</ele><time>2026-04-25T09:40:14.949Z</time></trkpt><trkpt lat="43.5001473" lon="11.7231861"><ele>177.4</ele><time>2026-04-25T09:40:15.956Z</time></trkpt><trkpt lat="43.5001934" lon="11.7233148"><ele>178.0</ele><time>2026-04-25T09:40:16.947Z</time></trkpt><trkpt lat="43.5002205" lon="11.7234572"><ele>178.0</ele><time>2026-04-25T09:40:17.953Z</time></trkpt><trkpt lat="43.5002345" lon="11.7236087"><ele>178.0</ele><time>2026-04-25T09:40:18.952Z</time></trkpt><trkpt lat="43.5002487" lon="11.723773"><ele>178.0</ele><time>2026-04-25T09:40:19.942Z</time></trkpt><trkpt lat="43.5002601" lon="11.7239397"><ele>178.0</ele><time>2026-04-25T09:40:20.954Z</time></trkpt><trkpt lat="43.500269" lon="11.7241075"><ele>178.0</ele><time>2026-04-25T09:40:21.948Z</time></trkpt><trkpt lat="43.5002789" lon="11.7242707"><ele>178.0</ele><time>2026-04-25T09:40:22.943Z</time></trkpt><trkpt lat="43.5002883" lon="11.7243925"><ele>178.0</ele><time>2026-04-25T09:40:23.953Z</time></trkpt><trkpt lat="43.5003032" lon="11.7245293"><ele>178.0</ele><time>2026-04-25T09:40:25.956Z</time></trkpt><trkpt lat="43.5003203" lon="11.724692"><ele>178.0</ele><time>2026-04-25T09:40:27.947Z</time></trkpt><trkpt lat="43.5003334" lon="11.7248144"><ele>178.0</ele><time>2026-04-25T09:40:28.94Z</time></trkpt><trkpt lat="43.5003538" lon="11.7249461"><ele>178.0</ele><time>2026-04-25T09:40:29.94Z</time></trkpt><trkpt lat="43.5003807" lon="11.7250765"><ele>178.0</ele><time>2026-04-25T09:40:30.96Z</time></trkpt><trkpt lat="43.5004192" lon="11.7252069"><ele>178.0</ele><time>2026-04-25T09:40:31.943Z</time></trkpt><trkpt lat="43.5004669" lon="11.7253526"><ele>178.0</ele><time>2026-04-25T09:40:32.948Z</time></trkpt><trkpt lat="43.5005325" lon="11.7255526"><ele>179.0</ele><time>2026-04-25T09:40:33.94Z</time></trkpt><trkpt lat="43.5006029" lon="11.7257746"><ele>180.0</ele><time>2026-04-25T09:40:34.945Z</time></trkpt><trkpt lat="43.5006683" lon="11.7259763"><ele>181.0</ele><time>2026-04-25T09:40:35.945Z</time></trkpt><trkpt lat="43.5007254" lon="11.726148"><ele>182.25</ele><time>2026-04-25T09:40:36.956Z</time></trkpt><trkpt lat="43.5007812" lon="11.7263151"><ele>183.5</ele><time>2026-04-25T09:40:37.947Z</time></trkpt><trkpt lat="43.5008327" lon="11.7264715"><ele>184.75</ele><time>2026-04-25T09:40:38.942Z</time></trkpt><trkpt lat="43.500871" lon="11.7266171"><ele>186.0</ele><time>2026-04-25T09:40:39.946Z</time></trkpt><trkpt lat="43.5008961" lon="11.7267304"><ele>186.00000000000003</ele><time>2026-04-25T09:40:40.955Z</time></trkpt><trkpt lat="43.5009145" lon="11.7268352"><ele>186.0</ele><time>2026-04-25T09:40:41.949Z</time></trkpt><trkpt lat="43.5009241" lon="11.726939"><ele>186.0</ele><time>2026-04-25T09:40:42.949Z</time></trkpt><trkpt lat="43.5009415" lon="11.7270253"><ele>186.0</ele><time>2026-04-25T09:40:43.949Z</time></trkpt><trkpt lat="43.5010003" lon="11.7270737"><ele>186.0</ele><time>2026-04-25T09:40:45.941Z</time></trkpt><trkpt lat="43.5009447" lon="11.7271311"><ele>186.00000000000003</ele><time>2026-04-25T09:42:35.946Z</time></trkpt><trkpt lat="43.5008942" lon="11.7271881"><ele>186.0</ele><time>2026-04-25T09:42:37.943Z</time></trkpt><trkpt lat="43.5008305" lon="11.7272288"><ele>187.5</ele><time>2026-04-25T09:42:39.945Z</time></trkpt><trkpt lat="43.5007468" lon="11.7272874"><ele>189.0</ele><time>2026-04-25T09:42:41.958Z</time></trkpt><trkpt lat="43.500659" lon="11.7273389"><ele>190.5</ele><time>2026-04-25T09:42:43.951Z</time></trkpt><trkpt lat="43.500565" lon="11.727416"><ele>192.0</ele><time>2026-04-25T09:42:45.946Z</time></trkpt><trkpt lat="43.5005208" lon="11.7274901"><ele>193.5</ele><time>2026-04-25T09:42:46.939Z</time></trkpt><trkpt lat="43.500468" lon="11.7275685"><ele>195.0</ele><time>2026-04-25T09:42:47.937Z</time></trkpt><trkpt lat="43.5004175" lon="11.7276536"><ele>195.16666666666666</ele><time>2026-04-25T09:42:48.953Z</time></trkpt><trkpt lat="43.5003685" lon="11.7277226"><ele>195.33333333333331</ele><time>2026-04-25T09:42:49.943Z</time></trkpt><trkpt lat="43.5003208" lon="11.7277842"><ele>195.5</ele><time>2026-04-25T09:42:50.944Z</time></trkpt><trkpt lat="43.5002706" lon="11.7278436"><ele>195.66666666666666</ele><time>2026-04-25T09:42:51.949Z</time></trkpt><trkpt lat="43.5001749" lon="11.7279826"><ele>195.83333333333331</ele><time>2026-04-25T09:42:53.946Z</time></trkpt><trkpt lat="43.5001282" lon="11.7280562"><ele>196.0</ele><time>2026-04-25T09:42:54.956Z</time></trkpt><trkpt lat="43.5000685" lon="11.7281764"><ele>196.0</ele><time>2026-04-25T09:42:56.938Z</time></trkpt><trkpt lat="43.5000276" lon="11.728326"><ele>196.0</ele><time>2026-04-25T09:42:58.942Z</time></trkpt><trkpt lat="43.5000087" lon="11.7284717"><ele>196.0</ele><time>2026-04-25T09:43:00.958Z</time></trkpt><trkpt lat="43.5000073" lon="11.7285602"><ele>196.0</ele><time>2026-04-25T09:43:01.941Z</time></trkpt><trkpt lat="43.5000126" lon="11.7287187"><ele>196.0</ele><time>2026-04-25T09:43:03.944Z</time></trkpt><trkpt lat="43.5000517" lon="11.7289005"><ele>196.33333333333331</ele><time>2026-04-25T09:43:05.956Z</time></trkpt><trkpt lat="43.5000791" lon="11.7290052"><ele>196.66666666666666</ele><time>2026-04-25T09:43:06.944Z</time></trkpt><trkpt lat="43.5000983" lon="11.7290908"><ele>197.0</ele><time>2026-04-25T09:43:07.948Z</time></trkpt><trkpt lat="43.5001194" lon="11.7292108"><ele>197.33333333333331</ele><time>2026-04-25T09:43:09.94Z</time></trkpt><trkpt lat="43.5001444" lon="11.7293013"><ele>197.66666666666666</ele><time>2026-04-25T09:43:24.942Z</time></trkpt><trkpt lat="43.5001815" lon="11.7293874"><ele>198.0</ele><time>2026-04-25T09:43:26.945Z</time></trkpt><trkpt lat="43.5002227" lon="11.7295161"><ele>198.16666666666666</ele><time>2026-04-25T09:43:28.942Z</time></trkpt><trkpt lat="43.5002669" lon="11.729582"><ele>198.33333333333331</ele><time>2026-04-25T09:43:30.96Z</time></trkpt><trkpt lat="43.5003118" lon="11.7296472"><ele>198.5</ele><time>2026-04-25T09:43:33.95Z</time></trkpt><trkpt lat="43.5003636" lon="11.7297197"><ele>198.66666666666666</ele><time>2026-04-25T09:43:39.946Z</time></trkpt><trkpt lat="43.5004256" lon="11.7298071"><ele>198.83333333333331</ele><time>2026-04-25T09:43:41.948Z</time></trkpt><trkpt lat="43.5004957" lon="11.7298837"><ele>199.0</ele><time>2026-04-25T09:43:44.935Z</time></trkpt><trkpt lat="43.5005714" lon="11.729964"><ele>201.16666666666666</ele><time>2026-04-25T09:43:46.937Z</time></trkpt><trkpt lat="43.5006343" lon="11.7300246"><ele>203.33333333333331</ele><time>2026-04-25T09:43:48.947Z</time></trkpt><trkpt lat="43.5006988" lon="11.730084"><ele>205.5</ele><time>2026-04-25T09:43:51.944Z</time></trkpt><trkpt lat="43.5006256" lon="11.7300047"><ele>207.66666666666669</ele><time>2026-04-25T09:44:30.934Z</time></trkpt><trkpt lat="43.5005432" lon="11.7299371"><ele>209.83333333333334</ele><time>2026-04-25T09:44:33.941Z</time></trkpt><trkpt lat="43.5004901" lon="11.7298761"><ele>212.0</ele><time>2026-04-25T09:44:35.941Z</time></trkpt><trkpt lat="43.5004323" lon="11.7298012"><ele>209.83333333333334</ele><time>2026-04-25T09:44:37.935Z</time></trkpt><trkpt lat="43.5003671" lon="11.7297234"><ele>207.66666666666669</ele><time>2026-04-25T09:44:39.94Z</time></trkpt><trkpt lat="43.5003096" lon="11.7296148"><ele>205.5</ele><time>2026-04-25T09:44:41.938Z</time></trkpt><trkpt lat="43.5002616" lon="11.7295475"><ele>203.33333333333331</ele><time>2026-04-25T09:44:43.937Z</time></trkpt><trkpt lat="43.5002239" lon="11.7294568"><ele>201.16666666666666</ele><time>2026-04-25T09:44:45.938Z</time></trkpt><trkpt lat="43.5001846" lon="11.729357"><ele>199.0</ele><time>2026-04-25T09:44:47.946Z</time></trkpt><trkpt lat="43.500126" lon="11.7292922"><ele>199.0</ele><time>2026-04-25T09:44:50.939Z</time></trkpt><trkpt lat="43.5000639" lon="11.7293175"><ele>199.0</ele><time>2026-04-25T09:44:52.939Z</time></trkpt><trkpt lat="43.4999807" lon="11.7293907"><ele>199.0</ele><time>2026-04-25T09:44:54.942Z</time></trkpt><trkpt lat="43.4998782" lon="11.7294522"><ele>199.0</ele><time>2026-04-25T09:44:56.94Z</time></trkpt><trkpt lat="43.4997627" lon="11.7295189"><ele>199.0</ele><time>2026-04-25T09:44:58.942Z</time></trkpt><trkpt lat="43.4996955" lon="11.7295554"><ele>199.0</ele><time>2026-04-25T09:44:59.943Z</time></trkpt><trkpt lat="43.4995872" lon="11.7296184"><ele>199.0</ele><time>2026-04-25T09:45:01.945Z</time></trkpt><trkpt lat="43.4994993" lon="11.7296673"><ele>199.0</ele><time>2026-04-25T09:45:03.942Z</time></trkpt><trkpt lat="43.4994054" lon="11.729706"><ele>199.0</ele><time>2026-04-25T09:45:05.951Z</time></trkpt><trkpt lat="43.4993306" lon="11.7297548"><ele>199.0</ele><time>2026-04-25T09:45:07.951Z</time></trkpt><trkpt lat="43.4992606" lon="11.7298227"><ele>197.99999999999997</ele><time>2026-04-25T09:45:09.948Z</time></trkpt><trkpt lat="43.4992085" lon="11.729874"><ele>197.0</ele><time>2026-04-25T09:45:11.953Z</time></trkpt><trkpt lat="43.4991616" lon="11.7299526"><ele>196.0</ele><time>2026-04-25T09:45:59.944Z</time></trkpt><trkpt lat="43.4991632" lon="11.7300534"><ele>195.0</ele><time>2026-04-25T09:50:49.943Z</time></trkpt><trkpt lat="43.499154" lon="11.7301872"><ele>193.99999999999997</ele><time>2026-04-25T09:50:51.935Z</time></trkpt><trkpt lat="43.4991309" lon="11.7303085"><ele>193.0</ele><time>2026-04-25T09:50:53.941Z</time></trkpt><trkpt lat="43.4990927" lon="11.7304306"><ele>193.0</ele><time>2026-04-25T09:50:55.931Z</time></trkpt><trkpt lat="43.4990328" lon="11.7305728"><ele>193.0</ele><time>2026-04-25T09:50:57.932Z</time></trkpt><trkpt lat="43.4990043" lon="11.7306511"><ele>193.0</ele><time>2026-04-25T09:50:58.93Z</time></trkpt><trkpt lat="43.4989791" lon="11.7307353"><ele>193.0</ele><time>2026-04-25T09:50:59.929Z</time></trkpt><trkpt lat="43.4989456" lon="11.7308819"><ele>193.0</ele><time>2026-04-25T09:51:01.936Z</time></trkpt><trkpt lat="43.4989207" lon="11.7310083"><ele>191.83333333333331</ele><time>2026-04-25T09:51:03.951Z</time></trkpt><trkpt lat="43.498899" lon="11.7311366"><ele>190.66666666666666</ele><time>2026-04-25T09:51:05.947Z</time></trkpt><trkpt lat="43.4988626" lon="11.7312562"><ele>189.5</ele><time>2026-04-25T09:51:07.934Z</time></trkpt><trkpt lat="43.4988336" lon="11.7313341"><ele>188.33333333333331</ele><time>2026-04-25T09:51:09.938Z</time></trkpt><trkpt lat="43.4987969" lon="11.7314103"><ele>187.16666666666666</ele><time>2026-04-25T09:51:11.946Z</time></trkpt><trkpt lat="43.4987477" lon="11.7314823"><ele>186.0</ele><time>2026-04-25T09:51:13.937Z</time></trkpt><trkpt lat="43.498741" lon="11.7315885"><ele>186.00000000000003</ele><time>2026-04-25T09:51:16.94Z</time></trkpt><trkpt lat="43.4987861" lon="11.7316772"><ele>186.0</ele><time>2026-04-25T09:51:19.946Z</time></trkpt><trkpt lat="43.498833" lon="11.731736"><ele>186.0</ele><time>2026-04-25T09:51:21.935Z</time></trkpt><trkpt lat="43.4988852" lon="11.7318034"><ele>186.0</ele><time>2026-04-25T09:51:24.952Z</time></trkpt><trkpt lat="43.4989587" lon="11.7318407"><ele>186.0</ele><time>2026-04-25T09:51:27.93Z</time></trkpt><trkpt lat="43.499019" lon="11.7318781"><ele>186.00000000000003</ele><time>2026-04-25T09:51:30.946Z</time></trkpt><trkpt lat="43.4989614" lon="11.7318375"><ele>186.0</ele><time>2026-04-25T09:52:01.951Z</time></trkpt><trkpt lat="43.4989047" lon="11.7317946"><ele>186.0</ele><time>2026-04-25T09:52:03.927Z</time></trkpt><trkpt lat="43.4988198" lon="11.7317123"><ele>186.0</ele><time>2026-04-25T09:52:05.951Z</time></trkpt><trkpt lat="43.4987398" lon="11.7316082"><ele>186.0</ele><time>2026-04-25T09:52:07.944Z</time></trkpt><trkpt lat="43.4987095" lon="11.7315289"><ele>186.0</ele><time>2026-04-25T09:52:09.94Z</time></trkpt><trkpt lat="43.4987236" lon="11.7314418"><ele>186.0</ele><time>2026-04-25T09:52:11.952Z</time></trkpt><trkpt lat="43.4987652" lon="11.7313647"><ele>186.0</ele><time>2026-04-25T09:52:13.948Z</time></trkpt><trkpt lat="43.4988334" lon="11.7312689"><ele>186.0</ele><time>2026-04-25T09:52:15.947Z</time></trkpt><trkpt lat="43.4988859" lon="11.7311157"><ele>186.0</ele><time>2026-04-25T09:52:17.939Z</time></trkpt><trkpt lat="43.498905" lon="11.7310285"><ele>186.0</ele><time>2026-04-25T09:52:18.933Z</time></trkpt><trkpt lat="43.4989246" lon="11.7309334"><ele>186.0</ele><time>2026-04-25T09:52:19.945Z</time></trkpt><trkpt lat="43.4989458" lon="11.7308378"><ele>186.0</ele><time>2026-04-25T09:52:20.941Z</time></trkpt><trkpt lat="43.4989703" lon="11.7307389"><ele>186.0</ele><time>2026-04-25T09:52:21.95Z</time></trkpt><trkpt lat="43.4990011" lon="11.7306422"><ele>187.4</ele><time>2026-04-25T09:52:22.942Z</time></trkpt><trkpt lat="43.4990339" lon="11.7305388"><ele>188.8</ele><time>2026-04-25T09:52:23.942Z</time></trkpt><trkpt lat="43.499066" lon="11.7304554"><ele>190.20000000000002</ele><time>2026-04-25T09:52:24.944Z</time></trkpt><trkpt lat="43.4991088" lon="11.7303034"><ele>191.60000000000002</ele><time>2026-04-25T09:52:26.937Z</time></trkpt><trkpt lat="43.4991275" lon="11.7301701"><ele>193.0</ele><time>2026-04-25T09:52:28.954Z</time></trkpt><trkpt lat="43.4991391" lon="11.730029"><ele>193.0</ele><time>2026-04-25T09:52:30.94Z</time></trkpt><trkpt lat="43.4991408" lon="11.7298479"><ele>193.0</ele><time>2026-04-25T09:52:32.944Z</time></trkpt><trkpt lat="43.4991234" lon="11.7297402"><ele>193.0</ele><time>2026-04-25T09:52:33.953Z</time></trkpt><trkpt lat="43.4991018" lon="11.729633"><ele>193.0</ele><time>2026-04-25T09:52:34.942Z</time></trkpt><trkpt lat="43.4990785" lon="11.7295139"><ele>193.0</ele><time>2026-04-25T09:52:35.94Z</time></trkpt><trkpt lat="43.4990578" lon="11.7293978"><ele>192.16666666666666</ele><time>2026-04-25T09:52:36.943Z</time></trkpt><trkpt lat="43.4990442" lon="11.7292888"><ele>191.33333333333331</ele><time>2026-04-25T09:52:37.939Z</time></trkpt><trkpt lat="43.4990355" lon="11.7291857"><ele>190.5</ele><time>2026-04-25T09:52:38.936Z</time></trkpt><trkpt lat="43.49903" lon="11.7290874"><ele>189.66666666666666</ele><time>2026-04-25T09:52:39.94Z</time></trkpt><trkpt lat="43.4990179" lon="11.7289942"><ele>188.83333333333331</ele><time>2026-04-25T09:52:40.937Z</time></trkpt><trkpt lat="43.4990059" lon="11.7289069"><ele>188.0</ele><time>2026-04-25T09:52:41.958Z</time></trkpt><trkpt lat="43.4989883" lon="11.7287452"><ele>188.0</ele><time>2026-04-25T09:52:43.934Z</time></trkpt><trkpt lat="43.4989694" lon="11.7286123"><ele>188.0</ele><time>2026-04-25T09:52:45.943Z</time></trkpt><trkpt lat="43.4989438" lon="11.7285192"><ele>188.0</ele><time>2026-04-25T09:52:47.939Z</time></trkpt><trkpt lat="43.4989119" lon="11.7284049"><ele>188.0</ele><time>2026-04-25T09:52:49.931Z</time></trkpt><trkpt lat="43.4988822" lon="11.7282954"><ele>188.0</ele><time>2026-04-25T09:52:51.947Z</time></trkpt><trkpt lat="43.4988603" lon="11.7281473"><ele>187.85714285714286</ele><time>2026-04-25T09:52:53.931Z</time></trkpt><trkpt lat="43.4988477" lon="11.7280555"><ele>187.71428571428572</ele><time>2026-04-25T09:52:54.932Z</time></trkpt><trkpt lat="43.49884" lon="11.7279677"><ele>187.57142857142856</ele><time>2026-04-25T09:52:55.939Z</time></trkpt><trkpt lat="43.4988394" lon="11.7278729"><ele>187.42857142857144</ele><time>2026-04-25T09:52:56.936Z</time></trkpt><trkpt lat="43.4988264" lon="11.7277726"><ele>187.2857142857143</ele><time>2026-04-25T09:52:57.942Z</time></trkpt><trkpt lat="43.4988146" lon="11.7276546"><ele>187.14285714285714</ele><time>2026-04-25T09:52:58.937Z</time></trkpt><trkpt lat="43.4988122" lon="11.7275394"><ele>187.0</ele><time>2026-04-25T09:52:59.933Z</time></trkpt><trkpt lat="43.4987926" lon="11.7274204"><ele>185.83333333333334</ele><time>2026-04-25T09:53:00.951Z</time></trkpt><trkpt lat="43.4987815" lon="11.7273201"><ele>184.66666666666669</ele><time>2026-04-25T09:53:01.941Z</time></trkpt><trkpt lat="43.4987698" lon="11.7272207"><ele>183.5</ele><time>2026-04-25T09:53:02.943Z</time></trkpt><trkpt lat="43.4987608" lon="11.7271213"><ele>182.33333333333334</ele><time>2026-04-25T09:53:03.939Z</time></trkpt><trkpt lat="43.4987508" lon="11.7270166"><ele>181.16666666666666</ele><time>2026-04-25T09:53:04.941Z</time></trkpt><trkpt lat="43.4987511" lon="11.7268961"><ele>180.0</ele><time>2026-04-25T09:53:05.942Z</time></trkpt><trkpt lat="43.4987543" lon="11.7267752"><ele>178.83333333333334</ele><time>2026-04-25T09:53:06.947Z</time></trkpt><trkpt lat="43.4987508" lon="11.7266516"><ele>177.66666666666666</ele><time>2026-04-25T09:53:07.945Z</time></trkpt><trkpt lat="43.4987456" lon="11.7265306"><ele>176.5</ele><time>2026-04-25T09:53:08.949Z</time></trkpt><trkpt lat="43.4987423" lon="11.7264105"><ele>175.33333333333331</ele><time>2026-04-25T09:53:09.945Z</time></trkpt><trkpt lat="43.4987418" lon="11.7262861"><ele>174.16666666666666</ele><time>2026-04-25T09:53:10.942Z</time></trkpt><trkpt lat="43.4987418" lon="11.7261601"><ele>173.0</ele><time>2026-04-25T09:53:11.955Z</time></trkpt><trkpt lat="43.4987453" lon="11.7260374"><ele>173.8</ele><time>2026-04-25T09:53:12.94Z</time></trkpt><trkpt lat="43.4987615" lon="11.7259186"><ele>174.60000000000002</ele><time>2026-04-25T09:53:13.939Z</time></trkpt><trkpt lat="43.4987782" lon="11.7257914"><ele>175.39999999999998</ele><time>2026-04-25T09:53:14.938Z</time></trkpt><trkpt lat="43.4987999" lon="11.7256641"><ele>176.2</ele><time>2026-04-25T09:53:15.942Z</time></trkpt><trkpt lat="43.4988174" lon="11.7255361"><ele>177.0</ele><time>2026-04-25T09:53:16.938Z</time></trkpt><trkpt lat="43.4988394" lon="11.7254189"><ele>177.0</ele><time>2026-04-25T09:53:17.95Z</time></trkpt><trkpt lat="43.4988594" lon="11.7253032"><ele>177.0</ele><time>2026-04-25T09:53:18.939Z</time></trkpt><trkpt lat="43.4988814" lon="11.7251843"><ele>177.0</ele><time>2026-04-25T09:53:19.953Z</time></trkpt><trkpt lat="43.4988998" lon="11.7250643"><ele>177.0</ele><time>2026-04-25T09:53:20.931Z</time></trkpt><trkpt lat="43.4989142" lon="11.7249512"><ele>177.0</ele><time>2026-04-25T09:53:21.955Z</time></trkpt><trkpt lat="43.498932" lon="11.7248475"><ele>177.0</ele><time>2026-04-25T09:53:22.934Z</time></trkpt><trkpt lat="43.4989508" lon="11.7247494"><ele>177.0</ele><time>2026-04-25T09:53:23.926Z</time></trkpt><trkpt lat="43.4989664" lon="11.7246405"><ele>177.0</ele><time>2026-04-25T09:53:24.933Z</time></trkpt><trkpt lat="43.4989851" lon="11.7245222"><ele>177.0</ele><time>2026-04-25T09:53:25.944Z</time></trkpt><trkpt lat="43.4990039" lon="11.7244044"><ele>177.0</ele><time>2026-04-25T09:53:26.928Z</time></trkpt><trkpt lat="43.4990234" lon="11.7242754"><ele>177.0</ele><time>2026-04-25T09:53:27.937Z</time></trkpt><trkpt lat="43.4990419" lon="11.7241489"><ele>177.0</ele><time>2026-04-25T09:53:28.939Z</time></trkpt><trkpt lat="43.499063" lon="11.7240307"><ele>177.0</ele><time>2026-04-25T09:53:29.933Z</time></trkpt><trkpt lat="43.4990826" lon="11.7239128"><ele>177.0</ele><time>2026-04-25T09:53:30.944Z</time></trkpt><trkpt lat="43.4991004" lon="11.7238023"><ele>177.0</ele><time>2026-04-25T09:53:31.961Z</time></trkpt><trkpt lat="43.4991163" lon="11.7236924"><ele>177.0</ele><time>2026-04-25T09:53:32.938Z</time></trkpt><trkpt lat="43.4991349" lon="11.7235868"><ele>177.0</ele><time>2026-04-25T09:53:33.948Z</time></trkpt><trkpt lat="43.4991482" lon="11.723485"><ele>177.0</ele><time>2026-04-25T09:53:34.941Z</time></trkpt><trkpt lat="43.4991654" lon="11.7233883"><ele>176.5</ele><time>2026-04-25T09:53:35.943Z</time></trkpt><trkpt lat="43.499182" lon="11.7232816"><ele>176.0</ele><time>2026-04-25T09:53:36.946Z</time></trkpt><trkpt lat="43.4991991" lon="11.7231689"><ele>175.5</ele><time>2026-04-25T09:53:37.942Z</time></trkpt><trkpt lat="43.4992209" lon="11.7230571"><ele>175.0</ele><time>2026-04-25T09:53:38.936Z</time></trkpt><trkpt lat="43.49924" lon="11.7229482"><ele>174.5</ele><time>2026-04-25T09:53:39.939Z</time></trkpt><trkpt lat="43.4992583" lon="11.7228382"><ele>174.0</ele><time>2026-04-25T09:53:40.94Z</time></trkpt><trkpt lat="43.4992778" lon="11.7227358"><ele>174.2</ele><time>2026-04-25T09:53:41.945Z</time></trkpt><trkpt lat="43.4992906" lon="11.7226401"><ele>174.39999999999998</ele><time>2026-04-25T09:53:42.939Z</time></trkpt><trkpt lat="43.4993219" lon="11.722492"><ele>174.6</ele><time>2026-04-25T09:53:44.93Z</time></trkpt><trkpt lat="43.4993508" lon="11.722358"><ele>174.8</ele><time>2026-04-25T09:53:46.941Z</time></trkpt><trkpt lat="43.4993696" lon="11.722257"><ele>175.0</ele><time>2026-04-25T09:53:48.928Z</time></trkpt><trkpt lat="43.4993976" lon="11.7221333"><ele>175.0</ele><time>2026-04-25T09:55:03.94Z</time></trkpt><trkpt lat="43.4994214" lon="11.7219757"><ele>175.0</ele><time>2026-04-25T09:55:05.938Z</time></trkpt><trkpt lat="43.4994462" lon="11.7218353"><ele>175.0</ele><time>2026-04-25T09:55:07.933Z</time></trkpt><trkpt lat="43.4994605" lon="11.7217416"><ele>175.0</ele><time>2026-04-25T09:55:09.94Z</time></trkpt><trkpt lat="43.4994772" lon="11.7216323"><ele>175.0</ele><time>2026-04-25T09:55:12.939Z</time></trkpt><trkpt lat="43.4994882" lon="11.7215375"><ele>175.0</ele><time>2026-04-25T09:55:15.934Z</time></trkpt><trkpt lat="43.4995076" lon="11.7213877"><ele>174.66666666666669</ele><time>2026-04-25T09:55:18.948Z</time></trkpt><trkpt lat="43.4995191" lon="11.721295"><ele>174.33333333333334</ele><time>2026-04-25T09:55:19.94Z</time></trkpt><trkpt lat="43.4995258" lon="11.7211804"><ele>174.0</ele><time>2026-04-25T09:55:20.935Z</time></trkpt><trkpt lat="43.4995356" lon="11.7210601"><ele>173.66666666666666</ele><time>2026-04-25T09:55:21.949Z</time></trkpt><trkpt lat="43.499539" lon="11.7209486"><ele>173.33333333333331</ele><time>2026-04-25T09:55:22.942Z</time></trkpt><trkpt lat="43.4995479" lon="11.7208469"><ele>173.0</ele><time>2026-04-25T09:55:23.945Z</time></trkpt><trkpt lat="43.4995596" lon="11.720688"><ele>173.0</ele><time>2026-04-25T09:55:25.933Z</time></trkpt><trkpt lat="43.4995814" lon="11.7205462"><ele>173.0</ele><time>2026-04-25T09:55:27.943Z</time></trkpt><trkpt lat="43.4995906" lon="11.7203748"><ele>173.0</ele><time>2026-04-25T09:55:29.946Z</time></trkpt><trkpt lat="43.4996019" lon="11.7202715"><ele>173.0</ele><time>2026-04-25T09:55:30.943Z</time></trkpt><trkpt lat="43.4996232" lon="11.7201839"><ele>173.0</ele><time>2026-04-25T09:55:31.936Z</time></trkpt><trkpt lat="43.4996441" lon="11.7200838"><ele>173.0</ele><time>2026-04-25T09:55:32.942Z</time></trkpt><trkpt lat="43.4996579" lon="11.7199811"><ele>173.5</ele><time>2026-04-25T09:55:33.939Z</time></trkpt><trkpt lat="43.4996795" lon="11.7198766"><ele>174.0</ele><time>2026-04-25T09:55:34.947Z</time></trkpt><trkpt lat="43.4996966" lon="11.7197613"><ele>174.5</ele><time>2026-04-25T09:55:35.938Z</time></trkpt><trkpt lat="43.4997177" lon="11.7196487"><ele>175.0</ele><time>2026-04-25T09:55:36.941Z</time></trkpt><trkpt lat="43.4997358" lon="11.7195376"><ele>175.5</ele><time>2026-04-25T09:55:37.938Z</time></trkpt><trkpt lat="43.4997553" lon="11.7194349"><ele>176.0</ele><time>2026-04-25T09:55:38.936Z</time></trkpt><trkpt lat="43.4997724" lon="11.7193391"><ele>176.16666666666666</ele><time>2026-04-25T09:55:39.943Z</time></trkpt><trkpt lat="43.4997897" lon="11.7192426"><ele>176.33333333333331</ele><time>2026-04-25T09:55:40.94Z</time></trkpt><trkpt lat="43.4998173" lon="11.7191542"><ele>176.5</ele><time>2026-04-25T09:55:41.96Z</time></trkpt><trkpt lat="43.49987" lon="11.7190661"><ele>176.66666666666666</ele><time>2026-04-25T09:55:42.936Z</time></trkpt><trkpt lat="43.499932" lon="11.7189592"><ele>176.83333333333334</ele><time>2026-04-25T09:55:43.945Z</time></trkpt><trkpt lat="43.500006" lon="11.7188434"><ele>177.0</ele><time>2026-04-25T09:55:44.937Z</time></trkpt><trkpt lat="43.5000873" lon="11.7187157"><ele>177.0</ele><time>2026-04-25T09:55:45.958Z</time></trkpt><trkpt lat="43.5001739" lon="11.7185847"><ele>177.0</ele><time>2026-04-25T09:55:46.932Z</time></trkpt><trkpt lat="43.5002764" lon="11.7184531"><ele>177.0</ele><time>2026-04-25T09:55:47.947Z</time></trkpt><trkpt lat="43.5003924" lon="11.7183322"><ele>177.0</ele><time>2026-04-25T09:55:48.956Z</time></trkpt><trkpt lat="43.5005224" lon="11.7182187"><ele>177.33333333333334</ele><time>2026-04-25T09:55:49.938Z</time></trkpt><trkpt lat="43.5006565" lon="11.718111"><ele>177.66666666666669</ele><time>2026-04-25T09:55:50.949Z</time></trkpt><trkpt lat="43.5007954" lon="11.7180062"><ele>178.0</ele><time>2026-04-25T09:55:51.94Z</time></trkpt><trkpt lat="43.5009311" lon="11.7179013"><ele>178.0</ele><time>2026-04-25T09:55:52.954Z</time></trkpt><trkpt lat="43.5010653" lon="11.7177959"><ele>178.0</ele><time>2026-04-25T09:55:53.941Z</time></trkpt><trkpt lat="43.5011986" lon="11.717687"><ele>178.0</ele><time>2026-04-25T09:55:54.95Z</time></trkpt><trkpt lat="43.5013337" lon="11.7175739"><ele>177.66666666666669</ele><time>2026-04-25T09:55:55.95Z</time></trkpt><trkpt lat="43.5014796" lon="11.7174626"><ele>177.33333333333334</ele><time>2026-04-25T09:55:56.941Z</time></trkpt><trkpt lat="43.5016308" lon="11.7173484"><ele>177.0</ele><time>2026-04-25T09:55:57.939Z</time></trkpt><trkpt lat="43.5017852" lon="11.7172273"><ele>177.0</ele><time>2026-04-25T09:55:58.935Z</time></trkpt><trkpt lat="43.5019384" lon="11.7170952"><ele>177.0</ele><time>2026-04-25T09:55:59.932Z</time></trkpt><trkpt lat="43.5020933" lon="11.7169699"><ele>177.0</ele><time>2026-04-25T09:56:00.934Z</time></trkpt><trkpt lat="43.5022478" lon="11.7168475"><ele>177.33333333333334</ele><time>2026-04-25T09:56:01.927Z</time></trkpt><trkpt lat="43.502402" lon="11.7167236"><ele>177.66666666666669</ele><time>2026-04-25T09:56:02.949Z</time></trkpt><trkpt lat="43.5025653" lon="11.7165978"><ele>178.0</ele><time>2026-04-25T09:56:03.945Z</time></trkpt><trkpt lat="43.5027226" lon="11.7164732"><ele>178.0</ele><time>2026-04-25T09:56:04.947Z</time></trkpt><trkpt lat="43.5028769" lon="11.7163517"><ele>178.0</ele><time>2026-04-25T09:56:05.941Z</time></trkpt><trkpt lat="43.5030364" lon="11.7162331"><ele>178.0</ele><time>2026-04-25T09:56:06.945Z</time></trkpt><trkpt lat="43.5031948" lon="11.71611"><ele>177.66666666666669</ele><time>2026-04-25T09:56:07.945Z</time></trkpt><trkpt lat="43.5033502" lon="11.7159809"><ele>177.33333333333334</ele><time>2026-04-25T09:56:08.935Z</time></trkpt><trkpt lat="43.5035019" lon="11.7158629"><ele>177.0</ele><time>2026-04-25T09:56:09.947Z</time></trkpt><trkpt lat="43.5036574" lon="11.7157437"><ele>176.66666666666666</ele><time>2026-04-25T09:56:10.953Z</time></trkpt><trkpt lat="43.5038187" lon="11.7156209"><ele>176.33333333333331</ele><time>2026-04-25T09:56:11.934Z</time></trkpt><trkpt lat="43.5039867" lon="11.7154948"><ele>176.0</ele><time>2026-04-25T09:56:12.943Z</time></trkpt><trkpt lat="43.5041531" lon="11.7153674"><ele>176.0</ele><time>2026-04-25T09:56:13.931Z</time></trkpt><trkpt lat="43.5043166" lon="11.7152426"><ele>176.0</ele><time>2026-04-25T09:56:14.932Z</time></trkpt><trkpt lat="43.5044806" lon="11.7151175"><ele>176.0</ele><time>2026-04-25T09:56:15.946Z</time></trkpt><trkpt lat="43.5046395" lon="11.7149883"><ele>175.33333333333331</ele><time>2026-04-25T09:56:16.941Z</time></trkpt><trkpt lat="43.5048122" lon="11.7148483"><ele>174.66666666666666</ele><time>2026-04-25T09:56:17.95Z</time></trkpt><trkpt lat="43.5049895" lon="11.7147065"><ele>174.0</ele><time>2026-04-25T09:56:18.937Z</time></trkpt><trkpt lat="43.5051468" lon="11.7145837"><ele>174.0</ele><time>2026-04-25T09:56:19.929Z</time></trkpt><trkpt lat="43.5052953" lon="11.7144664"><ele>174.0</ele><time>2026-04-25T09:56:20.941Z</time></trkpt><trkpt lat="43.5054397" lon="11.714357"><ele>174.0</ele><time>2026-04-25T09:56:21.936Z</time></trkpt><trkpt lat="43.5055701" lon="11.7142512"><ele>175.25</ele><time>2026-04-25T09:56:22.937Z</time></trkpt><trkpt lat="43.5056984" lon="11.7141437"><ele>176.5</ele><time>2026-04-25T09:56:23.946Z</time></trkpt><trkpt lat="43.5058126" lon="11.7140445"><ele>177.75</ele><time>2026-04-25T09:56:24.946Z</time></trkpt><trkpt lat="43.5059152" lon="11.7139557"><ele>179.0</ele><time>2026-04-25T09:56:25.934Z</time></trkpt><trkpt lat="43.5059993" lon="11.7138756"><ele>179.0</ele><time>2026-04-25T09:56:26.946Z</time></trkpt><trkpt lat="43.5060793" lon="11.7138151"><ele>179.0</ele><time>2026-04-25T09:56:27.938Z</time></trkpt><trkpt lat="43.5061543" lon="11.713784"><ele>179.0</ele><time>2026-04-25T09:56:28.942Z</time></trkpt><trkpt lat="43.5062693" lon="11.7138335"><ele>179.0</ele><time>2026-04-25T09:56:30.941Z</time></trkpt><trkpt lat="43.5063369" lon="11.7140021"><ele>179.0</ele><time>2026-04-25T09:56:32.944Z</time></trkpt><trkpt lat="43.5063682" lon="11.7141203"><ele>179.75</ele><time>2026-04-25T09:56:33.957Z</time></trkpt><trkpt lat="43.5064009" lon="11.7142552"><ele>180.5</ele><time>2026-04-25T09:56:34.942Z</time></trkpt><trkpt lat="43.5064407" lon="11.7144097"><ele>181.25</ele><time>2026-04-25T09:56:35.932Z</time></trkpt><trkpt lat="43.5064806" lon="11.7145658"><ele>182.0</ele><time>2026-04-25T09:56:36.952Z</time></trkpt><trkpt lat="43.5065171" lon="11.7147396"><ele>182.66666666666666</ele><time>2026-04-25T09:56:37.936Z</time></trkpt><trkpt lat="43.5065602" lon="11.7149339"><ele>183.33333333333334</ele><time>2026-04-25T09:56:38.934Z</time></trkpt><trkpt lat="43.5066065" lon="11.715145"><ele>184.0</ele><time>2026-04-25T09:56:39.933Z</time></trkpt><trkpt lat="43.5066603" lon="11.7153446"><ele>185.0</ele><time>2026-04-25T09:56:40.937Z</time></trkpt><trkpt lat="43.5067309" lon="11.7155349"><ele>186.0</ele><time>2026-04-25T09:56:41.939Z</time></trkpt><trkpt lat="43.5068145" lon="11.7157245"><ele>187.0</ele><time>2026-04-25T09:56:42.931Z</time></trkpt><trkpt lat="43.5069134" lon="11.7159213"><ele>188.33333333333334</ele><time>2026-04-25T09:56:43.939Z</time></trkpt><trkpt lat="43.507018" lon="11.7161136"><ele>189.66666666666666</ele><time>2026-04-25T09:56:44.932Z</time></trkpt><trkpt lat="43.5071144" lon="11.7163175"><ele>191.0</ele><time>2026-04-25T09:56:45.943Z</time></trkpt><trkpt lat="43.5072048" lon="11.7165357"><ele>191.0</ele><time>2026-04-25T09:56:46.937Z</time></trkpt><trkpt lat="43.507288" lon="11.7167644"><ele>191.0</ele><time>2026-04-25T09:56:47.934Z</time></trkpt><trkpt lat="43.5073704" lon="11.7169946"><ele>191.0</ele><time>2026-04-25T09:56:48.943Z</time></trkpt><trkpt lat="43.5074504" lon="11.7172275"><ele>190.33333333333331</ele><time>2026-04-25T09:56:49.943Z</time></trkpt><trkpt lat="43.5075283" lon="11.7174501"><ele>189.66666666666666</ele><time>2026-04-25T09:56:50.945Z</time></trkpt><trkpt lat="43.5075942" lon="11.7176667"><ele>189.0</ele><time>2026-04-25T09:56:51.938Z</time></trkpt><trkpt lat="43.5076518" lon="11.7178689"><ele>188.75</ele><time>2026-04-25T09:56:52.939Z</time></trkpt><trkpt lat="43.5077" lon="11.7180541"><ele>188.5</ele><time>2026-04-25T09:56:53.933Z</time></trkpt><trkpt lat="43.5077539" lon="11.7182094"><ele>188.25</ele><time>2026-04-25T09:56:54.953Z</time></trkpt><trkpt lat="43.5078036" lon="11.7183621"><ele>188.0</ele><time>2026-04-25T09:56:55.938Z</time></trkpt><trkpt lat="43.5078462" lon="11.7185151"><ele>187.0</ele><time>2026-04-25T09:56:56.942Z</time></trkpt><trkpt lat="43.5078838" lon="11.7186806"><ele>186.0</ele><time>2026-04-25T09:56:57.942Z</time></trkpt><trkpt lat="43.5079129" lon="11.7188602"><ele>185.0</ele><time>2026-04-25T09:56:58.943Z</time></trkpt><trkpt lat="43.5079391" lon="11.7190391"><ele>184.0</ele><time>2026-04-25T09:56:59.937Z</time></trkpt><trkpt lat="43.5079579" lon="11.7192199"><ele>186.0</ele><time>2026-04-25T09:57:00.933Z</time></trkpt><trkpt lat="43.5079784" lon="11.7194039"><ele>188.0</ele><time>2026-04-25T09:57:01.945Z</time></trkpt><trkpt lat="43.5079992" lon="11.7195903"><ele>190.0</ele><time>2026-04-25T09:57:02.94Z</time></trkpt><trkpt lat="43.5080166" lon="11.7197757"><ele>192.0</ele><time>2026-04-25T09:57:03.938Z</time></trkpt><trkpt lat="43.5080382" lon="11.7199522"><ele>192.0</ele><time>2026-04-25T09:57:04.96Z</time></trkpt><trkpt lat="43.5080539" lon="11.7201302"><ele>192.0</ele><time>2026-04-25T09:57:05.939Z</time></trkpt><trkpt lat="43.5080503" lon="11.7203155"><ele>192.0</ele><time>2026-04-25T09:57:06.948Z</time></trkpt><trkpt lat="43.5080357" lon="11.7205042"><ele>192.0</ele><time>2026-04-25T09:57:07.937Z</time></trkpt><trkpt lat="43.5080028" lon="11.7206987"><ele>192.0</ele><time>2026-04-25T09:57:08.938Z</time></trkpt><trkpt lat="43.5079559" lon="11.7208791"><ele>192.0</ele><time>2026-04-25T09:57:09.934Z</time></trkpt><trkpt lat="43.5079127" lon="11.7210668"><ele>192.0</ele><time>2026-04-25T09:57:10.94Z</time></trkpt><trkpt lat="43.5078596" lon="11.721269"><ele>192.0</ele><time>2026-04-25T09:57:11.936Z</time></trkpt><trkpt lat="43.507815" lon="11.7214757"><ele>189.0</ele><time>2026-04-25T09:57:12.935Z</time></trkpt><trkpt lat="43.5077915" lon="11.7216909"><ele>186.0</ele><time>2026-04-25T09:57:13.95Z</time></trkpt><trkpt lat="43.5077817" lon="11.7219349"><ele>183.0</ele><time>2026-04-25T09:57:14.945Z</time></trkpt><trkpt lat="43.5077655" lon="11.7221799"><ele>183.0</ele><time>2026-04-25T09:57:15.937Z</time></trkpt><trkpt lat="43.5077574" lon="11.7224268"><ele>183.0</ele><time>2026-04-25T09:57:16.944Z</time></trkpt><trkpt lat="43.50775" lon="11.7226708"><ele>183.0</ele><time>2026-04-25T09:57:17.937Z</time></trkpt><trkpt lat="43.5077383" lon="11.7229121"><ele>183.66666666666666</ele><time>2026-04-25T09:57:18.944Z</time></trkpt><trkpt lat="43.5077274" lon="11.7231508"><ele>184.33333333333331</ele><time>2026-04-25T09:57:19.934Z</time></trkpt><trkpt lat="43.5077161" lon="11.7233947"><ele>185.0</ele><time>2026-04-25T09:57:20.94Z</time></trkpt><trkpt lat="43.507704" lon="11.7236349"><ele>185.0</ele><time>2026-04-25T09:57:21.94Z</time></trkpt><trkpt lat="43.5076959" lon="11.723881"><ele>185.0</ele><time>2026-04-25T09:57:22.934Z</time></trkpt><trkpt lat="43.5076831" lon="11.7241364"><ele>185.0</ele><time>2026-04-25T09:57:23.934Z</time></trkpt><trkpt lat="43.5076709" lon="11.7244104"><ele>184.66666666666666</ele><time>2026-04-25T09:57:24.928Z</time></trkpt><trkpt lat="43.5076591" lon="11.7246839"><ele>184.33333333333334</ele><time>2026-04-25T09:57:25.937Z</time></trkpt><trkpt lat="43.5076462" lon="11.7249404"><ele>184.0</ele><time>2026-04-25T09:57:26.94Z</time></trkpt><trkpt lat="43.5076299" lon="11.7251888"><ele>184.33333333333334</ele><time>2026-04-25T09:57:27.945Z</time></trkpt><trkpt lat="43.5076182" lon="11.7254246"><ele>184.66666666666666</ele><time>2026-04-25T09:57:28.94Z</time></trkpt><trkpt lat="43.5076055" lon="11.7256514"><ele>185.0</ele><time>2026-04-25T09:57:29.938Z</time></trkpt><trkpt lat="43.5075994" lon="11.7258624"><ele>184.5</ele><time>2026-04-25T09:57:30.93Z</time></trkpt><trkpt lat="43.5076004" lon="11.7260725"><ele>184.0</ele><time>2026-04-25T09:57:31.947Z</time></trkpt><trkpt lat="43.5076132" lon="11.7262694"><ele>183.5</ele><time>2026-04-25T09:57:32.937Z</time></trkpt><trkpt lat="43.5076477" lon="11.7264604"><ele>183.0</ele><time>2026-04-25T09:57:33.933Z</time></trkpt><trkpt lat="43.5077109" lon="11.7266468"><ele>183.0</ele><time>2026-04-25T09:57:34.94Z</time></trkpt><trkpt lat="43.5077956" lon="11.7268334"><ele>183.0</ele><time>2026-04-25T09:57:35.936Z</time></trkpt><trkpt lat="43.5078939" lon="11.7270089"><ele>183.0</ele><time>2026-04-25T09:57:36.942Z</time></trkpt><trkpt lat="43.508003" lon="11.7271864"><ele>183.66666666666666</ele><time>2026-04-25T09:57:37.937Z</time></trkpt><trkpt lat="43.5081157" lon="11.7273623"><ele>184.33333333333331</ele><time>2026-04-25T09:57:38.944Z</time></trkpt><trkpt lat="43.5082235" lon="11.7275303"><ele>185.0</ele><time>2026-04-25T09:57:39.943Z</time></trkpt><trkpt lat="43.5083219" lon="11.7276927"><ele>185.0</ele><time>2026-04-25T09:57:40.94Z</time></trkpt><trkpt lat="43.5084071" lon="11.727844"><ele>185.0</ele><time>2026-04-25T09:57:41.95Z</time></trkpt><trkpt lat="43.5084787" lon="11.7280052"><ele>185.0</ele><time>2026-04-25T09:57:42.941Z</time></trkpt><trkpt lat="43.5085324" lon="11.7281685"><ele>185.0</ele><time>2026-04-25T09:57:43.941Z</time></trkpt><trkpt lat="43.5085599" lon="11.7283294"><ele>185.0</ele><time>2026-04-25T09:57:44.93Z</time></trkpt><trkpt lat="43.5085721" lon="11.7284831"><ele>185.0</ele><time>2026-04-25T09:57:45.932Z</time></trkpt><trkpt lat="43.5085756" lon="11.7286434"><ele>185.0</ele><time>2026-04-25T09:57:46.934Z</time></trkpt><trkpt lat="43.5085632" lon="11.7287922"><ele>185.0</ele><time>2026-04-25T09:57:47.93Z</time></trkpt><trkpt lat="43.5085392" lon="11.728936"><ele>185.0</ele><time>2026-04-25T09:57:48.939Z</time></trkpt><trkpt lat="43.50851" lon="11.7290823"><ele>185.6</ele><time>2026-04-25T09:57:49.946Z</time></trkpt><trkpt lat="43.5084847" lon="11.7292364"><ele>186.2</ele><time>2026-04-25T09:57:50.945Z</time></trkpt><trkpt lat="43.5084577" lon="11.7293829"><ele>186.8</ele><time>2026-04-25T09:57:51.932Z</time></trkpt><trkpt lat="43.5084314" lon="11.7295349"><ele>187.4</ele><time>2026-04-25T09:57:52.939Z</time></trkpt><trkpt lat="43.5084061" lon="11.7296842"><ele>188.0</ele><time>2026-04-25T09:57:53.929Z</time></trkpt><trkpt lat="43.5083805" lon="11.7298324"><ele>189.5</ele><time>2026-04-25T09:57:54.941Z</time></trkpt><trkpt lat="43.5083542" lon="11.7299878"><ele>191.0</ele><time>2026-04-25T09:57:55.935Z</time></trkpt><trkpt lat="43.5083263" lon="11.7301522"><ele>192.5</ele><time>2026-04-25T09:57:56.937Z</time></trkpt><trkpt lat="43.5083004" lon="11.7303224"><ele>194.0</ele><time>2026-04-25T09:57:57.936Z</time></trkpt><trkpt lat="43.5082876" lon="11.730516"><ele>195.0</ele><time>2026-04-25T09:57:58.932Z</time></trkpt><trkpt lat="43.5083006" lon="11.7307254"><ele>196.0</ele><time>2026-04-25T09:57:59.936Z</time></trkpt><trkpt lat="43.5083684" lon="11.7309209"><ele>197.0</ele><time>2026-04-25T09:58:00.946Z</time></trkpt><trkpt lat="43.5084723" lon="11.731095"><ele>200.33333333333334</ele><time>2026-04-25T09:58:01.934Z</time></trkpt><trkpt lat="43.5086171" lon="11.731215"><ele>203.66666666666669</ele><time>2026-04-25T09:58:02.929Z</time></trkpt><trkpt lat="43.5088031" lon="11.7313113"><ele>207.0</ele><time>2026-04-25T09:58:03.951Z</time></trkpt><trkpt lat="43.5090032" lon="11.7313833"><ele>207.0</ele><time>2026-04-25T09:58:04.944Z</time></trkpt><trkpt lat="43.5091967" lon="11.7314408"><ele>207.0</ele><time>2026-04-25T09:58:05.938Z</time></trkpt><trkpt lat="43.5093688" lon="11.7314973"><ele>207.0</ele><time>2026-04-25T09:58:06.947Z</time></trkpt><trkpt lat="43.5095011" lon="11.7315575"><ele>205.8</ele><time>2026-04-25T09:58:07.936Z</time></trkpt><trkpt lat="43.50961" lon="11.731648"><ele>204.6</ele><time>2026-04-25T09:58:08.94Z</time></trkpt><trkpt lat="43.5096713" lon="11.7317623"><ele>203.4</ele><time>2026-04-25T09:58:09.942Z</time></trkpt><trkpt lat="43.5096943" lon="11.731903"><ele>202.20000000000002</ele><time>2026-04-25T09:58:10.943Z</time></trkpt><trkpt lat="43.5096668" lon="11.7320425"><ele>201.0</ele><time>2026-04-25T09:58:11.945Z</time></trkpt><trkpt lat="43.5095893" lon="11.7321562"><ele>204.25</ele><time>2026-04-25T09:58:12.937Z</time></trkpt><trkpt lat="43.5094844" lon="11.7322253"><ele>207.5</ele><time>2026-04-25T09:58:13.936Z</time></trkpt><trkpt lat="43.5093625" lon="11.7322155"><ele>210.75</ele><time>2026-04-25T09:58:14.936Z</time></trkpt><trkpt lat="43.5092411" lon="11.7321629"><ele>214.0</ele><time>2026-04-25T09:58:15.935Z</time></trkpt><trkpt lat="43.5091083" lon="11.7320489"><ele>214.0</ele><time>2026-04-25T09:58:16.93Z</time></trkpt><trkpt lat="43.5089938" lon="11.7319398"><ele>214.0</ele><time>2026-04-25T09:58:17.943Z</time></trkpt><trkpt lat="43.5088578" lon="11.7318771"><ele>214.0</ele><time>2026-04-25T09:58:18.943Z</time></trkpt><trkpt lat="43.5087153" lon="11.7318847"><ele>214.0</ele><time>2026-04-25T09:58:19.936Z</time></trkpt><trkpt lat="43.5085754" lon="11.7319867"><ele>216.33333333333331</ele><time>2026-04-25T09:58:20.945Z</time></trkpt><trkpt lat="43.5084606" lon="11.7321526"><ele>218.66666666666669</ele><time>2026-04-25T09:58:21.945Z</time></trkpt><trkpt lat="43.5083594" lon="11.7323484"><ele>221.0</ele><time>2026-04-25T09:58:22.933Z</time></trkpt><trkpt lat="43.5082805" lon="11.7325635"><ele>225.33333333333334</ele><time>2026-04-25T09:58:23.941Z</time></trkpt><trkpt lat="43.5081968" lon="11.732793"><ele>229.66666666666669</ele><time>2026-04-25T09:58:24.939Z</time></trkpt><trkpt lat="43.5081328" lon="11.7330292"><ele>234.0</ele><time>2026-04-25T09:58:25.934Z</time></trkpt><trkpt lat="43.5080904" lon="11.7332766"><ele>234.0</ele><time>2026-04-25T09:58:26.944Z</time></trkpt><trkpt lat="43.5080741" lon="11.7335217"><ele>234.0</ele><time>2026-04-25T09:58:27.934Z</time></trkpt><trkpt lat="43.5080914" lon="11.7337813"><ele>234.0</ele><time>2026-04-25T09:58:28.939Z</time></trkpt><trkpt lat="43.50814" lon="11.734049"><ele>237.0</ele><time>2026-04-25T09:58:29.94Z</time></trkpt><trkpt lat="43.5082033" lon="11.7343119"><ele>240.0</ele><time>2026-04-25T09:58:30.93Z</time></trkpt><trkpt lat="43.5082796" lon="11.7345699"><ele>243.0</ele><time>2026-04-25T09:58:31.932Z</time></trkpt><trkpt lat="43.5083681" lon="11.7348192"><ele>244.0</ele><time>2026-04-25T09:58:32.933Z</time></trkpt><trkpt lat="43.5084516" lon="11.7350591"><ele>245.0</ele><time>2026-04-25T09:58:33.94Z</time></trkpt><trkpt lat="43.5085224" lon="11.7352798"><ele>246.0</ele><time>2026-04-25T09:58:34.934Z</time></trkpt><trkpt lat="43.5085904" lon="11.7354942"><ele>247.33333333333331</ele><time>2026-04-25T09:58:35.95Z</time></trkpt><trkpt lat="43.5086823" lon="11.73569"><ele>248.66666666666666</ele><time>2026-04-25T09:58:36.959Z</time></trkpt><trkpt lat="43.5087951" lon="11.7358734"><ele>250.0</ele><time>2026-04-25T09:58:37.936Z</time></trkpt><trkpt lat="43.5089079" lon="11.7360635"><ele>251.66666666666666</ele><time>2026-04-25T09:58:38.934Z</time></trkpt><trkpt lat="43.5090022" lon="11.7362447"><ele>253.33333333333331</ele><time>2026-04-25T09:58:39.942Z</time></trkpt><trkpt lat="43.5090616" lon="11.7364391"><ele>255.0</ele><time>2026-04-25T09:58:40.952Z</time></trkpt><trkpt lat="43.5091007" lon="11.7366346"><ele>255.0</ele><time>2026-04-25T09:58:41.937Z</time></trkpt><trkpt lat="43.5091269" lon="11.7368415"><ele>255.0</ele><time>2026-04-25T09:58:42.935Z</time></trkpt><trkpt lat="43.5091409" lon="11.7370814"><ele>255.0</ele><time>2026-04-25T09:58:43.946Z</time></trkpt><trkpt lat="43.5091516" lon="11.7373241"><ele>257.0</ele><time>2026-04-25T09:58:44.941Z</time></trkpt><trkpt lat="43.5091607" lon="11.737566"><ele>259.0</ele><time>2026-04-25T09:58:45.946Z</time></trkpt><trkpt lat="43.5091675" lon="11.7377994"><ele>261.0</ele><time>2026-04-25T09:58:46.932Z</time></trkpt><trkpt lat="43.5091786" lon="11.7380159"><ele>262.0</ele><time>2026-04-25T09:58:47.936Z</time></trkpt><trkpt lat="43.5091924" lon="11.7382178"><ele>263.0</ele><time>2026-04-25T09:58:48.943Z</time></trkpt><trkpt lat="43.5092226" lon="11.7384144"><ele>264.0</ele><time>2026-04-25T09:58:49.936Z</time></trkpt><trkpt lat="43.5092763" lon="11.738613"><ele>265.0</ele><time>2026-04-25T09:58:50.923Z</time></trkpt><trkpt lat="43.5093542" lon="11.7387966"><ele>264.66666666666663</ele><time>2026-04-25T09:58:51.938Z</time></trkpt><trkpt lat="43.5094496" lon="11.7389766"><ele>264.3333333333333</ele><time>2026-04-25T09:58:52.928Z</time></trkpt><trkpt lat="43.5095735" lon="11.7391337"><ele>264.0</ele><time>2026-04-25T09:58:53.934Z</time></trkpt><trkpt lat="43.5097135" lon="11.7392771"><ele>265.6666666666667</ele><time>2026-04-25T09:58:54.938Z</time></trkpt><trkpt lat="43.509861" lon="11.7394214"><ele>267.33333333333337</ele><time>2026-04-25T09:58:55.939Z</time></trkpt><trkpt lat="43.5100076" lon="11.7395741"><ele>269.0</ele><time>2026-04-25T09:58:56.94Z</time></trkpt><trkpt lat="43.510162" lon="11.7397364"><ele>269.0</ele><time>2026-04-25T09:58:57.937Z</time></trkpt><trkpt lat="43.5103112" lon="11.7398967"><ele>269.0</ele><time>2026-04-25T09:58:58.936Z</time></trkpt><trkpt lat="43.510457" lon="11.7400506"><ele>269.0</ele><time>2026-04-25T09:58:59.933Z</time></trkpt><trkpt lat="43.5105893" lon="11.740196"><ele>269.33333333333337</ele><time>2026-04-25T09:59:00.934Z</time></trkpt><trkpt lat="43.5107174" lon="11.7403442"><ele>269.6666666666667</ele><time>2026-04-25T09:59:01.935Z</time></trkpt><trkpt lat="43.5108453" lon="11.7405093"><ele>270.0</ele><time>2026-04-25T09:59:02.936Z</time></trkpt><trkpt lat="43.510962" lon="11.7407095"><ele>270.0</ele><time>2026-04-25T09:59:03.936Z</time></trkpt><trkpt lat="43.5110766" lon="11.7409396"><ele>270.0</ele><time>2026-04-25T09:59:04.941Z</time></trkpt><trkpt lat="43.5112002" lon="11.7411674"><ele>270.0</ele><time>2026-04-25T09:59:05.944Z</time></trkpt><trkpt lat="43.5113169" lon="11.7413898"><ele>269.6666666666667</ele><time>2026-04-25T09:59:06.944Z</time></trkpt><trkpt lat="43.5114251" lon="11.7416182"><ele>269.33333333333337</ele><time>2026-04-25T09:59:07.937Z</time></trkpt><trkpt lat="43.511543" lon="11.7418633"><ele>269.0</ele><time>2026-04-25T09:59:08.942Z</time></trkpt><trkpt lat="43.511674" lon="11.7421016"><ele>269.0</ele><time>2026-04-25T09:59:09.93Z</time></trkpt><trkpt lat="43.5118275" lon="11.7423216"><ele>269.0</ele><time>2026-04-25T09:59:10.94Z</time></trkpt><trkpt lat="43.5119952" lon="11.7425333"><ele>269.0</ele><time>2026-04-25T09:59:11.942Z</time></trkpt><trkpt lat="43.5121544" lon="11.7427361"><ele>266.33333333333337</ele><time>2026-04-25T09:59:12.947Z</time></trkpt><trkpt lat="43.5123094" lon="11.7429273"><ele>263.6666666666667</ele><time>2026-04-25T09:59:13.936Z</time></trkpt><trkpt lat="43.512458" lon="11.7431265"><ele>261.0</ele><time>2026-04-25T09:59:14.933Z</time></trkpt><trkpt lat="43.5126045" lon="11.743332"><ele>261.0</ele><time>2026-04-25T09:59:15.937Z</time></trkpt><trkpt lat="43.5127392" lon="11.7435382"><ele>261.0</ele><time>2026-04-25T09:59:16.936Z</time></trkpt><trkpt lat="43.5128682" lon="11.7437536"><ele>261.0</ele><time>2026-04-25T09:59:17.934Z</time></trkpt><trkpt lat="43.5130009" lon="11.7439722"><ele>259.6666666666667</ele><time>2026-04-25T09:59:18.934Z</time></trkpt><trkpt lat="43.5131359" lon="11.7442017"><ele>258.33333333333337</ele><time>2026-04-25T09:59:19.943Z</time></trkpt><trkpt lat="43.5132785" lon="11.7444565"><ele>257.0</ele><time>2026-04-25T09:59:20.94Z</time></trkpt><trkpt lat="43.5134133" lon="11.7447197"><ele>257.0</ele><time>2026-04-25T09:59:21.932Z</time></trkpt><trkpt lat="43.5135388" lon="11.7449868"><ele>257.0</ele><time>2026-04-25T09:59:22.931Z</time></trkpt><trkpt lat="43.5136588" lon="11.7452408"><ele>258.5</ele><time>2026-04-25T09:59:23.927Z</time></trkpt><trkpt lat="43.5138833" lon="11.7457187"><ele>260.0</ele><time>2026-04-25T09:59:25.936Z</time></trkpt><trkpt lat="43.514002" lon="11.7459435"><ele>259.0</ele><time>2026-04-25T09:59:26.927Z</time></trkpt><trkpt lat="43.5141271" lon="11.7461654"><ele>258.0</ele><time>2026-04-25T09:59:27.924Z</time></trkpt><trkpt lat="43.5142576" lon="11.7463947"><ele>257.0</ele><time>2026-04-25T09:59:28.946Z</time></trkpt><trkpt lat="43.5143947" lon="11.7466229"><ele>257.0</ele><time>2026-04-25T09:59:29.932Z</time></trkpt><trkpt lat="43.5145315" lon="11.746856"><ele>257.0</ele><time>2026-04-25T09:59:30.933Z</time></trkpt><trkpt lat="43.5146709" lon="11.7470866"><ele>257.0</ele><time>2026-04-25T09:59:31.938Z</time></trkpt><trkpt lat="43.514813" lon="11.7473138"><ele>257.0</ele><time>2026-04-25T09:59:32.937Z</time></trkpt><trkpt lat="43.5149607" lon="11.7475326"><ele>257.0</ele><time>2026-04-25T09:59:33.927Z</time></trkpt><trkpt lat="43.5151167" lon="11.7477527"><ele>257.0</ele><time>2026-04-25T09:59:34.946Z</time></trkpt><trkpt lat="43.5152746" lon="11.7479684"><ele>256.6666666666667</ele><time>2026-04-25T09:59:35.932Z</time></trkpt><trkpt lat="43.5154338" lon="11.7481767"><ele>256.3333333333333</ele><time>2026-04-25T09:59:36.935Z</time></trkpt><trkpt lat="43.5155877" lon="11.7483968"><ele>256.0</ele><time>2026-04-25T09:59:37.94Z</time></trkpt><trkpt lat="43.5157456" lon="11.7486144"><ele>256.0</ele><time>2026-04-25T09:59:38.929Z</time></trkpt><trkpt lat="43.5159014" lon="11.74883"><ele>256.0</ele><time>2026-04-25T09:59:39.942Z</time></trkpt><trkpt lat="43.5160579" lon="11.7490394"><ele>256.0</ele><time>2026-04-25T09:59:40.939Z</time></trkpt><trkpt lat="43.5162138" lon="11.7492439"><ele>256.3333333333333</ele><time>2026-04-25T09:59:41.929Z</time></trkpt><trkpt lat="43.5163674" lon="11.7494512"><ele>256.6666666666667</ele><time>2026-04-25T09:59:42.944Z</time></trkpt><trkpt lat="43.5165285" lon="11.7496702"><ele>257.0</ele><time>2026-04-25T09:59:43.934Z</time></trkpt><trkpt lat="43.5166886" lon="11.7498903"><ele>257.0</ele><time>2026-04-25T09:59:44.946Z</time></trkpt><trkpt lat="43.5168561" lon="11.7501117"><ele>257.0</ele><time>2026-04-25T09:59:45.939Z</time></trkpt><trkpt lat="43.5170267" lon="11.7503384"><ele>257.0</ele><time>2026-04-25T09:59:46.939Z</time></trkpt><trkpt lat="43.5171876" lon="11.750559"><ele>257.0</ele><time>2026-04-25T09:59:47.937Z</time></trkpt><trkpt lat="43.517348" lon="11.7507809"><ele>257.0</ele><time>2026-04-25T09:59:48.936Z</time></trkpt><trkpt lat="43.5175052" lon="11.7509953"><ele>257.0</ele><time>2026-04-25T09:59:49.935Z</time></trkpt><trkpt lat="43.517653" lon="11.7512021"><ele>257.0</ele><time>2026-04-25T09:59:50.936Z</time></trkpt><trkpt lat="43.5177937" lon="11.7514002"><ele>256.33333333333337</ele><time>2026-04-25T09:59:51.944Z</time></trkpt><trkpt lat="43.5179328" lon="11.7515956"><ele>255.66666666666669</ele><time>2026-04-25T09:59:52.934Z</time></trkpt><trkpt lat="43.5180739" lon="11.751786"><ele>255.0</ele><time>2026-04-25T09:59:53.93Z</time></trkpt><trkpt lat="43.5182152" lon="11.7519595"><ele>255.0</ele><time>2026-04-25T09:59:54.939Z</time></trkpt><trkpt lat="43.5183648" lon="11.75211"><ele>255.0</ele><time>2026-04-25T09:59:55.935Z</time></trkpt><trkpt lat="43.5185253" lon="11.7522106"><ele>255.0</ele><time>2026-04-25T09:59:56.93Z</time></trkpt><trkpt lat="43.5187174" lon="11.7523152"><ele>254.66666666666669</ele><time>2026-04-25T09:59:57.937Z</time></trkpt><trkpt lat="43.5189166" lon="11.7524041"><ele>254.33333333333334</ele><time>2026-04-25T09:59:58.945Z</time></trkpt><trkpt lat="43.5191143" lon="11.7524865"><ele>254.0</ele><time>2026-04-25T09:59:59.937Z</time></trkpt><trkpt lat="43.5193116" lon="11.7525641"><ele>254.0</ele><time>2026-04-25T10:00:00.943Z</time></trkpt><trkpt lat="43.5195038" lon="11.7526487"><ele>254.0</ele><time>2026-04-25T10:00:01.94Z</time></trkpt><trkpt lat="43.5197007" lon="11.7527569"><ele>254.0</ele><time>2026-04-25T10:00:02.935Z</time></trkpt><trkpt lat="43.5198909" lon="11.7528724"><ele>253.66666666666669</ele><time>2026-04-25T10:00:03.931Z</time></trkpt><trkpt lat="43.5200794" lon="11.7529941"><ele>253.33333333333331</ele><time>2026-04-25T10:00:04.94Z</time></trkpt><trkpt lat="43.5202678" lon="11.7531148"><ele>253.0</ele><time>2026-04-25T10:00:05.933Z</time></trkpt><trkpt lat="43.5204525" lon="11.7532452"><ele>254.0</ele><time>2026-04-25T10:00:06.938Z</time></trkpt><trkpt lat="43.5206471" lon="11.7533702"><ele>255.0</ele><time>2026-04-25T10:00:07.947Z</time></trkpt><trkpt lat="43.5208534" lon="11.7534969"><ele>256.0</ele><time>2026-04-25T10:00:08.931Z</time></trkpt><trkpt lat="43.5210687" lon="11.753637"><ele>257.0</ele><time>2026-04-25T10:00:09.938Z</time></trkpt><trkpt lat="43.5212788" lon="11.7537747"><ele>258.0</ele><time>2026-04-25T10:00:10.946Z</time></trkpt><trkpt lat="43.5214733" lon="11.7539043"><ele>259.0</ele><time>2026-04-25T10:00:11.952Z</time></trkpt><trkpt lat="43.5216604" lon="11.7540262"><ele>259.0</ele><time>2026-04-25T10:00:12.936Z</time></trkpt><trkpt lat="43.5218479" lon="11.7541521"><ele>259.0</ele><time>2026-04-25T10:00:13.937Z</time></trkpt><trkpt lat="43.5220254" lon="11.7542643"><ele>259.0</ele><time>2026-04-25T10:00:14.94Z</time></trkpt><trkpt lat="43.5221846" lon="11.754372"><ele>260.0</ele><time>2026-04-25T10:00:15.945Z</time></trkpt><trkpt lat="43.5223364" lon="11.7544726"><ele>261.0</ele><time>2026-04-25T10:00:16.936Z</time></trkpt><trkpt lat="43.5224949" lon="11.7545759"><ele>262.0</ele><time>2026-04-25T10:00:17.938Z</time></trkpt><trkpt lat="43.5226682" lon="11.7546829"><ele>262.0</ele><time>2026-04-25T10:00:18.935Z</time></trkpt><trkpt lat="43.5228528" lon="11.754806"><ele>262.0</ele><time>2026-04-25T10:00:19.946Z</time></trkpt><trkpt lat="43.5230499" lon="11.754933"><ele>262.0</ele><time>2026-04-25T10:00:20.937Z</time></trkpt><trkpt lat="43.5232491" lon="11.7550579"><ele>262.3333333333333</ele><time>2026-04-25T10:00:21.944Z</time></trkpt><trkpt lat="43.523451" lon="11.7551807"><ele>262.6666666666667</ele><time>2026-04-25T10:00:22.93Z</time></trkpt><trkpt lat="43.523655" lon="11.75532"><ele>263.0</ele><time>2026-04-25T10:00:23.934Z</time></trkpt><trkpt lat="43.5238666" lon="11.7554615"><ele>264.33333333333337</ele><time>2026-04-25T10:00:24.938Z</time></trkpt><trkpt lat="43.5240688" lon="11.7555991"><ele>265.6666666666667</ele><time>2026-04-25T10:00:25.937Z</time></trkpt><trkpt lat="43.5242608" lon="11.7557295"><ele>267.0</ele><time>2026-04-25T10:00:26.939Z</time></trkpt><trkpt lat="43.524447" lon="11.7558526"><ele>267.0</ele><time>2026-04-25T10:00:27.932Z</time></trkpt><trkpt lat="43.5246317" lon="11.7559753"><ele>267.0</ele><time>2026-04-25T10:00:28.939Z</time></trkpt><trkpt lat="43.524821" lon="11.7561007"><ele>267.0</ele><time>2026-04-25T10:00:29.935Z</time></trkpt><trkpt lat="43.5250122" lon="11.7562284"><ele>267.3333333333333</ele><time>2026-04-25T10:00:30.936Z</time></trkpt><trkpt lat="43.5251982" lon="11.7563447"><ele>267.66666666666663</ele><time>2026-04-25T10:00:31.938Z</time></trkpt><trkpt lat="43.5253701" lon="11.7564583"><ele>268.0</ele><time>2026-04-25T10:00:32.94Z</time></trkpt><trkpt lat="43.5255379" lon="11.756569"><ele>268.0</ele><time>2026-04-25T10:00:33.933Z</time></trkpt><trkpt lat="43.5256985" lon="11.756671"><ele>268.0</ele><time>2026-04-25T10:00:34.934Z</time></trkpt><trkpt lat="43.5258582" lon="11.7567747"><ele>268.0</ele><time>2026-04-25T10:00:35.938Z</time></trkpt><trkpt lat="43.5260292" lon="11.7568867"><ele>268.3333333333333</ele><time>2026-04-25T10:00:36.949Z</time></trkpt><trkpt lat="43.5261978" lon="11.7569992"><ele>268.6666666666667</ele><time>2026-04-25T10:00:37.937Z</time></trkpt><trkpt lat="43.526357" lon="11.7570989"><ele>269.0</ele><time>2026-04-25T10:00:38.944Z</time></trkpt><trkpt lat="43.526511" lon="11.7571969"><ele>269.0</ele><time>2026-04-25T10:00:39.943Z</time></trkpt><trkpt lat="43.5266601" lon="11.7572912"><ele>269.0</ele><time>2026-04-25T10:00:40.945Z</time></trkpt><trkpt lat="43.5268106" lon="11.7573924"><ele>269.0</ele><time>2026-04-25T10:00:41.944Z</time></trkpt><trkpt lat="43.5269494" lon="11.7574869"><ele>269.25</ele><time>2026-04-25T10:00:42.944Z</time></trkpt><trkpt lat="43.5270814" lon="11.7575723"><ele>269.5</ele><time>2026-04-25T10:00:43.934Z</time></trkpt><trkpt lat="43.5272088" lon="11.7576592"><ele>269.75</ele><time>2026-04-25T10:00:44.94Z</time></trkpt><trkpt lat="43.5273218" lon="11.7577525"><ele>270.0</ele><time>2026-04-25T10:00:45.933Z</time></trkpt><trkpt lat="43.5274266" lon="11.7578524"><ele>270.0</ele><time>2026-04-25T10:00:46.936Z</time></trkpt><trkpt lat="43.5275172" lon="11.7579556"><ele>270.0</ele><time>2026-04-25T10:00:47.94Z</time></trkpt><trkpt lat="43.5275991" lon="11.7580547"><ele>270.0</ele><time>2026-04-25T10:00:48.933Z</time></trkpt><trkpt lat="43.5276739" lon="11.7581561"><ele>270.0</ele><time>2026-04-25T10:00:49.941Z</time></trkpt><trkpt lat="43.5277376" lon="11.7582522"><ele>270.0</ele><time>2026-04-25T10:00:50.943Z</time></trkpt><trkpt lat="43.5277864" lon="11.7583324"><ele>270.0</ele><time>2026-04-25T10:00:51.938Z</time></trkpt><trkpt lat="43.5278219" lon="11.7584094"><ele>270.0</ele><time>2026-04-25T10:00:52.933Z</time></trkpt><trkpt lat="43.5278575" lon="11.758483"><ele>270.0</ele><time>2026-04-25T10:00:53.928Z</time></trkpt><trkpt lat="43.5279071" lon="11.7585499"><ele>270.0</ele><time>2026-04-25T10:00:54.938Z</time></trkpt><trkpt lat="43.5279678" lon="11.7585941"><ele>270.0</ele><time>2026-04-25T10:00:55.933Z</time></trkpt><trkpt lat="43.5280345" lon="11.7586212"><ele>270.0</ele><time>2026-04-25T10:00:56.935Z</time></trkpt><trkpt lat="43.528094" lon="11.7586602"><ele>270.0</ele><time>2026-04-25T10:00:57.942Z</time></trkpt><trkpt lat="43.5281404" lon="11.7587352"><ele>270.4</ele><time>2026-04-25T10:00:58.94Z</time></trkpt><trkpt lat="43.5281472" lon="11.758905"><ele>270.8</ele><time>2026-04-25T10:01:00.955Z</time></trkpt><trkpt lat="43.5281279" lon="11.7590071"><ele>271.2</ele><time>2026-04-25T10:01:01.941Z</time></trkpt><trkpt lat="43.5281008" lon="11.7591182"><ele>271.6</ele><time>2026-04-25T10:01:02.935Z</time></trkpt><trkpt lat="43.5280735" lon="11.7592271"><ele>272.0</ele><time>2026-04-25T10:01:03.941Z</time></trkpt><trkpt lat="43.5280482" lon="11.7593369"><ele>272.1666666666667</ele><time>2026-04-25T10:01:04.937Z</time></trkpt><trkpt lat="43.5280214" lon="11.7594254"><ele>272.33333333333337</ele><time>2026-04-25T10:01:05.935Z</time></trkpt><trkpt lat="43.527991" lon="11.7595146"><ele>272.5</ele><time>2026-04-25T10:01:06.939Z</time></trkpt><trkpt lat="43.5279419" lon="11.7596445"><ele>272.6666666666667</ele><time>2026-04-25T10:01:08.941Z</time></trkpt><trkpt lat="43.5279723" lon="11.7597627"><ele>272.8333333333333</ele><time>2026-04-25T10:01:10.938Z</time></trkpt><trkpt lat="43.5280292" lon="11.7598145"><ele>273.0</ele><time>2026-04-25T10:01:11.941Z</time></trkpt><trkpt lat="43.5281046" lon="11.7598611"><ele>273.0</ele><time>2026-04-25T10:01:12.933Z</time></trkpt><trkpt lat="43.5281965" lon="11.7599032"><ele>273.0</ele><time>2026-04-25T10:01:13.926Z</time></trkpt><trkpt lat="43.5283008" lon="11.7599609"><ele>273.0</ele><time>2026-04-25T10:01:14.932Z</time></trkpt><trkpt lat="43.5284136" lon="11.7600078"><ele>273.0</ele><time>2026-04-25T10:01:15.946Z</time></trkpt><trkpt lat="43.5285385" lon="11.7600569"><ele>273.0</ele><time>2026-04-25T10:01:16.933Z</time></trkpt><trkpt lat="43.5286869" lon="11.7600695"><ele>273.0</ele><time>2026-04-25T10:01:17.946Z</time></trkpt><trkpt lat="43.5288363" lon="11.760085"><ele>273.0</ele><time>2026-04-25T10:01:18.936Z</time></trkpt><trkpt lat="43.5289647" lon="11.7601002"><ele>273.0</ele><time>2026-04-25T10:01:19.969Z</time></trkpt><trkpt lat="43.5290744" lon="11.7601038"><ele>273.4</ele><time>2026-04-25T10:01:20.926Z</time></trkpt><trkpt lat="43.5291805" lon="11.7600905"><ele>273.8</ele><time>2026-04-25T10:01:21.925Z</time></trkpt><trkpt lat="43.5292708" lon="11.7600468"><ele>274.2</ele><time>2026-04-25T10:01:22.936Z</time></trkpt><trkpt lat="43.5293593" lon="11.7599718"><ele>274.6</ele><time>2026-04-25T10:01:23.934Z</time></trkpt><trkpt lat="43.5294433" lon="11.759891"><ele>275.0</ele><time>2026-04-25T10:01:24.93Z</time></trkpt><trkpt lat="43.5295332" lon="11.759813"><ele>274.8</ele><time>2026-04-25T10:01:25.936Z</time></trkpt><trkpt lat="43.5296162" lon="11.759747"><ele>274.6</ele><time>2026-04-25T10:01:26.936Z</time></trkpt><trkpt lat="43.5296747" lon="11.7596958"><ele>274.4</ele><time>2026-04-25T10:01:27.929Z</time></trkpt><trkpt lat="43.5297905" lon="11.7596218"><ele>274.2</ele><time>2026-04-25T10:01:29.935Z</time></trkpt><trkpt lat="43.5298856" lon="11.759571"><ele>274.0</ele><time>2026-04-25T10:01:30.94Z</time></trkpt><trkpt lat="43.5300089" lon="11.7595123"><ele>274.0</ele><time>2026-04-25T10:01:31.938Z</time></trkpt><trkpt lat="43.5301375" lon="11.7594356"><ele>274.0</ele><time>2026-04-25T10:01:32.932Z</time></trkpt><trkpt lat="43.5302632" lon="11.7593393"><ele>274.0</ele><time>2026-04-25T10:01:33.928Z</time></trkpt><trkpt lat="43.530385" lon="11.7592575"><ele>274.0</ele><time>2026-04-25T10:01:34.935Z</time></trkpt><trkpt lat="43.5304966" lon="11.7591766"><ele>273.25</ele><time>2026-04-25T10:01:35.936Z</time></trkpt><trkpt lat="43.5306082" lon="11.7591026"><ele>272.5</ele><time>2026-04-25T10:01:36.945Z</time></trkpt><trkpt lat="43.5307268" lon="11.7590391"><ele>271.75</ele><time>2026-04-25T10:01:37.942Z</time></trkpt><trkpt lat="43.5308409" lon="11.758999"><ele>271.0</ele><time>2026-04-25T10:01:38.933Z</time></trkpt><trkpt lat="43.5309428" lon="11.7589825"><ele>271.0</ele><time>2026-04-25T10:01:39.934Z</time></trkpt><trkpt lat="43.5310374" lon="11.7589866"><ele>271.0</ele><time>2026-04-25T10:01:40.935Z</time></trkpt><trkpt lat="43.5311173" lon="11.7589951"><ele>271.0</ele><time>2026-04-25T10:01:41.943Z</time></trkpt><trkpt lat="43.531232" lon="11.7590013"><ele>271.0</ele><time>2026-04-25T10:01:43.944Z</time></trkpt><trkpt lat="43.5313423" lon="11.7589897"><ele>271.0</ele><time>2026-04-25T10:02:39.929Z</time></trkpt><trkpt lat="43.5314047" lon="11.7589739"><ele>271.0</ele><time>2026-04-25T10:02:40.931Z</time></trkpt><trkpt lat="43.5314681" lon="11.7589667"><ele>271.0</ele><time>2026-04-25T10:02:41.931Z</time></trkpt><trkpt lat="43.5315334" lon="11.7589659"><ele>271.0</ele><time>2026-04-25T10:02:42.934Z</time></trkpt><trkpt lat="43.5316057" lon="11.7589672"><ele>271.0</ele><time>2026-04-25T10:02:43.934Z</time></trkpt><trkpt lat="43.531681" lon="11.7589681"><ele>271.0</ele><time>2026-04-25T10:02:44.934Z</time></trkpt><trkpt lat="43.5317509" lon="11.758968"><ele>271.0</ele><time>2026-04-25T10:02:45.934Z</time></trkpt><trkpt lat="43.5318196" lon="11.7589691"><ele>271.0</ele><time>2026-04-25T10:02:46.942Z</time></trkpt><trkpt lat="43.531887" lon="11.7589697"><ele>271.0</ele><time>2026-04-25T10:02:47.93Z</time></trkpt><trkpt lat="43.5319537" lon="11.7589691"><ele>271.0</ele><time>2026-04-25T10:02:48.936Z</time></trkpt><trkpt lat="43.5320878" lon="11.7589667"><ele>271.0</ele><time>2026-04-25T10:02:50.941Z</time></trkpt><trkpt lat="43.5321683" lon="11.7589671"><ele>271.0</ele><time>2026-04-25T10:02:51.942Z</time></trkpt><trkpt lat="43.5322456" lon="11.7589637"><ele>271.0</ele><time>2026-04-25T10:02:52.945Z</time></trkpt><trkpt lat="43.5323289" lon="11.7589604"><ele>271.0</ele><time>2026-04-25T10:02:53.933Z</time></trkpt><trkpt lat="43.5324154" lon="11.7589608"><ele>271.2857142857143</ele><time>2026-04-25T10:02:54.935Z</time></trkpt><trkpt lat="43.5324986" lon="11.7589588"><ele>271.57142857142856</ele><time>2026-04-25T10:02:55.948Z</time></trkpt><trkpt lat="43.5325769" lon="11.758959"><ele>271.8571428571429</ele><time>2026-04-25T10:02:56.936Z</time></trkpt><trkpt lat="43.5326589" lon="11.7589575"><ele>272.1428571428571</ele><time>2026-04-25T10:02:57.938Z</time></trkpt><trkpt lat="43.5327302" lon="11.758953"><ele>272.42857142857144</ele><time>2026-04-25T10:02:58.938Z</time></trkpt><trkpt lat="43.532794" lon="11.7589522"><ele>272.7142857142857</ele><time>2026-04-25T10:02:59.933Z</time></trkpt><trkpt lat="43.5328645" lon="11.7589519"><ele>273.0</ele><time>2026-04-25T10:03:00.944Z</time></trkpt><trkpt lat="43.5329408" lon="11.7589563"><ele>274.0</ele><time>2026-04-25T10:03:01.941Z</time></trkpt><trkpt lat="43.5330171" lon="11.7589576"><ele>275.0</ele><time>2026-04-25T10:03:02.932Z</time></trkpt><trkpt lat="43.5330967" lon="11.7589555"><ele>276.0</ele><time>2026-04-25T10:03:03.949Z</time></trkpt><trkpt lat="43.5331767" lon="11.758956"><ele>277.0</ele><time>2026-04-25T10:03:04.941Z</time></trkpt><trkpt lat="43.5332593" lon="11.7589559"><ele>278.0</ele><time>2026-04-25T10:03:05.929Z</time></trkpt><trkpt lat="43.5333443" lon="11.7589532"><ele>279.0</ele><time>2026-04-25T10:03:06.941Z</time></trkpt><trkpt lat="43.5334305" lon="11.7589513"><ele>279.0</ele><time>2026-04-25T10:03:07.934Z</time></trkpt><trkpt lat="43.5335195" lon="11.7589542"><ele>279.0</ele><time>2026-04-25T10:03:08.938Z</time></trkpt><trkpt lat="43.5336081" lon="11.7589562"><ele>279.0</ele><time>2026-04-25T10:03:09.936Z</time></trkpt><trkpt lat="43.5336996" lon="11.7589473"><ele>279.0</ele><time>2026-04-25T10:03:10.945Z</time></trkpt><trkpt lat="43.5337889" lon="11.7589418"><ele>279.0</ele><time>2026-04-25T10:03:11.953Z</time></trkpt><trkpt lat="43.5338776" lon="11.7589389"><ele>279.0</ele><time>2026-04-25T10:03:12.937Z</time></trkpt><trkpt lat="43.5339579" lon="11.7589378"><ele>280.1666666666667</ele><time>2026-04-25T10:03:13.935Z</time></trkpt><trkpt lat="43.5340236" lon="11.7589362"><ele>281.3333333333333</ele><time>2026-04-25T10:03:14.943Z</time></trkpt><trkpt lat="43.5341413" lon="11.7589307"><ele>282.5</ele><time>2026-04-25T10:03:16.936Z</time></trkpt><trkpt lat="43.5342108" lon="11.7589311"><ele>283.66666666666663</ele><time>2026-04-25T10:03:17.931Z</time></trkpt><trkpt lat="43.5342975" lon="11.7589323"><ele>284.8333333333333</ele><time>2026-04-25T10:03:18.934Z</time></trkpt><trkpt lat="43.5343948" lon="11.758928"><ele>286.0</ele><time>2026-04-25T10:03:19.922Z</time></trkpt><trkpt lat="43.5345042" lon="11.7589172"><ele>287.66666666666663</ele><time>2026-04-25T10:03:20.931Z</time></trkpt><trkpt lat="43.5346311" lon="11.758919"><ele>289.3333333333333</ele><time>2026-04-25T10:03:21.944Z</time></trkpt><trkpt lat="43.5347907" lon="11.7589225"><ele>291.0</ele><time>2026-04-25T10:03:22.933Z</time></trkpt><trkpt lat="43.5349664" lon="11.7589263"><ele>291.0</ele><time>2026-04-25T10:03:23.942Z</time></trkpt><trkpt lat="43.5351497" lon="11.7589287"><ele>291.0</ele><time>2026-04-25T10:03:24.932Z</time></trkpt><trkpt lat="43.535326" lon="11.7589169"><ele>291.0</ele><time>2026-04-25T10:03:25.942Z</time></trkpt><trkpt lat="43.5354907" lon="11.7589002"><ele>293.6666666666667</ele><time>2026-04-25T10:03:26.95Z</time></trkpt><trkpt lat="43.5356547" lon="11.7588814"><ele>296.33333333333337</ele><time>2026-04-25T10:03:27.929Z</time></trkpt><trkpt lat="43.5358165" lon="11.7588708"><ele>299.0</ele><time>2026-04-25T10:03:28.953Z</time></trkpt><trkpt lat="43.5359736" lon="11.7588596"><ele>299.0</ele><time>2026-04-25T10:03:29.941Z</time></trkpt><trkpt lat="43.5361222" lon="11.7588408"><ele>299.0</ele><time>2026-04-25T10:03:30.946Z</time></trkpt><trkpt lat="43.5362643" lon="11.7588224"><ele>299.0</ele><time>2026-04-25T10:03:31.941Z</time></trkpt><trkpt lat="43.5363832" lon="11.7587928"><ele>299.0</ele><time>2026-04-25T10:03:32.931Z</time></trkpt><trkpt lat="43.5364897" lon="11.7587769"><ele>300.6666666666667</ele><time>2026-04-25T10:03:33.948Z</time></trkpt><trkpt lat="43.5365726" lon="11.7587638"><ele>302.33333333333337</ele><time>2026-04-25T10:03:34.937Z</time></trkpt><trkpt lat="43.5366533" lon="11.7587597"><ele>304.0</ele><time>2026-04-25T10:03:35.935Z</time></trkpt><trkpt lat="43.5367284" lon="11.758756"><ele>305.6666666666667</ele><time>2026-04-25T10:03:36.934Z</time></trkpt><trkpt lat="43.5368091" lon="11.7587644"><ele>307.3333333333333</ele><time>2026-04-25T10:03:37.939Z</time></trkpt><trkpt lat="43.5368922" lon="11.7587757"><ele>309.0</ele><time>2026-04-25T10:03:38.946Z</time></trkpt><trkpt lat="43.5369742" lon="11.7588034"><ele>311.6</ele><time>2026-04-25T10:03:39.94Z</time></trkpt><trkpt lat="43.537061" lon="11.7588424"><ele>314.2</ele><time>2026-04-25T10:03:40.933Z</time></trkpt><trkpt lat="43.5371556" lon="11.7588563"><ele>316.8</ele><time>2026-04-25T10:03:41.939Z</time></trkpt><trkpt lat="43.5372507" lon="11.7588477"><ele>319.40000000000003</ele><time>2026-04-25T10:03:42.946Z</time></trkpt><trkpt lat="43.5373418" lon="11.758775"><ele>322.0</ele><time>2026-04-25T10:03:43.941Z</time></trkpt><trkpt lat="43.5374496" lon="11.7586915"><ele>322.0</ele><time>2026-04-25T10:03:44.933Z</time></trkpt><trkpt lat="43.5375609" lon="11.7586186"><ele>322.0</ele><time>2026-04-25T10:03:45.933Z</time></trkpt><trkpt lat="43.5376621" lon="11.758536"><ele>322.0</ele><time>2026-04-25T10:03:46.935Z</time></trkpt><trkpt lat="43.5377456" lon="11.7584524"><ele>322.0</ele><time>2026-04-25T10:03:47.935Z</time></trkpt><trkpt lat="43.5378155" lon="11.7583601"><ele>322.0</ele><time>2026-04-25T10:03:48.944Z</time></trkpt><trkpt lat="43.537877" lon="11.7582353"><ele>324.8333333333333</ele><time>2026-04-25T10:03:49.928Z</time></trkpt><trkpt lat="43.5379248" lon="11.758098"><ele>327.66666666666663</ele><time>2026-04-25T10:03:50.93Z</time></trkpt><trkpt lat="43.5379676" lon="11.7579911"><ele>330.5</ele><time>2026-04-25T10:03:51.942Z</time></trkpt><trkpt lat="43.5380289" lon="11.7579301"><ele>333.3333333333333</ele><time>2026-04-25T10:03:52.94Z</time></trkpt><trkpt lat="43.5381149" lon="11.7579144"><ele>336.1666666666667</ele><time>2026-04-25T10:03:53.938Z</time></trkpt><trkpt lat="43.5381933" lon="11.7579271"><ele>339.0</ele><time>2026-04-25T10:03:54.937Z</time></trkpt><trkpt lat="43.5382747" lon="11.7579458"><ele>339.0</ele><time>2026-04-25T10:03:55.932Z</time></trkpt><trkpt lat="43.5383614" lon="11.7579715"><ele>339.0</ele><time>2026-04-25T10:03:56.941Z</time></trkpt><trkpt lat="43.5384558" lon="11.7579821"><ele>339.0</ele><time>2026-04-25T10:03:57.93Z</time></trkpt><trkpt lat="43.5385542" lon="11.7579734"><ele>339.0</ele><time>2026-04-25T10:03:58.93Z</time></trkpt><trkpt lat="43.5386565" lon="11.7579614"><ele>339.0</ele><time>2026-04-25T10:03:59.936Z</time></trkpt><trkpt lat="43.5387627" lon="11.7579402"><ele>340.79999999999995</ele><time>2026-04-25T10:04:00.941Z</time></trkpt><trkpt lat="43.5388567" lon="11.7579282"><ele>342.59999999999997</ele><time>2026-04-25T10:04:01.945Z</time></trkpt><trkpt lat="43.53893" lon="11.7578708"><ele>344.4</ele><time>2026-04-25T10:04:02.946Z</time></trkpt><trkpt lat="43.5390095" lon="11.7577511"><ele>346.2</ele><time>2026-04-25T10:04:03.932Z</time></trkpt><trkpt lat="43.539082" lon="11.7576228"><ele>348.0</ele><time>2026-04-25T10:04:04.931Z</time></trkpt><trkpt lat="43.5391569" lon="11.7575035"><ele>348.0</ele><time>2026-04-25T10:04:05.931Z</time></trkpt><trkpt lat="43.5392286" lon="11.7574167"><ele>348.0</ele><time>2026-04-25T10:04:06.934Z</time></trkpt><trkpt lat="43.5393007" lon="11.7573558"><ele>348.0</ele><time>2026-04-25T10:04:07.945Z</time></trkpt><trkpt lat="43.5393848" lon="11.7573043"><ele>348.0</ele><time>2026-04-25T10:04:08.931Z</time></trkpt><trkpt lat="43.5394711" lon="11.7572657"><ele>348.0</ele><time>2026-04-25T10:04:09.925Z</time></trkpt><trkpt lat="43.5395469" lon="11.7572342"><ele>348.0</ele><time>2026-04-25T10:04:10.934Z</time></trkpt><trkpt lat="43.5396633" lon="11.7572056"><ele>349.59999999999997</ele><time>2026-04-25T10:04:12.937Z</time></trkpt><trkpt lat="43.5397373" lon="11.757166"><ele>351.2</ele><time>2026-04-25T10:04:14.934Z</time></trkpt><trkpt lat="43.5398092" lon="11.7571528"><ele>352.8</ele><time>2026-04-25T10:04:37.948Z</time></trkpt><trkpt lat="43.5399407" lon="11.7571245"><ele>354.4</ele><time>2026-04-25T10:04:39.933Z</time></trkpt><trkpt lat="43.5400531" lon="11.7571024"><ele>356.0</ele><time>2026-04-25T10:04:40.937Z</time></trkpt><trkpt lat="43.5401808" lon="11.7570733"><ele>356.0</ele><time>2026-04-25T10:04:41.941Z</time></trkpt><trkpt lat="43.5403207" lon="11.7570597"><ele>356.0</ele><time>2026-04-25T10:04:42.935Z</time></trkpt><trkpt lat="43.5404581" lon="11.7570599"><ele>356.0</ele><time>2026-04-25T10:04:43.94Z</time></trkpt><trkpt lat="43.5406028" lon="11.7570662"><ele>356.0</ele><time>2026-04-25T10:04:44.935Z</time></trkpt><trkpt lat="43.5407411" lon="11.757092"><ele>357.0</ele><time>2026-04-25T10:04:45.94Z</time></trkpt><trkpt lat="43.5408662" lon="11.7571347"><ele>358.0</ele><time>2026-04-25T10:04:46.943Z</time></trkpt><trkpt lat="43.5409745" lon="11.757189"><ele>359.0</ele><time>2026-04-25T10:04:47.931Z</time></trkpt><trkpt lat="43.5410601" lon="11.7572427"><ele>360.0</ele><time>2026-04-25T10:04:48.932Z</time></trkpt><trkpt lat="43.5411396" lon="11.7573102"><ele>361.0</ele><time>2026-04-25T10:04:49.94Z</time></trkpt><trkpt lat="43.5412166" lon="11.757393"><ele>361.6</ele><time>2026-04-25T10:04:50.931Z</time></trkpt><trkpt lat="43.5412908" lon="11.7574742"><ele>362.20000000000005</ele><time>2026-04-25T10:04:51.939Z</time></trkpt><trkpt lat="43.5413818" lon="11.757529"><ele>362.79999999999995</ele><time>2026-04-25T10:04:52.938Z</time></trkpt><trkpt lat="43.54148" lon="11.7575648"><ele>363.4</ele><time>2026-04-25T10:04:53.937Z</time></trkpt><trkpt lat="43.5415744" lon="11.7575899"><ele>364.0</ele><time>2026-04-25T10:04:54.937Z</time></trkpt><trkpt lat="43.5416706" lon="11.7576183"><ele>364.0</ele><time>2026-04-25T10:04:55.937Z</time></trkpt><trkpt lat="43.5417594" lon="11.7576315"><ele>364.0</ele><time>2026-04-25T10:04:56.946Z</time></trkpt><trkpt lat="43.5418579" lon="11.7576533"><ele>364.0</ele><time>2026-04-25T10:04:57.932Z</time></trkpt><trkpt lat="43.5419663" lon="11.7576739"><ele>364.0</ele><time>2026-04-25T10:04:58.94Z</time></trkpt><trkpt lat="43.5420784" lon="11.7576928"><ele>364.0</ele><time>2026-04-25T10:04:59.946Z</time></trkpt><trkpt lat="43.5421966" lon="11.7577215"><ele>365.5</ele><time>2026-04-25T10:05:00.935Z</time></trkpt><trkpt lat="43.5423055" lon="11.757764"><ele>367.0</ele><time>2026-04-25T10:05:01.947Z</time></trkpt><trkpt lat="43.542409" lon="11.7578033"><ele>368.5</ele><time>2026-04-25T10:05:02.933Z</time></trkpt><trkpt lat="43.5425248" lon="11.7578393"><ele>370.0</ele><time>2026-04-25T10:05:03.934Z</time></trkpt><trkpt lat="43.5426469" lon="11.7578946"><ele>370.0</ele><time>2026-04-25T10:05:04.944Z</time></trkpt><trkpt lat="43.5427691" lon="11.7579498"><ele>370.0</ele><time>2026-04-25T10:05:05.947Z</time></trkpt><trkpt lat="43.5428891" lon="11.7579961"><ele>370.0</ele><time>2026-04-25T10:05:06.93Z</time></trkpt><trkpt lat="43.5430194" lon="11.7580431"><ele>370.0</ele><time>2026-04-25T10:05:07.93Z</time></trkpt><trkpt lat="43.5431633" lon="11.7580738"><ele>372.66666666666663</ele><time>2026-04-25T10:05:08.955Z</time></trkpt><trkpt lat="43.5433089" lon="11.7580932"><ele>375.3333333333333</ele><time>2026-04-25T10:05:09.943Z</time></trkpt><trkpt lat="43.543474" lon="11.758096"><ele>378.0</ele><time>2026-04-25T10:05:10.928Z</time></trkpt><trkpt lat="43.5436504" lon="11.758102"><ele>381.66666666666663</ele><time>2026-04-25T10:05:11.946Z</time></trkpt><trkpt lat="43.543824" lon="11.7581131"><ele>385.3333333333333</ele><time>2026-04-25T10:05:12.931Z</time></trkpt><trkpt lat="43.5439809" lon="11.7581155"><ele>389.0</ele><time>2026-04-25T10:05:13.931Z</time></trkpt><trkpt lat="43.5441249" lon="11.7581245"><ele>389.0</ele><time>2026-04-25T10:05:14.95Z</time></trkpt><trkpt lat="43.5442586" lon="11.7581246"><ele>389.0</ele><time>2026-04-25T10:05:15.937Z</time></trkpt><trkpt lat="43.5443808" lon="11.7581198"><ele>389.0</ele><time>2026-04-25T10:05:16.933Z</time></trkpt><trkpt lat="43.544509" lon="11.7580983"><ele>389.0</ele><time>2026-04-25T10:05:17.935Z</time></trkpt><trkpt lat="43.5446328" lon="11.7580462"><ele>391.75</ele><time>2026-04-25T10:05:18.923Z</time></trkpt><trkpt lat="43.5447552" lon="11.7579757"><ele>394.5</ele><time>2026-04-25T10:05:19.938Z</time></trkpt><trkpt lat="43.5448772" lon="11.7578633"><ele>397.25</ele><time>2026-04-25T10:05:20.928Z</time></trkpt><trkpt lat="43.5450049" lon="11.7577354"><ele>400.0</ele><time>2026-04-25T10:05:21.932Z</time></trkpt><trkpt lat="43.5451311" lon="11.7576086"><ele>400.75</ele><time>2026-04-25T10:05:22.924Z</time></trkpt><trkpt lat="43.5452554" lon="11.7574915"><ele>401.5</ele><time>2026-04-25T10:05:23.926Z</time></trkpt><trkpt lat="43.5453773" lon="11.7573841"><ele>402.25</ele><time>2026-04-25T10:05:24.93Z</time></trkpt><trkpt lat="43.5454917" lon="11.7572697"><ele>403.0</ele><time>2026-04-25T10:05:25.93Z</time></trkpt><trkpt lat="43.5456139" lon="11.7571603"><ele>404.33333333333337</ele><time>2026-04-25T10:05:26.919Z</time></trkpt><trkpt lat="43.5457354" lon="11.7570507"><ele>405.66666666666663</ele><time>2026-04-25T10:05:27.938Z</time></trkpt><trkpt lat="43.545853" lon="11.7569123"><ele>407.0</ele><time>2026-04-25T10:05:28.947Z</time></trkpt><trkpt lat="43.5459685" lon="11.7567398"><ele>407.0</ele><time>2026-04-25T10:05:29.934Z</time></trkpt><trkpt lat="43.5460778" lon="11.7565443"><ele>407.0</ele><time>2026-04-25T10:05:30.941Z</time></trkpt><trkpt lat="43.5461976" lon="11.756365"><ele>407.0</ele><time>2026-04-25T10:05:31.938Z</time></trkpt><trkpt lat="43.5463173" lon="11.7562074"><ele>412.3333333333333</ele><time>2026-04-25T10:05:32.928Z</time></trkpt><trkpt lat="43.5464484" lon="11.7560675"><ele>417.66666666666663</ele><time>2026-04-25T10:05:33.932Z</time></trkpt><trkpt lat="43.546601" lon="11.7559063"><ele>423.0</ele><time>2026-04-25T10:05:34.935Z</time></trkpt><trkpt lat="43.5467394" lon="11.7557341"><ele>423.0</ele><time>2026-04-25T10:05:35.944Z</time></trkpt><trkpt lat="43.5468593" lon="11.7555823"><ele>423.0</ele><time>2026-04-25T10:05:36.931Z</time></trkpt><trkpt lat="43.5469616" lon="11.7554414"><ele>423.0</ele><time>2026-04-25T10:05:37.936Z</time></trkpt><trkpt lat="43.5470514" lon="11.7553257"><ele>423.0</ele><time>2026-04-25T10:05:38.937Z</time></trkpt><trkpt lat="43.5471231" lon="11.7552237"><ele>423.79999999999995</ele><time>2026-04-25T10:05:39.93Z</time></trkpt><trkpt lat="43.547183" lon="11.7551403"><ele>424.6</ele><time>2026-04-25T10:05:40.929Z</time></trkpt><trkpt lat="43.5472208" lon="11.7550558"><ele>425.40000000000003</ele><time>2026-04-25T10:05:41.925Z</time></trkpt><trkpt lat="43.5472008" lon="11.7548798"><ele>426.20000000000005</ele><time>2026-04-25T10:05:43.929Z</time></trkpt><trkpt lat="43.5471351" lon="11.7548233"><ele>427.0</ele><time>2026-04-25T10:05:44.93Z</time></trkpt><trkpt lat="43.5470309" lon="11.7547647"><ele>427.0</ele><time>2026-04-25T10:05:45.929Z</time></trkpt><trkpt lat="43.5469018" lon="11.7547311"><ele>427.0</ele><time>2026-04-25T10:05:46.931Z</time></trkpt><trkpt lat="43.5467493" lon="11.7547124"><ele>427.0</ele><time>2026-04-25T10:05:47.926Z</time></trkpt><trkpt lat="43.5465839" lon="11.7547067"><ele>427.0</ele><time>2026-04-25T10:05:48.931Z</time></trkpt><trkpt lat="43.5464392" lon="11.7547071"><ele>427.0</ele><time>2026-04-25T10:05:49.924Z</time></trkpt><trkpt lat="43.5463123" lon="11.7547311"><ele>427.0</ele><time>2026-04-25T10:05:50.929Z</time></trkpt><trkpt lat="43.5462113" lon="11.7547353"><ele>427.0</ele><time>2026-04-25T10:05:51.928Z</time></trkpt><trkpt lat="43.5461223" lon="11.7547014"><ele>427.0</ele><time>2026-04-25T10:05:52.933Z</time></trkpt><trkpt lat="43.5460612" lon="11.754635"><ele>427.00000000000006</ele><time>2026-04-25T10:05:53.935Z</time></trkpt><trkpt lat="43.5459985" lon="11.7545406"><ele>427.00000000000006</ele><time>2026-04-25T10:05:54.928Z</time></trkpt><trkpt lat="43.5459664" lon="11.7544226"><ele>427.0</ele><time>2026-04-25T10:05:55.937Z</time></trkpt><trkpt lat="43.5459682" lon="11.7542911"><ele>427.0</ele><time>2026-04-25T10:05:56.939Z</time></trkpt><trkpt lat="43.5459908" lon="11.7541541"><ele>427.0</ele><time>2026-04-25T10:05:57.933Z</time></trkpt><trkpt lat="43.5460216" lon="11.7540252"><ele>427.00000000000006</ele><time>2026-04-25T10:05:58.939Z</time></trkpt><trkpt lat="43.5460727" lon="11.7539235"><ele>427.00000000000006</ele><time>2026-04-25T10:05:59.936Z</time></trkpt><trkpt lat="43.5461361" lon="11.7538484"><ele>427.0</ele><time>2026-04-25T10:06:00.938Z</time></trkpt><trkpt lat="43.5462248" lon="11.7537826"><ele>427.0</ele><time>2026-04-25T10:06:01.934Z</time></trkpt><trkpt lat="43.5463355" lon="11.7537189"><ele>429.33333333333337</ele><time>2026-04-25T10:06:02.941Z</time></trkpt><trkpt lat="43.5464201" lon="11.7536539"><ele>431.6666666666667</ele><time>2026-04-25T10:06:03.934Z</time></trkpt><trkpt lat="43.5464804" lon="11.7535702"><ele>434.0</ele><time>2026-04-25T10:06:04.942Z</time></trkpt><trkpt lat="43.5464958" lon="11.7534815"><ele>436.33333333333337</ele><time>2026-04-25T10:06:05.929Z</time></trkpt><trkpt lat="43.5464738" lon="11.7533787"><ele>438.6666666666667</ele><time>2026-04-25T10:06:06.932Z</time></trkpt><trkpt lat="43.546432" lon="11.7532761"><ele>441.0</ele><time>2026-04-25T10:06:07.936Z</time></trkpt><trkpt lat="43.5463657" lon="11.7531656"><ele>442.66666666666663</ele><time>2026-04-25T10:06:08.933Z</time></trkpt><trkpt lat="43.546247" lon="11.7530652"><ele>444.3333333333333</ele><time>2026-04-25T10:06:09.946Z</time></trkpt><trkpt lat="43.5461122" lon="11.7529572"><ele>446.0</ele><time>2026-04-25T10:06:10.946Z</time></trkpt><trkpt lat="43.545966" lon="11.7528369"><ele>445.0</ele><time>2026-04-25T10:06:11.936Z</time></trkpt><trkpt lat="43.5458421" lon="11.7527072"><ele>444.0</ele><time>2026-04-25T10:06:12.936Z</time></trkpt><trkpt lat="43.545745" lon="11.7525861"><ele>443.0</ele><time>2026-04-25T10:06:13.942Z</time></trkpt><trkpt lat="43.545667" lon="11.7524632"><ele>442.0</ele><time>2026-04-25T10:06:14.93Z</time></trkpt><trkpt lat="43.5456173" lon="11.7523385"><ele>442.0</ele><time>2026-04-25T10:06:15.93Z</time></trkpt><trkpt lat="43.5455836" lon="11.7521766"><ele>442.0</ele><time>2026-04-25T10:06:16.926Z</time></trkpt><trkpt lat="43.5455459" lon="11.7519929"><ele>442.0</ele><time>2026-04-25T10:06:17.943Z</time></trkpt><trkpt lat="43.5455096" lon="11.7517787"><ele>442.0</ele><time>2026-04-25T10:06:18.943Z</time></trkpt><trkpt lat="43.5454507" lon="11.7515399"><ele>443.6666666666667</ele><time>2026-04-25T10:06:19.938Z</time></trkpt><trkpt lat="43.5454046" lon="11.7513126"><ele>445.33333333333337</ele><time>2026-04-25T10:06:20.942Z</time></trkpt><trkpt lat="43.545379" lon="11.7511159"><ele>447.0</ele><time>2026-04-25T10:06:21.925Z</time></trkpt><trkpt lat="43.5453545" lon="11.7509273"><ele>447.0</ele><time>2026-04-25T10:06:22.933Z</time></trkpt><trkpt lat="43.5453083" lon="11.7507548"><ele>447.0</ele><time>2026-04-25T10:06:23.953Z</time></trkpt><trkpt lat="43.5452236" lon="11.7505758"><ele>447.0</ele><time>2026-04-25T10:06:24.925Z</time></trkpt><trkpt lat="43.5451081" lon="11.7503652"><ele>450.33333333333337</ele><time>2026-04-25T10:06:25.934Z</time></trkpt><trkpt lat="43.5449844" lon="11.7501245"><ele>453.6666666666667</ele><time>2026-04-25T10:06:26.928Z</time></trkpt><trkpt lat="43.5448537" lon="11.7498623"><ele>457.0</ele><time>2026-04-25T10:06:27.933Z</time></trkpt><trkpt lat="43.5447275" lon="11.7496186"><ele>457.0</ele><time>2026-04-25T10:06:28.93Z</time></trkpt><trkpt lat="43.5446033" lon="11.7494037"><ele>457.0</ele><time>2026-04-25T10:06:29.934Z</time></trkpt><trkpt lat="43.5445006" lon="11.7492206"><ele>457.0</ele><time>2026-04-25T10:06:30.94Z</time></trkpt><trkpt lat="43.5443988" lon="11.7490471"><ele>456.0</ele><time>2026-04-25T10:06:31.94Z</time></trkpt><trkpt lat="43.5442958" lon="11.7488602"><ele>455.0</ele><time>2026-04-25T10:06:32.929Z</time></trkpt><trkpt lat="43.5442131" lon="11.7486763"><ele>454.0</ele><time>2026-04-25T10:06:33.931Z</time></trkpt><trkpt lat="43.5441486" lon="11.7485072"><ele>456.0</ele><time>2026-04-25T10:06:34.938Z</time></trkpt><trkpt lat="43.5440952" lon="11.7483306"><ele>458.0</ele><time>2026-04-25T10:06:35.943Z</time></trkpt><trkpt lat="43.5440401" lon="11.7481472"><ele>460.0</ele><time>2026-04-25T10:06:36.942Z</time></trkpt><trkpt lat="43.5439967" lon="11.7479644"><ele>462.0</ele><time>2026-04-25T10:06:37.942Z</time></trkpt><trkpt lat="43.5439737" lon="11.7477945"><ele>463.20000000000005</ele><time>2026-04-25T10:06:38.929Z</time></trkpt><trkpt lat="43.5439671" lon="11.7476404"><ele>464.40000000000003</ele><time>2026-04-25T10:06:39.939Z</time></trkpt><trkpt lat="43.5439738" lon="11.7475199"><ele>465.59999999999997</ele><time>2026-04-25T10:06:40.952Z</time></trkpt><trkpt lat="43.5439985" lon="11.74738"><ele>466.79999999999995</ele><time>2026-04-25T10:06:42.933Z</time></trkpt><trkpt lat="43.5440743" lon="11.7473883"><ele>468.0</ele><time>2026-04-25T10:06:45.938Z</time></trkpt><trkpt lat="43.5441415" lon="11.7475116"><ele>468.0</ele><time>2026-04-25T10:06:47.93Z</time></trkpt><trkpt lat="43.5441756" lon="11.7475893"><ele>467.99999999999994</ele><time>2026-04-25T10:06:48.946Z</time></trkpt><trkpt lat="43.5442147" lon="11.7476678"><ele>467.99999999999994</ele><time>2026-04-25T10:06:49.938Z</time></trkpt><trkpt lat="43.5442658" lon="11.7477569"><ele>468.0</ele><time>2026-04-25T10:06:50.945Z</time></trkpt><trkpt lat="43.544338" lon="11.7478591"><ele>468.0</ele><time>2026-04-25T10:06:51.93Z</time></trkpt><trkpt lat="43.5444366" lon="11.747977"><ele>466.79999999999995</ele><time>2026-04-25T10:06:52.932Z</time></trkpt><trkpt lat="43.5445214" lon="11.7480693"><ele>465.59999999999997</ele><time>2026-04-25T10:06:53.931Z</time></trkpt><trkpt lat="43.5445934" lon="11.7481487"><ele>464.40000000000003</ele><time>2026-04-25T10:06:54.936Z</time></trkpt><trkpt lat="43.5446661" lon="11.748232"><ele>463.20000000000005</ele><time>2026-04-25T10:06:55.934Z</time></trkpt><trkpt lat="43.5447505" lon="11.74832"><ele>462.0</ele><time>2026-04-25T10:06:56.931Z</time></trkpt><trkpt lat="43.544822" lon="11.7483953"><ele>463.6</ele><time>2026-04-25T10:06:57.933Z</time></trkpt><trkpt lat="43.5448941" lon="11.7484648"><ele>465.20000000000005</ele><time>2026-04-25T10:06:58.937Z</time></trkpt><trkpt lat="43.5449671" lon="11.7485225"><ele>466.8</ele><time>2026-04-25T10:06:59.938Z</time></trkpt><trkpt lat="43.54505" lon="11.748578"><ele>468.4</ele><time>2026-04-25T10:07:00.939Z</time></trkpt><trkpt lat="43.5451238" lon="11.7486473"><ele>470.0</ele><time>2026-04-25T10:07:01.939Z</time></trkpt><trkpt lat="43.545196" lon="11.7487565"><ele>470.0</ele><time>2026-04-25T10:07:02.952Z</time></trkpt><trkpt lat="43.5452594" lon="11.7488711"><ele>470.0</ele><time>2026-04-25T10:07:03.943Z</time></trkpt><trkpt lat="43.545316" lon="11.7489699"><ele>470.0</ele><time>2026-04-25T10:07:04.941Z</time></trkpt><trkpt lat="43.5453887" lon="11.7490402"><ele>470.0</ele><time>2026-04-25T10:07:05.933Z</time></trkpt><trkpt lat="43.5454733" lon="11.7490984"><ele>470.0</ele><time>2026-04-25T10:07:06.932Z</time></trkpt><trkpt lat="43.5455717" lon="11.7491749"><ele>471.8</ele><time>2026-04-25T10:07:07.941Z</time></trkpt><trkpt lat="43.5456649" lon="11.7492376"><ele>473.6</ele><time>2026-04-25T10:07:08.941Z</time></trkpt><trkpt lat="43.5457422" lon="11.7493123"><ele>475.4</ele><time>2026-04-25T10:07:09.93Z</time></trkpt><trkpt lat="43.5458227" lon="11.7493744"><ele>477.2</ele><time>2026-04-25T10:07:10.934Z</time></trkpt><trkpt lat="43.5458991" lon="11.7494061"><ele>479.0</ele><time>2026-04-25T10:07:11.934Z</time></trkpt><trkpt lat="43.5459864" lon="11.7494141"><ele>478.99999999999994</ele><time>2026-04-25T10:07:12.932Z</time></trkpt><trkpt lat="43.5460719" lon="11.7494255"><ele>479.0</ele><time>2026-04-25T10:07:13.929Z</time></trkpt><trkpt lat="43.5461482" lon="11.7494437"><ele>479.0</ele><time>2026-04-25T10:07:14.931Z</time></trkpt><trkpt lat="43.5462234" lon="11.749476"><ele>479.0</ele><time>2026-04-25T10:07:15.935Z</time></trkpt><trkpt lat="43.5463164" lon="11.749524"><ele>478.99999999999994</ele><time>2026-04-25T10:07:16.936Z</time></trkpt><trkpt lat="43.5464059" lon="11.7495906"><ele>479.0</ele><time>2026-04-25T10:07:17.934Z</time></trkpt><trkpt lat="43.5464917" lon="11.7496623"><ele>481.66666666666663</ele><time>2026-04-25T10:07:18.938Z</time></trkpt><trkpt lat="43.5465686" lon="11.7497183"><ele>484.3333333333333</ele><time>2026-04-25T10:07:19.932Z</time></trkpt><trkpt lat="43.5466415" lon="11.7497545"><ele>487.0</ele><time>2026-04-25T10:07:20.932Z</time></trkpt><trkpt lat="43.5467214" lon="11.749808"><ele>489.66666666666663</ele><time>2026-04-25T10:07:21.937Z</time></trkpt><trkpt lat="43.5467965" lon="11.7498794"><ele>492.3333333333333</ele><time>2026-04-25T10:07:22.943Z</time></trkpt><trkpt lat="43.5468739" lon="11.7499581"><ele>495.0</ele><time>2026-04-25T10:07:23.932Z</time></trkpt><trkpt lat="43.5469579" lon="11.7500129"><ele>495.8333333333333</ele><time>2026-04-25T10:07:24.936Z</time></trkpt><trkpt lat="43.5470511" lon="11.7500596"><ele>496.66666666666663</ele><time>2026-04-25T10:07:25.938Z</time></trkpt><trkpt lat="43.5471395" lon="11.7501042"><ele>497.5</ele><time>2026-04-25T10:07:26.927Z</time></trkpt><trkpt lat="43.547216" lon="11.7501672"><ele>498.3333333333333</ele><time>2026-04-25T10:07:27.934Z</time></trkpt><trkpt lat="43.5472858" lon="11.7502466"><ele>499.16666666666663</ele><time>2026-04-25T10:07:28.933Z</time></trkpt><trkpt lat="43.5473457" lon="11.7502948"><ele>500.0</ele><time>2026-04-25T10:07:29.94Z</time></trkpt><trkpt lat="43.5474261" lon="11.7503013"><ele>499.99999999999994</ele><time>2026-04-25T10:07:30.931Z</time></trkpt><trkpt lat="43.5475186" lon="11.7503093"><ele>500.0</ele><time>2026-04-25T10:07:31.931Z</time></trkpt><trkpt lat="43.547602" lon="11.750329"><ele>500.0</ele><time>2026-04-25T10:07:32.929Z</time></trkpt><trkpt lat="43.5476806" lon="11.7503051"><ele>500.0</ele><time>2026-04-25T10:07:34.928Z</time></trkpt><trkpt lat="43.5476401" lon="11.7501924"><ele>499.99999999999994</ele><time>2026-04-25T10:07:36.934Z</time></trkpt><trkpt lat="43.5475922" lon="11.7501271"><ele>500.0</ele><time>2026-04-25T10:07:37.926Z</time></trkpt><trkpt lat="43.547529" lon="11.7500469"><ele>502.8</ele><time>2026-04-25T10:07:38.925Z</time></trkpt><trkpt lat="43.5474623" lon="11.7499473"><ele>505.6</ele><time>2026-04-25T10:07:39.934Z</time></trkpt><trkpt lat="43.5474112" lon="11.7498459"><ele>508.4</ele><time>2026-04-25T10:07:40.93Z</time></trkpt><trkpt lat="43.5473717" lon="11.7497413"><ele>511.2</ele><time>2026-04-25T10:07:41.932Z</time></trkpt><trkpt lat="43.5473296" lon="11.7496158"><ele>514.0</ele><time>2026-04-25T10:07:42.925Z</time></trkpt><trkpt lat="43.5472802" lon="11.7494741"><ele>515.8</ele><time>2026-04-25T10:07:43.938Z</time></trkpt><trkpt lat="43.5472257" lon="11.7493324"><ele>517.5999999999999</ele><time>2026-04-25T10:07:44.94Z</time></trkpt><trkpt lat="43.5471797" lon="11.7492087"><ele>519.4</ele><time>2026-04-25T10:07:45.928Z</time></trkpt><trkpt lat="43.547133" lon="11.7490877"><ele>521.1999999999999</ele><time>2026-04-25T10:07:46.929Z</time></trkpt><trkpt lat="43.5471011" lon="11.7489786"><ele>523.0</ele><time>2026-04-25T10:07:47.935Z</time></trkpt><trkpt lat="43.5470975" lon="11.7488595"><ele>523.0</ele><time>2026-04-25T10:07:48.931Z</time></trkpt><trkpt lat="43.54711" lon="11.7487732"><ele>523.0</ele><time>2026-04-25T10:07:49.931Z</time></trkpt><trkpt lat="43.5471663" lon="11.7486631"><ele>523.0</ele><time>2026-04-25T10:07:51.922Z</time></trkpt><trkpt lat="43.5472876" lon="11.7486783"><ele>523.0</ele><time>2026-04-25T10:07:53.935Z</time></trkpt><trkpt lat="43.5473848" lon="11.7487294"><ele>523.0</ele><time>2026-04-25T10:07:54.933Z</time></trkpt><trkpt lat="43.5474961" lon="11.7487914"><ele>523.0</ele><time>2026-04-25T10:07:55.936Z</time></trkpt><trkpt lat="43.5476028" lon="11.7488555"><ele>523.0</ele><time>2026-04-25T10:07:56.935Z</time></trkpt><trkpt lat="43.5476945" lon="11.7489149"><ele>523.0</ele><time>2026-04-25T10:07:57.94Z</time></trkpt><trkpt lat="43.5477888" lon="11.748981"><ele>523.0</ele><time>2026-04-25T10:07:58.93Z</time></trkpt><trkpt lat="43.5478849" lon="11.7490562"><ele>523.0</ele><time>2026-04-25T10:07:59.933Z</time></trkpt><trkpt lat="43.54798" lon="11.7491389"><ele>523.8</ele><time>2026-04-25T10:08:00.938Z</time></trkpt><trkpt lat="43.5480657" lon="11.7492181"><ele>524.5999999999999</ele><time>2026-04-25T10:08:01.93Z</time></trkpt><trkpt lat="43.548157" lon="11.7492797"><ele>525.4000000000001</ele><time>2026-04-25T10:08:02.934Z</time></trkpt><trkpt lat="43.5482588" lon="11.7493344"><ele>526.2</ele><time>2026-04-25T10:08:03.934Z</time></trkpt><trkpt lat="43.5483739" lon="11.7493995"><ele>527.0</ele><time>2026-04-25T10:08:04.942Z</time></trkpt><trkpt lat="43.5484872" lon="11.7494669"><ele>527.25</ele><time>2026-04-25T10:08:05.935Z</time></trkpt><trkpt lat="43.5486013" lon="11.7495313"><ele>527.5</ele><time>2026-04-25T10:08:06.935Z</time></trkpt><trkpt lat="43.5487133" lon="11.7495911"><ele>527.75</ele><time>2026-04-25T10:08:07.938Z</time></trkpt><trkpt lat="43.5488206" lon="11.7496565"><ele>528.0</ele><time>2026-04-25T10:08:08.941Z</time></trkpt><trkpt lat="43.5489259" lon="11.7497084"><ele>530.75</ele><time>2026-04-25T10:08:09.94Z</time></trkpt><trkpt lat="43.5490226" lon="11.7497659"><ele>533.5</ele><time>2026-04-25T10:08:10.934Z</time></trkpt><trkpt lat="43.5491232" lon="11.7498339"><ele>536.25</ele><time>2026-04-25T10:08:11.933Z</time></trkpt><trkpt lat="43.5492257" lon="11.749909"><ele>539.0</ele><time>2026-04-25T10:08:12.941Z</time></trkpt><trkpt lat="43.5493413" lon="11.7499922"><ele>539.0</ele><time>2026-04-25T10:08:13.934Z</time></trkpt><trkpt lat="43.5494491" lon="11.7500715"><ele>539.0</ele><time>2026-04-25T10:08:14.93Z</time></trkpt><trkpt lat="43.5495525" lon="11.7501311"><ele>539.0</ele><time>2026-04-25T10:08:15.942Z</time></trkpt><trkpt lat="43.5496455" lon="11.7501753"><ele>539.0</ele><time>2026-04-25T10:08:16.933Z</time></trkpt><trkpt lat="43.5497337" lon="11.7502181"><ele>539.0</ele><time>2026-04-25T10:08:17.935Z</time></trkpt><trkpt lat="43.5498243" lon="11.7502742"><ele>539.5</ele><time>2026-04-25T10:08:18.938Z</time></trkpt><trkpt lat="43.5499165" lon="11.7503474"><ele>540.0</ele><time>2026-04-25T10:08:19.934Z</time></trkpt><trkpt lat="43.5500237" lon="11.7504151"><ele>540.5</ele><time>2026-04-25T10:08:20.937Z</time></trkpt><trkpt lat="43.5501388" lon="11.7504783"><ele>541.0</ele><time>2026-04-25T10:08:21.926Z</time></trkpt><trkpt lat="43.5502548" lon="11.7505354"><ele>541.0</ele><time>2026-04-25T10:08:22.93Z</time></trkpt><trkpt lat="43.550354" lon="11.7505766"><ele>541.0</ele><time>2026-04-25T10:08:23.928Z</time></trkpt><trkpt lat="43.550458" lon="11.7505901"><ele>541.0</ele><time>2026-04-25T10:08:24.942Z</time></trkpt><trkpt lat="43.5505683" lon="11.7505823"><ele>541.0</ele><time>2026-04-25T10:08:25.946Z</time></trkpt><trkpt lat="43.5506611" lon="11.7505786"><ele>541.0</ele><time>2026-04-25T10:08:26.932Z</time></trkpt><trkpt lat="43.5507335" lon="11.7505966"><ele>541.2</ele><time>2026-04-25T10:08:27.935Z</time></trkpt><trkpt lat="43.5507952" lon="11.7506422"><ele>541.4000000000001</ele><time>2026-04-25T10:08:28.932Z</time></trkpt><trkpt lat="43.5508614" lon="11.750718"><ele>541.6</ele><time>2026-04-25T10:08:29.938Z</time></trkpt><trkpt lat="43.5509341" lon="11.7508067"><ele>541.8000000000001</ele><time>2026-04-25T10:08:30.936Z</time></trkpt><trkpt lat="43.5510182" lon="11.7508864"><ele>542.0</ele><time>2026-04-25T10:08:31.929Z</time></trkpt><trkpt lat="43.5510996" lon="11.7509662"><ele>541.6</ele><time>2026-04-25T10:08:32.932Z</time></trkpt><trkpt lat="43.5511615" lon="11.7510496"><ele>541.2</ele><time>2026-04-25T10:08:33.931Z</time></trkpt><trkpt lat="43.5512086" lon="11.7511563"><ele>540.8</ele><time>2026-04-25T10:08:34.935Z</time></trkpt><trkpt lat="43.5512519" lon="11.7513085"><ele>540.4</ele><time>2026-04-25T10:08:35.926Z</time></trkpt><trkpt lat="43.5513036" lon="11.7514972"><ele>540.0</ele><time>2026-04-25T10:08:36.937Z</time></trkpt><trkpt lat="43.5513436" lon="11.7516884"><ele>542.0</ele><time>2026-04-25T10:08:37.942Z</time></trkpt><trkpt lat="43.5513734" lon="11.7518868"><ele>544.0</ele><time>2026-04-25T10:08:38.934Z</time></trkpt><trkpt lat="43.5513984" lon="11.7520759"><ele>546.0</ele><time>2026-04-25T10:08:39.941Z</time></trkpt><trkpt lat="43.5514224" lon="11.752244"><ele>548.0</ele><time>2026-04-25T10:08:40.941Z</time></trkpt><trkpt lat="43.5514395" lon="11.7524049"><ele>548.0</ele><time>2026-04-25T10:08:41.937Z</time></trkpt><trkpt lat="43.5514616" lon="11.7525428"><ele>548.0</ele><time>2026-04-25T10:08:42.936Z</time></trkpt><trkpt lat="43.5514927" lon="11.7526694"><ele>548.0</ele><time>2026-04-25T10:08:43.93Z</time></trkpt><trkpt lat="43.5515224" lon="11.7527709"><ele>548.0</ele><time>2026-04-25T10:08:44.932Z</time></trkpt><trkpt lat="43.551556" lon="11.7528547"><ele>548.0</ele><time>2026-04-25T10:08:45.929Z</time></trkpt><trkpt lat="43.5516094" lon="11.7529481"><ele>548.0</ele><time>2026-04-25T10:08:46.943Z</time></trkpt><trkpt lat="43.551663" lon="11.7530447"><ele>549.3333333333333</ele><time>2026-04-25T10:08:47.935Z</time></trkpt><trkpt lat="43.5517065" lon="11.7531331"><ele>550.6666666666666</ele><time>2026-04-25T10:08:48.946Z</time></trkpt><trkpt lat="43.5518002" lon="11.7532138"><ele>552.0</ele><time>2026-04-25T10:08:50.94Z</time></trkpt><trkpt lat="43.5518629" lon="11.7532388"><ele>553.3333333333334</ele><time>2026-04-25T10:08:51.93Z</time></trkpt><trkpt lat="43.5519178" lon="11.7532841"><ele>554.6666666666667</ele><time>2026-04-25T10:08:52.939Z</time></trkpt><trkpt lat="43.5519721" lon="11.7533421"><ele>556.0</ele><time>2026-04-25T10:08:53.939Z</time></trkpt><trkpt lat="43.5520827" lon="11.7534177"><ele>558.0</ele><time>2026-04-25T10:08:55.931Z</time></trkpt><trkpt lat="43.5521608" lon="11.7534438"><ele>560.0</ele><time>2026-04-25T10:08:56.933Z</time></trkpt><trkpt lat="43.5522498" lon="11.7534723"><ele>562.0</ele><time>2026-04-25T10:08:57.936Z</time></trkpt><trkpt lat="43.5523402" lon="11.7534961"><ele>564.0</ele><time>2026-04-25T10:08:58.931Z</time></trkpt><trkpt lat="43.552429" lon="11.7535096"><ele>566.0</ele><time>2026-04-25T10:08:59.923Z</time></trkpt><trkpt lat="43.5525129" lon="11.7535282"><ele>568.0</ele><time>2026-04-25T10:09:00.933Z</time></trkpt><trkpt lat="43.5526156" lon="11.7536135"><ele>568.0</ele><time>2026-04-25T10:09:02.931Z</time></trkpt><trkpt lat="43.5526609" lon="11.7536857"><ele>568.0</ele><time>2026-04-25T10:09:03.935Z</time></trkpt><trkpt lat="43.5527205" lon="11.7537785"><ele>568.0</ele><time>2026-04-25T10:09:04.942Z</time></trkpt><trkpt lat="43.5527661" lon="11.7538754"><ele>568.0</ele><time>2026-04-25T10:09:05.934Z</time></trkpt><trkpt lat="43.5528176" lon="11.7539445"><ele>568.0</ele><time>2026-04-25T10:09:06.935Z</time></trkpt><trkpt lat="43.5528788" lon="11.7539986"><ele>568.0</ele><time>2026-04-25T10:09:07.936Z</time></trkpt><trkpt lat="43.5529606" lon="11.7540385"><ele>571.8</ele><time>2026-04-25T10:09:08.925Z</time></trkpt><trkpt lat="43.5530492" lon="11.7540706"><ele>575.5999999999999</ele><time>2026-04-25T10:09:09.941Z</time></trkpt><trkpt lat="43.5531303" lon="11.7540861"><ele>579.4000000000001</ele><time>2026-04-25T10:09:10.937Z</time></trkpt><trkpt lat="43.5532379" lon="11.7540608"><ele>583.2</ele><time>2026-04-25T10:09:12.937Z</time></trkpt><trkpt lat="43.5533325" lon="11.7539824"><ele>587.0</ele><time>2026-04-25T10:09:14.932Z</time></trkpt><trkpt lat="43.5534362" lon="11.7539553"><ele>587.0</ele><time>2026-04-25T10:09:16.928Z</time></trkpt><trkpt lat="43.5535111" lon="11.7539536"><ele>587.0</ele><time>2026-04-25T10:09:17.935Z</time></trkpt><trkpt lat="43.5535955" lon="11.7539635"><ele>587.0</ele><time>2026-04-25T10:09:18.944Z</time></trkpt><trkpt lat="43.5536837" lon="11.7539836"><ele>587.0</ele><time>2026-04-25T10:09:19.924Z</time></trkpt><trkpt lat="43.553781" lon="11.7540147"><ele>587.0</ele><time>2026-04-25T10:09:20.938Z</time></trkpt><trkpt lat="43.5538684" lon="11.754043"><ele>587.0</ele><time>2026-04-25T10:09:21.93Z</time></trkpt><trkpt lat="43.5539412" lon="11.7540665"><ele>588.6</ele><time>2026-04-25T10:09:22.934Z</time></trkpt><trkpt lat="43.5540064" lon="11.7540857"><ele>590.2</ele><time>2026-04-25T10:09:23.932Z</time></trkpt><trkpt lat="43.55407" lon="11.7541115"><ele>591.8</ele><time>2026-04-25T10:09:24.939Z</time></trkpt><trkpt lat="43.5541699" lon="11.7541819"><ele>593.4</ele><time>2026-04-25T10:09:26.933Z</time></trkpt><trkpt lat="43.5542266" lon="11.7543015"><ele>595.0</ele><time>2026-04-25T10:09:28.939Z</time></trkpt><trkpt lat="43.5542435" lon="11.75445"><ele>596.2</ele><time>2026-04-25T10:09:30.932Z</time></trkpt><trkpt lat="43.5542908" lon="11.7545406"><ele>597.4</ele><time>2026-04-25T10:09:32.939Z</time></trkpt><trkpt lat="43.5543816" lon="11.7545745"><ele>598.6</ele><time>2026-04-25T10:09:34.935Z</time></trkpt><trkpt lat="43.5544812" lon="11.7546359"><ele>599.8</ele><time>2026-04-25T10:09:36.944Z</time></trkpt><trkpt lat="43.5545885" lon="11.7547468"><ele>601.0</ele><time>2026-04-25T10:09:38.931Z</time></trkpt><trkpt lat="43.5546599" lon="11.7547798"><ele>603.1666666666667</ele><time>2026-04-25T10:09:39.933Z</time></trkpt><trkpt lat="43.5547296" lon="11.7547865"><ele>605.3333333333334</ele><time>2026-04-25T10:09:40.937Z</time></trkpt><trkpt lat="43.5547977" lon="11.7547789"><ele>607.5</ele><time>2026-04-25T10:09:41.926Z</time></trkpt><trkpt lat="43.554874" lon="11.7547802"><ele>609.6666666666666</ele><time>2026-04-25T10:09:42.935Z</time></trkpt><trkpt lat="43.5549545" lon="11.7547984"><ele>611.8333333333333</ele><time>2026-04-25T10:09:43.941Z</time></trkpt><trkpt lat="43.555039" lon="11.7548241"><ele>614.0</ele><time>2026-04-25T10:09:44.932Z</time></trkpt><trkpt lat="43.5551171" lon="11.7548495"><ele>613.9999999999999</ele><time>2026-04-25T10:09:45.936Z</time></trkpt><trkpt lat="43.5551832" lon="11.7548811"><ele>614.0</ele><time>2026-04-25T10:09:46.94Z</time></trkpt><trkpt lat="43.5552498" lon="11.7549159"><ele>614.0</ele><time>2026-04-25T10:09:47.944Z</time></trkpt><trkpt lat="43.5553129" lon="11.7549544"><ele>614.0</ele><time>2026-04-25T10:09:48.929Z</time></trkpt><trkpt lat="43.5553832" lon="11.7549931"><ele>614.0</ele><time>2026-04-25T10:09:49.926Z</time></trkpt><trkpt lat="43.5554579" lon="11.7550276"><ele>613.9999999999999</ele><time>2026-04-25T10:09:50.95Z</time></trkpt><trkpt lat="43.5555285" lon="11.755059"><ele>614.0</ele><time>2026-04-25T10:09:51.928Z</time></trkpt><trkpt lat="43.5556063" lon="11.755092"><ele>615.8333333333333</ele><time>2026-04-25T10:09:52.929Z</time></trkpt><trkpt lat="43.5556904" lon="11.7551142"><ele>617.6666666666666</ele><time>2026-04-25T10:09:53.939Z</time></trkpt><trkpt lat="43.5557665" lon="11.7551288"><ele>619.5</ele><time>2026-04-25T10:09:54.941Z</time></trkpt><trkpt lat="43.5558325" lon="11.7551386"><ele>621.3333333333334</ele><time>2026-04-25T10:09:55.948Z</time></trkpt><trkpt lat="43.555925" lon="11.7551208"><ele>623.1666666666667</ele><time>2026-04-25T10:09:57.941Z</time></trkpt><trkpt lat="43.5560249" lon="11.7550896"><ele>625.0</ele><time>2026-04-25T10:09:59.939Z</time></trkpt><trkpt lat="43.5560881" lon="11.7550721"><ele>625.0</ele><time>2026-04-25T10:10:00.936Z</time></trkpt><trkpt lat="43.5561477" lon="11.7550426"><ele>625.0</ele><time>2026-04-25T10:10:01.931Z</time></trkpt><trkpt lat="43.5562088" lon="11.7550097"><ele>625.0</ele><time>2026-04-25T10:10:02.934Z</time></trkpt><trkpt lat="43.5562815" lon="11.7549662"><ele>625.0</ele><time>2026-04-25T10:10:03.936Z</time></trkpt><trkpt lat="43.5563745" lon="11.754915"><ele>625.0</ele><time>2026-04-25T10:10:04.941Z</time></trkpt><trkpt lat="43.5564733" lon="11.7548774"><ele>625.0</ele><time>2026-04-25T10:10:05.935Z</time></trkpt><trkpt lat="43.5565665" lon="11.7548564"><ele>627.0</ele><time>2026-04-25T10:10:06.941Z</time></trkpt><trkpt lat="43.5566582" lon="11.7548455"><ele>629.0</ele><time>2026-04-25T10:10:07.945Z</time></trkpt><trkpt lat="43.5567463" lon="11.7548404"><ele>631.0</ele><time>2026-04-25T10:10:08.934Z</time></trkpt><trkpt lat="43.5568222" lon="11.7548388"><ele>633.0</ele><time>2026-04-25T10:10:09.933Z</time></trkpt><trkpt lat="43.5568901" lon="11.7548619"><ele>635.0</ele><time>2026-04-25T10:10:10.925Z</time></trkpt><trkpt lat="43.5569793" lon="11.7549445"><ele>637.0</ele><time>2026-04-25T10:10:12.94Z</time></trkpt><trkpt lat="43.557008" lon="11.7550647"><ele>637.0</ele><time>2026-04-25T10:10:14.93Z</time></trkpt><trkpt lat="43.5569889" lon="11.7551779"><ele>637.0</ele><time>2026-04-25T10:10:16.926Z</time></trkpt><trkpt lat="43.5568986" lon="11.7553207"><ele>637.0</ele><time>2026-04-25T10:10:18.933Z</time></trkpt><trkpt lat="43.5568314" lon="11.7553894"><ele>637.0</ele><time>2026-04-25T10:10:19.943Z</time></trkpt><trkpt lat="43.5567848" lon="11.7554606"><ele>637.0</ele><time>2026-04-25T10:10:20.921Z</time></trkpt><trkpt lat="43.5567507" lon="11.7555407"><ele>637.0</ele><time>2026-04-25T10:10:21.923Z</time></trkpt><trkpt lat="43.5567403" lon="11.7556341"><ele>638.8</ele><time>2026-04-25T10:10:22.917Z</time></trkpt><trkpt lat="43.5567616" lon="11.7557477"><ele>640.6</ele><time>2026-04-25T10:10:23.925Z</time></trkpt><trkpt lat="43.5568007" lon="11.7558723"><ele>642.4</ele><time>2026-04-25T10:10:24.922Z</time></trkpt><trkpt lat="43.5568316" lon="11.7559907"><ele>644.1999999999999</ele><time>2026-04-25T10:10:25.927Z</time></trkpt><trkpt lat="43.5568484" lon="11.7560944"><ele>646.0</ele><time>2026-04-25T10:10:26.926Z</time></trkpt><trkpt lat="43.5568959" lon="11.7562492"><ele>647.4</ele><time>2026-04-25T10:10:28.924Z</time></trkpt><trkpt lat="43.5569526" lon="11.7563289"><ele>648.8</ele><time>2026-04-25T10:10:29.924Z</time></trkpt><trkpt lat="43.5570074" lon="11.7564219"><ele>650.1999999999999</ele><time>2026-04-25T10:10:30.925Z</time></trkpt><trkpt lat="43.557053" lon="11.7565285"><ele>651.5999999999999</ele><time>2026-04-25T10:10:31.923Z</time></trkpt><trkpt lat="43.557087" lon="11.7566658"><ele>653.0</ele><time>2026-04-25T10:10:32.925Z</time></trkpt><trkpt lat="43.5571078" lon="11.7568117"><ele>654.4</ele><time>2026-04-25T10:10:33.925Z</time></trkpt><trkpt lat="43.5571333" lon="11.7569472"><ele>655.8</ele><time>2026-04-25T10:10:34.925Z</time></trkpt><trkpt lat="43.5571534" lon="11.7570626"><ele>657.2</ele><time>2026-04-25T10:10:35.922Z</time></trkpt><trkpt lat="43.5571504" lon="11.7571842"><ele>658.6</ele><time>2026-04-25T10:10:36.928Z</time></trkpt><trkpt lat="43.5571527" lon="11.7573209"><ele>660.0</ele><time>2026-04-25T10:10:37.936Z</time></trkpt><trkpt lat="43.5571712" lon="11.7574522"><ele>660.0</ele><time>2026-04-25T10:10:38.945Z</time></trkpt><trkpt lat="43.5572008" lon="11.7575717"><ele>660.0</ele><time>2026-04-25T10:10:39.944Z</time></trkpt><trkpt lat="43.5572354" lon="11.757676"><ele>660.0</ele><time>2026-04-25T10:10:40.929Z</time></trkpt><trkpt lat="43.5573321" lon="11.7577557"><ele>660.0</ele><time>2026-04-25T10:10:42.93Z</time></trkpt><trkpt lat="43.5574128" lon="11.7577816"><ele>660.0</ele><time>2026-04-25T10:10:43.919Z</time></trkpt><trkpt lat="43.557499" lon="11.7578043"><ele>659.8333333333334</ele><time>2026-04-25T10:10:44.925Z</time></trkpt><trkpt lat="43.5575706" lon="11.7578099"><ele>659.6666666666666</ele><time>2026-04-25T10:10:45.929Z</time></trkpt><trkpt lat="43.5576889" lon="11.7578339"><ele>659.5</ele><time>2026-04-25T10:10:47.928Z</time></trkpt><trkpt lat="43.5577541" lon="11.7578834"><ele>659.3333333333333</ele><time>2026-04-25T10:10:48.98Z</time></trkpt><trkpt lat="43.5578159" lon="11.7579429"><ele>659.1666666666666</ele><time>2026-04-25T10:10:49.923Z</time></trkpt><trkpt lat="43.5578818" lon="11.7580124"><ele>659.0</ele><time>2026-04-25T10:10:50.928Z</time></trkpt><trkpt lat="43.5579534" lon="11.7580633"><ele>659.0</ele><time>2026-04-25T10:10:51.925Z</time></trkpt><trkpt lat="43.5580293" lon="11.7581114"><ele>659.0</ele><time>2026-04-25T10:10:52.94Z</time></trkpt><trkpt lat="43.5581101" lon="11.7581622"><ele>659.0</ele><time>2026-04-25T10:10:53.929Z</time></trkpt><trkpt lat="43.5581901" lon="11.7582176"><ele>659.0</ele><time>2026-04-25T10:10:54.937Z</time></trkpt><trkpt lat="43.5582658" lon="11.7582829"><ele>659.0</ele><time>2026-04-25T10:10:55.935Z</time></trkpt><trkpt lat="43.5583451" lon="11.7583582"><ele>659.0</ele><time>2026-04-25T10:10:56.942Z</time></trkpt><trkpt lat="43.5584301" lon="11.758429"><ele>659.0</ele><time>2026-04-25T10:10:57.932Z</time></trkpt><trkpt lat="43.5585246" lon="11.7584772"><ele>659.0</ele><time>2026-04-25T10:10:58.924Z</time></trkpt><trkpt lat="43.5586351" lon="11.7585332"><ele>659.0</ele><time>2026-04-25T10:10:59.927Z</time></trkpt><trkpt lat="43.5587463" lon="11.7585935"><ele>659.0</ele><time>2026-04-25T10:11:00.928Z</time></trkpt><trkpt lat="43.5588482" lon="11.7586407"><ele>659.0</ele><time>2026-04-25T10:11:01.946Z</time></trkpt><trkpt lat="43.5589352" lon="11.7586917"><ele>658.8333333333333</ele><time>2026-04-25T10:11:02.938Z</time></trkpt><trkpt lat="43.5590157" lon="11.7587451"><ele>658.6666666666666</ele><time>2026-04-25T10:11:03.928Z</time></trkpt><trkpt lat="43.5590954" lon="11.7587795"><ele>658.5</ele><time>2026-04-25T10:11:04.938Z</time></trkpt><trkpt lat="43.5591634" lon="11.7587976"><ele>658.3333333333334</ele><time>2026-04-25T10:11:05.935Z</time></trkpt><trkpt lat="43.5592263" lon="11.7588135"><ele>658.1666666666667</ele><time>2026-04-25T10:11:06.935Z</time></trkpt><trkpt lat="43.5593264" lon="11.7588164"><ele>658.0</ele><time>2026-04-25T10:11:08.937Z</time></trkpt><trkpt lat="43.559394" lon="11.7588095"><ele>658.0</ele><time>2026-04-25T10:13:47.932Z</time></trkpt><trkpt lat="43.5594694" lon="11.7588199"><ele>658.0</ele><time>2026-04-25T10:13:54.936Z</time></trkpt><trkpt lat="43.559576" lon="11.7588299"><ele>658.0</ele><time>2026-04-25T10:13:56.93Z</time></trkpt><trkpt lat="43.5596534" lon="11.7588336"><ele>658.0</ele><time>2026-04-25T10:13:58.93Z</time></trkpt><trkpt lat="43.5597349" lon="11.7588574"><ele>658.0</ele><time>2026-04-25T10:14:02.938Z</time></trkpt><trkpt lat="43.5597954" lon="11.7588822"><ele>658.0</ele><time>2026-04-25T10:14:04.927Z</time></trkpt><trkpt lat="43.5598628" lon="11.7588876"><ele>658.8333333333334</ele><time>2026-04-25T10:14:06.94Z</time></trkpt><trkpt lat="43.559928" lon="11.7588819"><ele>659.6666666666667</ele><time>2026-04-25T10:14:08.933Z</time></trkpt><trkpt lat="43.5600158" lon="11.7588969"><ele>660.5</ele><time>2026-04-25T10:14:11.929Z</time></trkpt><trkpt lat="43.560086" lon="11.7589108"><ele>661.3333333333334</ele><time>2026-04-25T10:14:13.931Z</time></trkpt><trkpt lat="43.5601726" lon="11.7588425"><ele>662.1666666666666</ele><time>2026-04-25T10:14:15.94Z</time></trkpt><trkpt lat="43.5602611" lon="11.7587726"><ele>663.0</ele><time>2026-04-25T10:14:17.937Z</time></trkpt><trkpt lat="43.5603229" lon="11.7587373"><ele>662.8333333333334</ele><time>2026-04-25T10:14:19.926Z</time></trkpt><trkpt lat="43.5603874" lon="11.7587222"><ele>662.6666666666666</ele><time>2026-04-25T10:14:21.956Z</time></trkpt><trkpt lat="43.5604999" lon="11.7587103"><ele>662.5</ele><time>2026-04-25T10:14:23.926Z</time></trkpt><trkpt lat="43.5605945" lon="11.758683"><ele>662.3333333333333</ele><time>2026-04-25T10:14:25.932Z</time></trkpt><trkpt lat="43.5606609" lon="11.7586838"><ele>662.1666666666666</ele><time>2026-04-25T10:14:27.941Z</time></trkpt><trkpt lat="43.5607337" lon="11.7586977"><ele>662.0</ele><time>2026-04-25T10:14:30.941Z</time></trkpt><trkpt lat="43.5608103" lon="11.7586519"><ele>662.0</ele><time>2026-04-25T10:14:34.939Z</time></trkpt><trkpt lat="43.5608947" lon="11.7585744"><ele>662.0</ele><time>2026-04-25T10:14:36.94Z</time></trkpt><trkpt lat="43.5609734" lon="11.7584833"><ele>662.0</ele><time>2026-04-25T10:14:38.944Z</time></trkpt><trkpt lat="43.5610464" lon="11.7583845"><ele>662.0</ele><time>2026-04-25T10:14:40.942Z</time></trkpt><trkpt lat="43.5611004" lon="11.7583301"><ele>662.0</ele><time>2026-04-25T10:14:42.927Z</time></trkpt><trkpt lat="43.5611688" lon="11.7583214"><ele>662.0</ele><time>2026-04-25T10:15:42.927Z</time></trkpt><trkpt lat="43.5612505" lon="11.7583426"><ele>663.1666666666666</ele><time>2026-04-25T10:15:45.938Z</time></trkpt><trkpt lat="43.5613136" lon="11.7583143"><ele>664.3333333333333</ele><time>2026-04-25T10:15:49.938Z</time></trkpt><trkpt lat="43.5613657" lon="11.7582476"><ele>665.5</ele><time>2026-04-25T10:15:51.934Z</time></trkpt><trkpt lat="43.5613001" lon="11.7583195"><ele>666.6666666666666</ele><time>2026-04-25T10:16:37.929Z</time></trkpt><trkpt lat="43.561232" lon="11.7583545"><ele>667.8333333333334</ele><time>2026-04-25T10:16:39.934Z</time></trkpt><trkpt lat="43.5611464" lon="11.7583571"><ele>669.0</ele><time>2026-04-25T10:16:41.928Z</time></trkpt><trkpt lat="43.5610723" lon="11.7583788"><ele>669.0</ele><time>2026-04-25T10:16:43.937Z</time></trkpt><trkpt lat="43.561015" lon="11.7584553"><ele>669.0</ele><time>2026-04-25T10:16:45.933Z</time></trkpt><trkpt lat="43.5609525" lon="11.7585553"><ele>669.0</ele><time>2026-04-25T10:16:47.936Z</time></trkpt><trkpt lat="43.5608704" lon="11.7586389"><ele>669.0</ele><time>2026-04-25T10:16:49.927Z</time></trkpt><trkpt lat="43.5607859" lon="11.7586992"><ele>669.0</ele><time>2026-04-25T10:16:51.937Z</time></trkpt><trkpt lat="43.560708" lon="11.7587757"><ele>668.0</ele><time>2026-04-25T10:16:54.939Z</time></trkpt><trkpt lat="43.5606647" lon="11.7588643"><ele>667.0</ele><time>2026-04-25T10:16:56.923Z</time></trkpt><trkpt lat="43.5606146" lon="11.7589301"><ele>666.0</ele><time>2026-04-25T10:16:58.943Z</time></trkpt><trkpt lat="43.5605536" lon="11.7589668"><ele>665.0</ele><time>2026-04-25T10:17:00.933Z</time></trkpt><trkpt lat="43.5604512" lon="11.7590003"><ele>664.0</ele><time>2026-04-25T10:17:02.934Z</time></trkpt><trkpt lat="43.56034" lon="11.7590277"><ele>663.0</ele><time>2026-04-25T10:17:04.936Z</time></trkpt><trkpt lat="43.5602402" lon="11.7590395"><ele>662.9999999999999</ele><time>2026-04-25T10:17:06.935Z</time></trkpt><trkpt lat="43.5601668" lon="11.7590252"><ele>663.0</ele><time>2026-04-25T10:17:07.934Z</time></trkpt><trkpt lat="43.5600926" lon="11.7590083"><ele>663.0</ele><time>2026-04-25T10:17:08.935Z</time></trkpt><trkpt lat="43.5600181" lon="11.7589854"><ele>663.0</ele><time>2026-04-25T10:17:09.93Z</time></trkpt><trkpt lat="43.5599465" lon="11.7589738"><ele>663.0</ele><time>2026-04-25T10:17:10.929Z</time></trkpt><trkpt lat="43.5598745" lon="11.7589615"><ele>662.9999999999999</ele><time>2026-04-25T10:17:11.92Z</time></trkpt><trkpt lat="43.5597996" lon="11.7589642"><ele>663.0</ele><time>2026-04-25T10:17:12.943Z</time></trkpt><trkpt lat="43.559721" lon="11.7589734"><ele>663.0</ele><time>2026-04-25T10:17:13.933Z</time></trkpt><trkpt lat="43.5596343" lon="11.7589819"><ele>663.0</ele><time>2026-04-25T10:17:14.938Z</time></trkpt><trkpt lat="43.5595546" lon="11.7589849"><ele>663.0</ele><time>2026-04-25T10:17:15.934Z</time></trkpt><trkpt lat="43.5594786" lon="11.7589584"><ele>663.0</ele><time>2026-04-25T10:17:16.941Z</time></trkpt><trkpt lat="43.5593917" lon="11.7589307"><ele>663.0</ele><time>2026-04-25T10:17:17.946Z</time></trkpt><trkpt lat="43.5593104" lon="11.7588951"><ele>663.0</ele><time>2026-04-25T10:17:18.936Z</time></trkpt><trkpt lat="43.5592292" lon="11.7588539"><ele>662.0</ele><time>2026-04-25T10:17:19.931Z</time></trkpt><trkpt lat="43.5591466" lon="11.7588144"><ele>661.0</ele><time>2026-04-25T10:17:20.943Z</time></trkpt><trkpt lat="43.559061" lon="11.7587662"><ele>660.0</ele><time>2026-04-25T10:17:21.931Z</time></trkpt><trkpt lat="43.5589749" lon="11.7587168"><ele>659.0</ele><time>2026-04-25T10:17:22.936Z</time></trkpt><trkpt lat="43.558892" lon="11.758662"><ele>658.0</ele><time>2026-04-25T10:17:23.936Z</time></trkpt><trkpt lat="43.5588058" lon="11.7586121"><ele>658.0</ele><time>2026-04-25T10:17:24.919Z</time></trkpt><trkpt lat="43.558726" lon="11.7585605"><ele>658.0</ele><time>2026-04-25T10:17:25.926Z</time></trkpt><trkpt lat="43.558645" lon="11.7585177"><ele>658.0</ele><time>2026-04-25T10:17:26.922Z</time></trkpt><trkpt lat="43.5585546" lon="11.7584782"><ele>658.0</ele><time>2026-04-25T10:17:27.927Z</time></trkpt><trkpt lat="43.5584707" lon="11.7584363"><ele>658.0</ele><time>2026-04-25T10:17:28.946Z</time></trkpt><trkpt lat="43.5584098" lon="11.7583853"><ele>658.0</ele><time>2026-04-25T10:17:29.931Z</time></trkpt><trkpt lat="43.5583522" lon="11.7583343"><ele>658.1666666666667</ele><time>2026-04-25T10:17:30.941Z</time></trkpt><trkpt lat="43.5582861" lon="11.758276"><ele>658.3333333333334</ele><time>2026-04-25T10:17:31.936Z</time></trkpt><trkpt lat="43.5582134" lon="11.7582068"><ele>658.5</ele><time>2026-04-25T10:17:32.93Z</time></trkpt><trkpt lat="43.5581404" lon="11.7581494"><ele>658.6666666666666</ele><time>2026-04-25T10:17:33.947Z</time></trkpt><trkpt lat="43.5580641" lon="11.758099"><ele>658.8333333333333</ele><time>2026-04-25T10:17:34.931Z</time></trkpt><trkpt lat="43.5579793" lon="11.7580432"><ele>659.0</ele><time>2026-04-25T10:17:35.932Z</time></trkpt><trkpt lat="43.5578908" lon="11.7579769"><ele>658.3333333333333</ele><time>2026-04-25T10:17:36.933Z</time></trkpt><trkpt lat="43.5578099" lon="11.7579086"><ele>657.6666666666666</ele><time>2026-04-25T10:17:37.937Z</time></trkpt><trkpt lat="43.5577439" lon="11.7578487"><ele>657.0</ele><time>2026-04-25T10:17:38.925Z</time></trkpt><trkpt lat="43.557678" lon="11.7578093"><ele>656.3333333333334</ele><time>2026-04-25T10:17:39.939Z</time></trkpt><trkpt lat="43.5575596" lon="11.7577992"><ele>655.6666666666667</ele><time>2026-04-25T10:17:41.94Z</time></trkpt><trkpt lat="43.5574911" lon="11.7577968"><ele>655.0</ele><time>2026-04-25T10:17:42.926Z</time></trkpt><trkpt lat="43.5574202" lon="11.7577663"><ele>655.0</ele><time>2026-04-25T10:17:43.943Z</time></trkpt><trkpt lat="43.5573536" lon="11.7577387"><ele>655.0</ele><time>2026-04-25T10:17:44.939Z</time></trkpt><trkpt lat="43.5572589" lon="11.7576936"><ele>655.0</ele><time>2026-04-25T10:17:46.929Z</time></trkpt><trkpt lat="43.5572131" lon="11.7575951"><ele>655.0</ele><time>2026-04-25T10:17:48.937Z</time></trkpt><trkpt lat="43.5571777" lon="11.7574447"><ele>655.0</ele><time>2026-04-25T10:17:50.94Z</time></trkpt><trkpt lat="43.5571645" lon="11.7573398"><ele>655.0</ele><time>2026-04-25T10:17:51.943Z</time></trkpt><trkpt lat="43.5571567" lon="11.7572362"><ele>655.3333333333334</ele><time>2026-04-25T10:17:52.933Z</time></trkpt><trkpt lat="43.5571528" lon="11.7571294"><ele>655.6666666666667</ele><time>2026-04-25T10:17:53.931Z</time></trkpt><trkpt lat="43.5571519" lon="11.7570119"><ele>656.0</ele><time>2026-04-25T10:17:54.929Z</time></trkpt><trkpt lat="43.5571386" lon="11.756892"><ele>656.3333333333334</ele><time>2026-04-25T10:17:55.939Z</time></trkpt><trkpt lat="43.5571164" lon="11.7567922"><ele>656.6666666666666</ele><time>2026-04-25T10:17:56.942Z</time></trkpt><trkpt lat="43.5570896" lon="11.7566805"><ele>657.0</ele><time>2026-04-25T10:17:57.939Z</time></trkpt><trkpt lat="43.5570552" lon="11.7565646"><ele>656.3333333333334</ele><time>2026-04-25T10:17:58.928Z</time></trkpt><trkpt lat="43.5570146" lon="11.7564661"><ele>655.6666666666666</ele><time>2026-04-25T10:17:59.934Z</time></trkpt><trkpt lat="43.5569635" lon="11.7563718"><ele>655.0</ele><time>2026-04-25T10:18:00.942Z</time></trkpt><trkpt lat="43.5569186" lon="11.7562805"><ele>654.3333333333333</ele><time>2026-04-25T10:18:01.929Z</time></trkpt><trkpt lat="43.5568696" lon="11.7561901"><ele>653.6666666666666</ele><time>2026-04-25T10:18:02.938Z</time></trkpt><trkpt lat="43.5568366" lon="11.756112"><ele>653.0</ele><time>2026-04-25T10:18:03.938Z</time></trkpt><trkpt lat="43.5567977" lon="11.7559662"><ele>651.8333333333333</ele><time>2026-04-25T10:18:05.933Z</time></trkpt><trkpt lat="43.556783" lon="11.7558767"><ele>650.6666666666666</ele><time>2026-04-25T10:18:06.924Z</time></trkpt><trkpt lat="43.5567645" lon="11.755784"><ele>649.5</ele><time>2026-04-25T10:18:07.941Z</time></trkpt><trkpt lat="43.5567281" lon="11.7556342"><ele>648.3333333333334</ele><time>2026-04-25T10:18:09.937Z</time></trkpt><trkpt lat="43.5567578" lon="11.7554955"><ele>647.1666666666667</ele><time>2026-04-25T10:18:11.925Z</time></trkpt><trkpt lat="43.5568024" lon="11.7554175"><ele>646.0</ele><time>2026-04-25T10:18:12.931Z</time></trkpt><trkpt lat="43.5568572" lon="11.7553457"><ele>646.0</ele><time>2026-04-25T10:18:13.934Z</time></trkpt><trkpt lat="43.5569133" lon="11.7552828"><ele>646.0</ele><time>2026-04-25T10:18:14.927Z</time></trkpt><trkpt lat="43.5569659" lon="11.7552199"><ele>646.0</ele><time>2026-04-25T10:18:15.931Z</time></trkpt><trkpt lat="43.5570154" lon="11.7550976"><ele>646.0</ele><time>2026-04-25T10:18:17.93Z</time></trkpt><trkpt lat="43.5569728" lon="11.7549549"><ele>646.0</ele><time>2026-04-25T10:18:19.926Z</time></trkpt><trkpt lat="43.5568737" lon="11.754858"><ele>644.1999999999999</ele><time>2026-04-25T10:18:21.932Z</time></trkpt><trkpt lat="43.5568001" lon="11.7548408"><ele>642.4</ele><time>2026-04-25T10:18:22.927Z</time></trkpt><trkpt lat="43.5567106" lon="11.7548323"><ele>640.6</ele><time>2026-04-25T10:18:23.936Z</time></trkpt><trkpt lat="43.556602" lon="11.754846"><ele>638.8</ele><time>2026-04-25T10:18:24.929Z</time></trkpt><trkpt lat="43.5564944" lon="11.7548732"><ele>637.0</ele><time>2026-04-25T10:18:25.937Z</time></trkpt><trkpt lat="43.5563994" lon="11.7549077"><ele>637.0</ele><time>2026-04-25T10:18:26.928Z</time></trkpt><trkpt lat="43.5563083" lon="11.7549492"><ele>637.0</ele><time>2026-04-25T10:18:27.926Z</time></trkpt><trkpt lat="43.556223" lon="11.7549971"><ele>637.0</ele><time>2026-04-25T10:18:28.931Z</time></trkpt><trkpt lat="43.556153" lon="11.7550434"><ele>637.0</ele><time>2026-04-25T10:18:29.944Z</time></trkpt><trkpt lat="43.5560899" lon="11.7550876"><ele>637.0</ele><time>2026-04-25T10:18:30.941Z</time></trkpt><trkpt lat="43.5559754" lon="11.7551145"><ele>635.0</ele><time>2026-04-25T10:18:32.934Z</time></trkpt><trkpt lat="43.5558629" lon="11.7551187"><ele>633.0</ele><time>2026-04-25T10:18:34.931Z</time></trkpt><trkpt lat="43.5557639" lon="11.7551469"><ele>631.0</ele><time>2026-04-25T10:18:36.928Z</time></trkpt><trkpt lat="43.555698" lon="11.7551325"><ele>629.0</ele><time>2026-04-25T10:18:37.941Z</time></trkpt><trkpt lat="43.5556207" lon="11.7551068"><ele>627.0</ele><time>2026-04-25T10:18:38.934Z</time></trkpt><trkpt lat="43.5555518" lon="11.7550909"><ele>625.0</ele><time>2026-04-25T10:18:39.923Z</time></trkpt><trkpt lat="43.5554481" lon="11.7550378"><ele>623.1666666666667</ele><time>2026-04-25T10:18:41.93Z</time></trkpt><trkpt lat="43.5553363" lon="11.7549787"><ele>621.3333333333334</ele><time>2026-04-25T10:18:43.926Z</time></trkpt><trkpt lat="43.5552748" lon="11.7549546"><ele>619.5</ele><time>2026-04-25T10:18:44.936Z</time></trkpt><trkpt lat="43.5552103" lon="11.7549183"><ele>617.6666666666666</ele><time>2026-04-25T10:18:45.931Z</time></trkpt><trkpt lat="43.5551425" lon="11.7548734"><ele>615.8333333333333</ele><time>2026-04-25T10:18:46.936Z</time></trkpt><trkpt lat="43.5550702" lon="11.7548311"><ele>614.0</ele><time>2026-04-25T10:18:47.941Z</time></trkpt><trkpt lat="43.5550036" lon="11.7548015"><ele>613.9999999999999</ele><time>2026-04-25T10:18:48.944Z</time></trkpt><trkpt lat="43.5549301" lon="11.7547917"><ele>614.0</ele><time>2026-04-25T10:18:49.944Z</time></trkpt><trkpt lat="43.5548501" lon="11.7547937"><ele>614.0</ele><time>2026-04-25T10:18:50.937Z</time></trkpt><trkpt lat="43.5547742" lon="11.7547975"><ele>614.0</ele><time>2026-04-25T10:18:51.932Z</time></trkpt><trkpt lat="43.5547102" lon="11.7547921"><ele>614.0</ele><time>2026-04-25T10:18:52.933Z</time></trkpt><trkpt lat="43.5546451" lon="11.7547691"><ele>613.9999999999999</ele><time>2026-04-25T10:18:53.938Z</time></trkpt><trkpt lat="43.5545769" lon="11.7547513"><ele>614.0</ele><time>2026-04-25T10:18:54.931Z</time></trkpt><trkpt lat="43.5545137" lon="11.7547202"><ele>611.4</ele><time>2026-04-25T10:18:55.935Z</time></trkpt><trkpt lat="43.5544227" lon="11.7546162"><ele>608.8</ele><time>2026-04-25T10:18:57.931Z</time></trkpt><trkpt lat="43.5543252" lon="11.7545447"><ele>606.2</ele><time>2026-04-25T10:18:59.944Z</time></trkpt><trkpt lat="43.5542221" lon="11.7545005"><ele>603.6</ele><time>2026-04-25T10:19:01.935Z</time></trkpt><trkpt lat="43.5541713" lon="11.754427"><ele>601.0</ele><time>2026-04-25T10:19:03.945Z</time></trkpt><trkpt lat="43.5541958" lon="11.7542963"><ele>600.0</ele><time>2026-04-25T10:19:05.93Z</time></trkpt><trkpt lat="43.5541627" lon="11.7541974"><ele>599.0</ele><time>2026-04-25T10:19:07.942Z</time></trkpt><trkpt lat="43.5540512" lon="11.7541267"><ele>598.0</ele><time>2026-04-25T10:19:09.932Z</time></trkpt><trkpt lat="43.5539761" lon="11.754113"><ele>597.0</ele><time>2026-04-25T10:19:10.945Z</time></trkpt><trkpt lat="43.553893" lon="11.75409"><ele>596.0</ele><time>2026-04-25T10:19:11.933Z</time></trkpt><trkpt lat="43.5538102" lon="11.7540552"><ele>595.0</ele><time>2026-04-25T10:19:12.933Z</time></trkpt><trkpt lat="43.5537257" lon="11.7540255"><ele>593.4</ele><time>2026-04-25T10:19:13.925Z</time></trkpt><trkpt lat="43.5536418" lon="11.754"><ele>591.8</ele><time>2026-04-25T10:19:14.944Z</time></trkpt><trkpt lat="43.553556" lon="11.7539681"><ele>590.2</ele><time>2026-04-25T10:19:15.937Z</time></trkpt><trkpt lat="43.5534883" lon="11.7539529"><ele>588.6</ele><time>2026-04-25T10:19:16.936Z</time></trkpt><trkpt lat="43.5533755" lon="11.7539425"><ele>587.0</ele><time>2026-04-25T10:19:18.923Z</time></trkpt><trkpt lat="43.5532766" lon="11.7539786"><ele>587.0</ele><time>2026-04-25T10:19:20.936Z</time></trkpt><trkpt lat="43.5532088" lon="11.7540483"><ele>587.0</ele><time>2026-04-25T10:19:22.931Z</time></trkpt><trkpt lat="43.5531396" lon="11.7540843"><ele>587.0</ele><time>2026-04-25T10:19:24.93Z</time></trkpt><trkpt lat="43.5530224" lon="11.7540406"><ele>587.0</ele><time>2026-04-25T10:19:26.934Z</time></trkpt><trkpt lat="43.5529555" lon="11.7540222"><ele>587.0</ele><time>2026-04-25T10:19:27.929Z</time></trkpt><trkpt lat="43.5528913" lon="11.7540058"><ele>587.0</ele><time>2026-04-25T10:19:28.935Z</time></trkpt><trkpt lat="43.5528306" lon="11.7539656"><ele>584.1666666666666</ele><time>2026-04-25T10:19:29.94Z</time></trkpt><trkpt lat="43.5527542" lon="11.7538608"><ele>581.3333333333333</ele><time>2026-04-25T10:19:31.938Z</time></trkpt><trkpt lat="43.5527129" lon="11.7537804"><ele>578.5</ele><time>2026-04-25T10:19:32.938Z</time></trkpt><trkpt lat="43.5526701" lon="11.7536947"><ele>575.6666666666666</ele><time>2026-04-25T10:19:33.92Z</time></trkpt><trkpt lat="43.5526294" lon="11.7536218"><ele>572.8333333333334</ele><time>2026-04-25T10:19:34.932Z</time></trkpt><trkpt lat="43.5525413" lon="11.7535262"><ele>570.0</ele><time>2026-04-25T10:19:36.941Z</time></trkpt><trkpt lat="43.5524236" lon="11.7535119"><ele>570.0</ele><time>2026-04-25T10:19:38.935Z</time></trkpt><trkpt lat="43.5523566" lon="11.7535158"><ele>570.0</ele><time>2026-04-25T10:19:39.929Z</time></trkpt><trkpt lat="43.5522909" lon="11.7535044"><ele>570.0</ele><time>2026-04-25T10:19:40.93Z</time></trkpt><trkpt lat="43.5522259" lon="11.7534835"><ele>570.0</ele><time>2026-04-25T10:19:41.936Z</time></trkpt><trkpt lat="43.5520984" lon="11.7534498"><ele>570.0</ele><time>2026-04-25T10:19:43.931Z</time></trkpt><trkpt lat="43.5520382" lon="11.7534227"><ele>570.0</ele><time>2026-04-25T10:19:44.937Z</time></trkpt><trkpt lat="43.5519523" lon="11.7533796"><ele>566.5</ele><time>2026-04-25T10:19:46.933Z</time></trkpt><trkpt lat="43.5518684" lon="11.7532877"><ele>563.0</ele><time>2026-04-25T10:19:48.936Z</time></trkpt><trkpt lat="43.5517521" lon="11.7532004"><ele>559.5</ele><time>2026-04-25T10:19:50.934Z</time></trkpt><trkpt lat="43.5516609" lon="11.7531128"><ele>556.0</ele><time>2026-04-25T10:19:52.939Z</time></trkpt><trkpt lat="43.5515936" lon="11.7529682"><ele>556.0</ele><time>2026-04-25T10:19:54.96Z</time></trkpt><trkpt lat="43.5515629" lon="11.7528713"><ele>556.0</ele><time>2026-04-25T10:19:55.929Z</time></trkpt><trkpt lat="43.5515348" lon="11.7527843"><ele>556.0</ele><time>2026-04-25T10:19:56.933Z</time></trkpt><trkpt lat="43.5515081" lon="11.752703"><ele>556.0</ele><time>2026-04-25T10:19:57.927Z</time></trkpt><trkpt lat="43.5514811" lon="11.7526062"><ele>556.0</ele><time>2026-04-25T10:19:58.942Z</time></trkpt><trkpt lat="43.5514632" lon="11.7525083"><ele>556.0</ele><time>2026-04-25T10:19:59.934Z</time></trkpt><trkpt lat="43.5514404" lon="11.7523994"><ele>556.0</ele><time>2026-04-25T10:20:00.937Z</time></trkpt><trkpt lat="43.5514144" lon="11.7522661"><ele>554.4</ele><time>2026-04-25T10:20:01.944Z</time></trkpt><trkpt lat="43.5513979" lon="11.7521381"><ele>552.8</ele><time>2026-04-25T10:20:02.935Z</time></trkpt><trkpt lat="43.5513787" lon="11.7520053"><ele>551.1999999999999</ele><time>2026-04-25T10:20:03.933Z</time></trkpt><trkpt lat="43.5513641" lon="11.7518638"><ele>549.6</ele><time>2026-04-25T10:20:04.922Z</time></trkpt><trkpt lat="43.5513372" lon="11.7516923"><ele>548.0</ele><time>2026-04-25T10:20:05.936Z</time></trkpt><trkpt lat="43.5512994" lon="11.7515132"><ele>546.8</ele><time>2026-04-25T10:20:06.941Z</time></trkpt><trkpt lat="43.5512632" lon="11.7513516"><ele>545.5999999999999</ele><time>2026-04-25T10:20:07.924Z</time></trkpt><trkpt lat="43.5512254" lon="11.7511974"><ele>544.4000000000001</ele><time>2026-04-25T10:20:08.936Z</time></trkpt><trkpt lat="43.5511847" lon="11.7510801"><ele>543.2</ele><time>2026-04-25T10:20:09.946Z</time></trkpt><trkpt lat="43.5511332" lon="11.7509883"><ele>542.0</ele><time>2026-04-25T10:20:10.939Z</time></trkpt><trkpt lat="43.5510632" lon="11.7509164"><ele>542.0</ele><time>2026-04-25T10:20:11.929Z</time></trkpt><trkpt lat="43.5509739" lon="11.7508381"><ele>542.0</ele><time>2026-04-25T10:20:12.925Z</time></trkpt><trkpt lat="43.5508921" lon="11.750759"><ele>542.0</ele><time>2026-04-25T10:20:13.936Z</time></trkpt><trkpt lat="43.550814" lon="11.7506833"><ele>542.0</ele><time>2026-04-25T10:20:14.933Z</time></trkpt><trkpt lat="43.5507467" lon="11.7506156"><ele>542.0</ele><time>2026-04-25T10:20:15.936Z</time></trkpt><trkpt lat="43.5506863" lon="11.7505789"><ele>542.0</ele><time>2026-04-25T10:20:16.932Z</time></trkpt><trkpt lat="43.5506134" lon="11.7505739"><ele>542.0</ele><time>2026-04-25T10:20:17.956Z</time></trkpt><trkpt lat="43.5505403" lon="11.7505754"><ele>542.0</ele><time>2026-04-25T10:20:18.944Z</time></trkpt><trkpt lat="43.5504507" lon="11.7505678"><ele>542.0</ele><time>2026-04-25T10:20:19.921Z</time></trkpt><trkpt lat="43.5503587" lon="11.750565"><ele>542.0</ele><time>2026-04-25T10:20:20.927Z</time></trkpt><trkpt lat="43.5502726" lon="11.7505348"><ele>542.0</ele><time>2026-04-25T10:20:21.932Z</time></trkpt><trkpt lat="43.5501741" lon="11.7504891"><ele>541.8000000000001</ele><time>2026-04-25T10:20:22.931Z</time></trkpt><trkpt lat="43.5500711" lon="11.7504425"><ele>541.6</ele><time>2026-04-25T10:20:23.946Z</time></trkpt><trkpt lat="43.5499727" lon="11.7503892"><ele>541.4000000000001</ele><time>2026-04-25T10:20:24.923Z</time></trkpt><trkpt lat="43.5498842" lon="11.7503258"><ele>541.2</ele><time>2026-04-25T10:20:25.923Z</time></trkpt><trkpt lat="43.5497983" lon="11.7502634"><ele>541.0</ele><time>2026-04-25T10:20:26.937Z</time></trkpt><trkpt lat="43.5497271" lon="11.7502052"><ele>540.8</ele><time>2026-04-25T10:20:27.928Z</time></trkpt><trkpt lat="43.5496445" lon="11.7501685"><ele>540.6</ele><time>2026-04-25T10:20:28.934Z</time></trkpt><trkpt lat="43.5495501" lon="11.750129"><ele>540.4</ele><time>2026-04-25T10:20:29.932Z</time></trkpt><trkpt lat="43.5494489" lon="11.7500853"><ele>540.2</ele><time>2026-04-25T10:20:30.937Z</time></trkpt><trkpt lat="43.5493486" lon="11.7500308"><ele>540.0</ele><time>2026-04-25T10:20:31.942Z</time></trkpt><trkpt lat="43.5492548" lon="11.7499628"><ele>539.8</ele><time>2026-04-25T10:20:32.943Z</time></trkpt><trkpt lat="43.5491566" lon="11.7499067"><ele>539.6</ele><time>2026-04-25T10:20:33.927Z</time></trkpt><trkpt lat="43.5490614" lon="11.7498504"><ele>539.4</ele><time>2026-04-25T10:20:34.938Z</time></trkpt><trkpt lat="43.5489617" lon="11.7497777"><ele>539.2</ele><time>2026-04-25T10:20:35.927Z</time></trkpt><trkpt lat="43.5488521" lon="11.7497178"><ele>539.0</ele><time>2026-04-25T10:20:36.936Z</time></trkpt><trkpt lat="43.5487496" lon="11.7496546"><ele>536.8</ele><time>2026-04-25T10:20:37.947Z</time></trkpt><trkpt lat="43.5486665" lon="11.7495973"><ele>534.5999999999999</ele><time>2026-04-25T10:20:38.931Z</time></trkpt><trkpt lat="43.5485873" lon="11.7495408"><ele>532.4</ele><time>2026-04-25T10:20:39.927Z</time></trkpt><trkpt lat="43.5485" lon="11.7494816"><ele>530.1999999999999</ele><time>2026-04-25T10:20:40.929Z</time></trkpt><trkpt lat="43.5484068" lon="11.7494318"><ele>528.0</ele><time>2026-04-25T10:20:41.925Z</time></trkpt><trkpt lat="43.5483177" lon="11.7493848"><ele>527.8333333333334</ele><time>2026-04-25T10:20:42.921Z</time></trkpt><trkpt lat="43.5482331" lon="11.749335"><ele>527.6666666666666</ele><time>2026-04-25T10:20:43.938Z</time></trkpt><trkpt lat="43.548154" lon="11.7492916"><ele>527.5</ele><time>2026-04-25T10:20:44.936Z</time></trkpt><trkpt lat="43.5480838" lon="11.7492483"><ele>527.3333333333333</ele><time>2026-04-25T10:20:45.927Z</time></trkpt><trkpt lat="43.5480214" lon="11.7492019"><ele>527.1666666666666</ele><time>2026-04-25T10:20:46.925Z</time></trkpt><trkpt lat="43.5479455" lon="11.7491281"><ele>527.0</ele><time>2026-04-25T10:20:47.928Z</time></trkpt><trkpt lat="43.5478588" lon="11.7490554"><ele>526.3333333333333</ele><time>2026-04-25T10:20:48.934Z</time></trkpt><trkpt lat="43.5477801" lon="11.7489934"><ele>525.6666666666666</ele><time>2026-04-25T10:20:49.933Z</time></trkpt><trkpt lat="43.5477086" lon="11.7489465"><ele>525.0</ele><time>2026-04-25T10:20:50.931Z</time></trkpt><trkpt lat="43.547632" lon="11.7488967"><ele>524.3333333333334</ele><time>2026-04-25T10:20:51.94Z</time></trkpt><trkpt lat="43.5475456" lon="11.7488481"><ele>523.6666666666667</ele><time>2026-04-25T10:20:52.944Z</time></trkpt><trkpt lat="43.5474541" lon="11.7487936"><ele>523.0</ele><time>2026-04-25T10:20:53.932Z</time></trkpt><trkpt lat="43.5473613" lon="11.7487398"><ele>523.0</ele><time>2026-04-25T10:20:54.949Z</time></trkpt><trkpt lat="43.5472863" lon="11.7486941"><ele>523.0</ele><time>2026-04-25T10:20:55.937Z</time></trkpt><trkpt lat="43.5472246" lon="11.7486679"><ele>523.0</ele><time>2026-04-25T10:20:56.925Z</time></trkpt><trkpt lat="43.5471258" lon="11.7486967"><ele>523.0</ele><time>2026-04-25T10:20:58.947Z</time></trkpt><trkpt lat="43.5470915" lon="11.7488214"><ele>523.0</ele><time>2026-04-25T10:21:00.935Z</time></trkpt><trkpt lat="43.5470893" lon="11.74892"><ele>523.0</ele><time>2026-04-25T10:21:01.93Z</time></trkpt><trkpt lat="43.5470985" lon="11.7490341"><ele>523.0</ele><time>2026-04-25T10:21:02.942Z</time></trkpt><trkpt lat="43.5471202" lon="11.7491298"><ele>523.0</ele><time>2026-04-25T10:21:03.934Z</time></trkpt><trkpt lat="43.5471581" lon="11.7492266"><ele>523.0</ele><time>2026-04-25T10:21:04.939Z</time></trkpt><trkpt lat="43.5472039" lon="11.7493364"><ele>523.0</ele><time>2026-04-25T10:21:05.946Z</time></trkpt><trkpt lat="43.5472484" lon="11.749448"><ele>523.0</ele><time>2026-04-25T10:21:06.928Z</time></trkpt><trkpt lat="43.5472957" lon="11.7495675"><ele>523.0</ele><time>2026-04-25T10:21:07.93Z</time></trkpt><trkpt lat="43.5473286" lon="11.7496771"><ele>521.5</ele><time>2026-04-25T10:21:08.934Z</time></trkpt><trkpt lat="43.5473579" lon="11.7497806"><ele>520.0</ele><time>2026-04-25T10:21:09.931Z</time></trkpt><trkpt lat="43.5474036" lon="11.7498758"><ele>518.5</ele><time>2026-04-25T10:21:10.937Z</time></trkpt><trkpt lat="43.5474461" lon="11.7499586"><ele>517.0</ele><time>2026-04-25T10:21:11.931Z</time></trkpt><trkpt lat="43.5474989" lon="11.7500478"><ele>515.5</ele><time>2026-04-25T10:21:12.934Z</time></trkpt><trkpt lat="43.5475633" lon="11.7501394"><ele>514.0</ele><time>2026-04-25T10:21:13.935Z</time></trkpt><trkpt lat="43.5476156" lon="11.7502201"><ele>511.6666666666667</ele><time>2026-04-25T10:21:14.925Z</time></trkpt><trkpt lat="43.5476636" lon="11.7503181"><ele>509.33333333333337</ele><time>2026-04-25T10:21:16.936Z</time></trkpt><trkpt lat="43.5475572" lon="11.7503693"><ele>507.0</ele><time>2026-04-25T10:21:19.926Z</time></trkpt><trkpt lat="43.5474833" lon="11.7503403"><ele>504.66666666666663</ele><time>2026-04-25T10:21:20.929Z</time></trkpt><trkpt lat="43.5474088" lon="11.7503244"><ele>502.3333333333333</ele><time>2026-04-25T10:21:21.931Z</time></trkpt><trkpt lat="43.5473394" lon="11.7503048"><ele>500.0</ele><time>2026-04-25T10:21:22.931Z</time></trkpt><trkpt lat="43.5472771" lon="11.7502534"><ele>499.2857142857143</ele><time>2026-04-25T10:21:23.929Z</time></trkpt><trkpt lat="43.5472119" lon="11.7501881"><ele>498.57142857142856</ele><time>2026-04-25T10:21:24.924Z</time></trkpt><trkpt lat="43.5471431" lon="11.7501294"><ele>497.85714285714283</ele><time>2026-04-25T10:21:25.924Z</time></trkpt><trkpt lat="43.5470772" lon="11.7500897"><ele>497.1428571428571</ele><time>2026-04-25T10:21:26.927Z</time></trkpt><trkpt lat="43.5470142" lon="11.7500593"><ele>496.42857142857144</ele><time>2026-04-25T10:21:27.943Z</time></trkpt><trkpt lat="43.5469465" lon="11.750023"><ele>495.71428571428567</ele><time>2026-04-25T10:21:28.932Z</time></trkpt><trkpt lat="43.5468828" lon="11.7499699"><ele>494.99999999999994</ele><time>2026-04-25T10:21:29.941Z</time></trkpt><trkpt lat="43.5468128" lon="11.7499048"><ele>494.99999999999994</ele><time>2026-04-25T10:21:30.924Z</time></trkpt><trkpt lat="43.5467419" lon="11.7498408"><ele>495.0</ele><time>2026-04-25T10:21:31.93Z</time></trkpt><trkpt lat="43.5466842" lon="11.7497776"><ele>494.99999999999994</ele><time>2026-04-25T10:21:32.933Z</time></trkpt><trkpt lat="43.5466212" lon="11.7497405"><ele>494.99999999999994</ele><time>2026-04-25T10:21:33.926Z</time></trkpt><trkpt lat="43.5465567" lon="11.7497196"><ele>495.0</ele><time>2026-04-25T10:21:34.926Z</time></trkpt><trkpt lat="43.5464874" lon="11.749708"><ele>494.99999999999994</ele><time>2026-04-25T10:21:35.935Z</time></trkpt><trkpt lat="43.5464152" lon="11.7496635"><ele>494.99999999999994</ele><time>2026-04-25T10:21:36.931Z</time></trkpt><trkpt lat="43.5463363" lon="11.7495922"><ele>495.0</ele><time>2026-04-25T10:21:37.93Z</time></trkpt><trkpt lat="43.5462583" lon="11.7495301"><ele>495.0</ele><time>2026-04-25T10:21:38.933Z</time></trkpt><trkpt lat="43.5461813" lon="11.7494769"><ele>495.0</ele><time>2026-04-25T10:21:39.934Z</time></trkpt><trkpt lat="43.5461161" lon="11.7494396"><ele>495.0</ele><time>2026-04-25T10:21:40.918Z</time></trkpt><trkpt lat="43.5460494" lon="11.7494206"><ele>495.0</ele><time>2026-04-25T10:21:41.917Z</time></trkpt><trkpt lat="43.5459754" lon="11.7494144"><ele>495.0</ele><time>2026-04-25T10:21:42.938Z</time></trkpt><trkpt lat="43.5459059" lon="11.7494102"><ele>494.0</ele><time>2026-04-25T10:21:43.928Z</time></trkpt><trkpt lat="43.545788" lon="11.7493539"><ele>493.0</ele><time>2026-04-25T10:21:45.93Z</time></trkpt><trkpt lat="43.5457269" lon="11.7492876"><ele>492.0</ele><time>2026-04-25T10:21:46.931Z</time></trkpt><trkpt lat="43.5456582" lon="11.7492242"><ele>491.0</ele><time>2026-04-25T10:21:47.933Z</time></trkpt><trkpt lat="43.5455909" lon="11.7491737"><ele>490.0</ele><time>2026-04-25T10:21:48.932Z</time></trkpt><trkpt lat="43.5455093" lon="11.7491169"><ele>490.00000000000006</ele><time>2026-04-25T10:21:49.926Z</time></trkpt><trkpt lat="43.5454307" lon="11.7490666"><ele>490.0</ele><time>2026-04-25T10:21:50.93Z</time></trkpt><trkpt lat="43.5453702" lon="11.7490205"><ele>490.0</ele><time>2026-04-25T10:21:51.934Z</time></trkpt><trkpt lat="43.5453083" lon="11.7489688"><ele>490.0</ele><time>2026-04-25T10:21:52.932Z</time></trkpt><trkpt lat="43.5452533" lon="11.7489113"><ele>490.00000000000006</ele><time>2026-04-25T10:21:53.921Z</time></trkpt><trkpt lat="43.5452051" lon="11.7488344"><ele>490.0</ele><time>2026-04-25T10:21:54.937Z</time></trkpt><trkpt lat="43.54515" lon="11.7487439"><ele>488.6</ele><time>2026-04-25T10:21:55.929Z</time></trkpt><trkpt lat="43.5450984" lon="11.748641"><ele>487.2</ele><time>2026-04-25T10:21:56.928Z</time></trkpt><trkpt lat="43.545043" lon="11.7485661"><ele>485.79999999999995</ele><time>2026-04-25T10:21:57.93Z</time></trkpt><trkpt lat="43.5449239" lon="11.7485082"><ele>484.4</ele><time>2026-04-25T10:21:59.93Z</time></trkpt><trkpt lat="43.5448274" lon="11.7484263"><ele>483.0</ele><time>2026-04-25T10:22:01.946Z</time></trkpt><trkpt lat="43.5447156" lon="11.7483165"><ele>483.0</ele><time>2026-04-25T10:22:03.935Z</time></trkpt><trkpt lat="43.5446497" lon="11.7482524"><ele>483.0</ele><time>2026-04-25T10:22:04.939Z</time></trkpt><trkpt lat="43.5445913" lon="11.748171"><ele>483.0</ele><time>2026-04-25T10:22:05.929Z</time></trkpt><trkpt lat="43.544531" lon="11.7481042"><ele>483.0</ele><time>2026-04-25T10:22:06.93Z</time></trkpt><trkpt lat="43.5444687" lon="11.7480377"><ele>483.0</ele><time>2026-04-25T10:22:07.931Z</time></trkpt><trkpt lat="43.5444095" lon="11.7479569"><ele>483.0</ele><time>2026-04-25T10:22:08.926Z</time></trkpt><trkpt lat="43.5443465" lon="11.7478735"><ele>480.0</ele><time>2026-04-25T10:22:09.925Z</time></trkpt><trkpt lat="43.5442881" lon="11.7477834"><ele>476.99999999999994</ele><time>2026-04-25T10:22:10.94Z</time></trkpt><trkpt lat="43.5442443" lon="11.7477105"><ele>473.99999999999994</ele><time>2026-04-25T10:22:11.921Z</time></trkpt><trkpt lat="43.5441743" lon="11.7475693"><ele>471.0</ele><time>2026-04-25T10:22:13.936Z</time></trkpt><trkpt lat="43.5441249" lon="11.7474518"><ele>468.0</ele><time>2026-04-25T10:22:15.93Z</time></trkpt><trkpt lat="43.5440716" lon="11.7473693"><ele>468.0</ele><time>2026-04-25T10:22:17.931Z</time></trkpt><trkpt lat="43.5440266" lon="11.747303"><ele>467.99999999999994</ele><time>2026-04-25T10:22:19.923Z</time></trkpt><trkpt lat="43.543997" lon="11.7471964"><ele>467.99999999999994</ele><time>2026-04-25T10:23:28.932Z</time></trkpt><trkpt lat="43.5440035" lon="11.7470088"><ele>468.0</ele><time>2026-04-25T10:23:30.944Z</time></trkpt><trkpt lat="43.5440216" lon="11.7468803"><ele>468.0</ele><time>2026-04-25T10:23:31.933Z</time></trkpt><trkpt lat="43.544036" lon="11.7467573"><ele>467.4</ele><time>2026-04-25T10:23:32.936Z</time></trkpt><trkpt lat="43.5440506" lon="11.746646"><ele>466.79999999999995</ele><time>2026-04-25T10:23:33.921Z</time></trkpt><trkpt lat="43.5440768" lon="11.7465349"><ele>466.2</ele><time>2026-04-25T10:23:34.916Z</time></trkpt><trkpt lat="43.5441088" lon="11.7464434"><ele>465.6</ele><time>2026-04-25T10:23:35.927Z</time></trkpt><trkpt lat="43.5441837" lon="11.7463082"><ele>465.0</ele><time>2026-04-25T10:23:37.933Z</time></trkpt><trkpt lat="43.5442782" lon="11.7461737"><ele>465.0</ele><time>2026-04-25T10:23:39.928Z</time></trkpt><trkpt lat="43.5443522" lon="11.7461241"><ele>465.0</ele><time>2026-04-25T10:23:40.916Z</time></trkpt><trkpt lat="43.544443" lon="11.7460856"><ele>465.0</ele><time>2026-04-25T10:23:41.923Z</time></trkpt><trkpt lat="43.5445437" lon="11.7460574"><ele>465.0</ele><time>2026-04-25T10:23:42.936Z</time></trkpt><trkpt lat="43.5446521" lon="11.7460409"><ele>465.0</ele><time>2026-04-25T10:23:43.933Z</time></trkpt><trkpt lat="43.5447696" lon="11.7460235"><ele>463.0</ele><time>2026-04-25T10:23:44.939Z</time></trkpt><trkpt lat="43.5449024" lon="11.7460138"><ele>461.0</ele><time>2026-04-25T10:23:45.924Z</time></trkpt><trkpt lat="43.5450582" lon="11.7460023"><ele>459.0</ele><time>2026-04-25T10:23:46.932Z</time></trkpt><trkpt lat="43.5452249" lon="11.7459941"><ele>461.5</ele><time>2026-04-25T10:23:47.931Z</time></trkpt><trkpt lat="43.5453811" lon="11.7459833"><ele>464.0</ele><time>2026-04-25T10:23:48.927Z</time></trkpt><trkpt lat="43.5455226" lon="11.745975"><ele>466.5</ele><time>2026-04-25T10:23:49.92Z</time></trkpt><trkpt lat="43.5456493" lon="11.7459556"><ele>469.0</ele><time>2026-04-25T10:23:50.93Z</time></trkpt><trkpt lat="43.5457508" lon="11.7459336"><ele>469.0</ele><time>2026-04-25T10:23:51.934Z</time></trkpt><trkpt lat="43.5458402" lon="11.7458918"><ele>469.0</ele><time>2026-04-25T10:23:52.928Z</time></trkpt><trkpt lat="43.5459046" lon="11.7458311"><ele>469.0</ele><time>2026-04-25T10:23:53.933Z</time></trkpt><trkpt lat="43.5459551" lon="11.7457363"><ele>469.0</ele><time>2026-04-25T10:23:54.931Z</time></trkpt><trkpt lat="43.5459719" lon="11.7456131"><ele>469.0</ele><time>2026-04-25T10:23:55.926Z</time></trkpt><trkpt lat="43.5459642" lon="11.7454512"><ele>469.0</ele><time>2026-04-25T10:23:56.927Z</time></trkpt><trkpt lat="43.5459429" lon="11.7452754"><ele>469.0</ele><time>2026-04-25T10:23:57.93Z</time></trkpt><trkpt lat="43.5459272" lon="11.7451344"><ele>469.0</ele><time>2026-04-25T10:23:58.932Z</time></trkpt><trkpt lat="43.5459154" lon="11.7450329"><ele>469.0</ele><time>2026-04-25T10:23:59.925Z</time></trkpt><trkpt lat="43.5459281" lon="11.7449333"><ele>469.0</ele><time>2026-04-25T10:24:00.924Z</time></trkpt><trkpt lat="43.5459672" lon="11.7448335"><ele>468.6</ele><time>2026-04-25T10:24:01.932Z</time></trkpt><trkpt lat="43.5460246" lon="11.7447431"><ele>468.2</ele><time>2026-04-25T10:24:02.93Z</time></trkpt><trkpt lat="43.546101" lon="11.7446876"><ele>467.80000000000007</ele><time>2026-04-25T10:24:03.935Z</time></trkpt><trkpt lat="43.5461928" lon="11.7446603"><ele>467.40000000000003</ele><time>2026-04-25T10:24:04.927Z</time></trkpt><trkpt lat="43.5463065" lon="11.7446512"><ele>467.0</ele><time>2026-04-25T10:24:05.931Z</time></trkpt><trkpt lat="43.5464451" lon="11.7446764"><ele>467.0</ele><time>2026-04-25T10:24:06.928Z</time></trkpt><trkpt lat="43.5465691" lon="11.7447184"><ele>467.0</ele><time>2026-04-25T10:24:07.93Z</time></trkpt><trkpt lat="43.546691" lon="11.7447624"><ele>467.0</ele><time>2026-04-25T10:24:08.927Z</time></trkpt><trkpt lat="43.5468144" lon="11.7448112"><ele>467.0</ele><time>2026-04-25T10:24:09.926Z</time></trkpt><trkpt lat="43.5469372" lon="11.7448714"><ele>466.75</ele><time>2026-04-25T10:24:10.923Z</time></trkpt><trkpt lat="43.5470469" lon="11.7449576"><ele>466.5</ele><time>2026-04-25T10:24:11.92Z</time></trkpt><trkpt lat="43.5471515" lon="11.7450613"><ele>466.25</ele><time>2026-04-25T10:24:12.928Z</time></trkpt><trkpt lat="43.5472673" lon="11.7452004"><ele>466.0</ele><time>2026-04-25T10:24:13.925Z</time></trkpt><trkpt lat="43.5473955" lon="11.7453872"><ele>466.0</ele><time>2026-04-25T10:24:14.924Z</time></trkpt><trkpt lat="43.5475438" lon="11.7455937"><ele>466.0</ele><time>2026-04-25T10:24:15.93Z</time></trkpt><trkpt lat="43.547675" lon="11.7457852"><ele>466.0</ele><time>2026-04-25T10:24:16.942Z</time></trkpt><trkpt lat="43.5477881" lon="11.7459518"><ele>463.33333333333337</ele><time>2026-04-25T10:24:17.924Z</time></trkpt><trkpt lat="43.5478831" lon="11.7461134"><ele>460.66666666666663</ele><time>2026-04-25T10:24:18.921Z</time></trkpt><trkpt lat="43.5479785" lon="11.7462912"><ele>458.0</ele><time>2026-04-25T10:24:19.924Z</time></trkpt><trkpt lat="43.5480606" lon="11.7464846"><ele>458.0</ele><time>2026-04-25T10:24:20.934Z</time></trkpt><trkpt lat="43.5481253" lon="11.7466546"><ele>457.99999999999994</ele><time>2026-04-25T10:24:21.926Z</time></trkpt><trkpt lat="43.5481917" lon="11.7467779"><ele>457.99999999999994</ele><time>2026-04-25T10:24:22.925Z</time></trkpt><trkpt lat="43.5482627" lon="11.7468685"><ele>458.0</ele><time>2026-04-25T10:24:23.927Z</time></trkpt><trkpt lat="43.5483475" lon="11.7469351"><ele>458.0</ele><time>2026-04-25T10:24:24.926Z</time></trkpt><trkpt lat="43.5484432" lon="11.7469658"><ele>458.0</ele><time>2026-04-25T10:24:25.92Z</time></trkpt><trkpt lat="43.5485298" lon="11.7469537"><ele>457.99999999999994</ele><time>2026-04-25T10:24:26.934Z</time></trkpt><trkpt lat="43.5486001" lon="11.7468993"><ele>457.99999999999994</ele><time>2026-04-25T10:24:27.927Z</time></trkpt><trkpt lat="43.5486798" lon="11.7467959"><ele>458.0</ele><time>2026-04-25T10:24:28.929Z</time></trkpt><trkpt lat="43.5487569" lon="11.7466357"><ele>458.0</ele><time>2026-04-25T10:24:29.922Z</time></trkpt><trkpt lat="43.5488485" lon="11.746445"><ele>460.5</ele><time>2026-04-25T10:24:30.924Z</time></trkpt><trkpt lat="43.5489297" lon="11.7462581"><ele>463.0</ele><time>2026-04-25T10:24:31.929Z</time></trkpt><trkpt lat="43.5489893" lon="11.7460874"><ele>465.5</ele><time>2026-04-25T10:24:32.919Z</time></trkpt><trkpt lat="43.5490411" lon="11.7459246"><ele>468.0</ele><time>2026-04-25T10:24:33.918Z</time></trkpt><trkpt lat="43.5490915" lon="11.7457857"><ele>464.5</ele><time>2026-04-25T10:24:34.918Z</time></trkpt><trkpt lat="43.5491354" lon="11.7456797"><ele>461.0</ele><time>2026-04-25T10:24:35.928Z</time></trkpt><trkpt lat="43.5491908" lon="11.7456148"><ele>457.5</ele><time>2026-04-25T10:24:36.918Z</time></trkpt><trkpt lat="43.5492583" lon="11.7455851"><ele>454.0</ele><time>2026-04-25T10:24:37.923Z</time></trkpt><trkpt lat="43.5493378" lon="11.7456017"><ele>450.5</ele><time>2026-04-25T10:24:38.922Z</time></trkpt><trkpt lat="43.5494324" lon="11.74566"><ele>447.0</ele><time>2026-04-25T10:24:39.919Z</time></trkpt><trkpt lat="43.5495555" lon="11.7457729"><ele>444.0</ele><time>2026-04-25T10:24:40.933Z</time></trkpt><trkpt lat="43.5496971" lon="11.7459134"><ele>441.0</ele><time>2026-04-25T10:24:41.923Z</time></trkpt><trkpt lat="43.5498414" lon="11.7460559"><ele>438.0</ele><time>2026-04-25T10:24:42.929Z</time></trkpt><trkpt lat="43.5499738" lon="11.7461854"><ele>443.5</ele><time>2026-04-25T10:24:43.933Z</time></trkpt><trkpt lat="43.5500797" lon="11.7462989"><ele>449.0</ele><time>2026-04-25T10:24:44.921Z</time></trkpt><trkpt lat="43.5501769" lon="11.746414"><ele>454.5</ele><time>2026-04-25T10:24:45.933Z</time></trkpt><trkpt lat="43.5502526" lon="11.7465399"><ele>460.0</ele><time>2026-04-25T10:24:46.926Z</time></trkpt><trkpt lat="43.5503112" lon="11.7466807"><ele>460.0</ele><time>2026-04-25T10:24:47.923Z</time></trkpt><trkpt lat="43.5503654" lon="11.7468403"><ele>460.0</ele><time>2026-04-25T10:24:48.933Z</time></trkpt><trkpt lat="43.5504071" lon="11.7470039"><ele>460.0</ele><time>2026-04-25T10:24:49.926Z</time></trkpt><trkpt lat="43.5504405" lon="11.7471459"><ele>460.0</ele><time>2026-04-25T10:24:50.932Z</time></trkpt><trkpt lat="43.5504725" lon="11.7472458"><ele>460.0</ele><time>2026-04-25T10:24:51.93Z</time></trkpt><trkpt lat="43.5505332" lon="11.7472914"><ele>460.00000000000006</ele><time>2026-04-25T10:24:52.935Z</time></trkpt><trkpt lat="43.5505981" lon="11.7472772"><ele>460.0</ele><time>2026-04-25T10:24:53.93Z</time></trkpt><trkpt lat="43.5506751" lon="11.7472079"><ele>460.0</ele><time>2026-04-25T10:24:54.932Z</time></trkpt><trkpt lat="43.5507603" lon="11.747125"><ele>460.0</ele><time>2026-04-25T10:24:55.92Z</time></trkpt><trkpt lat="43.5508474" lon="11.74708"><ele>460.00000000000006</ele><time>2026-04-25T10:24:56.933Z</time></trkpt><trkpt lat="43.5509385" lon="11.7470843"><ele>460.0</ele><time>2026-04-25T10:24:57.923Z</time></trkpt><trkpt lat="43.5510393" lon="11.7471274"><ele>460.0</ele><time>2026-04-25T10:24:58.934Z</time></trkpt><trkpt lat="43.5511439" lon="11.7472146"><ele>460.0</ele><time>2026-04-25T10:24:59.921Z</time></trkpt><trkpt lat="43.5512463" lon="11.747306"><ele>460.0</ele><time>2026-04-25T10:25:00.93Z</time></trkpt><trkpt lat="43.551349" lon="11.7473911"><ele>460.0</ele><time>2026-04-25T10:25:01.93Z</time></trkpt><trkpt lat="43.5514415" lon="11.7474183"><ele>459.0</ele><time>2026-04-25T10:25:02.923Z</time></trkpt><trkpt lat="43.5515177" lon="11.7474129"><ele>458.0</ele><time>2026-04-25T10:25:03.917Z</time></trkpt><trkpt lat="43.5516014" lon="11.7473562"><ele>457.0</ele><time>2026-04-25T10:25:04.931Z</time></trkpt><trkpt lat="43.5516914" lon="11.7472605"><ele>456.0</ele><time>2026-04-25T10:25:05.92Z</time></trkpt><trkpt lat="43.5517834" lon="11.747125"><ele>455.0</ele><time>2026-04-25T10:25:06.93Z</time></trkpt><trkpt lat="43.5518639" lon="11.7469764"><ele>451.49999999999994</ele><time>2026-04-25T10:25:07.926Z</time></trkpt><trkpt lat="43.5519244" lon="11.7468516"><ele>448.0</ele><time>2026-04-25T10:25:08.924Z</time></trkpt><trkpt lat="43.5519738" lon="11.7467806"><ele>444.5</ele><time>2026-04-25T10:25:09.929Z</time></trkpt><trkpt lat="43.5520291" lon="11.7467366"><ele>441.0</ele><time>2026-04-25T10:25:10.919Z</time></trkpt><trkpt lat="43.5520986" lon="11.7467364"><ele>437.49999999999994</ele><time>2026-04-25T10:25:11.922Z</time></trkpt><trkpt lat="43.552165" lon="11.7467827"><ele>434.0</ele><time>2026-04-25T10:25:12.924Z</time></trkpt><trkpt lat="43.5522049" lon="11.7468669"><ele>435.0</ele><time>2026-04-25T10:25:13.927Z</time></trkpt><trkpt lat="43.5522393" lon="11.746995"><ele>436.0</ele><time>2026-04-25T10:25:14.934Z</time></trkpt><trkpt lat="43.5522689" lon="11.7471835"><ele>437.0</ele><time>2026-04-25T10:25:15.926Z</time></trkpt><trkpt lat="43.5522499" lon="11.7473889"><ele>438.0</ele><time>2026-04-25T10:25:16.92Z</time></trkpt><trkpt lat="43.5522572" lon="11.7476012"><ele>441.25</ele><time>2026-04-25T10:25:17.931Z</time></trkpt><trkpt lat="43.5523169" lon="11.7478147"><ele>444.5</ele><time>2026-04-25T10:25:18.926Z</time></trkpt><trkpt lat="43.5523803" lon="11.7479934"><ele>447.75</ele><time>2026-04-25T10:25:19.923Z</time></trkpt><trkpt lat="43.5524514" lon="11.7481529"><ele>451.0</ele><time>2026-04-25T10:25:20.932Z</time></trkpt><trkpt lat="43.5525345" lon="11.7483309"><ele>451.0</ele><time>2026-04-25T10:25:21.929Z</time></trkpt><trkpt lat="43.5525927" lon="11.7484992"><ele>451.0</ele><time>2026-04-25T10:25:22.93Z</time></trkpt><trkpt lat="43.5526403" lon="11.7486583"><ele>451.0</ele><time>2026-04-25T10:25:23.918Z</time></trkpt><trkpt lat="43.5527113" lon="11.7487849"><ele>451.0</ele><time>2026-04-25T10:25:24.928Z</time></trkpt><trkpt lat="43.5528085" lon="11.7488986"><ele>451.0</ele><time>2026-04-25T10:25:25.924Z</time></trkpt><trkpt lat="43.5528917" lon="11.7490069"><ele>451.0</ele><time>2026-04-25T10:25:26.927Z</time></trkpt><trkpt lat="43.5529561" lon="11.7491398"><ele>451.0</ele><time>2026-04-25T10:25:27.918Z</time></trkpt><trkpt lat="43.5530101" lon="11.7493313"><ele>451.0</ele><time>2026-04-25T10:25:28.935Z</time></trkpt><trkpt lat="43.5530626" lon="11.7495208"><ele>451.0</ele><time>2026-04-25T10:25:29.929Z</time></trkpt><trkpt lat="43.5531135" lon="11.7496788"><ele>451.0</ele><time>2026-04-25T10:25:30.921Z</time></trkpt><trkpt lat="43.5531656" lon="11.749812"><ele>451.0</ele><time>2026-04-25T10:25:31.929Z</time></trkpt><trkpt lat="43.553223" lon="11.7499156"><ele>451.0</ele><time>2026-04-25T10:25:32.92Z</time></trkpt><trkpt lat="43.553291" lon="11.7499919"><ele>451.0</ele><time>2026-04-25T10:25:33.922Z</time></trkpt><trkpt lat="43.5533668" lon="11.7500357"><ele>451.0</ele><time>2026-04-25T10:25:34.914Z</time></trkpt><trkpt lat="43.5534493" lon="11.7500347"><ele>451.0</ele><time>2026-04-25T10:25:35.925Z</time></trkpt><trkpt lat="43.5535392" lon="11.7499966"><ele>451.0</ele><time>2026-04-25T10:25:36.924Z</time></trkpt><trkpt lat="43.5536142" lon="11.749919"><ele>451.0</ele><time>2026-04-25T10:25:37.923Z</time></trkpt><trkpt lat="43.5536583" lon="11.7498129"><ele>451.0</ele><time>2026-04-25T10:25:38.92Z</time></trkpt><trkpt lat="43.5537072" lon="11.7496696"><ele>451.8</ele><time>2026-04-25T10:25:39.919Z</time></trkpt><trkpt lat="43.5537508" lon="11.7495478"><ele>452.6</ele><time>2026-04-25T10:25:40.926Z</time></trkpt><trkpt lat="43.5538149" lon="11.7494747"><ele>453.4</ele><time>2026-04-25T10:25:41.941Z</time></trkpt><trkpt lat="43.5539016" lon="11.7494282"><ele>454.2</ele><time>2026-04-25T10:25:42.928Z</time></trkpt><trkpt lat="43.5540176" lon="11.7494163"><ele>455.0</ele><time>2026-04-25T10:25:43.918Z</time></trkpt><trkpt lat="43.5541594" lon="11.7494269"><ele>455.0</ele><time>2026-04-25T10:25:44.918Z</time></trkpt><trkpt lat="43.5543163" lon="11.749453"><ele>455.0</ele><time>2026-04-25T10:25:45.917Z</time></trkpt><trkpt lat="43.5544566" lon="11.7494913"><ele>455.0</ele><time>2026-04-25T10:25:46.918Z</time></trkpt><trkpt lat="43.5545569" lon="11.7495035"><ele>455.0</ele><time>2026-04-25T10:25:47.916Z</time></trkpt><trkpt lat="43.5546211" lon="11.7494928"><ele>455.4</ele><time>2026-04-25T10:25:48.923Z</time></trkpt><trkpt lat="43.5546828" lon="11.7493878"><ele>455.8</ele><time>2026-04-25T10:25:50.913Z</time></trkpt><trkpt lat="43.5546607" lon="11.7491946"><ele>456.20000000000005</ele><time>2026-04-25T10:25:52.918Z</time></trkpt><trkpt lat="43.5546287" lon="11.7490538"><ele>456.6</ele><time>2026-04-25T10:25:53.926Z</time></trkpt><trkpt lat="43.5546141" lon="11.7489288"><ele>457.0</ele><time>2026-04-25T10:25:54.941Z</time></trkpt><trkpt lat="43.5546267" lon="11.7488216"><ele>457.0</ele><time>2026-04-25T10:25:55.927Z</time></trkpt><trkpt lat="43.5546666" lon="11.7487195"><ele>457.00000000000006</ele><time>2026-04-25T10:25:56.93Z</time></trkpt><trkpt lat="43.5547243" lon="11.7486413"><ele>457.00000000000006</ele><time>2026-04-25T10:25:57.924Z</time></trkpt><trkpt lat="43.5548028" lon="11.7485849"><ele>457.0</ele><time>2026-04-25T10:25:58.926Z</time></trkpt><trkpt lat="43.5549139" lon="11.7485213"><ele>457.0</ele><time>2026-04-25T10:25:59.918Z</time></trkpt><trkpt lat="43.5550461" lon="11.7484661"><ele>457.33333333333337</ele><time>2026-04-25T10:26:00.929Z</time></trkpt><trkpt lat="43.5552141" lon="11.7484152"><ele>457.66666666666663</ele><time>2026-04-25T10:26:01.923Z</time></trkpt><trkpt lat="43.5554108" lon="11.7483639"><ele>458.0</ele><time>2026-04-25T10:26:02.929Z</time></trkpt><trkpt lat="43.5555973" lon="11.7483031"><ele>458.0</ele><time>2026-04-25T10:26:03.924Z</time></trkpt><trkpt lat="43.5557556" lon="11.7482353"><ele>458.0</ele><time>2026-04-25T10:26:04.923Z</time></trkpt><trkpt lat="43.5558868" lon="11.7481622"><ele>458.0</ele><time>2026-04-25T10:26:05.928Z</time></trkpt><trkpt lat="43.5560068" lon="11.7480887"><ele>458.0</ele><time>2026-04-25T10:26:06.924Z</time></trkpt><trkpt lat="43.5561152" lon="11.7479944"><ele>460.59999999999997</ele><time>2026-04-25T10:26:07.93Z</time></trkpt><trkpt lat="43.5562088" lon="11.7478974"><ele>463.19999999999993</ele><time>2026-04-25T10:26:08.925Z</time></trkpt><trkpt lat="43.5563053" lon="11.7478291"><ele>465.8</ele><time>2026-04-25T10:26:09.939Z</time></trkpt><trkpt lat="43.5564025" lon="11.7477972"><ele>468.4</ele><time>2026-04-25T10:26:10.924Z</time></trkpt><trkpt lat="43.5565113" lon="11.7478115"><ele>471.0</ele><time>2026-04-25T10:26:11.921Z</time></trkpt><trkpt lat="43.5566375" lon="11.7478579"><ele>471.0</ele><time>2026-04-25T10:26:12.926Z</time></trkpt><trkpt lat="43.5567908" lon="11.7479353"><ele>471.0</ele><time>2026-04-25T10:26:13.935Z</time></trkpt><trkpt lat="43.5569498" lon="11.7479938"><ele>471.0</ele><time>2026-04-25T10:26:14.92Z</time></trkpt><trkpt lat="43.5570713" lon="11.7480306"><ele>471.8</ele><time>2026-04-25T10:26:15.921Z</time></trkpt><trkpt lat="43.5571655" lon="11.7480441"><ele>472.6</ele><time>2026-04-25T10:26:16.925Z</time></trkpt><trkpt lat="43.5572498" lon="11.7480243"><ele>473.4</ele><time>2026-04-25T10:26:17.913Z</time></trkpt><trkpt lat="43.557316" lon="11.7479597"><ele>474.2</ele><time>2026-04-25T10:26:18.93Z</time></trkpt><trkpt lat="43.557384" lon="11.7478397"><ele>475.0</ele><time>2026-04-25T10:26:19.917Z</time></trkpt><trkpt lat="43.5574437" lon="11.7476986"><ele>470.33333333333337</ele><time>2026-04-25T10:26:20.92Z</time></trkpt><trkpt lat="43.557489" lon="11.7475618"><ele>465.6666666666667</ele><time>2026-04-25T10:26:21.929Z</time></trkpt><trkpt lat="43.5575355" lon="11.7474593"><ele>461.0</ele><time>2026-04-25T10:26:22.922Z</time></trkpt><trkpt lat="43.5576019" lon="11.7474033"><ele>456.33333333333337</ele><time>2026-04-25T10:26:23.926Z</time></trkpt><trkpt lat="43.5576831" lon="11.7473975"><ele>451.6666666666667</ele><time>2026-04-25T10:26:24.933Z</time></trkpt><trkpt lat="43.5577606" lon="11.7474443"><ele>447.0</ele><time>2026-04-25T10:26:25.932Z</time></trkpt><trkpt lat="43.5578361" lon="11.747521"><ele>448.40000000000003</ele><time>2026-04-25T10:26:26.927Z</time></trkpt><trkpt lat="43.557911" lon="11.7476346"><ele>449.80000000000007</ele><time>2026-04-25T10:26:27.923Z</time></trkpt><trkpt lat="43.5579931" lon="11.7477711"><ele>451.2</ele><time>2026-04-25T10:26:28.931Z</time></trkpt><trkpt lat="43.5580802" lon="11.7478616"><ele>452.6</ele><time>2026-04-25T10:26:29.922Z</time></trkpt><trkpt lat="43.5581543" lon="11.7478927"><ele>454.0</ele><time>2026-04-25T10:26:30.925Z</time></trkpt><trkpt lat="43.5582247" lon="11.7478738"><ele>454.0</ele><time>2026-04-25T10:26:31.927Z</time></trkpt><trkpt lat="43.5583048" lon="11.7478373"><ele>454.0</ele><time>2026-04-25T10:26:32.922Z</time></trkpt><trkpt lat="43.5584121" lon="11.7477416"><ele>454.0</ele><time>2026-04-25T10:26:33.922Z</time></trkpt><trkpt lat="43.5585057" lon="11.7476077"><ele>454.0</ele><time>2026-04-25T10:26:34.93Z</time></trkpt><trkpt lat="43.5585704" lon="11.7474985"><ele>454.0</ele><time>2026-04-25T10:26:35.926Z</time></trkpt><trkpt lat="43.5586346" lon="11.7474531"><ele>453.4</ele><time>2026-04-25T10:26:36.94Z</time></trkpt><trkpt lat="43.5587257" lon="11.7474484"><ele>452.79999999999995</ele><time>2026-04-25T10:26:37.929Z</time></trkpt><trkpt lat="43.5588291" lon="11.7474767"><ele>452.20000000000005</ele><time>2026-04-25T10:26:38.931Z</time></trkpt><trkpt lat="43.5589248" lon="11.7475291"><ele>451.6</ele><time>2026-04-25T10:26:39.933Z</time></trkpt><trkpt lat="43.5590065" lon="11.7476243"><ele>451.0</ele><time>2026-04-25T10:26:40.928Z</time></trkpt><trkpt lat="43.5590659" lon="11.7477239"><ele>453.83333333333337</ele><time>2026-04-25T10:26:41.925Z</time></trkpt><trkpt lat="43.5591025" lon="11.7478161"><ele>456.6666666666667</ele><time>2026-04-25T10:26:42.935Z</time></trkpt><trkpt lat="43.5591254" lon="11.7479059"><ele>459.5</ele><time>2026-04-25T10:26:43.927Z</time></trkpt><trkpt lat="43.5591235" lon="11.7480202"><ele>462.33333333333337</ele><time>2026-04-25T10:26:44.934Z</time></trkpt><trkpt lat="43.5591076" lon="11.7481473"><ele>465.1666666666667</ele><time>2026-04-25T10:26:45.926Z</time></trkpt><trkpt lat="43.5591027" lon="11.7482693"><ele>468.0</ele><time>2026-04-25T10:26:46.923Z</time></trkpt><trkpt lat="43.559189" lon="11.7483844"><ele>468.0</ele><time>2026-04-25T10:26:48.924Z</time></trkpt><trkpt lat="43.5592556" lon="11.7483943"><ele>467.99999999999994</ele><time>2026-04-25T10:26:49.92Z</time></trkpt><trkpt lat="43.5593525" lon="11.7483834"><ele>467.99999999999994</ele><time>2026-04-25T10:26:50.925Z</time></trkpt><trkpt lat="43.559478" lon="11.7483361"><ele>468.0</ele><time>2026-04-25T10:26:51.922Z</time></trkpt><trkpt lat="43.5596216" lon="11.7482926"><ele>468.0</ele><time>2026-04-25T10:26:52.925Z</time></trkpt><trkpt lat="43.5597435" lon="11.7482673"><ele>466.75</ele><time>2026-04-25T10:26:53.932Z</time></trkpt><trkpt lat="43.5598459" lon="11.7482502"><ele>465.5</ele><time>2026-04-25T10:26:54.92Z</time></trkpt><trkpt lat="43.5599496" lon="11.7482684"><ele>464.25</ele><time>2026-04-25T10:26:55.93Z</time></trkpt><trkpt lat="43.5600749" lon="11.7483363"><ele>463.0</ele><time>2026-04-25T10:26:56.919Z</time></trkpt><trkpt lat="43.5602269" lon="11.7484286"><ele>463.0</ele><time>2026-04-25T10:26:57.924Z</time></trkpt><trkpt lat="43.5603539" lon="11.7485026"><ele>462.99999999999994</ele><time>2026-04-25T10:26:58.926Z</time></trkpt><trkpt lat="43.5604605" lon="11.748542"><ele>462.99999999999994</ele><time>2026-04-25T10:26:59.929Z</time></trkpt><trkpt lat="43.560533" lon="11.7485664"><ele>463.0</ele><time>2026-04-25T10:27:00.92Z</time></trkpt><trkpt lat="43.5606113" lon="11.748581"><ele>463.0</ele><time>2026-04-25T10:27:01.924Z</time></trkpt><trkpt lat="43.5606835" lon="11.7486215"><ele>464.2</ele><time>2026-04-25T10:27:02.929Z</time></trkpt><trkpt lat="43.5607548" lon="11.7486889"><ele>465.4</ele><time>2026-04-25T10:27:03.919Z</time></trkpt><trkpt lat="43.5608328" lon="11.7487958"><ele>466.59999999999997</ele><time>2026-04-25T10:27:04.933Z</time></trkpt><trkpt lat="43.5609092" lon="11.7489162"><ele>467.79999999999995</ele><time>2026-04-25T10:27:05.92Z</time></trkpt><trkpt lat="43.5609881" lon="11.7490493"><ele>469.0</ele><time>2026-04-25T10:27:06.916Z</time></trkpt><trkpt lat="43.5610643" lon="11.7491768"><ele>469.0</ele><time>2026-04-25T10:27:07.926Z</time></trkpt><trkpt lat="43.5611345" lon="11.7492937"><ele>469.0</ele><time>2026-04-25T10:27:08.924Z</time></trkpt><trkpt lat="43.5611983" lon="11.7493903"><ele>469.0</ele><time>2026-04-25T10:27:09.928Z</time></trkpt><trkpt lat="43.5612454" lon="11.7494703"><ele>469.0</ele><time>2026-04-25T10:27:10.918Z</time></trkpt><trkpt lat="43.5613126" lon="11.7495121"><ele>469.0</ele><time>2026-04-25T10:27:12.923Z</time></trkpt><trkpt lat="43.5614075" lon="11.7494176"><ele>469.0</ele><time>2026-04-25T10:27:14.925Z</time></trkpt><trkpt lat="43.5614725" lon="11.7493708"><ele>469.0</ele><time>2026-04-25T10:27:15.921Z</time></trkpt><trkpt lat="43.5616211" lon="11.7494164"><ele>469.0</ele><time>2026-04-25T10:27:17.921Z</time></trkpt><trkpt lat="43.5617166" lon="11.7494639"><ele>469.0</ele><time>2026-04-25T10:27:18.919Z</time></trkpt><trkpt lat="43.561796" lon="11.7494971"><ele>469.0</ele><time>2026-04-25T10:27:19.925Z</time></trkpt><trkpt lat="43.5618704" lon="11.749509"><ele>469.0</ele><time>2026-04-25T10:27:20.928Z</time></trkpt><trkpt lat="43.5619691" lon="11.749451"><ele>469.0</ele><time>2026-04-25T10:27:22.927Z</time></trkpt><trkpt lat="43.5619611" lon="11.7492598"><ele>469.0</ele><time>2026-04-25T10:27:24.925Z</time></trkpt><trkpt lat="43.561936" lon="11.7491371"><ele>469.0</ele><time>2026-04-25T10:27:25.921Z</time></trkpt><trkpt lat="43.5619279" lon="11.7490318"><ele>469.0</ele><time>2026-04-25T10:27:26.92Z</time></trkpt><trkpt lat="43.5619496" lon="11.7489081"><ele>469.0</ele><time>2026-04-25T10:27:27.929Z</time></trkpt><trkpt lat="43.5619886" lon="11.7488015"><ele>469.0</ele><time>2026-04-25T10:27:28.925Z</time></trkpt><trkpt lat="43.5620468" lon="11.7487076"><ele>469.0</ele><time>2026-04-25T10:27:29.917Z</time></trkpt><trkpt lat="43.5621111" lon="11.7486276"><ele>469.0</ele><time>2026-04-25T10:27:30.921Z</time></trkpt><trkpt lat="43.5621843" lon="11.7485518"><ele>469.0</ele><time>2026-04-25T10:27:31.926Z</time></trkpt><trkpt lat="43.5622715" lon="11.7484966"><ele>466.6</ele><time>2026-04-25T10:27:32.92Z</time></trkpt><trkpt lat="43.5623826" lon="11.7484559"><ele>464.2</ele><time>2026-04-25T10:27:33.925Z</time></trkpt><trkpt lat="43.5624955" lon="11.7484274"><ele>461.80000000000007</ele><time>2026-04-25T10:27:34.918Z</time></trkpt><trkpt lat="43.5626062" lon="11.7484043"><ele>459.40000000000003</ele><time>2026-04-25T10:27:35.935Z</time></trkpt><trkpt lat="43.5627081" lon="11.7483888"><ele>457.0</ele><time>2026-04-25T10:27:36.925Z</time></trkpt><trkpt lat="43.5628116" lon="11.7483793"><ele>459.20000000000005</ele><time>2026-04-25T10:27:37.931Z</time></trkpt><trkpt lat="43.5629127" lon="11.7483794"><ele>461.40000000000003</ele><time>2026-04-25T10:27:38.92Z</time></trkpt><trkpt lat="43.5630229" lon="11.7483855"><ele>463.59999999999997</ele><time>2026-04-25T10:27:39.93Z</time></trkpt><trkpt lat="43.5631391" lon="11.7483993"><ele>465.79999999999995</ele><time>2026-04-25T10:27:40.919Z</time></trkpt><trkpt lat="43.5632517" lon="11.748418"><ele>468.0</ele><time>2026-04-25T10:27:41.917Z</time></trkpt><trkpt lat="43.5633505" lon="11.7484409"><ele>468.0</ele><time>2026-04-25T10:27:42.919Z</time></trkpt><trkpt lat="43.5634486" lon="11.7484616"><ele>467.99999999999994</ele><time>2026-04-25T10:27:43.937Z</time></trkpt><trkpt lat="43.5635329" lon="11.7484653"><ele>467.99999999999994</ele><time>2026-04-25T10:27:44.92Z</time></trkpt><trkpt lat="43.5636316" lon="11.7484512"><ele>468.0</ele><time>2026-04-25T10:27:45.927Z</time></trkpt><trkpt lat="43.5637349" lon="11.7484321"><ele>468.0</ele><time>2026-04-25T10:27:46.926Z</time></trkpt><trkpt lat="43.5638453" lon="11.7484213"><ele>470.4</ele><time>2026-04-25T10:27:47.927Z</time></trkpt><trkpt lat="43.5639456" lon="11.7483994"><ele>472.79999999999995</ele><time>2026-04-25T10:27:48.914Z</time></trkpt><trkpt lat="43.56403" lon="11.7483466"><ele>475.2</ele><time>2026-04-25T10:27:49.919Z</time></trkpt><trkpt lat="43.564118" lon="11.7482849"><ele>477.6</ele><time>2026-04-25T10:27:50.926Z</time></trkpt><trkpt lat="43.5641943" lon="11.7482367"><ele>480.0</ele><time>2026-04-25T10:27:51.92Z</time></trkpt><trkpt lat="43.5642883" lon="11.7481723"><ele>480.0</ele><time>2026-04-25T10:27:53.926Z</time></trkpt><trkpt lat="43.5643237" lon="11.7480904"><ele>480.0</ele><time>2026-04-25T10:27:55.925Z</time></trkpt><trkpt lat="43.5642653" lon="11.7479598"><ele>480.0</ele><time>2026-04-25T10:27:57.936Z</time></trkpt><trkpt lat="43.5641963" lon="11.7479124"><ele>480.0</ele><time>2026-04-25T10:27:58.928Z</time></trkpt><trkpt lat="43.5641128" lon="11.7478753"><ele>480.0</ele><time>2026-04-25T10:27:59.921Z</time></trkpt><trkpt lat="43.5640149" lon="11.7478591"><ele>480.0</ele><time>2026-04-25T10:28:00.913Z</time></trkpt><trkpt lat="43.5639254" lon="11.74784"><ele>480.0</ele><time>2026-04-25T10:28:01.927Z</time></trkpt><trkpt lat="43.563838" lon="11.7477989"><ele>480.0</ele><time>2026-04-25T10:28:02.915Z</time></trkpt><trkpt lat="43.5637548" lon="11.7477524"><ele>480.0</ele><time>2026-04-25T10:28:03.923Z</time></trkpt><trkpt lat="43.5636746" lon="11.7476954"><ele>480.0</ele><time>2026-04-25T10:28:04.915Z</time></trkpt><trkpt lat="43.5635969" lon="11.7476153"><ele>480.0</ele><time>2026-04-25T10:28:05.932Z</time></trkpt><trkpt lat="43.5635265" lon="11.7475162"><ele>478.5</ele><time>2026-04-25T10:28:06.916Z</time></trkpt><trkpt lat="43.5634595" lon="11.7473974"><ele>477.0</ele><time>2026-04-25T10:28:07.913Z</time></trkpt><trkpt lat="43.5633887" lon="11.7472757"><ele>475.5</ele><time>2026-04-25T10:28:08.918Z</time></trkpt><trkpt lat="43.5633337" lon="11.7471412"><ele>474.0</ele><time>2026-04-25T10:28:09.914Z</time></trkpt><trkpt lat="43.5632848" lon="11.7469891"><ele>477.0</ele><time>2026-04-25T10:28:10.913Z</time></trkpt><trkpt lat="43.5632445" lon="11.7468169"><ele>480.0</ele><time>2026-04-25T10:28:11.915Z</time></trkpt><trkpt lat="43.56322" lon="11.7466594"><ele>483.0</ele><time>2026-04-25T10:28:12.913Z</time></trkpt><trkpt lat="43.5632047" lon="11.7465318"><ele>486.0</ele><time>2026-04-25T10:28:13.915Z</time></trkpt><trkpt lat="43.5632139" lon="11.7463716"><ele>486.0</ele><time>2026-04-25T10:28:15.916Z</time></trkpt><trkpt lat="43.5632491" lon="11.7462833"><ele>486.0</ele><time>2026-04-25T10:28:16.917Z</time></trkpt><trkpt lat="43.5632906" lon="11.7462043"><ele>486.0</ele><time>2026-04-25T10:28:17.912Z</time></trkpt><trkpt lat="43.5633227" lon="11.7461069"><ele>486.0</ele><time>2026-04-25T10:28:18.914Z</time></trkpt><trkpt lat="43.5633376" lon="11.7459718"><ele>486.0</ele><time>2026-04-25T10:28:19.918Z</time></trkpt><trkpt lat="43.5633506" lon="11.7457928"><ele>486.0</ele><time>2026-04-25T10:28:20.925Z</time></trkpt><trkpt lat="43.5633695" lon="11.7455868"><ele>486.0</ele><time>2026-04-25T10:28:21.922Z</time></trkpt><trkpt lat="43.5634101" lon="11.7453459"><ele>486.0</ele><time>2026-04-25T10:28:22.926Z</time></trkpt><trkpt lat="43.5634418" lon="11.7451055"><ele>486.0</ele><time>2026-04-25T10:28:23.913Z</time></trkpt><trkpt lat="43.5634595" lon="11.7448516"><ele>486.0</ele><time>2026-04-25T10:28:24.931Z</time></trkpt><trkpt lat="43.5634656" lon="11.7445936"><ele>486.0</ele><time>2026-04-25T10:28:25.921Z</time></trkpt><trkpt lat="43.5634767" lon="11.7443701"><ele>485.0</ele><time>2026-04-25T10:28:26.926Z</time></trkpt><trkpt lat="43.5634982" lon="11.7441659"><ele>484.0</ele><time>2026-04-25T10:28:27.916Z</time></trkpt><trkpt lat="43.5635308" lon="11.743985"><ele>483.0</ele><time>2026-04-25T10:28:28.925Z</time></trkpt><trkpt lat="43.5635597" lon="11.7438232"><ele>482.0</ele><time>2026-04-25T10:28:29.92Z</time></trkpt><trkpt lat="43.5635656" lon="11.7436579"><ele>482.75</ele><time>2026-04-25T10:28:30.919Z</time></trkpt><trkpt lat="43.5635204" lon="11.7434941"><ele>483.5</ele><time>2026-04-25T10:28:31.915Z</time></trkpt><trkpt lat="43.56344" lon="11.7433375"><ele>484.25</ele><time>2026-04-25T10:28:32.93Z</time></trkpt><trkpt lat="43.5633734" lon="11.7431945"><ele>485.0</ele><time>2026-04-25T10:28:33.921Z</time></trkpt><trkpt lat="43.5633523" lon="11.7430419"><ele>485.0</ele><time>2026-04-25T10:28:34.935Z</time></trkpt><trkpt lat="43.5633518" lon="11.7428824"><ele>485.0</ele><time>2026-04-25T10:28:35.925Z</time></trkpt><trkpt lat="43.5633724" lon="11.7427197"><ele>485.0</ele><time>2026-04-25T10:28:36.934Z</time></trkpt><trkpt lat="43.5634128" lon="11.7425382"><ele>485.0</ele><time>2026-04-25T10:28:37.927Z</time></trkpt><trkpt lat="43.5634689" lon="11.7423728"><ele>485.66666666666663</ele><time>2026-04-25T10:28:38.924Z</time></trkpt><trkpt lat="43.5635474" lon="11.7422052"><ele>486.33333333333337</ele><time>2026-04-25T10:28:39.934Z</time></trkpt><trkpt lat="43.5636495" lon="11.74203"><ele>487.0</ele><time>2026-04-25T10:28:40.937Z</time></trkpt><trkpt lat="43.5637665" lon="11.741825"><ele>491.0</ele><time>2026-04-25T10:28:41.945Z</time></trkpt><trkpt lat="43.5638811" lon="11.741594"><ele>495.0</ele><time>2026-04-25T10:28:42.919Z</time></trkpt><trkpt lat="43.5639764" lon="11.7413752"><ele>499.0</ele><time>2026-04-25T10:28:43.935Z</time></trkpt><trkpt lat="43.5640418" lon="11.7411947"><ele>499.0</ele><time>2026-04-25T10:28:44.924Z</time></trkpt><trkpt lat="43.5641022" lon="11.7410648"><ele>499.0</ele><time>2026-04-25T10:28:45.929Z</time></trkpt><trkpt lat="43.5641318" lon="11.7409368"><ele>499.0</ele><time>2026-04-25T10:28:46.933Z</time></trkpt><trkpt lat="43.5641231" lon="11.7408251"><ele>499.0</ele><time>2026-04-25T10:28:47.921Z</time></trkpt><trkpt lat="43.5640702" lon="11.7407691"><ele>499.0</ele><time>2026-04-25T10:28:48.924Z</time></trkpt><trkpt lat="43.5639762" lon="11.7407762"><ele>497.5</ele><time>2026-04-25T10:28:49.921Z</time></trkpt><trkpt lat="43.5638802" lon="11.7408556"><ele>496.0</ele><time>2026-04-25T10:28:50.929Z</time></trkpt><trkpt lat="43.5637663" lon="11.7409595"><ele>494.5</ele><time>2026-04-25T10:28:51.919Z</time></trkpt><trkpt lat="43.5636352" lon="11.7410768"><ele>493.0</ele><time>2026-04-25T10:28:52.926Z</time></trkpt><trkpt lat="43.5635112" lon="11.7411785"><ele>493.0</ele><time>2026-04-25T10:28:53.922Z</time></trkpt><trkpt lat="43.5634035" lon="11.7412221"><ele>493.0</ele><time>2026-04-25T10:28:54.939Z</time></trkpt><trkpt lat="43.5632623" lon="11.7412191"><ele>493.0</ele><time>2026-04-25T10:28:55.924Z</time></trkpt><trkpt lat="43.5630971" lon="11.7412064"><ele>493.0</ele><time>2026-04-25T10:28:56.915Z</time></trkpt><trkpt lat="43.5629466" lon="11.7412037"><ele>492.0</ele><time>2026-04-25T10:28:57.924Z</time></trkpt><trkpt lat="43.5628157" lon="11.7411944"><ele>491.0</ele><time>2026-04-25T10:28:58.931Z</time></trkpt><trkpt lat="43.5626936" lon="11.741181"><ele>490.0</ele><time>2026-04-25T10:28:59.92Z</time></trkpt><trkpt lat="43.5625723" lon="11.7411542"><ele>489.0</ele><time>2026-04-25T10:29:00.919Z</time></trkpt><trkpt lat="43.5624548" lon="11.7411151"><ele>494.25</ele><time>2026-04-25T10:29:01.919Z</time></trkpt><trkpt lat="43.562335" lon="11.7410457"><ele>499.5</ele><time>2026-04-25T10:29:02.934Z</time></trkpt><trkpt lat="43.5622193" lon="11.740978"><ele>504.75</ele><time>2026-04-25T10:29:03.929Z</time></trkpt><trkpt lat="43.5620888" lon="11.7409201"><ele>510.0</ele><time>2026-04-25T10:29:04.921Z</time></trkpt><trkpt lat="43.5619356" lon="11.7409072"><ele>510.0</ele><time>2026-04-25T10:29:05.927Z</time></trkpt><trkpt lat="43.5617661" lon="11.7409224"><ele>510.0</ele><time>2026-04-25T10:29:06.929Z</time></trkpt><trkpt lat="43.5615928" lon="11.7409353"><ele>510.0</ele><time>2026-04-25T10:29:07.928Z</time></trkpt><trkpt lat="43.5614179" lon="11.7409463"><ele>510.0</ele><time>2026-04-25T10:29:08.924Z</time></trkpt><trkpt lat="43.5612368" lon="11.7409302"><ele>510.0</ele><time>2026-04-25T10:29:09.932Z</time></trkpt><trkpt lat="43.5610503" lon="11.7408861"><ele>510.0</ele><time>2026-04-25T10:29:10.931Z</time></trkpt><trkpt lat="43.5608663" lon="11.7408462"><ele>509.75</ele><time>2026-04-25T10:29:11.929Z</time></trkpt><trkpt lat="43.5607115" lon="11.7408113"><ele>509.5</ele><time>2026-04-25T10:29:12.928Z</time></trkpt><trkpt lat="43.56058" lon="11.7408156"><ele>509.25</ele><time>2026-04-25T10:29:13.928Z</time></trkpt><trkpt lat="43.5604598" lon="11.740849"><ele>509.0</ele><time>2026-04-25T10:29:14.925Z</time></trkpt><trkpt lat="43.5603643" lon="11.7409198"><ele>509.0</ele><time>2026-04-25T10:29:15.94Z</time></trkpt><trkpt lat="43.5602862" lon="11.7409717"><ele>509.0</ele><time>2026-04-25T10:29:16.921Z</time></trkpt><trkpt lat="43.5602056" lon="11.740971"><ele>509.0</ele><time>2026-04-25T10:29:17.934Z</time></trkpt><trkpt lat="43.5601275" lon="11.7409064"><ele>509.0</ele><time>2026-04-25T10:29:18.925Z</time></trkpt><trkpt lat="43.5600481" lon="11.7408"><ele>509.0</ele><time>2026-04-25T10:29:19.929Z</time></trkpt><trkpt lat="43.5599651" lon="11.740678"><ele>508.99999999999994</ele><time>2026-04-25T10:29:20.93Z</time></trkpt><trkpt lat="43.5598849" lon="11.7405638"><ele>509.0</ele><time>2026-04-25T10:29:21.933Z</time></trkpt><trkpt lat="43.5598078" lon="11.7404864"><ele>509.0</ele><time>2026-04-25T10:29:22.927Z</time></trkpt><trkpt lat="43.5597514" lon="11.7404266"><ele>509.0</ele><time>2026-04-25T10:29:23.93Z</time></trkpt><trkpt lat="43.5597289" lon="11.7403429"><ele>508.99999999999994</ele><time>2026-04-25T10:29:25.924Z</time></trkpt><trkpt lat="43.5598006" lon="11.7402926"><ele>509.0</ele><time>2026-04-25T10:29:28.923Z</time></trkpt><trkpt lat="43.5599353" lon="11.7403527"><ele>509.0</ele><time>2026-04-25T10:29:30.928Z</time></trkpt><trkpt lat="43.5600201" lon="11.740372"><ele>509.0</ele><time>2026-04-25T10:29:31.929Z</time></trkpt><trkpt lat="43.5601174" lon="11.7403779"><ele>509.0</ele><time>2026-04-25T10:29:32.929Z</time></trkpt><trkpt lat="43.5602342" lon="11.7403837"><ele>509.0</ele><time>2026-04-25T10:29:33.924Z</time></trkpt><trkpt lat="43.5604003" lon="11.7403354"><ele>508.0</ele><time>2026-04-25T10:29:34.933Z</time></trkpt><trkpt lat="43.5605988" lon="11.7402637"><ele>507.0</ele><time>2026-04-25T10:29:35.926Z</time></trkpt><trkpt lat="43.560796" lon="11.7401971"><ele>506.0</ele><time>2026-04-25T10:29:36.93Z</time></trkpt><trkpt lat="43.5609926" lon="11.7401247"><ele>513.0</ele><time>2026-04-25T10:29:37.931Z</time></trkpt><trkpt lat="43.5611779" lon="11.74006"><ele>520.0</ele><time>2026-04-25T10:29:38.934Z</time></trkpt><trkpt lat="43.5613487" lon="11.7400174"><ele>527.0</ele><time>2026-04-25T10:29:39.923Z</time></trkpt><trkpt lat="43.5614949" lon="11.7400046"><ele>528.75</ele><time>2026-04-25T10:29:40.934Z</time></trkpt><trkpt lat="43.5616209" lon="11.7400499"><ele>530.5</ele><time>2026-04-25T10:29:41.926Z</time></trkpt><trkpt lat="43.5617362" lon="11.7401229"><ele>532.25</ele><time>2026-04-25T10:29:42.923Z</time></trkpt><trkpt lat="43.5618489" lon="11.7401442"><ele>534.0</ele><time>2026-04-25T10:29:43.922Z</time></trkpt><trkpt lat="43.5619592" lon="11.740068"><ele>534.0</ele><time>2026-04-25T10:29:44.928Z</time></trkpt><trkpt lat="43.5620911" lon="11.7399459"><ele>534.0</ele><time>2026-04-25T10:29:45.925Z</time></trkpt><trkpt lat="43.5622243" lon="11.7397778"><ele>534.0</ele><time>2026-04-25T10:29:46.934Z</time></trkpt><trkpt lat="43.5623675" lon="11.7396047"><ele>534.0</ele><time>2026-04-25T10:29:47.928Z</time></trkpt><trkpt lat="43.5625257" lon="11.7394301"><ele>534.0</ele><time>2026-04-25T10:29:48.929Z</time></trkpt><trkpt lat="43.5626914" lon="11.7392714"><ele>534.0</ele><time>2026-04-25T10:29:49.928Z</time></trkpt><trkpt lat="43.5628603" lon="11.7391461"><ele>536.3333333333334</ele><time>2026-04-25T10:29:50.929Z</time></trkpt><trkpt lat="43.5630253" lon="11.7390519"><ele>538.6666666666667</ele><time>2026-04-25T10:29:51.93Z</time></trkpt><trkpt lat="43.5631765" lon="11.7389313"><ele>541.0</ele><time>2026-04-25T10:29:52.943Z</time></trkpt><trkpt lat="43.5633149" lon="11.7387526"><ele>547.6666666666667</ele><time>2026-04-25T10:29:53.922Z</time></trkpt><trkpt lat="43.5634351" lon="11.7385298"><ele>554.3333333333334</ele><time>2026-04-25T10:29:54.929Z</time></trkpt><trkpt lat="43.5635591" lon="11.7383236"><ele>561.0</ele><time>2026-04-25T10:29:55.934Z</time></trkpt><trkpt lat="43.5636698" lon="11.7381916"><ele>558.3333333333334</ele><time>2026-04-25T10:29:56.928Z</time></trkpt><trkpt lat="43.5637936" lon="11.7381027"><ele>555.6666666666667</ele><time>2026-04-25T10:29:57.936Z</time></trkpt><trkpt lat="43.5639551" lon="11.7380827"><ele>553.0</ele><time>2026-04-25T10:29:58.93Z</time></trkpt><trkpt lat="43.5641227" lon="11.738067"><ele>553.0</ele><time>2026-04-25T10:29:59.942Z</time></trkpt><trkpt lat="43.564262" lon="11.7380106"><ele>553.0</ele><time>2026-04-25T10:30:00.928Z</time></trkpt><trkpt lat="43.5643801" lon="11.7378589"><ele>553.0</ele><time>2026-04-25T10:30:01.922Z</time></trkpt><trkpt lat="43.5645143" lon="11.7376562"><ele>557.3333333333334</ele><time>2026-04-25T10:30:02.935Z</time></trkpt><trkpt lat="43.5646433" lon="11.7374399"><ele>561.6666666666666</ele><time>2026-04-25T10:30:03.927Z</time></trkpt><trkpt lat="43.5647751" lon="11.737213"><ele>566.0</ele><time>2026-04-25T10:30:04.928Z</time></trkpt><trkpt lat="43.5649163" lon="11.7369866"><ele>570.6666666666666</ele><time>2026-04-25T10:30:05.927Z</time></trkpt><trkpt lat="43.5650413" lon="11.7367698"><ele>575.3333333333334</ele><time>2026-04-25T10:30:06.927Z</time></trkpt><trkpt lat="43.5651566" lon="11.7365957"><ele>580.0</ele><time>2026-04-25T10:30:07.925Z</time></trkpt><trkpt lat="43.5652734" lon="11.7364528"><ele>576.0</ele><time>2026-04-25T10:30:08.922Z</time></trkpt><trkpt lat="43.5654105" lon="11.7363828"><ele>572.0</ele><time>2026-04-25T10:30:09.934Z</time></trkpt><trkpt lat="43.5655688" lon="11.7363391"><ele>568.0</ele><time>2026-04-25T10:30:10.921Z</time></trkpt><trkpt lat="43.565708" lon="11.7362438"><ele>568.0</ele><time>2026-04-25T10:30:11.928Z</time></trkpt><trkpt lat="43.5658177" lon="11.7360755"><ele>568.0</ele><time>2026-04-25T10:30:12.93Z</time></trkpt><trkpt lat="43.5659073" lon="11.735847"><ele>568.0</ele><time>2026-04-25T10:30:13.946Z</time></trkpt><trkpt lat="43.5659756" lon="11.7355846"><ele>573.0</ele><time>2026-04-25T10:30:14.916Z</time></trkpt><trkpt lat="43.5660473" lon="11.7353559"><ele>578.0</ele><time>2026-04-25T10:30:15.93Z</time></trkpt><trkpt lat="43.5661303" lon="11.7351677"><ele>583.0</ele><time>2026-04-25T10:30:16.933Z</time></trkpt><trkpt lat="43.5662321" lon="11.7349864"><ele>584.3333333333334</ele><time>2026-04-25T10:30:17.931Z</time></trkpt><trkpt lat="43.5663516" lon="11.7348128"><ele>585.6666666666666</ele><time>2026-04-25T10:30:18.925Z</time></trkpt><trkpt lat="43.5664987" lon="11.7346669"><ele>587.0</ele><time>2026-04-25T10:30:19.932Z</time></trkpt><trkpt lat="43.5666442" lon="11.7345458"><ele>587.0</ele><time>2026-04-25T10:30:20.931Z</time></trkpt><trkpt lat="43.5667819" lon="11.734478"><ele>587.0</ele><time>2026-04-25T10:30:21.926Z</time></trkpt><trkpt lat="43.5669413" lon="11.7344422"><ele>587.0</ele><time>2026-04-25T10:30:22.926Z</time></trkpt><trkpt lat="43.5671158" lon="11.734453"><ele>588.6666666666666</ele><time>2026-04-25T10:30:23.935Z</time></trkpt><trkpt lat="43.5672935" lon="11.7344895"><ele>590.3333333333334</ele><time>2026-04-25T10:30:24.933Z</time></trkpt><trkpt lat="43.5674595" lon="11.7344952"><ele>592.0</ele><time>2026-04-25T10:30:25.926Z</time></trkpt><trkpt lat="43.5675943" lon="11.7344271"><ele>591.3333333333334</ele><time>2026-04-25T10:30:26.925Z</time></trkpt><trkpt lat="43.5677157" lon="11.7342971"><ele>590.6666666666666</ele><time>2026-04-25T10:30:27.918Z</time></trkpt><trkpt lat="43.5678446" lon="11.7341137"><ele>590.0</ele><time>2026-04-25T10:30:28.924Z</time></trkpt><trkpt lat="43.5679845" lon="11.7338964"><ele>590.0</ele><time>2026-04-25T10:30:29.934Z</time></trkpt><trkpt lat="43.5681283" lon="11.7336942"><ele>590.0</ele><time>2026-04-25T10:30:30.93Z</time></trkpt><trkpt lat="43.5682612" lon="11.7334899"><ele>590.0</ele><time>2026-04-25T10:30:31.934Z</time></trkpt><trkpt lat="43.5683727" lon="11.733315"><ele>594.3333333333333</ele><time>2026-04-25T10:30:32.924Z</time></trkpt><trkpt lat="43.5684869" lon="11.7331767"><ele>598.6666666666666</ele><time>2026-04-25T10:30:33.927Z</time></trkpt><trkpt lat="43.5686303" lon="11.7331411"><ele>603.0</ele><time>2026-04-25T10:30:34.932Z</time></trkpt><trkpt lat="43.5687837" lon="11.7331427"><ele>603.0</ele><time>2026-04-25T10:30:35.929Z</time></trkpt><trkpt lat="43.5689529" lon="11.7331905"><ele>603.0</ele><time>2026-04-25T10:30:36.93Z</time></trkpt><trkpt lat="43.569136" lon="11.7332445"><ele>603.0</ele><time>2026-04-25T10:30:37.921Z</time></trkpt><trkpt lat="43.5693252" lon="11.7332686"><ele>603.0</ele><time>2026-04-25T10:30:38.926Z</time></trkpt><trkpt lat="43.5695069" lon="11.7332344"><ele>603.0</ele><time>2026-04-25T10:30:39.925Z</time></trkpt><trkpt lat="43.5697112" lon="11.7331602"><ele>603.0</ele><time>2026-04-25T10:30:40.926Z</time></trkpt><trkpt lat="43.5699254" lon="11.7330611"><ele>603.0</ele><time>2026-04-25T10:30:41.925Z</time></trkpt><trkpt lat="43.570145" lon="11.7329591"><ele>603.0</ele><time>2026-04-25T10:30:42.922Z</time></trkpt><trkpt lat="43.570358" lon="11.7328511"><ele>602.3333333333334</ele><time>2026-04-25T10:30:43.926Z</time></trkpt><trkpt lat="43.5705491" lon="11.7327342"><ele>601.6666666666667</ele><time>2026-04-25T10:30:44.943Z</time></trkpt><trkpt lat="43.5707215" lon="11.732626"><ele>601.0</ele><time>2026-04-25T10:30:45.926Z</time></trkpt><trkpt lat="43.5708699" lon="11.7325218"><ele>605.6666666666667</ele><time>2026-04-25T10:30:46.926Z</time></trkpt><trkpt lat="43.5710035" lon="11.7323856"><ele>610.3333333333334</ele><time>2026-04-25T10:30:47.926Z</time></trkpt><trkpt lat="43.5711169" lon="11.7322041"><ele>615.0</ele><time>2026-04-25T10:30:48.924Z</time></trkpt><trkpt lat="43.5712273" lon="11.7320406"><ele>615.25</ele><time>2026-04-25T10:30:49.923Z</time></trkpt><trkpt lat="43.5713596" lon="11.7319153"><ele>615.5</ele><time>2026-04-25T10:30:50.926Z</time></trkpt><trkpt lat="43.5714815" lon="11.7317951"><ele>615.75</ele><time>2026-04-25T10:30:51.922Z</time></trkpt><trkpt lat="43.5715429" lon="11.7316322"><ele>616.0</ele><time>2026-04-25T10:30:52.922Z</time></trkpt><trkpt lat="43.5715409" lon="11.7314188"><ele>617.25</ele><time>2026-04-25T10:30:53.921Z</time></trkpt><trkpt lat="43.5715339" lon="11.7312069"><ele>618.5</ele><time>2026-04-25T10:30:54.924Z</time></trkpt><trkpt lat="43.5715497" lon="11.7310213"><ele>619.75</ele><time>2026-04-25T10:30:55.919Z</time></trkpt><trkpt lat="43.571623" lon="11.7308649"><ele>621.0</ele><time>2026-04-25T10:30:56.92Z</time></trkpt><trkpt lat="43.5717252" lon="11.7307301"><ele>624.6666666666666</ele><time>2026-04-25T10:30:57.92Z</time></trkpt><trkpt lat="43.5718077" lon="11.7305552"><ele>628.3333333333333</ele><time>2026-04-25T10:30:58.919Z</time></trkpt><trkpt lat="43.5718594" lon="11.7303257"><ele>632.0</ele><time>2026-04-25T10:30:59.921Z</time></trkpt><trkpt lat="43.571893" lon="11.7300918"><ele>632.6666666666666</ele><time>2026-04-25T10:31:00.933Z</time></trkpt><trkpt lat="43.5719388" lon="11.7298594"><ele>633.3333333333334</ele><time>2026-04-25T10:31:01.915Z</time></trkpt><trkpt lat="43.5720037" lon="11.7296682"><ele>634.0</ele><time>2026-04-25T10:31:02.919Z</time></trkpt><trkpt lat="43.5720924" lon="11.7294952"><ele>633.8</ele><time>2026-04-25T10:31:03.924Z</time></trkpt><trkpt lat="43.5721806" lon="11.7293628"><ele>633.5999999999999</ele><time>2026-04-25T10:31:04.921Z</time></trkpt><trkpt lat="43.572269" lon="11.7292743"><ele>633.4</ele><time>2026-04-25T10:31:05.928Z</time></trkpt><trkpt lat="43.5723549" lon="11.7292041"><ele>633.1999999999999</ele><time>2026-04-25T10:31:06.929Z</time></trkpt><trkpt lat="43.5724397" lon="11.7291204"><ele>633.0</ele><time>2026-04-25T10:31:07.934Z</time></trkpt><trkpt lat="43.5725097" lon="11.729038"><ele>633.0</ele><time>2026-04-25T10:31:08.933Z</time></trkpt><trkpt lat="43.5725898" lon="11.7289314"><ele>633.0</ele><time>2026-04-25T10:31:10.928Z</time></trkpt><trkpt lat="43.5726314" lon="11.7288167"><ele>633.0</ele><time>2026-04-25T10:31:12.927Z</time></trkpt><trkpt lat="43.572624" lon="11.7287103"><ele>633.0</ele><time>2026-04-25T10:31:13.925Z</time></trkpt><trkpt lat="43.5725852" lon="11.728597"><ele>633.0</ele><time>2026-04-25T10:31:14.926Z</time></trkpt><trkpt lat="43.5725155" lon="11.7285487"><ele>633.0</ele><time>2026-04-25T10:31:15.925Z</time></trkpt><trkpt lat="43.5724294" lon="11.7285681"><ele>633.0</ele><time>2026-04-25T10:31:16.927Z</time></trkpt><trkpt lat="43.5723774" lon="11.7286353"><ele>633.0</ele><time>2026-04-25T10:31:17.928Z</time></trkpt><trkpt lat="43.5723468" lon="11.7287522"><ele>633.0</ele><time>2026-04-25T10:31:18.923Z</time></trkpt><trkpt lat="43.5723521" lon="11.7288798"><ele>633.0</ele><time>2026-04-25T10:31:19.928Z</time></trkpt><trkpt lat="43.5723226" lon="11.7289931"><ele>633.0</ele><time>2026-04-25T10:31:20.923Z</time></trkpt><trkpt lat="43.5722596" lon="11.729087"><ele>633.0</ele><time>2026-04-25T10:31:21.929Z</time></trkpt><trkpt lat="43.572182" lon="11.7291571"><ele>633.0</ele><time>2026-04-25T10:31:22.935Z</time></trkpt><trkpt lat="43.5720853" lon="11.7292069"><ele>633.0</ele><time>2026-04-25T10:31:23.92Z</time></trkpt><trkpt lat="43.571962" lon="11.7292132"><ele>633.0</ele><time>2026-04-25T10:31:24.926Z</time></trkpt><trkpt lat="43.5718588" lon="11.7292168"><ele>633.0</ele><time>2026-04-25T10:31:25.923Z</time></trkpt><trkpt lat="43.5717645" lon="11.7292373"><ele>635.75</ele><time>2026-04-25T10:31:26.918Z</time></trkpt><trkpt lat="43.5717031" lon="11.7293061"><ele>638.5</ele><time>2026-04-25T10:31:27.918Z</time></trkpt><trkpt lat="43.5716744" lon="11.7294439"><ele>641.25</ele><time>2026-04-25T10:31:28.93Z</time></trkpt><trkpt lat="43.5716477" lon="11.729634"><ele>644.0</ele><time>2026-04-25T10:31:29.938Z</time></trkpt><trkpt lat="43.571631" lon="11.7298468"><ele>644.0</ele><time>2026-04-25T10:31:30.92Z</time></trkpt><trkpt lat="43.5715935" lon="11.7300272"><ele>644.0</ele><time>2026-04-25T10:31:31.925Z</time></trkpt><trkpt lat="43.5715509" lon="11.7301909"><ele>644.0</ele><time>2026-04-25T10:31:32.938Z</time></trkpt><trkpt lat="43.5714973" lon="11.7303401"><ele>644.0</ele><time>2026-04-25T10:31:33.927Z</time></trkpt><trkpt lat="43.5714293" lon="11.7304694"><ele>646.5</ele><time>2026-04-25T10:31:34.927Z</time></trkpt><trkpt lat="43.571331" lon="11.7305548"><ele>649.0</ele><time>2026-04-25T10:31:35.947Z</time></trkpt><trkpt lat="43.5712156" lon="11.7305981"><ele>651.5</ele><time>2026-04-25T10:31:36.93Z</time></trkpt><trkpt lat="43.5710866" lon="11.7306125"><ele>654.0</ele><time>2026-04-25T10:31:37.926Z</time></trkpt><trkpt lat="43.5709633" lon="11.7306389"><ele>654.0</ele><time>2026-04-25T10:31:38.927Z</time></trkpt><trkpt lat="43.5708481" lon="11.73069"><ele>654.0</ele><time>2026-04-25T10:31:39.929Z</time></trkpt><trkpt lat="43.5707553" lon="11.7308052"><ele>654.0</ele><time>2026-04-25T10:31:40.92Z</time></trkpt><trkpt lat="43.5706862" lon="11.7309517"><ele>654.0</ele><time>2026-04-25T10:31:41.943Z</time></trkpt><trkpt lat="43.5706266" lon="11.7311155"><ele>653.75</ele><time>2026-04-25T10:31:42.923Z</time></trkpt><trkpt lat="43.5705657" lon="11.7312705"><ele>653.5</ele><time>2026-04-25T10:31:43.924Z</time></trkpt><trkpt lat="43.5704866" lon="11.731389"><ele>653.25</ele><time>2026-04-25T10:31:44.929Z</time></trkpt><trkpt lat="43.5703938" lon="11.7314692"><ele>653.0</ele><time>2026-04-25T10:31:45.925Z</time></trkpt><trkpt lat="43.5702947" lon="11.7315031"><ele>653.0</ele><time>2026-04-25T10:31:46.916Z</time></trkpt><trkpt lat="43.5702011" lon="11.7315177"><ele>653.0</ele><time>2026-04-25T10:31:47.915Z</time></trkpt><trkpt lat="43.5700968" lon="11.7314871"><ele>653.0</ele><time>2026-04-25T10:31:48.929Z</time></trkpt><trkpt lat="43.5700006" lon="11.7314115"><ele>653.0</ele><time>2026-04-25T10:31:49.928Z</time></trkpt><trkpt lat="43.5699156" lon="11.7313177"><ele>653.0</ele><time>2026-04-25T10:31:50.93Z</time></trkpt><trkpt lat="43.5698279" lon="11.7312069"><ele>653.0</ele><time>2026-04-25T10:31:51.931Z</time></trkpt><trkpt lat="43.5697377" lon="11.731067"><ele>653.0</ele><time>2026-04-25T10:31:52.921Z</time></trkpt><trkpt lat="43.5696448" lon="11.7308879"><ele>653.0</ele><time>2026-04-25T10:31:53.93Z</time></trkpt><trkpt lat="43.5695521" lon="11.7306794"><ele>653.3333333333333</ele><time>2026-04-25T10:31:54.922Z</time></trkpt><trkpt lat="43.5694496" lon="11.7304488"><ele>653.6666666666666</ele><time>2026-04-25T10:31:55.922Z</time></trkpt><trkpt lat="43.5693552" lon="11.7301945"><ele>654.0</ele><time>2026-04-25T10:31:56.918Z</time></trkpt><trkpt lat="43.5692822" lon="11.7299116"><ele>658.0</ele><time>2026-04-25T10:31:57.933Z</time></trkpt><trkpt lat="43.5692192" lon="11.7295993"><ele>662.0</ele><time>2026-04-25T10:31:58.928Z</time></trkpt><trkpt lat="43.5691623" lon="11.7293108"><ele>665.0</ele><time>2026-04-25T10:31:59.922Z</time></trkpt><trkpt lat="43.5691212" lon="11.7290401"><ele>668.0</ele><time>2026-04-25T10:32:00.932Z</time></trkpt><trkpt lat="43.5690886" lon="11.7287953"><ele>671.0</ele><time>2026-04-25T10:32:01.929Z</time></trkpt><trkpt lat="43.5690719" lon="11.7285875"><ele>673.6666666666666</ele><time>2026-04-25T10:32:02.926Z</time></trkpt><trkpt lat="43.5690724" lon="11.7283759"><ele>676.3333333333334</ele><time>2026-04-25T10:32:03.93Z</time></trkpt><trkpt lat="43.569099" lon="11.7281513"><ele>679.0</ele><time>2026-04-25T10:32:04.925Z</time></trkpt><trkpt lat="43.5691558" lon="11.7279017"><ele>679.6666666666667</ele><time>2026-04-25T10:32:05.921Z</time></trkpt><trkpt lat="43.5692126" lon="11.7276233"><ele>680.3333333333334</ele><time>2026-04-25T10:32:06.925Z</time></trkpt><trkpt lat="43.5692657" lon="11.7273465"><ele>681.0</ele><time>2026-04-25T10:32:07.933Z</time></trkpt><trkpt lat="43.5693196" lon="11.7270916"><ele>681.0</ele><time>2026-04-25T10:32:08.934Z</time></trkpt><trkpt lat="43.5693605" lon="11.7268693"><ele>681.0</ele><time>2026-04-25T10:32:09.926Z</time></trkpt><trkpt lat="43.5693959" lon="11.7267056"><ele>681.0</ele><time>2026-04-25T10:32:10.917Z</time></trkpt><trkpt lat="43.56945" lon="11.7265795"><ele>681.0</ele><time>2026-04-25T10:32:11.922Z</time></trkpt><trkpt lat="43.5695412" lon="11.7264909"><ele>683.0</ele><time>2026-04-25T10:32:12.926Z</time></trkpt><trkpt lat="43.569654" lon="11.7264402"><ele>685.0</ele><time>2026-04-25T10:32:13.938Z</time></trkpt><trkpt lat="43.5697893" lon="11.7264199"><ele>687.0</ele><time>2026-04-25T10:32:14.924Z</time></trkpt><trkpt lat="43.5699545" lon="11.7264061"><ele>689.0</ele><time>2026-04-25T10:32:15.93Z</time></trkpt><trkpt lat="43.5701381" lon="11.7263819"><ele>689.0</ele><time>2026-04-25T10:32:16.927Z</time></trkpt><trkpt lat="43.5702953" lon="11.7263415"><ele>689.0</ele><time>2026-04-25T10:32:17.924Z</time></trkpt><trkpt lat="43.5704054" lon="11.7262692"><ele>689.0</ele><time>2026-04-25T10:32:18.927Z</time></trkpt><trkpt lat="43.5704822" lon="11.7261504"><ele>689.0</ele><time>2026-04-25T10:32:19.921Z</time></trkpt><trkpt lat="43.5705197" lon="11.7259846"><ele>689.0</ele><time>2026-04-25T10:32:20.918Z</time></trkpt><trkpt lat="43.5705214" lon="11.7258051"><ele>689.0</ele><time>2026-04-25T10:32:21.924Z</time></trkpt><trkpt lat="43.570465" lon="11.725631"><ele>689.0</ele><time>2026-04-25T10:32:22.928Z</time></trkpt><trkpt lat="43.5703875" lon="11.725451"><ele>689.0</ele><time>2026-04-25T10:32:23.928Z</time></trkpt><trkpt lat="43.5702836" lon="11.7252476"><ele>691.0</ele><time>2026-04-25T10:32:24.927Z</time></trkpt><trkpt lat="43.5701836" lon="11.7250229"><ele>693.0</ele><time>2026-04-25T10:32:25.921Z</time></trkpt><trkpt lat="43.5700812" lon="11.7247854"><ele>695.0</ele><time>2026-04-25T10:32:26.93Z</time></trkpt><trkpt lat="43.5699687" lon="11.7245692"><ele>697.0</ele><time>2026-04-25T10:32:27.929Z</time></trkpt><trkpt lat="43.5698601" lon="11.7243867"><ele>699.0</ele><time>2026-04-25T10:32:28.925Z</time></trkpt><trkpt lat="43.5697862" lon="11.7242289"><ele>701.0</ele><time>2026-04-25T10:32:29.931Z</time></trkpt><trkpt lat="43.5697485" lon="11.724052"><ele>703.0</ele><time>2026-04-25T10:32:30.931Z</time></trkpt><trkpt lat="43.5697125" lon="11.723848"><ele>703.0</ele><time>2026-04-25T10:32:31.922Z</time></trkpt><trkpt lat="43.5696961" lon="11.7236133"><ele>703.0</ele><time>2026-04-25T10:32:32.92Z</time></trkpt><trkpt lat="43.5696956" lon="11.7233672"><ele>703.0</ele><time>2026-04-25T10:32:33.929Z</time></trkpt><trkpt lat="43.5696985" lon="11.7231372"><ele>702.6666666666667</ele><time>2026-04-25T10:32:34.93Z</time></trkpt><trkpt lat="43.5696728" lon="11.7229238"><ele>702.3333333333334</ele><time>2026-04-25T10:32:35.935Z</time></trkpt><trkpt lat="43.5695975" lon="11.7227099"><ele>702.0</ele><time>2026-04-25T10:32:36.919Z</time></trkpt><trkpt lat="43.5695014" lon="11.7224903"><ele>702.0</ele><time>2026-04-25T10:32:37.914Z</time></trkpt><trkpt lat="43.5694338" lon="11.7222368"><ele>702.0</ele><time>2026-04-25T10:32:38.927Z</time></trkpt><trkpt lat="43.569395" lon="11.7219478"><ele>702.0</ele><time>2026-04-25T10:32:39.927Z</time></trkpt><trkpt lat="43.5693486" lon="11.7216509"><ele>704.6666666666666</ele><time>2026-04-25T10:32:40.927Z</time></trkpt><trkpt lat="43.569302" lon="11.7213831"><ele>707.3333333333333</ele><time>2026-04-25T10:32:41.926Z</time></trkpt><trkpt lat="43.5692681" lon="11.7211739"><ele>710.0</ele><time>2026-04-25T10:32:42.929Z</time></trkpt><trkpt lat="43.5692563" lon="11.7209919"><ele>711.0</ele><time>2026-04-25T10:32:43.913Z</time></trkpt><trkpt lat="43.5692815" lon="11.7208204"><ele>712.0</ele><time>2026-04-25T10:32:44.929Z</time></trkpt><trkpt lat="43.5693489" lon="11.7206455"><ele>713.0</ele><time>2026-04-25T10:32:45.932Z</time></trkpt><trkpt lat="43.5694492" lon="11.7204731"><ele>714.0</ele><time>2026-04-25T10:32:46.924Z</time></trkpt><trkpt lat="43.5695748" lon="11.720305"><ele>718.6666666666666</ele><time>2026-04-25T10:32:47.932Z</time></trkpt><trkpt lat="43.5697098" lon="11.7201234"><ele>723.3333333333333</ele><time>2026-04-25T10:32:48.932Z</time></trkpt><trkpt lat="43.5698613" lon="11.7199328"><ele>728.0</ele><time>2026-04-25T10:32:49.918Z</time></trkpt><trkpt lat="43.5700151" lon="11.7197447"><ele>728.0</ele><time>2026-04-25T10:32:50.924Z</time></trkpt><trkpt lat="43.5701662" lon="11.7195634"><ele>728.0</ele><time>2026-04-25T10:32:51.944Z</time></trkpt><trkpt lat="43.570316" lon="11.719391"><ele>728.0</ele><time>2026-04-25T10:32:52.931Z</time></trkpt><trkpt lat="43.57047" lon="11.7192383"><ele>730.5</ele><time>2026-04-25T10:32:53.924Z</time></trkpt><trkpt lat="43.5706084" lon="11.7191343"><ele>733.0</ele><time>2026-04-25T10:32:54.922Z</time></trkpt><trkpt lat="43.5707354" lon="11.719096"><ele>735.5</ele><time>2026-04-25T10:32:55.923Z</time></trkpt><trkpt lat="43.5708661" lon="11.7191137"><ele>738.0</ele><time>2026-04-25T10:32:56.915Z</time></trkpt><trkpt lat="43.5709874" lon="11.719166"><ele>738.0</ele><time>2026-04-25T10:32:57.918Z</time></trkpt><trkpt lat="43.57109" lon="11.719237"><ele>738.0</ele><time>2026-04-25T10:32:58.916Z</time></trkpt><trkpt lat="43.5711966" lon="11.719249"><ele>738.0</ele><time>2026-04-25T10:32:59.92Z</time></trkpt><trkpt lat="43.5712872" lon="11.7191716"><ele>738.0</ele><time>2026-04-25T10:33:00.921Z</time></trkpt><trkpt lat="43.5713385" lon="11.7190008"><ele>738.75</ele><time>2026-04-25T10:33:01.915Z</time></trkpt><trkpt lat="43.5713937" lon="11.7188187"><ele>739.5</ele><time>2026-04-25T10:33:02.918Z</time></trkpt><trkpt lat="43.5714437" lon="11.7186194"><ele>740.25</ele><time>2026-04-25T10:33:03.917Z</time></trkpt><trkpt lat="43.5714907" lon="11.7184632"><ele>741.0</ele><time>2026-04-25T10:33:04.922Z</time></trkpt><trkpt lat="43.5715607" lon="11.7183359"><ele>741.0</ele><time>2026-04-25T10:33:05.925Z</time></trkpt><trkpt lat="43.5716887" lon="11.7182588"><ele>741.0</ele><time>2026-04-25T10:33:06.925Z</time></trkpt><trkpt lat="43.57185" lon="11.7182085"><ele>741.0</ele><time>2026-04-25T10:33:07.924Z</time></trkpt><trkpt lat="43.5720177" lon="11.7181586"><ele>746.6666666666666</ele><time>2026-04-25T10:33:08.925Z</time></trkpt><trkpt lat="43.5722001" lon="11.7181065"><ele>752.3333333333333</ele><time>2026-04-25T10:33:09.917Z</time></trkpt><trkpt lat="43.5723971" lon="11.718042"><ele>758.0</ele><time>2026-04-25T10:33:10.914Z</time></trkpt><trkpt lat="43.5726017" lon="11.7179739"><ele>758.0</ele><time>2026-04-25T10:33:11.934Z</time></trkpt><trkpt lat="43.5728185" lon="11.7179446"><ele>758.0</ele><time>2026-04-25T10:33:12.927Z</time></trkpt><trkpt lat="43.5730216" lon="11.7179084"><ele>758.0</ele><time>2026-04-25T10:33:13.925Z</time></trkpt><trkpt lat="43.5731921" lon="11.7178798"><ele>754.6666666666666</ele><time>2026-04-25T10:33:14.927Z</time></trkpt><trkpt lat="43.5733579" lon="11.7177859"><ele>751.3333333333334</ele><time>2026-04-25T10:33:15.924Z</time></trkpt><trkpt lat="43.5735187" lon="11.717687"><ele>748.0</ele><time>2026-04-25T10:33:16.933Z</time></trkpt><trkpt lat="43.5736518" lon="11.717633"><ele>749.6666666666667</ele><time>2026-04-25T10:33:17.925Z</time></trkpt><trkpt lat="43.5738013" lon="11.7176453"><ele>751.3333333333334</ele><time>2026-04-25T10:33:18.923Z</time></trkpt><trkpt lat="43.5739589" lon="11.7177035"><ele>753.0</ele><time>2026-04-25T10:33:19.924Z</time></trkpt><trkpt lat="43.5741301" lon="11.7178116"><ele>756.3333333333334</ele><time>2026-04-25T10:33:20.915Z</time></trkpt><trkpt lat="43.5743047" lon="11.7179291"><ele>759.6666666666667</ele><time>2026-04-25T10:33:21.92Z</time></trkpt><trkpt lat="43.5744758" lon="11.7180692"><ele>763.0</ele><time>2026-04-25T10:33:22.929Z</time></trkpt><trkpt lat="43.5746341" lon="11.7182113"><ele>763.0</ele><time>2026-04-25T10:33:23.924Z</time></trkpt><trkpt lat="43.5747667" lon="11.7183544"><ele>763.0</ele><time>2026-04-25T10:33:24.926Z</time></trkpt><trkpt lat="43.5748596" lon="11.7184776"><ele>763.0</ele><time>2026-04-25T10:33:25.927Z</time></trkpt><trkpt lat="43.57493" lon="11.7186081"><ele>763.0</ele><time>2026-04-25T10:33:26.939Z</time></trkpt><trkpt lat="43.5749776" lon="11.7187793"><ele>766.75</ele><time>2026-04-25T10:33:27.925Z</time></trkpt><trkpt lat="43.5749984" lon="11.718979"><ele>770.5</ele><time>2026-04-25T10:33:28.939Z</time></trkpt><trkpt lat="43.5750126" lon="11.7191434"><ele>774.25</ele><time>2026-04-25T10:33:29.918Z</time></trkpt><trkpt lat="43.5750619" lon="11.7192817"><ele>778.0</ele><time>2026-04-25T10:33:30.923Z</time></trkpt><trkpt lat="43.5751825" lon="11.7193886"><ele>778.6666666666666</ele><time>2026-04-25T10:33:31.92Z</time></trkpt><trkpt lat="43.5753223" lon="11.719487"><ele>779.3333333333333</ele><time>2026-04-25T10:33:32.922Z</time></trkpt><trkpt lat="43.575463" lon="11.719601"><ele>780.0</ele><time>2026-04-25T10:33:33.921Z</time></trkpt><trkpt lat="43.5756233" lon="11.7197157"><ele>781.0</ele><time>2026-04-25T10:33:34.926Z</time></trkpt><trkpt lat="43.5757928" lon="11.7198295"><ele>782.0</ele><time>2026-04-25T10:33:35.924Z</time></trkpt><trkpt lat="43.5759896" lon="11.7199389"><ele>783.0</ele><time>2026-04-25T10:33:36.923Z</time></trkpt><trkpt lat="43.5761973" lon="11.7200473"><ele>783.6666666666667</ele><time>2026-04-25T10:33:37.922Z</time></trkpt><trkpt lat="43.576393" lon="11.7201513"><ele>784.3333333333334</ele><time>2026-04-25T10:33:38.927Z</time></trkpt><trkpt lat="43.5765795" lon="11.7202504"><ele>785.0</ele><time>2026-04-25T10:33:39.918Z</time></trkpt><trkpt lat="43.5767412" lon="11.7203268"><ele>787.75</ele><time>2026-04-25T10:33:40.926Z</time></trkpt><trkpt lat="43.5768839" lon="11.7203724"><ele>790.5</ele><time>2026-04-25T10:33:41.924Z</time></trkpt><trkpt lat="43.5770176" lon="11.7203588"><ele>793.25</ele><time>2026-04-25T10:33:42.922Z</time></trkpt><trkpt lat="43.5771397" lon="11.7202761"><ele>796.0</ele><time>2026-04-25T10:33:43.924Z</time></trkpt><trkpt lat="43.5772749" lon="11.7201434"><ele>797.0</ele><time>2026-04-25T10:33:44.925Z</time></trkpt><trkpt lat="43.5774288" lon="11.7200123"><ele>798.0</ele><time>2026-04-25T10:33:45.927Z</time></trkpt><trkpt lat="43.5776026" lon="11.7198876"><ele>799.0</ele><time>2026-04-25T10:33:46.921Z</time></trkpt><trkpt lat="43.5777821" lon="11.7197426"><ele>802.6666666666666</ele><time>2026-04-25T10:33:47.92Z</time></trkpt><trkpt lat="43.5779574" lon="11.7196083"><ele>806.3333333333333</ele><time>2026-04-25T10:33:48.93Z</time></trkpt><trkpt lat="43.5781175" lon="11.7194864"><ele>810.0</ele><time>2026-04-25T10:33:49.931Z</time></trkpt><trkpt lat="43.5782619" lon="11.7193742"><ele>810.0</ele><time>2026-04-25T10:33:50.925Z</time></trkpt><trkpt lat="43.5783859" lon="11.7192888"><ele>810.0</ele><time>2026-04-25T10:33:51.92Z</time></trkpt><trkpt lat="43.5784684" lon="11.7191816"><ele>810.0</ele><time>2026-04-25T10:33:52.926Z</time></trkpt><trkpt lat="43.5785161" lon="11.7190627"><ele>810.0</ele><time>2026-04-25T10:33:53.925Z</time></trkpt><trkpt lat="43.5785187" lon="11.7189087"><ele>810.0</ele><time>2026-04-25T10:33:54.921Z</time></trkpt><trkpt lat="43.5784706" lon="11.718761"><ele>810.0</ele><time>2026-04-25T10:33:55.92Z</time></trkpt><trkpt lat="43.5783784" lon="11.7186225"><ele>810.0</ele><time>2026-04-25T10:33:56.927Z</time></trkpt><trkpt lat="43.5782711" lon="11.718512"><ele>810.0</ele><time>2026-04-25T10:33:57.922Z</time></trkpt><trkpt lat="43.5781961" lon="11.718403"><ele>810.75</ele><time>2026-04-25T10:33:58.921Z</time></trkpt><trkpt lat="43.5781796" lon="11.7182827"><ele>811.5</ele><time>2026-04-25T10:33:59.924Z</time></trkpt><trkpt lat="43.5781949" lon="11.7181337"><ele>812.25</ele><time>2026-04-25T10:34:00.924Z</time></trkpt><trkpt lat="43.5782268" lon="11.7179456"><ele>813.0</ele><time>2026-04-25T10:34:01.92Z</time></trkpt><trkpt lat="43.5782563" lon="11.7177462"><ele>813.25</ele><time>2026-04-25T10:34:02.918Z</time></trkpt><trkpt lat="43.5782928" lon="11.7175234"><ele>813.5</ele><time>2026-04-25T10:34:03.933Z</time></trkpt><trkpt lat="43.5783244" lon="11.7173142"><ele>813.75</ele><time>2026-04-25T10:34:04.929Z</time></trkpt><trkpt lat="43.5783668" lon="11.717153"><ele>814.0</ele><time>2026-04-25T10:34:05.923Z</time></trkpt><trkpt lat="43.5784371" lon="11.7170594"><ele>814.0</ele><time>2026-04-25T10:34:06.925Z</time></trkpt><trkpt lat="43.5785442" lon="11.7169582"><ele>814.0</ele><time>2026-04-25T10:34:07.924Z</time></trkpt><trkpt lat="43.578678" lon="11.7168568"><ele>814.0</ele><time>2026-04-25T10:34:08.925Z</time></trkpt><trkpt lat="43.5788235" lon="11.716742"><ele>817.3333333333333</ele><time>2026-04-25T10:34:09.925Z</time></trkpt><trkpt lat="43.5789886" lon="11.716606"><ele>820.6666666666667</ele><time>2026-04-25T10:34:10.92Z</time></trkpt><trkpt lat="43.5791465" lon="11.7164727"><ele>824.0</ele><time>2026-04-25T10:34:11.936Z</time></trkpt><trkpt lat="43.5792842" lon="11.7163723"><ele>824.0</ele><time>2026-04-25T10:34:12.927Z</time></trkpt><trkpt lat="43.579433" lon="11.7163127"><ele>824.0</ele><time>2026-04-25T10:34:13.922Z</time></trkpt><trkpt lat="43.5795798" lon="11.7162688"><ele>824.0</ele><time>2026-04-25T10:34:14.918Z</time></trkpt><trkpt lat="43.5797359" lon="11.7162542"><ele>828.6666666666667</ele><time>2026-04-25T10:34:15.927Z</time></trkpt><trkpt lat="43.5798919" lon="11.7162768"><ele>833.3333333333333</ele><time>2026-04-25T10:34:16.921Z</time></trkpt><trkpt lat="43.5800645" lon="11.7163291"><ele>838.0</ele><time>2026-04-25T10:34:17.941Z</time></trkpt><trkpt lat="43.5802499" lon="11.7164019"><ele>836.6666666666666</ele><time>2026-04-25T10:34:18.93Z</time></trkpt><trkpt lat="43.5804433" lon="11.7164834"><ele>835.3333333333333</ele><time>2026-04-25T10:34:19.945Z</time></trkpt><trkpt lat="43.5806353" lon="11.7165778"><ele>834.0</ele><time>2026-04-25T10:34:20.914Z</time></trkpt><trkpt lat="43.5808049" lon="11.7166721"><ele>834.0</ele><time>2026-04-25T10:34:21.918Z</time></trkpt><trkpt lat="43.5809572" lon="11.716746"><ele>834.0</ele><time>2026-04-25T10:34:22.914Z</time></trkpt><trkpt lat="43.5811005" lon="11.7167852"><ele>834.0</ele><time>2026-04-25T10:34:23.927Z</time></trkpt><trkpt lat="43.5812474" lon="11.7167852"><ele>837.75</ele><time>2026-04-25T10:34:24.917Z</time></trkpt><trkpt lat="43.5813737" lon="11.7167512"><ele>841.5</ele><time>2026-04-25T10:34:25.922Z</time></trkpt><trkpt lat="43.5814689" lon="11.7166647"><ele>845.25</ele><time>2026-04-25T10:34:26.908Z</time></trkpt><trkpt lat="43.5815267" lon="11.7165264"><ele>849.0</ele><time>2026-04-25T10:34:27.913Z</time></trkpt><trkpt lat="43.581548" lon="11.7163496"><ele>849.0</ele><time>2026-04-25T10:34:28.911Z</time></trkpt><trkpt lat="43.5815168" lon="11.7161674"><ele>849.0</ele><time>2026-04-25T10:34:29.919Z</time></trkpt><trkpt lat="43.5814659" lon="11.7159564"><ele>849.0</ele><time>2026-04-25T10:34:30.92Z</time></trkpt><trkpt lat="43.5814137" lon="11.7157175"><ele>851.3333333333333</ele><time>2026-04-25T10:34:31.916Z</time></trkpt><trkpt lat="43.5813621" lon="11.7154488"><ele>853.6666666666666</ele><time>2026-04-25T10:34:32.915Z</time></trkpt><trkpt lat="43.5813073" lon="11.7151632"><ele>856.0</ele><time>2026-04-25T10:34:33.921Z</time></trkpt><trkpt lat="43.5812584" lon="11.7148778"><ele>860.3333333333333</ele><time>2026-04-25T10:34:34.923Z</time></trkpt><trkpt lat="43.5812147" lon="11.7145958"><ele>864.6666666666667</ele><time>2026-04-25T10:34:35.912Z</time></trkpt><trkpt lat="43.5811802" lon="11.7143379"><ele>869.0</ele><time>2026-04-25T10:34:36.914Z</time></trkpt><trkpt lat="43.5811541" lon="11.7141199"><ele>860.0</ele><time>2026-04-25T10:34:37.917Z</time></trkpt><trkpt lat="43.5811461" lon="11.7139152"><ele>851.0</ele><time>2026-04-25T10:34:38.914Z</time></trkpt><trkpt lat="43.5811506" lon="11.7137051"><ele>842.0</ele><time>2026-04-25T10:34:39.929Z</time></trkpt><trkpt lat="43.5811587" lon="11.7134787"><ele>842.0</ele><time>2026-04-25T10:34:40.922Z</time></trkpt><trkpt lat="43.5811437" lon="11.7132313"><ele>842.0</ele><time>2026-04-25T10:34:41.926Z</time></trkpt><trkpt lat="43.5811074" lon="11.712996"><ele>842.0</ele><time>2026-04-25T10:34:42.916Z</time></trkpt><trkpt lat="43.5810917" lon="11.7128159"><ele>844.0</ele><time>2026-04-25T10:34:43.912Z</time></trkpt><trkpt lat="43.5811017" lon="11.7126632"><ele>846.0</ele><time>2026-04-25T10:34:44.927Z</time></trkpt><trkpt lat="43.5811423" lon="11.7125041"><ele>848.0</ele><time>2026-04-25T10:34:45.924Z</time></trkpt><trkpt lat="43.5812065" lon="11.7123677"><ele>850.0</ele><time>2026-04-25T10:34:46.923Z</time></trkpt><trkpt lat="43.5813038" lon="11.7122745"><ele>857.3333333333333</ele><time>2026-04-25T10:34:47.927Z</time></trkpt><trkpt lat="43.5814218" lon="11.7122217"><ele>864.6666666666667</ele><time>2026-04-25T10:34:48.917Z</time></trkpt><trkpt lat="43.5815737" lon="11.7122106"><ele>872.0</ele><time>2026-04-25T10:34:49.927Z</time></trkpt><trkpt lat="43.5817519" lon="11.7122373"><ele>872.0</ele><time>2026-04-25T10:34:50.928Z</time></trkpt><trkpt lat="43.5819349" lon="11.7122921"><ele>872.0</ele><time>2026-04-25T10:34:51.925Z</time></trkpt><trkpt lat="43.5821059" lon="11.7123584"><ele>872.0</ele><time>2026-04-25T10:34:52.917Z</time></trkpt><trkpt lat="43.5822589" lon="11.7124442"><ele>870.6666666666667</ele><time>2026-04-25T10:34:53.927Z</time></trkpt><trkpt lat="43.5824032" lon="11.7125379"><ele>869.3333333333333</ele><time>2026-04-25T10:34:54.923Z</time></trkpt><trkpt lat="43.5825325" lon="11.7126714"><ele>868.0</ele><time>2026-04-25T10:34:55.923Z</time></trkpt><trkpt lat="43.582666" lon="11.7128496"><ele>872.75</ele><time>2026-04-25T10:34:56.919Z</time></trkpt><trkpt lat="43.5827884" lon="11.7130183"><ele>877.5</ele><time>2026-04-25T10:34:57.916Z</time></trkpt><trkpt lat="43.5829017" lon="11.7131476"><ele>882.25</ele><time>2026-04-25T10:34:58.914Z</time></trkpt><trkpt lat="43.5830069" lon="11.7132468"><ele>887.0</ele><time>2026-04-25T10:34:59.923Z</time></trkpt><trkpt lat="43.583146" lon="11.7132866"><ele>887.0</ele><time>2026-04-25T10:35:00.926Z</time></trkpt><trkpt lat="43.5832987" lon="11.7132602"><ele>887.0</ele><time>2026-04-25T10:35:01.927Z</time></trkpt><trkpt lat="43.5834404" lon="11.7131997"><ele>887.0</ele><time>2026-04-25T10:35:02.917Z</time></trkpt><trkpt lat="43.5835578" lon="11.7131494"><ele>887.0</ele><time>2026-04-25T10:35:03.917Z</time></trkpt><trkpt lat="43.5836693" lon="11.7131687"><ele>887.5</ele><time>2026-04-25T10:35:04.927Z</time></trkpt><trkpt lat="43.5837858" lon="11.7132307"><ele>888.0</ele><time>2026-04-25T10:35:05.919Z</time></trkpt><trkpt lat="43.5839182" lon="11.7133384"><ele>888.5</ele><time>2026-04-25T10:35:06.926Z</time></trkpt><trkpt lat="43.5840602" lon="11.7134494"><ele>889.0</ele><time>2026-04-25T10:35:07.924Z</time></trkpt><trkpt lat="43.584225" lon="11.7135332"><ele>889.0</ele><time>2026-04-25T10:35:08.922Z</time></trkpt><trkpt lat="43.5844024" lon="11.7135711"><ele>889.0</ele><time>2026-04-25T10:35:09.923Z</time></trkpt><trkpt lat="43.5845639" lon="11.7136046"><ele>889.0</ele><time>2026-04-25T10:35:10.926Z</time></trkpt><trkpt lat="43.5846986" lon="11.713638"><ele>891.8333333333333</ele><time>2026-04-25T10:35:11.919Z</time></trkpt><trkpt lat="43.5848013" lon="11.7136723"><ele>894.6666666666666</ele><time>2026-04-25T10:35:12.92Z</time></trkpt><trkpt lat="43.5848767" lon="11.7137171"><ele>897.5</ele><time>2026-04-25T10:35:13.928Z</time></trkpt><trkpt lat="43.5849318" lon="11.7137936"><ele>900.3333333333333</ele><time>2026-04-25T10:35:14.928Z</time></trkpt><trkpt lat="43.5849573" lon="11.7138906"><ele>903.1666666666666</ele><time>2026-04-25T10:35:15.919Z</time></trkpt><trkpt lat="43.5849753" lon="11.7140134"><ele>906.0</ele><time>2026-04-25T10:35:16.921Z</time></trkpt><trkpt lat="43.5849913" lon="11.7141693"><ele>906.0</ele><time>2026-04-25T10:35:17.925Z</time></trkpt><trkpt lat="43.5850091" lon="11.7143351"><ele>906.0</ele><time>2026-04-25T10:35:18.919Z</time></trkpt><trkpt lat="43.5850336" lon="11.7145053"><ele>906.0</ele><time>2026-04-25T10:35:19.931Z</time></trkpt><trkpt lat="43.5850865" lon="11.7146831"><ele>906.0</ele><time>2026-04-25T10:35:20.939Z</time></trkpt><trkpt lat="43.585174" lon="11.7148677"><ele>905.3333333333333</ele><time>2026-04-25T10:35:21.916Z</time></trkpt><trkpt lat="43.5852912" lon="11.7150667"><ele>904.6666666666666</ele><time>2026-04-25T10:35:22.924Z</time></trkpt><trkpt lat="43.5854104" lon="11.7152754"><ele>904.0</ele><time>2026-04-25T10:35:23.924Z</time></trkpt><trkpt lat="43.5855225" lon="11.7154708"><ele>902.5</ele><time>2026-04-25T10:35:24.923Z</time></trkpt><trkpt lat="43.5856328" lon="11.7156517"><ele>901.0</ele><time>2026-04-25T10:35:25.915Z</time></trkpt><trkpt lat="43.5857288" lon="11.7158078"><ele>899.5</ele><time>2026-04-25T10:35:26.917Z</time></trkpt><trkpt lat="43.5858159" lon="11.7159345"><ele>898.0</ele><time>2026-04-25T10:35:27.934Z</time></trkpt><trkpt lat="43.5859132" lon="11.7160234"><ele>898.0</ele><time>2026-04-25T10:35:28.925Z</time></trkpt><trkpt lat="43.5860314" lon="11.7160705"><ele>898.0</ele><time>2026-04-25T10:35:29.929Z</time></trkpt><trkpt lat="43.5861614" lon="11.716066"><ele>898.0</ele><time>2026-04-25T10:35:30.934Z</time></trkpt><trkpt lat="43.5863091" lon="11.7160144"><ele>898.0</ele><time>2026-04-25T10:35:31.905Z</time></trkpt><trkpt lat="43.5864457" lon="11.715926"><ele>895.3333333333333</ele><time>2026-04-25T10:35:32.916Z</time></trkpt><trkpt lat="43.5865786" lon="11.7157894"><ele>892.6666666666667</ele><time>2026-04-25T10:35:33.921Z</time></trkpt><trkpt lat="43.586699" lon="11.715613"><ele>890.0</ele><time>2026-04-25T10:35:34.913Z</time></trkpt><trkpt lat="43.5868509" lon="11.7154053"><ele>888.0</ele><time>2026-04-25T10:35:35.926Z</time></trkpt><trkpt lat="43.5870075" lon="11.7151993"><ele>886.0</ele><time>2026-04-25T10:35:36.915Z</time></trkpt><trkpt lat="43.5871549" lon="11.7150138"><ele>884.0</ele><time>2026-04-25T10:35:37.911Z</time></trkpt><trkpt lat="43.5872879" lon="11.7148417"><ele>884.0</ele><time>2026-04-25T10:35:38.922Z</time></trkpt><trkpt lat="43.5874055" lon="11.7146728"><ele>884.0</ele><time>2026-04-25T10:35:39.922Z</time></trkpt><trkpt lat="43.5875208" lon="11.7145205"><ele>884.0</ele><time>2026-04-25T10:35:40.93Z</time></trkpt><trkpt lat="43.5876237" lon="11.7144143"><ele>889.3333333333334</ele><time>2026-04-25T10:35:41.926Z</time></trkpt><trkpt lat="43.5877402" lon="11.7143541"><ele>894.6666666666667</ele><time>2026-04-25T10:35:42.921Z</time></trkpt><trkpt lat="43.5878843" lon="11.7143397"><ele>900.0</ele><time>2026-04-25T10:35:43.914Z</time></trkpt><trkpt lat="43.5881649" lon="11.7143874"><ele>900.0</ele><time>2026-04-25T10:35:45.92Z</time></trkpt><trkpt lat="43.5882895" lon="11.7143727"><ele>900.0</ele><time>2026-04-25T10:35:46.912Z</time></trkpt><trkpt lat="43.5884066" lon="11.7143268"><ele>900.0</ele><time>2026-04-25T10:35:47.913Z</time></trkpt><trkpt lat="43.5885362" lon="11.7142349"><ele>900.0</ele><time>2026-04-25T10:35:48.914Z</time></trkpt><trkpt lat="43.5886668" lon="11.7141009"><ele>897.0</ele><time>2026-04-25T10:35:49.917Z</time></trkpt><trkpt lat="43.5888069" lon="11.7139783"><ele>894.0</ele><time>2026-04-25T10:35:50.912Z</time></trkpt><trkpt lat="43.5889304" lon="11.7138694"><ele>891.0</ele><time>2026-04-25T10:35:51.913Z</time></trkpt><trkpt lat="43.5890525" lon="11.7137816"><ele>891.0</ele><time>2026-04-25T10:35:52.917Z</time></trkpt><trkpt lat="43.5891582" lon="11.7137122"><ele>891.0</ele><time>2026-04-25T10:35:53.929Z</time></trkpt><trkpt lat="43.589282" lon="11.7136862"><ele>891.0</ele><time>2026-04-25T10:35:54.922Z</time></trkpt><trkpt lat="43.5894246" lon="11.7137405"><ele>891.0</ele><time>2026-04-25T10:35:55.916Z</time></trkpt><trkpt lat="43.5895456" lon="11.713828"><ele>894.8</ele><time>2026-04-25T10:35:56.921Z</time></trkpt><trkpt lat="43.5896419" lon="11.7139098"><ele>898.5999999999999</ele><time>2026-04-25T10:35:57.916Z</time></trkpt><trkpt lat="43.5897082" lon="11.7140173"><ele>902.4</ele><time>2026-04-25T10:35:58.92Z</time></trkpt><trkpt lat="43.5897095" lon="11.7141611"><ele>906.2</ele><time>2026-04-25T10:35:59.919Z</time></trkpt><trkpt lat="43.5896735" lon="11.7143033"><ele>910.0</ele><time>2026-04-25T10:36:00.93Z</time></trkpt><trkpt lat="43.5895835" lon="11.7144171"><ele>903.5</ele><time>2026-04-25T10:36:01.916Z</time></trkpt><trkpt lat="43.5894844" lon="11.7145217"><ele>897.0</ele><time>2026-04-25T10:36:02.915Z</time></trkpt><trkpt lat="43.5893957" lon="11.7146445"><ele>890.5</ele><time>2026-04-25T10:36:03.922Z</time></trkpt><trkpt lat="43.5893452" lon="11.7147909"><ele>884.0</ele><time>2026-04-25T10:36:04.939Z</time></trkpt><trkpt lat="43.5893169" lon="11.7149685"><ele>884.0</ele><time>2026-04-25T10:36:05.924Z</time></trkpt><trkpt lat="43.5893251" lon="11.715151"><ele>884.0</ele><time>2026-04-25T10:36:06.926Z</time></trkpt><trkpt lat="43.5893567" lon="11.7153318"><ele>884.0</ele><time>2026-04-25T10:36:07.926Z</time></trkpt><trkpt lat="43.5894287" lon="11.7155013"><ele>884.0</ele><time>2026-04-25T10:36:08.925Z</time></trkpt><trkpt lat="43.5895208" lon="11.7156722"><ele>892.2</ele><time>2026-04-25T10:36:09.918Z</time></trkpt><trkpt lat="43.5896004" lon="11.7158329"><ele>900.4000000000001</ele><time>2026-04-25T10:36:10.919Z</time></trkpt><trkpt lat="43.5896477" lon="11.7159676"><ele>908.6</ele><time>2026-04-25T10:36:11.925Z</time></trkpt><trkpt lat="43.5896562" lon="11.7160973"><ele>916.8</ele><time>2026-04-25T10:36:12.924Z</time></trkpt><trkpt lat="43.5896106" lon="11.7162269"><ele>925.0</ele><time>2026-04-25T10:36:13.909Z</time></trkpt><trkpt lat="43.589523" lon="11.7163322"><ele>916.5</ele><time>2026-04-25T10:36:14.912Z</time></trkpt><trkpt lat="43.5894235" lon="11.7164411"><ele>908.0</ele><time>2026-04-25T10:36:15.919Z</time></trkpt><trkpt lat="43.589336" lon="11.7165711"><ele>899.5</ele><time>2026-04-25T10:36:16.921Z</time></trkpt><trkpt lat="43.5892837" lon="11.7167018"><ele>891.0</ele><time>2026-04-25T10:36:17.922Z</time></trkpt><trkpt lat="43.5892596" lon="11.7168865"><ele>890.3333333333333</ele><time>2026-04-25T10:36:18.92Z</time></trkpt><trkpt lat="43.5892709" lon="11.7171086"><ele>889.6666666666666</ele><time>2026-04-25T10:36:19.921Z</time></trkpt><trkpt lat="43.5892791" lon="11.7173336"><ele>889.0</ele><time>2026-04-25T10:36:20.909Z</time></trkpt><trkpt lat="43.5893002" lon="11.71752"><ele>889.0</ele><time>2026-04-25T10:36:21.915Z</time></trkpt><trkpt lat="43.5893344" lon="11.7177071"><ele>889.0</ele><time>2026-04-25T10:36:22.922Z</time></trkpt><trkpt lat="43.5894112" lon="11.7178824"><ele>889.0</ele><time>2026-04-25T10:36:23.919Z</time></trkpt><trkpt lat="43.5895085" lon="11.7180673"><ele>900.3333333333333</ele><time>2026-04-25T10:36:24.914Z</time></trkpt><trkpt lat="43.5895981" lon="11.7182697"><ele>911.6666666666667</ele><time>2026-04-25T10:36:25.922Z</time></trkpt><trkpt lat="43.5896697" lon="11.7184932"><ele>923.0</ele><time>2026-04-25T10:36:26.924Z</time></trkpt><trkpt lat="43.5897386" lon="11.7187177"><ele>923.0</ele><time>2026-04-25T10:36:27.928Z</time></trkpt><trkpt lat="43.5897935" lon="11.7189352"><ele>923.0</ele><time>2026-04-25T10:36:28.919Z</time></trkpt><trkpt lat="43.5898439" lon="11.7191315"><ele>923.0</ele><time>2026-04-25T10:36:29.92Z</time></trkpt><trkpt lat="43.5898786" lon="11.7193048"><ele>923.0</ele><time>2026-04-25T10:36:30.917Z</time></trkpt><trkpt lat="43.5898665" lon="11.7194758"><ele>926.0</ele><time>2026-04-25T10:36:31.922Z</time></trkpt><trkpt lat="43.5898099" lon="11.7196405"><ele>929.0</ele><time>2026-04-25T10:36:32.923Z</time></trkpt><trkpt lat="43.5897099" lon="11.7197736"><ele>932.0</ele><time>2026-04-25T10:36:33.917Z</time></trkpt><trkpt lat="43.5895774" lon="11.7198713"><ele>935.0</ele><time>2026-04-25T10:36:34.918Z</time></trkpt><trkpt lat="43.5894267" lon="11.7199651"><ele>932.0</ele><time>2026-04-25T10:36:35.933Z</time></trkpt><trkpt lat="43.5892789" lon="11.7200549"><ele>929.0</ele><time>2026-04-25T10:36:36.926Z</time></trkpt><trkpt lat="43.5891502" lon="11.7201311"><ele>926.0</ele><time>2026-04-25T10:36:37.918Z</time></trkpt><trkpt lat="43.5890342" lon="11.7202151"><ele>923.0</ele><time>2026-04-25T10:36:38.924Z</time></trkpt><trkpt lat="43.5889481" lon="11.7203544"><ele>923.0</ele><time>2026-04-25T10:36:39.921Z</time></trkpt><trkpt lat="43.5888879" lon="11.7205314"><ele>923.0</ele><time>2026-04-25T10:36:40.918Z</time></trkpt><trkpt lat="43.5888825" lon="11.7207126"><ele>923.0</ele><time>2026-04-25T10:36:41.918Z</time></trkpt><trkpt lat="43.5889283" lon="11.7209156"><ele>923.0</ele><time>2026-04-25T10:36:42.926Z</time></trkpt><trkpt lat="43.5889807" lon="11.7211379"><ele>925.6666666666667</ele><time>2026-04-25T10:36:43.923Z</time></trkpt><trkpt lat="43.5890084" lon="11.7213493"><ele>928.3333333333333</ele><time>2026-04-25T10:36:44.92Z</time></trkpt><trkpt lat="43.589009" lon="11.7215624"><ele>931.0</ele><time>2026-04-25T10:36:45.922Z</time></trkpt><trkpt lat="43.5889633" lon="11.7217746"><ele>932.3333333333333</ele><time>2026-04-25T10:36:46.922Z</time></trkpt><trkpt lat="43.5888773" lon="11.7219868"><ele>933.6666666666667</ele><time>2026-04-25T10:36:47.916Z</time></trkpt><trkpt lat="43.5887533" lon="11.7221997"><ele>935.0</ele><time>2026-04-25T10:36:48.918Z</time></trkpt><trkpt lat="43.5886091" lon="11.7223903"><ele>927.0</ele><time>2026-04-25T10:36:49.918Z</time></trkpt><trkpt lat="43.5884851" lon="11.7225594"><ele>919.0</ele><time>2026-04-25T10:36:50.917Z</time></trkpt><trkpt lat="43.5883881" lon="11.7227125"><ele>911.0</ele><time>2026-04-25T10:36:51.923Z</time></trkpt><trkpt lat="43.5883316" lon="11.7228715"><ele>911.0</ele><time>2026-04-25T10:36:52.922Z</time></trkpt><trkpt lat="43.5883047" lon="11.7230563"><ele>911.0</ele><time>2026-04-25T10:36:53.923Z</time></trkpt><trkpt lat="43.5883416" lon="11.7232649"><ele>911.0</ele><time>2026-04-25T10:36:54.923Z</time></trkpt><trkpt lat="43.5883788" lon="11.7234759"><ele>911.0</ele><time>2026-04-25T10:36:55.937Z</time></trkpt><trkpt lat="43.5884385" lon="11.7236435"><ele>910.25</ele><time>2026-04-25T10:36:56.924Z</time></trkpt><trkpt lat="43.5885225" lon="11.7237585"><ele>909.5</ele><time>2026-04-25T10:36:57.923Z</time></trkpt><trkpt lat="43.5886248" lon="11.7238432"><ele>908.75</ele><time>2026-04-25T10:36:58.926Z</time></trkpt><trkpt lat="43.5887346" lon="11.7238541"><ele>908.0</ele><time>2026-04-25T10:36:59.925Z</time></trkpt><trkpt lat="43.5888697" lon="11.7237905"><ele>908.0</ele><time>2026-04-25T10:37:00.916Z</time></trkpt><trkpt lat="43.5890073" lon="11.7237121"><ele>908.0</ele><time>2026-04-25T10:37:01.922Z</time></trkpt><trkpt lat="43.5891353" lon="11.7236411"><ele>908.0</ele><time>2026-04-25T10:37:02.924Z</time></trkpt><trkpt lat="43.5892619" lon="11.7236152"><ele>908.0</ele><time>2026-04-25T10:37:03.925Z</time></trkpt><trkpt lat="43.5893777" lon="11.7236785"><ele>908.0</ele><time>2026-04-25T10:37:04.929Z</time></trkpt><trkpt lat="43.5895063" lon="11.7238152"><ele>908.0</ele><time>2026-04-25T10:37:05.925Z</time></trkpt><trkpt lat="43.5896407" lon="11.7239733"><ele>908.0</ele><time>2026-04-25T10:37:06.923Z</time></trkpt><trkpt lat="43.5897901" lon="11.7241361"><ele>911.6666666666667</ele><time>2026-04-25T10:37:07.927Z</time></trkpt><trkpt lat="43.5899465" lon="11.7243001"><ele>915.3333333333333</ele><time>2026-04-25T10:37:08.931Z</time></trkpt><trkpt lat="43.5900971" lon="11.724452"><ele>919.0</ele><time>2026-04-25T10:37:09.916Z</time></trkpt><trkpt lat="43.5902393" lon="11.7245818"><ele>914.6666666666666</ele><time>2026-04-25T10:37:10.922Z</time></trkpt><trkpt lat="43.590386" lon="11.7246613"><ele>910.3333333333333</ele><time>2026-04-25T10:37:11.926Z</time></trkpt><trkpt lat="43.5905462" lon="11.7247079"><ele>906.0</ele><time>2026-04-25T10:37:12.926Z</time></trkpt><trkpt lat="43.5907088" lon="11.7247205"><ele>906.0</ele><time>2026-04-25T10:37:13.925Z</time></trkpt><trkpt lat="43.5908625" lon="11.72472"><ele>906.0</ele><time>2026-04-25T10:37:14.922Z</time></trkpt><trkpt lat="43.5910011" lon="11.7247282"><ele>906.0</ele><time>2026-04-25T10:37:15.921Z</time></trkpt><trkpt lat="43.5911148" lon="11.7247457"><ele>906.0</ele><time>2026-04-25T10:37:16.922Z</time></trkpt><trkpt lat="43.5912113" lon="11.7247694"><ele>907.5999999999999</ele><time>2026-04-25T10:37:17.92Z</time></trkpt><trkpt lat="43.5912716" lon="11.724824"><ele>909.1999999999999</ele><time>2026-04-25T10:37:18.923Z</time></trkpt><trkpt lat="43.5913101" lon="11.7249304"><ele>910.8000000000001</ele><time>2026-04-25T10:37:19.926Z</time></trkpt><trkpt lat="43.591342" lon="11.7250795"><ele>912.4000000000001</ele><time>2026-04-25T10:37:20.937Z</time></trkpt><trkpt lat="43.5913677" lon="11.7252574"><ele>914.0</ele><time>2026-04-25T10:37:21.918Z</time></trkpt><trkpt lat="43.5913725" lon="11.7254817"><ele>914.0</ele><time>2026-04-25T10:37:22.927Z</time></trkpt><trkpt lat="43.5913778" lon="11.7257411"><ele>914.0</ele><time>2026-04-25T10:37:23.925Z</time></trkpt><trkpt lat="43.591392" lon="11.7260284"><ele>914.0</ele><time>2026-04-25T10:37:24.926Z</time></trkpt><trkpt lat="43.5914194" lon="11.7263169"><ele>913.6666666666667</ele><time>2026-04-25T10:37:25.915Z</time></trkpt><trkpt lat="43.5914497" lon="11.7266035"><ele>913.3333333333333</ele><time>2026-04-25T10:37:26.918Z</time></trkpt><trkpt lat="43.5914759" lon="11.7268753"><ele>913.0</ele><time>2026-04-25T10:37:27.915Z</time></trkpt><trkpt lat="43.591499" lon="11.7271004"><ele>913.0</ele><time>2026-04-25T10:37:28.939Z</time></trkpt><trkpt lat="43.591517" lon="11.7272997"><ele>913.0</ele><time>2026-04-25T10:37:29.92Z</time></trkpt><trkpt lat="43.591516" lon="11.7274919"><ele>913.0</ele><time>2026-04-25T10:37:30.926Z</time></trkpt><trkpt lat="43.5914707" lon="11.7276691"><ele>913.0</ele><time>2026-04-25T10:37:31.928Z</time></trkpt><trkpt lat="43.5913534" lon="11.7278442"><ele>913.6666666666666</ele><time>2026-04-25T10:37:32.926Z</time></trkpt><trkpt lat="43.5912172" lon="11.7280181"><ele>914.3333333333333</ele><time>2026-04-25T10:37:33.939Z</time></trkpt><trkpt lat="43.5910968" lon="11.728195"><ele>915.0</ele><time>2026-04-25T10:37:34.932Z</time></trkpt><trkpt lat="43.5910027" lon="11.7283623"><ele>911.75</ele><time>2026-04-25T10:37:35.921Z</time></trkpt><trkpt lat="43.5909294" lon="11.7285127"><ele>908.5</ele><time>2026-04-25T10:37:36.925Z</time></trkpt><trkpt lat="43.5908881" lon="11.7286661"><ele>905.25</ele><time>2026-04-25T10:37:37.922Z</time></trkpt><trkpt lat="43.5908717" lon="11.7288481"><ele>902.0</ele><time>2026-04-25T10:37:38.926Z</time></trkpt><trkpt lat="43.5908776" lon="11.7290518"><ele>902.0</ele><time>2026-04-25T10:37:39.933Z</time></trkpt><trkpt lat="43.5908966" lon="11.7292411"><ele>902.0</ele><time>2026-04-25T10:37:40.923Z</time></trkpt><trkpt lat="43.5909493" lon="11.729421"><ele>902.0</ele><time>2026-04-25T10:37:41.927Z</time></trkpt><trkpt lat="43.5910206" lon="11.7296326"><ele>902.0</ele><time>2026-04-25T10:37:42.919Z</time></trkpt><trkpt lat="43.5911036" lon="11.7298658"><ele>902.6666666666667</ele><time>2026-04-25T10:37:43.932Z</time></trkpt><trkpt lat="43.5911904" lon="11.7300959"><ele>903.3333333333333</ele><time>2026-04-25T10:37:44.928Z</time></trkpt><trkpt lat="43.5912649" lon="11.7303138"><ele>904.0</ele><time>2026-04-25T10:37:45.927Z</time></trkpt><trkpt lat="43.5913252" lon="11.7305085"><ele>904.0</ele><time>2026-04-25T10:37:46.915Z</time></trkpt><trkpt lat="43.591383" lon="11.7306804"><ele>904.0</ele><time>2026-04-25T10:37:47.925Z</time></trkpt><trkpt lat="43.591442" lon="11.7308173"><ele>904.0</ele><time>2026-04-25T10:37:48.92Z</time></trkpt><trkpt lat="43.5915285" lon="11.7308992"><ele>904.0</ele><time>2026-04-25T10:37:49.928Z</time></trkpt><trkpt lat="43.5916327" lon="11.7309601"><ele>904.0</ele><time>2026-04-25T10:37:50.919Z</time></trkpt><trkpt lat="43.5917555" lon="11.7310183"><ele>904.0</ele><time>2026-04-25T10:37:51.926Z</time></trkpt><trkpt lat="43.591874" lon="11.7310989"><ele>904.0</ele><time>2026-04-25T10:37:52.923Z</time></trkpt><trkpt lat="43.5919748" lon="11.7311839"><ele>904.0</ele><time>2026-04-25T10:37:53.917Z</time></trkpt><trkpt lat="43.5920407" lon="11.7312962"><ele>905.25</ele><time>2026-04-25T10:37:54.918Z</time></trkpt><trkpt lat="43.5920798" lon="11.7314362"><ele>906.5</ele><time>2026-04-25T10:37:55.933Z</time></trkpt><trkpt lat="43.5920699" lon="11.7315997"><ele>907.75</ele><time>2026-04-25T10:37:56.919Z</time></trkpt><trkpt lat="43.5920332" lon="11.7317446"><ele>909.0</ele><time>2026-04-25T10:37:57.931Z</time></trkpt><trkpt lat="43.5919478" lon="11.7318805"><ele>905.0</ele><time>2026-04-25T10:37:58.917Z</time></trkpt><trkpt lat="43.591836" lon="11.7319686"><ele>901.0</ele><time>2026-04-25T10:37:59.923Z</time></trkpt><trkpt lat="43.5917018" lon="11.7320676"><ele>897.0</ele><time>2026-04-25T10:38:00.926Z</time></trkpt><trkpt lat="43.5915488" lon="11.7321543"><ele>893.0</ele><time>2026-04-25T10:38:01.927Z</time></trkpt><trkpt lat="43.5913846" lon="11.7322213"><ele>893.0</ele><time>2026-04-25T10:38:02.934Z</time></trkpt><trkpt lat="43.5912334" lon="11.7322598"><ele>893.0</ele><time>2026-04-25T10:38:03.92Z</time></trkpt><trkpt lat="43.5911035" lon="11.7322826"><ele>893.0</ele><time>2026-04-25T10:38:04.923Z</time></trkpt><trkpt lat="43.5909903" lon="11.7323297"><ele>893.0</ele><time>2026-04-25T10:38:05.925Z</time></trkpt><trkpt lat="43.5909099" lon="11.732423"><ele>889.75</ele><time>2026-04-25T10:38:06.925Z</time></trkpt><trkpt lat="43.5908489" lon="11.7325598"><ele>886.5</ele><time>2026-04-25T10:38:07.931Z</time></trkpt><trkpt lat="43.5908158" lon="11.7327208"><ele>883.25</ele><time>2026-04-25T10:38:08.927Z</time></trkpt><trkpt lat="43.590802" lon="11.7328906"><ele>880.0</ele><time>2026-04-25T10:38:09.92Z</time></trkpt><trkpt lat="43.5907818" lon="11.733048"><ele>880.0</ele><time>2026-04-25T10:38:10.917Z</time></trkpt><trkpt lat="43.5907402" lon="11.7331782"><ele>880.0</ele><time>2026-04-25T10:38:11.927Z</time></trkpt><trkpt lat="43.5906611" lon="11.7332672"><ele>880.0</ele><time>2026-04-25T10:38:12.932Z</time></trkpt><trkpt lat="43.5905427" lon="11.7333271"><ele>880.0</ele><time>2026-04-25T10:38:13.92Z</time></trkpt><trkpt lat="43.5904071" lon="11.7333538"><ele>875.5</ele><time>2026-04-25T10:38:14.929Z</time></trkpt><trkpt lat="43.5902592" lon="11.7333701"><ele>871.0</ele><time>2026-04-25T10:38:15.925Z</time></trkpt><trkpt lat="43.59012" lon="11.7333981"><ele>866.5</ele><time>2026-04-25T10:38:16.925Z</time></trkpt><trkpt lat="43.5899981" lon="11.7334391"><ele>862.0</ele><time>2026-04-25T10:38:17.923Z</time></trkpt><trkpt lat="43.5898672" lon="11.733516"><ele>858.6666666666666</ele><time>2026-04-25T10:38:18.926Z</time></trkpt><trkpt lat="43.5897294" lon="11.733624"><ele>855.3333333333333</ele><time>2026-04-25T10:38:19.933Z</time></trkpt><trkpt lat="43.5895872" lon="11.733747"><ele>852.0</ele><time>2026-04-25T10:38:20.923Z</time></trkpt><trkpt lat="43.5894491" lon="11.7338584"><ele>852.0</ele><time>2026-04-25T10:38:21.926Z</time></trkpt><trkpt lat="43.5893272" lon="11.7339685"><ele>852.0</ele><time>2026-04-25T10:38:22.923Z</time></trkpt><trkpt lat="43.5892393" lon="11.7340802"><ele>852.0</ele><time>2026-04-25T10:38:23.925Z</time></trkpt><trkpt lat="43.5891654" lon="11.7342052"><ele>852.0</ele><time>2026-04-25T10:38:24.918Z</time></trkpt><trkpt lat="43.5891337" lon="11.7343588"><ele>850.25</ele><time>2026-04-25T10:38:25.923Z</time></trkpt><trkpt lat="43.5891376" lon="11.7345131"><ele>848.5</ele><time>2026-04-25T10:38:26.927Z</time></trkpt><trkpt lat="43.5891804" lon="11.7346711"><ele>846.75</ele><time>2026-04-25T10:38:27.92Z</time></trkpt><trkpt lat="43.5892661" lon="11.7348131"><ele>845.0</ele><time>2026-04-25T10:38:28.943Z</time></trkpt><trkpt lat="43.5893865" lon="11.7349791"><ele>847.0</ele><time>2026-04-25T10:38:29.919Z</time></trkpt><trkpt lat="43.5895153" lon="11.7351636"><ele>849.0</ele><time>2026-04-25T10:38:30.917Z</time></trkpt><trkpt lat="43.5896497" lon="11.7353598"><ele>851.0</ele><time>2026-04-25T10:38:31.938Z</time></trkpt><trkpt lat="43.5897673" lon="11.735544"><ele>851.0</ele><time>2026-04-25T10:38:32.918Z</time></trkpt><trkpt lat="43.5898796" lon="11.7356999"><ele>851.0</ele><time>2026-04-25T10:38:33.926Z</time></trkpt><trkpt lat="43.5900014" lon="11.7358324"><ele>851.0</ele><time>2026-04-25T10:38:34.924Z</time></trkpt><trkpt lat="43.590139" lon="11.7359475"><ele>851.0</ele><time>2026-04-25T10:38:35.919Z</time></trkpt><trkpt lat="43.590292" lon="11.7360318"><ele>851.0</ele><time>2026-04-25T10:38:36.924Z</time></trkpt><trkpt lat="43.5904712" lon="11.736093"><ele>851.0</ele><time>2026-04-25T10:38:37.927Z</time></trkpt><trkpt lat="43.5906539" lon="11.736134"><ele>845.0</ele><time>2026-04-25T10:38:38.931Z</time></trkpt><trkpt lat="43.5908265" lon="11.7361758"><ele>839.0</ele><time>2026-04-25T10:38:39.923Z</time></trkpt><trkpt lat="43.5909882" lon="11.7362246"><ele>833.0</ele><time>2026-04-25T10:38:40.931Z</time></trkpt><trkpt lat="43.5911438" lon="11.7362475"><ele>834.6666666666667</ele><time>2026-04-25T10:38:41.921Z</time></trkpt><trkpt lat="43.5913022" lon="11.7362447"><ele>836.3333333333333</ele><time>2026-04-25T10:38:42.929Z</time></trkpt><trkpt lat="43.5914583" lon="11.7362374"><ele>838.0</ele><time>2026-04-25T10:38:43.918Z</time></trkpt><trkpt lat="43.5915964" lon="11.7362276"><ele>838.0</ele><time>2026-04-25T10:38:44.934Z</time></trkpt><trkpt lat="43.5917043" lon="11.7362339"><ele>838.0</ele><time>2026-04-25T10:38:45.924Z</time></trkpt><trkpt lat="43.5917938" lon="11.7362765"><ele>838.0</ele><time>2026-04-25T10:38:46.924Z</time></trkpt><trkpt lat="43.5918612" lon="11.7363637"><ele>838.0</ele><time>2026-04-25T10:38:47.913Z</time></trkpt><trkpt lat="43.5919073" lon="11.7364786"><ele>838.0</ele><time>2026-04-25T10:38:48.92Z</time></trkpt><trkpt lat="43.5919059" lon="11.736624"><ele>838.0</ele><time>2026-04-25T10:38:49.927Z</time></trkpt><trkpt lat="43.5918689" lon="11.7367943"><ele>838.0</ele><time>2026-04-25T10:38:50.916Z</time></trkpt><trkpt lat="43.5918063" lon="11.7369944"><ele>838.0</ele><time>2026-04-25T10:38:51.924Z</time></trkpt><trkpt lat="43.5917455" lon="11.7371974"><ele>838.0</ele><time>2026-04-25T10:38:52.916Z</time></trkpt><trkpt lat="43.5916786" lon="11.7374259"><ele>837.3333333333333</ele><time>2026-04-25T10:38:53.921Z</time></trkpt><trkpt lat="43.591602" lon="11.7376639"><ele>836.6666666666667</ele><time>2026-04-25T10:38:54.923Z</time></trkpt><trkpt lat="43.5915284" lon="11.7379061"><ele>836.0</ele><time>2026-04-25T10:38:55.918Z</time></trkpt><trkpt lat="43.5914525" lon="11.7381281"><ele>836.0</ele><time>2026-04-25T10:38:56.922Z</time></trkpt><trkpt lat="43.5913918" lon="11.7383423"><ele>836.0</ele><time>2026-04-25T10:38:57.926Z</time></trkpt><trkpt lat="43.5913291" lon="11.7385451"><ele>836.0</ele><time>2026-04-25T10:38:58.92Z</time></trkpt><trkpt lat="43.5912856" lon="11.7387349"><ele>833.75</ele><time>2026-04-25T10:38:59.927Z</time></trkpt><trkpt lat="43.5912609" lon="11.7389063"><ele>831.5</ele><time>2026-04-25T10:39:00.917Z</time></trkpt><trkpt lat="43.5912796" lon="11.7390702"><ele>829.25</ele><time>2026-04-25T10:39:01.946Z</time></trkpt><trkpt lat="43.591337" lon="11.739211"><ele>827.0</ele><time>2026-04-25T10:39:02.913Z</time></trkpt><trkpt lat="43.5914325" lon="11.739315"><ele>827.0</ele><time>2026-04-25T10:39:03.922Z</time></trkpt><trkpt lat="43.5915298" lon="11.7393814"><ele>827.0</ele><time>2026-04-25T10:39:04.925Z</time></trkpt><trkpt lat="43.5916481" lon="11.7394423"><ele>827.0</ele><time>2026-04-25T10:39:05.925Z</time></trkpt><trkpt lat="43.5917381" lon="11.7395343"><ele>827.0</ele><time>2026-04-25T10:39:06.919Z</time></trkpt><trkpt lat="43.5917969" lon="11.7396858"><ele>821.3333333333334</ele><time>2026-04-25T10:39:07.933Z</time></trkpt><trkpt lat="43.5918574" lon="11.7398557"><ele>815.6666666666667</ele><time>2026-04-25T10:39:08.919Z</time></trkpt><trkpt lat="43.5919077" lon="11.7400538"><ele>810.0</ele><time>2026-04-25T10:39:09.919Z</time></trkpt><trkpt lat="43.5919564" lon="11.74027"><ele>814.0</ele><time>2026-04-25T10:39:10.925Z</time></trkpt><trkpt lat="43.5920113" lon="11.7404719"><ele>818.0</ele><time>2026-04-25T10:39:11.933Z</time></trkpt><trkpt lat="43.5920772" lon="11.740666"><ele>822.0</ele><time>2026-04-25T10:39:12.928Z</time></trkpt><trkpt lat="43.5921569" lon="11.7408391"><ele>822.0</ele><time>2026-04-25T10:39:13.931Z</time></trkpt><trkpt lat="43.5922541" lon="11.7409972"><ele>822.0</ele><time>2026-04-25T10:39:14.928Z</time></trkpt><trkpt lat="43.5923613" lon="11.7411416"><ele>822.0</ele><time>2026-04-25T10:39:15.932Z</time></trkpt><trkpt lat="43.592476" lon="11.7412729"><ele>822.0</ele><time>2026-04-25T10:39:16.912Z</time></trkpt><trkpt lat="43.5925882" lon="11.7413944"><ele>821.75</ele><time>2026-04-25T10:39:17.943Z</time></trkpt><trkpt lat="43.5927054" lon="11.7415011"><ele>821.5</ele><time>2026-04-25T10:39:18.927Z</time></trkpt><trkpt lat="43.5928064" lon="11.7415905"><ele>821.25</ele><time>2026-04-25T10:39:19.912Z</time></trkpt><trkpt lat="43.5928962" lon="11.7416955"><ele>821.0</ele><time>2026-04-25T10:39:20.911Z</time></trkpt><trkpt lat="43.5929647" lon="11.7418213"><ele>817.0</ele><time>2026-04-25T10:39:21.918Z</time></trkpt><trkpt lat="43.5930122" lon="11.7419791"><ele>813.0</ele><time>2026-04-25T10:39:22.913Z</time></trkpt><trkpt lat="43.5930238" lon="11.7421327"><ele>809.0</ele><time>2026-04-25T10:39:23.92Z</time></trkpt><trkpt lat="43.5930074" lon="11.7423066"><ele>805.0</ele><time>2026-04-25T10:39:24.918Z</time></trkpt><trkpt lat="43.5929791" lon="11.7424811"><ele>805.0</ele><time>2026-04-25T10:39:25.922Z</time></trkpt><trkpt lat="43.5929543" lon="11.7426447"><ele>805.0</ele><time>2026-04-25T10:39:26.918Z</time></trkpt><trkpt lat="43.5929378" lon="11.7428165"><ele>805.0</ele><time>2026-04-25T10:39:27.924Z</time></trkpt><trkpt lat="43.5929183" lon="11.7429839"><ele>805.0</ele><time>2026-04-25T10:39:28.913Z</time></trkpt><trkpt lat="43.5929033" lon="11.7431399"><ele>802.8333333333333</ele><time>2026-04-25T10:39:29.937Z</time></trkpt><trkpt lat="43.5928905" lon="11.7432675"><ele>800.6666666666666</ele><time>2026-04-25T10:39:30.924Z</time></trkpt><trkpt lat="43.5928857" lon="11.7433693"><ele>798.5</ele><time>2026-04-25T10:39:31.916Z</time></trkpt><trkpt lat="43.5928744" lon="11.7435042"><ele>796.3333333333333</ele><time>2026-04-25T10:39:33.934Z</time></trkpt><trkpt lat="43.5928784" lon="11.7436016"><ele>794.1666666666666</ele><time>2026-04-25T10:39:57.931Z</time></trkpt><trkpt lat="43.5929405" lon="11.7436648"><ele>792.0</ele><time>2026-04-25T10:40:01.931Z</time></trkpt><trkpt lat="43.5930401" lon="11.7436092"><ele>789.6</ele><time>2026-04-25T10:40:03.916Z</time></trkpt><trkpt lat="43.5931049" lon="11.7435773"><ele>787.2</ele><time>2026-04-25T10:40:04.927Z</time></trkpt><trkpt lat="43.593191" lon="11.7435723"><ele>784.8</ele><time>2026-04-25T10:40:05.93Z</time></trkpt><trkpt lat="43.5932989" lon="11.7435761"><ele>782.4</ele><time>2026-04-25T10:40:06.923Z</time></trkpt><trkpt lat="43.5934226" lon="11.7435774"><ele>780.0</ele><time>2026-04-25T10:40:07.912Z</time></trkpt><trkpt lat="43.5935548" lon="11.7435885"><ele>780.4</ele><time>2026-04-25T10:40:08.915Z</time></trkpt><trkpt lat="43.5936767" lon="11.7435911"><ele>780.8</ele><time>2026-04-25T10:40:09.924Z</time></trkpt><trkpt lat="43.5938015" lon="11.7436057"><ele>781.2</ele><time>2026-04-25T10:40:10.918Z</time></trkpt><trkpt lat="43.5939052" lon="11.7436172"><ele>781.6</ele><time>2026-04-25T10:40:11.912Z</time></trkpt><trkpt lat="43.5939866" lon="11.7436309"><ele>782.0</ele><time>2026-04-25T10:40:12.92Z</time></trkpt><trkpt lat="43.594071" lon="11.7436099"><ele>782.0</ele><time>2026-04-25T10:40:14.913Z</time></trkpt><trkpt lat="43.5941494" lon="11.7435683"><ele>782.0</ele><time>2026-04-25T10:40:16.907Z</time></trkpt><trkpt lat="43.5942682" lon="11.743469"><ele>782.0</ele><time>2026-04-25T10:40:18.923Z</time></trkpt><trkpt lat="43.5943225" lon="11.7434239"><ele>782.0</ele><time>2026-04-25T10:40:19.91Z</time></trkpt><trkpt lat="43.5943854" lon="11.7433493"><ele>782.0</ele><time>2026-04-25T10:40:21.928Z</time></trkpt><trkpt lat="43.5942979" lon="11.7434472"><ele>781.9999999999999</ele><time>2026-04-25T10:40:35.923Z</time></trkpt><trkpt lat="43.5942341" lon="11.7435167"><ele>782.0</ele><time>2026-04-25T10:40:36.915Z</time></trkpt><trkpt lat="43.5941726" lon="11.7435805"><ele>782.0</ele><time>2026-04-25T10:40:37.938Z</time></trkpt><trkpt lat="43.5941061" lon="11.7436238"><ele>782.0</ele><time>2026-04-25T10:40:38.917Z</time></trkpt><trkpt lat="43.5940401" lon="11.7436411"><ele>782.0</ele><time>2026-04-25T10:40:39.925Z</time></trkpt><trkpt lat="43.5939683" lon="11.7436353"><ele>781.9999999999999</ele><time>2026-04-25T10:40:40.932Z</time></trkpt><trkpt lat="43.5939004" lon="11.7436315"><ele>782.0</ele><time>2026-04-25T10:40:41.937Z</time></trkpt><trkpt lat="43.5938357" lon="11.7436286"><ele>782.0</ele><time>2026-04-25T10:40:42.927Z</time></trkpt><trkpt lat="43.593742" lon="11.7436325"><ele>782.0</ele><time>2026-04-25T10:40:44.923Z</time></trkpt><trkpt lat="43.5937497" lon="11.7437247"><ele>782.0</ele><time>2026-04-25T10:40:48.926Z</time></trkpt><trkpt lat="43.5938537" lon="11.7437933"><ele>782.0</ele><time>2026-04-25T10:40:50.926Z</time></trkpt><trkpt lat="43.593963" lon="11.7438569"><ele>782.0</ele><time>2026-04-25T10:40:51.914Z</time></trkpt><trkpt lat="43.5940591" lon="11.7439232"><ele>782.0000000000001</ele><time>2026-04-25T10:40:52.931Z</time></trkpt><trkpt lat="43.5941505" lon="11.7439788"><ele>782.0</ele><time>2026-04-25T10:40:53.925Z</time></trkpt><trkpt lat="43.594231" lon="11.7440202"><ele>782.0</ele><time>2026-04-25T10:40:54.92Z</time></trkpt><trkpt lat="43.5943023" lon="11.744048"><ele>782.0</ele><time>2026-04-25T10:40:55.928Z</time></trkpt><trkpt lat="43.5943792" lon="11.7440537"><ele>782.0000000000001</ele><time>2026-04-25T10:40:56.918Z</time></trkpt><trkpt lat="43.5944607" lon="11.7440536"><ele>782.0</ele><time>2026-04-25T10:40:57.925Z</time></trkpt><trkpt lat="43.5945416" lon="11.744043"><ele>780.6666666666667</ele><time>2026-04-25T10:40:58.916Z</time></trkpt><trkpt lat="43.5946283" lon="11.7440294"><ele>779.3333333333334</ele><time>2026-04-25T10:40:59.927Z</time></trkpt><trkpt lat="43.5947176" lon="11.7440091"><ele>778.0</ele><time>2026-04-25T10:41:00.927Z</time></trkpt><trkpt lat="43.5948037" lon="11.7439766"><ele>776.6666666666667</ele><time>2026-04-25T10:41:01.933Z</time></trkpt><trkpt lat="43.5948852" lon="11.7439428"><ele>775.3333333333334</ele><time>2026-04-25T10:41:02.925Z</time></trkpt><trkpt lat="43.5949427" lon="11.7439023"><ele>774.0</ele><time>2026-04-25T10:41:03.929Z</time></trkpt><trkpt lat="43.594992" lon="11.7438372"><ele>774.0</ele><time>2026-04-25T10:41:10.92Z</time></trkpt><trkpt lat="43.5949984" lon="11.7437467"><ele>774.0</ele><time>2026-04-25T10:41:18.919Z</time></trkpt><trkpt lat="43.5949788" lon="11.7438399"><ele>774.0</ele><time>2026-04-25T10:41:35.936Z</time></trkpt><trkpt lat="43.5949133" lon="11.7439476"><ele>774.0</ele><time>2026-04-25T10:41:37.933Z</time></trkpt><trkpt lat="43.5948544" lon="11.7439813"><ele>774.0</ele><time>2026-04-25T10:41:38.929Z</time></trkpt><trkpt lat="43.5947881" lon="11.7440006"><ele>774.0</ele><time>2026-04-25T10:41:39.924Z</time></trkpt><trkpt lat="43.5947217" lon="11.7440211"><ele>774.0</ele><time>2026-04-25T10:41:40.929Z</time></trkpt><trkpt lat="43.5946528" lon="11.7440196"><ele>774.0</ele><time>2026-04-25T10:41:41.927Z</time></trkpt><trkpt lat="43.5945762" lon="11.7440197"><ele>774.0</ele><time>2026-04-25T10:41:42.925Z</time></trkpt><trkpt lat="43.5945015" lon="11.7440275"><ele>774.0</ele><time>2026-04-25T10:41:43.925Z</time></trkpt><trkpt lat="43.594425" lon="11.7440399"><ele>774.0</ele><time>2026-04-25T10:41:44.919Z</time></trkpt><trkpt lat="43.5943509" lon="11.7440431"><ele>774.0</ele><time>2026-04-25T10:41:45.922Z</time></trkpt><trkpt lat="43.5942827" lon="11.7440268"><ele>774.0</ele><time>2026-04-25T10:41:46.919Z</time></trkpt><trkpt lat="43.594219" lon="11.7439983"><ele>774.0</ele><time>2026-04-25T10:41:47.923Z</time></trkpt><trkpt lat="43.5941529" lon="11.7439633"><ele>775.1428571428571</ele><time>2026-04-25T10:41:48.919Z</time></trkpt><trkpt lat="43.5940865" lon="11.7439293"><ele>776.2857142857143</ele><time>2026-04-25T10:41:49.925Z</time></trkpt><trkpt lat="43.5940227" lon="11.7438914"><ele>777.4285714285713</ele><time>2026-04-25T10:41:50.92Z</time></trkpt><trkpt lat="43.5939629" lon="11.7438508"><ele>778.5714285714286</ele><time>2026-04-25T10:41:51.918Z</time></trkpt><trkpt lat="43.5939061" lon="11.7438129"><ele>779.7142857142857</ele><time>2026-04-25T10:41:52.913Z</time></trkpt><trkpt lat="43.5938474" lon="11.7437751"><ele>780.8571428571428</ele><time>2026-04-25T10:41:53.915Z</time></trkpt><trkpt lat="43.593751" lon="11.7437073"><ele>782.0</ele><time>2026-04-25T10:41:55.929Z</time></trkpt><trkpt lat="43.5937032" lon="11.7436441"><ele>782.0</ele><time>2026-04-25T10:42:00.921Z</time></trkpt><trkpt lat="43.5938039" lon="11.7436385"><ele>782.0</ele><time>2026-04-25T10:42:04.921Z</time></trkpt><trkpt lat="43.5939202" lon="11.7436481"><ele>782.0</ele><time>2026-04-25T10:42:06.923Z</time></trkpt><trkpt lat="43.5939984" lon="11.7436456"><ele>782.0</ele><time>2026-04-25T10:42:07.926Z</time></trkpt><trkpt lat="43.5940754" lon="11.743616"><ele>782.0</ele><time>2026-04-25T10:42:08.92Z</time></trkpt><trkpt lat="43.5941551" lon="11.7435707"><ele>782.1666666666667</ele><time>2026-04-25T10:42:09.922Z</time></trkpt><trkpt lat="43.5942323" lon="11.743513"><ele>782.3333333333334</ele><time>2026-04-25T10:42:10.93Z</time></trkpt><trkpt lat="43.5942991" lon="11.7434464"><ele>782.5</ele><time>2026-04-25T10:42:11.925Z</time></trkpt><trkpt lat="43.5943651" lon="11.7433654"><ele>782.6666666666667</ele><time>2026-04-25T10:42:12.923Z</time></trkpt><trkpt lat="43.5944314" lon="11.7432904"><ele>782.8333333333334</ele><time>2026-04-25T10:42:13.932Z</time></trkpt><trkpt lat="43.59449" lon="11.7432201"><ele>783.0</ele><time>2026-04-25T10:42:14.922Z</time></trkpt><trkpt lat="43.5945419" lon="11.7431376"><ele>783.0</ele><time>2026-04-25T10:42:15.927Z</time></trkpt><trkpt lat="43.5945705" lon="11.7430519"><ele>783.0</ele><time>2026-04-25T10:42:16.925Z</time></trkpt><trkpt lat="43.5946148" lon="11.7429162"><ele>783.0</ele><time>2026-04-25T10:42:18.922Z</time></trkpt><trkpt lat="43.5946516" lon="11.7427821"><ele>783.0</ele><time>2026-04-25T10:42:20.923Z</time></trkpt><trkpt lat="43.5946802" lon="11.7426913"><ele>783.0</ele><time>2026-04-25T10:42:22.92Z</time></trkpt><trkpt lat="43.59475" lon="11.7425949"><ele>783.8333333333334</ele><time>2026-04-25T10:42:25.927Z</time></trkpt><trkpt lat="43.5947634" lon="11.7425032"><ele>784.6666666666667</ele><time>2026-04-25T10:42:27.92Z</time></trkpt><trkpt lat="43.5947613" lon="11.7423913"><ele>785.5</ele><time>2026-04-25T10:42:30.94Z</time></trkpt><trkpt lat="43.5947842" lon="11.7422594"><ele>786.3333333333334</ele><time>2026-04-25T10:42:46.944Z</time></trkpt><trkpt lat="43.5947889" lon="11.7421314"><ele>787.1666666666667</ele><time>2026-04-25T10:42:47.921Z</time></trkpt><trkpt lat="43.5948241" lon="11.7419889"><ele>788.0</ele><time>2026-04-25T10:42:48.928Z</time></trkpt><trkpt lat="43.5948708" lon="11.7418329"><ele>789.1666666666667</ele><time>2026-04-25T10:42:49.928Z</time></trkpt><trkpt lat="43.5949077" lon="11.7416829"><ele>790.3333333333334</ele><time>2026-04-25T10:42:50.921Z</time></trkpt><trkpt lat="43.5949255" lon="11.741564"><ele>791.5</ele><time>2026-04-25T10:42:51.933Z</time></trkpt><trkpt lat="43.5949379" lon="11.7414633"><ele>792.6666666666667</ele><time>2026-04-25T10:42:52.917Z</time></trkpt><trkpt lat="43.5949236" lon="11.7413685"><ele>793.8333333333334</ele><time>2026-04-25T10:42:53.931Z</time></trkpt><trkpt lat="43.5949033" lon="11.7412776"><ele>795.0</ele><time>2026-04-25T10:42:54.922Z</time></trkpt><trkpt lat="43.5948955" lon="11.7411858"><ele>795.0</ele><time>2026-04-25T10:42:55.923Z</time></trkpt><trkpt lat="43.594911" lon="11.7410927"><ele>795.0</ele><time>2026-04-25T10:42:56.932Z</time></trkpt><trkpt lat="43.5949411" lon="11.7409834"><ele>795.0</ele><time>2026-04-25T10:42:57.927Z</time></trkpt><trkpt lat="43.5949877" lon="11.7408589"><ele>795.0</ele><time>2026-04-25T10:42:58.923Z</time></trkpt><trkpt lat="43.5950545" lon="11.7407218"><ele>795.0</ele><time>2026-04-25T10:42:59.935Z</time></trkpt><trkpt lat="43.5951235" lon="11.7405593"><ele>796.75</ele><time>2026-04-25T10:43:00.921Z</time></trkpt><trkpt lat="43.5951857" lon="11.7404091"><ele>798.5</ele><time>2026-04-25T10:43:01.924Z</time></trkpt><trkpt lat="43.5952165" lon="11.7402512"><ele>800.25</ele><time>2026-04-25T10:43:02.925Z</time></trkpt><trkpt lat="43.595229" lon="11.7400931"><ele>802.0</ele><time>2026-04-25T10:43:03.926Z</time></trkpt><trkpt lat="43.5952359" lon="11.7399464"><ele>801.25</ele><time>2026-04-25T10:43:04.922Z</time></trkpt><trkpt lat="43.5952757" lon="11.7398025"><ele>800.5</ele><time>2026-04-25T10:43:05.922Z</time></trkpt><trkpt lat="43.5953343" lon="11.7396838"><ele>799.75</ele><time>2026-04-25T10:43:06.919Z</time></trkpt><trkpt lat="43.5953852" lon="11.7395364"><ele>799.0</ele><time>2026-04-25T10:43:07.918Z</time></trkpt><trkpt lat="43.5954034" lon="11.7393573"><ele>799.0</ele><time>2026-04-25T10:43:08.933Z</time></trkpt><trkpt lat="43.5954271" lon="11.7391646"><ele>799.0</ele><time>2026-04-25T10:43:09.922Z</time></trkpt><trkpt lat="43.5954488" lon="11.7389758"><ele>799.0</ele><time>2026-04-25T10:43:10.921Z</time></trkpt><trkpt lat="43.595484" lon="11.7388064"><ele>799.0</ele><time>2026-04-25T10:43:11.918Z</time></trkpt><trkpt lat="43.5955377" lon="11.7386881"><ele>799.0</ele><time>2026-04-25T10:43:12.919Z</time></trkpt><trkpt lat="43.5956054" lon="11.7386052"><ele>799.0</ele><time>2026-04-25T10:43:13.917Z</time></trkpt><trkpt lat="43.5956823" lon="11.7385018"><ele>799.0</ele><time>2026-04-25T10:43:14.92Z</time></trkpt><trkpt lat="43.595745" lon="11.7383962"><ele>799.0</ele><time>2026-04-25T10:43:15.927Z</time></trkpt><trkpt lat="43.5957855" lon="11.7382493"><ele>799.0</ele><time>2026-04-25T10:43:16.927Z</time></trkpt><trkpt lat="43.5958191" lon="11.7380862"><ele>801.4000000000001</ele><time>2026-04-25T10:43:17.93Z</time></trkpt><trkpt lat="43.5958476" lon="11.7379698"><ele>803.8</ele><time>2026-04-25T10:43:18.92Z</time></trkpt><trkpt lat="43.5959396" lon="11.7378634"><ele>806.2</ele><time>2026-04-25T10:43:20.912Z</time></trkpt><trkpt lat="43.5960199" lon="11.7378009"><ele>808.5999999999999</ele><time>2026-04-25T10:43:21.926Z</time></trkpt><trkpt lat="43.5960975" lon="11.7377448"><ele>811.0</ele><time>2026-04-25T10:43:22.914Z</time></trkpt><trkpt lat="43.5961531" lon="11.7376909"><ele>811.1999999999999</ele><time>2026-04-25T10:43:23.913Z</time></trkpt><trkpt lat="43.5961815" lon="11.7375251"><ele>811.4</ele><time>2026-04-25T10:43:25.92Z</time></trkpt><trkpt lat="43.5962007" lon="11.7374118"><ele>811.6</ele><time>2026-04-25T10:43:26.923Z</time></trkpt><trkpt lat="43.5962419" lon="11.7373194"><ele>811.8</ele><time>2026-04-25T10:43:27.928Z</time></trkpt><trkpt lat="43.596305" lon="11.7372457"><ele>812.0</ele><time>2026-04-25T10:43:28.919Z</time></trkpt><trkpt lat="43.5963829" lon="11.7371785"><ele>812.0000000000001</ele><time>2026-04-25T10:43:29.908Z</time></trkpt><trkpt lat="43.596453" lon="11.7371069"><ele>812.0</ele><time>2026-04-25T10:43:30.929Z</time></trkpt><trkpt lat="43.5965264" lon="11.7370327"><ele>812.0</ele><time>2026-04-25T10:43:31.921Z</time></trkpt><trkpt lat="43.5965879" lon="11.73694"><ele>812.0</ele><time>2026-04-25T10:43:32.921Z</time></trkpt><trkpt lat="43.5966394" lon="11.7368442"><ele>812.0000000000001</ele><time>2026-04-25T10:43:33.922Z</time></trkpt><trkpt lat="43.5966827" lon="11.7367374"><ele>812.0</ele><time>2026-04-25T10:43:34.922Z</time></trkpt><trkpt lat="43.5967317" lon="11.7366364"><ele>813.0</ele><time>2026-04-25T10:43:35.925Z</time></trkpt><trkpt lat="43.5968057" lon="11.7365602"><ele>814.0</ele><time>2026-04-25T10:43:36.917Z</time></trkpt><trkpt lat="43.5968903" lon="11.7364935"><ele>815.0</ele><time>2026-04-25T10:43:37.916Z</time></trkpt><trkpt lat="43.5969962" lon="11.7364391"><ele>816.0</ele><time>2026-04-25T10:43:38.92Z</time></trkpt><trkpt lat="43.5971269" lon="11.7363714"><ele>817.0</ele><time>2026-04-25T10:43:39.922Z</time></trkpt><trkpt lat="43.597238" lon="11.7363065"><ele>817.0</ele><time>2026-04-25T10:43:40.919Z</time></trkpt><trkpt lat="43.5973239" lon="11.7362365"><ele>817.0</ele><time>2026-04-25T10:43:41.922Z</time></trkpt><trkpt lat="43.5973809" lon="11.7361335"><ele>817.0</ele><time>2026-04-25T10:43:42.929Z</time></trkpt><trkpt lat="43.5974298" lon="11.7359824"><ele>817.0</ele><time>2026-04-25T10:43:43.925Z</time></trkpt><trkpt lat="43.5974691" lon="11.7358091"><ele>817.0</ele><time>2026-04-25T10:43:44.923Z</time></trkpt><trkpt lat="43.5975092" lon="11.7356544"><ele>816.4000000000001</ele><time>2026-04-25T10:43:45.922Z</time></trkpt><trkpt lat="43.5975259" lon="11.7355294"><ele>815.8000000000001</ele><time>2026-04-25T10:43:46.927Z</time></trkpt><trkpt lat="43.5975609" lon="11.7354491"><ele>815.2</ele><time>2026-04-25T10:43:47.917Z</time></trkpt><trkpt lat="43.5976464" lon="11.735388"><ele>814.6</ele><time>2026-04-25T10:43:48.921Z</time></trkpt><trkpt lat="43.5977443" lon="11.7353176"><ele>814.0</ele><time>2026-04-25T10:43:49.934Z</time></trkpt><trkpt lat="43.5978488" lon="11.7352419"><ele>817.0</ele><time>2026-04-25T10:43:50.914Z</time></trkpt><trkpt lat="43.5979697" lon="11.7351328"><ele>820.0</ele><time>2026-04-25T10:43:51.928Z</time></trkpt><trkpt lat="43.5980863" lon="11.7350234"><ele>823.0</ele><time>2026-04-25T10:43:52.924Z</time></trkpt><trkpt lat="43.5981792" lon="11.734927"><ele>826.0</ele><time>2026-04-25T10:43:53.924Z</time></trkpt><trkpt lat="43.5982625" lon="11.7348441"><ele>826.0</ele><time>2026-04-25T10:43:54.929Z</time></trkpt><trkpt lat="43.5983352" lon="11.7347446"><ele>826.0</ele><time>2026-04-25T10:43:55.927Z</time></trkpt><trkpt lat="43.5983992" lon="11.7346037"><ele>826.0</ele><time>2026-04-25T10:43:56.928Z</time></trkpt><trkpt lat="43.5984446" lon="11.7344714"><ele>826.0</ele><time>2026-04-25T10:43:57.922Z</time></trkpt><trkpt lat="43.5984808" lon="11.7343814"><ele>826.0</ele><time>2026-04-25T10:43:58.92Z</time></trkpt><trkpt lat="43.5985419" lon="11.734307"><ele>826.5999999999999</ele><time>2026-04-25T10:43:59.929Z</time></trkpt><trkpt lat="43.5986175" lon="11.7342568"><ele>827.2</ele><time>2026-04-25T10:44:00.93Z</time></trkpt><trkpt lat="43.5987156" lon="11.73421"><ele>827.8</ele><time>2026-04-25T10:44:01.92Z</time></trkpt><trkpt lat="43.5988099" lon="11.734161"><ele>828.4000000000001</ele><time>2026-04-25T10:44:02.925Z</time></trkpt><trkpt lat="43.5988814" lon="11.734077"><ele>829.0</ele><time>2026-04-25T10:44:03.918Z</time></trkpt><trkpt lat="43.5989307" lon="11.7339761"><ele>829.0</ele><time>2026-04-25T10:44:04.92Z</time></trkpt><trkpt lat="43.5989805" lon="11.7338416"><ele>829.0</ele><time>2026-04-25T10:44:05.921Z</time></trkpt><trkpt lat="43.5990257" lon="11.7336984"><ele>829.0</ele><time>2026-04-25T10:44:06.924Z</time></trkpt><trkpt lat="43.5990731" lon="11.7335731"><ele>829.0</ele><time>2026-04-25T10:44:07.92Z</time></trkpt><trkpt lat="43.5991201" lon="11.7334934"><ele>829.0</ele><time>2026-04-25T10:44:08.916Z</time></trkpt><trkpt lat="43.5991821" lon="11.733461"><ele>830.8333333333333</ele><time>2026-04-25T10:44:09.925Z</time></trkpt><trkpt lat="43.5992531" lon="11.7334393"><ele>832.6666666666666</ele><time>2026-04-25T10:44:10.924Z</time></trkpt><trkpt lat="43.5993263" lon="11.7334423"><ele>834.5</ele><time>2026-04-25T10:44:11.924Z</time></trkpt><trkpt lat="43.5994106" lon="11.7334331"><ele>836.3333333333333</ele><time>2026-04-25T10:44:12.928Z</time></trkpt><trkpt lat="43.5995058" lon="11.7334166"><ele>838.1666666666666</ele><time>2026-04-25T10:44:13.924Z</time></trkpt><trkpt lat="43.5995964" lon="11.7333831"><ele>840.0</ele><time>2026-04-25T10:44:14.921Z</time></trkpt><trkpt lat="43.5996807" lon="11.7333136"><ele>840.0</ele><time>2026-04-25T10:44:15.929Z</time></trkpt><trkpt lat="43.5997538" lon="11.7332157"><ele>840.0</ele><time>2026-04-25T10:44:16.913Z</time></trkpt><trkpt lat="43.599829" lon="11.7331087"><ele>840.0</ele><time>2026-04-25T10:44:17.921Z</time></trkpt><trkpt lat="43.5998996" lon="11.7330095"><ele>840.0</ele><time>2026-04-25T10:44:18.925Z</time></trkpt><trkpt lat="43.5999593" lon="11.7329349"><ele>840.0</ele><time>2026-04-25T10:44:19.931Z</time></trkpt><trkpt lat="43.6000479" lon="11.7329223"><ele>840.0</ele><time>2026-04-25T10:44:20.92Z</time></trkpt><trkpt lat="43.6001477" lon="11.7329187"><ele>840.0</ele><time>2026-04-25T10:44:21.92Z</time></trkpt><trkpt lat="43.6002551" lon="11.7328986"><ele>840.0</ele><time>2026-04-25T10:44:22.919Z</time></trkpt><trkpt lat="43.600359" lon="11.7328398"><ele>840.0</ele><time>2026-04-25T10:44:23.922Z</time></trkpt><trkpt lat="43.6004619" lon="11.7328006"><ele>840.0</ele><time>2026-04-25T10:44:24.932Z</time></trkpt><trkpt lat="43.6005799" lon="11.7327664"><ele>844.0</ele><time>2026-04-25T10:44:25.923Z</time></trkpt><trkpt lat="43.600699" lon="11.73272"><ele>848.0</ele><time>2026-04-25T10:44:26.916Z</time></trkpt><trkpt lat="43.6008368" lon="11.7326723"><ele>852.0</ele><time>2026-04-25T10:44:27.921Z</time></trkpt><trkpt lat="43.6009773" lon="11.7326149"><ele>856.0</ele><time>2026-04-25T10:44:28.927Z</time></trkpt><trkpt lat="43.6011135" lon="11.7325633"><ele>853.5999999999999</ele><time>2026-04-25T10:44:29.93Z</time></trkpt><trkpt lat="43.6012278" lon="11.7324956"><ele>851.1999999999999</ele><time>2026-04-25T10:44:30.919Z</time></trkpt><trkpt lat="43.6013163" lon="11.7323979"><ele>848.8</ele><time>2026-04-25T10:44:31.927Z</time></trkpt><trkpt lat="43.6013824" lon="11.7323186"><ele>846.4000000000001</ele><time>2026-04-25T10:44:32.924Z</time></trkpt><trkpt lat="43.6014386" lon="11.7322154"><ele>844.0</ele><time>2026-04-25T10:44:33.921Z</time></trkpt><trkpt lat="43.6014736" lon="11.7320682"><ele>844.0</ele><time>2026-04-25T10:44:34.912Z</time></trkpt><trkpt lat="43.6014839" lon="11.7319062"><ele>844.0</ele><time>2026-04-25T10:44:35.925Z</time></trkpt><trkpt lat="43.601482" lon="11.7317506"><ele>844.0</ele><time>2026-04-25T10:44:36.907Z</time></trkpt><trkpt lat="43.6014878" lon="11.7316345"><ele>844.0</ele><time>2026-04-25T10:44:37.922Z</time></trkpt><trkpt lat="43.6015235" lon="11.7315364"><ele>844.0</ele><time>2026-04-25T10:44:38.913Z</time></trkpt><trkpt lat="43.6016025" lon="11.7314323"><ele>843.5</ele><time>2026-04-25T10:44:39.909Z</time></trkpt><trkpt lat="43.6017056" lon="11.7313515"><ele>843.0</ele><time>2026-04-25T10:44:40.927Z</time></trkpt><trkpt lat="43.6018232" lon="11.731296"><ele>842.5</ele><time>2026-04-25T10:44:41.921Z</time></trkpt><trkpt lat="43.6019408" lon="11.7312339"><ele>842.0</ele><time>2026-04-25T10:44:42.913Z</time></trkpt><trkpt lat="43.6020627" lon="11.7311777"><ele>842.0</ele><time>2026-04-25T10:44:43.924Z</time></trkpt><trkpt lat="43.6021842" lon="11.7311344"><ele>842.0</ele><time>2026-04-25T10:44:44.908Z</time></trkpt><trkpt lat="43.6023052" lon="11.7310889"><ele>842.0</ele><time>2026-04-25T10:44:45.92Z</time></trkpt><trkpt lat="43.6024079" lon="11.7310297"><ele>842.0</ele><time>2026-04-25T10:44:46.922Z</time></trkpt><trkpt lat="43.6025226" lon="11.7309306"><ele>844.0</ele><time>2026-04-25T10:44:47.918Z</time></trkpt><trkpt lat="43.602616" lon="11.730814"><ele>846.0</ele><time>2026-04-25T10:44:48.918Z</time></trkpt><trkpt lat="43.6026869" lon="11.7307026"><ele>848.0</ele><time>2026-04-25T10:44:49.922Z</time></trkpt><trkpt lat="43.6027415" lon="11.7305916"><ele>850.0</ele><time>2026-04-25T10:44:50.923Z</time></trkpt><trkpt lat="43.6027699" lon="11.7304544"><ele>852.0</ele><time>2026-04-25T10:44:51.91Z</time></trkpt><trkpt lat="43.6027866" lon="11.7302975"><ele>854.25</ele><time>2026-04-25T10:44:52.92Z</time></trkpt><trkpt lat="43.6028035" lon="11.7301005"><ele>856.5</ele><time>2026-04-25T10:44:53.917Z</time></trkpt><trkpt lat="43.6028145" lon="11.7299092"><ele>858.75</ele><time>2026-04-25T10:44:54.92Z</time></trkpt><trkpt lat="43.6028304" lon="11.7297531"><ele>861.0</ele><time>2026-04-25T10:44:55.921Z</time></trkpt><trkpt lat="43.6028339" lon="11.7296375"><ele>861.0</ele><time>2026-04-25T10:44:56.92Z</time></trkpt><trkpt lat="43.6028005" lon="11.7295594"><ele>860.9999999999999</ele><time>2026-04-25T10:44:57.927Z</time></trkpt><trkpt lat="43.6026947" lon="11.7294656"><ele>860.9999999999999</ele><time>2026-04-25T10:44:59.914Z</time></trkpt><trkpt lat="43.6026139" lon="11.7294473"><ele>861.0</ele><time>2026-04-25T10:45:00.929Z</time></trkpt><trkpt lat="43.6025203" lon="11.72941"><ele>861.0</ele><time>2026-04-25T10:45:01.917Z</time></trkpt><trkpt lat="43.6024341" lon="11.7293599"><ele>861.1999999999999</ele><time>2026-04-25T10:45:02.914Z</time></trkpt><trkpt lat="43.6023594" lon="11.7292883"><ele>861.3999999999999</ele><time>2026-04-25T10:45:03.919Z</time></trkpt><trkpt lat="43.6023112" lon="11.7292194"><ele>861.6</ele><time>2026-04-25T10:45:04.92Z</time></trkpt><trkpt lat="43.6022913" lon="11.7290072"><ele>861.8</ele><time>2026-04-25T10:45:06.92Z</time></trkpt><trkpt lat="43.6022777" lon="11.7288594"><ele>862.0</ele><time>2026-04-25T10:45:07.925Z</time></trkpt><trkpt lat="43.6022695" lon="11.7287145"><ele>861.9999999999999</ele><time>2026-04-25T10:45:08.919Z</time></trkpt><trkpt lat="43.6022678" lon="11.7286089"><ele>862.0</ele><time>2026-04-25T10:45:09.919Z</time></trkpt><trkpt lat="43.602276" lon="11.7284893"><ele>862.0</ele><time>2026-04-25T10:45:11.921Z</time></trkpt><trkpt lat="43.60238" lon="11.7284982"><ele>862.0</ele><time>2026-04-25T10:45:14.924Z</time></trkpt><trkpt lat="43.6024291" lon="11.7285718"><ele>861.9999999999999</ele><time>2026-04-25T10:45:15.917Z</time></trkpt><trkpt lat="43.6024764" lon="11.7286707"><ele>862.0</ele><time>2026-04-25T10:45:16.929Z</time></trkpt><trkpt lat="43.6025263" lon="11.7287582"><ele>862.0</ele><time>2026-04-25T10:45:17.919Z</time></trkpt><trkpt lat="43.6026419" lon="11.7288459"><ele>862.0</ele><time>2026-04-25T10:45:19.918Z</time></trkpt><trkpt lat="43.6027499" lon="11.7288476"><ele>862.0</ele><time>2026-04-25T10:45:20.923Z</time></trkpt><trkpt lat="43.6028576" lon="11.7288482"><ele>862.0</ele><time>2026-04-25T10:45:21.931Z</time></trkpt><trkpt lat="43.6029775" lon="11.7288577"><ele>861.5</ele><time>2026-04-25T10:45:22.924Z</time></trkpt><trkpt lat="43.6031118" lon="11.7288767"><ele>861.0</ele><time>2026-04-25T10:45:23.925Z</time></trkpt><trkpt lat="43.6032501" lon="11.7288935"><ele>860.5</ele><time>2026-04-25T10:45:24.929Z</time></trkpt><trkpt lat="43.6033867" lon="11.7289362"><ele>860.0</ele><time>2026-04-25T10:45:25.929Z</time></trkpt><trkpt lat="43.6034837" lon="11.7289473"><ele>860.0000000000001</ele><time>2026-04-25T10:45:26.921Z</time></trkpt><trkpt lat="43.6035546" lon="11.7289517"><ele>860.0</ele><time>2026-04-25T10:45:27.924Z</time></trkpt><trkpt lat="43.6036263" lon="11.7289179"><ele>860.0</ele><time>2026-04-25T10:45:28.919Z</time></trkpt><trkpt lat="43.6037022" lon="11.7288554"><ele>860.0</ele><time>2026-04-25T10:45:29.916Z</time></trkpt><trkpt lat="43.6037579" lon="11.7287788"><ele>860.0000000000001</ele><time>2026-04-25T10:45:30.918Z</time></trkpt><trkpt lat="43.6038115" lon="11.7286671"><ele>860.0</ele><time>2026-04-25T10:45:31.924Z</time></trkpt><trkpt lat="43.6038466" lon="11.7285238"><ele>863.8</ele><time>2026-04-25T10:45:32.92Z</time></trkpt><trkpt lat="43.6038858" lon="11.7283869"><ele>867.6</ele><time>2026-04-25T10:45:33.911Z</time></trkpt><trkpt lat="43.6039336" lon="11.7282559"><ele>871.4000000000001</ele><time>2026-04-25T10:45:34.918Z</time></trkpt><trkpt lat="43.6040002" lon="11.7281452"><ele>875.2</ele><time>2026-04-25T10:45:35.928Z</time></trkpt><trkpt lat="43.6040815" lon="11.7280415"><ele>879.0</ele><time>2026-04-25T10:45:36.918Z</time></trkpt><trkpt lat="43.604153" lon="11.7279407"><ele>879.0</ele><time>2026-04-25T10:45:37.924Z</time></trkpt><trkpt lat="43.604216" lon="11.7278211"><ele>879.0000000000001</ele><time>2026-04-25T10:45:38.922Z</time></trkpt><trkpt lat="43.6042667" lon="11.7276925"><ele>879.0000000000001</ele><time>2026-04-25T10:45:39.926Z</time></trkpt><trkpt lat="43.6043219" lon="11.727583"><ele>879.0</ele><time>2026-04-25T10:45:40.93Z</time></trkpt><trkpt lat="43.604399" lon="11.7274694"><ele>879.0</ele><time>2026-04-25T10:45:41.924Z</time></trkpt><trkpt lat="43.6044904" lon="11.7273788"><ele>881.3333333333334</ele><time>2026-04-25T10:45:42.912Z</time></trkpt><trkpt lat="43.6045772" lon="11.7273054"><ele>883.6666666666667</ele><time>2026-04-25T10:45:43.919Z</time></trkpt><trkpt lat="43.604662" lon="11.727267"><ele>886.0</ele><time>2026-04-25T10:45:44.914Z</time></trkpt><trkpt lat="43.6047417" lon="11.7272462"><ele>888.3333333333334</ele><time>2026-04-25T10:45:45.916Z</time></trkpt><trkpt lat="43.6048262" lon="11.7272624"><ele>890.6666666666667</ele><time>2026-04-25T10:45:46.917Z</time></trkpt><trkpt lat="43.6049119" lon="11.7272719"><ele>893.0</ele><time>2026-04-25T10:45:47.923Z</time></trkpt><trkpt lat="43.605002" lon="11.7272493"><ele>893.0</ele><time>2026-04-25T10:45:48.935Z</time></trkpt><trkpt lat="43.6050788" lon="11.7272014"><ele>893.0</ele><time>2026-04-25T10:45:49.935Z</time></trkpt><trkpt lat="43.6051421" lon="11.7270778"><ele>893.0</ele><time>2026-04-25T10:45:51.922Z</time></trkpt><trkpt lat="43.6051374" lon="11.726987"><ele>893.0</ele><time>2026-04-25T10:45:52.925Z</time></trkpt><trkpt lat="43.6051012" lon="11.7268706"><ele>893.0</ele><time>2026-04-25T10:45:53.921Z</time></trkpt><trkpt lat="43.6050362" lon="11.7267151"><ele>894.0</ele><time>2026-04-25T10:45:54.916Z</time></trkpt><trkpt lat="43.6049634" lon="11.7265657"><ele>895.0</ele><time>2026-04-25T10:45:55.932Z</time></trkpt><trkpt lat="43.6049171" lon="11.7264399"><ele>896.0</ele><time>2026-04-25T10:45:56.921Z</time></trkpt><trkpt lat="43.6048817" lon="11.7263227"><ele>897.0</ele><time>2026-04-25T10:45:57.924Z</time></trkpt><trkpt lat="43.6048434" lon="11.726193"><ele>898.0</ele><time>2026-04-25T10:45:58.919Z</time></trkpt><trkpt lat="43.604807" lon="11.7260681"><ele>897.2</ele><time>2026-04-25T10:45:59.92Z</time></trkpt><trkpt lat="43.6047601" lon="11.7259387"><ele>896.4</ele><time>2026-04-25T10:46:00.934Z</time></trkpt><trkpt lat="43.6047028" lon="11.7258175"><ele>895.6000000000001</ele><time>2026-04-25T10:46:01.923Z</time></trkpt><trkpt lat="43.604636" lon="11.7256843"><ele>894.8000000000001</ele><time>2026-04-25T10:46:02.918Z</time></trkpt><trkpt lat="43.6045771" lon="11.7255411"><ele>894.0</ele><time>2026-04-25T10:46:03.911Z</time></trkpt><trkpt lat="43.6045202" lon="11.7253962"><ele>900.2</ele><time>2026-04-25T10:46:04.924Z</time></trkpt><trkpt lat="43.6044702" lon="11.7252658"><ele>906.4000000000001</ele><time>2026-04-25T10:46:05.918Z</time></trkpt><trkpt lat="43.6044259" lon="11.7251304"><ele>912.6</ele><time>2026-04-25T10:46:06.93Z</time></trkpt><trkpt lat="43.6043918" lon="11.7249776"><ele>918.8</ele><time>2026-04-25T10:46:07.918Z</time></trkpt><trkpt lat="43.6043551" lon="11.7248362"><ele>925.0</ele><time>2026-04-25T10:46:08.917Z</time></trkpt><trkpt lat="43.6043152" lon="11.7247181"><ele>924.9999999999999</ele><time>2026-04-25T10:46:09.91Z</time></trkpt><trkpt lat="43.6042992" lon="11.7246145"><ele>925.0</ele><time>2026-04-25T10:46:10.917Z</time></trkpt><trkpt lat="43.60431" lon="11.7245152"><ele>925.0</ele><time>2026-04-25T10:46:11.918Z</time></trkpt><trkpt lat="43.6043359" lon="11.7243346"><ele>925.0</ele><time>2026-04-25T10:46:13.914Z</time></trkpt><trkpt lat="43.604337" lon="11.7242422"><ele>924.9999999999999</ele><time>2026-04-25T10:46:14.928Z</time></trkpt><trkpt lat="43.6043362" lon="11.7241501"><ele>925.0</ele><time>2026-04-25T10:46:15.919Z</time></trkpt><trkpt lat="43.6043088" lon="11.7240406"><ele>925.0</ele><time>2026-04-25T10:46:16.927Z</time></trkpt><trkpt lat="43.6042768" lon="11.7239069"><ele>925.0</ele><time>2026-04-25T10:46:17.914Z</time></trkpt><trkpt lat="43.6042427" lon="11.7237556"><ele>925.0</ele><time>2026-04-25T10:46:18.916Z</time></trkpt><trkpt lat="43.6042066" lon="11.7235994"><ele>925.0</ele><time>2026-04-25T10:46:19.934Z</time></trkpt><trkpt lat="43.6041786" lon="11.7234593"><ele>925.0</ele><time>2026-04-25T10:46:20.924Z</time></trkpt><trkpt lat="43.6041486" lon="11.7233312"><ele>925.0</ele><time>2026-04-25T10:46:21.919Z</time></trkpt><trkpt lat="43.6041286" lon="11.7232287"><ele>925.0</ele><time>2026-04-25T10:46:22.915Z</time></trkpt><trkpt lat="43.6041338" lon="11.7230713"><ele>925.0</ele><time>2026-04-25T10:46:24.913Z</time></trkpt><trkpt lat="43.6042308" lon="11.7230293"><ele>925.0</ele><time>2026-04-25T10:46:26.925Z</time></trkpt><trkpt lat="43.6043129" lon="11.7230407"><ele>925.0</ele><time>2026-04-25T10:46:27.919Z</time></trkpt><trkpt lat="43.604391" lon="11.7230343"><ele>925.0</ele><time>2026-04-25T10:46:28.927Z</time></trkpt><trkpt lat="43.6044697" lon="11.7229949"><ele>925.0</ele><time>2026-04-25T10:46:29.925Z</time></trkpt><trkpt lat="43.6045427" lon="11.7229088"><ele>925.0</ele><time>2026-04-25T10:46:30.921Z</time></trkpt><trkpt lat="43.6046301" lon="11.7228066"><ele>925.0</ele><time>2026-04-25T10:46:31.911Z</time></trkpt><trkpt lat="43.6047313" lon="11.7227217"><ele>925.0</ele><time>2026-04-25T10:46:32.91Z</time></trkpt><trkpt lat="43.6048361" lon="11.7226315"><ele>925.0</ele><time>2026-04-25T10:46:33.925Z</time></trkpt><trkpt lat="43.6049413" lon="11.7224953"><ele>925.0</ele><time>2026-04-25T10:46:34.927Z</time></trkpt><trkpt lat="43.6051371" lon="11.7222012"><ele>925.0</ele><time>2026-04-25T10:46:36.918Z</time></trkpt><trkpt lat="43.6051996" lon="11.7220847"><ele>924.9999999999999</ele><time>2026-04-25T10:46:37.926Z</time></trkpt><trkpt lat="43.6052521" lon="11.7220166"><ele>925.0</ele><time>2026-04-25T10:46:38.916Z</time></trkpt><trkpt lat="43.60528" lon="11.7219138"><ele>925.0</ele><time>2026-04-25T10:46:39.918Z</time></trkpt><trkpt lat="43.6052976" lon="11.7218005"><ele>925.0</ele><time>2026-04-25T10:46:40.911Z</time></trkpt><trkpt lat="43.6053287" lon="11.7216929"><ele>924.9999999999999</ele><time>2026-04-25T10:46:41.931Z</time></trkpt><trkpt lat="43.6053751" lon="11.7216212"><ele>925.0</ele><time>2026-04-25T10:46:42.915Z</time></trkpt><trkpt lat="43.6054304" lon="11.7215489"><ele>924.9999999999999</ele><time>2026-04-25T10:46:43.922Z</time></trkpt><trkpt lat="43.605494" lon="11.7214698"><ele>925.0</ele><time>2026-04-25T10:46:44.92Z</time></trkpt><trkpt lat="43.605547" lon="11.7213887"><ele>925.0</ele><time>2026-04-25T10:46:45.93Z</time></trkpt><trkpt lat="43.6055947" lon="11.7213061"><ele>925.0</ele><time>2026-04-25T10:46:46.915Z</time></trkpt><trkpt lat="43.6056447" lon="11.7212365"><ele>924.9999999999999</ele><time>2026-04-25T10:46:47.92Z</time></trkpt><trkpt lat="43.6057109" lon="11.721189"><ele>925.0</ele><time>2026-04-25T10:46:48.919Z</time></trkpt><trkpt lat="43.6057706" lon="11.7211564"><ele>924.9999999999999</ele><time>2026-04-25T10:46:49.929Z</time></trkpt><trkpt lat="43.605829" lon="11.7211122"><ele>925.0</ele><time>2026-04-25T10:46:51.926Z</time></trkpt><trkpt lat="43.6058517" lon="11.7210289"><ele>925.0</ele><time>2026-04-25T10:46:53.924Z</time></trkpt><trkpt lat="43.6058552" lon="11.7209176"><ele>925.0</ele><time>2026-04-25T10:46:55.918Z</time></trkpt><trkpt lat="43.6059204" lon="11.7208516"><ele>924.9999999999999</ele><time>2026-04-25T10:46:57.923Z</time></trkpt><trkpt lat="43.6060143" lon="11.7207916"><ele>925.0</ele><time>2026-04-25T10:46:59.922Z</time></trkpt><trkpt lat="43.6060962" lon="11.7207471"><ele>925.0</ele><time>2026-04-25T10:47:00.917Z</time></trkpt><trkpt lat="43.6061827" lon="11.7207063"><ele>925.0</ele><time>2026-04-25T10:47:01.93Z</time></trkpt><trkpt lat="43.6062491" lon="11.7206712"><ele>925.0</ele><time>2026-04-25T10:47:02.926Z</time></trkpt><trkpt lat="43.606303" lon="11.7206218"><ele>925.0</ele><time>2026-04-25T10:47:03.936Z</time></trkpt><trkpt lat="43.6063611" lon="11.7205641"><ele>925.0</ele><time>2026-04-25T10:47:04.919Z</time></trkpt><trkpt lat="43.6064177" lon="11.7205087"><ele>925.0</ele><time>2026-04-25T10:47:05.919Z</time></trkpt><trkpt lat="43.6064648" lon="11.7204448"><ele>925.0</ele><time>2026-04-25T10:47:06.932Z</time></trkpt><trkpt lat="43.606511" lon="11.7203723"><ele>925.0</ele><time>2026-04-25T10:47:07.926Z</time></trkpt><trkpt lat="43.606536" lon="11.7202888"><ele>925.0</ele><time>2026-04-25T10:47:08.91Z</time></trkpt><trkpt lat="43.6065635" lon="11.7202052"><ele>925.0</ele><time>2026-04-25T10:47:09.916Z</time></trkpt><trkpt lat="43.6066396" lon="11.7200734"><ele>925.0</ele><time>2026-04-25T10:47:11.935Z</time></trkpt><trkpt lat="43.606728" lon="11.719947"><ele>925.0</ele><time>2026-04-25T10:47:13.925Z</time></trkpt><trkpt lat="43.6067906" lon="11.7198135"><ele>926.8</ele><time>2026-04-25T10:47:15.917Z</time></trkpt><trkpt lat="43.6068334" lon="11.7196636"><ele>928.6</ele><time>2026-04-25T10:47:17.921Z</time></trkpt><trkpt lat="43.6068728" lon="11.7195135"><ele>930.4000000000001</ele><time>2026-04-25T10:47:19.918Z</time></trkpt><trkpt lat="43.6068811" lon="11.7193626"><ele>932.2</ele><time>2026-04-25T10:47:21.917Z</time></trkpt><trkpt lat="43.6068943" lon="11.7192228"><ele>934.0</ele><time>2026-04-25T10:47:23.916Z</time></trkpt><trkpt lat="43.6068884" lon="11.7190844"><ele>934.2857142857142</ele><time>2026-04-25T10:47:25.919Z</time></trkpt><trkpt lat="43.6068958" lon="11.7189926"><ele>934.5714285714286</ele><time>2026-04-25T10:47:26.918Z</time></trkpt><trkpt lat="43.6069203" lon="11.7189099"><ele>934.8571428571429</ele><time>2026-04-25T10:47:27.915Z</time></trkpt><trkpt lat="43.6069455" lon="11.7188256"><ele>935.1428571428571</ele><time>2026-04-25T10:47:28.922Z</time></trkpt><trkpt lat="43.6069756" lon="11.7187277"><ele>935.4285714285716</ele><time>2026-04-25T10:47:29.921Z</time></trkpt><trkpt lat="43.6070137" lon="11.7186426"><ele>935.7142857142858</ele><time>2026-04-25T10:47:30.921Z</time></trkpt><trkpt lat="43.6070608" lon="11.7185777"><ele>936.0</ele><time>2026-04-25T10:47:31.927Z</time></trkpt><trkpt lat="43.6071268" lon="11.7184881"><ele>932.5</ele><time>2026-04-25T10:47:33.906Z</time></trkpt><trkpt lat="43.6071507" lon="11.7184057"><ele>929.0</ele><time>2026-04-25T10:47:36.913Z</time></trkpt><trkpt lat="43.6072117" lon="11.7183631"><ele>925.5</ele><time>2026-04-25T10:49:25.917Z</time></trkpt><trkpt lat="43.6071483" lon="11.7183704"><ele>922.0</ele><time>2026-04-25T10:51:25.92Z</time></trkpt><trkpt lat="43.6071422" lon="11.7182596"><ele>918.5</ele><time>2026-04-25T10:52:55.912Z</time></trkpt><trkpt lat="43.6071765" lon="11.7181222"><ele>915.0</ele><time>2026-04-25T10:52:58.916Z</time></trkpt><trkpt lat="43.607188" lon="11.7180021"><ele>915.0</ele><time>2026-04-25T10:52:59.922Z</time></trkpt><trkpt lat="43.6072042" lon="11.7179158"><ele>915.0</ele><time>2026-04-25T10:53:00.918Z</time></trkpt><trkpt lat="43.6072212" lon="11.7178275"><ele>915.0</ele><time>2026-04-25T10:53:01.919Z</time></trkpt><trkpt lat="43.60726" lon="11.7177287"><ele>915.0</ele><time>2026-04-25T10:53:03.911Z</time></trkpt><trkpt lat="43.6072661" lon="11.7176145"><ele>915.0</ele><time>2026-04-25T10:53:06.923Z</time></trkpt><trkpt lat="43.6072783" lon="11.7175113"><ele>915.0</ele><time>2026-04-25T10:53:09.924Z</time></trkpt><trkpt lat="43.6073274" lon="11.7174174"><ele>916.6666666666666</ele><time>2026-04-25T10:53:12.912Z</time></trkpt><trkpt lat="43.6073785" lon="11.7173613"><ele>918.3333333333333</ele><time>2026-04-25T10:53:15.916Z</time></trkpt><trkpt lat="43.6074415" lon="11.7174181"><ele>920.0</ele><time>2026-04-25T10:53:20.914Z</time></trkpt><trkpt lat="43.607486" lon="11.7175049"><ele>921.6666666666666</ele><time>2026-04-25T10:53:22.924Z</time></trkpt><trkpt lat="43.6075509" lon="11.7175728"><ele>923.3333333333333</ele><time>2026-04-25T10:53:24.917Z</time></trkpt><trkpt lat="43.6076298" lon="11.7176039"><ele>925.0</ele><time>2026-04-25T10:53:26.917Z</time></trkpt><trkpt lat="43.6077063" lon="11.7176523"><ele>924.9999999999999</ele><time>2026-04-25T10:53:28.914Z</time></trkpt><trkpt lat="43.607778" lon="11.7176917"><ele>925.0</ele><time>2026-04-25T10:53:29.928Z</time></trkpt><trkpt lat="43.6078767" lon="11.7176877"><ele>925.0</ele><time>2026-04-25T10:53:31.914Z</time></trkpt><trkpt lat="43.6079427" lon="11.7176044"><ele>925.0</ele><time>2026-04-25T10:53:33.916Z</time></trkpt><trkpt lat="43.6080138" lon="11.7175525"><ele>924.9999999999999</ele><time>2026-04-25T10:53:35.927Z</time></trkpt><trkpt lat="43.6080911" lon="11.7174893"><ele>925.0</ele><time>2026-04-25T10:53:37.927Z</time></trkpt><trkpt lat="43.6081643" lon="11.717435"><ele>925.1666666666666</ele><time>2026-04-25T10:53:39.927Z</time></trkpt><trkpt lat="43.6082558" lon="11.7173917"><ele>925.3333333333333</ele><time>2026-04-25T10:53:41.925Z</time></trkpt><trkpt lat="43.6083122" lon="11.717351"><ele>925.5</ele><time>2026-04-25T10:53:42.916Z</time></trkpt><trkpt lat="43.6083707" lon="11.71731"><ele>925.6666666666667</ele><time>2026-04-25T10:53:43.918Z</time></trkpt><trkpt lat="43.6084783" lon="11.7172282"><ele>925.8333333333334</ele><time>2026-04-25T10:53:45.928Z</time></trkpt><trkpt lat="43.6085421" lon="11.7171875"><ele>926.0</ele><time>2026-04-25T10:53:46.922Z</time></trkpt><trkpt lat="43.6086569" lon="11.7171998"><ele>926.4285714285713</ele><time>2026-04-25T10:53:48.921Z</time></trkpt><trkpt lat="43.6087277" lon="11.7172192"><ele>926.8571428571428</ele><time>2026-04-25T10:53:49.916Z</time></trkpt><trkpt lat="43.6087941" lon="11.7172378"><ele>927.2857142857142</ele><time>2026-04-25T10:53:50.932Z</time></trkpt><trkpt lat="43.6088625" lon="11.7172765"><ele>927.7142857142858</ele><time>2026-04-25T10:53:51.922Z</time></trkpt><trkpt lat="43.6089246" lon="11.7173199"><ele>928.1428571428572</ele><time>2026-04-25T10:53:52.923Z</time></trkpt><trkpt lat="43.6089843" lon="11.7173497"><ele>928.5714285714287</ele><time>2026-04-25T10:53:53.923Z</time></trkpt><trkpt lat="43.609084" lon="11.7173428"><ele>929.0</ele><time>2026-04-25T10:53:55.925Z</time></trkpt><trkpt lat="43.6091786" lon="11.7172841"><ele>929.0000000000001</ele><time>2026-04-25T10:53:57.92Z</time></trkpt><trkpt lat="43.6092717" lon="11.7172126"><ele>929.0</ele><time>2026-04-25T10:53:59.92Z</time></trkpt><trkpt lat="43.6093483" lon="11.7171415"><ele>929.0</ele><time>2026-04-25T10:54:01.927Z</time></trkpt><trkpt lat="43.6094351" lon="11.7170904"><ele>929.0</ele><time>2026-04-25T10:54:03.92Z</time></trkpt><trkpt lat="43.6095123" lon="11.717056"><ele>929.0000000000001</ele><time>2026-04-25T10:54:05.924Z</time></trkpt><trkpt lat="43.609578" lon="11.7170092"><ele>929.0</ele><time>2026-04-25T10:54:07.927Z</time></trkpt><trkpt lat="43.6096487" lon="11.7169484"><ele>928.5000000000001</ele><time>2026-04-25T10:54:09.916Z</time></trkpt><trkpt lat="43.609735" lon="11.716893"><ele>928.0</ele><time>2026-04-25T10:54:11.918Z</time></trkpt><trkpt lat="43.6097952" lon="11.7168107"><ele>927.5</ele><time>2026-04-25T10:54:13.933Z</time></trkpt><trkpt lat="43.6098542" lon="11.7167463"><ele>927.0</ele><time>2026-04-25T10:54:16.921Z</time></trkpt><trkpt lat="43.6098282" lon="11.7168262"><ele>926.5000000000001</ele><time>2026-04-25T10:54:50.922Z</time></trkpt><trkpt lat="43.6097623" lon="11.7168946"><ele>926.0</ele><time>2026-04-25T10:54:52.915Z</time></trkpt><trkpt lat="43.6096805" lon="11.716966"><ele>926.0</ele><time>2026-04-25T10:54:54.919Z</time></trkpt><trkpt lat="43.6096195" lon="11.7170104"><ele>925.9999999999999</ele><time>2026-04-25T10:54:55.921Z</time></trkpt><trkpt lat="43.6095206" lon="11.7170911"><ele>925.9999999999999</ele><time>2026-04-25T10:54:57.922Z</time></trkpt><trkpt lat="43.6094237" lon="11.7171545"><ele>926.0</ele><time>2026-04-25T10:54:59.918Z</time></trkpt><trkpt lat="43.6093212" lon="11.7172114"><ele>926.0</ele><time>2026-04-25T10:55:01.925Z</time></trkpt><trkpt lat="43.6092223" lon="11.7172762"><ele>926.5000000000001</ele><time>2026-04-25T10:55:03.91Z</time></trkpt><trkpt lat="43.6091245" lon="11.7173085"><ele>927.0</ele><time>2026-04-25T10:55:05.916Z</time></trkpt><trkpt lat="43.6090549" lon="11.7173218"><ele>927.5</ele><time>2026-04-25T10:55:07.922Z</time></trkpt><trkpt lat="43.6089709" lon="11.7173117"><ele>928.0</ele><time>2026-04-25T10:55:09.918Z</time></trkpt><trkpt lat="43.6088796" lon="11.7172552"><ele>928.5000000000001</ele><time>2026-04-25T10:55:11.922Z</time></trkpt><trkpt lat="43.6088179" lon="11.7172351"><ele>929.0</ele><time>2026-04-25T10:55:12.916Z</time></trkpt><trkpt lat="43.6087469" lon="11.7172225"><ele>929.0</ele><time>2026-04-25T10:55:13.926Z</time></trkpt><trkpt lat="43.608677" lon="11.7172083"><ele>929.0000000000001</ele><time>2026-04-25T10:55:14.918Z</time></trkpt><trkpt lat="43.608589" lon="11.7172226"><ele>929.0000000000001</ele><time>2026-04-25T10:55:16.931Z</time></trkpt><trkpt lat="43.6084938" lon="11.7172883"><ele>929.0</ele><time>2026-04-25T10:55:18.92Z</time></trkpt><trkpt lat="43.6083828" lon="11.7173597"><ele>929.0</ele><time>2026-04-25T10:55:20.924Z</time></trkpt><trkpt lat="43.6082755" lon="11.7174141"><ele>928.4000000000001</ele><time>2026-04-25T10:55:22.915Z</time></trkpt><trkpt lat="43.6081888" lon="11.7174889"><ele>927.8000000000001</ele><time>2026-04-25T10:55:24.916Z</time></trkpt><trkpt lat="43.6081121" lon="11.7175454"><ele>927.1999999999999</ele><time>2026-04-25T10:55:26.918Z</time></trkpt><trkpt lat="43.6080328" lon="11.7176041"><ele>926.5999999999999</ele><time>2026-04-25T10:55:28.921Z</time></trkpt><trkpt lat="43.60794" lon="11.7176837"><ele>926.0</ele><time>2026-04-25T10:55:30.911Z</time></trkpt><trkpt lat="43.6078325" lon="11.7177353"><ele>925.8</ele><time>2026-04-25T10:55:32.92Z</time></trkpt><trkpt lat="43.607713" lon="11.7177165"><ele>925.5999999999999</ele><time>2026-04-25T10:55:34.912Z</time></trkpt><trkpt lat="43.6076117" lon="11.7176828"><ele>925.4</ele><time>2026-04-25T10:55:36.923Z</time></trkpt><trkpt lat="43.6075284" lon="11.7176735"><ele>925.2</ele><time>2026-04-25T10:55:38.915Z</time></trkpt><trkpt lat="43.6074681" lon="11.7176175"><ele>925.0</ele><time>2026-04-25T10:55:40.921Z</time></trkpt><trkpt lat="43.6074225" lon="11.7175311"><ele>924.9999999999999</ele><time>2026-04-25T10:55:42.922Z</time></trkpt><trkpt lat="43.6073856" lon="11.7174536"><ele>925.0</ele><time>2026-04-25T10:55:44.917Z</time></trkpt><trkpt lat="43.607322" lon="11.7174369"><ele>925.0</ele><time>2026-04-25T10:55:48.916Z</time></trkpt><trkpt lat="43.6073196" lon="11.7175391"><ele>925.0</ele><time>2026-04-25T10:55:51.925Z</time></trkpt><trkpt lat="43.6073467" lon="11.7176753"><ele>924.9999999999999</ele><time>2026-04-25T10:55:54.923Z</time></trkpt><trkpt lat="43.6073393" lon="11.7177853"><ele>925.0</ele><time>2026-04-25T10:55:56.906Z</time></trkpt><trkpt lat="43.6073116" lon="11.7179389"><ele>923.0</ele><time>2026-04-25T10:55:58.921Z</time></trkpt><trkpt lat="43.607253" lon="11.7180706"><ele>921.0</ele><time>2026-04-25T10:56:00.915Z</time></trkpt><trkpt lat="43.6072051" lon="11.7182184"><ele>919.0</ele><time>2026-04-25T10:56:02.923Z</time></trkpt><trkpt lat="43.6072088" lon="11.7183424"><ele>917.0</ele><time>2026-04-25T10:56:04.914Z</time></trkpt><trkpt lat="43.6071837" lon="11.7184667"><ele>915.0</ele><time>2026-04-25T10:56:06.905Z</time></trkpt><trkpt lat="43.607139" lon="11.7185536"><ele>913.6666666666666</ele><time>2026-04-25T10:56:08.914Z</time></trkpt><trkpt lat="43.6070802" lon="11.7186829"><ele>912.3333333333333</ele><time>2026-04-25T10:56:10.916Z</time></trkpt><trkpt lat="43.6070487" lon="11.7187646"><ele>911.0</ele><time>2026-04-25T10:56:11.917Z</time></trkpt><trkpt lat="43.6070285" lon="11.718855"><ele>909.6666666666666</ele><time>2026-04-25T10:56:12.917Z</time></trkpt><trkpt lat="43.6069776" lon="11.7190331"><ele>908.3333333333333</ele><time>2026-04-25T10:56:14.924Z</time></trkpt><trkpt lat="43.6069574" lon="11.7191169"><ele>907.0</ele><time>2026-04-25T10:56:15.921Z</time></trkpt><trkpt lat="43.6069459" lon="11.7192653"><ele>911.4999999999999</ele><time>2026-04-25T10:56:17.918Z</time></trkpt><trkpt lat="43.6069419" lon="11.7194334"><ele>916.0</ele><time>2026-04-25T10:56:19.913Z</time></trkpt><trkpt lat="43.6069367" lon="11.7195315"><ele>920.5</ele><time>2026-04-25T10:56:20.919Z</time></trkpt><trkpt lat="43.606923" lon="11.7196333"><ele>925.0</ele><time>2026-04-25T10:56:21.917Z</time></trkpt><trkpt lat="43.6069033" lon="11.7197223"><ele>929.4999999999999</ele><time>2026-04-25T10:56:22.932Z</time></trkpt><trkpt lat="43.6068845" lon="11.7198106"><ele>934.0</ele><time>2026-04-25T10:56:23.921Z</time></trkpt><trkpt lat="43.6068572" lon="11.7199009"><ele>933.9999999999999</ele><time>2026-04-25T10:56:24.915Z</time></trkpt><trkpt lat="43.6068183" lon="11.7199825"><ele>934.0</ele><time>2026-04-25T10:56:25.91Z</time></trkpt><trkpt lat="43.6067565" lon="11.7200658"><ele>934.0</ele><time>2026-04-25T10:56:26.909Z</time></trkpt><trkpt lat="43.6066899" lon="11.7201287"><ele>934.0</ele><time>2026-04-25T10:56:27.916Z</time></trkpt><trkpt lat="43.6066264" lon="11.7202089"><ele>933.9999999999999</ele><time>2026-04-25T10:56:28.929Z</time></trkpt><trkpt lat="43.6065909" lon="11.7203048"><ele>934.0</ele><time>2026-04-25T10:56:29.909Z</time></trkpt><trkpt lat="43.6065729" lon="11.7203971"><ele>932.2</ele><time>2026-04-25T10:56:30.919Z</time></trkpt><trkpt lat="43.6065233" lon="11.7204749"><ele>930.4000000000001</ele><time>2026-04-25T10:56:31.916Z</time></trkpt><trkpt lat="43.6064104" lon="11.7205879"><ele>928.6</ele><time>2026-04-25T10:56:33.927Z</time></trkpt><trkpt lat="43.6063411" lon="11.7206408"><ele>926.8</ele><time>2026-04-25T10:56:34.916Z</time></trkpt><trkpt lat="43.606272" lon="11.7206823"><ele>925.0</ele><time>2026-04-25T10:56:35.916Z</time></trkpt><trkpt lat="43.6061973" lon="11.7207325"><ele>924.9999999999999</ele><time>2026-04-25T10:56:36.92Z</time></trkpt><trkpt lat="43.6061195" lon="11.7207863"><ele>925.0</ele><time>2026-04-25T10:56:37.928Z</time></trkpt><trkpt lat="43.6060383" lon="11.7208367"><ele>925.0</ele><time>2026-04-25T10:56:38.915Z</time></trkpt><trkpt lat="43.6059524" lon="11.7208906"><ele>925.0</ele><time>2026-04-25T10:56:39.921Z</time></trkpt><trkpt lat="43.6058911" lon="11.7209444"><ele>924.9999999999999</ele><time>2026-04-25T10:56:40.908Z</time></trkpt><trkpt lat="43.6058787" lon="11.7210478"><ele>925.0</ele><time>2026-04-25T10:56:42.929Z</time></trkpt><trkpt lat="43.605863" lon="11.7211665"><ele>924.9999999999999</ele><time>2026-04-25T10:56:44.916Z</time></trkpt><trkpt lat="43.6057576" lon="11.7212318"><ele>925.0</ele><time>2026-04-25T10:56:46.909Z</time></trkpt><trkpt lat="43.6056469" lon="11.7212807"><ele>925.0</ele><time>2026-04-25T10:56:48.908Z</time></trkpt><trkpt lat="43.6056068" lon="11.7213503"><ele>925.0</ele><time>2026-04-25T10:56:49.908Z</time></trkpt><trkpt lat="43.6055595" lon="11.7214272"><ele>924.9999999999999</ele><time>2026-04-25T10:56:50.914Z</time></trkpt><trkpt lat="43.6055115" lon="11.721502"><ele>925.0</ele><time>2026-04-25T10:56:51.917Z</time></trkpt><trkpt lat="43.6054484" lon="11.721588"><ele>924.9999999999999</ele><time>2026-04-25T10:56:52.917Z</time></trkpt><trkpt lat="43.605383" lon="11.7216981"><ele>925.0</ele><time>2026-04-25T10:56:53.915Z</time></trkpt><trkpt lat="43.6053193" lon="11.7218136"><ele>925.0</ele><time>2026-04-25T10:56:54.92Z</time></trkpt><trkpt lat="43.6052943" lon="11.7219198"><ele>925.0</ele><time>2026-04-25T10:56:55.922Z</time></trkpt><trkpt lat="43.6052732" lon="11.7220089"><ele>924.9999999999999</ele><time>2026-04-25T10:56:56.912Z</time></trkpt><trkpt lat="43.6052232" lon="11.7221063"><ele>925.0</ele><time>2026-04-25T10:56:57.934Z</time></trkpt><trkpt lat="43.605153" lon="11.7221945"><ele>925.0</ele><time>2026-04-25T10:56:58.915Z</time></trkpt><trkpt lat="43.6050724" lon="11.722301"><ele>925.0</ele><time>2026-04-25T10:56:59.919Z</time></trkpt><trkpt lat="43.6049919" lon="11.7224377"><ele>925.0</ele><time>2026-04-25T10:57:00.923Z</time></trkpt><trkpt lat="43.6049048" lon="11.7225654"><ele>925.0</ele><time>2026-04-25T10:57:01.931Z</time></trkpt><trkpt lat="43.6048275" lon="11.7226697"><ele>925.0</ele><time>2026-04-25T10:57:02.914Z</time></trkpt><trkpt lat="43.604735" lon="11.722758"><ele>925.0</ele><time>2026-04-25T10:57:03.905Z</time></trkpt><trkpt lat="43.6046474" lon="11.7228289"><ele>925.0</ele><time>2026-04-25T10:57:04.906Z</time></trkpt><trkpt lat="43.6045689" lon="11.7228946"><ele>925.0</ele><time>2026-04-25T10:57:05.908Z</time></trkpt><trkpt lat="43.604505" lon="11.7229674"><ele>925.0</ele><time>2026-04-25T10:57:06.924Z</time></trkpt><trkpt lat="43.6044481" lon="11.7230318"><ele>925.0</ele><time>2026-04-25T10:57:07.929Z</time></trkpt><trkpt lat="43.6043356" lon="11.7231033"><ele>925.0</ele><time>2026-04-25T10:57:09.904Z</time></trkpt><trkpt lat="43.6042569" lon="11.7231026"><ele>925.0</ele><time>2026-04-25T10:57:10.916Z</time></trkpt><trkpt lat="43.6041557" lon="11.7231318"><ele>925.0</ele><time>2026-04-25T10:57:12.915Z</time></trkpt><trkpt lat="43.6041439" lon="11.723275"><ele>925.0</ele><time>2026-04-25T10:57:14.92Z</time></trkpt><trkpt lat="43.6041834" lon="11.723446"><ele>925.0</ele><time>2026-04-25T10:57:16.923Z</time></trkpt><trkpt lat="43.6042171" lon="11.7235553"><ele>925.0</ele><time>2026-04-25T10:57:17.911Z</time></trkpt><trkpt lat="43.6042623" lon="11.7236713"><ele>925.0</ele><time>2026-04-25T10:57:18.915Z</time></trkpt><trkpt lat="43.6042946" lon="11.7237934"><ele>925.0</ele><time>2026-04-25T10:57:19.91Z</time></trkpt><trkpt lat="43.6043266" lon="11.7239089"><ele>925.0</ele><time>2026-04-25T10:57:20.91Z</time></trkpt><trkpt lat="43.6043585" lon="11.7240173"><ele>924.9999999999999</ele><time>2026-04-25T10:57:21.915Z</time></trkpt><trkpt lat="43.6043913" lon="11.7241152"><ele>925.0</ele><time>2026-04-25T10:57:22.918Z</time></trkpt><trkpt lat="43.604416" lon="11.7242218"><ele>925.0</ele><time>2026-04-25T10:57:23.922Z</time></trkpt><trkpt lat="43.6044199" lon="11.72432"><ele>925.0</ele><time>2026-04-25T10:57:24.906Z</time></trkpt><trkpt lat="43.6044169" lon="11.7244166"><ele>924.9999999999999</ele><time>2026-04-25T10:57:25.917Z</time></trkpt><trkpt lat="43.6044002" lon="11.7245195"><ele>925.0</ele><time>2026-04-25T10:57:26.919Z</time></trkpt><trkpt lat="43.6043809" lon="11.7246304"><ele>925.0</ele><time>2026-04-25T10:57:27.919Z</time></trkpt><trkpt lat="43.6043879" lon="11.7247482"><ele>925.0</ele><time>2026-04-25T10:57:28.916Z</time></trkpt><trkpt lat="43.6044244" lon="11.7248726"><ele>925.0</ele><time>2026-04-25T10:57:29.928Z</time></trkpt><trkpt lat="43.6044661" lon="11.7250064"><ele>925.0</ele><time>2026-04-25T10:57:30.923Z</time></trkpt><trkpt lat="43.6045091" lon="11.7251542"><ele>925.0</ele><time>2026-04-25T10:57:31.922Z</time></trkpt><trkpt lat="43.6045469" lon="11.7253023"><ele>917.25</ele><time>2026-04-25T10:57:32.93Z</time></trkpt><trkpt lat="43.6046016" lon="11.7254801"><ele>909.5</ele><time>2026-04-25T10:57:33.92Z</time></trkpt><trkpt lat="43.604657" lon="11.7256459"><ele>901.75</ele><time>2026-04-25T10:57:34.929Z</time></trkpt><trkpt lat="43.6047209" lon="11.725794"><ele>894.0</ele><time>2026-04-25T10:57:35.919Z</time></trkpt><trkpt lat="43.6047837" lon="11.7259101"><ele>894.0</ele><time>2026-04-25T10:57:36.921Z</time></trkpt><trkpt lat="43.6048277" lon="11.7260028"><ele>894.0</ele><time>2026-04-25T10:57:37.906Z</time></trkpt><trkpt lat="43.6048585" lon="11.7260849"><ele>894.0</ele><time>2026-04-25T10:57:38.914Z</time></trkpt><trkpt lat="43.6048817" lon="11.7261851"><ele>894.0</ele><time>2026-04-25T10:57:39.926Z</time></trkpt><trkpt lat="43.6049061" lon="11.7262775"><ele>894.0</ele><time>2026-04-25T10:57:40.917Z</time></trkpt><trkpt lat="43.604943" lon="11.7264207"><ele>894.0</ele><time>2026-04-25T10:57:42.923Z</time></trkpt><trkpt lat="43.6049713" lon="11.7265088"><ele>893.8333333333334</ele><time>2026-04-25T10:59:04.923Z</time></trkpt><trkpt lat="43.6050189" lon="11.72666"><ele>893.6666666666667</ele><time>2026-04-25T10:59:06.922Z</time></trkpt><trkpt lat="43.6050534" lon="11.7267533"><ele>893.5</ele><time>2026-04-25T10:59:07.923Z</time></trkpt><trkpt lat="43.6050885" lon="11.7268394"><ele>893.3333333333334</ele><time>2026-04-25T10:59:08.923Z</time></trkpt><trkpt lat="43.6051216" lon="11.7269343"><ele>893.1666666666667</ele><time>2026-04-25T10:59:09.918Z</time></trkpt><trkpt lat="43.6051365" lon="11.7270234"><ele>893.0</ele><time>2026-04-25T10:59:10.927Z</time></trkpt><trkpt lat="43.6051271" lon="11.7271919"><ele>893.0000000000001</ele><time>2026-04-25T10:59:12.914Z</time></trkpt><trkpt lat="43.6050347" lon="11.7273061"><ele>893.0</ele><time>2026-04-25T10:59:14.925Z</time></trkpt><trkpt lat="43.6049753" lon="11.7273469"><ele>893.0</ele><time>2026-04-25T10:59:15.916Z</time></trkpt><trkpt lat="43.6049126" lon="11.7273693"><ele>893.0</ele><time>2026-04-25T10:59:16.912Z</time></trkpt><trkpt lat="43.6048453" lon="11.7273764"><ele>893.0000000000001</ele><time>2026-04-25T10:59:17.922Z</time></trkpt><trkpt lat="43.6047742" lon="11.7273677"><ele>893.0</ele><time>2026-04-25T10:59:18.908Z</time></trkpt><trkpt lat="43.6047119" lon="11.7273483"><ele>893.0</ele><time>2026-04-25T10:59:19.922Z</time></trkpt><trkpt lat="43.6045897" lon="11.7273853"><ele>893.0</ele><time>2026-04-25T10:59:21.921Z</time></trkpt><trkpt lat="43.6045321" lon="11.7274308"><ele>893.0</ele><time>2026-04-25T10:59:22.908Z</time></trkpt><trkpt lat="43.6044545" lon="11.727487"><ele>893.0</ele><time>2026-04-25T10:59:23.922Z</time></trkpt><trkpt lat="43.6043809" lon="11.7275534"><ele>893.0</ele><time>2026-04-25T10:59:24.925Z</time></trkpt><trkpt lat="43.6043075" lon="11.7276312"><ele>893.8333333333334</ele><time>2026-04-25T10:59:25.911Z</time></trkpt><trkpt lat="43.6042467" lon="11.7277142"><ele>894.6666666666667</ele><time>2026-04-25T10:59:26.917Z</time></trkpt><trkpt lat="43.6041984" lon="11.7278075"><ele>895.5</ele><time>2026-04-25T10:59:27.915Z</time></trkpt><trkpt lat="43.6041532" lon="11.7279032"><ele>896.3333333333333</ele><time>2026-04-25T10:59:28.91Z</time></trkpt><trkpt lat="43.6041109" lon="11.7279994"><ele>897.1666666666666</ele><time>2026-04-25T10:59:29.93Z</time></trkpt><trkpt lat="43.6040587" lon="11.7281002"><ele>898.0</ele><time>2026-04-25T10:59:30.929Z</time></trkpt><trkpt lat="43.604002" lon="11.7281881"><ele>894.8333333333333</ele><time>2026-04-25T10:59:31.921Z</time></trkpt><trkpt lat="43.6039478" lon="11.7282791"><ele>891.6666666666666</ele><time>2026-04-25T10:59:32.92Z</time></trkpt><trkpt lat="43.6038946" lon="11.7283649"><ele>888.5</ele><time>2026-04-25T10:59:33.921Z</time></trkpt><trkpt lat="43.6038548" lon="11.7284671"><ele>885.3333333333333</ele><time>2026-04-25T10:59:34.914Z</time></trkpt><trkpt lat="43.6038207" lon="11.7285726"><ele>882.1666666666666</ele><time>2026-04-25T10:59:35.921Z</time></trkpt><trkpt lat="43.6037811" lon="11.7286866"><ele>879.0</ele><time>2026-04-25T10:59:36.93Z</time></trkpt><trkpt lat="43.603738" lon="11.7287885"><ele>877.1666666666666</ele><time>2026-04-25T10:59:37.913Z</time></trkpt><trkpt lat="43.6036936" lon="11.7288905"><ele>875.3333333333333</ele><time>2026-04-25T10:59:38.926Z</time></trkpt><trkpt lat="43.6036391" lon="11.7289478"><ele>873.5</ele><time>2026-04-25T10:59:39.916Z</time></trkpt><trkpt lat="43.6035627" lon="11.7289684"><ele>871.6666666666666</ele><time>2026-04-25T10:59:40.916Z</time></trkpt><trkpt lat="43.6034882" lon="11.7289831"><ele>869.8333333333333</ele><time>2026-04-25T10:59:41.924Z</time></trkpt><trkpt lat="43.603412" lon="11.728973"><ele>868.0</ele><time>2026-04-25T10:59:42.912Z</time></trkpt><trkpt lat="43.6033407" lon="11.7289695"><ele>866.8</ele><time>2026-04-25T10:59:43.932Z</time></trkpt><trkpt lat="43.6032573" lon="11.7289498"><ele>865.5999999999999</ele><time>2026-04-25T10:59:44.908Z</time></trkpt><trkpt lat="43.6031635" lon="11.7289212"><ele>864.4000000000001</ele><time>2026-04-25T10:59:45.91Z</time></trkpt><trkpt lat="43.6030568" lon="11.7289028"><ele>863.2</ele><time>2026-04-25T10:59:46.92Z</time></trkpt><trkpt lat="43.6029359" lon="11.7288838"><ele>862.0</ele><time>2026-04-25T10:59:47.919Z</time></trkpt><trkpt lat="43.602814" lon="11.728872"><ele>861.9999999999999</ele><time>2026-04-25T10:59:48.917Z</time></trkpt><trkpt lat="43.602703" lon="11.7288701"><ele>862.0</ele><time>2026-04-25T10:59:49.914Z</time></trkpt><trkpt lat="43.6026135" lon="11.7288665"><ele>862.0</ele><time>2026-04-25T10:59:50.913Z</time></trkpt><trkpt lat="43.6025456" lon="11.7288595"><ele>862.0</ele><time>2026-04-25T10:59:51.912Z</time></trkpt><trkpt lat="43.6024783" lon="11.7288358"><ele>861.9999999999999</ele><time>2026-04-25T10:59:52.912Z</time></trkpt><trkpt lat="43.6024178" lon="11.7287924"><ele>862.0</ele><time>2026-04-25T10:59:53.908Z</time></trkpt><trkpt lat="43.602379" lon="11.7287239"><ele>861.9999999999999</ele><time>2026-04-25T10:59:54.913Z</time></trkpt><trkpt lat="43.6023467" lon="11.7286433"><ele>862.0</ele><time>2026-04-25T10:59:55.916Z</time></trkpt><trkpt lat="43.6022811" lon="11.728554"><ele>862.0</ele><time>2026-04-25T10:59:57.928Z</time></trkpt><trkpt lat="43.6022738" lon="11.7286433"><ele>862.0</ele><time>2026-04-25T11:00:00.912Z</time></trkpt><trkpt lat="43.6022894" lon="11.7287288"><ele>861.9999999999999</ele><time>2026-04-25T11:00:01.913Z</time></trkpt><trkpt lat="43.602313" lon="11.7288228"><ele>862.0</ele><time>2026-04-25T11:00:02.914Z</time></trkpt><trkpt lat="43.6023388" lon="11.7289439"><ele>861.9999999999999</ele><time>2026-04-25T11:00:03.918Z</time></trkpt><trkpt lat="43.6023648" lon="11.729082"><ele>862.0</ele><time>2026-04-25T11:00:04.934Z</time></trkpt><trkpt lat="43.6023915" lon="11.7291988"><ele>862.0</ele><time>2026-04-25T11:00:05.909Z</time></trkpt><trkpt lat="43.6024231" lon="11.7292976"><ele>862.0</ele><time>2026-04-25T11:00:06.912Z</time></trkpt><trkpt lat="43.6024711" lon="11.7293736"><ele>861.9999999999999</ele><time>2026-04-25T11:00:07.918Z</time></trkpt><trkpt lat="43.6025402" lon="11.7294299"><ele>862.0</ele><time>2026-04-25T11:00:08.912Z</time></trkpt><trkpt lat="43.6026138" lon="11.7294846"><ele>861.8333333333333</ele><time>2026-04-25T11:00:09.921Z</time></trkpt><trkpt lat="43.6026898" lon="11.7295292"><ele>861.6666666666666</ele><time>2026-04-25T11:00:10.92Z</time></trkpt><trkpt lat="43.6027556" lon="11.7295588"><ele>861.5</ele><time>2026-04-25T11:00:11.909Z</time></trkpt><trkpt lat="43.6028061" lon="11.7296535"><ele>861.3333333333333</ele><time>2026-04-25T11:00:13.929Z</time></trkpt><trkpt lat="43.602825" lon="11.7297373"><ele>861.1666666666666</ele><time>2026-04-25T11:00:14.909Z</time></trkpt><trkpt lat="43.6028235" lon="11.7298346"><ele>861.0</ele><time>2026-04-25T11:00:15.92Z</time></trkpt><trkpt lat="43.6028216" lon="11.729966"><ele>861.0</ele><time>2026-04-25T11:00:16.916Z</time></trkpt><trkpt lat="43.602809" lon="11.7301235"><ele>860.9999999999999</ele><time>2026-04-25T11:00:17.919Z</time></trkpt><trkpt lat="43.6027955" lon="11.7302598"><ele>860.9999999999999</ele><time>2026-04-25T11:00:18.923Z</time></trkpt><trkpt lat="43.6027752" lon="11.7303839"><ele>861.0</ele><time>2026-04-25T11:00:19.93Z</time></trkpt><trkpt lat="43.6027584" lon="11.7304975"><ele>861.0</ele><time>2026-04-25T11:00:20.921Z</time></trkpt><trkpt lat="43.6027307" lon="11.730599"><ele>859.1999999999999</ele><time>2026-04-25T11:00:21.934Z</time></trkpt><trkpt lat="43.602695" lon="11.730697"><ele>857.3999999999999</ele><time>2026-04-25T11:00:22.906Z</time></trkpt><trkpt lat="43.6026355" lon="11.7307927"><ele>855.6</ele><time>2026-04-25T11:00:23.934Z</time></trkpt><trkpt lat="43.6025682" lon="11.7308832"><ele>853.8</ele><time>2026-04-25T11:00:24.913Z</time></trkpt><trkpt lat="43.6024882" lon="11.7309703"><ele>852.0</ele><time>2026-04-25T11:00:25.917Z</time></trkpt><trkpt lat="43.6023989" lon="11.7310579"><ele>852.5</ele><time>2026-04-25T11:00:26.912Z</time></trkpt><trkpt lat="43.6023037" lon="11.7311401"><ele>853.0</ele><time>2026-04-25T11:00:27.917Z</time></trkpt><trkpt lat="43.6021951" lon="11.731206"><ele>853.5</ele><time>2026-04-25T11:00:28.917Z</time></trkpt><trkpt lat="43.6020804" lon="11.7312538"><ele>854.0</ele><time>2026-04-25T11:00:29.908Z</time></trkpt><trkpt lat="43.6019623" lon="11.7312978"><ele>854.0</ele><time>2026-04-25T11:00:30.928Z</time></trkpt><trkpt lat="43.6018462" lon="11.731331"><ele>854.0000000000001</ele><time>2026-04-25T11:00:31.926Z</time></trkpt><trkpt lat="43.6017332" lon="11.7313683"><ele>854.0000000000001</ele><time>2026-04-25T11:00:32.918Z</time></trkpt><trkpt lat="43.6016401" lon="11.7314263"><ele>854.0</ele><time>2026-04-25T11:00:33.929Z</time></trkpt><trkpt lat="43.6015565" lon="11.7314991"><ele>854.0</ele><time>2026-04-25T11:00:34.921Z</time></trkpt><trkpt lat="43.6015" lon="11.7315843"><ele>854.0000000000001</ele><time>2026-04-25T11:00:35.916Z</time></trkpt><trkpt lat="43.6014552" lon="11.7316651"><ele>854.0</ele><time>2026-04-25T11:00:36.91Z</time></trkpt><trkpt lat="43.6014364" lon="11.7317616"><ele>854.0</ele><time>2026-04-25T11:00:37.916Z</time></trkpt><trkpt lat="43.601453" lon="11.7319034"><ele>854.0</ele><time>2026-04-25T11:00:38.914Z</time></trkpt><trkpt lat="43.601464" lon="11.7320425"><ele>854.0000000000001</ele><time>2026-04-25T11:00:39.911Z</time></trkpt><trkpt lat="43.601466" lon="11.7321501"><ele>854.0</ele><time>2026-04-25T11:00:40.918Z</time></trkpt><trkpt lat="43.6014519" lon="11.7322593"><ele>854.4000000000001</ele><time>2026-04-25T11:00:41.925Z</time></trkpt><trkpt lat="43.6014193" lon="11.7323731"><ele>854.8000000000001</ele><time>2026-04-25T11:00:42.923Z</time></trkpt><trkpt lat="43.6013523" lon="11.7324754"><ele>855.1999999999999</ele><time>2026-04-25T11:00:43.92Z</time></trkpt><trkpt lat="43.6012545" lon="11.7325617"><ele>855.5999999999999</ele><time>2026-04-25T11:00:44.912Z</time></trkpt><trkpt lat="43.6011494" lon="11.7326378"><ele>856.0</ele><time>2026-04-25T11:00:45.912Z</time></trkpt><trkpt lat="43.6010407" lon="11.7327019"><ele>851.75</ele><time>2026-04-25T11:00:46.911Z</time></trkpt><trkpt lat="43.6009272" lon="11.7327514"><ele>847.5</ele><time>2026-04-25T11:00:47.922Z</time></trkpt><trkpt lat="43.6008114" lon="11.7327914"><ele>843.25</ele><time>2026-04-25T11:00:48.91Z</time></trkpt><trkpt lat="43.6007051" lon="11.7328244"><ele>839.0</ele><time>2026-04-25T11:00:49.929Z</time></trkpt><trkpt lat="43.6006041" lon="11.7328647"><ele>839.0</ele><time>2026-04-25T11:00:50.91Z</time></trkpt><trkpt lat="43.6005013" lon="11.7328846"><ele>839.0</ele><time>2026-04-25T11:00:51.926Z</time></trkpt><trkpt lat="43.6004029" lon="11.7329117"><ele>839.0</ele><time>2026-04-25T11:00:52.919Z</time></trkpt><trkpt lat="43.6003009" lon="11.7329485"><ele>839.0</ele><time>2026-04-25T11:00:53.911Z</time></trkpt><trkpt lat="43.6001945" lon="11.7330035"><ele>839.0</ele><time>2026-04-25T11:00:54.914Z</time></trkpt><trkpt lat="43.6000875" lon="11.7330354"><ele>839.1666666666667</ele><time>2026-04-25T11:00:55.918Z</time></trkpt><trkpt lat="43.5999979" lon="11.7330415"><ele>839.3333333333334</ele><time>2026-04-25T11:00:56.916Z</time></trkpt><trkpt lat="43.5998905" lon="11.7330917"><ele>839.5</ele><time>2026-04-25T11:00:58.914Z</time></trkpt><trkpt lat="43.5998395" lon="11.7331504"><ele>839.6666666666667</ele><time>2026-04-25T11:00:59.913Z</time></trkpt><trkpt lat="43.5997878" lon="11.7332264"><ele>839.8333333333334</ele><time>2026-04-25T11:01:00.926Z</time></trkpt><trkpt lat="43.599729" lon="11.7333038"><ele>840.0</ele><time>2026-04-25T11:01:01.915Z</time></trkpt><trkpt lat="43.599647" lon="11.7333692"><ele>840.0</ele><time>2026-04-25T11:01:02.917Z</time></trkpt><trkpt lat="43.5995661" lon="11.7334084"><ele>840.0</ele><time>2026-04-25T11:01:03.917Z</time></trkpt><trkpt lat="43.5994823" lon="11.7334412"><ele>840.0</ele><time>2026-04-25T11:01:04.917Z</time></trkpt><trkpt lat="43.5993957" lon="11.733475"><ele>840.0</ele><time>2026-04-25T11:01:05.914Z</time></trkpt><trkpt lat="43.5993069" lon="11.733492"><ele>840.0</ele><time>2026-04-25T11:01:06.916Z</time></trkpt><trkpt lat="43.5992179" lon="11.7335075"><ele>840.0</ele><time>2026-04-25T11:01:07.918Z</time></trkpt><trkpt lat="43.5991425" lon="11.733532"><ele>837.8</ele><time>2026-04-25T11:01:08.913Z</time></trkpt><trkpt lat="43.5990498" lon="11.7336055"><ele>835.6</ele><time>2026-04-25T11:01:10.919Z</time></trkpt><trkpt lat="43.599002" lon="11.7337703"><ele>833.4000000000001</ele><time>2026-04-25T11:01:12.916Z</time></trkpt><trkpt lat="43.5989723" lon="11.7338786"><ele>831.2</ele><time>2026-04-25T11:01:13.916Z</time></trkpt><trkpt lat="43.5989213" lon="11.7340024"><ele>829.0</ele><time>2026-04-25T11:01:14.918Z</time></trkpt><trkpt lat="43.5988594" lon="11.7341147"><ele>828.9999999999999</ele><time>2026-04-25T11:01:15.913Z</time></trkpt><trkpt lat="43.5987893" lon="11.7341918"><ele>829.0</ele><time>2026-04-25T11:01:16.93Z</time></trkpt><trkpt lat="43.5987074" lon="11.7342486"><ele>829.0</ele><time>2026-04-25T11:01:17.914Z</time></trkpt><trkpt lat="43.5986144" lon="11.7342841"><ele>829.0</ele><time>2026-04-25T11:01:18.915Z</time></trkpt><trkpt lat="43.5985349" lon="11.7343189"><ele>828.9999999999999</ele><time>2026-04-25T11:01:19.922Z</time></trkpt><trkpt lat="43.5984801" lon="11.7343776"><ele>829.0</ele><time>2026-04-25T11:01:20.916Z</time></trkpt><trkpt lat="43.5984422" lon="11.7344692"><ele>828.4000000000001</ele><time>2026-04-25T11:01:21.912Z</time></trkpt><trkpt lat="43.5984008" lon="11.7345699"><ele>827.8</ele><time>2026-04-25T11:01:22.911Z</time></trkpt><trkpt lat="43.5983602" lon="11.7346842"><ele>827.2</ele><time>2026-04-25T11:01:23.914Z</time></trkpt><trkpt lat="43.5982981" lon="11.7348043"><ele>826.5999999999999</ele><time>2026-04-25T11:01:24.912Z</time></trkpt><trkpt lat="43.598222" lon="11.7349079"><ele>826.0</ele><time>2026-04-25T11:01:25.912Z</time></trkpt><trkpt lat="43.5981456" lon="11.7349947"><ele>826.0</ele><time>2026-04-25T11:01:26.924Z</time></trkpt><trkpt lat="43.5980438" lon="11.7350816"><ele>826.0</ele><time>2026-04-25T11:01:27.928Z</time></trkpt><trkpt lat="43.5979318" lon="11.7351837"><ele>826.0</ele><time>2026-04-25T11:01:28.918Z</time></trkpt><trkpt lat="43.5978229" lon="11.7352912"><ele>826.0</ele><time>2026-04-25T11:01:29.922Z</time></trkpt><trkpt lat="43.5977193" lon="11.7353856"><ele>826.3333333333333</ele><time>2026-04-25T11:01:30.915Z</time></trkpt><trkpt lat="43.5976294" lon="11.7354562"><ele>826.6666666666666</ele><time>2026-04-25T11:01:31.919Z</time></trkpt><trkpt lat="43.5975618" lon="11.7355116"><ele>827.0</ele><time>2026-04-25T11:01:32.92Z</time></trkpt><trkpt lat="43.5975252" lon="11.7355871"><ele>827.3333333333333</ele><time>2026-04-25T11:01:33.92Z</time></trkpt><trkpt lat="43.5975026" lon="11.7356746"><ele>827.6666666666666</ele><time>2026-04-25T11:01:34.916Z</time></trkpt><trkpt lat="43.5974991" lon="11.7357788"><ele>828.0</ele><time>2026-04-25T11:01:35.915Z</time></trkpt><trkpt lat="43.5974942" lon="11.7359143"><ele>825.8</ele><time>2026-04-25T11:01:36.918Z</time></trkpt><trkpt lat="43.5974729" lon="11.7360608"><ele>823.5999999999999</ele><time>2026-04-25T11:01:37.922Z</time></trkpt><trkpt lat="43.5974331" lon="11.7361938"><ele>821.4000000000001</ele><time>2026-04-25T11:01:38.911Z</time></trkpt><trkpt lat="43.5973721" lon="11.7363016"><ele>819.2</ele><time>2026-04-25T11:01:39.927Z</time></trkpt><trkpt lat="43.5972994" lon="11.7363689"><ele>817.0</ele><time>2026-04-25T11:01:40.91Z</time></trkpt><trkpt lat="43.5972182" lon="11.7364244"><ele>817.0</ele><time>2026-04-25T11:01:41.914Z</time></trkpt><trkpt lat="43.5971235" lon="11.7364575"><ele>817.0</ele><time>2026-04-25T11:01:42.92Z</time></trkpt><trkpt lat="43.597002" lon="11.7365049"><ele>817.0</ele><time>2026-04-25T11:01:43.921Z</time></trkpt><trkpt lat="43.5968863" lon="11.7365712"><ele>817.0</ele><time>2026-04-25T11:01:44.921Z</time></trkpt><trkpt lat="43.5967931" lon="11.7366273"><ele>816.1666666666666</ele><time>2026-04-25T11:01:45.913Z</time></trkpt><trkpt lat="43.5967193" lon="11.7366981"><ele>815.3333333333333</ele><time>2026-04-25T11:01:46.916Z</time></trkpt><trkpt lat="43.5966632" lon="11.7367794"><ele>814.5</ele><time>2026-04-25T11:01:47.917Z</time></trkpt><trkpt lat="43.5966249" lon="11.7368635"><ele>813.6666666666667</ele><time>2026-04-25T11:01:48.916Z</time></trkpt><trkpt lat="43.5965879" lon="11.7369577"><ele>812.8333333333334</ele><time>2026-04-25T11:01:49.918Z</time></trkpt><trkpt lat="43.596536" lon="11.737028"><ele>812.0</ele><time>2026-04-25T11:01:50.914Z</time></trkpt><trkpt lat="43.5964847" lon="11.7371042"><ele>812.0000000000001</ele><time>2026-04-25T11:01:51.909Z</time></trkpt><trkpt lat="43.5964165" lon="11.7371791"><ele>812.0</ele><time>2026-04-25T11:01:52.923Z</time></trkpt><trkpt lat="43.5963375" lon="11.7372455"><ele>812.0</ele><time>2026-04-25T11:01:53.914Z</time></trkpt><trkpt lat="43.5962631" lon="11.7373186"><ele>812.0</ele><time>2026-04-25T11:01:54.927Z</time></trkpt><trkpt lat="43.5961989" lon="11.7373952"><ele>812.0000000000001</ele><time>2026-04-25T11:01:55.915Z</time></trkpt><trkpt lat="43.5961626" lon="11.7374755"><ele>812.0</ele><time>2026-04-25T11:01:56.914Z</time></trkpt><trkpt lat="43.5961403" lon="11.7375741"><ele>811.8333333333334</ele><time>2026-04-25T11:01:57.916Z</time></trkpt><trkpt lat="43.5961215" lon="11.7376711"><ele>811.6666666666667</ele><time>2026-04-25T11:01:58.92Z</time></trkpt><trkpt lat="43.5960584" lon="11.737803"><ele>811.5</ele><time>2026-04-25T11:02:00.917Z</time></trkpt><trkpt lat="43.5959443" lon="11.7378882"><ele>811.3333333333333</ele><time>2026-04-25T11:02:02.911Z</time></trkpt><trkpt lat="43.5958849" lon="11.7379276"><ele>811.1666666666666</ele><time>2026-04-25T11:02:03.903Z</time></trkpt><trkpt lat="43.595842" lon="11.737992"><ele>811.0</ele><time>2026-04-25T11:02:04.909Z</time></trkpt><trkpt lat="43.5958199" lon="11.7381428"><ele>810.9999999999999</ele><time>2026-04-25T11:02:06.914Z</time></trkpt><trkpt lat="43.5958284" lon="11.7382452"><ele>811.0</ele><time>2026-04-25T11:02:07.905Z</time></trkpt><trkpt lat="43.5958418" lon="11.7383487"><ele>811.0</ele><time>2026-04-25T11:02:08.906Z</time></trkpt><trkpt lat="43.5958116" lon="11.7384555"><ele>811.0</ele><time>2026-04-25T11:02:09.919Z</time></trkpt><trkpt lat="43.5957336" lon="11.738559"><ele>810.9999999999999</ele><time>2026-04-25T11:02:10.909Z</time></trkpt><trkpt lat="43.5956587" lon="11.7386546"><ele>811.0</ele><time>2026-04-25T11:02:11.903Z</time></trkpt><trkpt lat="43.5955972" lon="11.7387431"><ele>808.5999999999999</ele><time>2026-04-25T11:02:12.906Z</time></trkpt><trkpt lat="43.5955392" lon="11.7388302"><ele>806.2</ele><time>2026-04-25T11:02:13.918Z</time></trkpt><trkpt lat="43.5954946" lon="11.7389237"><ele>803.8</ele><time>2026-04-25T11:02:14.916Z</time></trkpt><trkpt lat="43.5954535" lon="11.7390381"><ele>801.4000000000001</ele><time>2026-04-25T11:02:15.911Z</time></trkpt><trkpt lat="43.5954158" lon="11.7391666"><ele>799.0</ele><time>2026-04-25T11:02:16.918Z</time></trkpt><trkpt lat="43.5953888" lon="11.739307"><ele>801.0</ele><time>2026-04-25T11:02:17.907Z</time></trkpt><trkpt lat="43.5953653" lon="11.7394342"><ele>803.0</ele><time>2026-04-25T11:02:18.907Z</time></trkpt><trkpt lat="43.5953463" lon="11.7395586"><ele>805.0</ele><time>2026-04-25T11:02:19.908Z</time></trkpt><trkpt lat="43.5953198" lon="11.7396789"><ele>807.0</ele><time>2026-04-25T11:02:20.901Z</time></trkpt><trkpt lat="43.5952893" lon="11.7397866"><ele>809.0</ele><time>2026-04-25T11:02:21.904Z</time></trkpt><trkpt lat="43.5952385" lon="11.7398882"><ele>809.0</ele><time>2026-04-25T11:02:22.904Z</time></trkpt><trkpt lat="43.5952094" lon="11.7399994"><ele>809.0</ele><time>2026-04-25T11:02:23.908Z</time></trkpt><trkpt lat="43.5951936" lon="11.7401299"><ele>809.0</ele><time>2026-04-25T11:02:24.907Z</time></trkpt><trkpt lat="43.5951718" lon="11.7402721"><ele>809.0</ele><time>2026-04-25T11:02:25.911Z</time></trkpt><trkpt lat="43.5951315" lon="11.7404283"><ele>809.0</ele><time>2026-04-25T11:02:26.9Z</time></trkpt><trkpt lat="43.595088" lon="11.7405831"><ele>807.25</ele><time>2026-04-25T11:02:27.906Z</time></trkpt><trkpt lat="43.595031" lon="11.7407475"><ele>805.5</ele><time>2026-04-25T11:02:28.908Z</time></trkpt><trkpt lat="43.5949813" lon="11.7409009"><ele>803.75</ele><time>2026-04-25T11:02:29.912Z</time></trkpt><trkpt lat="43.5949424" lon="11.7410359"><ele>802.0</ele><time>2026-04-25T11:02:30.918Z</time></trkpt><trkpt lat="43.5949078" lon="11.7411556"><ele>800.8333333333333</ele><time>2026-04-25T11:02:31.912Z</time></trkpt><trkpt lat="43.5948928" lon="11.7412686"><ele>799.6666666666666</ele><time>2026-04-25T11:02:32.905Z</time></trkpt><trkpt lat="43.5948982" lon="11.7413709"><ele>798.5</ele><time>2026-04-25T11:02:33.905Z</time></trkpt><trkpt lat="43.5949138" lon="11.7414596"><ele>797.3333333333333</ele><time>2026-04-25T11:02:34.901Z</time></trkpt><trkpt lat="43.5949219" lon="11.7415628"><ele>796.1666666666666</ele><time>2026-04-25T11:02:35.906Z</time></trkpt><trkpt lat="43.5949033" lon="11.7416867"><ele>795.0</ele><time>2026-04-25T11:02:36.913Z</time></trkpt><trkpt lat="43.5948777" lon="11.7418242"><ele>793.6</ele><time>2026-04-25T11:02:37.918Z</time></trkpt><trkpt lat="43.594851" lon="11.7419585"><ele>792.2</ele><time>2026-04-25T11:02:38.904Z</time></trkpt><trkpt lat="43.5948176" lon="11.7420875"><ele>790.8</ele><time>2026-04-25T11:02:39.908Z</time></trkpt><trkpt lat="43.5947852" lon="11.7422133"><ele>789.4</ele><time>2026-04-25T11:02:40.906Z</time></trkpt><trkpt lat="43.5947727" lon="11.742333"><ele>788.0</ele><time>2026-04-25T11:02:41.908Z</time></trkpt><trkpt lat="43.5947677" lon="11.7424479"><ele>788.0</ele><time>2026-04-25T11:02:42.905Z</time></trkpt><trkpt lat="43.5947638" lon="11.7425567"><ele>788.0</ele><time>2026-04-25T11:02:43.915Z</time></trkpt><trkpt lat="43.5947312" lon="11.7426853"><ele>788.0</ele><time>2026-04-25T11:02:45.913Z</time></trkpt><trkpt lat="43.5946691" lon="11.7427738"><ele>788.0</ele><time>2026-04-25T11:02:47.911Z</time></trkpt><trkpt lat="43.5946119" lon="11.7429343"><ele>788.0</ele><time>2026-04-25T11:02:49.914Z</time></trkpt><trkpt lat="43.594581" lon="11.7430318"><ele>787.1666666666667</ele><time>2026-04-25T11:02:50.911Z</time></trkpt><trkpt lat="43.5945481" lon="11.7431236"><ele>786.3333333333334</ele><time>2026-04-25T11:02:51.917Z</time></trkpt><trkpt lat="43.5945091" lon="11.7432082"><ele>785.5</ele><time>2026-04-25T11:02:52.924Z</time></trkpt><trkpt lat="43.5944563" lon="11.7432924"><ele>784.6666666666667</ele><time>2026-04-25T11:02:53.918Z</time></trkpt><trkpt lat="43.5943894" lon="11.743381"><ele>783.8333333333334</ele><time>2026-04-25T11:02:54.925Z</time></trkpt><trkpt lat="43.5943148" lon="11.7434552"><ele>783.0</ele><time>2026-04-25T11:02:55.919Z</time></trkpt><trkpt lat="43.5942329" lon="11.7435257"><ele>782.8333333333334</ele><time>2026-04-25T11:02:56.919Z</time></trkpt><trkpt lat="43.5941479" lon="11.7435855"><ele>782.6666666666667</ele><time>2026-04-25T11:02:57.92Z</time></trkpt><trkpt lat="43.5940722" lon="11.7436178"><ele>782.5</ele><time>2026-04-25T11:02:58.915Z</time></trkpt><trkpt lat="43.5940079" lon="11.7436319"><ele>782.3333333333334</ele><time>2026-04-25T11:02:59.928Z</time></trkpt><trkpt lat="43.5939352" lon="11.743628"><ele>782.1666666666667</ele><time>2026-04-25T11:03:00.921Z</time></trkpt><trkpt lat="43.5938623" lon="11.7436174"><ele>782.0</ele><time>2026-04-25T11:03:01.908Z</time></trkpt><trkpt lat="43.5937811" lon="11.7436112"><ele>782.0</ele><time>2026-04-25T11:03:02.916Z</time></trkpt><trkpt lat="43.5936891" lon="11.7436021"><ele>782.0</ele><time>2026-04-25T11:03:03.907Z</time></trkpt><trkpt lat="43.5935938" lon="11.7436021"><ele>782.0</ele><time>2026-04-25T11:03:04.911Z</time></trkpt><trkpt lat="43.5934929" lon="11.7435942"><ele>782.0</ele><time>2026-04-25T11:03:05.929Z</time></trkpt><trkpt lat="43.5934025" lon="11.7435885"><ele>782.0</ele><time>2026-04-25T11:03:06.917Z</time></trkpt><trkpt lat="43.5933308" lon="11.7435778"><ele>781.6666666666667</ele><time>2026-04-25T11:03:07.917Z</time></trkpt><trkpt lat="43.5932228" lon="11.7435707"><ele>781.3333333333334</ele><time>2026-04-25T11:03:09.915Z</time></trkpt><trkpt lat="43.593144" lon="11.743566"><ele>781.0</ele><time>2026-04-25T11:03:11.923Z</time></trkpt><trkpt lat="43.5930699" lon="11.7435877"><ele>780.6666666666667</ele><time>2026-04-25T11:03:13.911Z</time></trkpt><trkpt lat="43.5929953" lon="11.7436069"><ele>780.3333333333334</ele><time>2026-04-25T11:03:15.904Z</time></trkpt><trkpt lat="43.5929287" lon="11.7436225"><ele>780.0</ele><time>2026-04-25T11:03:17.924Z</time></trkpt><trkpt lat="43.5928614" lon="11.7436333"><ele>779.6666666666666</ele><time>2026-04-25T11:03:19.907Z</time></trkpt><trkpt lat="43.5927969" lon="11.7436266"><ele>779.3333333333333</ele><time>2026-04-25T11:03:22.91Z</time></trkpt><trkpt lat="43.5927658" lon="11.7437589"><ele>779.0</ele><time>2026-04-25T11:03:42.923Z</time></trkpt><trkpt lat="43.5927436" lon="11.7438424"><ele>778.6666666666666</ele><time>2026-04-25T11:03:43.92Z</time></trkpt><trkpt lat="43.5926977" lon="11.7439451"><ele>778.3333333333333</ele><time>2026-04-25T11:03:44.913Z</time></trkpt><trkpt lat="43.5926319" lon="11.7440419"><ele>778.0</ele><time>2026-04-25T11:03:45.925Z</time></trkpt><trkpt lat="43.592563" lon="11.74411"><ele>778.0</ele><time>2026-04-25T11:03:46.916Z</time></trkpt><trkpt lat="43.5925058" lon="11.7441958"><ele>778.0</ele><time>2026-04-25T11:03:47.91Z</time></trkpt><trkpt lat="43.5924751" lon="11.7443048"><ele>778.0</ele><time>2026-04-25T11:03:48.918Z</time></trkpt><trkpt lat="43.5924687" lon="11.7444397"><ele>778.0</ele><time>2026-04-25T11:03:49.917Z</time></trkpt><trkpt lat="43.5924852" lon="11.7445909"><ele>778.0</ele><time>2026-04-25T11:03:50.922Z</time></trkpt><trkpt lat="43.5925114" lon="11.7447359"><ele>776.0</ele><time>2026-04-25T11:03:51.908Z</time></trkpt><trkpt lat="43.5925368" lon="11.7448855"><ele>774.0</ele><time>2026-04-25T11:03:52.913Z</time></trkpt><trkpt lat="43.5925663" lon="11.7450387"><ele>772.0</ele><time>2026-04-25T11:03:53.931Z</time></trkpt><trkpt lat="43.5925842" lon="11.7451815"><ele>770.0</ele><time>2026-04-25T11:03:54.927Z</time></trkpt><trkpt lat="43.5925974" lon="11.7453115"><ele>768.0</ele><time>2026-04-25T11:03:55.916Z</time></trkpt><trkpt lat="43.5926266" lon="11.745424"><ele>766.5</ele><time>2026-04-25T11:03:56.92Z</time></trkpt><trkpt lat="43.592678" lon="11.7455085"><ele>765.0</ele><time>2026-04-25T11:03:57.909Z</time></trkpt><trkpt lat="43.5927512" lon="11.745555"><ele>763.5</ele><time>2026-04-25T11:03:58.914Z</time></trkpt><trkpt lat="43.5928389" lon="11.7455535"><ele>762.0</ele><time>2026-04-25T11:03:59.909Z</time></trkpt><trkpt lat="43.5929236" lon="11.7455017"><ele>760.5</ele><time>2026-04-25T11:04:00.9Z</time></trkpt><trkpt lat="43.5929962" lon="11.7454041"><ele>759.0</ele><time>2026-04-25T11:04:01.927Z</time></trkpt><trkpt lat="43.5930666" lon="11.7452993"><ele>758.8000000000001</ele><time>2026-04-25T11:04:02.924Z</time></trkpt><trkpt lat="43.5931421" lon="11.7452279"><ele>758.6</ele><time>2026-04-25T11:04:03.915Z</time></trkpt><trkpt lat="43.5932408" lon="11.7452062"><ele>758.4</ele><time>2026-04-25T11:04:04.923Z</time></trkpt><trkpt lat="43.5933353" lon="11.7452655"><ele>758.2</ele><time>2026-04-25T11:04:05.916Z</time></trkpt><trkpt lat="43.5934265" lon="11.7453335"><ele>758.0</ele><time>2026-04-25T11:04:06.924Z</time></trkpt><trkpt lat="43.5935097" lon="11.745381"><ele>758.0</ele><time>2026-04-25T11:04:07.911Z</time></trkpt><trkpt lat="43.5936152" lon="11.7453865"><ele>758.0</ele><time>2026-04-25T11:04:08.92Z</time></trkpt><trkpt lat="43.593717" lon="11.7453634"><ele>758.0</ele><time>2026-04-25T11:04:09.921Z</time></trkpt><trkpt lat="43.5938119" lon="11.7453317"><ele>758.0</ele><time>2026-04-25T11:04:10.911Z</time></trkpt><trkpt lat="43.593898" lon="11.7453416"><ele>758.0</ele><time>2026-04-25T11:04:11.916Z</time></trkpt><trkpt lat="43.5939603" lon="11.7454063"><ele>756.4</ele><time>2026-04-25T11:04:12.91Z</time></trkpt><trkpt lat="43.5939853" lon="11.7455106"><ele>754.8</ele><time>2026-04-25T11:04:13.914Z</time></trkpt><trkpt lat="43.5939695" lon="11.7456022"><ele>753.2</ele><time>2026-04-25T11:04:14.919Z</time></trkpt><trkpt lat="43.5939057" lon="11.7456848"><ele>751.6</ele><time>2026-04-25T11:04:15.911Z</time></trkpt><trkpt lat="43.5938142" lon="11.7457734"><ele>750.0</ele><time>2026-04-25T11:04:16.919Z</time></trkpt><trkpt lat="43.5937207" lon="11.745867"><ele>749.75</ele><time>2026-04-25T11:04:17.914Z</time></trkpt><trkpt lat="43.593621" lon="11.7459731"><ele>749.5</ele><time>2026-04-25T11:04:18.911Z</time></trkpt><trkpt lat="43.5935252" lon="11.7460856"><ele>749.25</ele><time>2026-04-25T11:04:19.919Z</time></trkpt><trkpt lat="43.5934428" lon="11.7461857"><ele>749.0</ele><time>2026-04-25T11:04:20.915Z</time></trkpt><trkpt lat="43.5933841" lon="11.7463007"><ele>749.0</ele><time>2026-04-25T11:04:21.918Z</time></trkpt><trkpt lat="43.5933519" lon="11.7464486"><ele>749.0</ele><time>2026-04-25T11:04:22.915Z</time></trkpt><trkpt lat="43.5933188" lon="11.7466197"><ele>749.0</ele><time>2026-04-25T11:04:23.909Z</time></trkpt><trkpt lat="43.5932867" lon="11.7468008"><ele>749.0</ele><time>2026-04-25T11:04:24.915Z</time></trkpt><trkpt lat="43.5932545" lon="11.7469925"><ele>746.25</ele><time>2026-04-25T11:04:25.919Z</time></trkpt><trkpt lat="43.5932141" lon="11.7471776"><ele>743.5</ele><time>2026-04-25T11:04:26.908Z</time></trkpt><trkpt lat="43.5931667" lon="11.7473551"><ele>740.75</ele><time>2026-04-25T11:04:27.912Z</time></trkpt><trkpt lat="43.5930904" lon="11.7475121"><ele>738.0</ele><time>2026-04-25T11:04:28.92Z</time></trkpt><trkpt lat="43.5929896" lon="11.7476326"><ele>737.25</ele><time>2026-04-25T11:04:29.91Z</time></trkpt><trkpt lat="43.5928821" lon="11.7477129"><ele>736.5</ele><time>2026-04-25T11:04:30.91Z</time></trkpt><trkpt lat="43.5927536" lon="11.7477492"><ele>735.75</ele><time>2026-04-25T11:04:31.92Z</time></trkpt><trkpt lat="43.5926283" lon="11.7477157"><ele>735.0</ele><time>2026-04-25T11:04:32.918Z</time></trkpt><trkpt lat="43.5925185" lon="11.7476371"><ele>735.0</ele><time>2026-04-25T11:04:33.908Z</time></trkpt><trkpt lat="43.5924252" lon="11.7475172"><ele>735.0</ele><time>2026-04-25T11:04:34.916Z</time></trkpt><trkpt lat="43.5923491" lon="11.7473722"><ele>735.0</ele><time>2026-04-25T11:04:35.913Z</time></trkpt><trkpt lat="43.5922983" lon="11.7472127"><ele>735.0</ele><time>2026-04-25T11:04:36.914Z</time></trkpt><trkpt lat="43.5922619" lon="11.7470464"><ele>735.0</ele><time>2026-04-25T11:04:37.916Z</time></trkpt><trkpt lat="43.592233" lon="11.7468947"><ele>735.0</ele><time>2026-04-25T11:04:38.915Z</time></trkpt><trkpt lat="43.5921864" lon="11.7467642"><ele>735.0</ele><time>2026-04-25T11:04:39.931Z</time></trkpt><trkpt lat="43.5921101" lon="11.7466468"><ele>735.0</ele><time>2026-04-25T11:04:40.912Z</time></trkpt><trkpt lat="43.5919896" lon="11.7465374"><ele>732.4</ele><time>2026-04-25T11:04:41.909Z</time></trkpt><trkpt lat="43.5918626" lon="11.7464351"><ele>729.8</ele><time>2026-04-25T11:04:42.907Z</time></trkpt><trkpt lat="43.5917619" lon="11.7463285"><ele>727.2</ele><time>2026-04-25T11:04:43.917Z</time></trkpt><trkpt lat="43.5916859" lon="11.7462721"><ele>724.6</ele><time>2026-04-25T11:04:44.92Z</time></trkpt><trkpt lat="43.5916106" lon="11.7462522"><ele>722.0</ele><time>2026-04-25T11:04:45.908Z</time></trkpt><trkpt lat="43.591535" lon="11.7462874"><ele>722.0</ele><time>2026-04-25T11:04:46.914Z</time></trkpt><trkpt lat="43.5914663" lon="11.7463687"><ele>722.0</ele><time>2026-04-25T11:04:47.915Z</time></trkpt><trkpt lat="43.5914415" lon="11.7464774"><ele>722.0</ele><time>2026-04-25T11:04:48.917Z</time></trkpt><trkpt lat="43.5914691" lon="11.7465752"><ele>722.0</ele><time>2026-04-25T11:04:49.914Z</time></trkpt><trkpt lat="43.5915339" lon="11.7466534"><ele>722.0</ele><time>2026-04-25T11:04:50.915Z</time></trkpt><trkpt lat="43.591632" lon="11.7467045"><ele>722.0</ele><time>2026-04-25T11:04:51.914Z</time></trkpt><trkpt lat="43.5917546" lon="11.7467641"><ele>722.0</ele><time>2026-04-25T11:04:52.913Z</time></trkpt><trkpt lat="43.5918624" lon="11.7468469"><ele>722.0</ele><time>2026-04-25T11:04:53.916Z</time></trkpt><trkpt lat="43.5919525" lon="11.746962"><ele>722.0</ele><time>2026-04-25T11:04:54.928Z</time></trkpt><trkpt lat="43.5920132" lon="11.7471226"><ele>722.0</ele><time>2026-04-25T11:04:55.913Z</time></trkpt><trkpt lat="43.5920447" lon="11.7473159"><ele>721.0</ele><time>2026-04-25T11:04:56.921Z</time></trkpt><trkpt lat="43.5920687" lon="11.7475183"><ele>720.0</ele><time>2026-04-25T11:04:57.915Z</time></trkpt><trkpt lat="43.5920948" lon="11.7477257"><ele>719.0</ele><time>2026-04-25T11:04:58.939Z</time></trkpt><trkpt lat="43.5921293" lon="11.7479275"><ele>719.0</ele><time>2026-04-25T11:04:59.911Z</time></trkpt><trkpt lat="43.5921625" lon="11.7481457"><ele>719.0</ele><time>2026-04-25T11:05:00.915Z</time></trkpt><trkpt lat="43.5922029" lon="11.7483735"><ele>719.0</ele><time>2026-04-25T11:05:01.917Z</time></trkpt><trkpt lat="43.5922402" lon="11.7485893"><ele>715.3333333333333</ele><time>2026-04-25T11:05:02.918Z</time></trkpt><trkpt lat="43.592283" lon="11.7487963"><ele>711.6666666666666</ele><time>2026-04-25T11:05:03.91Z</time></trkpt><trkpt lat="43.5923612" lon="11.7489797"><ele>708.0</ele><time>2026-04-25T11:05:04.915Z</time></trkpt><trkpt lat="43.5924687" lon="11.7491471"><ele>708.0</ele><time>2026-04-25T11:05:05.915Z</time></trkpt><trkpt lat="43.5925972" lon="11.7493099"><ele>708.0</ele><time>2026-04-25T11:05:06.918Z</time></trkpt><trkpt lat="43.5927353" lon="11.7494642"><ele>708.0</ele><time>2026-04-25T11:05:07.913Z</time></trkpt><trkpt lat="43.5928639" lon="11.7495993"><ele>704.0</ele><time>2026-04-25T11:05:08.916Z</time></trkpt><trkpt lat="43.5929972" lon="11.7497102"><ele>700.0</ele><time>2026-04-25T11:05:09.911Z</time></trkpt><trkpt lat="43.5931443" lon="11.7497764"><ele>696.0</ele><time>2026-04-25T11:05:10.92Z</time></trkpt><trkpt lat="43.5933048" lon="11.7498156"><ele>696.0</ele><time>2026-04-25T11:05:11.912Z</time></trkpt><trkpt lat="43.5934741" lon="11.7498648"><ele>696.0</ele><time>2026-04-25T11:05:12.93Z</time></trkpt><trkpt lat="43.5936292" lon="11.749905"><ele>696.0</ele><time>2026-04-25T11:05:13.916Z</time></trkpt><trkpt lat="43.5937711" lon="11.749922"><ele>693.6666666666666</ele><time>2026-04-25T11:05:14.925Z</time></trkpt><trkpt lat="43.5939065" lon="11.7498964"><ele>691.3333333333333</ele><time>2026-04-25T11:05:15.901Z</time></trkpt><trkpt lat="43.5940509" lon="11.7498219"><ele>689.0</ele><time>2026-04-25T11:05:16.925Z</time></trkpt><trkpt lat="43.594212" lon="11.7497247"><ele>689.0</ele><time>2026-04-25T11:05:17.918Z</time></trkpt><trkpt lat="43.5943795" lon="11.7496122"><ele>689.0</ele><time>2026-04-25T11:05:18.912Z</time></trkpt><trkpt lat="43.5945634" lon="11.7494975"><ele>689.0</ele><time>2026-04-25T11:05:19.914Z</time></trkpt><trkpt lat="43.5947399" lon="11.7493896"><ele>686.6666666666666</ele><time>2026-04-25T11:05:20.937Z</time></trkpt><trkpt lat="43.5949059" lon="11.7492968"><ele>684.3333333333334</ele><time>2026-04-25T11:05:21.911Z</time></trkpt><trkpt lat="43.5950442" lon="11.7491996"><ele>682.0</ele><time>2026-04-25T11:05:22.906Z</time></trkpt><trkpt lat="43.5951575" lon="11.7490977"><ele>682.0</ele><time>2026-04-25T11:05:23.913Z</time></trkpt><trkpt lat="43.5952224" lon="11.7489672"><ele>682.0</ele><time>2026-04-25T11:05:24.917Z</time></trkpt><trkpt lat="43.5952605" lon="11.7487869"><ele>682.0</ele><time>2026-04-25T11:05:25.913Z</time></trkpt><trkpt lat="43.5952995" lon="11.7486125"><ele>682.0</ele><time>2026-04-25T11:05:26.915Z</time></trkpt><trkpt lat="43.595357" lon="11.7484561"><ele>680.4000000000001</ele><time>2026-04-25T11:05:27.916Z</time></trkpt><trkpt lat="43.5954384" lon="11.7483481"><ele>678.8000000000001</ele><time>2026-04-25T11:05:28.915Z</time></trkpt><trkpt lat="43.5955201" lon="11.7482844"><ele>677.2</ele><time>2026-04-25T11:05:29.911Z</time></trkpt><trkpt lat="43.5956227" lon="11.7482891"><ele>675.6</ele><time>2026-04-25T11:05:30.916Z</time></trkpt><trkpt lat="43.5957416" lon="11.7483437"><ele>674.0</ele><time>2026-04-25T11:05:31.912Z</time></trkpt><trkpt lat="43.5958548" lon="11.7484269"><ele>674.0</ele><time>2026-04-25T11:05:32.916Z</time></trkpt><trkpt lat="43.5959754" lon="11.748484"><ele>674.0</ele><time>2026-04-25T11:05:33.922Z</time></trkpt><trkpt lat="43.5960919" lon="11.7485103"><ele>674.0</ele><time>2026-04-25T11:05:34.914Z</time></trkpt><trkpt lat="43.5962145" lon="11.7484938"><ele>674.0</ele><time>2026-04-25T11:05:35.913Z</time></trkpt><trkpt lat="43.5963358" lon="11.7484169"><ele>668.6666666666666</ele><time>2026-04-25T11:05:36.917Z</time></trkpt><trkpt lat="43.5964656" lon="11.7483014"><ele>663.3333333333334</ele><time>2026-04-25T11:05:37.914Z</time></trkpt><trkpt lat="43.5966125" lon="11.7481699"><ele>658.0</ele><time>2026-04-25T11:05:38.913Z</time></trkpt><trkpt lat="43.5967936" lon="11.7480292"><ele>658.0</ele><time>2026-04-25T11:05:39.918Z</time></trkpt><trkpt lat="43.5969927" lon="11.747888"><ele>658.0</ele><time>2026-04-25T11:05:40.905Z</time></trkpt><trkpt lat="43.5971881" lon="11.7477302"><ele>658.0</ele><time>2026-04-25T11:05:41.925Z</time></trkpt><trkpt lat="43.5973519" lon="11.7475563"><ele>658.0</ele><time>2026-04-25T11:05:42.939Z</time></trkpt><trkpt lat="43.5974776" lon="11.7474102"><ele>658.0</ele><time>2026-04-25T11:05:43.914Z</time></trkpt><trkpt lat="43.5975895" lon="11.747278"><ele>658.0</ele><time>2026-04-25T11:05:44.921Z</time></trkpt><trkpt lat="43.5977158" lon="11.7471704"><ele>658.0</ele><time>2026-04-25T11:05:45.934Z</time></trkpt><trkpt lat="43.597866" lon="11.7471149"><ele>658.0</ele><time>2026-04-25T11:05:46.915Z</time></trkpt><trkpt lat="43.5980783" lon="11.747135"><ele>653.6666666666667</ele><time>2026-04-25T11:05:47.917Z</time></trkpt><trkpt lat="43.5983011" lon="11.7471518"><ele>649.3333333333334</ele><time>2026-04-25T11:05:48.911Z</time></trkpt><trkpt lat="43.5984545" lon="11.747153"><ele>645.0</ele><time>2026-04-25T11:05:49.907Z</time></trkpt><trkpt lat="43.5985665" lon="11.7471422"><ele>645.0</ele><time>2026-04-25T11:05:50.906Z</time></trkpt><trkpt lat="43.5986548" lon="11.747171"><ele>645.0</ele><time>2026-04-25T11:05:51.929Z</time></trkpt><trkpt lat="43.598731" lon="11.7472575"><ele>645.0</ele><time>2026-04-25T11:05:52.907Z</time></trkpt><trkpt lat="43.5987564" lon="11.7473763"><ele>645.0</ele><time>2026-04-25T11:05:53.919Z</time></trkpt><trkpt lat="43.5987364" lon="11.7475151"><ele>645.0</ele><time>2026-04-25T11:05:54.915Z</time></trkpt><trkpt lat="43.5986844" lon="11.7476208"><ele>645.0</ele><time>2026-04-25T11:05:55.923Z</time></trkpt><trkpt lat="43.59859" lon="11.7476922"><ele>645.0</ele><time>2026-04-25T11:05:56.904Z</time></trkpt><trkpt lat="43.5984627" lon="11.7477113"><ele>645.0</ele><time>2026-04-25T11:05:57.914Z</time></trkpt><trkpt lat="43.5983038" lon="11.7477162"><ele>645.0</ele><time>2026-04-25T11:05:58.914Z</time></trkpt><trkpt lat="43.5981413" lon="11.7477675"><ele>642.6666666666666</ele><time>2026-04-25T11:05:59.918Z</time></trkpt><trkpt lat="43.5979804" lon="11.7479301"><ele>640.3333333333333</ele><time>2026-04-25T11:06:00.912Z</time></trkpt><trkpt lat="43.5978221" lon="11.7481149"><ele>638.0</ele><time>2026-04-25T11:06:01.913Z</time></trkpt><trkpt lat="43.5976801" lon="11.7482733"><ele>638.0</ele><time>2026-04-25T11:06:02.909Z</time></trkpt><trkpt lat="43.5975741" lon="11.7484004"><ele>638.0</ele><time>2026-04-25T11:06:03.913Z</time></trkpt><trkpt lat="43.5974812" lon="11.748532"><ele>638.0</ele><time>2026-04-25T11:06:04.92Z</time></trkpt><trkpt lat="43.5974276" lon="11.7486946"><ele>638.0</ele><time>2026-04-25T11:06:05.92Z</time></trkpt><trkpt lat="43.5974" lon="11.7489148"><ele>634.0</ele><time>2026-04-25T11:06:06.91Z</time></trkpt><trkpt lat="43.5973743" lon="11.7491071"><ele>630.0</ele><time>2026-04-25T11:06:07.911Z</time></trkpt><trkpt lat="43.5973354" lon="11.7492391"><ele>626.0</ele><time>2026-04-25T11:06:08.908Z</time></trkpt><trkpt lat="43.5972486" lon="11.7493294"><ele>622.0</ele><time>2026-04-25T11:06:09.91Z</time></trkpt><trkpt lat="43.5971272" lon="11.7494163"><ele>621.3333333333334</ele><time>2026-04-25T11:06:10.923Z</time></trkpt><trkpt lat="43.5969767" lon="11.749544"><ele>620.6666666666666</ele><time>2026-04-25T11:06:11.914Z</time></trkpt><trkpt lat="43.5968089" lon="11.7496992"><ele>620.0</ele><time>2026-04-25T11:06:12.913Z</time></trkpt><trkpt lat="43.5966807" lon="11.7498089"><ele>620.0</ele><time>2026-04-25T11:06:13.917Z</time></trkpt><trkpt lat="43.5966028" lon="11.7499196"><ele>620.0</ele><time>2026-04-25T11:06:14.914Z</time></trkpt><trkpt lat="43.5965577" lon="11.7500793"><ele>620.0</ele><time>2026-04-25T11:06:15.914Z</time></trkpt><trkpt lat="43.5965256" lon="11.7502889"><ele>620.0</ele><time>2026-04-25T11:06:16.912Z</time></trkpt><trkpt lat="43.596477" lon="11.7504845"><ele>621.0</ele><time>2026-04-25T11:06:17.907Z</time></trkpt><trkpt lat="43.5964056" lon="11.7506353"><ele>622.0</ele><time>2026-04-25T11:06:18.936Z</time></trkpt><trkpt lat="43.5962989" lon="11.7507664"><ele>623.0</ele><time>2026-04-25T11:06:19.908Z</time></trkpt><trkpt lat="43.5961691" lon="11.7508931"><ele>624.0</ele><time>2026-04-25T11:06:20.907Z</time></trkpt><trkpt lat="43.5960298" lon="11.7510245"><ele>620.5</ele><time>2026-04-25T11:06:21.904Z</time></trkpt><trkpt lat="43.5959412" lon="11.7511594"><ele>617.0</ele><time>2026-04-25T11:06:22.925Z</time></trkpt><trkpt lat="43.59589" lon="11.751318"><ele>613.5</ele><time>2026-04-25T11:06:23.909Z</time></trkpt><trkpt lat="43.5958485" lon="11.7515509"><ele>610.0</ele><time>2026-04-25T11:06:24.921Z</time></trkpt><trkpt lat="43.5957954" lon="11.7518312"><ele>607.6666666666667</ele><time>2026-04-25T11:06:25.909Z</time></trkpt><trkpt lat="43.5957379" lon="11.7521118"><ele>605.3333333333334</ele><time>2026-04-25T11:06:26.907Z</time></trkpt><trkpt lat="43.5956819" lon="11.7523814"><ele>603.0</ele><time>2026-04-25T11:06:27.917Z</time></trkpt><trkpt lat="43.5956282" lon="11.7526143"><ele>603.5</ele><time>2026-04-25T11:06:28.918Z</time></trkpt><trkpt lat="43.5955669" lon="11.7527873"><ele>604.0</ele><time>2026-04-25T11:06:29.91Z</time></trkpt><trkpt lat="43.5954978" lon="11.7529304"><ele>604.5</ele><time>2026-04-25T11:06:30.909Z</time></trkpt><trkpt lat="43.5953912" lon="11.7530365"><ele>605.0</ele><time>2026-04-25T11:06:31.927Z</time></trkpt><trkpt lat="43.5952475" lon="11.7531542"><ele>605.0</ele><time>2026-04-25T11:06:32.916Z</time></trkpt><trkpt lat="43.5950928" lon="11.7532735"><ele>605.0</ele><time>2026-04-25T11:06:33.914Z</time></trkpt><trkpt lat="43.5949853" lon="11.7533799"><ele>605.0</ele><time>2026-04-25T11:06:34.913Z</time></trkpt><trkpt lat="43.5949261" lon="11.7534855"><ele>605.0</ele><time>2026-04-25T11:06:35.916Z</time></trkpt><trkpt lat="43.5948939" lon="11.7536413"><ele>601.5</ele><time>2026-04-25T11:06:36.922Z</time></trkpt><trkpt lat="43.5949155" lon="11.7538235"><ele>598.0</ele><time>2026-04-25T11:06:37.914Z</time></trkpt><trkpt lat="43.5949445" lon="11.7540094"><ele>594.5</ele><time>2026-04-25T11:06:38.909Z</time></trkpt><trkpt lat="43.5949616" lon="11.7541572"><ele>591.0</ele><time>2026-04-25T11:06:39.913Z</time></trkpt><trkpt lat="43.5949567" lon="11.7542728"><ele>588.5</ele><time>2026-04-25T11:06:40.914Z</time></trkpt><trkpt lat="43.594903" lon="11.7543974"><ele>586.0</ele><time>2026-04-25T11:06:41.908Z</time></trkpt><trkpt lat="43.5947806" lon="11.7545091"><ele>583.5</ele><time>2026-04-25T11:06:42.931Z</time></trkpt><trkpt lat="43.5946772" lon="11.7546461"><ele>581.0</ele><time>2026-04-25T11:06:43.904Z</time></trkpt><trkpt lat="43.5946087" lon="11.7547972"><ele>581.0</ele><time>2026-04-25T11:06:44.925Z</time></trkpt><trkpt lat="43.5945757" lon="11.754982"><ele>581.0</ele><time>2026-04-25T11:06:45.92Z</time></trkpt><trkpt lat="43.594564" lon="11.755223"><ele>581.0</ele><time>2026-04-25T11:06:46.914Z</time></trkpt><trkpt lat="43.5945705" lon="11.7554696"><ele>578.75</ele><time>2026-04-25T11:06:47.912Z</time></trkpt><trkpt lat="43.5945773" lon="11.7556593"><ele>576.5</ele><time>2026-04-25T11:06:48.917Z</time></trkpt><trkpt lat="43.59458" lon="11.7558247"><ele>574.25</ele><time>2026-04-25T11:06:49.916Z</time></trkpt><trkpt lat="43.5945533" lon="11.7559632"><ele>572.0</ele><time>2026-04-25T11:06:50.909Z</time></trkpt><trkpt lat="43.5945123" lon="11.7560727"><ele>573.5</ele><time>2026-04-25T11:06:51.912Z</time></trkpt><trkpt lat="43.5944292" lon="11.7561739"><ele>575.0</ele><time>2026-04-25T11:06:52.906Z</time></trkpt><trkpt lat="43.5943036" lon="11.7562743"><ele>576.5</ele><time>2026-04-25T11:06:53.911Z</time></trkpt><trkpt lat="43.5941696" lon="11.7563783"><ele>578.0</ele><time>2026-04-25T11:06:54.916Z</time></trkpt><trkpt lat="43.5940752" lon="11.7564795"><ele>578.0</ele><time>2026-04-25T11:06:55.914Z</time></trkpt><trkpt lat="43.5940227" lon="11.7566223"><ele>578.0</ele><time>2026-04-25T11:06:56.91Z</time></trkpt><trkpt lat="43.5939715" lon="11.7567678"><ele>578.0</ele><time>2026-04-25T11:06:57.917Z</time></trkpt><trkpt lat="43.5939023" lon="11.756875"><ele>578.0</ele><time>2026-04-25T11:06:58.911Z</time></trkpt><trkpt lat="43.5937968" lon="11.7569466"><ele>576.1666666666666</ele><time>2026-04-25T11:06:59.901Z</time></trkpt><trkpt lat="43.5937268" lon="11.7570087"><ele>574.3333333333333</ele><time>2026-04-25T11:07:00.912Z</time></trkpt><trkpt lat="43.5936964" lon="11.7571098"><ele>572.5</ele><time>2026-04-25T11:07:01.907Z</time></trkpt><trkpt lat="43.5936913" lon="11.7572265"><ele>570.6666666666666</ele><time>2026-04-25T11:07:02.925Z</time></trkpt><trkpt lat="43.5937217" lon="11.757347"><ele>568.8333333333334</ele><time>2026-04-25T11:07:03.916Z</time></trkpt><trkpt lat="43.593803" lon="11.7574224"><ele>567.0</ele><time>2026-04-25T11:07:04.911Z</time></trkpt><trkpt lat="43.5939023" lon="11.7574722"><ele>567.0</ele><time>2026-04-25T11:07:05.921Z</time></trkpt><trkpt lat="43.5940132" lon="11.7575002"><ele>567.0</ele><time>2026-04-25T11:07:06.924Z</time></trkpt><trkpt lat="43.5941083" lon="11.7574877"><ele>567.0</ele><time>2026-04-25T11:07:07.912Z</time></trkpt><trkpt lat="43.5941824" lon="11.7574237"><ele>567.0</ele><time>2026-04-25T11:07:08.915Z</time></trkpt><trkpt lat="43.5942431" lon="11.7573075"><ele>567.0</ele><time>2026-04-25T11:07:09.925Z</time></trkpt><trkpt lat="43.5942848" lon="11.7571631"><ele>567.0</ele><time>2026-04-25T11:07:10.92Z</time></trkpt><trkpt lat="43.5943455" lon="11.757029"><ele>567.0</ele><time>2026-04-25T11:07:11.911Z</time></trkpt><trkpt lat="43.594437" lon="11.756955"><ele>567.0</ele><time>2026-04-25T11:07:12.915Z</time></trkpt><trkpt lat="43.5945405" lon="11.7569344"><ele>567.0</ele><time>2026-04-25T11:07:13.905Z</time></trkpt><trkpt lat="43.5946564" lon="11.7569004"><ele>567.0</ele><time>2026-04-25T11:07:14.911Z</time></trkpt><trkpt lat="43.5947449" lon="11.7568249"><ele>563.75</ele><time>2026-04-25T11:07:15.921Z</time></trkpt><trkpt lat="43.5948135" lon="11.7566943"><ele>560.5</ele><time>2026-04-25T11:07:16.926Z</time></trkpt><trkpt lat="43.5948663" lon="11.7565108"><ele>557.25</ele><time>2026-04-25T11:07:17.909Z</time></trkpt><trkpt lat="43.594911" lon="11.7562996"><ele>554.0</ele><time>2026-04-25T11:07:18.918Z</time></trkpt><trkpt lat="43.5949628" lon="11.7560771"><ele>560.0</ele><time>2026-04-25T11:07:19.922Z</time></trkpt><trkpt lat="43.5950498" lon="11.7558745"><ele>566.0</ele><time>2026-04-25T11:07:20.913Z</time></trkpt><trkpt lat="43.5951554" lon="11.7556867"><ele>572.0</ele><time>2026-04-25T11:07:21.901Z</time></trkpt><trkpt lat="43.5952837" lon="11.7555397"><ele>565.3333333333333</ele><time>2026-04-25T11:07:22.908Z</time></trkpt><trkpt lat="43.5954324" lon="11.7553863"><ele>558.6666666666666</ele><time>2026-04-25T11:07:23.912Z</time></trkpt><trkpt lat="43.5955856" lon="11.7551928"><ele>552.0</ele><time>2026-04-25T11:07:24.914Z</time></trkpt><trkpt lat="43.5957225" lon="11.7549767"><ele>552.0</ele><time>2026-04-25T11:07:25.912Z</time></trkpt><trkpt lat="43.5958476" lon="11.7547756"><ele>552.0</ele><time>2026-04-25T11:07:26.916Z</time></trkpt><trkpt lat="43.5959672" lon="11.7546174"><ele>552.0</ele><time>2026-04-25T11:07:27.912Z</time></trkpt><trkpt lat="43.5960788" lon="11.7544996"><ele>552.3333333333334</ele><time>2026-04-25T11:07:28.916Z</time></trkpt><trkpt lat="43.5962173" lon="11.7544117"><ele>552.6666666666667</ele><time>2026-04-25T11:07:29.913Z</time></trkpt><trkpt lat="43.5964087" lon="11.7543683"><ele>553.0</ele><time>2026-04-25T11:07:30.91Z</time></trkpt><trkpt lat="43.5966089" lon="11.7543393"><ele>553.0</ele><time>2026-04-25T11:07:31.915Z</time></trkpt><trkpt lat="43.5967937" lon="11.7543163"><ele>553.0</ele><time>2026-04-25T11:07:32.916Z</time></trkpt><trkpt lat="43.5969496" lon="11.7542365"><ele>553.0</ele><time>2026-04-25T11:07:33.905Z</time></trkpt><trkpt lat="43.5971031" lon="11.7541029"><ele>548.25</ele><time>2026-04-25T11:07:34.914Z</time></trkpt><trkpt lat="43.597243" lon="11.7539562"><ele>543.5</ele><time>2026-04-25T11:07:35.919Z</time></trkpt><trkpt lat="43.5973461" lon="11.7538429"><ele>538.75</ele><time>2026-04-25T11:07:36.916Z</time></trkpt><trkpt lat="43.5974128" lon="11.7538092"><ele>534.0</ele><time>2026-04-25T11:07:37.909Z</time></trkpt><trkpt lat="43.5974898" lon="11.7538519"><ele>534.0</ele><time>2026-04-25T11:07:38.919Z</time></trkpt><trkpt lat="43.5975463" lon="11.7539461"><ele>534.0</ele><time>2026-04-25T11:07:39.917Z</time></trkpt><trkpt lat="43.5975613" lon="11.7540551"><ele>534.0</ele><time>2026-04-25T11:07:40.915Z</time></trkpt><trkpt lat="43.597534" lon="11.7541572"><ele>534.0</ele><time>2026-04-25T11:07:41.911Z</time></trkpt><trkpt lat="43.5974646" lon="11.7542505"><ele>534.0</ele><time>2026-04-25T11:07:42.909Z</time></trkpt><trkpt lat="43.5973544" lon="11.7543151"><ele>532.4</ele><time>2026-04-25T11:07:43.912Z</time></trkpt><trkpt lat="43.5972419" lon="11.7543854"><ele>530.8</ele><time>2026-04-25T11:07:44.912Z</time></trkpt><trkpt lat="43.5971514" lon="11.7544482"><ele>529.2</ele><time>2026-04-25T11:07:45.913Z</time></trkpt><trkpt lat="43.5970807" lon="11.754505"><ele>527.6</ele><time>2026-04-25T11:07:46.902Z</time></trkpt><trkpt lat="43.5970177" lon="11.7545549"><ele>526.0</ele><time>2026-04-25T11:07:47.921Z</time></trkpt><trkpt lat="43.596954" lon="11.7546021"><ele>526.0</ele><time>2026-04-25T11:07:48.912Z</time></trkpt><trkpt lat="43.5968967" lon="11.7546646"><ele>526.0</ele><time>2026-04-25T11:07:50.911Z</time></trkpt><trkpt lat="43.5969655" lon="11.7546232"><ele>526.0</ele><time>2026-04-25T11:08:07.925Z</time></trkpt><trkpt lat="43.5970272" lon="11.7545483"><ele>526.0</ele><time>2026-04-25T11:08:10.921Z</time></trkpt><trkpt lat="43.5971418" lon="11.7544312"><ele>526.0</ele><time>2026-04-25T11:08:12.912Z</time></trkpt><trkpt lat="43.597219" lon="11.7543726"><ele>527.3333333333334</ele><time>2026-04-25T11:08:13.923Z</time></trkpt><trkpt lat="43.5973015" lon="11.7543154"><ele>528.6666666666667</ele><time>2026-04-25T11:08:14.91Z</time></trkpt><trkpt lat="43.5973866" lon="11.7542544"><ele>530.0</ele><time>2026-04-25T11:08:15.921Z</time></trkpt><trkpt lat="43.5974549" lon="11.7541863"><ele>531.3333333333334</ele><time>2026-04-25T11:08:16.916Z</time></trkpt><trkpt lat="43.5974968" lon="11.7541076"><ele>532.6666666666666</ele><time>2026-04-25T11:08:17.912Z</time></trkpt><trkpt lat="43.5975252" lon="11.7540157"><ele>534.0</ele><time>2026-04-25T11:08:18.916Z</time></trkpt><trkpt lat="43.5975424" lon="11.7538857"><ele>534.0</ele><time>2026-04-25T11:08:20.908Z</time></trkpt><trkpt lat="43.5975652" lon="11.7537691"><ele>534.0</ele><time>2026-04-25T11:08:23.916Z</time></trkpt><trkpt lat="43.5976356" lon="11.7536862"><ele>534.0</ele><time>2026-04-25T11:09:00.905Z</time></trkpt><trkpt lat="43.5976928" lon="11.7536469"><ele>534.0</ele><time>2026-04-25T11:09:01.92Z</time></trkpt><trkpt lat="43.5977509" lon="11.7536065"><ele>534.0</ele><time>2026-04-25T11:09:02.917Z</time></trkpt><trkpt lat="43.5978174" lon="11.7535702"><ele>534.0</ele><time>2026-04-25T11:09:03.924Z</time></trkpt><trkpt lat="43.5979032" lon="11.7535274"><ele>534.5</ele><time>2026-04-25T11:09:04.912Z</time></trkpt><trkpt lat="43.5980088" lon="11.7534904"><ele>535.0</ele><time>2026-04-25T11:09:05.921Z</time></trkpt><trkpt lat="43.5981217" lon="11.75345"><ele>535.5</ele><time>2026-04-25T11:09:06.908Z</time></trkpt><trkpt lat="43.5982516" lon="11.7534146"><ele>536.0</ele><time>2026-04-25T11:09:07.918Z</time></trkpt><trkpt lat="43.5983822" lon="11.7533733"><ele>536.0</ele><time>2026-04-25T11:09:08.916Z</time></trkpt><trkpt lat="43.5985013" lon="11.7533341"><ele>536.0</ele><time>2026-04-25T11:09:09.929Z</time></trkpt><trkpt lat="43.5986027" lon="11.7532843"><ele>536.0</ele><time>2026-04-25T11:09:10.918Z</time></trkpt><trkpt lat="43.598688" lon="11.7532226"><ele>536.0</ele><time>2026-04-25T11:09:11.919Z</time></trkpt><trkpt lat="43.5987477" lon="11.7531126"><ele>536.0</ele><time>2026-04-25T11:09:12.926Z</time></trkpt><trkpt lat="43.5987985" lon="11.7529885"><ele>536.25</ele><time>2026-04-25T11:09:13.914Z</time></trkpt><trkpt lat="43.5988661" lon="11.7528779"><ele>536.5</ele><time>2026-04-25T11:09:14.923Z</time></trkpt><trkpt lat="43.5989545" lon="11.7527928"><ele>536.75</ele><time>2026-04-25T11:09:15.91Z</time></trkpt><trkpt lat="43.5990681" lon="11.7527295"><ele>537.0</ele><time>2026-04-25T11:09:16.916Z</time></trkpt><trkpt lat="43.5991839" lon="11.7526721"><ele>537.0</ele><time>2026-04-25T11:09:17.912Z</time></trkpt><trkpt lat="43.5992842" lon="11.7526157"><ele>537.0</ele><time>2026-04-25T11:09:18.921Z</time></trkpt><trkpt lat="43.5993642" lon="11.7525585"><ele>537.0</ele><time>2026-04-25T11:09:19.908Z</time></trkpt><trkpt lat="43.5994495" lon="11.7525026"><ele>537.0</ele><time>2026-04-25T11:09:20.908Z</time></trkpt><trkpt lat="43.5995171" lon="11.752395"><ele>537.0</ele><time>2026-04-25T11:09:21.919Z</time></trkpt><trkpt lat="43.5995625" lon="11.7522302"><ele>535.0</ele><time>2026-04-25T11:09:22.918Z</time></trkpt><trkpt lat="43.5995994" lon="11.7520899"><ele>533.0</ele><time>2026-04-25T11:09:23.917Z</time></trkpt><trkpt lat="43.5996723" lon="11.7519723"><ele>531.0</ele><time>2026-04-25T11:09:24.918Z</time></trkpt><trkpt lat="43.5997894" lon="11.751871"><ele>529.0</ele><time>2026-04-25T11:09:25.91Z</time></trkpt><trkpt lat="43.5999151" lon="11.7517815"><ele>529.0</ele><time>2026-04-25T11:09:26.906Z</time></trkpt><trkpt lat="43.600023" lon="11.7516902"><ele>529.0</ele><time>2026-04-25T11:09:27.911Z</time></trkpt><trkpt lat="43.6001128" lon="11.7515712"><ele>529.0</ele><time>2026-04-25T11:09:28.917Z</time></trkpt><trkpt lat="43.6001959" lon="11.7514454"><ele>529.0</ele><time>2026-04-25T11:09:29.926Z</time></trkpt><trkpt lat="43.600273" lon="11.7513512"><ele>529.0</ele><time>2026-04-25T11:09:30.919Z</time></trkpt><trkpt lat="43.6003316" lon="11.7512977"><ele>529.0</ele><time>2026-04-25T11:09:31.92Z</time></trkpt><trkpt lat="43.6004238" lon="11.7513248"><ele>529.0</ele><time>2026-04-25T11:09:32.911Z</time></trkpt><trkpt lat="43.6005188" lon="11.7513787"><ele>529.0</ele><time>2026-04-25T11:09:33.908Z</time></trkpt><trkpt lat="43.6006153" lon="11.7514738"><ele>529.0</ele><time>2026-04-25T11:09:34.916Z</time></trkpt><trkpt lat="43.6006725" lon="11.7515974"><ele>531.0</ele><time>2026-04-25T11:09:35.915Z</time></trkpt><trkpt lat="43.6006798" lon="11.7517269"><ele>533.0</ele><time>2026-04-25T11:09:36.905Z</time></trkpt><trkpt lat="43.6006496" lon="11.751845"><ele>535.0</ele><time>2026-04-25T11:09:37.915Z</time></trkpt><trkpt lat="43.6005948" lon="11.7519841"><ele>537.0</ele><time>2026-04-25T11:09:38.914Z</time></trkpt><trkpt lat="43.6005302" lon="11.7521321"><ele>539.0</ele><time>2026-04-25T11:09:39.908Z</time></trkpt><trkpt lat="43.6004694" lon="11.7522674"><ele>540.4</ele><time>2026-04-25T11:09:40.919Z</time></trkpt><trkpt lat="43.6004357" lon="11.7523797"><ele>541.8</ele><time>2026-04-25T11:09:41.92Z</time></trkpt><trkpt lat="43.6004314" lon="11.7525166"><ele>543.2</ele><time>2026-04-25T11:09:42.922Z</time></trkpt><trkpt lat="43.6004374" lon="11.7526789"><ele>544.6</ele><time>2026-04-25T11:09:43.906Z</time></trkpt><trkpt lat="43.60043" lon="11.7528671"><ele>546.0</ele><time>2026-04-25T11:09:44.908Z</time></trkpt><trkpt lat="43.6003889" lon="11.7530343"><ele>549.25</ele><time>2026-04-25T11:09:45.906Z</time></trkpt><trkpt lat="43.6003503" lon="11.7531802"><ele>552.5</ele><time>2026-04-25T11:09:46.912Z</time></trkpt><trkpt lat="43.6003446" lon="11.75335"><ele>555.75</ele><time>2026-04-25T11:09:47.911Z</time></trkpt><trkpt lat="43.6003754" lon="11.7535573"><ele>559.0</ele><time>2026-04-25T11:09:48.912Z</time></trkpt><trkpt lat="43.6004048" lon="11.753753"><ele>560.0</ele><time>2026-04-25T11:09:49.911Z</time></trkpt><trkpt lat="43.6004318" lon="11.7539142"><ele>561.0</ele><time>2026-04-25T11:09:50.914Z</time></trkpt><trkpt lat="43.6004691" lon="11.7540387"><ele>562.0</ele><time>2026-04-25T11:09:51.915Z</time></trkpt><trkpt lat="43.6005098" lon="11.754118"><ele>563.0</ele><time>2026-04-25T11:09:52.905Z</time></trkpt><trkpt lat="43.6005271" lon="11.7542167"><ele>564.0</ele><time>2026-04-25T11:09:53.919Z</time></trkpt><trkpt lat="43.60049" lon="11.7542892"><ele>565.0</ele><time>2026-04-25T11:09:54.914Z</time></trkpt><trkpt lat="43.6004092" lon="11.7543203"><ele>560.0</ele><time>2026-04-25T11:09:55.911Z</time></trkpt><trkpt lat="43.6003125" lon="11.7543442"><ele>555.0</ele><time>2026-04-25T11:09:56.914Z</time></trkpt><trkpt lat="43.6002009" lon="11.7543782"><ele>550.0</ele><time>2026-04-25T11:09:57.915Z</time></trkpt><trkpt lat="43.6001171" lon="11.7544389"><ele>545.0</ele><time>2026-04-25T11:09:58.909Z</time></trkpt><trkpt lat="43.6000592" lon="11.7545316"><ele>540.0</ele><time>2026-04-25T11:09:59.917Z</time></trkpt><trkpt lat="43.6000259" lon="11.754674"><ele>540.0</ele><time>2026-04-25T11:10:00.905Z</time></trkpt><trkpt lat="43.6000068" lon="11.7548589"><ele>540.0</ele><time>2026-04-25T11:10:01.917Z</time></trkpt><trkpt lat="43.6000084" lon="11.7550563"><ele>540.0</ele><time>2026-04-25T11:10:02.906Z</time></trkpt><trkpt lat="43.6000291" lon="11.7552285"><ele>540.0</ele><time>2026-04-25T11:10:03.914Z</time></trkpt><trkpt lat="43.6000637" lon="11.7553776"><ele>540.25</ele><time>2026-04-25T11:10:04.92Z</time></trkpt><trkpt lat="43.6001411" lon="11.7555558"><ele>540.5</ele><time>2026-04-25T11:10:05.92Z</time></trkpt><trkpt lat="43.600246" lon="11.7557153"><ele>540.75</ele><time>2026-04-25T11:10:06.918Z</time></trkpt><trkpt lat="43.6003461" lon="11.7558321"><ele>541.0</ele><time>2026-04-25T11:10:07.921Z</time></trkpt><trkpt lat="43.6004651" lon="11.7559164"><ele>545.6666666666667</ele><time>2026-04-25T11:10:08.922Z</time></trkpt><trkpt lat="43.6006162" lon="11.7559952"><ele>550.3333333333334</ele><time>2026-04-25T11:10:09.907Z</time></trkpt><trkpt lat="43.6007843" lon="11.756082"><ele>555.0</ele><time>2026-04-25T11:10:10.905Z</time></trkpt><trkpt lat="43.6009501" lon="11.7561617"><ele>555.0</ele><time>2026-04-25T11:10:11.917Z</time></trkpt><trkpt lat="43.6011204" lon="11.7562466"><ele>555.0</ele><time>2026-04-25T11:10:12.914Z</time></trkpt><trkpt lat="43.6012779" lon="11.7563047"><ele>555.0</ele><time>2026-04-25T11:10:13.908Z</time></trkpt><trkpt lat="43.6013906" lon="11.7563797"><ele>559.75</ele><time>2026-04-25T11:10:14.91Z</time></trkpt><trkpt lat="43.6014801" lon="11.756484"><ele>564.5</ele><time>2026-04-25T11:10:15.903Z</time></trkpt><trkpt lat="43.6015755" lon="11.7566301"><ele>569.25</ele><time>2026-04-25T11:10:16.914Z</time></trkpt><trkpt lat="43.6016803" lon="11.7567975"><ele>574.0</ele><time>2026-04-25T11:10:17.907Z</time></trkpt><trkpt lat="43.6017816" lon="11.756938"><ele>577.2</ele><time>2026-04-25T11:10:18.916Z</time></trkpt><trkpt lat="43.6018625" lon="11.7570155"><ele>580.4</ele><time>2026-04-25T11:10:19.916Z</time></trkpt><trkpt lat="43.6019607" lon="11.757044"><ele>583.6</ele><time>2026-04-25T11:10:20.905Z</time></trkpt><trkpt lat="43.6020545" lon="11.7570188"><ele>586.8</ele><time>2026-04-25T11:10:21.909Z</time></trkpt><trkpt lat="43.6021069" lon="11.7569128"><ele>590.0</ele><time>2026-04-25T11:10:22.913Z</time></trkpt><trkpt lat="43.6021324" lon="11.7567793"><ele>591.75</ele><time>2026-04-25T11:10:23.907Z</time></trkpt><trkpt lat="43.6021008" lon="11.7566105"><ele>593.5</ele><time>2026-04-25T11:10:24.914Z</time></trkpt><trkpt lat="43.6020409" lon="11.756426"><ele>595.25</ele><time>2026-04-25T11:10:25.905Z</time></trkpt><trkpt lat="43.601975" lon="11.7562457"><ele>597.0</ele><time>2026-04-25T11:10:26.905Z</time></trkpt><trkpt lat="43.6019004" lon="11.7560871"><ele>594.6666666666666</ele><time>2026-04-25T11:10:27.914Z</time></trkpt><trkpt lat="43.6017961" lon="11.7559612"><ele>592.3333333333333</ele><time>2026-04-25T11:10:28.914Z</time></trkpt><trkpt lat="43.6016651" lon="11.7558443"><ele>590.0</ele><time>2026-04-25T11:10:29.908Z</time></trkpt><trkpt lat="43.6015115" lon="11.7557778"><ele>590.0</ele><time>2026-04-25T11:10:30.913Z</time></trkpt><trkpt lat="43.6013744" lon="11.7557168"><ele>590.0</ele><time>2026-04-25T11:10:31.909Z</time></trkpt><trkpt lat="43.6012739" lon="11.7556411"><ele>590.0</ele><time>2026-04-25T11:10:32.916Z</time></trkpt><trkpt lat="43.6012" lon="11.7555319"><ele>590.0</ele><time>2026-04-25T11:10:33.909Z</time></trkpt><trkpt lat="43.6011573" lon="11.7553829"><ele>592.0</ele><time>2026-04-25T11:10:34.911Z</time></trkpt><trkpt lat="43.601143" lon="11.7552271"><ele>594.0</ele><time>2026-04-25T11:10:35.927Z</time></trkpt><trkpt lat="43.6011539" lon="11.7550781"><ele>596.0</ele><time>2026-04-25T11:10:36.925Z</time></trkpt><trkpt lat="43.6011896" lon="11.7549585"><ele>598.0</ele><time>2026-04-25T11:10:37.904Z</time></trkpt><trkpt lat="43.6012557" lon="11.7548464"><ele>600.0</ele><time>2026-04-25T11:10:38.909Z</time></trkpt><trkpt lat="43.601366" lon="11.7547737"><ele>600.0</ele><time>2026-04-25T11:10:39.919Z</time></trkpt><trkpt lat="43.6015137" lon="11.7547307"><ele>600.0</ele><time>2026-04-25T11:10:40.912Z</time></trkpt><trkpt lat="43.6016489" lon="11.7547179"><ele>600.0</ele><time>2026-04-25T11:10:41.917Z</time></trkpt><trkpt lat="43.6017945" lon="11.7547342"><ele>600.0</ele><time>2026-04-25T11:10:42.91Z</time></trkpt><trkpt lat="43.6019715" lon="11.754787"><ele>603.6666666666666</ele><time>2026-04-25T11:10:43.914Z</time></trkpt><trkpt lat="43.6021554" lon="11.7548164"><ele>607.3333333333333</ele><time>2026-04-25T11:10:44.909Z</time></trkpt><trkpt lat="43.6023519" lon="11.7548227"><ele>611.0</ele><time>2026-04-25T11:10:45.917Z</time></trkpt><trkpt lat="43.6025258" lon="11.754829"><ele>611.0</ele><time>2026-04-25T11:10:46.909Z</time></trkpt><trkpt lat="43.6026728" lon="11.7548355"><ele>611.0</ele><time>2026-04-25T11:10:47.916Z</time></trkpt><trkpt lat="43.6028153" lon="11.7548288"><ele>611.0</ele><time>2026-04-25T11:10:48.922Z</time></trkpt><trkpt lat="43.602948" lon="11.7547908"><ele>611.0</ele><time>2026-04-25T11:10:49.923Z</time></trkpt><trkpt lat="43.6031019" lon="11.7547523"><ele>615.3333333333333</ele><time>2026-04-25T11:10:50.905Z</time></trkpt><trkpt lat="43.6032714" lon="11.7547149"><ele>619.6666666666666</ele><time>2026-04-25T11:10:51.915Z</time></trkpt><trkpt lat="43.6034641" lon="11.7547055"><ele>624.0</ele><time>2026-04-25T11:10:52.904Z</time></trkpt><trkpt lat="43.6036486" lon="11.7547019"><ele>627.6666666666666</ele><time>2026-04-25T11:10:53.918Z</time></trkpt><trkpt lat="43.6038172" lon="11.7547378"><ele>631.3333333333333</ele><time>2026-04-25T11:10:54.913Z</time></trkpt><trkpt lat="43.6039789" lon="11.7547838"><ele>635.0</ele><time>2026-04-25T11:10:55.911Z</time></trkpt><trkpt lat="43.6041298" lon="11.7548267"><ele>635.0</ele><time>2026-04-25T11:10:56.905Z</time></trkpt><trkpt lat="43.6042737" lon="11.7548404"><ele>635.0</ele><time>2026-04-25T11:10:57.909Z</time></trkpt><trkpt lat="43.6044085" lon="11.754816"><ele>635.0</ele><time>2026-04-25T11:10:58.908Z</time></trkpt><trkpt lat="43.6045316" lon="11.7548023"><ele>635.0</ele><time>2026-04-25T11:10:59.901Z</time></trkpt><trkpt lat="43.6046432" lon="11.7548055"><ele>637.8</ele><time>2026-04-25T11:11:00.914Z</time></trkpt><trkpt lat="43.6047519" lon="11.7547772"><ele>640.6</ele><time>2026-04-25T11:11:01.91Z</time></trkpt><trkpt lat="43.6048221" lon="11.7547311"><ele>643.4000000000001</ele><time>2026-04-25T11:11:02.91Z</time></trkpt><trkpt lat="43.6048629" lon="11.754656"><ele>646.2</ele><time>2026-04-25T11:11:03.929Z</time></trkpt><trkpt lat="43.6048069" lon="11.7544985"><ele>649.0</ele><time>2026-04-25T11:11:05.907Z</time></trkpt><trkpt lat="43.6047263" lon="11.754434"><ele>649.0</ele><time>2026-04-25T11:11:06.904Z</time></trkpt><trkpt lat="43.604611" lon="11.7543866"><ele>649.0</ele><time>2026-04-25T11:11:07.917Z</time></trkpt><trkpt lat="43.6044664" lon="11.7543308"><ele>649.0</ele><time>2026-04-25T11:11:08.91Z</time></trkpt><trkpt lat="43.6043485" lon="11.7542776"><ele>649.0</ele><time>2026-04-25T11:11:09.908Z</time></trkpt><trkpt lat="43.6042567" lon="11.7541991"><ele>644.75</ele><time>2026-04-25T11:11:10.917Z</time></trkpt><trkpt lat="43.6041887" lon="11.7540659"><ele>640.5</ele><time>2026-04-25T11:11:11.916Z</time></trkpt><trkpt lat="43.6041089" lon="11.7539017"><ele>636.25</ele><time>2026-04-25T11:11:12.908Z</time></trkpt><trkpt lat="43.6039971" lon="11.7537428"><ele>632.0</ele><time>2026-04-25T11:11:13.91Z</time></trkpt><trkpt lat="43.6039074" lon="11.7536458"><ele>632.0</ele><time>2026-04-25T11:11:14.902Z</time></trkpt><trkpt lat="43.6038277" lon="11.7535665"><ele>632.0</ele><time>2026-04-25T11:11:15.907Z</time></trkpt><trkpt lat="43.6037223" lon="11.7535207"><ele>632.0</ele><time>2026-04-25T11:11:16.911Z</time></trkpt><trkpt lat="43.603624" lon="11.7534637"><ele>632.0</ele><time>2026-04-25T11:11:17.909Z</time></trkpt><trkpt lat="43.6035338" lon="11.7534028"><ele>632.0</ele><time>2026-04-25T11:11:18.915Z</time></trkpt><trkpt lat="43.6034737" lon="11.753333"><ele>632.3333333333333</ele><time>2026-04-25T11:11:19.922Z</time></trkpt><trkpt lat="43.6034316" lon="11.7531935"><ele>632.6666666666666</ele><time>2026-04-25T11:11:21.908Z</time></trkpt><trkpt lat="43.6034135" lon="11.7530926"><ele>633.0</ele><time>2026-04-25T11:11:23.905Z</time></trkpt><trkpt lat="43.6034607" lon="11.7530139"><ele>633.3333333333334</ele><time>2026-04-25T11:11:35.913Z</time></trkpt><trkpt lat="43.6035202" lon="11.7530779"><ele>633.6666666666667</ele><time>2026-04-25T11:11:38.92Z</time></trkpt><trkpt lat="43.6035836" lon="11.7531199"><ele>634.0</ele><time>2026-04-25T11:11:41.917Z</time></trkpt><trkpt lat="43.6036482" lon="11.7531527"><ele>637.4</ele><time>2026-04-25T11:11:51.921Z</time></trkpt><trkpt lat="43.6037731" lon="11.7531778"><ele>640.8</ele><time>2026-04-25T11:11:53.921Z</time></trkpt><trkpt lat="43.6038425" lon="11.7532"><ele>644.1999999999999</ele><time>2026-04-25T11:11:54.922Z</time></trkpt><trkpt lat="43.6039079" lon="11.7532255"><ele>647.5999999999999</ele><time>2026-04-25T11:11:55.921Z</time></trkpt><trkpt lat="43.6040201" lon="11.753276"><ele>651.0</ele><time>2026-04-25T11:11:57.914Z</time></trkpt><trkpt lat="43.6041249" lon="11.7533365"><ele>651.0</ele><time>2026-04-25T11:11:59.914Z</time></trkpt><trkpt lat="43.6042236" lon="11.7533977"><ele>651.0</ele><time>2026-04-25T11:12:01.912Z</time></trkpt><trkpt lat="43.604301" lon="11.7534593"><ele>651.0</ele><time>2026-04-25T11:12:03.919Z</time></trkpt><trkpt lat="43.6043931" lon="11.7535895"><ele>651.0</ele><time>2026-04-25T11:12:05.909Z</time></trkpt><trkpt lat="43.6044452" lon="11.7536703"><ele>651.0</ele><time>2026-04-25T11:12:06.918Z</time></trkpt><trkpt lat="43.6045086" lon="11.7537441"><ele>650.1666666666666</ele><time>2026-04-25T11:12:07.925Z</time></trkpt><trkpt lat="43.6045661" lon="11.7538108"><ele>649.3333333333334</ele><time>2026-04-25T11:12:08.918Z</time></trkpt><trkpt lat="43.6046238" lon="11.7538727"><ele>648.5</ele><time>2026-04-25T11:12:09.916Z</time></trkpt><trkpt lat="43.6047326" lon="11.7539349"><ele>647.6666666666667</ele><time>2026-04-25T11:12:11.919Z</time></trkpt><trkpt lat="43.6047947" lon="11.7539137"><ele>646.8333333333334</ele><time>2026-04-25T11:12:12.914Z</time></trkpt><trkpt lat="43.6048654" lon="11.7538701"><ele>646.0</ele><time>2026-04-25T11:12:13.917Z</time></trkpt><trkpt lat="43.604938" lon="11.7538099"><ele>646.0</ele><time>2026-04-25T11:12:14.909Z</time></trkpt><trkpt lat="43.6050086" lon="11.7537608"><ele>646.0</ele><time>2026-04-25T11:12:15.911Z</time></trkpt><trkpt lat="43.6050909" lon="11.7537209"><ele>646.0</ele><time>2026-04-25T11:12:16.91Z</time></trkpt><trkpt lat="43.6051658" lon="11.7536816"><ele>646.0</ele><time>2026-04-25T11:12:17.914Z</time></trkpt><trkpt lat="43.6052351" lon="11.75364"><ele>646.0</ele><time>2026-04-25T11:12:18.907Z</time></trkpt><trkpt lat="43.6052973" lon="11.7535754"><ele>646.0</ele><time>2026-04-25T11:12:19.905Z</time></trkpt><trkpt lat="43.6053536" lon="11.7534951"><ele>649.6666666666667</ele><time>2026-04-25T11:12:20.921Z</time></trkpt><trkpt lat="43.605408" lon="11.7533937"><ele>653.3333333333334</ele><time>2026-04-25T11:12:21.916Z</time></trkpt><trkpt lat="43.6054695" lon="11.7533085"><ele>657.0</ele><time>2026-04-25T11:12:22.913Z</time></trkpt><trkpt lat="43.605523" lon="11.7532507"><ele>660.6666666666666</ele><time>2026-04-25T11:12:23.925Z</time></trkpt><trkpt lat="43.6056447" lon="11.7532513"><ele>664.3333333333333</ele><time>2026-04-25T11:12:25.906Z</time></trkpt><trkpt lat="43.605713" lon="11.7532736"><ele>668.0</ele><time>2026-04-25T11:12:26.922Z</time></trkpt><trkpt lat="43.6057846" lon="11.7532578"><ele>668.0</ele><time>2026-04-25T11:12:27.912Z</time></trkpt><trkpt lat="43.6058553" lon="11.753193"><ele>668.0</ele><time>2026-04-25T11:12:28.904Z</time></trkpt><trkpt lat="43.6059267" lon="11.7531149"><ele>668.0</ele><time>2026-04-25T11:12:29.912Z</time></trkpt><trkpt lat="43.606" lon="11.7530358"><ele>668.0</ele><time>2026-04-25T11:12:30.904Z</time></trkpt><trkpt lat="43.6060728" lon="11.7529442"><ele>668.0</ele><time>2026-04-25T11:12:31.908Z</time></trkpt><trkpt lat="43.6061456" lon="11.7528424"><ele>669.6666666666666</ele><time>2026-04-25T11:12:32.912Z</time></trkpt><trkpt lat="43.6062191" lon="11.7527526"><ele>671.3333333333333</ele><time>2026-04-25T11:12:33.913Z</time></trkpt><trkpt lat="43.606275" lon="11.752675"><ele>673.0</ele><time>2026-04-25T11:12:34.917Z</time></trkpt><trkpt lat="43.6063203" lon="11.7525215"><ele>674.6666666666666</ele><time>2026-04-25T11:12:36.914Z</time></trkpt><trkpt lat="43.6063475" lon="11.7524419"><ele>676.3333333333334</ele><time>2026-04-25T11:12:37.907Z</time></trkpt><trkpt lat="43.6063725" lon="11.7523308"><ele>678.0</ele><time>2026-04-25T11:12:38.923Z</time></trkpt><trkpt lat="43.6064097" lon="11.7522102"><ele>679.4</ele><time>2026-04-25T11:12:39.912Z</time></trkpt><trkpt lat="43.6064679" lon="11.752119"><ele>680.8</ele><time>2026-04-25T11:12:40.922Z</time></trkpt><trkpt lat="43.6065484" lon="11.7520426"><ele>682.2</ele><time>2026-04-25T11:12:41.911Z</time></trkpt><trkpt lat="43.6066312" lon="11.7519713"><ele>683.6</ele><time>2026-04-25T11:12:42.92Z</time></trkpt><trkpt lat="43.6067186" lon="11.7519084"><ele>685.0</ele><time>2026-04-25T11:12:43.912Z</time></trkpt><trkpt lat="43.6068185" lon="11.7518629"><ele>686.4</ele><time>2026-04-25T11:12:44.915Z</time></trkpt><trkpt lat="43.6069149" lon="11.7518149"><ele>687.8</ele><time>2026-04-25T11:12:45.915Z</time></trkpt><trkpt lat="43.6070117" lon="11.7517738"><ele>689.2</ele><time>2026-04-25T11:12:46.918Z</time></trkpt><trkpt lat="43.6071143" lon="11.7517358"><ele>690.6</ele><time>2026-04-25T11:12:47.906Z</time></trkpt><trkpt lat="43.607205" lon="11.7516876"><ele>692.0</ele><time>2026-04-25T11:12:48.913Z</time></trkpt><trkpt lat="43.6072776" lon="11.7516369"><ele>695.6</ele><time>2026-04-25T11:12:49.912Z</time></trkpt><trkpt lat="43.6073441" lon="11.7515702"><ele>699.2</ele><time>2026-04-25T11:12:50.909Z</time></trkpt><trkpt lat="43.6074108" lon="11.7515001"><ele>702.8</ele><time>2026-04-25T11:12:51.913Z</time></trkpt><trkpt lat="43.6074837" lon="11.7514105"><ele>706.4</ele><time>2026-04-25T11:12:52.905Z</time></trkpt><trkpt lat="43.607567" lon="11.7513227"><ele>710.0</ele><time>2026-04-25T11:12:53.922Z</time></trkpt><trkpt lat="43.6076299" lon="11.7512513"><ele>710.0</ele><time>2026-04-25T11:12:54.915Z</time></trkpt><trkpt lat="43.6076881" lon="11.7511891"><ele>710.0</ele><time>2026-04-25T11:12:55.914Z</time></trkpt><trkpt lat="43.6077429" lon="11.7511283"><ele>710.0</ele><time>2026-04-25T11:12:56.918Z</time></trkpt><trkpt lat="43.6078061" lon="11.751018"><ele>710.0</ele><time>2026-04-25T11:12:58.911Z</time></trkpt><trkpt lat="43.6078558" lon="11.7509454"><ele>710.0</ele><time>2026-04-25T11:13:10.904Z</time></trkpt><trkpt lat="43.6079312" lon="11.7510241"><ele>710.0</ele><time>2026-04-25T11:13:13.916Z</time></trkpt><trkpt lat="43.6079129" lon="11.7511616"><ele>710.0</ele><time>2026-04-25T11:13:15.91Z</time></trkpt><trkpt lat="43.6078747" lon="11.7512425"><ele>710.0</ele><time>2026-04-25T11:13:16.915Z</time></trkpt><trkpt lat="43.607847" lon="11.7513226"><ele>710.0</ele><time>2026-04-25T11:13:17.912Z</time></trkpt><trkpt lat="43.6078391" lon="11.7514124"><ele>710.0</ele><time>2026-04-25T11:13:18.91Z</time></trkpt><trkpt lat="43.6078373" lon="11.7515139"><ele>710.0</ele><time>2026-04-25T11:13:19.904Z</time></trkpt><trkpt lat="43.6078335" lon="11.7516298"><ele>710.0</ele><time>2026-04-25T11:13:20.913Z</time></trkpt><trkpt lat="43.607833" lon="11.7517448"><ele>710.0</ele><time>2026-04-25T11:13:21.914Z</time></trkpt><trkpt lat="43.6078267" lon="11.7518711"><ele>710.0</ele><time>2026-04-25T11:13:22.904Z</time></trkpt><trkpt lat="43.60783" lon="11.7519887"><ele>710.0</ele><time>2026-04-25T11:13:23.904Z</time></trkpt><trkpt lat="43.6078324" lon="11.7521157"><ele>710.0</ele><time>2026-04-25T11:13:24.907Z</time></trkpt><trkpt lat="43.6078276" lon="11.7522471"><ele>710.0</ele><time>2026-04-25T11:13:25.907Z</time></trkpt><trkpt lat="43.6078232" lon="11.7523705"><ele>710.0</ele><time>2026-04-25T11:13:26.906Z</time></trkpt><trkpt lat="43.6078275" lon="11.7524914"><ele>714.8</ele><time>2026-04-25T11:13:27.916Z</time></trkpt><trkpt lat="43.6078642" lon="11.7525946"><ele>719.6</ele><time>2026-04-25T11:13:28.906Z</time></trkpt><trkpt lat="43.6079167" lon="11.7526936"><ele>724.4000000000001</ele><time>2026-04-25T11:13:29.921Z</time></trkpt><trkpt lat="43.6079777" lon="11.7527905"><ele>729.2</ele><time>2026-04-25T11:13:30.906Z</time></trkpt><trkpt lat="43.6080371" lon="11.752894"><ele>734.0</ele><time>2026-04-25T11:13:31.903Z</time></trkpt><trkpt lat="43.608094" lon="11.7529958"><ele>734.0</ele><time>2026-04-25T11:13:32.907Z</time></trkpt><trkpt lat="43.6081448" lon="11.7530983"><ele>734.0</ele><time>2026-04-25T11:13:33.911Z</time></trkpt><trkpt lat="43.6081965" lon="11.7532028"><ele>734.0</ele><time>2026-04-25T11:13:34.905Z</time></trkpt><trkpt lat="43.608257" lon="11.7533141"><ele>734.0</ele><time>2026-04-25T11:13:35.915Z</time></trkpt><trkpt lat="43.6083173" lon="11.7534365"><ele>734.0</ele><time>2026-04-25T11:13:36.915Z</time></trkpt><trkpt lat="43.6083702" lon="11.7535599"><ele>733.2</ele><time>2026-04-25T11:13:37.917Z</time></trkpt><trkpt lat="43.6084199" lon="11.7536785"><ele>732.4000000000001</ele><time>2026-04-25T11:13:38.918Z</time></trkpt><trkpt lat="43.6084493" lon="11.7538104"><ele>731.6</ele><time>2026-04-25T11:13:39.922Z</time></trkpt><trkpt lat="43.6084674" lon="11.7539473"><ele>730.8</ele><time>2026-04-25T11:13:40.912Z</time></trkpt><trkpt lat="43.6084839" lon="11.7540837"><ele>730.0</ele><time>2026-04-25T11:13:41.91Z</time></trkpt><trkpt lat="43.6084981" lon="11.7542219"><ele>730.0</ele><time>2026-04-25T11:13:42.905Z</time></trkpt><trkpt lat="43.6085054" lon="11.7543628"><ele>730.0</ele><time>2026-04-25T11:13:43.914Z</time></trkpt><trkpt lat="43.6085104" lon="11.7544957"><ele>730.0</ele><time>2026-04-25T11:13:44.906Z</time></trkpt><trkpt lat="43.608506" lon="11.7546323"><ele>730.0</ele><time>2026-04-25T11:13:45.912Z</time></trkpt><trkpt lat="43.6084891" lon="11.7547616"><ele>730.0</ele><time>2026-04-25T11:13:46.916Z</time></trkpt><trkpt lat="43.6084773" lon="11.7548929"><ele>731.3333333333334</ele><time>2026-04-25T11:13:47.907Z</time></trkpt><trkpt lat="43.6084716" lon="11.755031"><ele>732.6666666666667</ele><time>2026-04-25T11:13:48.916Z</time></trkpt><trkpt lat="43.6084636" lon="11.7551474"><ele>734.0</ele><time>2026-04-25T11:13:49.909Z</time></trkpt><trkpt lat="43.6084502" lon="11.7552488"><ele>735.3333333333334</ele><time>2026-04-25T11:13:50.908Z</time></trkpt><trkpt lat="43.6084372" lon="11.7553585"><ele>736.6666666666666</ele><time>2026-04-25T11:13:51.91Z</time></trkpt><trkpt lat="43.6084124" lon="11.7554418"><ele>738.0</ele><time>2026-04-25T11:13:52.911Z</time></trkpt><trkpt lat="43.6083095" lon="11.7555158"><ele>741.1666666666666</ele><time>2026-04-25T11:13:54.918Z</time></trkpt><trkpt lat="43.6082318" lon="11.7555298"><ele>744.3333333333334</ele><time>2026-04-25T11:13:55.914Z</time></trkpt><trkpt lat="43.6081563" lon="11.7555575"><ele>747.5</ele><time>2026-04-25T11:13:56.917Z</time></trkpt><trkpt lat="43.608074" lon="11.7556081"><ele>750.6666666666667</ele><time>2026-04-25T11:13:57.912Z</time></trkpt><trkpt lat="43.6079864" lon="11.7556744"><ele>753.8333333333334</ele><time>2026-04-25T11:13:58.905Z</time></trkpt><trkpt lat="43.6079024" lon="11.7557511"><ele>757.0</ele><time>2026-04-25T11:13:59.918Z</time></trkpt><trkpt lat="43.6078322" lon="11.7558368"><ele>758.1666666666667</ele><time>2026-04-25T11:14:00.907Z</time></trkpt><trkpt lat="43.607764" lon="11.7559203"><ele>759.3333333333334</ele><time>2026-04-25T11:14:01.919Z</time></trkpt><trkpt lat="43.6077008" lon="11.7560006"><ele>760.5</ele><time>2026-04-25T11:14:02.904Z</time></trkpt><trkpt lat="43.6076354" lon="11.7560722"><ele>761.6666666666666</ele><time>2026-04-25T11:14:03.917Z</time></trkpt><trkpt lat="43.6075652" lon="11.7561483"><ele>762.8333333333333</ele><time>2026-04-25T11:14:04.918Z</time></trkpt><trkpt lat="43.6074844" lon="11.7562253"><ele>764.0</ele><time>2026-04-25T11:14:05.908Z</time></trkpt><trkpt lat="43.6074058" lon="11.7563149"><ele>764.0</ele><time>2026-04-25T11:14:06.906Z</time></trkpt><trkpt lat="43.6073299" lon="11.7564189"><ele>764.0</ele><time>2026-04-25T11:14:07.912Z</time></trkpt><trkpt lat="43.607282" lon="11.7565158"><ele>764.0</ele><time>2026-04-25T11:14:08.905Z</time></trkpt><trkpt lat="43.6072513" lon="11.7565932"><ele>764.0</ele><time>2026-04-25T11:14:09.911Z</time></trkpt><trkpt lat="43.6072196" lon="11.756684"><ele>764.0</ele><time>2026-04-25T11:14:10.911Z</time></trkpt><trkpt lat="43.6071783" lon="11.7567584"><ele>764.0</ele><time>2026-04-25T11:14:11.925Z</time></trkpt><trkpt lat="43.6071211" lon="11.7568253"><ele>764.0</ele><time>2026-04-25T11:14:12.911Z</time></trkpt><trkpt lat="43.6070434" lon="11.7569036"><ele>764.0</ele><time>2026-04-25T11:14:13.912Z</time></trkpt><trkpt lat="43.6069656" lon="11.7569852"><ele>764.0</ele><time>2026-04-25T11:14:14.917Z</time></trkpt><trkpt lat="43.6068926" lon="11.757071"><ele>764.0</ele><time>2026-04-25T11:14:15.917Z</time></trkpt><trkpt lat="43.6068309" lon="11.7571704"><ele>764.0</ele><time>2026-04-25T11:14:16.912Z</time></trkpt><trkpt lat="43.6067712" lon="11.7572701"><ele>764.0</ele><time>2026-04-25T11:14:17.92Z</time></trkpt><trkpt lat="43.6067248" lon="11.7573521"><ele>764.0</ele><time>2026-04-25T11:14:18.916Z</time></trkpt><trkpt lat="43.6066852" lon="11.7574231"><ele>764.0</ele><time>2026-04-25T11:14:19.917Z</time></trkpt><trkpt lat="43.6066716" lon="11.757562"><ele>764.0</ele><time>2026-04-25T11:14:21.908Z</time></trkpt><trkpt lat="43.6067487" lon="11.7576033"><ele>764.0</ele><time>2026-04-25T11:14:23.907Z</time></trkpt><trkpt lat="43.6068163" lon="11.7575837"><ele>764.0</ele><time>2026-04-25T11:14:24.922Z</time></trkpt><trkpt lat="43.6069038" lon="11.7575623"><ele>766.25</ele><time>2026-04-25T11:14:25.905Z</time></trkpt><trkpt lat="43.6070164" lon="11.7575547"><ele>768.5</ele><time>2026-04-25T11:14:26.913Z</time></trkpt><trkpt lat="43.6071371" lon="11.7575584"><ele>770.75</ele><time>2026-04-25T11:14:27.925Z</time></trkpt><trkpt lat="43.6072668" lon="11.7575617"><ele>773.0</ele><time>2026-04-25T11:14:28.912Z</time></trkpt><trkpt lat="43.6073882" lon="11.7575609"><ele>773.0</ele><time>2026-04-25T11:14:29.909Z</time></trkpt><trkpt lat="43.607515" lon="11.7575457"><ele>773.0</ele><time>2026-04-25T11:14:30.911Z</time></trkpt><trkpt lat="43.6076427" lon="11.7575269"><ele>773.0</ele><time>2026-04-25T11:14:31.901Z</time></trkpt><trkpt lat="43.6077814" lon="11.757504"><ele>773.0</ele><time>2026-04-25T11:14:32.912Z</time></trkpt><trkpt lat="43.6079222" lon="11.7574782"><ele>775.5</ele><time>2026-04-25T11:14:33.923Z</time></trkpt><trkpt lat="43.6080484" lon="11.757451"><ele>778.0</ele><time>2026-04-25T11:14:34.919Z</time></trkpt><trkpt lat="43.6081698" lon="11.7574274"><ele>780.5</ele><time>2026-04-25T11:14:35.909Z</time></trkpt><trkpt lat="43.6082773" lon="11.7574165"><ele>783.0</ele><time>2026-04-25T11:14:36.913Z</time></trkpt><trkpt lat="43.6083739" lon="11.7573997"><ele>783.0</ele><time>2026-04-25T11:14:37.916Z</time></trkpt><trkpt lat="43.608462" lon="11.7573657"><ele>783.0</ele><time>2026-04-25T11:14:38.912Z</time></trkpt><trkpt lat="43.6085517" lon="11.7573196"><ele>783.0</ele><time>2026-04-25T11:14:39.91Z</time></trkpt><trkpt lat="43.6086435" lon="11.7572786"><ele>783.0</ele><time>2026-04-25T11:14:40.914Z</time></trkpt><trkpt lat="43.608742" lon="11.7572665"><ele>783.0</ele><time>2026-04-25T11:14:41.918Z</time></trkpt><trkpt lat="43.6088254" lon="11.7572575"><ele>784.5999999999999</ele><time>2026-04-25T11:14:42.922Z</time></trkpt><trkpt lat="43.6089221" lon="11.7572605"><ele>786.1999999999999</ele><time>2026-04-25T11:14:44.911Z</time></trkpt><trkpt lat="43.6090262" lon="11.7572833"><ele>787.8</ele><time>2026-04-25T11:14:46.913Z</time></trkpt><trkpt lat="43.609098" lon="11.7573349"><ele>789.4</ele><time>2026-04-25T11:14:47.902Z</time></trkpt><trkpt lat="43.6091819" lon="11.7574005"><ele>791.0</ele><time>2026-04-25T11:14:48.917Z</time></trkpt><trkpt lat="43.6092683" lon="11.7574731"><ele>791.0000000000001</ele><time>2026-04-25T11:14:49.91Z</time></trkpt><trkpt lat="43.6093492" lon="11.7575349"><ele>791.0</ele><time>2026-04-25T11:14:50.907Z</time></trkpt><trkpt lat="43.6094263" lon="11.7575925"><ele>791.0</ele><time>2026-04-25T11:14:51.916Z</time></trkpt><trkpt lat="43.6095076" lon="11.7576394"><ele>791.0</ele><time>2026-04-25T11:14:52.907Z</time></trkpt><trkpt lat="43.6095839" lon="11.7576873"><ele>791.0000000000001</ele><time>2026-04-25T11:14:53.919Z</time></trkpt><trkpt lat="43.6096545" lon="11.7577396"><ele>791.0</ele><time>2026-04-25T11:14:54.922Z</time></trkpt><trkpt lat="43.6097293" lon="11.7577739"><ele>791.5999999999999</ele><time>2026-04-25T11:14:55.922Z</time></trkpt><trkpt lat="43.6098144" lon="11.7577934"><ele>792.2</ele><time>2026-04-25T11:14:56.904Z</time></trkpt><trkpt lat="43.6099065" lon="11.7577782"><ele>792.8</ele><time>2026-04-25T11:14:57.898Z</time></trkpt><trkpt lat="43.6100098" lon="11.7577393"><ele>793.4000000000001</ele><time>2026-04-25T11:14:58.92Z</time></trkpt><trkpt lat="43.6101105" lon="11.7576849"><ele>794.0</ele><time>2026-04-25T11:14:59.921Z</time></trkpt><trkpt lat="43.6102064" lon="11.7576476"><ele>794.0000000000001</ele><time>2026-04-25T11:15:00.91Z</time></trkpt><trkpt lat="43.6102905" lon="11.7576321"><ele>794.0</ele><time>2026-04-25T11:15:01.915Z</time></trkpt><trkpt lat="43.6103619" lon="11.7576397"><ele>794.0</ele><time>2026-04-25T11:15:02.913Z</time></trkpt><trkpt lat="43.610437" lon="11.757727"><ele>794.0</ele><time>2026-04-25T11:15:04.911Z</time></trkpt><trkpt lat="43.6104335" lon="11.7578349"><ele>794.0000000000001</ele><time>2026-04-25T11:15:06.905Z</time></trkpt><trkpt lat="43.610411" lon="11.7579299"><ele>794.0</ele><time>2026-04-25T11:15:07.909Z</time></trkpt><trkpt lat="43.6103699" lon="11.7580527"><ele>790.6666666666667</ele><time>2026-04-25T11:15:08.904Z</time></trkpt><trkpt lat="43.610319" lon="11.7581644"><ele>787.3333333333334</ele><time>2026-04-25T11:15:09.908Z</time></trkpt><trkpt lat="43.6102841" lon="11.7582834"><ele>784.0</ele><time>2026-04-25T11:15:10.907Z</time></trkpt><trkpt lat="43.6102652" lon="11.7584046"><ele>780.6666666666667</ele><time>2026-04-25T11:15:11.906Z</time></trkpt><trkpt lat="43.61027" lon="11.7585146"><ele>777.3333333333334</ele><time>2026-04-25T11:15:12.909Z</time></trkpt><trkpt lat="43.6102831" lon="11.7586028"><ele>774.0</ele><time>2026-04-25T11:15:13.909Z</time></trkpt><trkpt lat="43.6102926" lon="11.7586895"><ele>774.0</ele><time>2026-04-25T11:15:14.91Z</time></trkpt><trkpt lat="43.6102395" lon="11.7588217"><ele>774.0</ele><time>2026-04-25T11:15:16.91Z</time></trkpt><trkpt lat="43.6101538" lon="11.7589675"><ele>774.0</ele><time>2026-04-25T11:15:18.908Z</time></trkpt><trkpt lat="43.6100954" lon="11.7590731"><ele>774.0</ele><time>2026-04-25T11:15:19.939Z</time></trkpt><trkpt lat="43.6100733" lon="11.7591808"><ele>774.0</ele><time>2026-04-25T11:15:20.933Z</time></trkpt><trkpt lat="43.6100658" lon="11.759284"><ele>774.2857142857143</ele><time>2026-04-25T11:15:21.907Z</time></trkpt><trkpt lat="43.6100806" lon="11.7593698"><ele>774.5714285714287</ele><time>2026-04-25T11:15:22.923Z</time></trkpt><trkpt lat="43.6101205" lon="11.7594444"><ele>774.8571428571429</ele><time>2026-04-25T11:15:23.91Z</time></trkpt><trkpt lat="43.6101663" lon="11.7595092"><ele>775.1428571428571</ele><time>2026-04-25T11:15:24.914Z</time></trkpt><trkpt lat="43.6102202" lon="11.7595703"><ele>775.4285714285714</ele><time>2026-04-25T11:15:25.902Z</time></trkpt><trkpt lat="43.6102701" lon="11.7596369"><ele>775.7142857142857</ele><time>2026-04-25T11:15:26.908Z</time></trkpt><trkpt lat="43.6103069" lon="11.7597325"><ele>776.0</ele><time>2026-04-25T11:15:27.907Z</time></trkpt><trkpt lat="43.6103164" lon="11.7598374"><ele>776.0000000000001</ele><time>2026-04-25T11:15:28.912Z</time></trkpt><trkpt lat="43.6103239" lon="11.7599326"><ele>776.0</ele><time>2026-04-25T11:15:29.907Z</time></trkpt><trkpt lat="43.6104236" lon="11.7600392"><ele>776.0</ele><time>2026-04-25T11:15:31.909Z</time></trkpt><trkpt lat="43.6104879" lon="11.7600427"><ele>776.0</ele><time>2026-04-25T11:15:32.9Z</time></trkpt><trkpt lat="43.6105633" lon="11.7600326"><ele>776.0000000000001</ele><time>2026-04-25T11:15:33.916Z</time></trkpt><trkpt lat="43.6106413" lon="11.7600431"><ele>776.0</ele><time>2026-04-25T11:15:34.905Z</time></trkpt><trkpt lat="43.6107097" lon="11.7600759"><ele>781.8</ele><time>2026-04-25T11:15:35.916Z</time></trkpt><trkpt lat="43.6107694" lon="11.7601245"><ele>787.5999999999999</ele><time>2026-04-25T11:15:36.907Z</time></trkpt><trkpt lat="43.610829" lon="11.7602717"><ele>793.4</ele><time>2026-04-25T11:15:38.913Z</time></trkpt><trkpt lat="43.6108265" lon="11.760366"><ele>799.2</ele><time>2026-04-25T11:15:39.903Z</time></trkpt><trkpt lat="43.6108063" lon="11.7605019"><ele>805.0</ele><time>2026-04-25T11:15:40.908Z</time></trkpt><trkpt lat="43.6107538" lon="11.7606205"><ele>804.9999999999999</ele><time>2026-04-25T11:15:41.906Z</time></trkpt><trkpt lat="43.6107068" lon="11.7607146"><ele>805.0</ele><time>2026-04-25T11:15:42.918Z</time></trkpt><trkpt lat="43.6106717" lon="11.7607947"><ele>805.0</ele><time>2026-04-25T11:15:43.905Z</time></trkpt><trkpt lat="43.6106774" lon="11.7609466"><ele>805.0</ele><time>2026-04-25T11:15:45.913Z</time></trkpt><trkpt lat="43.6107023" lon="11.7610363"><ele>804.9999999999999</ele><time>2026-04-25T11:15:46.907Z</time></trkpt><trkpt lat="43.6107343" lon="11.7611305"><ele>805.0</ele><time>2026-04-25T11:15:47.91Z</time></trkpt><trkpt lat="43.6107737" lon="11.761208"><ele>803.6</ele><time>2026-04-25T11:15:48.904Z</time></trkpt><trkpt lat="43.61083" lon="11.7612775"><ele>802.2</ele><time>2026-04-25T11:15:49.916Z</time></trkpt><trkpt lat="43.6109086" lon="11.7613448"><ele>800.8</ele><time>2026-04-25T11:15:50.907Z</time></trkpt><trkpt lat="43.6109887" lon="11.7614125"><ele>799.4</ele><time>2026-04-25T11:15:51.91Z</time></trkpt><trkpt lat="43.6110687" lon="11.7614859"><ele>798.0</ele><time>2026-04-25T11:15:52.918Z</time></trkpt><trkpt lat="43.6111484" lon="11.761558"><ele>805.4</ele><time>2026-04-25T11:15:53.905Z</time></trkpt><trkpt lat="43.6112294" lon="11.7616099"><ele>812.8</ele><time>2026-04-25T11:15:54.913Z</time></trkpt><trkpt lat="43.6112923" lon="11.7616551"><ele>820.2</ele><time>2026-04-25T11:15:55.913Z</time></trkpt><trkpt lat="43.6113518" lon="11.7617657"><ele>827.6</ele><time>2026-04-25T11:15:57.909Z</time></trkpt><trkpt lat="43.6112994" lon="11.7618682"><ele>835.0</ele><time>2026-04-25T11:15:59.919Z</time></trkpt><trkpt lat="43.6112559" lon="11.7620625"><ele>836.8</ele><time>2026-04-25T11:16:01.909Z</time></trkpt><trkpt lat="43.6112327" lon="11.7621875"><ele>838.6</ele><time>2026-04-25T11:16:02.909Z</time></trkpt><trkpt lat="43.6111983" lon="11.7623301"><ele>840.4000000000001</ele><time>2026-04-25T11:16:03.906Z</time></trkpt><trkpt lat="43.611139" lon="11.7624517"><ele>842.2</ele><time>2026-04-25T11:16:04.91Z</time></trkpt><trkpt lat="43.611069" lon="11.7625608"><ele>844.0</ele><time>2026-04-25T11:16:05.915Z</time></trkpt><trkpt lat="43.6109962" lon="11.7626668"><ele>837.6</ele><time>2026-04-25T11:16:06.91Z</time></trkpt><trkpt lat="43.6109353" lon="11.7627587"><ele>831.2</ele><time>2026-04-25T11:16:07.911Z</time></trkpt><trkpt lat="43.6108796" lon="11.7628963"><ele>824.8000000000001</ele><time>2026-04-25T11:16:09.918Z</time></trkpt><trkpt lat="43.6109256" lon="11.7630334"><ele>818.4000000000001</ele><time>2026-04-25T11:16:11.905Z</time></trkpt><trkpt lat="43.6109636" lon="11.7631182"><ele>812.0</ele><time>2026-04-25T11:16:12.903Z</time></trkpt><trkpt lat="43.61101" lon="11.7632049"><ele>812.0</ele><time>2026-04-25T11:16:13.91Z</time></trkpt><trkpt lat="43.6110653" lon="11.763315"><ele>812.0</ele><time>2026-04-25T11:16:14.903Z</time></trkpt><trkpt lat="43.6111395" lon="11.7634294"><ele>812.0</ele><time>2026-04-25T11:16:15.923Z</time></trkpt><trkpt lat="43.611208" lon="11.7635537"><ele>812.0</ele><time>2026-04-25T11:16:16.912Z</time></trkpt><trkpt lat="43.6112682" lon="11.7636755"><ele>812.0</ele><time>2026-04-25T11:16:17.908Z</time></trkpt><trkpt lat="43.6113239" lon="11.7637951"><ele>817.0</ele><time>2026-04-25T11:16:18.907Z</time></trkpt><trkpt lat="43.611388" lon="11.7638849"><ele>822.0</ele><time>2026-04-25T11:16:19.904Z</time></trkpt><trkpt lat="43.611462" lon="11.7639703"><ele>827.0</ele><time>2026-04-25T11:16:20.919Z</time></trkpt><trkpt lat="43.611548" lon="11.7640527"><ele>832.0</ele><time>2026-04-25T11:16:21.914Z</time></trkpt><trkpt lat="43.6116423" lon="11.764135"><ele>837.0</ele><time>2026-04-25T11:16:22.92Z</time></trkpt><trkpt lat="43.6117458" lon="11.7642004"><ele>837.0</ele><time>2026-04-25T11:16:23.913Z</time></trkpt><trkpt lat="43.6118429" lon="11.7642604"><ele>837.0</ele><time>2026-04-25T11:16:24.904Z</time></trkpt><trkpt lat="43.6119184" lon="11.764337"><ele>837.0</ele><time>2026-04-25T11:16:25.908Z</time></trkpt><trkpt lat="43.6119708" lon="11.7644365"><ele>837.0</ele><time>2026-04-25T11:16:26.911Z</time></trkpt><trkpt lat="43.6120098" lon="11.7645305"><ele>837.0</ele><time>2026-04-25T11:16:27.912Z</time></trkpt><trkpt lat="43.6120477" lon="11.7646291"><ele>837.0</ele><time>2026-04-25T11:16:28.911Z</time></trkpt><trkpt lat="43.6120996" lon="11.764724"><ele>837.6</ele><time>2026-04-25T11:16:29.918Z</time></trkpt><trkpt lat="43.612172" lon="11.7648266"><ele>838.2</ele><time>2026-04-25T11:16:30.909Z</time></trkpt><trkpt lat="43.6122571" lon="11.7649273"><ele>838.8</ele><time>2026-04-25T11:16:31.911Z</time></trkpt><trkpt lat="43.6123549" lon="11.7650146"><ele>839.4</ele><time>2026-04-25T11:16:32.907Z</time></trkpt><trkpt lat="43.6124457" lon="11.7650838"><ele>840.0</ele><time>2026-04-25T11:16:33.914Z</time></trkpt><trkpt lat="43.6125323" lon="11.7651314"><ele>840.0</ele><time>2026-04-25T11:16:34.915Z</time></trkpt><trkpt lat="43.6126217" lon="11.7651702"><ele>840.0</ele><time>2026-04-25T11:16:35.917Z</time></trkpt><trkpt lat="43.6127211" lon="11.7652218"><ele>840.0</ele><time>2026-04-25T11:16:36.917Z</time></trkpt><trkpt lat="43.6128096" lon="11.7652635"><ele>840.0</ele><time>2026-04-25T11:16:37.915Z</time></trkpt><trkpt lat="43.6128922" lon="11.7652943"><ele>840.0</ele><time>2026-04-25T11:16:38.927Z</time></trkpt><trkpt lat="43.6129741" lon="11.7653161"><ele>840.5</ele><time>2026-04-25T11:16:39.911Z</time></trkpt><trkpt lat="43.6130399" lon="11.7653107"><ele>841.0</ele><time>2026-04-25T11:16:40.929Z</time></trkpt><trkpt lat="43.6131083" lon="11.7652797"><ele>841.5</ele><time>2026-04-25T11:16:41.904Z</time></trkpt><trkpt lat="43.6131708" lon="11.7652244"><ele>842.0</ele><time>2026-04-25T11:16:42.908Z</time></trkpt><trkpt lat="43.6132736" lon="11.7651808"><ele>842.5</ele><time>2026-04-25T11:16:44.924Z</time></trkpt><trkpt lat="43.6133259" lon="11.7652306"><ele>843.0</ele><time>2026-04-25T11:16:45.915Z</time></trkpt><trkpt lat="43.6133819" lon="11.7653158"><ele>841.6666666666666</ele><time>2026-04-25T11:16:46.91Z</time></trkpt><trkpt lat="43.6134482" lon="11.7654295"><ele>840.3333333333333</ele><time>2026-04-25T11:16:47.911Z</time></trkpt><trkpt lat="43.6135129" lon="11.7655377"><ele>839.0</ele><time>2026-04-25T11:16:48.906Z</time></trkpt><trkpt lat="43.6135735" lon="11.7655946"><ele>837.6666666666666</ele><time>2026-04-25T11:16:49.927Z</time></trkpt><trkpt lat="43.6136429" lon="11.7656062"><ele>836.3333333333333</ele><time>2026-04-25T11:16:50.916Z</time></trkpt><trkpt lat="43.6137263" lon="11.7655958"><ele>835.0</ele><time>2026-04-25T11:16:51.927Z</time></trkpt><trkpt lat="43.6138231" lon="11.765586"><ele>835.0</ele><time>2026-04-25T11:16:52.919Z</time></trkpt><trkpt lat="43.6139191" lon="11.7656277"><ele>835.0</ele><time>2026-04-25T11:16:53.909Z</time></trkpt><trkpt lat="43.6140267" lon="11.7656785"><ele>835.0</ele><time>2026-04-25T11:16:54.911Z</time></trkpt><trkpt lat="43.6141365" lon="11.7657245"><ele>835.0</ele><time>2026-04-25T11:16:55.915Z</time></trkpt><trkpt lat="43.6142379" lon="11.7657488"><ele>835.0</ele><time>2026-04-25T11:16:56.909Z</time></trkpt><trkpt lat="43.614302" lon="11.7657994"><ele>834.9999999999999</ele><time>2026-04-25T11:16:57.912Z</time></trkpt><trkpt lat="43.6143471" lon="11.7658678"><ele>835.0</ele><time>2026-04-25T11:16:58.918Z</time></trkpt><trkpt lat="43.6143645" lon="11.7659569"><ele>835.0</ele><time>2026-04-25T11:16:59.91Z</time></trkpt><trkpt lat="43.6143736" lon="11.7660575"><ele>835.0</ele><time>2026-04-25T11:17:00.911Z</time></trkpt><trkpt lat="43.614385" lon="11.7661972"><ele>834.9999999999999</ele><time>2026-04-25T11:17:01.928Z</time></trkpt><trkpt lat="43.6143976" lon="11.7663464"><ele>835.0</ele><time>2026-04-25T11:17:02.899Z</time></trkpt><trkpt lat="43.6144062" lon="11.7664666"><ele>834.1666666666666</ele><time>2026-04-25T11:17:03.913Z</time></trkpt><trkpt lat="43.6144088" lon="11.766596"><ele>833.3333333333333</ele><time>2026-04-25T11:17:05.908Z</time></trkpt><trkpt lat="43.6144131" lon="11.7667656"><ele>832.5</ele><time>2026-04-25T11:17:07.912Z</time></trkpt><trkpt lat="43.6144312" lon="11.7668577"><ele>831.6666666666667</ele><time>2026-04-25T11:17:08.919Z</time></trkpt><trkpt lat="43.6144614" lon="11.7669351"><ele>830.8333333333334</ele><time>2026-04-25T11:17:09.905Z</time></trkpt><trkpt lat="43.6145089" lon="11.7669984"><ele>830.0</ele><time>2026-04-25T11:17:10.918Z</time></trkpt><trkpt lat="43.6145785" lon="11.7670541"><ele>830.0</ele><time>2026-04-25T11:17:11.908Z</time></trkpt><trkpt lat="43.6146717" lon="11.7670813"><ele>830.0</ele><time>2026-04-25T11:17:12.906Z</time></trkpt><trkpt lat="43.6147697" lon="11.7670974"><ele>830.0</ele><time>2026-04-25T11:17:13.901Z</time></trkpt><trkpt lat="43.6148682" lon="11.7671161"><ele>830.0</ele><time>2026-04-25T11:17:14.917Z</time></trkpt><trkpt lat="43.614964" lon="11.7671446"><ele>830.0</ele><time>2026-04-25T11:17:15.908Z</time></trkpt><trkpt lat="43.6150484" lon="11.767211"><ele>830.0</ele><time>2026-04-25T11:17:16.906Z</time></trkpt><trkpt lat="43.6151406" lon="11.7672923"><ele>830.0</ele><time>2026-04-25T11:17:17.907Z</time></trkpt><trkpt lat="43.6152406" lon="11.7673775"><ele>830.0</ele><time>2026-04-25T11:17:18.902Z</time></trkpt><trkpt lat="43.6153282" lon="11.7674607"><ele>830.0</ele><time>2026-04-25T11:17:19.912Z</time></trkpt><trkpt lat="43.6154033" lon="11.7675598"><ele>830.0</ele><time>2026-04-25T11:17:20.911Z</time></trkpt><trkpt lat="43.6154601" lon="11.7676766"><ele>830.4</ele><time>2026-04-25T11:17:21.912Z</time></trkpt><trkpt lat="43.615509" lon="11.7677963"><ele>830.8</ele><time>2026-04-25T11:17:22.92Z</time></trkpt><trkpt lat="43.6155771" lon="11.7679191"><ele>831.2</ele><time>2026-04-25T11:17:23.907Z</time></trkpt><trkpt lat="43.6156407" lon="11.7680164"><ele>831.6</ele><time>2026-04-25T11:17:24.911Z</time></trkpt><trkpt lat="43.6157158" lon="11.7680848"><ele>832.0</ele><time>2026-04-25T11:17:25.914Z</time></trkpt><trkpt lat="43.6157952" lon="11.7681316"><ele>832.0</ele><time>2026-04-25T11:17:26.918Z</time></trkpt><trkpt lat="43.6158878" lon="11.7681551"><ele>832.0</ele><time>2026-04-25T11:17:27.92Z</time></trkpt><trkpt lat="43.6159835" lon="11.7681838"><ele>832.0</ele><time>2026-04-25T11:17:28.914Z</time></trkpt><trkpt lat="43.6160824" lon="11.7681982"><ele>832.0</ele><time>2026-04-25T11:17:29.908Z</time></trkpt><trkpt lat="43.6161586" lon="11.7682123"><ele>832.0</ele><time>2026-04-25T11:17:30.92Z</time></trkpt><trkpt lat="43.6162634" lon="11.7681805"><ele>829.6</ele><time>2026-04-25T11:17:32.909Z</time></trkpt><trkpt lat="43.6163183" lon="11.76803"><ele>827.2</ele><time>2026-04-25T11:17:34.927Z</time></trkpt><trkpt lat="43.6163379" lon="11.7679469"><ele>824.8</ele><time>2026-04-25T11:17:35.907Z</time></trkpt><trkpt lat="43.6164567" lon="11.7678877"><ele>822.4</ele><time>2026-04-25T11:17:37.908Z</time></trkpt><trkpt lat="43.6165376" lon="11.7678718"><ele>820.0</ele><time>2026-04-25T11:17:38.903Z</time></trkpt><trkpt lat="43.6166222" lon="11.7678539"><ele>820.0</ele><time>2026-04-25T11:17:39.906Z</time></trkpt><trkpt lat="43.6167186" lon="11.7678421"><ele>820.0</ele><time>2026-04-25T11:17:40.918Z</time></trkpt><trkpt lat="43.6168145" lon="11.7678167"><ele>820.0</ele><time>2026-04-25T11:17:41.912Z</time></trkpt><trkpt lat="43.6169052" lon="11.767778"><ele>820.0</ele><time>2026-04-25T11:17:42.913Z</time></trkpt><trkpt lat="43.616998" lon="11.7677233"><ele>820.0</ele><time>2026-04-25T11:17:43.918Z</time></trkpt><trkpt lat="43.6170867" lon="11.7676672"><ele>817.6</ele><time>2026-04-25T11:17:44.917Z</time></trkpt><trkpt lat="43.6171761" lon="11.7675958"><ele>815.2</ele><time>2026-04-25T11:17:45.909Z</time></trkpt><trkpt lat="43.6172673" lon="11.7675212"><ele>812.8</ele><time>2026-04-25T11:17:46.906Z</time></trkpt><trkpt lat="43.6173508" lon="11.7674441"><ele>810.4</ele><time>2026-04-25T11:17:47.908Z</time></trkpt><trkpt lat="43.617435" lon="11.7673618"><ele>808.0</ele><time>2026-04-25T11:17:48.913Z</time></trkpt><trkpt lat="43.6175233" lon="11.7672778"><ele>808.0</ele><time>2026-04-25T11:17:49.909Z</time></trkpt><trkpt lat="43.6176087" lon="11.7671988"><ele>808.0</ele><time>2026-04-25T11:17:50.911Z</time></trkpt><trkpt lat="43.6176929" lon="11.767115"><ele>808.0</ele><time>2026-04-25T11:17:51.92Z</time></trkpt><trkpt lat="43.6177819" lon="11.7670337"><ele>808.0</ele><time>2026-04-25T11:17:52.911Z</time></trkpt><trkpt lat="43.6178706" lon="11.7669858"><ele>808.0</ele><time>2026-04-25T11:17:53.911Z</time></trkpt><trkpt lat="43.6179636" lon="11.7669582"><ele>804.4</ele><time>2026-04-25T11:17:54.907Z</time></trkpt><trkpt lat="43.6180523" lon="11.7669287"><ele>800.8</ele><time>2026-04-25T11:17:55.905Z</time></trkpt><trkpt lat="43.6181428" lon="11.766881"><ele>797.2</ele><time>2026-04-25T11:17:56.903Z</time></trkpt><trkpt lat="43.6182219" lon="11.7668032"><ele>793.6</ele><time>2026-04-25T11:17:57.911Z</time></trkpt><trkpt lat="43.618298" lon="11.7667209"><ele>790.0</ele><time>2026-04-25T11:17:58.908Z</time></trkpt><trkpt lat="43.6183759" lon="11.7666427"><ele>789.9999999999999</ele><time>2026-04-25T11:17:59.906Z</time></trkpt><trkpt lat="43.6184566" lon="11.7665666"><ele>790.0</ele><time>2026-04-25T11:18:00.911Z</time></trkpt><trkpt lat="43.6185383" lon="11.7664915"><ele>790.0</ele><time>2026-04-25T11:18:01.901Z</time></trkpt><trkpt lat="43.6186123" lon="11.7664243"><ele>790.0</ele><time>2026-04-25T11:18:02.914Z</time></trkpt><trkpt lat="43.6186598" lon="11.7663405"><ele>789.9999999999999</ele><time>2026-04-25T11:18:03.916Z</time></trkpt><trkpt lat="43.618702" lon="11.7662501"><ele>790.0</ele><time>2026-04-25T11:18:04.904Z</time></trkpt><trkpt lat="43.6187223" lon="11.7661615"><ele>787.1666666666666</ele><time>2026-04-25T11:18:05.912Z</time></trkpt><trkpt lat="43.6187238" lon="11.7660725"><ele>784.3333333333333</ele><time>2026-04-25T11:18:06.912Z</time></trkpt><trkpt lat="43.6187093" lon="11.7659807"><ele>781.5</ele><time>2026-04-25T11:18:07.908Z</time></trkpt><trkpt lat="43.6186884" lon="11.7658892"><ele>778.6666666666667</ele><time>2026-04-25T11:18:08.911Z</time></trkpt><trkpt lat="43.6187165" lon="11.765766"><ele>775.8333333333334</ele><time>2026-04-25T11:18:10.909Z</time></trkpt><trkpt lat="43.6188183" lon="11.7657134"><ele>773.0</ele><time>2026-04-25T11:18:12.909Z</time></trkpt><trkpt lat="43.6188829" lon="11.7656875"><ele>773.0</ele><time>2026-04-25T11:18:13.906Z</time></trkpt><trkpt lat="43.6189546" lon="11.7656305"><ele>773.0</ele><time>2026-04-25T11:18:14.912Z</time></trkpt><trkpt lat="43.6190187" lon="11.7655494"><ele>773.0</ele><time>2026-04-25T11:18:15.911Z</time></trkpt><trkpt lat="43.6190802" lon="11.7654383"><ele>773.0</ele><time>2026-04-25T11:18:16.904Z</time></trkpt><trkpt lat="43.6191414" lon="11.7652917"><ele>773.0</ele><time>2026-04-25T11:18:17.914Z</time></trkpt><trkpt lat="43.6192242" lon="11.7651698"><ele>776.0</ele><time>2026-04-25T11:18:18.905Z</time></trkpt><trkpt lat="43.6193054" lon="11.7650752"><ele>779.0</ele><time>2026-04-25T11:18:19.914Z</time></trkpt><trkpt lat="43.619374" lon="11.7649808"><ele>782.0</ele><time>2026-04-25T11:18:20.902Z</time></trkpt><trkpt lat="43.6194183" lon="11.7648631"><ele>785.0</ele><time>2026-04-25T11:18:21.925Z</time></trkpt><trkpt lat="43.6194502" lon="11.7647328"><ele>788.0</ele><time>2026-04-25T11:18:22.91Z</time></trkpt><trkpt lat="43.619471" lon="11.7645883"><ele>790.0</ele><time>2026-04-25T11:18:23.903Z</time></trkpt><trkpt lat="43.6194871" lon="11.7644502"><ele>792.0</ele><time>2026-04-25T11:18:24.913Z</time></trkpt><trkpt lat="43.6194884" lon="11.7643446"><ele>794.0</ele><time>2026-04-25T11:18:25.918Z</time></trkpt><trkpt lat="43.6194696" lon="11.7642568"><ele>796.0</ele><time>2026-04-25T11:18:26.908Z</time></trkpt><trkpt lat="43.6194508" lon="11.7640989"><ele>798.0</ele><time>2026-04-25T11:18:28.907Z</time></trkpt><trkpt lat="43.6195282" lon="11.7639631"><ele>791.5999999999999</ele><time>2026-04-25T11:18:30.908Z</time></trkpt><trkpt lat="43.6195994" lon="11.7639236"><ele>785.1999999999999</ele><time>2026-04-25T11:18:31.91Z</time></trkpt><trkpt lat="43.619669" lon="11.7638924"><ele>778.8</ele><time>2026-04-25T11:18:32.902Z</time></trkpt><trkpt lat="43.6197467" lon="11.7638154"><ele>772.4</ele><time>2026-04-25T11:18:33.92Z</time></trkpt><trkpt lat="43.6198104" lon="11.7636995"><ele>766.0</ele><time>2026-04-25T11:18:34.912Z</time></trkpt><trkpt lat="43.6198497" lon="11.7635292"><ele>766.0</ele><time>2026-04-25T11:18:35.906Z</time></trkpt><trkpt lat="43.6198762" lon="11.7633578"><ele>766.0</ele><time>2026-04-25T11:18:36.899Z</time></trkpt><trkpt lat="43.6198868" lon="11.7632002"><ele>766.0</ele><time>2026-04-25T11:18:37.906Z</time></trkpt><trkpt lat="43.6198931" lon="11.7630548"><ele>766.0</ele><time>2026-04-25T11:18:38.908Z</time></trkpt><trkpt lat="43.6199074" lon="11.7629207"><ele>766.0</ele><time>2026-04-25T11:18:39.903Z</time></trkpt><trkpt lat="43.6199383" lon="11.7627835"><ele>766.8</ele><time>2026-04-25T11:18:40.906Z</time></trkpt><trkpt lat="43.619974" lon="11.7626461"><ele>767.5999999999999</ele><time>2026-04-25T11:18:41.909Z</time></trkpt><trkpt lat="43.6200069" lon="11.7625095"><ele>768.4</ele><time>2026-04-25T11:18:42.905Z</time></trkpt><trkpt lat="43.6200375" lon="11.7623779"><ele>769.2</ele><time>2026-04-25T11:18:43.911Z</time></trkpt><trkpt lat="43.6200523" lon="11.7622399"><ele>770.0</ele><time>2026-04-25T11:18:44.908Z</time></trkpt><trkpt lat="43.6200573" lon="11.7621093"><ele>770.0</ele><time>2026-04-25T11:18:45.899Z</time></trkpt><trkpt lat="43.6200597" lon="11.7619775"><ele>770.0</ele><time>2026-04-25T11:18:46.901Z</time></trkpt><trkpt lat="43.6200625" lon="11.7618467"><ele>770.0</ele><time>2026-04-25T11:18:47.913Z</time></trkpt><trkpt lat="43.6200718" lon="11.761719"><ele>770.0</ele><time>2026-04-25T11:18:48.903Z</time></trkpt><trkpt lat="43.6200783" lon="11.761601"><ele>770.0</ele><time>2026-04-25T11:18:49.907Z</time></trkpt><trkpt lat="43.6200791" lon="11.7614885"><ele>769.8333333333334</ele><time>2026-04-25T11:18:50.904Z</time></trkpt><trkpt lat="43.6200785" lon="11.761388"><ele>769.6666666666667</ele><time>2026-04-25T11:18:51.911Z</time></trkpt><trkpt lat="43.6200688" lon="11.7612957"><ele>769.5</ele><time>2026-04-25T11:18:52.912Z</time></trkpt><trkpt lat="43.6200267" lon="11.7612061"><ele>769.3333333333333</ele><time>2026-04-25T11:18:53.906Z</time></trkpt><trkpt lat="43.6199769" lon="11.761107"><ele>769.1666666666666</ele><time>2026-04-25T11:18:54.905Z</time></trkpt><trkpt lat="43.6199193" lon="11.7610321"><ele>769.0</ele><time>2026-04-25T11:18:55.899Z</time></trkpt><trkpt lat="43.619865" lon="11.7609706"><ele>767.4000000000001</ele><time>2026-04-25T11:18:56.906Z</time></trkpt><trkpt lat="43.6198212" lon="11.7608464"><ele>765.8</ele><time>2026-04-25T11:18:58.906Z</time></trkpt><trkpt lat="43.6198895" lon="11.7607207"><ele>764.2</ele><time>2026-04-25T11:19:00.917Z</time></trkpt><trkpt lat="43.6199486" lon="11.7606792"><ele>762.5999999999999</ele><time>2026-04-25T11:19:01.91Z</time></trkpt><trkpt lat="43.6200275" lon="11.760582"><ele>761.0</ele><time>2026-04-25T11:19:02.905Z</time></trkpt><trkpt lat="43.6201091" lon="11.7604741"><ele>761.0</ele><time>2026-04-25T11:19:03.903Z</time></trkpt><trkpt lat="43.6201689" lon="11.760403"><ele>761.0</ele><time>2026-04-25T11:19:04.92Z</time></trkpt><trkpt lat="43.6202318" lon="11.7603879"><ele>761.0</ele><time>2026-04-25T11:19:05.904Z</time></trkpt><trkpt lat="43.620344" lon="11.760458"><ele>761.0</ele><time>2026-04-25T11:19:07.906Z</time></trkpt><trkpt lat="43.6203975" lon="11.7605266"><ele>761.0</ele><time>2026-04-25T11:19:08.906Z</time></trkpt><trkpt lat="43.620429" lon="11.7606041"><ele>761.0</ele><time>2026-04-25T11:19:09.906Z</time></trkpt><trkpt lat="43.6204591" lon="11.7606894"><ele>760.4285714285713</ele><time>2026-04-25T11:19:10.916Z</time></trkpt><trkpt lat="43.6204654" lon="11.7607814"><ele>759.8571428571429</ele><time>2026-04-25T11:19:11.913Z</time></trkpt><trkpt lat="43.6204509" lon="11.7608787"><ele>759.2857142857142</ele><time>2026-04-25T11:19:12.901Z</time></trkpt><trkpt lat="43.6204465" lon="11.7609753"><ele>758.7142857142857</ele><time>2026-04-25T11:19:13.896Z</time></trkpt><trkpt lat="43.6204511" lon="11.7610621"><ele>758.1428571428571</ele><time>2026-04-25T11:19:14.897Z</time></trkpt><trkpt lat="43.6204834" lon="11.7611382"><ele>757.5714285714286</ele><time>2026-04-25T11:19:15.895Z</time></trkpt><trkpt lat="43.6205251" lon="11.7612216"><ele>757.0</ele><time>2026-04-25T11:19:16.908Z</time></trkpt><trkpt lat="43.6205813" lon="11.7613049"><ele>756.2</ele><time>2026-04-25T11:19:17.899Z</time></trkpt><trkpt lat="43.6206558" lon="11.7614058"><ele>755.4000000000001</ele><time>2026-04-25T11:19:18.91Z</time></trkpt><trkpt lat="43.6207312" lon="11.761508"><ele>754.5999999999999</ele><time>2026-04-25T11:19:19.908Z</time></trkpt><trkpt lat="43.6208095" lon="11.7615902"><ele>753.8</ele><time>2026-04-25T11:19:20.901Z</time></trkpt><trkpt lat="43.620874" lon="11.7616435"><ele>753.0</ele><time>2026-04-25T11:19:21.898Z</time></trkpt><trkpt lat="43.6209334" lon="11.761704"><ele>753.0</ele><time>2026-04-25T11:19:22.892Z</time></trkpt><trkpt lat="43.6209885" lon="11.7617936"><ele>753.0</ele><time>2026-04-25T11:19:23.909Z</time></trkpt><trkpt lat="43.6210358" lon="11.7618892"><ele>753.0</ele><time>2026-04-25T11:19:24.904Z</time></trkpt><trkpt lat="43.6210771" lon="11.7620038"><ele>753.0</ele><time>2026-04-25T11:19:25.893Z</time></trkpt><trkpt lat="43.6211171" lon="11.7621454"><ele>753.0</ele><time>2026-04-25T11:19:26.901Z</time></trkpt><trkpt lat="43.6211293" lon="11.762306"><ele>753.4</ele><time>2026-04-25T11:19:27.895Z</time></trkpt><trkpt lat="43.6211385" lon="11.76248"><ele>753.8</ele><time>2026-04-25T11:19:28.894Z</time></trkpt><trkpt lat="43.6211565" lon="11.7626512"><ele>754.2</ele><time>2026-04-25T11:19:29.896Z</time></trkpt><trkpt lat="43.6211778" lon="11.7627707"><ele>754.6</ele><time>2026-04-25T11:19:30.906Z</time></trkpt><trkpt lat="43.6212112" lon="11.7628691"><ele>755.0</ele><time>2026-04-25T11:19:31.904Z</time></trkpt><trkpt lat="43.6212628" lon="11.7629514"><ele>752.8</ele><time>2026-04-25T11:19:32.899Z</time></trkpt><trkpt lat="43.6213354" lon="11.7630187"><ele>750.6</ele><time>2026-04-25T11:19:33.902Z</time></trkpt><trkpt lat="43.6214135" lon="11.7630884"><ele>748.4000000000001</ele><time>2026-04-25T11:19:34.92Z</time></trkpt><trkpt lat="43.6215016" lon="11.7631617"><ele>746.2</ele><time>2026-04-25T11:19:35.901Z</time></trkpt><trkpt lat="43.6215856" lon="11.7632119"><ele>744.0</ele><time>2026-04-25T11:19:36.928Z</time></trkpt><trkpt lat="43.6216648" lon="11.7632449"><ele>744.0</ele><time>2026-04-25T11:19:37.928Z</time></trkpt><trkpt lat="43.6217303" lon="11.7632606"><ele>744.0</ele><time>2026-04-25T11:19:38.9Z</time></trkpt><trkpt lat="43.621822" lon="11.7633057"><ele>744.0</ele><time>2026-04-25T11:19:40.92Z</time></trkpt><trkpt lat="43.6218564" lon="11.7633948"><ele>744.0</ele><time>2026-04-25T11:19:42.903Z</time></trkpt><trkpt lat="43.621863" lon="11.7635388"><ele>744.0</ele><time>2026-04-25T11:19:44.909Z</time></trkpt><trkpt lat="43.6218912" lon="11.7637191"><ele>742.8000000000001</ele><time>2026-04-25T11:19:46.924Z</time></trkpt><trkpt lat="43.6219227" lon="11.7638176"><ele>741.6</ele><time>2026-04-25T11:19:47.906Z</time></trkpt><trkpt lat="43.6219691" lon="11.7639184"><ele>740.4</ele><time>2026-04-25T11:19:48.915Z</time></trkpt><trkpt lat="43.6220235" lon="11.7640179"><ele>739.2</ele><time>2026-04-25T11:19:49.92Z</time></trkpt><trkpt lat="43.6221022" lon="11.7641027"><ele>738.0</ele><time>2026-04-25T11:19:50.91Z</time></trkpt><trkpt lat="43.6222028" lon="11.7642007"><ele>738.0</ele><time>2026-04-25T11:19:51.911Z</time></trkpt><trkpt lat="43.6223034" lon="11.7642905"><ele>738.0</ele><time>2026-04-25T11:19:52.91Z</time></trkpt><trkpt lat="43.6223945" lon="11.7643877"><ele>738.0</ele><time>2026-04-25T11:19:53.914Z</time></trkpt><trkpt lat="43.6224741" lon="11.7644911"><ele>738.0</ele><time>2026-04-25T11:19:54.909Z</time></trkpt><trkpt lat="43.6225403" lon="11.7645988"><ele>738.0</ele><time>2026-04-25T11:19:55.911Z</time></trkpt><trkpt lat="43.6225954" lon="11.7646929"><ele>737.1666666666666</ele><time>2026-04-25T11:19:56.913Z</time></trkpt><trkpt lat="43.6226578" lon="11.7647687"><ele>736.3333333333334</ele><time>2026-04-25T11:19:57.918Z</time></trkpt><trkpt lat="43.6227412" lon="11.7648333"><ele>735.5</ele><time>2026-04-25T11:19:58.914Z</time></trkpt><trkpt lat="43.6228332" lon="11.7648836"><ele>734.6666666666667</ele><time>2026-04-25T11:19:59.905Z</time></trkpt><trkpt lat="43.6229152" lon="11.7649265"><ele>733.8333333333334</ele><time>2026-04-25T11:20:00.907Z</time></trkpt><trkpt lat="43.6229841" lon="11.7649565"><ele>733.0</ele><time>2026-04-25T11:20:01.918Z</time></trkpt><trkpt lat="43.6230472" lon="11.7650027"><ele>733.0</ele><time>2026-04-25T11:20:02.917Z</time></trkpt><trkpt lat="43.6230925" lon="11.7650681"><ele>733.0</ele><time>2026-04-25T11:20:03.909Z</time></trkpt><trkpt lat="43.6231232" lon="11.7651495"><ele>733.0</ele><time>2026-04-25T11:20:04.918Z</time></trkpt><trkpt lat="43.6231663" lon="11.7652937"><ele>733.0</ele><time>2026-04-25T11:20:06.912Z</time></trkpt><trkpt lat="43.623105" lon="11.7654185"><ele>733.0</ele><time>2026-04-25T11:20:08.913Z</time></trkpt><trkpt lat="43.6230681" lon="11.7654917"><ele>733.0</ele><time>2026-04-25T11:20:12.915Z</time></trkpt><trkpt lat="43.6231415" lon="11.7655789"><ele>730.8333333333334</ele><time>2026-04-25T11:20:19.905Z</time></trkpt><trkpt lat="43.6232098" lon="11.765605"><ele>728.6666666666667</ele><time>2026-04-25T11:20:20.9Z</time></trkpt><trkpt lat="43.6232813" lon="11.7656616"><ele>726.5</ele><time>2026-04-25T11:20:21.904Z</time></trkpt><trkpt lat="43.6233519" lon="11.7657414"><ele>724.3333333333334</ele><time>2026-04-25T11:20:22.898Z</time></trkpt><trkpt lat="43.6234084" lon="11.7658217"><ele>722.1666666666666</ele><time>2026-04-25T11:20:23.91Z</time></trkpt><trkpt lat="43.6234282" lon="11.7659637"><ele>720.0</ele><time>2026-04-25T11:20:25.905Z</time></trkpt><trkpt lat="43.6234056" lon="11.7660495"><ele>719.1428571428571</ele><time>2026-04-25T11:20:27.91Z</time></trkpt><trkpt lat="43.6234203" lon="11.7661367"><ele>718.2857142857143</ele><time>2026-04-25T11:20:29.9Z</time></trkpt><trkpt lat="43.6234423" lon="11.7662446"><ele>717.4285714285714</ele><time>2026-04-25T11:20:31.906Z</time></trkpt><trkpt lat="43.6234742" lon="11.766324"><ele>716.5714285714286</ele><time>2026-04-25T11:20:34.905Z</time></trkpt><trkpt lat="43.6234809" lon="11.7662149"><ele>715.7142857142858</ele><time>2026-04-25T11:21:44.915Z</time></trkpt><trkpt lat="43.6234312" lon="11.7661584"><ele>714.8571428571429</ele><time>2026-04-25T11:21:46.907Z</time></trkpt><trkpt lat="43.6233874" lon="11.7662378"><ele>714.0</ele><time>2026-04-25T11:21:48.915Z</time></trkpt><trkpt lat="43.6233721" lon="11.7664537"><ele>714.0</ele><time>2026-04-25T11:21:50.91Z</time></trkpt><trkpt lat="43.6233533" lon="11.7666067"><ele>714.0</ele><time>2026-04-25T11:21:51.908Z</time></trkpt><trkpt lat="43.6233146" lon="11.7667248"><ele>714.0</ele><time>2026-04-25T11:21:52.914Z</time></trkpt><trkpt lat="43.6232401" lon="11.7668099"><ele>714.0</ele><time>2026-04-25T11:21:53.908Z</time></trkpt><trkpt lat="43.6231292" lon="11.766878"><ele>714.0</ele><time>2026-04-25T11:21:54.92Z</time></trkpt><trkpt lat="43.6230005" lon="11.7669385"><ele>714.25</ele><time>2026-04-25T11:21:55.906Z</time></trkpt><trkpt lat="43.62288" lon="11.7670222"><ele>714.5</ele><time>2026-04-25T11:21:56.906Z</time></trkpt><trkpt lat="43.6227938" lon="11.7671156"><ele>714.75</ele><time>2026-04-25T11:21:57.903Z</time></trkpt><trkpt lat="43.6227105" lon="11.7672364"><ele>715.0</ele><time>2026-04-25T11:21:58.915Z</time></trkpt><trkpt lat="43.622621" lon="11.7673563"><ele>713.8</ele><time>2026-04-25T11:21:59.904Z</time></trkpt><trkpt lat="43.622535" lon="11.7674601"><ele>712.6</ele><time>2026-04-25T11:22:00.902Z</time></trkpt><trkpt lat="43.6224662" lon="11.7675689"><ele>711.4000000000001</ele><time>2026-04-25T11:22:01.914Z</time></trkpt><trkpt lat="43.6224097" lon="11.7676855"><ele>710.2</ele><time>2026-04-25T11:22:02.917Z</time></trkpt><trkpt lat="43.622366" lon="11.7677971"><ele>709.0</ele><time>2026-04-25T11:22:03.904Z</time></trkpt><trkpt lat="43.622325" lon="11.7679094"><ele>708.2</ele><time>2026-04-25T11:22:04.908Z</time></trkpt><trkpt lat="43.6222836" lon="11.7680134"><ele>707.4000000000001</ele><time>2026-04-25T11:22:05.912Z</time></trkpt><trkpt lat="43.6222452" lon="11.7681081"><ele>706.6</ele><time>2026-04-25T11:22:06.902Z</time></trkpt><trkpt lat="43.6222268" lon="11.7682051"><ele>705.8</ele><time>2026-04-25T11:22:07.907Z</time></trkpt><trkpt lat="43.6222828" lon="11.7683723"><ele>705.0</ele><time>2026-04-25T11:22:09.909Z</time></trkpt><trkpt lat="43.6223834" lon="11.7684745"><ele>699.75</ele><time>2026-04-25T11:22:10.912Z</time></trkpt><trkpt lat="43.622513" lon="11.7685427"><ele>694.5</ele><time>2026-04-25T11:22:11.904Z</time></trkpt><trkpt lat="43.6226188" lon="11.7686522"><ele>689.25</ele><time>2026-04-25T11:22:12.907Z</time></trkpt><trkpt lat="43.6227267" lon="11.7687489"><ele>684.0</ele><time>2026-04-25T11:22:13.906Z</time></trkpt><trkpt lat="43.622842" lon="11.7688328"><ele>684.0</ele><time>2026-04-25T11:22:14.91Z</time></trkpt><trkpt lat="43.6229748" lon="11.7688698"><ele>684.0</ele><time>2026-04-25T11:22:15.922Z</time></trkpt><trkpt lat="43.6231196" lon="11.7688774"><ele>684.0</ele><time>2026-04-25T11:22:16.921Z</time></trkpt><trkpt lat="43.623279" lon="11.7688596"><ele>684.0</ele><time>2026-04-25T11:22:17.911Z</time></trkpt><trkpt lat="43.623434" lon="11.7688137"><ele>684.0</ele><time>2026-04-25T11:22:18.915Z</time></trkpt><trkpt lat="43.6235676" lon="11.7687857"><ele>684.0</ele><time>2026-04-25T11:22:19.918Z</time></trkpt><trkpt lat="43.6236992" lon="11.7687945"><ele>684.0</ele><time>2026-04-25T11:22:20.912Z</time></trkpt><trkpt lat="43.6238371" lon="11.7688743"><ele>684.0</ele><time>2026-04-25T11:22:21.91Z</time></trkpt><trkpt lat="43.6239802" lon="11.7689779"><ele>684.5</ele><time>2026-04-25T11:22:22.918Z</time></trkpt><trkpt lat="43.6241116" lon="11.7690619"><ele>685.0</ele><time>2026-04-25T11:22:23.907Z</time></trkpt><trkpt lat="43.6242191" lon="11.7691187"><ele>685.5</ele><time>2026-04-25T11:22:24.917Z</time></trkpt><trkpt lat="43.6243192" lon="11.7691607"><ele>686.0</ele><time>2026-04-25T11:22:25.914Z</time></trkpt><trkpt lat="43.6244097" lon="11.7692231"><ele>684.4</ele><time>2026-04-25T11:22:26.907Z</time></trkpt><trkpt lat="43.6244904" lon="11.7693032"><ele>682.8</ele><time>2026-04-25T11:22:27.906Z</time></trkpt><trkpt lat="43.6245488" lon="11.7694146"><ele>681.1999999999999</ele><time>2026-04-25T11:22:28.919Z</time></trkpt><trkpt lat="43.6245864" lon="11.7695495"><ele>679.5999999999999</ele><time>2026-04-25T11:22:29.898Z</time></trkpt><trkpt lat="43.6245877" lon="11.7696822"><ele>678.0</ele><time>2026-04-25T11:22:30.907Z</time></trkpt><trkpt lat="43.6245577" lon="11.769826"><ele>677.5</ele><time>2026-04-25T11:22:31.903Z</time></trkpt><trkpt lat="43.6245114" lon="11.769981"><ele>677.0</ele><time>2026-04-25T11:22:32.902Z</time></trkpt><trkpt lat="43.6244618" lon="11.7701463"><ele>676.5</ele><time>2026-04-25T11:22:33.907Z</time></trkpt><trkpt lat="43.6244169" lon="11.7703273"><ele>676.0</ele><time>2026-04-25T11:22:34.911Z</time></trkpt><trkpt lat="43.6243784" lon="11.7705117"><ele>672.75</ele><time>2026-04-25T11:22:35.908Z</time></trkpt><trkpt lat="43.624345" lon="11.7706848"><ele>669.5</ele><time>2026-04-25T11:22:36.906Z</time></trkpt><trkpt lat="43.6243073" lon="11.7708497"><ele>666.25</ele><time>2026-04-25T11:22:37.908Z</time></trkpt><trkpt lat="43.6242453" lon="11.7710067"><ele>663.0</ele><time>2026-04-25T11:22:38.901Z</time></trkpt><trkpt lat="43.6241689" lon="11.7711442"><ele>659.25</ele><time>2026-04-25T11:22:39.909Z</time></trkpt><trkpt lat="43.6240852" lon="11.7712571"><ele>655.5</ele><time>2026-04-25T11:22:40.914Z</time></trkpt><trkpt lat="43.6239876" lon="11.7713466"><ele>651.75</ele><time>2026-04-25T11:22:41.909Z</time></trkpt><trkpt lat="43.6238708" lon="11.7714085"><ele>648.0</ele><time>2026-04-25T11:22:42.894Z</time></trkpt><trkpt lat="43.623757" lon="11.7714401"><ele>648.0</ele><time>2026-04-25T11:22:43.898Z</time></trkpt><trkpt lat="43.6236387" lon="11.771427"><ele>648.0</ele><time>2026-04-25T11:22:44.922Z</time></trkpt><trkpt lat="43.6235352" lon="11.7714006"><ele>648.0</ele><time>2026-04-25T11:22:45.907Z</time></trkpt><trkpt lat="43.6234607" lon="11.7714277"><ele>648.0</ele><time>2026-04-25T11:22:46.907Z</time></trkpt><trkpt lat="43.6233892" lon="11.7715116"><ele>648.0</ele><time>2026-04-25T11:22:47.915Z</time></trkpt><trkpt lat="43.623349" lon="11.7716269"><ele>648.0</ele><time>2026-04-25T11:22:48.914Z</time></trkpt><trkpt lat="43.623362" lon="11.7717345"><ele>648.0</ele><time>2026-04-25T11:22:49.903Z</time></trkpt><trkpt lat="43.6234389" lon="11.771835"><ele>648.0</ele><time>2026-04-25T11:22:50.908Z</time></trkpt><trkpt lat="43.6235487" lon="11.7719112"><ele>648.0</ele><time>2026-04-25T11:22:51.913Z</time></trkpt><trkpt lat="43.6236813" lon="11.7719349"><ele>648.0</ele><time>2026-04-25T11:22:52.906Z</time></trkpt><trkpt lat="43.6238366" lon="11.7719175"><ele>648.0</ele><time>2026-04-25T11:22:53.906Z</time></trkpt><trkpt lat="43.6240114" lon="11.7718516"><ele>648.0</ele><time>2026-04-25T11:22:54.904Z</time></trkpt><trkpt lat="43.6241839" lon="11.7717798"><ele>648.0</ele><time>2026-04-25T11:22:55.903Z</time></trkpt><trkpt lat="43.6243372" lon="11.7717248"><ele>648.0</ele><time>2026-04-25T11:22:56.915Z</time></trkpt><trkpt lat="43.6244706" lon="11.7717197"><ele>648.0</ele><time>2026-04-25T11:22:57.906Z</time></trkpt><trkpt lat="43.6246003" lon="11.7717827"><ele>648.0</ele><time>2026-04-25T11:22:58.919Z</time></trkpt><trkpt lat="43.6247189" lon="11.7718649"><ele>648.0</ele><time>2026-04-25T11:22:59.927Z</time></trkpt><trkpt lat="43.6248326" lon="11.7719153"><ele>645.25</ele><time>2026-04-25T11:23:00.909Z</time></trkpt><trkpt lat="43.6249525" lon="11.7719278"><ele>642.5</ele><time>2026-04-25T11:23:01.909Z</time></trkpt><trkpt lat="43.6250649" lon="11.7718566"><ele>639.75</ele><time>2026-04-25T11:23:02.909Z</time></trkpt><trkpt lat="43.6251591" lon="11.7717582"><ele>637.0</ele><time>2026-04-25T11:23:03.915Z</time></trkpt><trkpt lat="43.6252381" lon="11.7716534"><ele>636.5</ele><time>2026-04-25T11:23:04.907Z</time></trkpt><trkpt lat="43.6253293" lon="11.7716142"><ele>636.0</ele><time>2026-04-25T11:23:05.912Z</time></trkpt><trkpt lat="43.6254442" lon="11.7716644"><ele>635.5</ele><time>2026-04-25T11:23:06.916Z</time></trkpt><trkpt lat="43.6255359" lon="11.7717684"><ele>635.0</ele><time>2026-04-25T11:23:07.915Z</time></trkpt><trkpt lat="43.6256491" lon="11.7719046"><ele>629.6666666666666</ele><time>2026-04-25T11:23:08.919Z</time></trkpt><trkpt lat="43.625792" lon="11.7720518"><ele>624.3333333333334</ele><time>2026-04-25T11:23:09.923Z</time></trkpt><trkpt lat="43.625939" lon="11.7721741"><ele>619.0</ele><time>2026-04-25T11:23:10.91Z</time></trkpt><trkpt lat="43.6260741" lon="11.7722735"><ele>618.0</ele><time>2026-04-25T11:23:11.913Z</time></trkpt><trkpt lat="43.6261958" lon="11.7723609"><ele>617.0</ele><time>2026-04-25T11:23:12.911Z</time></trkpt><trkpt lat="43.6262931" lon="11.7724949"><ele>616.0</ele><time>2026-04-25T11:23:13.909Z</time></trkpt><trkpt lat="43.6263831" lon="11.7726789"><ele>615.0</ele><time>2026-04-25T11:23:14.914Z</time></trkpt><trkpt lat="43.6264714" lon="11.7728593"><ele>615.0</ele><time>2026-04-25T11:23:15.921Z</time></trkpt><trkpt lat="43.6265808" lon="11.7730012"><ele>615.0</ele><time>2026-04-25T11:23:16.922Z</time></trkpt><trkpt lat="43.62673" lon="11.7731098"><ele>615.0</ele><time>2026-04-25T11:23:17.909Z</time></trkpt><trkpt lat="43.6268892" lon="11.7732095"><ele>617.0</ele><time>2026-04-25T11:23:18.919Z</time></trkpt><trkpt lat="43.6270437" lon="11.773309"><ele>619.0</ele><time>2026-04-25T11:23:19.904Z</time></trkpt><trkpt lat="43.6271757" lon="11.7734241"><ele>621.0</ele><time>2026-04-25T11:23:20.897Z</time></trkpt><trkpt lat="43.6272763" lon="11.773561"><ele>618.0</ele><time>2026-04-25T11:23:21.908Z</time></trkpt><trkpt lat="43.6273531" lon="11.773719"><ele>615.0</ele><time>2026-04-25T11:23:22.904Z</time></trkpt><trkpt lat="43.6274494" lon="11.7738592"><ele>612.0</ele><time>2026-04-25T11:23:23.901Z</time></trkpt><trkpt lat="43.6275523" lon="11.773936"><ele>609.0</ele><time>2026-04-25T11:23:24.902Z</time></trkpt><trkpt lat="43.6276684" lon="11.7739533"><ele>609.0</ele><time>2026-04-25T11:23:25.896Z</time></trkpt><trkpt lat="43.6277887" lon="11.7739287"><ele>609.0</ele><time>2026-04-25T11:23:26.903Z</time></trkpt><trkpt lat="43.6278819" lon="11.7739358"><ele>609.0</ele><time>2026-04-25T11:23:27.914Z</time></trkpt><trkpt lat="43.6279463" lon="11.7739935"><ele>609.0</ele><time>2026-04-25T11:23:28.928Z</time></trkpt><trkpt lat="43.6279914" lon="11.774098"><ele>609.0</ele><time>2026-04-25T11:23:29.9Z</time></trkpt><trkpt lat="43.6279665" lon="11.774197"><ele>609.0</ele><time>2026-04-25T11:23:30.913Z</time></trkpt><trkpt lat="43.6279086" lon="11.7742833"><ele>609.0</ele><time>2026-04-25T11:23:31.913Z</time></trkpt><trkpt lat="43.6278036" lon="11.7743288"><ele>609.0</ele><time>2026-04-25T11:23:32.913Z</time></trkpt><trkpt lat="43.6276872" lon="11.7743438"><ele>609.0</ele><time>2026-04-25T11:23:33.902Z</time></trkpt><trkpt lat="43.627574" lon="11.7743422"><ele>609.0</ele><time>2026-04-25T11:23:34.923Z</time></trkpt><trkpt lat="43.6274501" lon="11.7743217"><ele>609.0</ele><time>2026-04-25T11:23:35.916Z</time></trkpt><trkpt lat="43.627319" lon="11.7742454"><ele>609.0</ele><time>2026-04-25T11:23:36.9Z</time></trkpt><trkpt lat="43.6271788" lon="11.7741935"><ele>609.0</ele><time>2026-04-25T11:23:37.909Z</time></trkpt><trkpt lat="43.6270187" lon="11.7741844"><ele>609.0</ele><time>2026-04-25T11:23:38.909Z</time></trkpt><trkpt lat="43.6268467" lon="11.774195"><ele>608.0</ele><time>2026-04-25T11:23:39.912Z</time></trkpt><trkpt lat="43.6266908" lon="11.7742291"><ele>607.0</ele><time>2026-04-25T11:23:40.911Z</time></trkpt><trkpt lat="43.6265472" lon="11.7742787"><ele>606.0</ele><time>2026-04-25T11:23:41.902Z</time></trkpt><trkpt lat="43.626424" lon="11.7743401"><ele>605.0</ele><time>2026-04-25T11:23:42.917Z</time></trkpt><trkpt lat="43.626304" lon="11.7743975"><ele>605.0</ele><time>2026-04-25T11:23:43.908Z</time></trkpt><trkpt lat="43.6261798" lon="11.7744333"><ele>605.0</ele><time>2026-04-25T11:23:44.908Z</time></trkpt><trkpt lat="43.6260394" lon="11.7744667"><ele>605.0</ele><time>2026-04-25T11:23:45.903Z</time></trkpt><trkpt lat="43.6258972" lon="11.7745085"><ele>605.0</ele><time>2026-04-25T11:23:46.903Z</time></trkpt><trkpt lat="43.6257638" lon="11.7745668"><ele>603.25</ele><time>2026-04-25T11:23:47.909Z</time></trkpt><trkpt lat="43.6256269" lon="11.7746232"><ele>601.5</ele><time>2026-04-25T11:23:48.901Z</time></trkpt><trkpt lat="43.6254866" lon="11.7746496"><ele>599.75</ele><time>2026-04-25T11:23:49.924Z</time></trkpt><trkpt lat="43.6253361" lon="11.7746213"><ele>598.0</ele><time>2026-04-25T11:23:50.913Z</time></trkpt><trkpt lat="43.6251675" lon="11.7745471"><ele>596.0</ele><time>2026-04-25T11:23:51.916Z</time></trkpt><trkpt lat="43.6249947" lon="11.7744621"><ele>594.0</ele><time>2026-04-25T11:23:52.907Z</time></trkpt><trkpt lat="43.6248379" lon="11.7743879"><ele>592.0</ele><time>2026-04-25T11:23:53.921Z</time></trkpt><trkpt lat="43.624702" lon="11.7743374"><ele>591.5</ele><time>2026-04-25T11:23:54.915Z</time></trkpt><trkpt lat="43.6245742" lon="11.7743078"><ele>591.0</ele><time>2026-04-25T11:23:55.902Z</time></trkpt><trkpt lat="43.624454" lon="11.774346"><ele>590.5</ele><time>2026-04-25T11:23:56.908Z</time></trkpt><trkpt lat="43.6243304" lon="11.7744304"><ele>590.0</ele><time>2026-04-25T11:23:57.906Z</time></trkpt><trkpt lat="43.6241887" lon="11.7744869"><ele>586.6666666666666</ele><time>2026-04-25T11:23:58.909Z</time></trkpt><trkpt lat="43.6240377" lon="11.7745344"><ele>583.3333333333334</ele><time>2026-04-25T11:23:59.918Z</time></trkpt><trkpt lat="43.6238762" lon="11.7745646"><ele>580.0</ele><time>2026-04-25T11:24:00.908Z</time></trkpt><trkpt lat="43.6237165" lon="11.7745654"><ele>576.75</ele><time>2026-04-25T11:24:01.905Z</time></trkpt><trkpt lat="43.6235714" lon="11.7745539"><ele>573.5</ele><time>2026-04-25T11:24:02.908Z</time></trkpt><trkpt lat="43.6234601" lon="11.7744956"><ele>570.25</ele><time>2026-04-25T11:24:03.912Z</time></trkpt><trkpt lat="43.6233626" lon="11.7744694"><ele>567.0</ele><time>2026-04-25T11:24:04.907Z</time></trkpt><trkpt lat="43.6232595" lon="11.7745361"><ele>567.0</ele><time>2026-04-25T11:24:05.909Z</time></trkpt><trkpt lat="43.6231844" lon="11.7746526"><ele>567.0</ele><time>2026-04-25T11:24:06.924Z</time></trkpt><trkpt lat="43.6231268" lon="11.7747935"><ele>567.0</ele><time>2026-04-25T11:24:07.914Z</time></trkpt><trkpt lat="43.6230688" lon="11.7749044"><ele>567.0</ele><time>2026-04-25T11:24:08.923Z</time></trkpt><trkpt lat="43.6229785" lon="11.7749448"><ele>567.0</ele><time>2026-04-25T11:24:09.913Z</time></trkpt><trkpt lat="43.6228665" lon="11.7749319"><ele>561.6666666666666</ele><time>2026-04-25T11:24:10.913Z</time></trkpt><trkpt lat="43.6227544" lon="11.7748603"><ele>556.3333333333333</ele><time>2026-04-25T11:24:11.911Z</time></trkpt><trkpt lat="43.6226274" lon="11.7747413"><ele>551.0</ele><time>2026-04-25T11:24:12.903Z</time></trkpt><trkpt lat="43.6224726" lon="11.7746036"><ele>551.0</ele><time>2026-04-25T11:24:13.906Z</time></trkpt><trkpt lat="43.6223089" lon="11.774461"><ele>551.0</ele><time>2026-04-25T11:24:14.908Z</time></trkpt><trkpt lat="43.6221497" lon="11.7743272"><ele>551.0</ele><time>2026-04-25T11:24:15.908Z</time></trkpt><trkpt lat="43.6219935" lon="11.7742028"><ele>552.6666666666666</ele><time>2026-04-25T11:24:16.915Z</time></trkpt><trkpt lat="43.6218397" lon="11.7741062"><ele>554.3333333333334</ele><time>2026-04-25T11:24:17.905Z</time></trkpt><trkpt lat="43.6216862" lon="11.7740478"><ele>556.0</ele><time>2026-04-25T11:24:18.907Z</time></trkpt><trkpt lat="43.6215306" lon="11.7740133"><ele>556.0</ele><time>2026-04-25T11:24:19.896Z</time></trkpt><trkpt lat="43.621401" lon="11.7740153"><ele>556.0</ele><time>2026-04-25T11:24:20.897Z</time></trkpt><trkpt lat="43.6213066" lon="11.7740279"><ele>556.0</ele><time>2026-04-25T11:24:21.9Z</time></trkpt><trkpt lat="43.6212262" lon="11.7740653"><ele>556.0</ele><time>2026-04-25T11:24:22.905Z</time></trkpt><trkpt lat="43.6211776" lon="11.7741474"><ele>556.0</ele><time>2026-04-25T11:24:23.907Z</time></trkpt><trkpt lat="43.6211517" lon="11.7742697"><ele>550.5</ele><time>2026-04-25T11:24:24.903Z</time></trkpt><trkpt lat="43.6211717" lon="11.7744097"><ele>545.0</ele><time>2026-04-25T11:24:25.918Z</time></trkpt><trkpt lat="43.6212265" lon="11.774575"><ele>539.5</ele><time>2026-04-25T11:24:26.906Z</time></trkpt><trkpt lat="43.6212817" lon="11.7747723"><ele>534.0</ele><time>2026-04-25T11:24:27.905Z</time></trkpt><trkpt lat="43.6213117" lon="11.7749953"><ele>530.0</ele><time>2026-04-25T11:24:28.91Z</time></trkpt><trkpt lat="43.6213351" lon="11.7752221"><ele>526.0</ele><time>2026-04-25T11:24:29.903Z</time></trkpt><trkpt lat="43.6213397" lon="11.7754299"><ele>522.0</ele><time>2026-04-25T11:24:30.897Z</time></trkpt><trkpt lat="43.6213325" lon="11.7756217"><ele>522.0</ele><time>2026-04-25T11:24:31.902Z</time></trkpt><trkpt lat="43.6213062" lon="11.7758089"><ele>522.0</ele><time>2026-04-25T11:24:32.907Z</time></trkpt><trkpt lat="43.6212626" lon="11.7759809"><ele>522.0</ele><time>2026-04-25T11:24:33.902Z</time></trkpt><trkpt lat="43.6212353" lon="11.7761225"><ele>522.0</ele><time>2026-04-25T11:24:34.914Z</time></trkpt><trkpt lat="43.621218" lon="11.7762627"><ele>521.5</ele><time>2026-04-25T11:24:35.899Z</time></trkpt><trkpt lat="43.6212613" lon="11.7764006"><ele>521.0</ele><time>2026-04-25T11:24:36.903Z</time></trkpt><trkpt lat="43.6213557" lon="11.7765424"><ele>520.5</ele><time>2026-04-25T11:24:37.907Z</time></trkpt><trkpt lat="43.6214278" lon="11.7767091"><ele>520.0</ele><time>2026-04-25T11:24:38.898Z</time></trkpt><trkpt lat="43.6214937" lon="11.7768914"><ele>519.25</ele><time>2026-04-25T11:24:39.913Z</time></trkpt><trkpt lat="43.6215531" lon="11.7770878"><ele>518.5</ele><time>2026-04-25T11:24:40.905Z</time></trkpt><trkpt lat="43.6216104" lon="11.7772774"><ele>517.75</ele><time>2026-04-25T11:24:41.908Z</time></trkpt><trkpt lat="43.6216407" lon="11.7774594"><ele>517.0</ele><time>2026-04-25T11:24:42.908Z</time></trkpt><trkpt lat="43.6216393" lon="11.7776527"><ele>514.0</ele><time>2026-04-25T11:24:43.903Z</time></trkpt><trkpt lat="43.6216238" lon="11.7778818"><ele>511.0</ele><time>2026-04-25T11:24:44.909Z</time></trkpt><trkpt lat="43.6215899" lon="11.7781537"><ele>508.0</ele><time>2026-04-25T11:24:45.9Z</time></trkpt><trkpt lat="43.6215433" lon="11.778412"><ele>503.33333333333337</ele><time>2026-04-25T11:24:46.904Z</time></trkpt><trkpt lat="43.6214884" lon="11.7786631"><ele>498.66666666666663</ele><time>2026-04-25T11:24:47.905Z</time></trkpt><trkpt lat="43.6214543" lon="11.7789322"><ele>494.0</ele><time>2026-04-25T11:24:48.913Z</time></trkpt><trkpt lat="43.6214446" lon="11.7791932"><ele>489.3333333333333</ele><time>2026-04-25T11:24:49.903Z</time></trkpt><trkpt lat="43.6214387" lon="11.7794255"><ele>484.66666666666663</ele><time>2026-04-25T11:24:50.903Z</time></trkpt><trkpt lat="43.6214084" lon="11.7796445"><ele>480.0</ele><time>2026-04-25T11:24:51.906Z</time></trkpt><trkpt lat="43.6213623" lon="11.7798261"><ele>480.0</ele><time>2026-04-25T11:24:52.904Z</time></trkpt><trkpt lat="43.6212916" lon="11.7799916"><ele>480.0</ele><time>2026-04-25T11:24:53.903Z</time></trkpt><trkpt lat="43.6211962" lon="11.7801277"><ele>480.0</ele><time>2026-04-25T11:24:54.9Z</time></trkpt><trkpt lat="43.62109" lon="11.7802382"><ele>480.0</ele><time>2026-04-25T11:24:55.9Z</time></trkpt><trkpt lat="43.6210108" lon="11.7803565"><ele>482.75</ele><time>2026-04-25T11:24:56.897Z</time></trkpt><trkpt lat="43.6209851" lon="11.7805093"><ele>485.5</ele><time>2026-04-25T11:24:57.916Z</time></trkpt><trkpt lat="43.6210074" lon="11.7806905"><ele>488.25</ele><time>2026-04-25T11:24:58.902Z</time></trkpt><trkpt lat="43.621059" lon="11.7808917"><ele>491.0</ele><time>2026-04-25T11:24:59.901Z</time></trkpt><trkpt lat="43.6210992" lon="11.7810769"><ele>491.0</ele><time>2026-04-25T11:25:00.899Z</time></trkpt><trkpt lat="43.621125" lon="11.7812559"><ele>491.0</ele><time>2026-04-25T11:25:01.904Z</time></trkpt><trkpt lat="43.6211088" lon="11.781435"><ele>491.0</ele><time>2026-04-25T11:25:02.916Z</time></trkpt><trkpt lat="43.621037" lon="11.7816161"><ele>491.0</ele><time>2026-04-25T11:25:03.9Z</time></trkpt><trkpt lat="43.6209517" lon="11.7818105"><ele>486.75</ele><time>2026-04-25T11:25:04.896Z</time></trkpt><trkpt lat="43.6208801" lon="11.7819841"><ele>482.5</ele><time>2026-04-25T11:25:05.904Z</time></trkpt><trkpt lat="43.6207883" lon="11.7821153"><ele>478.25</ele><time>2026-04-25T11:25:06.91Z</time></trkpt><trkpt lat="43.6206618" lon="11.7822316"><ele>474.0</ele><time>2026-04-25T11:25:07.913Z</time></trkpt><trkpt lat="43.6205086" lon="11.7823364"><ele>474.0</ele><time>2026-04-25T11:25:08.904Z</time></trkpt><trkpt lat="43.6203435" lon="11.7824259"><ele>474.0</ele><time>2026-04-25T11:25:09.909Z</time></trkpt><trkpt lat="43.620177" lon="11.7825292"><ele>474.0</ele><time>2026-04-25T11:25:10.901Z</time></trkpt><trkpt lat="43.6200351" lon="11.7826375"><ele>470.25</ele><time>2026-04-25T11:25:11.91Z</time></trkpt><trkpt lat="43.6199212" lon="11.7827707"><ele>466.5</ele><time>2026-04-25T11:25:12.91Z</time></trkpt><trkpt lat="43.6198225" lon="11.7829002"><ele>462.75</ele><time>2026-04-25T11:25:13.929Z</time></trkpt><trkpt lat="43.6197209" lon="11.7830027"><ele>459.0</ele><time>2026-04-25T11:25:14.911Z</time></trkpt><trkpt lat="43.6196181" lon="11.7830451"><ele>459.0</ele><time>2026-04-25T11:25:15.911Z</time></trkpt><trkpt lat="43.6195135" lon="11.783045"><ele>459.0</ele><time>2026-04-25T11:25:16.902Z</time></trkpt><trkpt lat="43.6194118" lon="11.7830199"><ele>459.0</ele><time>2026-04-25T11:25:17.906Z</time></trkpt><trkpt lat="43.6193492" lon="11.783039"><ele>459.0</ele><time>2026-04-25T11:25:18.904Z</time></trkpt><trkpt lat="43.6193073" lon="11.7831558"><ele>459.0</ele><time>2026-04-25T11:25:19.913Z</time></trkpt><trkpt lat="43.6193122" lon="11.7832947"><ele>460.75</ele><time>2026-04-25T11:25:20.926Z</time></trkpt><trkpt lat="43.6193487" lon="11.7834561"><ele>462.5</ele><time>2026-04-25T11:25:21.915Z</time></trkpt><trkpt lat="43.6193803" lon="11.7836456"><ele>464.25</ele><time>2026-04-25T11:25:22.903Z</time></trkpt><trkpt lat="43.6194097" lon="11.7838581"><ele>466.0</ele><time>2026-04-25T11:25:23.902Z</time></trkpt><trkpt lat="43.6194593" lon="11.7840579"><ele>461.33333333333337</ele><time>2026-04-25T11:25:24.915Z</time></trkpt><trkpt lat="43.6194883" lon="11.7842609"><ele>456.66666666666663</ele><time>2026-04-25T11:25:25.905Z</time></trkpt><trkpt lat="43.6194809" lon="11.7844755"><ele>452.0</ele><time>2026-04-25T11:25:26.908Z</time></trkpt><trkpt lat="43.6194211" lon="11.7847158"><ele>452.0</ele><time>2026-04-25T11:25:27.906Z</time></trkpt><trkpt lat="43.6193355" lon="11.784969"><ele>452.0</ele><time>2026-04-25T11:25:28.902Z</time></trkpt><trkpt lat="43.6192532" lon="11.7852177"><ele>452.0</ele><time>2026-04-25T11:25:29.906Z</time></trkpt><trkpt lat="43.6191987" lon="11.7854428"><ele>447.75</ele><time>2026-04-25T11:25:30.918Z</time></trkpt><trkpt lat="43.61917" lon="11.7856603"><ele>443.5</ele><time>2026-04-25T11:25:31.909Z</time></trkpt><trkpt lat="43.6191748" lon="11.7858612"><ele>439.25</ele><time>2026-04-25T11:25:32.923Z</time></trkpt><trkpt lat="43.6191866" lon="11.786036"><ele>435.0</ele><time>2026-04-25T11:25:33.894Z</time></trkpt><trkpt lat="43.61917" lon="11.7861892"><ele>430.25</ele><time>2026-04-25T11:25:34.901Z</time></trkpt><trkpt lat="43.6191179" lon="11.7863152"><ele>425.5</ele><time>2026-04-25T11:25:35.903Z</time></trkpt><trkpt lat="43.6190115" lon="11.7864261"><ele>420.75</ele><time>2026-04-25T11:25:36.914Z</time></trkpt><trkpt lat="43.6188818" lon="11.7865023"><ele>416.0</ele><time>2026-04-25T11:25:37.911Z</time></trkpt><trkpt lat="43.6187195" lon="11.7865986"><ele>418.75</ele><time>2026-04-25T11:25:38.907Z</time></trkpt><trkpt lat="43.6185627" lon="11.7867022"><ele>421.5</ele><time>2026-04-25T11:25:39.913Z</time></trkpt><trkpt lat="43.618433" lon="11.786779"><ele>424.25</ele><time>2026-04-25T11:25:40.906Z</time></trkpt><trkpt lat="43.6183187" lon="11.7868191"><ele>427.0</ele><time>2026-04-25T11:25:41.905Z</time></trkpt><trkpt lat="43.6182046" lon="11.7867939"><ele>427.0</ele><time>2026-04-25T11:25:42.909Z</time></trkpt><trkpt lat="43.6181019" lon="11.7867358"><ele>427.0</ele><time>2026-04-25T11:25:43.905Z</time></trkpt><trkpt lat="43.6180157" lon="11.7867155"><ele>427.0</ele><time>2026-04-25T11:25:44.917Z</time></trkpt><trkpt lat="43.6179214" lon="11.7867971"><ele>427.0</ele><time>2026-04-25T11:25:45.908Z</time></trkpt><trkpt lat="43.6178271" lon="11.7869477"><ele>426.6666666666667</ele><time>2026-04-25T11:25:46.911Z</time></trkpt><trkpt lat="43.6177519" lon="11.7871288"><ele>426.33333333333337</ele><time>2026-04-25T11:25:47.906Z</time></trkpt><trkpt lat="43.6176855" lon="11.7873318"><ele>426.0</ele><time>2026-04-25T11:25:48.909Z</time></trkpt><trkpt lat="43.6176241" lon="11.7875654"><ele>422.0</ele><time>2026-04-25T11:25:49.909Z</time></trkpt><trkpt lat="43.617567" lon="11.7877651"><ele>418.0</ele><time>2026-04-25T11:25:50.91Z</time></trkpt><trkpt lat="43.6175107" lon="11.7879351"><ele>414.0</ele><time>2026-04-25T11:25:51.905Z</time></trkpt><trkpt lat="43.6174371" lon="11.7880656"><ele>410.0</ele><time>2026-04-25T11:25:52.9Z</time></trkpt><trkpt lat="43.6173599" lon="11.7881582"><ele>410.0</ele><time>2026-04-25T11:25:53.915Z</time></trkpt><trkpt lat="43.6172677" lon="11.7881839"><ele>410.0</ele><time>2026-04-25T11:25:54.923Z</time></trkpt><trkpt lat="43.6171844" lon="11.7881659"><ele>410.0</ele><time>2026-04-25T11:25:55.917Z</time></trkpt><trkpt lat="43.6170882" lon="11.7880884"><ele>410.0</ele><time>2026-04-25T11:25:56.901Z</time></trkpt><trkpt lat="43.616997" lon="11.7880092"><ele>410.0</ele><time>2026-04-25T11:25:57.906Z</time></trkpt><trkpt lat="43.6169159" lon="11.7880032"><ele>408.8</ele><time>2026-04-25T11:25:58.908Z</time></trkpt><trkpt lat="43.6168419" lon="11.7880774"><ele>407.6</ele><time>2026-04-25T11:25:59.898Z</time></trkpt><trkpt lat="43.6167962" lon="11.7882105"><ele>406.4</ele><time>2026-04-25T11:26:00.911Z</time></trkpt><trkpt lat="43.6167625" lon="11.788385"><ele>405.2</ele><time>2026-04-25T11:26:01.909Z</time></trkpt><trkpt lat="43.61674" lon="11.7885443"><ele>404.0</ele><time>2026-04-25T11:26:02.919Z</time></trkpt><trkpt lat="43.6166949" lon="11.7886728"><ele>404.0</ele><time>2026-04-25T11:26:03.917Z</time></trkpt><trkpt lat="43.6165774" lon="11.7887892"><ele>404.0</ele><time>2026-04-25T11:26:04.91Z</time></trkpt><trkpt lat="43.6164443" lon="11.7888729"><ele>404.0</ele><time>2026-04-25T11:26:05.9Z</time></trkpt><trkpt lat="43.6163208" lon="11.7889319"><ele>404.0</ele><time>2026-04-25T11:26:06.892Z</time></trkpt><trkpt lat="43.6161827" lon="11.7889393"><ele>407.25</ele><time>2026-04-25T11:26:07.909Z</time></trkpt><trkpt lat="43.6160425" lon="11.7889237"><ele>410.5</ele><time>2026-04-25T11:26:08.918Z</time></trkpt><trkpt lat="43.6159045" lon="11.7889253"><ele>413.75</ele><time>2026-04-25T11:26:09.906Z</time></trkpt><trkpt lat="43.6157561" lon="11.788999"><ele>417.0</ele><time>2026-04-25T11:26:10.922Z</time></trkpt><trkpt lat="43.6155997" lon="11.7891074"><ele>417.0</ele><time>2026-04-25T11:26:11.909Z</time></trkpt><trkpt lat="43.6154495" lon="11.7892232"><ele>417.0</ele><time>2026-04-25T11:26:12.907Z</time></trkpt><trkpt lat="43.615317" lon="11.7893167"><ele>417.0</ele><time>2026-04-25T11:26:13.914Z</time></trkpt><trkpt lat="43.6151905" lon="11.7894014"><ele>417.0</ele><time>2026-04-25T11:26:14.913Z</time></trkpt><trkpt lat="43.6150742" lon="11.7894792"><ele>417.0</ele><time>2026-04-25T11:26:15.9Z</time></trkpt><trkpt lat="43.6149571" lon="11.789552"><ele>417.0</ele><time>2026-04-25T11:26:16.914Z</time></trkpt><trkpt lat="43.6148476" lon="11.789649"><ele>417.0</ele><time>2026-04-25T11:26:17.909Z</time></trkpt><trkpt lat="43.6147624" lon="11.7897931"><ele>417.0</ele><time>2026-04-25T11:26:18.915Z</time></trkpt><trkpt lat="43.6147266" lon="11.7900004"><ele>417.0</ele><time>2026-04-25T11:26:19.916Z</time></trkpt><trkpt lat="43.6147117" lon="11.7902425"><ele>417.0</ele><time>2026-04-25T11:26:20.907Z</time></trkpt><trkpt lat="43.6147038" lon="11.7904619"><ele>416.0</ele><time>2026-04-25T11:26:21.906Z</time></trkpt><trkpt lat="43.6146906" lon="11.7906698"><ele>415.0</ele><time>2026-04-25T11:26:22.906Z</time></trkpt><trkpt lat="43.6146687" lon="11.790865"><ele>414.0</ele><time>2026-04-25T11:26:23.913Z</time></trkpt><trkpt lat="43.6146281" lon="11.7910377"><ele>413.0</ele><time>2026-04-25T11:26:24.924Z</time></trkpt><trkpt lat="43.6145454" lon="11.7912006"><ele>414.3333333333333</ele><time>2026-04-25T11:26:25.907Z</time></trkpt><trkpt lat="43.6144391" lon="11.7913681"><ele>415.66666666666663</ele><time>2026-04-25T11:26:26.901Z</time></trkpt><trkpt lat="43.6142982" lon="11.7915392"><ele>417.0</ele><time>2026-04-25T11:26:27.903Z</time></trkpt><trkpt lat="43.614167" lon="11.7916867"><ele>417.0</ele><time>2026-04-25T11:26:28.905Z</time></trkpt><trkpt lat="43.6140451" lon="11.791796"><ele>417.0</ele><time>2026-04-25T11:26:29.902Z</time></trkpt><trkpt lat="43.6139296" lon="11.7918761"><ele>417.0</ele><time>2026-04-25T11:26:30.912Z</time></trkpt><trkpt lat="43.613785" lon="11.7919203"><ele>417.0</ele><time>2026-04-25T11:26:31.911Z</time></trkpt><trkpt lat="43.613617" lon="11.791933"><ele>412.33333333333337</ele><time>2026-04-25T11:26:32.899Z</time></trkpt><trkpt lat="43.6134455" lon="11.7919804"><ele>407.6666666666667</ele><time>2026-04-25T11:26:33.918Z</time></trkpt><trkpt lat="43.6132862" lon="11.7920915"><ele>403.0</ele><time>2026-04-25T11:26:34.913Z</time></trkpt><trkpt lat="43.6131211" lon="11.7922581"><ele>403.0</ele><time>2026-04-25T11:26:35.907Z</time></trkpt><trkpt lat="43.6129629" lon="11.7924234"><ele>403.0</ele><time>2026-04-25T11:26:36.913Z</time></trkpt><trkpt lat="43.6128212" lon="11.7925479"><ele>403.0</ele><time>2026-04-25T11:26:37.913Z</time></trkpt><trkpt lat="43.6126915" lon="11.7926352"><ele>402.5</ele><time>2026-04-25T11:26:38.903Z</time></trkpt><trkpt lat="43.6125566" lon="11.7926882"><ele>402.0</ele><time>2026-04-25T11:26:39.903Z</time></trkpt><trkpt lat="43.6124424" lon="11.7927467"><ele>401.5</ele><time>2026-04-25T11:26:40.921Z</time></trkpt><trkpt lat="43.6123555" lon="11.792848"><ele>401.0</ele><time>2026-04-25T11:26:41.92Z</time></trkpt><trkpt lat="43.6123194" lon="11.7930061"><ele>401.0</ele><time>2026-04-25T11:26:42.92Z</time></trkpt><trkpt lat="43.6122932" lon="11.7931922"><ele>401.0</ele><time>2026-04-25T11:26:43.91Z</time></trkpt><trkpt lat="43.6122602" lon="11.7933467"><ele>401.0</ele><time>2026-04-25T11:26:44.912Z</time></trkpt><trkpt lat="43.6121886" lon="11.7934441"><ele>401.0</ele><time>2026-04-25T11:26:45.909Z</time></trkpt><trkpt lat="43.6120803" lon="11.793497"><ele>401.0</ele><time>2026-04-25T11:26:46.919Z</time></trkpt><trkpt lat="43.6119487" lon="11.7934903"><ele>401.0</ele><time>2026-04-25T11:26:47.915Z</time></trkpt><trkpt lat="43.6118175" lon="11.793436"><ele>401.0</ele><time>2026-04-25T11:26:48.909Z</time></trkpt><trkpt lat="43.6116998" lon="11.7933919"><ele>401.0</ele><time>2026-04-25T11:26:49.912Z</time></trkpt><trkpt lat="43.6115513" lon="11.7933878"><ele>401.0</ele><time>2026-04-25T11:26:50.909Z</time></trkpt><trkpt lat="43.611397" lon="11.7934055"><ele>401.0</ele><time>2026-04-25T11:26:51.912Z</time></trkpt><trkpt lat="43.611273" lon="11.7933849"><ele>401.0</ele><time>2026-04-25T11:26:52.907Z</time></trkpt><trkpt lat="43.6111192" lon="11.7933114"><ele>401.0</ele><time>2026-04-25T11:26:53.916Z</time></trkpt><trkpt lat="43.6109562" lon="11.7932302"><ele>397.0</ele><time>2026-04-25T11:26:54.923Z</time></trkpt><trkpt lat="43.6108082" lon="11.7931628"><ele>393.0</ele><time>2026-04-25T11:26:55.909Z</time></trkpt><trkpt lat="43.6106812" lon="11.7930897"><ele>389.0</ele><time>2026-04-25T11:26:56.916Z</time></trkpt><trkpt lat="43.6105498" lon="11.7929669"><ele>389.0</ele><time>2026-04-25T11:26:57.91Z</time></trkpt><trkpt lat="43.6104196" lon="11.7928043"><ele>389.0</ele><time>2026-04-25T11:26:58.903Z</time></trkpt><trkpt lat="43.6103181" lon="11.7926328"><ele>389.0</ele><time>2026-04-25T11:26:59.904Z</time></trkpt><trkpt lat="43.6102345" lon="11.7924684"><ele>389.0</ele><time>2026-04-25T11:27:00.908Z</time></trkpt><trkpt lat="43.610161" lon="11.7923701"><ele>389.0</ele><time>2026-04-25T11:27:01.91Z</time></trkpt><trkpt lat="43.6100642" lon="11.79235"><ele>389.0</ele><time>2026-04-25T11:27:02.917Z</time></trkpt><trkpt lat="43.6099617" lon="11.7923874"><ele>389.0</ele><time>2026-04-25T11:27:03.908Z</time></trkpt><trkpt lat="43.6098233" lon="11.7924663"><ele>389.0</ele><time>2026-04-25T11:27:04.91Z</time></trkpt><trkpt lat="43.6096636" lon="11.7925617"><ele>389.0</ele><time>2026-04-25T11:27:05.904Z</time></trkpt><trkpt lat="43.6094782" lon="11.7926369"><ele>389.0</ele><time>2026-04-25T11:27:06.911Z</time></trkpt><trkpt lat="43.6092684" lon="11.7926916"><ele>380.66666666666663</ele><time>2026-04-25T11:27:07.9Z</time></trkpt><trkpt lat="43.6090587" lon="11.7927011"><ele>372.3333333333333</ele><time>2026-04-25T11:27:08.908Z</time></trkpt><trkpt lat="43.6089002" lon="11.792712"><ele>364.0</ele><time>2026-04-25T11:27:09.908Z</time></trkpt><trkpt lat="43.6087698" lon="11.7927172"><ele>364.0</ele><time>2026-04-25T11:27:10.906Z</time></trkpt><trkpt lat="43.608683" lon="11.7927118"><ele>364.0</ele><time>2026-04-25T11:27:11.904Z</time></trkpt><trkpt lat="43.6085983" lon="11.7926264"><ele>364.0</ele><time>2026-04-25T11:27:12.91Z</time></trkpt><trkpt lat="43.6085413" lon="11.7924884"><ele>364.0</ele><time>2026-04-25T11:27:13.914Z</time></trkpt><trkpt lat="43.6084682" lon="11.7923818"><ele>364.0</ele><time>2026-04-25T11:27:14.907Z</time></trkpt><trkpt lat="43.6083766" lon="11.7923415"><ele>365.4</ele><time>2026-04-25T11:27:15.917Z</time></trkpt><trkpt lat="43.6082952" lon="11.7923897"><ele>366.79999999999995</ele><time>2026-04-25T11:27:16.91Z</time></trkpt><trkpt lat="43.6082304" lon="11.7925126"><ele>368.20000000000005</ele><time>2026-04-25T11:27:17.908Z</time></trkpt><trkpt lat="43.6081926" lon="11.7926722"><ele>369.6</ele><time>2026-04-25T11:27:18.914Z</time></trkpt><trkpt lat="43.6081557" lon="11.7928262"><ele>371.0</ele><time>2026-04-25T11:27:19.909Z</time></trkpt><trkpt lat="43.6081192" lon="11.7929373"><ele>367.8</ele><time>2026-04-25T11:27:20.903Z</time></trkpt><trkpt lat="43.6080632" lon="11.7929999"><ele>364.6</ele><time>2026-04-25T11:27:21.91Z</time></trkpt><trkpt lat="43.6079602" lon="11.7930234"><ele>361.4</ele><time>2026-04-25T11:27:22.901Z</time></trkpt><trkpt lat="43.607842" lon="11.793011"><ele>358.2</ele><time>2026-04-25T11:27:23.895Z</time></trkpt><trkpt lat="43.6077003" lon="11.7929846"><ele>355.0</ele><time>2026-04-25T11:27:24.893Z</time></trkpt><trkpt lat="43.6075604" lon="11.7929427"><ele>356.75</ele><time>2026-04-25T11:27:25.893Z</time></trkpt><trkpt lat="43.6074299" lon="11.7928902"><ele>358.5</ele><time>2026-04-25T11:27:26.896Z</time></trkpt><trkpt lat="43.6073186" lon="11.792825"><ele>360.25</ele><time>2026-04-25T11:27:27.898Z</time></trkpt><trkpt lat="43.6072114" lon="11.7927362"><ele>362.0</ele><time>2026-04-25T11:27:28.907Z</time></trkpt><trkpt lat="43.6070989" lon="11.7926186"><ele>356.0</ele><time>2026-04-25T11:27:29.902Z</time></trkpt><trkpt lat="43.6069932" lon="11.7924733"><ele>350.0</ele><time>2026-04-25T11:27:30.9Z</time></trkpt><trkpt lat="43.6069003" lon="11.7923287"><ele>344.0</ele><time>2026-04-25T11:27:31.894Z</time></trkpt><trkpt lat="43.6067275" lon="11.7920799"><ele>344.0</ele><time>2026-04-25T11:27:33.894Z</time></trkpt><trkpt lat="43.6066485" lon="11.7919726"><ele>344.0</ele><time>2026-04-25T11:27:34.896Z</time></trkpt><trkpt lat="43.6065592" lon="11.7918606"><ele>344.0</ele><time>2026-04-25T11:27:35.9Z</time></trkpt><trkpt lat="43.6064466" lon="11.7917502"><ele>344.0</ele><time>2026-04-25T11:27:36.912Z</time></trkpt><trkpt lat="43.6062972" lon="11.7916517"><ele>346.0</ele><time>2026-04-25T11:27:37.895Z</time></trkpt><trkpt lat="43.6061189" lon="11.7915718"><ele>348.0</ele><time>2026-04-25T11:27:38.894Z</time></trkpt><trkpt lat="43.6059214" lon="11.7915117"><ele>350.0</ele><time>2026-04-25T11:27:39.912Z</time></trkpt><trkpt lat="43.6057197" lon="11.7914594"><ele>350.0</ele><time>2026-04-25T11:27:40.891Z</time></trkpt><trkpt lat="43.6055361" lon="11.7914221"><ele>350.0</ele><time>2026-04-25T11:27:41.915Z</time></trkpt><trkpt lat="43.6053597" lon="11.7914106"><ele>350.0</ele><time>2026-04-25T11:27:42.891Z</time></trkpt><trkpt lat="43.6051895" lon="11.7913987"><ele>347.6666666666667</ele><time>2026-04-25T11:27:43.895Z</time></trkpt><trkpt lat="43.6050229" lon="11.7913637"><ele>345.3333333333333</ele><time>2026-04-25T11:27:44.898Z</time></trkpt><trkpt lat="43.6048487" lon="11.7912979"><ele>343.0</ele><time>2026-04-25T11:27:45.896Z</time></trkpt><trkpt lat="43.6046751" lon="11.7911907"><ele>343.0</ele><time>2026-04-25T11:27:46.893Z</time></trkpt><trkpt lat="43.6045122" lon="11.791067"><ele>343.0</ele><time>2026-04-25T11:27:47.898Z</time></trkpt><trkpt lat="43.6043805" lon="11.7909666"><ele>343.0</ele><time>2026-04-25T11:27:48.898Z</time></trkpt><trkpt lat="43.6042715" lon="11.7908524"><ele>345.0</ele><time>2026-04-25T11:27:49.905Z</time></trkpt><trkpt lat="43.6041934" lon="11.7906876"><ele>347.0</ele><time>2026-04-25T11:27:50.909Z</time></trkpt><trkpt lat="43.604116" lon="11.7904829"><ele>349.0</ele><time>2026-04-25T11:27:51.909Z</time></trkpt><trkpt lat="43.6040313" lon="11.7902625"><ele>352.66666666666663</ele><time>2026-04-25T11:27:52.903Z</time></trkpt><trkpt lat="43.6039235" lon="11.790016"><ele>356.3333333333333</ele><time>2026-04-25T11:27:53.906Z</time></trkpt><trkpt lat="43.603823" lon="11.7897733"><ele>360.0</ele><time>2026-04-25T11:27:54.906Z</time></trkpt><trkpt lat="43.6037334" lon="11.7895612"><ele>358.5</ele><time>2026-04-25T11:27:55.896Z</time></trkpt><trkpt lat="43.6036517" lon="11.7893887"><ele>357.0</ele><time>2026-04-25T11:27:56.912Z</time></trkpt><trkpt lat="43.6035705" lon="11.7892218"><ele>355.5</ele><time>2026-04-25T11:27:57.907Z</time></trkpt><trkpt lat="43.6034801" lon="11.7890854"><ele>354.0</ele><time>2026-04-25T11:27:58.915Z</time></trkpt><trkpt lat="43.6033756" lon="11.7889916"><ele>354.0</ele><time>2026-04-25T11:27:59.907Z</time></trkpt><trkpt lat="43.6032564" lon="11.7889566"><ele>354.0</ele><time>2026-04-25T11:28:00.914Z</time></trkpt><trkpt lat="43.603125" lon="11.7889674"><ele>354.0</ele><time>2026-04-25T11:28:01.891Z</time></trkpt><trkpt lat="43.6029861" lon="11.7889816"><ele>354.0</ele><time>2026-04-25T11:28:02.909Z</time></trkpt><trkpt lat="43.60284" lon="11.7889969"><ele>352.75</ele><time>2026-04-25T11:28:03.901Z</time></trkpt><trkpt lat="43.6027001" lon="11.7889959"><ele>351.5</ele><time>2026-04-25T11:28:04.903Z</time></trkpt><trkpt lat="43.6025582" lon="11.7890016"><ele>350.25</ele><time>2026-04-25T11:28:05.919Z</time></trkpt><trkpt lat="43.6024341" lon="11.7890078"><ele>349.0</ele><time>2026-04-25T11:28:06.913Z</time></trkpt><trkpt lat="43.6023172" lon="11.7890082"><ele>349.0</ele><time>2026-04-25T11:28:07.912Z</time></trkpt><trkpt lat="43.6022065" lon="11.7890051"><ele>349.0</ele><time>2026-04-25T11:28:08.917Z</time></trkpt><trkpt lat="43.6021082" lon="11.7889943"><ele>349.0</ele><time>2026-04-25T11:28:09.907Z</time></trkpt><trkpt lat="43.602017" lon="11.7889775"><ele>349.0</ele><time>2026-04-25T11:28:10.917Z</time></trkpt><trkpt lat="43.6019208" lon="11.7889661"><ele>349.0</ele><time>2026-04-25T11:28:11.897Z</time></trkpt><trkpt lat="43.6018258" lon="11.7889512"><ele>349.0</ele><time>2026-04-25T11:28:12.901Z</time></trkpt><trkpt lat="43.6017367" lon="11.7889336"><ele>349.0</ele><time>2026-04-25T11:28:13.906Z</time></trkpt><trkpt lat="43.601659" lon="11.7889354"><ele>349.0</ele><time>2026-04-25T11:28:14.907Z</time></trkpt><trkpt lat="43.6015892" lon="11.7889266"><ele>349.0</ele><time>2026-04-25T11:28:15.906Z</time></trkpt><trkpt lat="43.6015008" lon="11.7888821"><ele>349.0</ele><time>2026-04-25T11:28:17.912Z</time></trkpt><trkpt lat="43.6014367" lon="11.788767"><ele>349.0</ele><time>2026-04-25T11:28:19.907Z</time></trkpt><trkpt lat="43.6013838" lon="11.7886922"><ele>348.99999999999994</ele><time>2026-04-25T11:28:21.913Z</time></trkpt><trkpt lat="43.6014133" lon="11.7887699"><ele>349.0</ele><time>2026-04-25T11:30:38.901Z</time></trkpt><trkpt lat="43.6014198" lon="11.7888608"><ele>349.0</ele><time>2026-04-25T11:31:22.885Z</time></trkpt><trkpt lat="43.6014231" lon="11.788953"><ele>349.0</ele><time>2026-04-25T11:31:25.885Z</time></trkpt><trkpt lat="43.6014377" lon="11.7890533"><ele>349.0</ele><time>2026-04-25T11:31:29.887Z</time></trkpt><trkpt lat="43.6013822" lon="11.789155"><ele>348.99999999999994</ele><time>2026-04-25T11:31:32.892Z</time></trkpt><trkpt lat="43.6013216" lon="11.7891231"><ele>349.0</ele><time>2026-04-25T11:31:33.888Z</time></trkpt><trkpt lat="43.601246" lon="11.789043"><ele>349.0</ele><time>2026-04-25T11:31:35.894Z</time></trkpt><trkpt lat="43.6011927" lon="11.7889908"><ele>349.0</ele><time>2026-04-25T11:31:37.886Z</time></trkpt><trkpt lat="43.6011184" lon="11.7889357"><ele>349.0</ele><time>2026-04-25T11:31:39.888Z</time></trkpt><trkpt lat="43.6013488" lon="11.788812"><ele>349.0</ele><time>2026-04-25T11:32:07.636Z</time></trkpt><trkpt lat="43.6012868" lon="11.7887849"><ele>348.99999999999994</ele><time>2026-04-25T11:36:22.889Z</time></trkpt><trkpt lat="43.6012228" lon="11.7887687"><ele>349.0</ele><time>2026-04-25T11:36:42.891Z</time></trkpt><trkpt lat="43.6012975" lon="11.7887298"><ele>349.0</ele><time>2026-04-25T11:37:16.895Z</time></trkpt><trkpt lat="43.6013618" lon="11.7886936"><ele>349.0</ele><time>2026-04-25T11:37:20.892Z</time></trkpt><trkpt lat="43.6012918" lon="11.7886392"><ele>349.0</ele><time>2026-04-25T11:37:25.881Z</time></trkpt><trkpt lat="43.6012175" lon="11.7886178"><ele>348.99999999999994</ele><time>2026-04-25T11:37:28.889Z</time></trkpt><trkpt lat="43.6011462" lon="11.7885794"><ele>349.0</ele><time>2026-04-25T11:37:32.885Z</time></trkpt><trkpt lat="43.6012071" lon="11.7884956"><ele>349.0</ele><time>2026-04-25T11:37:39.977Z</time></trkpt><trkpt lat="43.6012508" lon="11.7883975"><ele>349.0</ele><time>2026-04-25T11:37:42.879Z</time></trkpt><trkpt lat="43.6012903" lon="11.7883006"><ele>349.0</ele><time>2026-04-25T11:37:44.877Z</time></trkpt><trkpt lat="43.6013288" lon="11.7882037"><ele>349.0</ele><time>2026-04-25T11:37:48.254Z</time></trkpt><trkpt lat="43.601343" lon="11.788765"><ele>349.0</ele><time>2026-04-25T11:37:58.151Z</time></trkpt><trkpt lat="43.6015529" lon="11.7885281"><ele>349.0</ele><time>2026-04-25T11:38:38.881Z</time></trkpt><trkpt lat="43.6014843" lon="11.788579"><ele>349.0</ele><time>2026-04-25T11:39:01.88Z</time></trkpt><trkpt lat="43.6014632" lon="11.7886615"><ele>349.0</ele><time>2026-04-25T11:39:04.878Z</time></trkpt><trkpt lat="43.6014397" lon="11.7887559"><ele>349.0</ele><time>2026-04-25T11:39:10.895Z</time></trkpt><trkpt lat="43.6013663" lon="11.7887825"><ele>349.0</ele><time>2026-04-25T11:39:57.884Z</time></trkpt><trkpt lat="43.6013757" lon="11.7888804"><ele>349.0</ele><time>2026-04-25T11:40:34.898Z</time></trkpt><trkpt lat="43.6012023" lon="11.7889818"><ele>349.0</ele><time>2026-04-25T11:41:55.897Z</time></trkpt><trkpt lat="43.6009746" lon="11.7890345"><ele>349.0</ele><time>2026-04-25T11:41:57.882Z</time></trkpt><trkpt lat="43.6007911" lon="11.7890708"><ele>349.0</ele><time>2026-04-25T11:41:58.889Z</time></trkpt><trkpt lat="43.6013108" lon="11.7888234"><ele>349.0</ele><time>2026-04-25T11:42:07.761Z</time></trkpt><trkpt lat="43.6016156" lon="11.788992"><ele>349.0</ele><time>2026-04-25T11:44:01.893Z</time></trkpt><trkpt lat="43.6016917" lon="11.7890422"><ele>349.0</ele><time>2026-04-25T11:44:04.9Z</time></trkpt><trkpt lat="43.6016175" lon="11.7890585"><ele>349.0</ele><time>2026-04-25T11:44:09.91Z</time></trkpt><trkpt lat="43.6015425" lon="11.7890749"><ele>349.0</ele><time>2026-04-25T11:44:12.884Z</time></trkpt><trkpt lat="43.6014632" lon="11.789121"><ele>349.0</ele><time>2026-04-25T11:44:15.894Z</time></trkpt><trkpt lat="43.6013754" lon="11.789151"><ele>349.0</ele><time>2026-04-25T11:44:18.884Z</time></trkpt><trkpt lat="43.6013272" lon="11.7892105"><ele>349.0</ele><time>2026-04-25T11:44:21.885Z</time></trkpt><trkpt lat="43.6013722" lon="11.7890404"><ele>349.0</ele><time>2026-04-25T11:44:26.898Z</time></trkpt><trkpt lat="43.6014421" lon="11.7889229"><ele>349.0</ele><time>2026-04-25T11:44:27.891Z</time></trkpt><trkpt lat="43.6015325" lon="11.7888329"><ele>349.0</ele><time>2026-04-25T11:44:28.898Z</time></trkpt><trkpt lat="43.601621" lon="11.7887844"><ele>349.0</ele><time>2026-04-25T11:44:29.892Z</time></trkpt><trkpt lat="43.6017074" lon="11.7887426"><ele>349.0</ele><time>2026-04-25T11:44:30.92Z</time></trkpt><trkpt lat="43.601788" lon="11.7886935"><ele>349.0</ele><time>2026-04-25T11:44:31.895Z</time></trkpt><trkpt lat="43.6018717" lon="11.7886359"><ele>349.0</ele><time>2026-04-25T11:44:32.892Z</time></trkpt><trkpt lat="43.6019455" lon="11.7885416"><ele>349.0</ele><time>2026-04-25T11:44:33.887Z</time></trkpt><trkpt lat="43.6020151" lon="11.7884245"><ele>349.0</ele><time>2026-04-25T11:44:34.905Z</time></trkpt><trkpt lat="43.6020713" lon="11.7883104"><ele>349.0</ele><time>2026-04-25T11:44:35.887Z</time></trkpt><trkpt lat="43.6021249" lon="11.7882058"><ele>349.0</ele><time>2026-04-25T11:44:36.914Z</time></trkpt><trkpt lat="43.6021659" lon="11.7881076"><ele>350.16666666666663</ele><time>2026-04-25T11:44:37.876Z</time></trkpt><trkpt lat="43.6022062" lon="11.788015"><ele>351.3333333333333</ele><time>2026-04-25T11:44:38.91Z</time></trkpt><trkpt lat="43.60224" lon="11.7879361"><ele>352.5</ele><time>2026-04-25T11:44:39.903Z</time></trkpt><trkpt lat="43.6022917" lon="11.7878141"><ele>353.6666666666667</ele><time>2026-04-25T11:44:41.881Z</time></trkpt><trkpt lat="43.6023523" lon="11.7877082"><ele>354.83333333333337</ele><time>2026-04-25T11:44:43.9Z</time></trkpt><trkpt lat="43.6022708" lon="11.787773"><ele>356.0</ele><time>2026-04-25T11:44:48.898Z</time></trkpt><trkpt lat="43.602215" lon="11.7878253"><ele>356.0</ele><time>2026-04-25T11:44:50.889Z</time></trkpt><trkpt lat="43.6021562" lon="11.7878852"><ele>356.0</ele><time>2026-04-25T11:44:53.904Z</time></trkpt><trkpt lat="43.6019486" lon="11.7879835"><ele>356.0</ele><time>2026-04-25T11:45:03.89Z</time></trkpt><trkpt lat="43.6018098" lon="11.7880306"><ele>356.0</ele><time>2026-04-25T11:45:07.916Z</time></trkpt><trkpt lat="43.6018821" lon="11.788108"><ele>356.0</ele><time>2026-04-25T11:45:15.899Z</time></trkpt><trkpt lat="43.6019401" lon="11.7882412"><ele>356.0</ele><time>2026-04-25T11:45:17.895Z</time></trkpt><trkpt lat="43.6019869" lon="11.7883837"><ele>356.0</ele><time>2026-04-25T11:45:19.901Z</time></trkpt><trkpt lat="43.602" lon="11.7884865"><ele>356.0</ele><time>2026-04-25T11:45:21.901Z</time></trkpt><trkpt lat="43.6019486" lon="11.7885797"><ele>356.0</ele><time>2026-04-25T11:45:24.894Z</time></trkpt><trkpt lat="43.6018726" lon="11.7886245"><ele>354.83333333333337</ele><time>2026-04-25T11:45:26.889Z</time></trkpt><trkpt lat="43.6017942" lon="11.7886441"><ele>353.6666666666667</ele><time>2026-04-25T11:45:28.893Z</time></trkpt><trkpt lat="43.6017165" lon="11.7886493"><ele>352.5</ele><time>2026-04-25T11:45:30.898Z</time></trkpt><trkpt lat="43.6016392" lon="11.7886634"><ele>351.3333333333333</ele><time>2026-04-25T11:45:32.888Z</time></trkpt><trkpt lat="43.6015458" lon="11.788651"><ele>350.16666666666663</ele><time>2026-04-25T11:45:34.901Z</time></trkpt><trkpt lat="43.6014471" lon="11.7885887"><ele>349.0</ele><time>2026-04-25T11:45:36.908Z</time></trkpt><trkpt lat="43.6013648" lon="11.7885097"><ele>349.16666666666663</ele><time>2026-04-25T11:45:38.9Z</time></trkpt><trkpt lat="43.6012938" lon="11.7884735"><ele>349.3333333333333</ele><time>2026-04-25T11:45:40.894Z</time></trkpt><trkpt lat="43.60122" lon="11.7884531"><ele>349.5</ele><time>2026-04-25T11:45:43.9Z</time></trkpt><trkpt lat="43.6012102" lon="11.788313"><ele>349.6666666666667</ele><time>2026-04-25T11:45:50.897Z</time></trkpt><trkpt lat="43.6012539" lon="11.7882219"><ele>349.83333333333337</ele><time>2026-04-25T11:45:51.886Z</time></trkpt><trkpt lat="43.6013142" lon="11.788123"><ele>350.0</ele><time>2026-04-25T11:45:52.895Z</time></trkpt><trkpt lat="43.6013748" lon="11.7880218"><ele>350.0</ele><time>2026-04-25T11:45:53.973Z</time></trkpt><trkpt lat="43.6014286" lon="11.7879439"><ele>350.0</ele><time>2026-04-25T11:45:54.891Z</time></trkpt><trkpt lat="43.6014911" lon="11.787846"><ele>350.0</ele><time>2026-04-25T11:45:56.883Z</time></trkpt><trkpt lat="43.6014836" lon="11.7877467"><ele>350.0</ele><time>2026-04-25T11:45:59.893Z</time></trkpt><trkpt lat="43.6014311" lon="11.7878125"><ele>350.0</ele><time>2026-04-25T11:46:01.902Z</time></trkpt><trkpt lat="43.6014178" lon="11.7879617"><ele>350.0</ele><time>2026-04-25T11:46:03.891Z</time></trkpt><trkpt lat="43.6013046" lon="11.7879926"><ele>350.0</ele><time>2026-04-25T11:46:06.891Z</time></trkpt><trkpt lat="43.6012087" lon="11.7879786"><ele>350.0</ele><time>2026-04-25T11:46:07.896Z</time></trkpt><trkpt lat="43.6011211" lon="11.7879503"><ele>350.0</ele><time>2026-04-25T11:46:08.902Z</time></trkpt><trkpt lat="43.6010449" lon="11.7879284"><ele>350.0</ele><time>2026-04-25T11:46:09.9Z</time></trkpt><trkpt lat="43.6009802" lon="11.7879201"><ele>350.0</ele><time>2026-04-25T11:46:10.901Z</time></trkpt><trkpt lat="43.6009091" lon="11.7879224"><ele>350.0</ele><time>2026-04-25T11:46:12.897Z</time></trkpt><trkpt lat="43.6009556" lon="11.7880236"><ele>350.0</ele><time>2026-04-25T11:46:15.887Z</time></trkpt><trkpt lat="43.6010209" lon="11.7881148"><ele>350.0</ele><time>2026-04-25T11:46:18.883Z</time></trkpt><trkpt lat="43.6010821" lon="11.7881982"><ele>350.0</ele><time>2026-04-25T11:46:20.883Z</time></trkpt><trkpt lat="43.6011509" lon="11.7883071"><ele>350.0</ele><time>2026-04-25T11:46:22.903Z</time></trkpt><trkpt lat="43.601176" lon="11.7883959"><ele>350.0</ele><time>2026-04-25T11:46:24.892Z</time></trkpt><trkpt lat="43.6012065" lon="11.7884806"><ele>350.0</ele><time>2026-04-25T11:46:37.899Z</time></trkpt><trkpt lat="43.6012775" lon="11.7885064"><ele>349.83333333333337</ele><time>2026-04-25T11:46:52.894Z</time></trkpt><trkpt lat="43.6012836" lon="11.7886063"><ele>349.6666666666667</ele><time>2026-04-25T11:46:55.881Z</time></trkpt><trkpt lat="43.6013401" lon="11.7886668"><ele>349.5</ele><time>2026-04-25T11:47:44.888Z</time></trkpt><trkpt lat="43.6014293" lon="11.7886999"><ele>349.3333333333333</ele><time>2026-04-25T11:47:46.891Z</time></trkpt><trkpt lat="43.6015141" lon="11.7887261"><ele>349.16666666666663</ele><time>2026-04-25T11:47:48.902Z</time></trkpt><trkpt lat="43.6016362" lon="11.7887598"><ele>349.0</ele><time>2026-04-25T11:47:50.886Z</time></trkpt><trkpt lat="43.6017017" lon="11.7887902"><ele>349.0</ele><time>2026-04-25T11:47:51.902Z</time></trkpt><trkpt lat="43.6017709" lon="11.7888324"><ele>349.0</ele><time>2026-04-25T11:47:52.882Z</time></trkpt><trkpt lat="43.6018411" lon="11.7888779"><ele>349.0</ele><time>2026-04-25T11:47:53.889Z</time></trkpt><trkpt lat="43.6019079" lon="11.7889182"><ele>349.0</ele><time>2026-04-25T11:47:54.893Z</time></trkpt><trkpt lat="43.6019787" lon="11.7889587"><ele>349.0</ele><time>2026-04-25T11:47:55.891Z</time></trkpt><trkpt lat="43.6020538" lon="11.7889945"><ele>349.0</ele><time>2026-04-25T11:47:56.891Z</time></trkpt><trkpt lat="43.6021246" lon="11.7890269"><ele>349.0</ele><time>2026-04-25T11:47:57.892Z</time></trkpt><trkpt lat="43.6021919" lon="11.7890461"><ele>349.0</ele><time>2026-04-25T11:47:58.894Z</time></trkpt><trkpt lat="43.6022625" lon="11.7890647"><ele>349.0</ele><time>2026-04-25T11:48:00.894Z</time></trkpt><trkpt lat="43.6021648" lon="11.7890434"><ele>349.0</ele><time>2026-04-25T11:48:06.881Z</time></trkpt><trkpt lat="43.6020832" lon="11.7890391"><ele>349.0</ele><time>2026-04-25T11:48:07.904Z</time></trkpt><trkpt lat="43.6020006" lon="11.7890392"><ele>349.0</ele><time>2026-04-25T11:48:08.884Z</time></trkpt><trkpt lat="43.6019222" lon="11.7890422"><ele>349.0</ele><time>2026-04-25T11:48:09.883Z</time></trkpt><trkpt lat="43.6018472" lon="11.7890441"><ele>349.0</ele><time>2026-04-25T11:48:10.901Z</time></trkpt><trkpt lat="43.6017815" lon="11.7890508"><ele>349.0</ele><time>2026-04-25T11:48:11.891Z</time></trkpt><trkpt lat="43.60168" lon="11.7890599"><ele>349.0</ele><time>2026-04-25T11:48:13.89Z</time></trkpt><trkpt lat="43.6016164" lon="11.7890514"><ele>349.0</ele><time>2026-04-25T11:48:17.904Z</time></trkpt><trkpt lat="43.6013364" lon="11.7888157"><ele>349.0</ele><time>2026-04-25T11:49:32.645Z</time></trkpt><trkpt lat="43.6013259" lon="11.7889053"><ele>349.0</ele><time>2026-04-25T11:50:13.878Z</time></trkpt><trkpt lat="43.6014696" lon="11.7889077"><ele>349.0</ele><time>2026-04-25T11:50:22.892Z</time></trkpt><trkpt lat="43.6014071" lon="11.7888383"><ele>349.0</ele><time>2026-04-25T11:50:54.906Z</time></trkpt><trkpt lat="43.6013156" lon="11.7887907"><ele>349.0</ele><time>2026-04-25T11:50:56.896Z</time></trkpt><trkpt lat="43.6012448" lon="11.7887486"><ele>349.0</ele><time>2026-04-25T11:50:58.897Z</time></trkpt><trkpt lat="43.6011553" lon="11.7885295"><ele>349.0</ele><time>2026-04-25T11:51:05.132Z</time></trkpt><trkpt lat="43.6013456" lon="11.7888053"><ele>356.0</ele><time>2026-04-25T11:51:10.629Z</time></trkpt><trkpt lat="43.6016416" lon="11.7876101"><ele>356.0</ele><time>2026-04-25T11:52:05.89Z</time></trkpt><trkpt lat="43.601706" lon="11.7876151"><ele>356.0</ele><time>2026-04-25T11:52:08.88Z</time></trkpt><trkpt lat="43.6016625" lon="11.7877306"><ele>356.0</ele><time>2026-04-25T11:52:10.883Z</time></trkpt><trkpt lat="43.6015724" lon="11.787838"><ele>356.0</ele><time>2026-04-25T11:52:12.886Z</time></trkpt><trkpt lat="43.6014657" lon="11.7879373"><ele>356.0</ele><time>2026-04-25T11:52:14.878Z</time></trkpt><trkpt lat="43.6013907" lon="11.7879789"><ele>355.0</ele><time>2026-04-25T11:52:15.884Z</time></trkpt><trkpt lat="43.6012987" lon="11.7880125"><ele>354.0</ele><time>2026-04-25T11:52:16.883Z</time></trkpt><trkpt lat="43.601199" lon="11.7880337"><ele>353.0</ele><time>2026-04-25T11:52:17.89Z</time></trkpt><trkpt lat="43.601087" lon="11.7880439"><ele>352.0</ele><time>2026-04-25T11:52:18.877Z</time></trkpt><trkpt lat="43.6009788" lon="11.7880523"><ele>351.0</ele><time>2026-04-25T11:52:19.897Z</time></trkpt><trkpt lat="43.6008793" lon="11.7880554"><ele>351.0</ele><time>2026-04-25T11:52:20.898Z</time></trkpt><trkpt lat="43.6007927" lon="11.7880649"><ele>351.0</ele><time>2026-04-25T11:52:21.883Z</time></trkpt><trkpt lat="43.6007134" lon="11.7880835"><ele>351.0</ele><time>2026-04-25T11:52:22.882Z</time></trkpt><trkpt lat="43.6006482" lon="11.7881395"><ele>351.0</ele><time>2026-04-25T11:52:23.881Z</time></trkpt><trkpt lat="43.6005901" lon="11.7882027"><ele>351.0</ele><time>2026-04-25T11:52:25.884Z</time></trkpt><trkpt lat="43.600657" lon="11.7882412"><ele>351.0</ele><time>2026-04-25T11:52:33.89Z</time></trkpt><trkpt lat="43.6007392" lon="11.7882547"><ele>351.00000000000006</ele><time>2026-04-25T11:52:37.905Z</time></trkpt><trkpt lat="43.600675" lon="11.7882922"><ele>351.0</ele><time>2026-04-25T11:52:45.885Z</time></trkpt><trkpt lat="43.600601" lon="11.7882919"><ele>351.0</ele><time>2026-04-25T11:52:48.892Z</time></trkpt><trkpt lat="43.6005182" lon="11.7883085"><ele>351.0</ele><time>2026-04-25T11:52:52.888Z</time></trkpt><trkpt lat="43.6004456" lon="11.7883042"><ele>351.0</ele><time>2026-04-25T11:52:54.879Z</time></trkpt><trkpt lat="43.600374" lon="11.7882939"><ele>351.00000000000006</ele><time>2026-04-25T11:52:56.876Z</time></trkpt><trkpt lat="43.6003089" lon="11.7882824"><ele>351.0</ele><time>2026-04-25T11:52:58.883Z</time></trkpt><trkpt lat="43.6002294" lon="11.7883019"><ele>351.3333333333333</ele><time>2026-04-25T11:53:01.883Z</time></trkpt><trkpt lat="43.6001641" lon="11.7883682"><ele>351.6666666666667</ele><time>2026-04-25T11:53:04.888Z</time></trkpt><trkpt lat="43.6001072" lon="11.7884373"><ele>352.0</ele><time>2026-04-25T11:53:07.878Z</time></trkpt><trkpt lat="43.6000212" lon="11.7884959"><ele>352.33333333333337</ele><time>2026-04-25T11:53:10.882Z</time></trkpt><trkpt lat="43.5999469" lon="11.7885369"><ele>352.6666666666667</ele><time>2026-04-25T11:53:12.883Z</time></trkpt><trkpt lat="43.5998507" lon="11.7885973"><ele>353.0</ele><time>2026-04-25T11:53:14.878Z</time></trkpt><trkpt lat="43.599794" lon="11.7886438"><ele>349.0</ele><time>2026-04-25T11:53:16.456Z</time></trkpt><trkpt lat="43.6012655" lon="11.7888157"><ele>349.0</ele><time>2026-04-25T11:53:27.54Z</time></trkpt><trkpt lat="43.6013266" lon="11.7888535"><ele>349.0</ele><time>2026-04-25T11:57:51.876Z</time></trkpt><trkpt lat="43.6013873" lon="11.788894"><ele>349.0</ele><time>2026-04-25T11:58:06.876Z</time></trkpt><trkpt lat="43.6013263" lon="11.788807"><ele>349.0</ele><time>2026-04-25T11:59:00.874Z</time></trkpt><trkpt lat="43.6012117" lon="11.788752"><ele>349.0</ele><time>2026-04-25T11:59:02.878Z</time></trkpt><trkpt lat="43.6011501" lon="11.7887185"><ele>349.0</ele><time>2026-04-25T11:59:03.875Z</time></trkpt><trkpt lat="43.601035" lon="11.7886658"><ele>349.3333333333333</ele><time>2026-04-25T11:59:05.882Z</time></trkpt><trkpt lat="43.6009754" lon="11.788636"><ele>349.66666666666663</ele><time>2026-04-25T11:59:06.876Z</time></trkpt><trkpt lat="43.6009115" lon="11.7885987"><ele>350.0</ele><time>2026-04-25T11:59:07.874Z</time></trkpt><trkpt lat="43.6008428" lon="11.7885525"><ele>350.3333333333333</ele><time>2026-04-25T11:59:08.881Z</time></trkpt><trkpt lat="43.6007852" lon="11.788502"><ele>350.6666666666667</ele><time>2026-04-25T11:59:09.874Z</time></trkpt><trkpt lat="43.6007338" lon="11.7884467"><ele>351.0</ele><time>2026-04-25T11:59:10.874Z</time></trkpt><trkpt lat="43.6006321" lon="11.7883672"><ele>351.0</ele><time>2026-04-25T11:59:12.88Z</time></trkpt><trkpt lat="43.6005445" lon="11.7883136"><ele>351.0</ele><time>2026-04-25T11:59:14.875Z</time></trkpt><trkpt lat="43.6004816" lon="11.7882792"><ele>351.0</ele><time>2026-04-25T11:59:16.882Z</time></trkpt><trkpt lat="43.6005343" lon="11.7882175"><ele>351.0</ele><time>2026-04-25T11:59:24.882Z</time></trkpt><trkpt lat="43.6005972" lon="11.7882414"><ele>351.0</ele><time>2026-04-25T11:59:26.872Z</time></trkpt><trkpt lat="43.6006573" lon="11.788343"><ele>351.0</ele><time>2026-04-25T11:59:29.877Z</time></trkpt><trkpt lat="43.6006918" lon="11.7884372"><ele>351.00000000000006</ele><time>2026-04-25T11:59:31.872Z</time></trkpt><trkpt lat="43.6007338" lon="11.7885342"><ele>351.0</ele><time>2026-04-25T11:59:33.878Z</time></trkpt><trkpt lat="43.6007813" lon="11.7886254"><ele>351.0</ele><time>2026-04-25T11:59:35.886Z</time></trkpt><trkpt lat="43.6008449" lon="11.7886292"><ele>351.0</ele><time>2026-04-25T11:59:40.881Z</time></trkpt><trkpt lat="43.6008216" lon="11.7885449"><ele>351.0</ele><time>2026-04-25T11:59:43.872Z</time></trkpt><trkpt lat="43.6008119" lon="11.788458"><ele>351.00000000000006</ele><time>2026-04-25T11:59:46.878Z</time></trkpt><trkpt lat="43.6008166" lon="11.7883501"><ele>351.0</ele><time>2026-04-25T11:59:49.887Z</time></trkpt><trkpt lat="43.6007994" lon="11.7882585"><ele>351.0</ele><time>2026-04-25T11:59:52.882Z</time></trkpt><trkpt lat="43.6007689" lon="11.7881809"><ele>351.0</ele><time>2026-04-25T11:59:54.882Z</time></trkpt><trkpt lat="43.6006894" lon="11.7880331"><ele>351.0</ele><time>2026-04-25T11:59:56.875Z</time></trkpt><trkpt lat="43.600634" lon="11.7879405"><ele>351.0</ele><time>2026-04-25T11:59:57.875Z</time></trkpt><trkpt lat="43.6005803" lon="11.7878514"><ele>351.0</ele><time>2026-04-25T11:59:58.879Z</time></trkpt><trkpt lat="43.6005212" lon="11.7877616"><ele>351.0</ele><time>2026-04-25T11:59:59.874Z</time></trkpt><trkpt lat="43.6004649" lon="11.7876785"><ele>351.0</ele><time>2026-04-25T12:00:00.882Z</time></trkpt><trkpt lat="43.600399" lon="11.7875746"><ele>351.0</ele><time>2026-04-25T12:00:01.885Z</time></trkpt><trkpt lat="43.6012413" lon="11.7886697"><ele>351.0</ele><time>2026-04-25T12:00:13.461Z</time></trkpt><trkpt lat="43.6013752" lon="11.7888416"><ele>351.0</ele><time>2026-04-25T12:00:19.259Z</time></trkpt><trkpt lat="43.6010754" lon="11.7887156"><ele>351.0</ele><time>2026-04-25T12:00:56.875Z</time></trkpt><trkpt lat="43.6008632" lon="11.7886389"><ele>351.0</ele><time>2026-04-25T12:00:57.879Z</time></trkpt><trkpt lat="43.6006884" lon="11.7885672"><ele>351.0</ele><time>2026-04-25T12:00:58.881Z</time></trkpt><trkpt lat="43.600554" lon="11.7885162"><ele>351.0</ele><time>2026-04-25T12:00:59.874Z</time></trkpt><trkpt lat="43.6004466" lon="11.788475"><ele>351.0</ele><time>2026-04-25T12:01:00.874Z</time></trkpt><trkpt lat="43.6003649" lon="11.7884475"><ele>351.0</ele><time>2026-04-25T12:01:01.878Z</time></trkpt><trkpt lat="43.600302" lon="11.7884368"><ele>351.0</ele><time>2026-04-25T12:01:02.875Z</time></trkpt><trkpt lat="43.6002178" lon="11.788443"><ele>351.0</ele><time>2026-04-25T12:01:04.888Z</time></trkpt><trkpt lat="43.6001736" lon="11.7885204"><ele>351.0</ele><time>2026-04-25T12:01:08.88Z</time></trkpt><trkpt lat="43.60027" lon="11.7885906"><ele>351.0</ele><time>2026-04-25T12:01:10.871Z</time></trkpt><trkpt lat="43.6003583" lon="11.7886181"><ele>351.0</ele><time>2026-04-25T12:01:11.875Z</time></trkpt><trkpt lat="43.6004585" lon="11.7886344"><ele>351.0</ele><time>2026-04-25T12:01:12.881Z</time></trkpt><trkpt lat="43.6005413" lon="11.7886469"><ele>351.0</ele><time>2026-04-25T12:01:13.879Z</time></trkpt><trkpt lat="43.6006083" lon="11.7886567"><ele>351.0</ele><time>2026-04-25T12:01:14.886Z</time></trkpt><trkpt lat="43.600677" lon="11.7886436"><ele>351.0</ele><time>2026-04-25T12:01:16.882Z</time></trkpt><trkpt lat="43.6007398" lon="11.7886087"><ele>349.0</ele><time>2026-04-25T12:01:18.542Z</time></trkpt><trkpt lat="43.601342" lon="11.7888128"><ele>350.0</ele><time>2026-04-25T12:01:29.82Z</time></trkpt><trkpt lat="43.6009682" lon="11.7887721"><ele>351.0</ele><time>2026-04-25T12:02:04.88Z</time></trkpt><trkpt lat="43.6007666" lon="11.78873"><ele>351.0</ele><time>2026-04-25T12:02:05.877Z</time></trkpt><trkpt lat="43.6006193" lon="11.7886894"><ele>351.0</ele><time>2026-04-25T12:02:06.887Z</time></trkpt><trkpt lat="43.6005391" lon="11.7886654"><ele>351.0</ele><time>2026-04-25T12:02:07.89Z</time></trkpt><trkpt lat="43.6004439" lon="11.7886326"><ele>351.0</ele><time>2026-04-25T12:02:09.879Z</time></trkpt><trkpt lat="43.6003712" lon="11.7885806"><ele>351.0</ele><time>2026-04-25T12:02:12.887Z</time></trkpt><trkpt lat="43.600442" lon="11.7885921"><ele>351.0</ele><time>2026-04-25T12:02:17.887Z</time></trkpt><trkpt lat="43.6006423" lon="11.7886162"><ele>351.0</ele><time>2026-04-25T12:02:27.881Z</time></trkpt><trkpt lat="43.6008267" lon="11.7886225"><ele>351.0</ele><time>2026-04-25T12:02:38.88Z</time></trkpt><trkpt lat="43.6009095" lon="11.7886619"><ele>351.00000000000006</ele><time>2026-04-25T12:02:43.879Z</time></trkpt><trkpt lat="43.6009708" lon="11.7887103"><ele>351.0</ele><time>2026-04-25T12:02:46.887Z</time></trkpt><trkpt lat="43.6010481" lon="11.7887385"><ele>351.0</ele><time>2026-04-25T12:02:49.892Z</time></trkpt><trkpt lat="43.6010243" lon="11.7888388"><ele>351.0</ele><time>2026-04-25T12:03:05.9Z</time></trkpt><trkpt lat="43.6010679" lon="11.7889087"><ele>351.0</ele><time>2026-04-25T12:03:07.877Z</time></trkpt><trkpt lat="43.6011235" lon="11.7889854"><ele>351.00000000000006</ele><time>2026-04-25T12:03:11.876Z</time></trkpt><trkpt lat="43.6011853" lon="11.7890475"><ele>351.0</ele><time>2026-04-25T12:03:13.876Z</time></trkpt><trkpt lat="43.601244" lon="11.789093"><ele>350.5</ele><time>2026-04-25T12:03:15.871Z</time></trkpt><trkpt lat="43.6012337" lon="11.7889821"><ele>350.0</ele><time>2026-04-25T12:04:13.878Z</time></trkpt><trkpt lat="43.6014645" lon="11.7889385"><ele>349.5</ele><time>2026-04-25T12:04:29.875Z</time></trkpt><trkpt lat="43.6014478" lon="11.7890304"><ele>349.0</ele><time>2026-04-25T12:04:44.876Z</time></trkpt><trkpt lat="43.6014827" lon="11.7891517"><ele>349.0</ele><time>2026-04-25T12:04:45.882Z</time></trkpt><trkpt lat="43.6015273" lon="11.7892826"><ele>349.0</ele><time>2026-04-25T12:04:47.876Z</time></trkpt><trkpt lat="43.601484" lon="11.7891874"><ele>349.0</ele><time>2026-04-25T12:04:52.88Z</time></trkpt><trkpt lat="43.6014374" lon="11.7891064"><ele>349.0</ele><time>2026-04-25T12:04:53.869Z</time></trkpt><trkpt lat="43.6013823" lon="11.7890324"><ele>349.0</ele><time>2026-04-25T12:04:54.874Z</time></trkpt><trkpt lat="43.6013171" lon="11.7889702"><ele>349.0</ele><time>2026-04-25T12:04:55.888Z</time></trkpt><trkpt lat="43.6012468" lon="11.7889293"><ele>349.0</ele><time>2026-04-25T12:04:56.885Z</time></trkpt><trkpt lat="43.6011728" lon="11.7889036"><ele>349.0</ele><time>2026-04-25T12:04:57.884Z</time></trkpt><trkpt lat="43.6011023" lon="11.7888869"><ele>349.0</ele><time>2026-04-25T12:04:58.875Z</time></trkpt><trkpt lat="43.6010035" lon="11.7888741"><ele>349.0</ele><time>2026-04-25T12:05:00.882Z</time></trkpt><trkpt lat="43.6010947" lon="11.7891529"><ele>349.0</ele><time>2026-04-25T12:05:07.88Z</time></trkpt><trkpt lat="43.6011904" lon="11.7892879"><ele>349.0</ele><time>2026-04-25T12:05:08.892Z</time></trkpt><trkpt lat="43.6012719" lon="11.7893988"><ele>349.0</ele><time>2026-04-25T12:05:09.874Z</time></trkpt><trkpt lat="43.6013398" lon="11.7895"><ele>349.0</ele><time>2026-04-25T12:05:10.872Z</time></trkpt><trkpt lat="43.6013863" lon="11.7895979"><ele>349.0</ele><time>2026-04-25T12:05:11.88Z</time></trkpt><trkpt lat="43.601444" lon="11.7897594"><ele>352.0</ele><time>2026-04-25T12:05:13.882Z</time></trkpt><trkpt lat="43.6014519" lon="11.7898568"><ele>355.0</ele><time>2026-04-25T12:05:14.88Z</time></trkpt><trkpt lat="43.6015786" lon="11.7902"><ele>358.0</ele><time>2026-04-25T12:05:18.878Z</time></trkpt><trkpt lat="43.6016057" lon="11.7902828"><ele>361.0</ele><time>2026-04-25T12:05:19.828Z</time></trkpt><trkpt lat="43.6014884" lon="11.7905915"><ele>361.0</ele><time>2026-04-25T12:05:35.888Z</time></trkpt><trkpt lat="43.6014189" lon="11.7905423"><ele>361.0</ele><time>2026-04-25T12:05:36.881Z</time></trkpt><trkpt lat="43.6012738" lon="11.7903918"><ele>361.0</ele><time>2026-04-25T12:05:40.875Z</time></trkpt><trkpt lat="43.6012546" lon="11.7902907"><ele>361.0</ele><time>2026-04-25T12:05:41.874Z</time></trkpt><trkpt lat="43.6012417" lon="11.7901455"><ele>361.0</ele><time>2026-04-25T12:05:43.89Z</time></trkpt><trkpt lat="43.6012047" lon="11.7900488"><ele>361.2857142857143</ele><time>2026-04-25T12:05:45.882Z</time></trkpt><trkpt lat="43.6011375" lon="11.7899545"><ele>361.57142857142856</ele><time>2026-04-25T12:05:47.877Z</time></trkpt><trkpt lat="43.6010853" lon="11.7899021"><ele>361.85714285714283</ele><time>2026-04-25T12:05:48.883Z</time></trkpt><trkpt lat="43.6010299" lon="11.789849"><ele>362.1428571428571</ele><time>2026-04-25T12:05:49.886Z</time></trkpt><trkpt lat="43.6009694" lon="11.7897914"><ele>362.42857142857144</ele><time>2026-04-25T12:05:50.878Z</time></trkpt><trkpt lat="43.6009109" lon="11.7897309"><ele>362.71428571428567</ele><time>2026-04-25T12:05:51.896Z</time></trkpt><trkpt lat="43.60086" lon="11.7896794"><ele>363.0</ele><time>2026-04-25T12:05:52.887Z</time></trkpt><trkpt lat="43.6008129" lon="11.7895915"><ele>363.0</ele><time>2026-04-25T12:05:54.886Z</time></trkpt><trkpt lat="43.6008342" lon="11.7894912"><ele>363.0</ele><time>2026-04-25T12:05:58.87Z</time></trkpt><trkpt lat="43.6008398" lon="11.7894022"><ele>363.0</ele><time>2026-04-25T12:06:04.874Z</time></trkpt><trkpt lat="43.6013446" lon="11.7888128"><ele>360.6666666666667</ele><time>2026-04-25T12:06:16.763Z</time></trkpt><trkpt lat="43.6014548" lon="11.7888312"><ele>358.3333333333333</ele><time>2026-04-25T12:07:51.882Z</time></trkpt><trkpt lat="43.6015141" lon="11.7888704"><ele>356.0</ele><time>2026-04-25T12:07:53.878Z</time></trkpt><trkpt lat="43.6015852" lon="11.7889257"><ele>353.66666666666663</ele><time>2026-04-25T12:07:55.879Z</time></trkpt><trkpt lat="43.6016455" lon="11.7889838"><ele>351.3333333333333</ele><time>2026-04-25T12:07:57.882Z</time></trkpt><trkpt lat="43.6017097" lon="11.7890228"><ele>349.0</ele><time>2026-04-25T12:07:59.872Z</time></trkpt><trkpt lat="43.6018181" lon="11.7890199"><ele>349.0</ele><time>2026-04-25T12:08:01.889Z</time></trkpt><trkpt lat="43.6018911" lon="11.789014"><ele>349.0</ele><time>2026-04-25T12:08:02.877Z</time></trkpt><trkpt lat="43.6019691" lon="11.7890116"><ele>349.0</ele><time>2026-04-25T12:08:03.875Z</time></trkpt><trkpt lat="43.6020516" lon="11.7890089"><ele>349.0</ele><time>2026-04-25T12:08:04.876Z</time></trkpt><trkpt lat="43.6021393" lon="11.7890065"><ele>349.0</ele><time>2026-04-25T12:08:05.874Z</time></trkpt><trkpt lat="43.6022307" lon="11.7890002"><ele>349.0</ele><time>2026-04-25T12:08:06.874Z</time></trkpt><trkpt lat="43.6023171" lon="11.788988"><ele>349.0</ele><time>2026-04-25T12:08:07.88Z</time></trkpt><trkpt lat="43.6023985" lon="11.7889699"><ele>349.0</ele><time>2026-04-25T12:08:08.873Z</time></trkpt><trkpt lat="43.6024761" lon="11.7889419"><ele>349.0</ele><time>2026-04-25T12:08:09.876Z</time></trkpt><trkpt lat="43.6025453" lon="11.7889173"><ele>349.0</ele><time>2026-04-25T12:08:10.874Z</time></trkpt><trkpt lat="43.6026096" lon="11.7888978"><ele>349.0</ele><time>2026-04-25T12:08:11.886Z</time></trkpt><trkpt lat="43.6027247" lon="11.7888708"><ele>349.0</ele><time>2026-04-25T12:08:13.871Z</time></trkpt><trkpt lat="43.6028111" lon="11.7888577"><ele>349.0</ele><time>2026-04-25T12:08:15.872Z</time></trkpt><trkpt lat="43.6027196" lon="11.7888915"><ele>349.0</ele><time>2026-04-25T12:08:19.891Z</time></trkpt><trkpt lat="43.6026335" lon="11.7889102"><ele>349.0</ele><time>2026-04-25T12:08:20.883Z</time></trkpt><trkpt lat="43.6025453" lon="11.7889282"><ele>349.0</ele><time>2026-04-25T12:08:21.889Z</time></trkpt><trkpt lat="43.6024594" lon="11.7889422"><ele>349.0</ele><time>2026-04-25T12:08:22.878Z</time></trkpt><trkpt lat="43.6023842" lon="11.7889566"><ele>349.0</ele><time>2026-04-25T12:08:23.882Z</time></trkpt><trkpt lat="43.6023174" lon="11.7889672"><ele>349.0</ele><time>2026-04-25T12:08:24.882Z</time></trkpt><trkpt lat="43.6021953" lon="11.7889807"><ele>349.0</ele><time>2026-04-25T12:08:26.882Z</time></trkpt><trkpt lat="43.6021273" lon="11.7889848"><ele>349.0</ele><time>2026-04-25T12:08:27.884Z</time></trkpt><trkpt lat="43.6020294" lon="11.7889963"><ele>349.0</ele><time>2026-04-25T12:08:29.872Z</time></trkpt><trkpt lat="43.6019333" lon="11.7889958"><ele>349.0</ele><time>2026-04-25T12:08:31.878Z</time></trkpt><trkpt lat="43.6018617" lon="11.788995"><ele>349.0</ele><time>2026-04-25T12:08:33.875Z</time></trkpt><trkpt lat="43.6017846" lon="11.7890131"><ele>349.0</ele><time>2026-04-25T12:08:36.885Z</time></trkpt><trkpt lat="43.6018718" lon="11.7891588"><ele>349.0</ele><time>2026-04-25T12:08:43.876Z</time></trkpt><trkpt lat="43.6019837" lon="11.7892319"><ele>349.0</ele><time>2026-04-25T12:08:44.873Z</time></trkpt><trkpt lat="43.6020919" lon="11.7892974"><ele>349.0</ele><time>2026-04-25T12:08:45.873Z</time></trkpt><trkpt lat="43.6022919" lon="11.7894793"><ele>349.0</ele><time>2026-04-25T12:08:49.555Z</time></trkpt><trkpt lat="43.6015096" lon="11.7889563"><ele>349.0</ele><time>2026-04-25T12:08:55.073Z</time></trkpt><trkpt lat="43.6013616" lon="11.7888505"><ele>349.0</ele><time>2026-04-25T12:09:00.806Z</time></trkpt><trkpt lat="43.6007" lon="11.7879957"><ele>349.3333333333333</ele><time>2026-04-25T12:10:07.886Z</time></trkpt><trkpt lat="43.6006155" lon="11.7878938"><ele>349.66666666666663</ele><time>2026-04-25T12:10:08.88Z</time></trkpt><trkpt lat="43.600547" lon="11.7878311"><ele>350.0</ele><time>2026-04-25T12:10:10.885Z</time></trkpt><trkpt lat="43.600608" lon="11.7878891"><ele>350.3333333333333</ele><time>2026-04-25T12:10:14.881Z</time></trkpt><trkpt lat="43.6006778" lon="11.7878642"><ele>350.6666666666667</ele><time>2026-04-25T12:10:17.914Z</time></trkpt><trkpt lat="43.6007559" lon="11.7879069"><ele>351.0</ele><time>2026-04-25T12:10:22.887Z</time></trkpt><trkpt lat="43.6008335" lon="11.7879462"><ele>351.0</ele><time>2026-04-25T12:10:37.875Z</time></trkpt><trkpt lat="43.6009032" lon="11.7880377"><ele>351.0</ele><time>2026-04-25T12:10:41.877Z</time></trkpt><trkpt lat="43.6009329" lon="11.7881404"><ele>351.0</ele><time>2026-04-25T12:10:43.874Z</time></trkpt><trkpt lat="43.6009638" lon="11.7882265"><ele>351.0</ele><time>2026-04-25T12:10:45.874Z</time></trkpt><trkpt lat="43.6007589" lon="11.7880966"><ele>351.0</ele><time>2026-04-25T12:11:25.876Z</time></trkpt><trkpt lat="43.6006876" lon="11.7880199"><ele>351.0</ele><time>2026-04-25T12:11:27.649Z</time></trkpt><trkpt lat="43.6013351" lon="11.7888079"><ele>351.0</ele><time>2026-04-25T12:11:35.881Z</time></trkpt><trkpt lat="43.6011968" lon="11.7885633"><ele>351.0</ele><time>2026-04-25T12:12:16.874Z</time></trkpt><trkpt lat="43.6010545" lon="11.7883371"><ele>351.0</ele><time>2026-04-25T12:12:17.871Z</time></trkpt><trkpt lat="43.6009301" lon="11.788163"><ele>351.0</ele><time>2026-04-25T12:12:18.877Z</time></trkpt><trkpt lat="43.6007998" lon="11.787982"><ele>351.0</ele><time>2026-04-25T12:12:19.873Z</time></trkpt><trkpt lat="43.6006966" lon="11.7878398"><ele>351.0</ele><time>2026-04-25T12:12:20.872Z</time></trkpt><trkpt lat="43.6006083" lon="11.7877249"><ele>351.0</ele><time>2026-04-25T12:12:21.868Z</time></trkpt><trkpt lat="43.6005287" lon="11.787633"><ele>351.0</ele><time>2026-04-25T12:12:22.881Z</time></trkpt><trkpt lat="43.6004593" lon="11.7875465"><ele>351.0</ele><time>2026-04-25T12:12:23.869Z</time></trkpt><trkpt lat="43.6003919" lon="11.787455"><ele>351.0</ele><time>2026-04-25T12:12:24.869Z</time></trkpt><trkpt lat="43.6003168" lon="11.7873448"><ele>351.0</ele><time>2026-04-25T12:12:25.875Z</time></trkpt><trkpt lat="43.6002468" lon="11.7872204"><ele>351.0</ele><time>2026-04-25T12:12:26.868Z</time></trkpt><trkpt lat="43.6001824" lon="11.7871036"><ele>351.0</ele><time>2026-04-25T12:12:27.872Z</time></trkpt><trkpt lat="43.6001249" lon="11.7870035"><ele>351.0</ele><time>2026-04-25T12:12:28.88Z</time></trkpt><trkpt lat="43.6000729" lon="11.7869101"><ele>351.0</ele><time>2026-04-25T12:12:29.882Z</time></trkpt><trkpt lat="43.6000225" lon="11.7868186"><ele>351.0</ele><time>2026-04-25T12:12:31.878Z</time></trkpt><trkpt lat="43.6000669" lon="11.7868866"><ele>351.0</ele><time>2026-04-25T12:12:33.871Z</time></trkpt><trkpt lat="43.6001579" lon="11.7870039"><ele>351.0</ele><time>2026-04-25T12:12:35.877Z</time></trkpt><trkpt lat="43.6002025" lon="11.7870757"><ele>351.0</ele><time>2026-04-25T12:12:36.885Z</time></trkpt><trkpt lat="43.6002802" lon="11.7871956"><ele>351.0</ele><time>2026-04-25T12:12:38.875Z</time></trkpt><trkpt lat="43.6003254" lon="11.7872916"><ele>351.0</ele><time>2026-04-25T12:12:40.876Z</time></trkpt><trkpt lat="43.6006363" lon="11.787554"><ele>351.0</ele><time>2026-04-25T12:13:09.884Z</time></trkpt><trkpt lat="43.6006384" lon="11.7877"><ele>351.0</ele><time>2026-04-25T12:13:11.877Z</time></trkpt><trkpt lat="43.6006419" lon="11.7878383"><ele>351.0</ele><time>2026-04-25T12:13:13.877Z</time></trkpt><trkpt lat="43.6006421" lon="11.7879484"><ele>351.0</ele><time>2026-04-25T12:13:15.881Z</time></trkpt><trkpt lat="43.6006616" lon="11.7880581"><ele>351.0</ele><time>2026-04-25T12:13:17.883Z</time></trkpt><trkpt lat="43.6006872" lon="11.7881691"><ele>351.0</ele><time>2026-04-25T12:13:19.872Z</time></trkpt><trkpt lat="43.6007194" lon="11.7882939"><ele>351.0</ele><time>2026-04-25T12:13:21.869Z</time></trkpt><trkpt lat="43.6007781" lon="11.7883982"><ele>351.0</ele><time>2026-04-25T12:13:23.872Z</time></trkpt><trkpt lat="43.6008448" lon="11.7884509"><ele>351.0</ele><time>2026-04-25T12:13:25.866Z</time></trkpt><trkpt lat="43.6009493" lon="11.7885002"><ele>351.0</ele><time>2026-04-25T12:13:27.873Z</time></trkpt><trkpt lat="43.6010135" lon="11.7885212"><ele>351.0</ele><time>2026-04-25T12:13:28.877Z</time></trkpt><trkpt lat="43.6010805" lon="11.7885498"><ele>351.0</ele><time>2026-04-25T12:13:29.874Z</time></trkpt><trkpt lat="43.6011548" lon="11.7885924"><ele>351.0</ele><time>2026-04-25T12:13:30.888Z</time></trkpt><trkpt lat="43.6012347" lon="11.7886436"><ele>351.0</ele><time>2026-04-25T12:13:31.874Z</time></trkpt><trkpt lat="43.6013124" lon="11.7886943"><ele>351.0</ele><time>2026-04-25T12:13:32.872Z</time></trkpt><trkpt lat="43.6013919" lon="11.7887439"><ele>351.0</ele><time>2026-04-25T12:13:33.872Z</time></trkpt><trkpt lat="43.6014616" lon="11.7887874"><ele>351.0</ele><time>2026-04-25T12:13:34.867Z</time></trkpt><trkpt lat="43.6015211" lon="11.7888213"><ele>350.5</ele><time>2026-04-25T12:13:35.878Z</time></trkpt><trkpt lat="43.6016164" lon="11.7888667"><ele>350.0</ele><time>2026-04-25T12:13:37.869Z</time></trkpt><trkpt lat="43.6016831" lon="11.7888783"><ele>349.5</ele><time>2026-04-25T12:13:39.87Z</time></trkpt><trkpt lat="43.6017655" lon="11.7888835"><ele>349.0</ele><time>2026-04-25T12:13:42.039Z</time></trkpt><trkpt lat="43.6014045" lon="11.7888213"><ele>349.0</ele><time>2026-04-25T12:13:52.689Z</time></trkpt><trkpt lat="43.6013383" lon="11.7888107"><ele>349.0</ele><time>2026-04-25T12:14:03.297Z</time></trkpt><trkpt lat="43.6011971" lon="11.7887179"><ele>349.0</ele><time>2026-04-25T12:14:50.87Z</time></trkpt><trkpt lat="43.6011297" lon="11.7886687"><ele>349.0</ele><time>2026-04-25T12:14:51.88Z</time></trkpt><trkpt lat="43.6010301" lon="11.7885999"><ele>349.0</ele><time>2026-04-25T12:14:53.887Z</time></trkpt><trkpt lat="43.6009554" lon="11.7885615"><ele>349.4</ele><time>2026-04-25T12:14:55.872Z</time></trkpt><trkpt lat="43.6008898" lon="11.7885462"><ele>349.79999999999995</ele><time>2026-04-25T12:14:58.885Z</time></trkpt><trkpt lat="43.60088" lon="11.7886366"><ele>350.20000000000005</ele><time>2026-04-25T12:15:09.878Z</time></trkpt><trkpt lat="43.6008035" lon="11.7886626"><ele>350.6</ele><time>2026-04-25T12:15:17.878Z</time></trkpt><trkpt lat="43.6009569" lon="11.7888717"><ele>351.0</ele><time>2026-04-25T12:16:03.893Z</time></trkpt><trkpt lat="43.6009729" lon="11.7889842"><ele>351.00000000000006</ele><time>2026-04-25T12:16:06.873Z</time></trkpt><trkpt lat="43.6010025" lon="11.7890619"><ele>351.0</ele><time>2026-04-25T12:16:15.882Z</time></trkpt><trkpt lat="43.6010763" lon="11.7890613"><ele>351.0</ele><time>2026-04-25T12:16:19.872Z</time></trkpt><trkpt lat="43.6011412" lon="11.7890133"><ele>351.0</ele><time>2026-04-25T12:16:22.879Z</time></trkpt><trkpt lat="43.6011895" lon="11.7889492"><ele>351.0</ele><time>2026-04-25T12:16:25.876Z</time></trkpt><trkpt lat="43.6012215" lon="11.7888464"><ele>351.00000000000006</ele><time>2026-04-25T12:16:29.881Z</time></trkpt><trkpt lat="43.601242" lon="11.7887633"><ele>351.0</ele><time>2026-04-25T12:16:31.892Z</time></trkpt><trkpt lat="43.6012257" lon="11.7886379"><ele>350.6666666666667</ele><time>2026-04-25T12:16:35.876Z</time></trkpt><trkpt lat="43.601172" lon="11.7885565"><ele>350.3333333333333</ele><time>2026-04-25T12:16:37.868Z</time></trkpt><trkpt lat="43.6012299" lon="11.7886445"><ele>350.0</ele><time>2026-04-25T12:17:20.883Z</time></trkpt><trkpt lat="43.6012911" lon="11.788684"><ele>349.66666666666663</ele><time>2026-04-25T12:17:23.892Z</time></trkpt><trkpt lat="43.6013262" lon="11.7887776"><ele>349.3333333333333</ele><time>2026-04-25T12:17:30.872Z</time></trkpt><trkpt lat="43.6013956" lon="11.7888541"><ele>349.0</ele><time>2026-04-25T12:17:32.874Z</time></trkpt><trkpt lat="43.6014688" lon="11.7889145"><ele>348.99999999999994</ele><time>2026-04-25T12:17:35.892Z</time></trkpt><trkpt lat="43.601551" lon="11.7889036"><ele>349.0</ele><time>2026-04-25T12:17:39.889Z</time></trkpt><trkpt lat="43.6016081" lon="11.7888454"><ele>349.0</ele><time>2026-04-25T12:17:42.873Z</time></trkpt><trkpt lat="43.601634" lon="11.7887613"><ele>349.0</ele><time>2026-04-25T12:17:45.885Z</time></trkpt><trkpt lat="43.6016641" lon="11.7886661"><ele>349.0</ele><time>2026-04-25T12:17:48.882Z</time></trkpt><trkpt lat="43.6017183" lon="11.7886049"><ele>348.99999999999994</ele><time>2026-04-25T12:17:53.876Z</time></trkpt><trkpt lat="43.6017851" lon="11.7886344"><ele>349.0</ele><time>2026-04-25T12:17:58.882Z</time></trkpt><trkpt lat="43.6018334" lon="11.7887"><ele>349.0</ele><time>2026-04-25T12:18:01.874Z</time></trkpt><trkpt lat="43.6018351" lon="11.7887968"><ele>349.0</ele><time>2026-04-25T12:18:04.877Z</time></trkpt><trkpt lat="43.60189" lon="11.7888788"><ele>349.0</ele><time>2026-04-25T12:18:06.89Z</time></trkpt><trkpt lat="43.6019654" lon="11.7889666"><ele>349.0</ele><time>2026-04-25T12:18:08.897Z</time></trkpt><trkpt lat="43.6020162" lon="11.7890351"><ele>349.0</ele><time>2026-04-25T12:18:10.89Z</time></trkpt><trkpt lat="43.6019669" lon="11.7890971"><ele>349.0</ele><time>2026-04-25T12:18:17.888Z</time></trkpt><trkpt lat="43.6018902" lon="11.789108"><ele>349.0</ele><time>2026-04-25T12:18:20.88Z</time></trkpt><trkpt lat="43.6017587" lon="11.7890475"><ele>349.0</ele><time>2026-04-25T12:18:24.888Z</time></trkpt><trkpt lat="43.6016826" lon="11.7889917"><ele>349.0</ele><time>2026-04-25T12:18:26.882Z</time></trkpt><trkpt lat="43.6016252" lon="11.7889496"><ele>349.0</ele><time>2026-04-25T12:18:30.887Z</time></trkpt><trkpt lat="43.6015657" lon="11.7889173"><ele>349.0</ele><time>2026-04-25T12:18:55.879Z</time></trkpt><trkpt lat="43.601512" lon="11.7888272"><ele>349.0</ele><time>2026-04-25T12:19:00.874Z</time></trkpt><trkpt lat="43.601451" lon="11.7887689"><ele>349.0</ele><time>2026-04-25T12:19:01.882Z</time></trkpt><trkpt lat="43.6013387" lon="11.7886907"><ele>349.0</ele><time>2026-04-25T12:19:05.883Z</time></trkpt><trkpt lat="43.6013455" lon="11.7885633"><ele>349.0</ele><time>2026-04-25T12:21:04.874Z</time></trkpt><trkpt lat="43.6013281" lon="11.788441"><ele>349.0</ele><time>2026-04-25T12:21:06.887Z</time></trkpt><trkpt lat="43.6013133" lon="11.7883317"><ele>349.0</ele><time>2026-04-25T12:21:09.876Z</time></trkpt><trkpt lat="43.6013088" lon="11.7884233"><ele>349.0</ele><time>2026-04-25T12:21:14.896Z</time></trkpt><trkpt lat="43.601392" lon="11.7884584"><ele>349.0</ele><time>2026-04-25T12:22:43.893Z</time></trkpt><trkpt lat="43.6013753" lon="11.7885634"><ele>349.0</ele><time>2026-04-25T12:24:51.887Z</time></trkpt><trkpt lat="43.6014061" lon="11.7886401"><ele>349.0</ele><time>2026-04-25T12:25:21.87Z</time></trkpt><trkpt lat="43.6014869" lon="11.7886677"><ele>349.0</ele><time>2026-04-25T12:25:24.88Z</time></trkpt><trkpt lat="43.6015128" lon="11.7885821"><ele>349.0</ele><time>2026-04-25T12:25:26.101Z</time></trkpt><trkpt lat="43.6013382" lon="11.7888177"><ele>348.99999999999994</ele><time>2026-04-25T12:25:37.305Z</time></trkpt><trkpt lat="43.6012789" lon="11.7887734"><ele>349.0</ele><time>2026-04-25T12:25:43.871Z</time></trkpt><trkpt lat="43.6012085" lon="11.7888059"><ele>349.0</ele><time>2026-04-25T12:25:50.868Z</time></trkpt><trkpt lat="43.6011367" lon="11.7888369"><ele>349.0</ele><time>2026-04-25T12:25:56.865Z</time></trkpt><trkpt lat="43.6010759" lon="11.7888097"><ele>349.0</ele><time>2026-04-25T12:25:59.894Z</time></trkpt><trkpt lat="43.6011264" lon="11.7887528"><ele>348.99999999999994</ele><time>2026-04-25T12:26:09.014Z</time></trkpt><trkpt lat="43.601175" lon="11.7886942"><ele>349.0</ele><time>2026-04-25T12:26:14.899Z</time></trkpt><trkpt lat="43.6012183" lon="11.7887581"><ele>348.99999999999994</ele><time>2026-04-25T12:26:27.896Z</time></trkpt><trkpt lat="43.6012752" lon="11.7888682"><ele>349.0</ele><time>2026-04-25T12:26:46.893Z</time></trkpt><trkpt lat="43.6013246" lon="11.7889253"><ele>349.0</ele><time>2026-04-25T12:27:38.887Z</time></trkpt><trkpt lat="43.6013758" lon="11.7889839"><ele>349.0</ele><time>2026-04-25T12:27:41.887Z</time></trkpt><trkpt lat="43.6014392" lon="11.7890392"><ele>349.0</ele><time>2026-04-25T12:27:45.882Z</time></trkpt><trkpt lat="43.6014954" lon="11.7890831"><ele>348.99999999999994</ele><time>2026-04-25T12:27:49.891Z</time></trkpt><trkpt lat="43.6015494" lon="11.7891419"><ele>349.0</ele><time>2026-04-25T12:27:58.876Z</time></trkpt><trkpt lat="43.6014893" lon="11.7891022"><ele>348.99999999999994</ele><time>2026-04-25T12:28:18.893Z</time></trkpt><trkpt lat="43.6014345" lon="11.7890362"><ele>349.0</ele><time>2026-04-25T12:28:21.868Z</time></trkpt><trkpt lat="43.6013886" lon="11.7889745"><ele>349.0</ele><time>2026-04-25T12:28:33.88Z</time></trkpt><trkpt lat="43.6013515" lon="11.788904"><ele>349.0</ele><time>2026-04-25T12:28:45.887Z</time></trkpt><trkpt lat="43.6012953" lon="11.7888637"><ele>349.0</ele><time>2026-04-25T12:29:04.89Z</time></trkpt><trkpt lat="43.6013583" lon="11.7888535"><ele>348.99999999999994</ele><time>2026-04-25T12:32:28.892Z</time></trkpt><trkpt lat="43.6012789" lon="11.7889292"><ele>349.0</ele><time>2026-04-25T12:37:27.881Z</time></trkpt><trkpt lat="43.6012119" lon="11.7888214"><ele>349.3333333333333</ele><time>2026-04-25T12:37:28.886Z</time></trkpt><trkpt lat="43.6011629" lon="11.788739"><ele>349.66666666666663</ele><time>2026-04-25T12:37:29.878Z</time></trkpt><trkpt lat="43.6011181" lon="11.7886625"><ele>350.0</ele><time>2026-04-25T12:37:30.896Z</time></trkpt><trkpt lat="43.6010711" lon="11.7885887"><ele>350.3333333333333</ele><time>2026-04-25T12:37:31.881Z</time></trkpt><trkpt lat="43.6010084" lon="11.7884894"><ele>350.6666666666667</ele><time>2026-04-25T12:37:33.864Z</time></trkpt><trkpt lat="43.6009572" lon="11.7884096"><ele>351.0</ele><time>2026-04-25T12:37:38.887Z</time></trkpt><trkpt lat="43.6009522" lon="11.7885034"><ele>351.0</ele><time>2026-04-25T12:38:10.893Z</time></trkpt><trkpt lat="43.6009946" lon="11.788616"><ele>351.0</ele><time>2026-04-25T12:38:12.862Z</time></trkpt><trkpt lat="43.6010463" lon="11.7887147"><ele>351.0</ele><time>2026-04-25T12:38:15.882Z</time></trkpt><trkpt lat="43.6010951" lon="11.7887808"><ele>351.0</ele><time>2026-04-25T12:38:17.888Z</time></trkpt><trkpt lat="43.6011461" lon="11.7888524"><ele>351.0</ele><time>2026-04-25T12:38:19.89Z</time></trkpt><trkpt lat="43.6012234" lon="11.7888912"><ele>351.0</ele><time>2026-04-25T12:42:28.89Z</time></trkpt><trkpt lat="43.6012918" lon="11.7889328"><ele>350.6666666666667</ele><time>2026-04-25T12:42:30.878Z</time></trkpt><trkpt lat="43.6013696" lon="11.7889818"><ele>350.3333333333333</ele><time>2026-04-25T12:42:32.895Z</time></trkpt><trkpt lat="43.6014635" lon="11.7890441"><ele>350.0</ele><time>2026-04-25T12:42:34.887Z</time></trkpt><trkpt lat="43.6015193" lon="11.7891271"><ele>349.66666666666663</ele><time>2026-04-25T12:42:36.872Z</time></trkpt><trkpt lat="43.6015625" lon="11.7892055"><ele>349.3333333333333</ele><time>2026-04-25T12:42:38.865Z</time></trkpt><trkpt lat="43.6016158" lon="11.7893123"><ele>349.0</ele><time>2026-04-25T12:42:40.87Z</time></trkpt><trkpt lat="43.6016764" lon="11.7894334"><ele>349.0</ele><time>2026-04-25T12:42:42.88Z</time></trkpt><trkpt lat="43.6017168" lon="11.7895159"><ele>349.0</ele><time>2026-04-25T12:42:45.883Z</time></trkpt><trkpt lat="43.6016434" lon="11.7894116"><ele>349.0</ele><time>2026-04-25T12:42:48.878Z</time></trkpt><trkpt lat="43.6015876" lon="11.7892827"><ele>349.0</ele><time>2026-04-25T12:42:55.887Z</time></trkpt><trkpt lat="43.6015076" lon="11.78919"><ele>349.0</ele><time>2026-04-25T12:42:57.048Z</time></trkpt><trkpt lat="43.6013531" lon="11.7890059"><ele>348.99999999999994</ele><time>2026-04-25T12:42:58.896Z</time></trkpt><trkpt lat="43.6013017" lon="11.7889379"><ele>349.0</ele><time>2026-04-25T12:43:02.05Z</time></trkpt><trkpt lat="43.6012661" lon="11.7888517"><ele>349.0</ele><time>2026-04-25T12:43:19.875Z</time></trkpt><trkpt lat="43.6012362" lon="11.7887704"><ele>349.0</ele><time>2026-04-25T12:43:32.866Z</time></trkpt><trkpt lat="43.6012911" lon="11.78882"><ele>349.0</ele><time>2026-04-25T12:51:01.897Z</time></trkpt><trkpt lat="43.6013473" lon="11.7888895"><ele>348.99999999999994</ele><time>2026-04-25T12:52:55.878Z</time></trkpt><trkpt lat="43.6014221" lon="11.7889514"><ele>349.0</ele><time>2026-04-25T12:52:57.869Z</time></trkpt><trkpt lat="43.6014848" lon="11.7890026"><ele>349.0</ele><time>2026-04-25T12:52:59.879Z</time></trkpt><trkpt lat="43.6013348" lon="11.7888266"><ele>349.0</ele><time>2026-04-25T12:53:48.448Z</time></trkpt><trkpt lat="43.6012653" lon="11.7889199"><ele>349.0</ele><time>2026-04-25T12:55:11.873Z</time></trkpt><trkpt lat="43.6013244" lon="11.7889701"><ele>349.0</ele><time>2026-04-25T12:55:12.871Z</time></trkpt><trkpt lat="43.6013759" lon="11.7890233"><ele>349.0</ele><time>2026-04-25T12:55:13.879Z</time></trkpt><trkpt lat="43.6014669" lon="11.7891148"><ele>349.0</ele><time>2026-04-25T12:55:15.888Z</time></trkpt><trkpt lat="43.6015344" lon="11.7892115"><ele>349.0</ele><time>2026-04-25T12:55:17.878Z</time></trkpt><trkpt lat="43.6016005" lon="11.7892846"><ele>349.0</ele><time>2026-04-25T12:55:20.876Z</time></trkpt><trkpt lat="43.6015415" lon="11.7891951"><ele>349.0</ele><time>2026-04-25T12:55:24.88Z</time></trkpt><trkpt lat="43.6014677" lon="11.7891389"><ele>349.0</ele><time>2026-04-25T12:55:27.892Z</time></trkpt><trkpt lat="43.6014211" lon="11.7890727"><ele>349.0</ele><time>2026-04-25T12:55:49.886Z</time></trkpt><trkpt lat="43.6013563" lon="11.7890821"><ele>349.0</ele><time>2026-04-25T12:56:26.877Z</time></trkpt><trkpt lat="43.601307" lon="11.7890147"><ele>349.0</ele><time>2026-04-25T12:57:15.869Z</time></trkpt><trkpt lat="43.6012472" lon="11.7889016"><ele>349.0</ele><time>2026-04-25T12:57:17.866Z</time></trkpt><trkpt lat="43.601165" lon="11.7887652"><ele>349.0</ele><time>2026-04-25T12:57:18.868Z</time></trkpt><trkpt lat="43.6010392" lon="11.7885557"><ele>351.0</ele><time>2026-04-25T12:57:19.858Z</time></trkpt><trkpt lat="43.6007366" lon="11.7880616"><ele>353.0</ele><time>2026-04-25T12:57:21.859Z</time></trkpt><trkpt lat="43.6002875" lon="11.788258"><ele>357.0</ele><time>2026-04-25T12:57:24.86Z</time></trkpt><trkpt lat="43.6002746" lon="11.7886213"><ele>361.0</ele><time>2026-04-25T12:57:25.867Z</time></trkpt><trkpt lat="43.6005965" lon="11.7894621"><ele>361.4</ele><time>2026-04-25T12:57:34.878Z</time></trkpt><trkpt lat="43.6007099" lon="11.789423"><ele>361.8</ele><time>2026-04-25T12:57:36.87Z</time></trkpt><trkpt lat="43.6007699" lon="11.7893117"><ele>362.2</ele><time>2026-04-25T12:57:40.863Z</time></trkpt><trkpt lat="43.6008409" lon="11.7892303"><ele>362.59999999999997</ele><time>2026-04-25T12:57:42.887Z</time></trkpt><trkpt lat="43.6008871" lon="11.7890978"><ele>363.0</ele><time>2026-04-25T12:57:44.877Z</time></trkpt><trkpt lat="43.6009274" lon="11.7890191"><ele>360.59999999999997</ele><time>2026-04-25T12:57:45.868Z</time></trkpt><trkpt lat="43.6009671" lon="11.7889229"><ele>358.2</ele><time>2026-04-25T12:57:46.872Z</time></trkpt><trkpt lat="43.6010516" lon="11.7888404"><ele>355.8</ele><time>2026-04-25T12:57:47.873Z</time></trkpt><trkpt lat="43.6011395" lon="11.788756"><ele>353.4</ele><time>2026-04-25T12:57:48.875Z</time></trkpt><trkpt lat="43.6012201" lon="11.7886981"><ele>351.0</ele><time>2026-04-25T12:57:49.888Z</time></trkpt><trkpt lat="43.6012985" lon="11.7886736"><ele>350.6</ele><time>2026-04-25T12:57:50.866Z</time></trkpt><trkpt lat="43.601358" lon="11.7886312"><ele>350.20000000000005</ele><time>2026-04-25T12:57:51.867Z</time></trkpt><trkpt lat="43.6015211" lon="11.7886225"><ele>349.79999999999995</ele><time>2026-04-25T12:57:56.873Z</time></trkpt><trkpt lat="43.6015245" lon="11.788734"><ele>349.4</ele><time>2026-04-25T12:57:58.881Z</time></trkpt><trkpt lat="43.6014564" lon="11.7887806"><ele>349.0</ele><time>2026-04-25T12:58:33.87Z</time></trkpt><trkpt lat="43.601387" lon="11.7888079"><ele>349.0</ele><time>2026-04-25T12:58:35.863Z</time></trkpt><trkpt lat="43.6013975" lon="11.7888972"><ele>349.0</ele><time>2026-04-25T12:58:39.857Z</time></trkpt><trkpt lat="43.6013271" lon="11.7888211"><ele>349.0</ele><time>2026-04-25T12:58:43.863Z</time></trkpt><trkpt lat="43.6012635" lon="11.7887749"><ele>349.0</ele><time>2026-04-25T12:58:45.868Z</time></trkpt><trkpt lat="43.6012172" lon="11.7886997"><ele>349.0</ele><time>2026-04-25T12:58:48.867Z</time></trkpt><trkpt lat="43.6013137" lon="11.7886596"><ele>349.0</ele><time>2026-04-25T12:59:01.87Z</time></trkpt><trkpt lat="43.6013446" lon="11.7885785"><ele>348.99999999999994</ele><time>2026-04-25T12:59:05.878Z</time></trkpt><trkpt lat="43.6013975" lon="11.7885161"><ele>349.0</ele><time>2026-04-25T12:59:08.892Z</time></trkpt><trkpt lat="43.6014602" lon="11.7884816"><ele>349.0</ele><time>2026-04-25T12:59:10.89Z</time></trkpt><trkpt lat="43.6014793" lon="11.7885674"><ele>349.0</ele><time>2026-04-25T12:59:15.86Z</time></trkpt><trkpt lat="43.6014214" lon="11.7886236"><ele>349.0</ele><time>2026-04-25T12:59:19.881Z</time></trkpt><trkpt lat="43.6013574" lon="11.7886805"><ele>348.99999999999994</ele><time>2026-04-25T12:59:35.883Z</time></trkpt><trkpt lat="43.6012967" lon="11.7887335"><ele>349.0</ele><time>2026-04-25T13:00:00.868Z</time></trkpt><trkpt lat="43.6012131" lon="11.7887724"><ele>349.4</ele><time>2026-04-25T13:00:04.858Z</time></trkpt><trkpt lat="43.601141" lon="11.7887987"><ele>349.79999999999995</ele><time>2026-04-25T13:00:07.86Z</time></trkpt><trkpt lat="43.601084" lon="11.7888832"><ele>350.20000000000005</ele><time>2026-04-25T13:00:10.864Z</time></trkpt><trkpt lat="43.601034" lon="11.7889676"><ele>350.6</ele><time>2026-04-25T13:00:11.865Z</time></trkpt><trkpt lat="43.6009695" lon="11.7891114"><ele>351.0</ele><time>2026-04-25T13:00:12.862Z</time></trkpt><trkpt lat="43.6009025" lon="11.7892713"><ele>354.0</ele><time>2026-04-25T13:00:13.865Z</time></trkpt><trkpt lat="43.6008456" lon="11.7894317"><ele>357.0</ele><time>2026-04-25T13:00:14.864Z</time></trkpt><trkpt lat="43.6007961" lon="11.7896021"><ele>360.0</ele><time>2026-04-25T13:00:15.865Z</time></trkpt><trkpt lat="43.6008304" lon="11.7897931"><ele>363.0</ele><time>2026-04-25T13:00:16.871Z</time></trkpt><trkpt lat="43.6012355" lon="11.7903441"><ele>371.0</ele><time>2026-04-25T13:00:19.871Z</time></trkpt><trkpt lat="43.6017827" lon="11.7906129"><ele>361.5</ele><time>2026-04-25T13:00:21.871Z</time></trkpt><trkpt lat="43.6021677" lon="11.7906765"><ele>352.0</ele><time>2026-04-25T13:00:23.886Z</time></trkpt><trkpt lat="43.602288" lon="11.7905742"><ele>352.0</ele><time>2026-04-25T13:00:26.872Z</time></trkpt><trkpt lat="43.6022229" lon="11.7904347"><ele>352.0</ele><time>2026-04-25T13:00:27.86Z</time></trkpt><trkpt lat="43.60214" lon="11.7902518"><ele>352.0</ele><time>2026-04-25T13:00:28.867Z</time></trkpt><trkpt lat="43.6020318" lon="11.7900438"><ele>355.0</ele><time>2026-04-25T13:00:29.871Z</time></trkpt><trkpt lat="43.6019257" lon="11.7898527"><ele>358.0</ele><time>2026-04-25T13:00:30.866Z</time></trkpt><trkpt lat="43.6018389" lon="11.7896857"><ele>361.0</ele><time>2026-04-25T13:00:31.875Z</time></trkpt><trkpt lat="43.6017538" lon="11.7895352"><ele>361.0</ele><time>2026-04-25T13:00:32.866Z</time></trkpt><trkpt lat="43.6016785" lon="11.789405"><ele>361.0</ele><time>2026-04-25T13:00:33.859Z</time></trkpt><trkpt lat="43.6016261" lon="11.7892937"><ele>361.0</ele><time>2026-04-25T13:00:34.88Z</time></trkpt><trkpt lat="43.6015682" lon="11.7891921"><ele>361.0</ele><time>2026-04-25T13:00:35.86Z</time></trkpt><trkpt lat="43.60153" lon="11.7891061"><ele>361.0</ele><time>2026-04-25T13:00:36.868Z</time></trkpt><trkpt lat="43.6014499" lon="11.7889689"><ele>359.2857142857143</ele><time>2026-04-25T13:00:38.869Z</time></trkpt><trkpt lat="43.6013901" lon="11.7888706"><ele>357.57142857142856</ele><time>2026-04-25T13:00:40.888Z</time></trkpt><trkpt lat="43.6014201" lon="11.7887736"><ele>355.85714285714283</ele><time>2026-04-25T13:00:51.881Z</time></trkpt><trkpt lat="43.6014805" lon="11.7887473"><ele>354.1428571428571</ele><time>2026-04-25T13:00:59.866Z</time></trkpt><trkpt lat="43.6014107" lon="11.7887331"><ele>352.42857142857144</ele><time>2026-04-25T13:01:16.894Z</time></trkpt><trkpt lat="43.6013495" lon="11.7887562"><ele>350.71428571428567</ele><time>2026-04-25T13:02:03.882Z</time></trkpt><trkpt lat="43.6013784" lon="11.788651"><ele>349.0</ele><time>2026-04-25T13:02:11.87Z</time></trkpt><trkpt lat="43.6013158" lon="11.7886047"><ele>349.0</ele><time>2026-04-25T13:02:40.878Z</time></trkpt><trkpt lat="43.6013601" lon="11.7886979"><ele>349.0</ele><time>2026-04-25T13:03:03.905Z</time></trkpt><trkpt lat="43.6013532" lon="11.7888122"><ele>349.0</ele><time>2026-04-25T13:04:30.811Z</time></trkpt><trkpt lat="43.6013065" lon="11.788708"><ele>349.0</ele><time>2026-04-25T13:06:15.868Z</time></trkpt><trkpt lat="43.6013518" lon="11.788635"><ele>349.0</ele><time>2026-04-25T13:06:53.871Z</time></trkpt><trkpt lat="43.6013888" lon="11.7887206"><ele>349.0</ele><time>2026-04-25T13:14:18.877Z</time></trkpt><trkpt lat="43.6014443" lon="11.78881"><ele>348.99999999999994</ele><time>2026-04-25T13:14:22.862Z</time></trkpt><trkpt lat="43.6015147" lon="11.7888926"><ele>349.0</ele><time>2026-04-25T13:14:30.876Z</time></trkpt><trkpt lat="43.6016038" lon="11.7889145"><ele>349.0</ele><time>2026-04-25T13:14:32.891Z</time></trkpt><trkpt lat="43.6016708" lon="11.7889157"><ele>349.0</ele><time>2026-04-25T13:14:33.9Z</time></trkpt><trkpt lat="43.6017354" lon="11.788921"><ele>349.0</ele><time>2026-04-25T13:14:34.873Z</time></trkpt><trkpt lat="43.6017986" lon="11.7889218"><ele>348.99999999999994</ele><time>2026-04-25T13:14:35.882Z</time></trkpt><trkpt lat="43.6018694" lon="11.7889328"><ele>349.0</ele><time>2026-04-25T13:14:36.886Z</time></trkpt><trkpt lat="43.6019371" lon="11.7889355"><ele>349.0</ele><time>2026-04-25T13:14:37.889Z</time></trkpt><trkpt lat="43.6020106" lon="11.7889394"><ele>349.0</ele><time>2026-04-25T13:14:38.87Z</time></trkpt><trkpt lat="43.6020794" lon="11.7889481"><ele>349.0</ele><time>2026-04-25T13:14:39.878Z</time></trkpt><trkpt lat="43.6021455" lon="11.7889627"><ele>349.0</ele><time>2026-04-25T13:14:40.866Z</time></trkpt><trkpt lat="43.6022738" lon="11.7889779"><ele>349.0</ele><time>2026-04-25T13:14:42.902Z</time></trkpt><trkpt lat="43.6023483" lon="11.7889771"><ele>349.0</ele><time>2026-04-25T13:14:43.874Z</time></trkpt><trkpt lat="43.6024283" lon="11.7889791"><ele>349.0</ele><time>2026-04-25T13:14:44.876Z</time></trkpt><trkpt lat="43.6025182" lon="11.7889772"><ele>349.0</ele><time>2026-04-25T13:14:45.871Z</time></trkpt><trkpt lat="43.6026095" lon="11.7889726"><ele>349.0</ele><time>2026-04-25T13:14:46.863Z</time></trkpt><trkpt lat="43.6027106" lon="11.7889647"><ele>349.0</ele><time>2026-04-25T13:14:47.879Z</time></trkpt><trkpt lat="43.6028075" lon="11.7889645"><ele>349.0</ele><time>2026-04-25T13:14:48.882Z</time></trkpt><trkpt lat="43.6029036" lon="11.7889573"><ele>350.0</ele><time>2026-04-25T13:14:49.878Z</time></trkpt><trkpt lat="43.6030047" lon="11.7889514"><ele>351.0</ele><time>2026-04-25T13:14:50.879Z</time></trkpt><trkpt lat="43.6031047" lon="11.7889557"><ele>352.0</ele><time>2026-04-25T13:14:51.872Z</time></trkpt><trkpt lat="43.6031998" lon="11.7889735"><ele>353.0</ele><time>2026-04-25T13:14:52.874Z</time></trkpt><trkpt lat="43.6032957" lon="11.7890038"><ele>354.0</ele><time>2026-04-25T13:14:53.873Z</time></trkpt><trkpt lat="43.6033872" lon="11.7890513"><ele>354.0</ele><time>2026-04-25T13:14:54.877Z</time></trkpt><trkpt lat="43.6034739" lon="11.7891282"><ele>354.0</ele><time>2026-04-25T13:14:55.868Z</time></trkpt><trkpt lat="43.603538" lon="11.7892274"><ele>354.0</ele><time>2026-04-25T13:14:56.881Z</time></trkpt><trkpt lat="43.6035984" lon="11.7893498"><ele>354.0</ele><time>2026-04-25T13:14:57.875Z</time></trkpt><trkpt lat="43.6036668" lon="11.7895009"><ele>354.0</ele><time>2026-04-25T13:14:58.878Z</time></trkpt><trkpt lat="43.60375" lon="11.7897049"><ele>352.3333333333333</ele><time>2026-04-25T13:14:59.885Z</time></trkpt><trkpt lat="43.6038457" lon="11.7899231"><ele>350.66666666666663</ele><time>2026-04-25T13:15:00.876Z</time></trkpt><trkpt lat="43.6039393" lon="11.7901503"><ele>349.0</ele><time>2026-04-25T13:15:01.873Z</time></trkpt><trkpt lat="43.6040285" lon="11.79036"><ele>349.0</ele><time>2026-04-25T13:15:02.875Z</time></trkpt><trkpt lat="43.6041003" lon="11.7905462"><ele>349.0</ele><time>2026-04-25T13:15:03.884Z</time></trkpt><trkpt lat="43.6041668" lon="11.7907001"><ele>349.0</ele><time>2026-04-25T13:15:04.878Z</time></trkpt><trkpt lat="43.6042321" lon="11.7908251"><ele>349.0</ele><time>2026-04-25T13:15:05.883Z</time></trkpt><trkpt lat="43.6043191" lon="11.7909369"><ele>347.5</ele><time>2026-04-25T13:15:06.882Z</time></trkpt><trkpt lat="43.6044416" lon="11.791023"><ele>346.0</ele><time>2026-04-25T13:15:07.887Z</time></trkpt><trkpt lat="43.6045775" lon="11.7911029"><ele>344.5</ele><time>2026-04-25T13:15:08.875Z</time></trkpt><trkpt lat="43.6047071" lon="11.7911944"><ele>343.0</ele><time>2026-04-25T13:15:09.869Z</time></trkpt><trkpt lat="43.6048326" lon="11.7912784"><ele>343.0</ele><time>2026-04-25T13:15:10.868Z</time></trkpt><trkpt lat="43.6049626" lon="11.7913446"><ele>343.0</ele><time>2026-04-25T13:15:11.877Z</time></trkpt><trkpt lat="43.6050976" lon="11.7913871"><ele>343.0</ele><time>2026-04-25T13:15:12.893Z</time></trkpt><trkpt lat="43.6052326" lon="11.7914107"><ele>343.0</ele><time>2026-04-25T13:15:13.868Z</time></trkpt><trkpt lat="43.6053533" lon="11.7914239"><ele>344.4</ele><time>2026-04-25T13:15:14.87Z</time></trkpt><trkpt lat="43.6054733" lon="11.7914332"><ele>345.79999999999995</ele><time>2026-04-25T13:15:15.868Z</time></trkpt><trkpt lat="43.6055821" lon="11.7914442"><ele>347.2</ele><time>2026-04-25T13:15:16.867Z</time></trkpt><trkpt lat="43.6056837" lon="11.7914524"><ele>348.6</ele><time>2026-04-25T13:15:17.876Z</time></trkpt><trkpt lat="43.6057721" lon="11.7914744"><ele>350.0</ele><time>2026-04-25T13:15:18.876Z</time></trkpt><trkpt lat="43.6058562" lon="11.7915081"><ele>350.0</ele><time>2026-04-25T13:15:19.883Z</time></trkpt><trkpt lat="43.6059434" lon="11.7915395"><ele>350.0</ele><time>2026-04-25T13:15:20.88Z</time></trkpt><trkpt lat="43.6060359" lon="11.7915775"><ele>350.0</ele><time>2026-04-25T13:15:21.873Z</time></trkpt><trkpt lat="43.6061356" lon="11.791621"><ele>350.0</ele><time>2026-04-25T13:15:22.876Z</time></trkpt><trkpt lat="43.6062352" lon="11.7916682"><ele>350.0</ele><time>2026-04-25T13:15:23.882Z</time></trkpt><trkpt lat="43.6063275" lon="11.791722"><ele>349.0</ele><time>2026-04-25T13:15:24.873Z</time></trkpt><trkpt lat="43.606417" lon="11.791784"><ele>348.0</ele><time>2026-04-25T13:15:25.871Z</time></trkpt><trkpt lat="43.606498" lon="11.7918549"><ele>347.0</ele><time>2026-04-25T13:15:26.875Z</time></trkpt><trkpt lat="43.6065653" lon="11.7919321"><ele>346.0</ele><time>2026-04-25T13:15:27.865Z</time></trkpt><trkpt lat="43.6066114" lon="11.7920158"><ele>345.0</ele><time>2026-04-25T13:15:28.871Z</time></trkpt><trkpt lat="43.6066642" lon="11.7920855"><ele>344.0</ele><time>2026-04-25T13:15:29.872Z</time></trkpt><trkpt lat="43.606716" lon="11.7921561"><ele>344.0</ele><time>2026-04-25T13:15:30.87Z</time></trkpt><trkpt lat="43.606784" lon="11.7922253"><ele>344.0</ele><time>2026-04-25T13:15:31.872Z</time></trkpt><trkpt lat="43.606854" lon="11.7923142"><ele>344.0</ele><time>2026-04-25T13:15:32.876Z</time></trkpt><trkpt lat="43.6069239" lon="11.792408"><ele>344.0</ele><time>2026-04-25T13:15:33.882Z</time></trkpt><trkpt lat="43.6070072" lon="11.7925221"><ele>344.0</ele><time>2026-04-25T13:15:34.872Z</time></trkpt><trkpt lat="43.6071206" lon="11.7926462"><ele>344.75</ele><time>2026-04-25T13:15:35.882Z</time></trkpt><trkpt lat="43.6072348" lon="11.7927582"><ele>345.5</ele><time>2026-04-25T13:15:36.871Z</time></trkpt><trkpt lat="43.6073338" lon="11.7928426"><ele>346.25</ele><time>2026-04-25T13:15:37.873Z</time></trkpt><trkpt lat="43.60744" lon="11.7929118"><ele>347.0</ele><time>2026-04-25T13:15:38.891Z</time></trkpt><trkpt lat="43.6075578" lon="11.7929706"><ele>347.0</ele><time>2026-04-25T13:15:39.874Z</time></trkpt><trkpt lat="43.607667" lon="11.7930045"><ele>347.0</ele><time>2026-04-25T13:15:40.876Z</time></trkpt><trkpt lat="43.607778" lon="11.7930301"><ele>347.0</ele><time>2026-04-25T13:15:41.869Z</time></trkpt><trkpt lat="43.6078716" lon="11.7930455"><ele>347.0</ele><time>2026-04-25T13:15:42.877Z</time></trkpt><trkpt lat="43.6079581" lon="11.7930469"><ele>347.0</ele><time>2026-04-25T13:15:43.877Z</time></trkpt><trkpt lat="43.6080472" lon="11.793019"><ele>348.6</ele><time>2026-04-25T13:15:44.87Z</time></trkpt><trkpt lat="43.6081317" lon="11.792949"><ele>350.20000000000005</ele><time>2026-04-25T13:15:45.871Z</time></trkpt><trkpt lat="43.6081855" lon="11.7928216"><ele>351.8</ele><time>2026-04-25T13:15:46.872Z</time></trkpt><trkpt lat="43.6082144" lon="11.7926572"><ele>353.4</ele><time>2026-04-25T13:15:47.867Z</time></trkpt><trkpt lat="43.6082496" lon="11.7925104"><ele>355.0</ele><time>2026-04-25T13:15:48.876Z</time></trkpt><trkpt lat="43.6082914" lon="11.7924032"><ele>355.0</ele><time>2026-04-25T13:15:49.873Z</time></trkpt><trkpt lat="43.6084033" lon="11.7923284"><ele>355.0</ele><time>2026-04-25T13:15:51.877Z</time></trkpt><trkpt lat="43.6084725" lon="11.7923642"><ele>355.0</ele><time>2026-04-25T13:15:52.88Z</time></trkpt><trkpt lat="43.6085269" lon="11.7924463"><ele>355.0</ele><time>2026-04-25T13:15:53.872Z</time></trkpt><trkpt lat="43.6085499" lon="11.7925764"><ele>355.0</ele><time>2026-04-25T13:15:54.867Z</time></trkpt><trkpt lat="43.6085844" lon="11.7926853"><ele>357.25</ele><time>2026-04-25T13:15:55.869Z</time></trkpt><trkpt lat="43.6086873" lon="11.7927304"><ele>359.5</ele><time>2026-04-25T13:15:56.869Z</time></trkpt><trkpt lat="43.6088285" lon="11.7927213"><ele>361.75</ele><time>2026-04-25T13:15:57.876Z</time></trkpt><trkpt lat="43.6089663" lon="11.7926884"><ele>364.0</ele><time>2026-04-25T13:15:58.876Z</time></trkpt><trkpt lat="43.6090893" lon="11.7926711"><ele>368.75</ele><time>2026-04-25T13:15:59.874Z</time></trkpt><trkpt lat="43.609225" lon="11.7926541"><ele>373.5</ele><time>2026-04-25T13:16:00.873Z</time></trkpt><trkpt lat="43.6093629" lon="11.7926411"><ele>378.25</ele><time>2026-04-25T13:16:01.875Z</time></trkpt><trkpt lat="43.6094996" lon="11.7926235"><ele>383.0</ele><time>2026-04-25T13:16:02.895Z</time></trkpt><trkpt lat="43.6096499" lon="11.7925642"><ele>384.5</ele><time>2026-04-25T13:16:03.87Z</time></trkpt><trkpt lat="43.6098109" lon="11.7924756"><ele>386.0</ele><time>2026-04-25T13:16:04.882Z</time></trkpt><trkpt lat="43.6099467" lon="11.7923888"><ele>387.5</ele><time>2026-04-25T13:16:05.875Z</time></trkpt><trkpt lat="43.6100569" lon="11.7923563"><ele>389.0</ele><time>2026-04-25T13:16:06.871Z</time></trkpt><trkpt lat="43.6101332" lon="11.7923663"><ele>388.99999999999994</ele><time>2026-04-25T13:16:07.879Z</time></trkpt><trkpt lat="43.6102041" lon="11.7924921"><ele>389.0</ele><time>2026-04-25T13:16:09.886Z</time></trkpt><trkpt lat="43.6102488" lon="11.7925781"><ele>389.0</ele><time>2026-04-25T13:16:10.868Z</time></trkpt><trkpt lat="43.6102963" lon="11.7926815"><ele>389.0</ele><time>2026-04-25T13:16:11.875Z</time></trkpt><trkpt lat="43.6103444" lon="11.7927777"><ele>388.99999999999994</ele><time>2026-04-25T13:16:12.868Z</time></trkpt><trkpt lat="43.6103851" lon="11.7928456"><ele>389.0</ele><time>2026-04-25T13:16:13.876Z</time></trkpt><trkpt lat="43.6104394" lon="11.792939"><ele>389.0</ele><time>2026-04-25T13:16:15.874Z</time></trkpt><trkpt lat="43.6105251" lon="11.793042"><ele>389.0</ele><time>2026-04-25T13:16:50.863Z</time></trkpt><trkpt lat="43.6105927" lon="11.7931045"><ele>389.0</ele><time>2026-04-25T13:16:51.87Z</time></trkpt><trkpt lat="43.6106731" lon="11.7931456"><ele>389.0</ele><time>2026-04-25T13:16:52.866Z</time></trkpt><trkpt lat="43.6107718" lon="11.7931793"><ele>389.0</ele><time>2026-04-25T13:16:53.876Z</time></trkpt><trkpt lat="43.6108873" lon="11.7932236"><ele>389.0</ele><time>2026-04-25T13:16:54.871Z</time></trkpt><trkpt lat="43.6110282" lon="11.7932827"><ele>389.0</ele><time>2026-04-25T13:16:55.861Z</time></trkpt><trkpt lat="43.6111602" lon="11.7933555"><ele>389.0</ele><time>2026-04-25T13:16:56.886Z</time></trkpt><trkpt lat="43.6112976" lon="11.7934201"><ele>389.0</ele><time>2026-04-25T13:16:57.863Z</time></trkpt><trkpt lat="43.6114572" lon="11.7934231"><ele>392.0</ele><time>2026-04-25T13:16:58.889Z</time></trkpt><trkpt lat="43.6116232" lon="11.7934148"><ele>395.0</ele><time>2026-04-25T13:16:59.879Z</time></trkpt><trkpt lat="43.6117713" lon="11.793437"><ele>398.0</ele><time>2026-04-25T13:17:00.889Z</time></trkpt><trkpt lat="43.6119012" lon="11.7934769"><ele>401.0</ele><time>2026-04-25T13:17:01.862Z</time></trkpt><trkpt lat="43.6120323" lon="11.7935021"><ele>401.0</ele><time>2026-04-25T13:17:02.867Z</time></trkpt><trkpt lat="43.61215" lon="11.7934616"><ele>401.0</ele><time>2026-04-25T13:17:03.877Z</time></trkpt><trkpt lat="43.6122483" lon="11.7933874"><ele>401.0</ele><time>2026-04-25T13:17:04.858Z</time></trkpt><trkpt lat="43.6123004" lon="11.7932642"><ele>401.0</ele><time>2026-04-25T13:17:05.87Z</time></trkpt><trkpt lat="43.6123202" lon="11.7931009"><ele>401.0</ele><time>2026-04-25T13:17:06.87Z</time></trkpt><trkpt lat="43.6123413" lon="11.7929372"><ele>401.0</ele><time>2026-04-25T13:17:07.868Z</time></trkpt><trkpt lat="43.6123791" lon="11.79282"><ele>401.0</ele><time>2026-04-25T13:17:08.871Z</time></trkpt><trkpt lat="43.6124533" lon="11.7927237"><ele>401.0</ele><time>2026-04-25T13:17:09.887Z</time></trkpt><trkpt lat="43.6125504" lon="11.7926619"><ele>401.0</ele><time>2026-04-25T13:17:10.869Z</time></trkpt><trkpt lat="43.6126827" lon="11.7926208"><ele>401.5</ele><time>2026-04-25T13:17:11.869Z</time></trkpt><trkpt lat="43.6128279" lon="11.7925385"><ele>402.0</ele><time>2026-04-25T13:17:12.879Z</time></trkpt><trkpt lat="43.6129542" lon="11.7924339"><ele>402.5</ele><time>2026-04-25T13:17:13.87Z</time></trkpt><trkpt lat="43.6130636" lon="11.7923275"><ele>403.0</ele><time>2026-04-25T13:17:14.874Z</time></trkpt><trkpt lat="43.6131636" lon="11.7922332"><ele>403.0</ele><time>2026-04-25T13:17:15.883Z</time></trkpt><trkpt lat="43.6132559" lon="11.7921301"><ele>403.0</ele><time>2026-04-25T13:17:16.863Z</time></trkpt><trkpt lat="43.6133577" lon="11.7920382"><ele>403.0</ele><time>2026-04-25T13:17:17.867Z</time></trkpt><trkpt lat="43.6134789" lon="11.7919647"><ele>403.0</ele><time>2026-04-25T13:17:18.875Z</time></trkpt><trkpt lat="43.6136209" lon="11.7919154"><ele>402.25</ele><time>2026-04-25T13:17:19.873Z</time></trkpt><trkpt lat="43.6137761" lon="11.7918896"><ele>401.5</ele><time>2026-04-25T13:17:20.884Z</time></trkpt><trkpt lat="43.6139122" lon="11.7918653"><ele>400.75</ele><time>2026-04-25T13:17:21.87Z</time></trkpt><trkpt lat="43.6140344" lon="11.7918077"><ele>400.0</ele><time>2026-04-25T13:17:22.875Z</time></trkpt><trkpt lat="43.6141507" lon="11.7917051"><ele>403.6666666666667</ele><time>2026-04-25T13:17:23.867Z</time></trkpt><trkpt lat="43.6142573" lon="11.7915647"><ele>407.33333333333337</ele><time>2026-04-25T13:17:24.879Z</time></trkpt><trkpt lat="43.6143844" lon="11.7914352"><ele>411.0</ele><time>2026-04-25T13:17:25.887Z</time></trkpt><trkpt lat="43.6144984" lon="11.7912984"><ele>411.0</ele><time>2026-04-25T13:17:26.887Z</time></trkpt><trkpt lat="43.6145872" lon="11.7911585"><ele>411.0</ele><time>2026-04-25T13:17:27.87Z</time></trkpt><trkpt lat="43.6146467" lon="11.7910073"><ele>411.0</ele><time>2026-04-25T13:17:28.878Z</time></trkpt><trkpt lat="43.6146765" lon="11.7907933"><ele>411.0</ele><time>2026-04-25T13:17:29.876Z</time></trkpt><trkpt lat="43.6146871" lon="11.7905577"><ele>411.66666666666663</ele><time>2026-04-25T13:17:30.876Z</time></trkpt><trkpt lat="43.6147063" lon="11.7903139"><ele>412.3333333333333</ele><time>2026-04-25T13:17:31.869Z</time></trkpt><trkpt lat="43.6147226" lon="11.7900887"><ele>413.0</ele><time>2026-04-25T13:17:32.875Z</time></trkpt><trkpt lat="43.6147505" lon="11.7899062"><ele>414.0</ele><time>2026-04-25T13:17:33.875Z</time></trkpt><trkpt lat="43.6147921" lon="11.7897714"><ele>415.0</ele><time>2026-04-25T13:17:34.867Z</time></trkpt><trkpt lat="43.6148689" lon="11.7896514"><ele>416.0</ele><time>2026-04-25T13:17:35.869Z</time></trkpt><trkpt lat="43.6149848" lon="11.7895585"><ele>417.0</ele><time>2026-04-25T13:17:36.883Z</time></trkpt><trkpt lat="43.6151265" lon="11.7894595"><ele>417.0</ele><time>2026-04-25T13:17:37.874Z</time></trkpt><trkpt lat="43.6152771" lon="11.7893502"><ele>417.0</ele><time>2026-04-25T13:17:38.864Z</time></trkpt><trkpt lat="43.6154442" lon="11.7892269"><ele>417.0</ele><time>2026-04-25T13:17:39.861Z</time></trkpt><trkpt lat="43.615609" lon="11.7891"><ele>417.0</ele><time>2026-04-25T13:17:40.871Z</time></trkpt><trkpt lat="43.6157495" lon="11.7889881"><ele>417.0</ele><time>2026-04-25T13:17:41.866Z</time></trkpt><trkpt lat="43.6158755" lon="11.7889148"><ele>417.0</ele><time>2026-04-25T13:17:42.865Z</time></trkpt><trkpt lat="43.6159955" lon="11.7888905"><ele>417.0</ele><time>2026-04-25T13:17:43.869Z</time></trkpt><trkpt lat="43.616134" lon="11.7889076"><ele>413.75</ele><time>2026-04-25T13:17:44.864Z</time></trkpt><trkpt lat="43.6162611" lon="11.7889208"><ele>410.5</ele><time>2026-04-25T13:17:45.868Z</time></trkpt><trkpt lat="43.6163938" lon="11.7888804"><ele>407.25</ele><time>2026-04-25T13:17:46.877Z</time></trkpt><trkpt lat="43.6165123" lon="11.7887879"><ele>404.0</ele><time>2026-04-25T13:17:47.883Z</time></trkpt><trkpt lat="43.6166298" lon="11.7886764"><ele>404.0</ele><time>2026-04-25T13:17:48.871Z</time></trkpt><trkpt lat="43.6167115" lon="11.7885309"><ele>404.0</ele><time>2026-04-25T13:17:49.875Z</time></trkpt><trkpt lat="43.6167501" lon="11.7883763"><ele>404.0</ele><time>2026-04-25T13:17:50.872Z</time></trkpt><trkpt lat="43.6167784" lon="11.7882188"><ele>404.0</ele><time>2026-04-25T13:17:51.872Z</time></trkpt><trkpt lat="43.6168194" lon="11.7880866"><ele>404.99999999999994</ele><time>2026-04-25T13:17:52.869Z</time></trkpt><trkpt lat="43.6168927" lon="11.7880308"><ele>406.0</ele><time>2026-04-25T13:17:53.877Z</time></trkpt><trkpt lat="43.6169698" lon="11.7880205"><ele>407.0</ele><time>2026-04-25T13:17:54.867Z</time></trkpt><trkpt lat="43.617045" lon="11.7880618"><ele>408.0</ele><time>2026-04-25T13:17:55.873Z</time></trkpt><trkpt lat="43.6171143" lon="11.7881316"><ele>408.99999999999994</ele><time>2026-04-25T13:17:56.864Z</time></trkpt><trkpt lat="43.6171946" lon="11.7881928"><ele>410.0</ele><time>2026-04-25T13:17:57.863Z</time></trkpt><trkpt lat="43.6172906" lon="11.7882173"><ele>410.0</ele><time>2026-04-25T13:17:58.866Z</time></trkpt><trkpt lat="43.6173796" lon="11.7881816"><ele>410.0</ele><time>2026-04-25T13:17:59.872Z</time></trkpt><trkpt lat="43.6174376" lon="11.7880945"><ele>410.0</ele><time>2026-04-25T13:18:00.87Z</time></trkpt><trkpt lat="43.6174996" lon="11.787935"><ele>410.0</ele><time>2026-04-25T13:18:01.865Z</time></trkpt><trkpt lat="43.6175487" lon="11.7877445"><ele>415.3333333333333</ele><time>2026-04-25T13:18:02.872Z</time></trkpt><trkpt lat="43.6176137" lon="11.7875431"><ele>420.66666666666663</ele><time>2026-04-25T13:18:03.869Z</time></trkpt><trkpt lat="43.6176784" lon="11.7873347"><ele>426.0</ele><time>2026-04-25T13:18:04.865Z</time></trkpt><trkpt lat="43.6177426" lon="11.7871307"><ele>426.0</ele><time>2026-04-25T13:18:05.864Z</time></trkpt><trkpt lat="43.6178048" lon="11.7869607"><ele>426.0</ele><time>2026-04-25T13:18:06.881Z</time></trkpt><trkpt lat="43.6178815" lon="11.7868206"><ele>426.0</ele><time>2026-04-25T13:18:07.867Z</time></trkpt><trkpt lat="43.6179847" lon="11.7867307"><ele>426.0</ele><time>2026-04-25T13:18:08.869Z</time></trkpt><trkpt lat="43.6180917" lon="11.786712"><ele>426.25</ele><time>2026-04-25T13:18:09.873Z</time></trkpt><trkpt lat="43.618177" lon="11.7867544"><ele>426.5</ele><time>2026-04-25T13:18:10.864Z</time></trkpt><trkpt lat="43.6182789" lon="11.7868054"><ele>426.75</ele><time>2026-04-25T13:18:11.879Z</time></trkpt><trkpt lat="43.6183951" lon="11.7868"><ele>427.0</ele><time>2026-04-25T13:18:12.872Z</time></trkpt><trkpt lat="43.6185197" lon="11.7867234"><ele>427.0</ele><time>2026-04-25T13:18:13.863Z</time></trkpt><trkpt lat="43.61865" lon="11.7866404"><ele>427.0</ele><time>2026-04-25T13:18:14.877Z</time></trkpt><trkpt lat="43.6187907" lon="11.7865502"><ele>427.0</ele><time>2026-04-25T13:18:15.868Z</time></trkpt><trkpt lat="43.6189285" lon="11.786468"><ele>427.0</ele><time>2026-04-25T13:18:16.864Z</time></trkpt><trkpt lat="43.6190468" lon="11.7863908"><ele>429.0</ele><time>2026-04-25T13:18:17.861Z</time></trkpt><trkpt lat="43.6191382" lon="11.7863023"><ele>431.0</ele><time>2026-04-25T13:18:18.878Z</time></trkpt><trkpt lat="43.6191951" lon="11.7861816"><ele>433.0</ele><time>2026-04-25T13:18:19.873Z</time></trkpt><trkpt lat="43.6192029" lon="11.7860182"><ele>435.0</ele><time>2026-04-25T13:18:20.873Z</time></trkpt><trkpt lat="43.6191755" lon="11.785828"><ele>435.0</ele><time>2026-04-25T13:18:21.872Z</time></trkpt><trkpt lat="43.6191681" lon="11.7856312"><ele>435.0</ele><time>2026-04-25T13:18:22.872Z</time></trkpt><trkpt lat="43.6191802" lon="11.7854461"><ele>435.0</ele><time>2026-04-25T13:18:23.858Z</time></trkpt><trkpt lat="43.6192417" lon="11.7852316"><ele>435.0</ele><time>2026-04-25T13:18:24.874Z</time></trkpt><trkpt lat="43.6193193" lon="11.7850051"><ele>439.25</ele><time>2026-04-25T13:18:25.873Z</time></trkpt><trkpt lat="43.6193854" lon="11.7847928"><ele>443.5</ele><time>2026-04-25T13:18:26.868Z</time></trkpt><trkpt lat="43.619434" lon="11.784605"><ele>447.75</ele><time>2026-04-25T13:18:27.869Z</time></trkpt><trkpt lat="43.61947" lon="11.7844307"><ele>452.0</ele><time>2026-04-25T13:18:28.867Z</time></trkpt><trkpt lat="43.6194643" lon="11.7842478"><ele>456.66666666666663</ele><time>2026-04-25T13:18:29.866Z</time></trkpt><trkpt lat="43.6194144" lon="11.7840459"><ele>461.33333333333337</ele><time>2026-04-25T13:18:30.872Z</time></trkpt><trkpt lat="43.6193628" lon="11.7838237"><ele>466.0</ele><time>2026-04-25T13:18:31.864Z</time></trkpt><trkpt lat="43.6193173" lon="11.7835962"><ele>467.0</ele><time>2026-04-25T13:18:32.871Z</time></trkpt><trkpt lat="43.6193041" lon="11.783392"><ele>468.0</ele><time>2026-04-25T13:18:33.869Z</time></trkpt><trkpt lat="43.6193098" lon="11.7832392"><ele>469.0</ele><time>2026-04-25T13:18:34.867Z</time></trkpt><trkpt lat="43.6193225" lon="11.7831351"><ele>470.0</ele><time>2026-04-25T13:18:35.863Z</time></trkpt><trkpt lat="43.6193636" lon="11.7830607"><ele>471.0</ele><time>2026-04-25T13:18:36.861Z</time></trkpt><trkpt lat="43.6194887" lon="11.783031"><ele>472.4</ele><time>2026-04-25T13:18:38.865Z</time></trkpt><trkpt lat="43.619576" lon="11.783051"><ele>473.8</ele><time>2026-04-25T13:18:39.866Z</time></trkpt><trkpt lat="43.6196784" lon="11.7830362"><ele>475.19999999999993</ele><time>2026-04-25T13:18:40.87Z</time></trkpt><trkpt lat="43.6197687" lon="11.7829458"><ele>476.59999999999997</ele><time>2026-04-25T13:18:41.867Z</time></trkpt><trkpt lat="43.6198654" lon="11.7828046"><ele>478.0</ele><time>2026-04-25T13:18:42.875Z</time></trkpt><trkpt lat="43.6199766" lon="11.7826632"><ele>478.0</ele><time>2026-04-25T13:18:43.87Z</time></trkpt><trkpt lat="43.6200925" lon="11.7825677"><ele>478.0</ele><time>2026-04-25T13:18:44.86Z</time></trkpt><trkpt lat="43.6202354" lon="11.7824906"><ele>478.0</ele><time>2026-04-25T13:18:45.871Z</time></trkpt><trkpt lat="43.6203941" lon="11.7824202"><ele>477.0</ele><time>2026-04-25T13:18:46.87Z</time></trkpt><trkpt lat="43.6205415" lon="11.7823577"><ele>476.0</ele><time>2026-04-25T13:18:47.874Z</time></trkpt><trkpt lat="43.6206728" lon="11.7822759"><ele>475.0</ele><time>2026-04-25T13:18:48.879Z</time></trkpt><trkpt lat="43.6207813" lon="11.7821544"><ele>474.0</ele><time>2026-04-25T13:18:49.876Z</time></trkpt><trkpt lat="43.6208813" lon="11.7819847"><ele>479.66666666666663</ele><time>2026-04-25T13:18:50.87Z</time></trkpt><trkpt lat="43.6209616" lon="11.7817783"><ele>485.3333333333333</ele><time>2026-04-25T13:18:51.863Z</time></trkpt><trkpt lat="43.6210288" lon="11.781566"><ele>491.0</ele><time>2026-04-25T13:18:52.862Z</time></trkpt><trkpt lat="43.6210763" lon="11.7814044"><ele>491.0</ele><time>2026-04-25T13:18:53.879Z</time></trkpt><trkpt lat="43.6210986" lon="11.781237"><ele>491.0</ele><time>2026-04-25T13:18:54.873Z</time></trkpt><trkpt lat="43.6210689" lon="11.7810457"><ele>491.0</ele><time>2026-04-25T13:18:55.87Z</time></trkpt><trkpt lat="43.6210158" lon="11.7808375"><ele>491.0</ele><time>2026-04-25T13:18:56.863Z</time></trkpt><trkpt lat="43.6209694" lon="11.7806507"><ele>488.8</ele><time>2026-04-25T13:18:57.866Z</time></trkpt><trkpt lat="43.6209484" lon="11.7804823"><ele>486.6</ele><time>2026-04-25T13:18:58.866Z</time></trkpt><trkpt lat="43.620963" lon="11.7803598"><ele>484.4</ele><time>2026-04-25T13:18:59.867Z</time></trkpt><trkpt lat="43.6210183" lon="11.7802425"><ele>482.2</ele><time>2026-04-25T13:19:00.874Z</time></trkpt><trkpt lat="43.6211254" lon="11.7801348"><ele>480.0</ele><time>2026-04-25T13:19:01.884Z</time></trkpt><trkpt lat="43.6212258" lon="11.7800289"><ele>480.0</ele><time>2026-04-25T13:19:02.866Z</time></trkpt><trkpt lat="43.6213122" lon="11.7798855"><ele>480.0</ele><time>2026-04-25T13:19:03.871Z</time></trkpt><trkpt lat="43.6213602" lon="11.779689"><ele>480.0</ele><time>2026-04-25T13:19:04.859Z</time></trkpt><trkpt lat="43.6213753" lon="11.7794764"><ele>480.0</ele><time>2026-04-25T13:19:05.878Z</time></trkpt><trkpt lat="43.6213834" lon="11.7792323"><ele>484.66666666666663</ele><time>2026-04-25T13:19:06.869Z</time></trkpt><trkpt lat="43.6213875" lon="11.7789865"><ele>489.3333333333333</ele><time>2026-04-25T13:19:07.873Z</time></trkpt><trkpt lat="43.6213993" lon="11.7787423"><ele>494.0</ele><time>2026-04-25T13:19:08.88Z</time></trkpt><trkpt lat="43.621431" lon="11.7785016"><ele>498.66666666666663</ele><time>2026-04-25T13:19:09.867Z</time></trkpt><trkpt lat="43.6214863" lon="11.7782789"><ele>503.33333333333337</ele><time>2026-04-25T13:19:10.868Z</time></trkpt><trkpt lat="43.6215346" lon="11.7780586"><ele>508.0</ele><time>2026-04-25T13:19:11.869Z</time></trkpt><trkpt lat="43.6215723" lon="11.7778268"><ele>511.0</ele><time>2026-04-25T13:19:12.876Z</time></trkpt><trkpt lat="43.6215797" lon="11.7776002"><ele>514.0</ele><time>2026-04-25T13:19:13.881Z</time></trkpt><trkpt lat="43.6215602" lon="11.77738"><ele>517.0</ele><time>2026-04-25T13:19:14.882Z</time></trkpt><trkpt lat="43.6215283" lon="11.7771608"><ele>517.0</ele><time>2026-04-25T13:19:15.87Z</time></trkpt><trkpt lat="43.6214652" lon="11.7769573"><ele>517.0</ele><time>2026-04-25T13:19:16.868Z</time></trkpt><trkpt lat="43.6214108" lon="11.7767781"><ele>517.0</ele><time>2026-04-25T13:19:17.863Z</time></trkpt><trkpt lat="43.6213552" lon="11.7766161"><ele>517.0</ele><time>2026-04-25T13:19:18.868Z</time></trkpt><trkpt lat="43.621286" lon="11.776475"><ele>517.6</ele><time>2026-04-25T13:19:19.872Z</time></trkpt><trkpt lat="43.6212068" lon="11.7763639"><ele>518.2</ele><time>2026-04-25T13:19:20.865Z</time></trkpt><trkpt lat="43.6211524" lon="11.7762465"><ele>518.8</ele><time>2026-04-25T13:19:21.879Z</time></trkpt><trkpt lat="43.6211309" lon="11.776132"><ele>519.4</ele><time>2026-04-25T13:19:22.871Z</time></trkpt><trkpt lat="43.6211536" lon="11.7760016"><ele>520.0</ele><time>2026-04-25T13:19:23.869Z</time></trkpt><trkpt lat="43.6212063" lon="11.7758693"><ele>520.5</ele><time>2026-04-25T13:19:24.876Z</time></trkpt><trkpt lat="43.6212383" lon="11.7756995"><ele>521.0</ele><time>2026-04-25T13:19:25.868Z</time></trkpt><trkpt lat="43.6212468" lon="11.7755055"><ele>521.5</ele><time>2026-04-25T13:19:26.865Z</time></trkpt><trkpt lat="43.6212413" lon="11.7752846"><ele>522.0</ele><time>2026-04-25T13:19:27.872Z</time></trkpt><trkpt lat="43.6212334" lon="11.7750373"><ele>525.0</ele><time>2026-04-25T13:19:28.867Z</time></trkpt><trkpt lat="43.6212237" lon="11.7747982"><ele>528.0</ele><time>2026-04-25T13:19:29.871Z</time></trkpt><trkpt lat="43.6212001" lon="11.7745944"><ele>531.0</ele><time>2026-04-25T13:19:30.868Z</time></trkpt><trkpt lat="43.6211685" lon="11.7744331"><ele>534.0</ele><time>2026-04-25T13:19:31.865Z</time></trkpt><trkpt lat="43.621144" lon="11.7742984"><ele>538.4</ele><time>2026-04-25T13:19:32.869Z</time></trkpt><trkpt lat="43.6211453" lon="11.7741812"><ele>542.8</ele><time>2026-04-25T13:19:33.872Z</time></trkpt><trkpt lat="43.6211767" lon="11.7740793"><ele>547.2</ele><time>2026-04-25T13:19:34.884Z</time></trkpt><trkpt lat="43.6212652" lon="11.7740222"><ele>551.6</ele><time>2026-04-25T13:19:35.867Z</time></trkpt><trkpt lat="43.6213711" lon="11.7740119"><ele>556.0</ele><time>2026-04-25T13:19:36.863Z</time></trkpt><trkpt lat="43.6215004" lon="11.7740203"><ele>556.0</ele><time>2026-04-25T13:19:37.887Z</time></trkpt><trkpt lat="43.6216383" lon="11.7740471"><ele>556.0</ele><time>2026-04-25T13:19:38.873Z</time></trkpt><trkpt lat="43.6217745" lon="11.7740993"><ele>556.0</ele><time>2026-04-25T13:19:39.869Z</time></trkpt><trkpt lat="43.6219068" lon="11.77417"><ele>556.0</ele><time>2026-04-25T13:19:40.867Z</time></trkpt><trkpt lat="43.6220528" lon="11.7742699"><ele>554.3333333333334</ele><time>2026-04-25T13:19:41.881Z</time></trkpt><trkpt lat="43.6222081" lon="11.7743848"><ele>552.6666666666666</ele><time>2026-04-25T13:19:42.874Z</time></trkpt><trkpt lat="43.6223667" lon="11.7745056"><ele>551.0</ele><time>2026-04-25T13:19:43.864Z</time></trkpt><trkpt lat="43.6225188" lon="11.7746192"><ele>551.0</ele><time>2026-04-25T13:19:44.871Z</time></trkpt><trkpt lat="43.6226558" lon="11.7747319"><ele>551.0</ele><time>2026-04-25T13:19:45.866Z</time></trkpt><trkpt lat="43.6227829" lon="11.7748392"><ele>551.0</ele><time>2026-04-25T13:19:46.868Z</time></trkpt><trkpt lat="43.6229004" lon="11.7749226"><ele>551.0</ele><time>2026-04-25T13:19:47.869Z</time></trkpt><trkpt lat="43.6229895" lon="11.7749385"><ele>554.2</ele><time>2026-04-25T13:19:48.866Z</time></trkpt><trkpt lat="43.6230792" lon="11.7748951"><ele>557.4000000000001</ele><time>2026-04-25T13:19:49.875Z</time></trkpt><trkpt lat="43.6231368" lon="11.774781"><ele>560.6</ele><time>2026-04-25T13:19:50.867Z</time></trkpt><trkpt lat="43.6231895" lon="11.774626"><ele>563.8000000000001</ele><time>2026-04-25T13:19:51.86Z</time></trkpt><trkpt lat="43.6232479" lon="11.7744892"><ele>567.0</ele><time>2026-04-25T13:19:52.878Z</time></trkpt><trkpt lat="43.6233279" lon="11.7744395"><ele>567.0</ele><time>2026-04-25T13:19:53.873Z</time></trkpt><trkpt lat="43.6234247" lon="11.7744458"><ele>567.0</ele><time>2026-04-25T13:19:54.867Z</time></trkpt><trkpt lat="43.6235359" lon="11.7745031"><ele>567.0</ele><time>2026-04-25T13:19:55.867Z</time></trkpt><trkpt lat="43.6236712" lon="11.7745458"><ele>567.0</ele><time>2026-04-25T13:19:56.864Z</time></trkpt><trkpt lat="43.6238287" lon="11.7745506"><ele>571.3333333333334</ele><time>2026-04-25T13:19:57.866Z</time></trkpt><trkpt lat="43.6239878" lon="11.774532"><ele>575.6666666666667</ele><time>2026-04-25T13:19:58.868Z</time></trkpt><trkpt lat="43.6241526" lon="11.7745019"><ele>580.0</ele><time>2026-04-25T13:19:59.862Z</time></trkpt><trkpt lat="43.6243022" lon="11.7744349"><ele>580.0</ele><time>2026-04-25T13:20:00.869Z</time></trkpt><trkpt lat="43.624432" lon="11.7743548"><ele>580.0</ele><time>2026-04-25T13:20:01.879Z</time></trkpt><trkpt lat="43.6245566" lon="11.774309"><ele>580.0</ele><time>2026-04-25T13:20:02.863Z</time></trkpt><trkpt lat="43.6246911" lon="11.7743524"><ele>580.0</ele><time>2026-04-25T13:20:03.884Z</time></trkpt><trkpt lat="43.624823" lon="11.7744206"><ele>584.0</ele><time>2026-04-25T13:20:04.873Z</time></trkpt><trkpt lat="43.624969" lon="11.77449"><ele>588.0</ele><time>2026-04-25T13:20:05.868Z</time></trkpt><trkpt lat="43.6251163" lon="11.7745626"><ele>592.0</ele><time>2026-04-25T13:20:06.866Z</time></trkpt><trkpt lat="43.6252654" lon="11.7746239"><ele>593.5</ele><time>2026-04-25T13:20:07.868Z</time></trkpt><trkpt lat="43.6254145" lon="11.7746795"><ele>595.0</ele><time>2026-04-25T13:20:08.867Z</time></trkpt><trkpt lat="43.6255533" lon="11.7746817"><ele>596.5</ele><time>2026-04-25T13:20:09.881Z</time></trkpt><trkpt lat="43.6256765" lon="11.7746263"><ele>598.0</ele><time>2026-04-25T13:20:10.87Z</time></trkpt><trkpt lat="43.6257869" lon="11.7745663"><ele>598.0</ele><time>2026-04-25T13:20:11.861Z</time></trkpt><trkpt lat="43.6258912" lon="11.7745054"><ele>598.0</ele><time>2026-04-25T13:20:12.861Z</time></trkpt><trkpt lat="43.6260008" lon="11.774461"><ele>598.0</ele><time>2026-04-25T13:20:13.877Z</time></trkpt><trkpt lat="43.6260987" lon="11.7744405"><ele>598.0</ele><time>2026-04-25T13:20:14.871Z</time></trkpt><trkpt lat="43.6261921" lon="11.7744227"><ele>598.0</ele><time>2026-04-25T13:20:15.874Z</time></trkpt><trkpt lat="43.6262906" lon="11.7743897"><ele>599.25</ele><time>2026-04-25T13:20:16.868Z</time></trkpt><trkpt lat="43.6263903" lon="11.7743481"><ele>600.5</ele><time>2026-04-25T13:20:17.864Z</time></trkpt><trkpt lat="43.6265026" lon="11.7742966"><ele>601.75</ele><time>2026-04-25T13:20:18.874Z</time></trkpt><trkpt lat="43.6266294" lon="11.7742407"><ele>603.0</ele><time>2026-04-25T13:20:19.866Z</time></trkpt><trkpt lat="43.626762" lon="11.7741949"><ele>603.0</ele><time>2026-04-25T13:20:20.879Z</time></trkpt><trkpt lat="43.6269135" lon="11.7741621"><ele>603.0</ele><time>2026-04-25T13:20:21.866Z</time></trkpt><trkpt lat="43.6270669" lon="11.7741612"><ele>603.0</ele><time>2026-04-25T13:20:22.883Z</time></trkpt><trkpt lat="43.6272003" lon="11.7741757"><ele>603.0</ele><time>2026-04-25T13:20:23.868Z</time></trkpt><trkpt lat="43.6273247" lon="11.7742569"><ele>604.5</ele><time>2026-04-25T13:20:24.873Z</time></trkpt><trkpt lat="43.6274515" lon="11.7743342"><ele>606.0</ele><time>2026-04-25T13:20:25.867Z</time></trkpt><trkpt lat="43.6275818" lon="11.7743929"><ele>607.5</ele><time>2026-04-25T13:20:26.873Z</time></trkpt><trkpt lat="43.6277202" lon="11.7744112"><ele>609.0</ele><time>2026-04-25T13:20:27.87Z</time></trkpt><trkpt lat="43.6278372" lon="11.7743621"><ele>609.0</ele><time>2026-04-25T13:20:28.865Z</time></trkpt><trkpt lat="43.6279192" lon="11.7742721"><ele>609.0</ele><time>2026-04-25T13:20:29.864Z</time></trkpt><trkpt lat="43.627964" lon="11.7741528"><ele>609.0</ele><time>2026-04-25T13:20:30.871Z</time></trkpt><trkpt lat="43.6279523" lon="11.7740369"><ele>609.0</ele><time>2026-04-25T13:20:31.867Z</time></trkpt><trkpt lat="43.6278955" lon="11.7739488"><ele>609.0</ele><time>2026-04-25T13:20:32.859Z</time></trkpt><trkpt lat="43.6278017" lon="11.7739183"><ele>609.0</ele><time>2026-04-25T13:20:33.885Z</time></trkpt><trkpt lat="43.6276856" lon="11.7739407"><ele>609.0</ele><time>2026-04-25T13:20:34.865Z</time></trkpt><trkpt lat="43.6275874" lon="11.7739477"><ele>609.0</ele><time>2026-04-25T13:20:35.862Z</time></trkpt><trkpt lat="43.6274954" lon="11.7739068"><ele>609.0</ele><time>2026-04-25T13:20:36.88Z</time></trkpt><trkpt lat="43.62739" lon="11.7737996"><ele>609.0</ele><time>2026-04-25T13:20:37.869Z</time></trkpt><trkpt lat="43.6273008" lon="11.7736383"><ele>611.0</ele><time>2026-04-25T13:20:38.871Z</time></trkpt><trkpt lat="43.6272098" lon="11.7734865"><ele>613.0</ele><time>2026-04-25T13:20:39.877Z</time></trkpt><trkpt lat="43.6270959" lon="11.77334"><ele>615.0</ele><time>2026-04-25T13:20:40.878Z</time></trkpt><trkpt lat="43.6269426" lon="11.7732242"><ele>615.0</ele><time>2026-04-25T13:20:41.871Z</time></trkpt><trkpt lat="43.6267838" lon="11.7731225"><ele>615.0</ele><time>2026-04-25T13:20:42.871Z</time></trkpt><trkpt lat="43.6266448" lon="11.7730276"><ele>615.0</ele><time>2026-04-25T13:20:43.875Z</time></trkpt><trkpt lat="43.6265233" lon="11.7729335"><ele>615.0</ele><time>2026-04-25T13:20:44.885Z</time></trkpt><trkpt lat="43.6264302" lon="11.7728072"><ele>615.0</ele><time>2026-04-25T13:20:45.877Z</time></trkpt><trkpt lat="43.6263564" lon="11.7726449"><ele>615.0</ele><time>2026-04-25T13:20:46.869Z</time></trkpt><trkpt lat="43.6262775" lon="11.7724875"><ele>615.0</ele><time>2026-04-25T13:20:47.888Z</time></trkpt><trkpt lat="43.6261972" lon="11.7723663"><ele>616.0</ele><time>2026-04-25T13:20:48.872Z</time></trkpt><trkpt lat="43.6260941" lon="11.772269"><ele>617.0</ele><time>2026-04-25T13:20:49.87Z</time></trkpt><trkpt lat="43.6259746" lon="11.772189"><ele>618.0</ele><time>2026-04-25T13:20:50.872Z</time></trkpt><trkpt lat="43.62585" lon="11.7720968"><ele>619.0</ele><time>2026-04-25T13:20:51.874Z</time></trkpt><trkpt lat="43.6257306" lon="11.7719921"><ele>619.0</ele><time>2026-04-25T13:20:52.868Z</time></trkpt><trkpt lat="43.6256281" lon="11.7718867"><ele>619.0</ele><time>2026-04-25T13:20:53.873Z</time></trkpt><trkpt lat="43.6255438" lon="11.7717769"><ele>619.0</ele><time>2026-04-25T13:20:54.864Z</time></trkpt><trkpt lat="43.6254673" lon="11.7716783"><ele>619.0</ele><time>2026-04-25T13:20:55.862Z</time></trkpt><trkpt lat="43.6253828" lon="11.7716265"><ele>619.0</ele><time>2026-04-25T13:20:56.868Z</time></trkpt><trkpt lat="43.625276" lon="11.7716454"><ele>619.2</ele><time>2026-04-25T13:20:57.877Z</time></trkpt><trkpt lat="43.6251727" lon="11.7717209"><ele>619.4</ele><time>2026-04-25T13:20:58.871Z</time></trkpt><trkpt lat="43.6250811" lon="11.771815"><ele>619.6</ele><time>2026-04-25T13:20:59.865Z</time></trkpt><trkpt lat="43.624997" lon="11.7718833"><ele>619.8</ele><time>2026-04-25T13:21:00.874Z</time></trkpt><trkpt lat="43.6248815" lon="11.771909"><ele>620.0</ele><time>2026-04-25T13:21:01.876Z</time></trkpt><trkpt lat="43.62475" lon="11.7718916"><ele>624.25</ele><time>2026-04-25T13:21:02.872Z</time></trkpt><trkpt lat="43.6246313" lon="11.771837"><ele>628.5</ele><time>2026-04-25T13:21:03.87Z</time></trkpt><trkpt lat="43.6245186" lon="11.7717669"><ele>632.75</ele><time>2026-04-25T13:21:04.865Z</time></trkpt><trkpt lat="43.6244026" lon="11.7717274"><ele>637.0</ele><time>2026-04-25T13:21:05.866Z</time></trkpt><trkpt lat="43.6242902" lon="11.7717435"><ele>639.2</ele><time>2026-04-25T13:21:06.869Z</time></trkpt><trkpt lat="43.6241959" lon="11.7717662"><ele>641.4000000000001</ele><time>2026-04-25T13:21:07.867Z</time></trkpt><trkpt lat="43.6240988" lon="11.7718041"><ele>643.5999999999999</ele><time>2026-04-25T13:21:08.885Z</time></trkpt><trkpt lat="43.6239975" lon="11.771836"><ele>645.8</ele><time>2026-04-25T13:21:09.877Z</time></trkpt><trkpt lat="43.6238971" lon="11.7718709"><ele>648.0</ele><time>2026-04-25T13:21:10.875Z</time></trkpt><trkpt lat="43.6238034" lon="11.7718953"><ele>648.0</ele><time>2026-04-25T13:21:11.863Z</time></trkpt><trkpt lat="43.6237085" lon="11.7719212"><ele>648.0</ele><time>2026-04-25T13:21:12.867Z</time></trkpt><trkpt lat="43.6236176" lon="11.7719429"><ele>648.0</ele><time>2026-04-25T13:21:13.869Z</time></trkpt><trkpt lat="43.6235387" lon="11.7719274"><ele>648.0</ele><time>2026-04-25T13:21:14.87Z</time></trkpt><trkpt lat="43.6234742" lon="11.7718787"><ele>648.0</ele><time>2026-04-25T13:21:15.863Z</time></trkpt><trkpt lat="43.6234154" lon="11.7718253"><ele>648.0</ele><time>2026-04-25T13:21:16.867Z</time></trkpt><trkpt lat="43.6233614" lon="11.7717507"><ele>648.0</ele><time>2026-04-25T13:21:17.859Z</time></trkpt><trkpt lat="43.6233407" lon="11.7716676"><ele>648.0</ele><time>2026-04-25T13:21:18.867Z</time></trkpt><trkpt lat="43.6233369" lon="11.7715621"><ele>648.0</ele><time>2026-04-25T13:21:19.872Z</time></trkpt><trkpt lat="43.6233735" lon="11.7714692"><ele>648.0</ele><time>2026-04-25T13:21:20.867Z</time></trkpt><trkpt lat="43.6234211" lon="11.7714093"><ele>648.0</ele><time>2026-04-25T13:21:21.866Z</time></trkpt><trkpt lat="43.6235245" lon="11.7714154"><ele>648.0</ele><time>2026-04-25T13:21:23.866Z</time></trkpt><trkpt lat="43.6235871" lon="11.7714492"><ele>648.0</ele><time>2026-04-25T13:21:24.87Z</time></trkpt><trkpt lat="43.6236495" lon="11.7714732"><ele>648.0</ele><time>2026-04-25T13:21:25.876Z</time></trkpt><trkpt lat="43.6237643" lon="11.7714761"><ele>648.0</ele><time>2026-04-25T13:21:27.867Z</time></trkpt><trkpt lat="43.6238764" lon="11.7714531"><ele>648.0</ele><time>2026-04-25T13:21:29.872Z</time></trkpt><trkpt lat="43.623972" lon="11.7714088"><ele>648.0</ele><time>2026-04-25T13:21:31.874Z</time></trkpt><trkpt lat="43.6240603" lon="11.7713405"><ele>648.0</ele><time>2026-04-25T13:21:33.87Z</time></trkpt><trkpt lat="43.6241277" lon="11.7712613"><ele>648.0</ele><time>2026-04-25T13:21:35.872Z</time></trkpt><trkpt lat="43.624172" lon="11.7711859"><ele>648.0</ele><time>2026-04-25T13:22:26.87Z</time></trkpt><trkpt lat="43.6242236" lon="11.7710479"><ele>648.0</ele><time>2026-04-25T13:22:28.869Z</time></trkpt><trkpt lat="43.6242581" lon="11.7709708"><ele>648.0</ele><time>2026-04-25T13:22:29.87Z</time></trkpt><trkpt lat="43.6242945" lon="11.7708862"><ele>648.0</ele><time>2026-04-25T13:22:30.862Z</time></trkpt><trkpt lat="43.6243292" lon="11.7707898"><ele>651.0</ele><time>2026-04-25T13:22:31.872Z</time></trkpt><trkpt lat="43.6243481" lon="11.7706781"><ele>654.0</ele><time>2026-04-25T13:22:32.872Z</time></trkpt><trkpt lat="43.624364" lon="11.7705448"><ele>657.0</ele><time>2026-04-25T13:22:33.876Z</time></trkpt><trkpt lat="43.6243902" lon="11.7704066"><ele>660.0</ele><time>2026-04-25T13:22:34.866Z</time></trkpt><trkpt lat="43.6244182" lon="11.7702644"><ele>663.0</ele><time>2026-04-25T13:22:35.867Z</time></trkpt><trkpt lat="43.6244517" lon="11.7701156"><ele>663.4</ele><time>2026-04-25T13:22:36.874Z</time></trkpt><trkpt lat="43.6244907" lon="11.7699641"><ele>663.8</ele><time>2026-04-25T13:22:37.87Z</time></trkpt><trkpt lat="43.6245252" lon="11.7698287"><ele>664.2</ele><time>2026-04-25T13:22:38.867Z</time></trkpt><trkpt lat="43.6245475" lon="11.7697102"><ele>664.6</ele><time>2026-04-25T13:22:39.879Z</time></trkpt><trkpt lat="43.6245513" lon="11.7695955"><ele>665.0</ele><time>2026-04-25T13:22:40.872Z</time></trkpt><trkpt lat="43.6245245" lon="11.7694661"><ele>669.2</ele><time>2026-04-25T13:22:41.867Z</time></trkpt><trkpt lat="43.6244779" lon="11.7693466"><ele>673.4</ele><time>2026-04-25T13:22:42.879Z</time></trkpt><trkpt lat="43.6244153" lon="11.7692415"><ele>677.5999999999999</ele><time>2026-04-25T13:22:43.868Z</time></trkpt><trkpt lat="43.6243368" lon="11.7691803"><ele>681.8</ele><time>2026-04-25T13:22:44.871Z</time></trkpt><trkpt lat="43.6242408" lon="11.7691461"><ele>686.0</ele><time>2026-04-25T13:22:45.874Z</time></trkpt><trkpt lat="43.6241434" lon="11.7691086"><ele>686.0</ele><time>2026-04-25T13:22:46.88Z</time></trkpt><trkpt lat="43.6240576" lon="11.7690598"><ele>686.0</ele><time>2026-04-25T13:22:47.87Z</time></trkpt><trkpt lat="43.6239772" lon="11.7689996"><ele>686.0</ele><time>2026-04-25T13:22:48.864Z</time></trkpt><trkpt lat="43.6238919" lon="11.7689329"><ele>686.0</ele><time>2026-04-25T13:22:49.871Z</time></trkpt><trkpt lat="43.6238068" lon="11.7688738"><ele>686.0</ele><time>2026-04-25T13:22:50.87Z</time></trkpt><trkpt lat="43.6237221" lon="11.7688158"><ele>685.5999999999999</ele><time>2026-04-25T13:22:51.881Z</time></trkpt><trkpt lat="43.6236329" lon="11.7687743"><ele>685.2</ele><time>2026-04-25T13:22:52.87Z</time></trkpt><trkpt lat="43.6235391" lon="11.7687662"><ele>684.8</ele><time>2026-04-25T13:22:53.873Z</time></trkpt><trkpt lat="43.6234332" lon="11.7687836"><ele>684.4000000000001</ele><time>2026-04-25T13:22:54.879Z</time></trkpt><trkpt lat="43.6233183" lon="11.7688144"><ele>684.0</ele><time>2026-04-25T13:22:55.871Z</time></trkpt><trkpt lat="43.6231873" lon="11.7688501"><ele>684.0</ele><time>2026-04-25T13:22:56.87Z</time></trkpt><trkpt lat="43.6230549" lon="11.7688799"><ele>684.0</ele><time>2026-04-25T13:22:57.878Z</time></trkpt><trkpt lat="43.6229344" lon="11.7688872"><ele>684.0</ele><time>2026-04-25T13:22:58.869Z</time></trkpt><trkpt lat="43.6228297" lon="11.768866"><ele>684.0</ele><time>2026-04-25T13:22:59.868Z</time></trkpt><trkpt lat="43.622733" lon="11.7688271"><ele>683.8000000000001</ele><time>2026-04-25T13:23:00.879Z</time></trkpt><trkpt lat="43.6226394" lon="11.7687769"><ele>683.6</ele><time>2026-04-25T13:23:01.871Z</time></trkpt><trkpt lat="43.6225563" lon="11.7687131"><ele>683.4</ele><time>2026-04-25T13:23:02.862Z</time></trkpt><trkpt lat="43.6224778" lon="11.7686338"><ele>683.2</ele><time>2026-04-25T13:23:03.868Z</time></trkpt><trkpt lat="43.6224104" lon="11.7685436"><ele>683.0</ele><time>2026-04-25T13:23:04.865Z</time></trkpt><trkpt lat="43.6223433" lon="11.7684556"><ele>687.4</ele><time>2026-04-25T13:23:05.869Z</time></trkpt><trkpt lat="43.6222819" lon="11.768373"><ele>691.8</ele><time>2026-04-25T13:23:06.87Z</time></trkpt><trkpt lat="43.6222353" lon="11.7683081"><ele>696.2</ele><time>2026-04-25T13:23:07.87Z</time></trkpt><trkpt lat="43.6222107" lon="11.7681774"><ele>700.6</ele><time>2026-04-25T13:23:09.859Z</time></trkpt><trkpt lat="43.6222855" lon="11.7679919"><ele>705.0</ele><time>2026-04-25T13:23:12.862Z</time></trkpt><trkpt lat="43.6223249" lon="11.767909"><ele>705.0</ele><time>2026-04-25T13:23:13.859Z</time></trkpt><trkpt lat="43.6223749" lon="11.7678045"><ele>705.0</ele><time>2026-04-25T13:23:14.858Z</time></trkpt><trkpt lat="43.6224282" lon="11.767694"><ele>705.0</ele><time>2026-04-25T13:23:15.867Z</time></trkpt><trkpt lat="43.6224806" lon="11.7675823"><ele>705.0</ele><time>2026-04-25T13:23:16.861Z</time></trkpt><trkpt lat="43.6225409" lon="11.7674836"><ele>705.0</ele><time>2026-04-25T13:23:17.856Z</time></trkpt><trkpt lat="43.6226098" lon="11.7674007"><ele>705.8</ele><time>2026-04-25T13:23:18.879Z</time></trkpt><trkpt lat="43.6226739" lon="11.767323"><ele>706.6</ele><time>2026-04-25T13:23:19.861Z</time></trkpt><trkpt lat="43.6227396" lon="11.7672399"><ele>707.4000000000001</ele><time>2026-04-25T13:23:20.858Z</time></trkpt><trkpt lat="43.6228085" lon="11.7671535"><ele>708.2</ele><time>2026-04-25T13:23:21.874Z</time></trkpt><trkpt lat="43.6228907" lon="11.7670691"><ele>709.0</ele><time>2026-04-25T13:23:22.863Z</time></trkpt><trkpt lat="43.6229849" lon="11.7670024"><ele>710.0</ele><time>2026-04-25T13:23:23.869Z</time></trkpt><trkpt lat="43.6230899" lon="11.7669491"><ele>711.0</ele><time>2026-04-25T13:23:24.86Z</time></trkpt><trkpt lat="43.6231841" lon="11.7668925"><ele>712.0</ele><time>2026-04-25T13:23:25.86Z</time></trkpt><trkpt lat="43.623266" lon="11.7668284"><ele>713.0</ele><time>2026-04-25T13:23:26.855Z</time></trkpt><trkpt lat="43.6233317" lon="11.7667282"><ele>714.0</ele><time>2026-04-25T13:23:27.858Z</time></trkpt><trkpt lat="43.6233622" lon="11.7665947"><ele>714.0</ele><time>2026-04-25T13:23:28.86Z</time></trkpt><trkpt lat="43.6233757" lon="11.7664647"><ele>714.0</ele><time>2026-04-25T13:23:29.858Z</time></trkpt><trkpt lat="43.6233812" lon="11.7663531"><ele>714.0</ele><time>2026-04-25T13:23:30.859Z</time></trkpt><trkpt lat="43.6233899" lon="11.7662506"><ele>714.0</ele><time>2026-04-25T13:23:31.875Z</time></trkpt><trkpt lat="43.6234094" lon="11.7660902"><ele>714.0</ele><time>2026-04-25T13:23:33.879Z</time></trkpt><trkpt lat="43.6234257" lon="11.7659416"><ele>715.2</ele><time>2026-04-25T13:23:35.861Z</time></trkpt><trkpt lat="43.6233864" lon="11.7658305"><ele>716.4000000000001</ele><time>2026-04-25T13:23:37.877Z</time></trkpt><trkpt lat="43.6233152" lon="11.7657369"><ele>717.6</ele><time>2026-04-25T13:23:39.873Z</time></trkpt><trkpt lat="43.6232063" lon="11.7656694"><ele>718.8</ele><time>2026-04-25T13:23:41.874Z</time></trkpt><trkpt lat="43.6231076" lon="11.7656108"><ele>720.0</ele><time>2026-04-25T13:23:43.874Z</time></trkpt><trkpt lat="43.6230672" lon="11.7655344"><ele>720.0</ele><time>2026-04-25T13:23:45.876Z</time></trkpt><trkpt lat="43.6231053" lon="11.7654189"><ele>720.0</ele><time>2026-04-25T13:23:47.861Z</time></trkpt><trkpt lat="43.6231275" lon="11.7652849"><ele>720.0</ele><time>2026-04-25T13:23:49.868Z</time></trkpt><trkpt lat="43.6230913" lon="11.7651654"><ele>720.0</ele><time>2026-04-25T13:23:51.877Z</time></trkpt><trkpt lat="43.6230293" lon="11.7650541"><ele>720.0</ele><time>2026-04-25T13:23:53.867Z</time></trkpt><trkpt lat="43.6229267" lon="11.7649597"><ele>720.8571428571428</ele><time>2026-04-25T13:23:55.865Z</time></trkpt><trkpt lat="43.6228608" lon="11.7649356"><ele>721.7142857142858</ele><time>2026-04-25T13:23:56.877Z</time></trkpt><trkpt lat="43.6227946" lon="11.7649115"><ele>722.5714285714286</ele><time>2026-04-25T13:23:57.871Z</time></trkpt><trkpt lat="43.6227284" lon="11.7648788"><ele>723.4285714285713</ele><time>2026-04-25T13:23:58.869Z</time></trkpt><trkpt lat="43.6226658" lon="11.7648253"><ele>724.2857142857142</ele><time>2026-04-25T13:23:59.872Z</time></trkpt><trkpt lat="43.6226013" lon="11.7647782"><ele>725.1428571428571</ele><time>2026-04-25T13:24:00.871Z</time></trkpt><trkpt lat="43.6225429" lon="11.7647074"><ele>726.0</ele><time>2026-04-25T13:24:01.869Z</time></trkpt><trkpt lat="43.6224941" lon="11.7646192"><ele>726.0</ele><time>2026-04-25T13:24:02.872Z</time></trkpt><trkpt lat="43.6224581" lon="11.7645214"><ele>726.0</ele><time>2026-04-25T13:24:03.871Z</time></trkpt><trkpt lat="43.6224088" lon="11.7644484"><ele>726.0</ele><time>2026-04-25T13:24:04.865Z</time></trkpt><trkpt lat="43.6223459" lon="11.7643862"><ele>726.0</ele><time>2026-04-25T13:24:05.876Z</time></trkpt><trkpt lat="43.6222695" lon="11.7643189"><ele>726.0</ele><time>2026-04-25T13:24:06.864Z</time></trkpt><trkpt lat="43.6221942" lon="11.7642503"><ele>726.0</ele><time>2026-04-25T13:24:07.865Z</time></trkpt><trkpt lat="43.6221219" lon="11.7641816"><ele>727.8</ele><time>2026-04-25T13:24:08.868Z</time></trkpt><trkpt lat="43.6220517" lon="11.7641049"><ele>729.5999999999999</ele><time>2026-04-25T13:24:09.864Z</time></trkpt><trkpt lat="43.6219847" lon="11.7640136"><ele>731.4</ele><time>2026-04-25T13:24:10.859Z</time></trkpt><trkpt lat="43.6219194" lon="11.7639098"><ele>733.2</ele><time>2026-04-25T13:24:11.864Z</time></trkpt><trkpt lat="43.6218675" lon="11.7637978"><ele>735.0</ele><time>2026-04-25T13:24:12.866Z</time></trkpt><trkpt lat="43.6218321" lon="11.7636838"><ele>735.0</ele><time>2026-04-25T13:24:13.868Z</time></trkpt><trkpt lat="43.621829" lon="11.7635864"><ele>735.0</ele><time>2026-04-25T13:24:14.864Z</time></trkpt><trkpt lat="43.6218197" lon="11.7634428"><ele>735.0</ele><time>2026-04-25T13:24:16.865Z</time></trkpt><trkpt lat="43.6218034" lon="11.7633543"><ele>735.0</ele><time>2026-04-25T13:24:18.865Z</time></trkpt><trkpt lat="43.6217397" lon="11.7632616"><ele>735.0</ele><time>2026-04-25T13:24:21.872Z</time></trkpt><trkpt lat="43.6216746" lon="11.7632568"><ele>735.0</ele><time>2026-04-25T13:24:22.868Z</time></trkpt><trkpt lat="43.6215351" lon="11.7632179"><ele>735.8333333333334</ele><time>2026-04-25T13:24:24.87Z</time></trkpt><trkpt lat="43.6214531" lon="11.7631687"><ele>736.6666666666666</ele><time>2026-04-25T13:24:25.873Z</time></trkpt><trkpt lat="43.6213733" lon="11.7630988"><ele>737.5</ele><time>2026-04-25T13:24:26.866Z</time></trkpt><trkpt lat="43.6212995" lon="11.7630318"><ele>738.3333333333333</ele><time>2026-04-25T13:24:27.866Z</time></trkpt><trkpt lat="43.6212312" lon="11.7629705"><ele>739.1666666666666</ele><time>2026-04-25T13:24:28.868Z</time></trkpt><trkpt lat="43.6211722" lon="11.762912"><ele>740.0</ele><time>2026-04-25T13:24:29.868Z</time></trkpt><trkpt lat="43.6211194" lon="11.7627745"><ele>741.6</ele><time>2026-04-25T13:24:31.861Z</time></trkpt><trkpt lat="43.621093" lon="11.762622"><ele>743.2</ele><time>2026-04-25T13:24:33.872Z</time></trkpt><trkpt lat="43.6210838" lon="11.7625274"><ele>744.8</ele><time>2026-04-25T13:24:34.87Z</time></trkpt><trkpt lat="43.6210716" lon="11.7624072"><ele>746.4</ele><time>2026-04-25T13:24:35.863Z</time></trkpt><trkpt lat="43.6210538" lon="11.7622791"><ele>748.0</ele><time>2026-04-25T13:24:36.875Z</time></trkpt><trkpt lat="43.62103" lon="11.7621578"><ele>748.0</ele><time>2026-04-25T13:24:37.867Z</time></trkpt><trkpt lat="43.6210077" lon="11.7620254"><ele>748.0</ele><time>2026-04-25T13:24:38.883Z</time></trkpt><trkpt lat="43.6209797" lon="11.7618982"><ele>748.0</ele><time>2026-04-25T13:24:39.879Z</time></trkpt><trkpt lat="43.6209435" lon="11.7617719"><ele>748.0</ele><time>2026-04-25T13:24:40.878Z</time></trkpt><trkpt lat="43.620896" lon="11.7616781"><ele>748.0</ele><time>2026-04-25T13:24:41.882Z</time></trkpt><trkpt lat="43.6208508" lon="11.7616118"><ele>748.0</ele><time>2026-04-25T13:24:42.862Z</time></trkpt><trkpt lat="43.6207865" lon="11.7615346"><ele>748.8333333333334</ele><time>2026-04-25T13:24:43.864Z</time></trkpt><trkpt lat="43.6207054" lon="11.7614486"><ele>749.6666666666667</ele><time>2026-04-25T13:24:44.868Z</time></trkpt><trkpt lat="43.6206339" lon="11.7613613"><ele>750.5</ele><time>2026-04-25T13:24:45.872Z</time></trkpt><trkpt lat="43.6205681" lon="11.7612854"><ele>751.3333333333334</ele><time>2026-04-25T13:24:46.865Z</time></trkpt><trkpt lat="43.620509" lon="11.7612096"><ele>752.1666666666666</ele><time>2026-04-25T13:24:47.865Z</time></trkpt><trkpt lat="43.6204523" lon="11.7611327"><ele>753.0</ele><time>2026-04-25T13:24:48.867Z</time></trkpt><trkpt lat="43.6204112" lon="11.7610549"><ele>753.6666666666666</ele><time>2026-04-25T13:24:49.867Z</time></trkpt><trkpt lat="43.6203873" lon="11.7609622"><ele>754.3333333333334</ele><time>2026-04-25T13:24:50.879Z</time></trkpt><trkpt lat="43.62039" lon="11.76087"><ele>755.0</ele><time>2026-04-25T13:24:51.871Z</time></trkpt><trkpt lat="43.6203986" lon="11.7607689"><ele>755.6666666666667</ele><time>2026-04-25T13:24:52.873Z</time></trkpt><trkpt lat="43.6203903" lon="11.7606731"><ele>756.3333333333334</ele><time>2026-04-25T13:24:53.864Z</time></trkpt><trkpt lat="43.6203506" lon="11.7605553"><ele>757.0</ele><time>2026-04-25T13:24:55.867Z</time></trkpt><trkpt lat="43.6203117" lon="11.7604675"><ele>757.8</ele><time>2026-04-25T13:25:11.869Z</time></trkpt><trkpt lat="43.6202266" lon="11.760468"><ele>758.6</ele><time>2026-04-25T13:25:13.883Z</time></trkpt><trkpt lat="43.620152" lon="11.7605185"><ele>759.4</ele><time>2026-04-25T13:25:14.867Z</time></trkpt><trkpt lat="43.6200596" lon="11.7606084"><ele>760.1999999999999</ele><time>2026-04-25T13:25:15.87Z</time></trkpt><trkpt lat="43.6199639" lon="11.7607138"><ele>761.0</ele><time>2026-04-25T13:25:16.868Z</time></trkpt><trkpt lat="43.6198815" lon="11.7607844"><ele>761.0</ele><time>2026-04-25T13:25:17.871Z</time></trkpt><trkpt lat="43.6198002" lon="11.7608752"><ele>761.0</ele><time>2026-04-25T13:25:19.862Z</time></trkpt><trkpt lat="43.6198298" lon="11.7609909"><ele>761.0</ele><time>2026-04-25T13:25:21.875Z</time></trkpt><trkpt lat="43.619916" lon="11.7610819"><ele>761.0</ele><time>2026-04-25T13:25:23.863Z</time></trkpt><trkpt lat="43.6199896" lon="11.7611233"><ele>761.0</ele><time>2026-04-25T13:25:24.863Z</time></trkpt><trkpt lat="43.6200423" lon="11.7611792"><ele>761.0</ele><time>2026-04-25T13:25:25.866Z</time></trkpt><trkpt lat="43.6200775" lon="11.7612765"><ele>762.1428571428571</ele><time>2026-04-25T13:25:26.874Z</time></trkpt><trkpt lat="43.6201063" lon="11.7613721"><ele>763.2857142857142</ele><time>2026-04-25T13:25:27.879Z</time></trkpt><trkpt lat="43.6201224" lon="11.7614717"><ele>764.4285714285713</ele><time>2026-04-25T13:25:28.871Z</time></trkpt><trkpt lat="43.6201173" lon="11.7615661"><ele>765.5714285714286</ele><time>2026-04-25T13:25:29.859Z</time></trkpt><trkpt lat="43.620114" lon="11.7616681"><ele>766.7142857142858</ele><time>2026-04-25T13:25:30.868Z</time></trkpt><trkpt lat="43.6201034" lon="11.7617671"><ele>767.8571428571428</ele><time>2026-04-25T13:25:31.862Z</time></trkpt><trkpt lat="43.6200959" lon="11.7618595"><ele>769.0</ele><time>2026-04-25T13:25:32.868Z</time></trkpt><trkpt lat="43.6200893" lon="11.7619579"><ele>769.2</ele><time>2026-04-25T13:25:33.862Z</time></trkpt><trkpt lat="43.6200778" lon="11.7620895"><ele>769.4000000000001</ele><time>2026-04-25T13:25:34.864Z</time></trkpt><trkpt lat="43.6200593" lon="11.7622416"><ele>769.6</ele><time>2026-04-25T13:25:35.862Z</time></trkpt><trkpt lat="43.6200365" lon="11.7623957"><ele>769.8</ele><time>2026-04-25T13:25:36.862Z</time></trkpt><trkpt lat="43.6199955" lon="11.7625371"><ele>770.0</ele><time>2026-04-25T13:25:37.86Z</time></trkpt><trkpt lat="43.6199422" lon="11.762675"><ele>769.2</ele><time>2026-04-25T13:25:38.865Z</time></trkpt><trkpt lat="43.6198974" lon="11.7628084"><ele>768.4</ele><time>2026-04-25T13:25:39.873Z</time></trkpt><trkpt lat="43.619874" lon="11.7629444"><ele>767.5999999999999</ele><time>2026-04-25T13:25:40.88Z</time></trkpt><trkpt lat="43.6198515" lon="11.7630896"><ele>766.8</ele><time>2026-04-25T13:25:41.863Z</time></trkpt><trkpt lat="43.6198245" lon="11.7632547"><ele>766.0</ele><time>2026-04-25T13:25:42.866Z</time></trkpt><trkpt lat="43.6197904" lon="11.7634105"><ele>764.8</ele><time>2026-04-25T13:25:43.866Z</time></trkpt><trkpt lat="43.6197445" lon="11.7635689"><ele>763.5999999999999</ele><time>2026-04-25T13:25:44.872Z</time></trkpt><trkpt lat="43.6196909" lon="11.7637109"><ele>762.4</ele><time>2026-04-25T13:25:45.872Z</time></trkpt><trkpt lat="43.6196424" lon="11.7638129"><ele>761.2</ele><time>2026-04-25T13:25:46.863Z</time></trkpt><trkpt lat="43.6195881" lon="11.7638928"><ele>760.0</ele><time>2026-04-25T13:25:47.869Z</time></trkpt><trkpt lat="43.6195232" lon="11.7639615"><ele>764.6666666666667</ele><time>2026-04-25T13:25:48.868Z</time></trkpt><trkpt lat="43.6194692" lon="11.7640284"><ele>769.3333333333334</ele><time>2026-04-25T13:25:49.862Z</time></trkpt><trkpt lat="43.619434" lon="11.7641021"><ele>774.0</ele><time>2026-04-25T13:25:50.864Z</time></trkpt><trkpt lat="43.6194226" lon="11.764239"><ele>778.6666666666667</ele><time>2026-04-25T13:25:52.861Z</time></trkpt><trkpt lat="43.6194341" lon="11.7643516"><ele>783.3333333333334</ele><time>2026-04-25T13:25:53.865Z</time></trkpt><trkpt lat="43.6194347" lon="11.7644548"><ele>788.0</ele><time>2026-04-25T13:25:54.876Z</time></trkpt><trkpt lat="43.6194155" lon="11.7645678"><ele>788.0000000000001</ele><time>2026-04-25T13:25:55.868Z</time></trkpt><trkpt lat="43.6193924" lon="11.7646917"><ele>788.0</ele><time>2026-04-25T13:25:56.867Z</time></trkpt><trkpt lat="43.6193739" lon="11.7648105"><ele>788.0</ele><time>2026-04-25T13:25:57.862Z</time></trkpt><trkpt lat="43.6193505" lon="11.7649198"><ele>788.0</ele><time>2026-04-25T13:25:58.884Z</time></trkpt><trkpt lat="43.6193076" lon="11.7650275"><ele>788.0000000000001</ele><time>2026-04-25T13:25:59.866Z</time></trkpt><trkpt lat="43.6192476" lon="11.7651183"><ele>788.0</ele><time>2026-04-25T13:26:00.872Z</time></trkpt><trkpt lat="43.6191717" lon="11.7652216"><ele>785.0</ele><time>2026-04-25T13:26:01.875Z</time></trkpt><trkpt lat="43.61909" lon="11.7653432"><ele>782.0</ele><time>2026-04-25T13:26:02.874Z</time></trkpt><trkpt lat="43.6190219" lon="11.76547"><ele>779.0</ele><time>2026-04-25T13:26:03.869Z</time></trkpt><trkpt lat="43.6189707" lon="11.7655704"><ele>776.0</ele><time>2026-04-25T13:26:04.861Z</time></trkpt><trkpt lat="43.6189114" lon="11.7656505"><ele>773.0</ele><time>2026-04-25T13:26:05.869Z</time></trkpt><trkpt lat="43.618844" lon="11.765696"><ele>773.0000000000001</ele><time>2026-04-25T13:26:06.872Z</time></trkpt><trkpt lat="43.6187677" lon="11.765732"><ele>773.0</ele><time>2026-04-25T13:26:07.874Z</time></trkpt><trkpt lat="43.6187012" lon="11.7657604"><ele>773.0</ele><time>2026-04-25T13:26:08.873Z</time></trkpt><trkpt lat="43.6186591" lon="11.7658714"><ele>773.0</ele><time>2026-04-25T13:26:10.872Z</time></trkpt><trkpt lat="43.6187013" lon="11.7659588"><ele>773.0000000000001</ele><time>2026-04-25T13:26:11.865Z</time></trkpt><trkpt lat="43.6187269" lon="11.7660423"><ele>773.0</ele><time>2026-04-25T13:26:12.865Z</time></trkpt><trkpt lat="43.6187095" lon="11.7662093"><ele>775.8333333333334</ele><time>2026-04-25T13:26:14.863Z</time></trkpt><trkpt lat="43.6186681" lon="11.7662882"><ele>778.6666666666667</ele><time>2026-04-25T13:26:15.869Z</time></trkpt><trkpt lat="43.6186098" lon="11.7663625"><ele>781.5</ele><time>2026-04-25T13:26:16.859Z</time></trkpt><trkpt lat="43.618531" lon="11.7664252"><ele>784.3333333333333</ele><time>2026-04-25T13:26:17.875Z</time></trkpt><trkpt lat="43.6184441" lon="11.7664781"><ele>787.1666666666666</ele><time>2026-04-25T13:26:18.861Z</time></trkpt><trkpt lat="43.6183585" lon="11.7665453"><ele>790.0</ele><time>2026-04-25T13:26:19.862Z</time></trkpt><trkpt lat="43.6182834" lon="11.7666296"><ele>790.0</ele><time>2026-04-25T13:26:20.863Z</time></trkpt><trkpt lat="43.6182146" lon="11.7667159"><ele>790.0</ele><time>2026-04-25T13:26:21.864Z</time></trkpt><trkpt lat="43.6181457" lon="11.7668014"><ele>790.0</ele><time>2026-04-25T13:26:22.865Z</time></trkpt><trkpt lat="43.61807" lon="11.7668675"><ele>790.0</ele><time>2026-04-25T13:26:23.871Z</time></trkpt><trkpt lat="43.617981" lon="11.7669162"><ele>790.0</ele><time>2026-04-25T13:26:24.877Z</time></trkpt><trkpt lat="43.6178724" lon="11.7669644"><ele>794.5</ele><time>2026-04-25T13:26:25.872Z</time></trkpt><trkpt lat="43.6177497" lon="11.7670505"><ele>799.0</ele><time>2026-04-25T13:26:26.863Z</time></trkpt><trkpt lat="43.6176431" lon="11.7671349"><ele>803.5</ele><time>2026-04-25T13:26:27.866Z</time></trkpt><trkpt lat="43.6175358" lon="11.7672506"><ele>808.0</ele><time>2026-04-25T13:26:28.864Z</time></trkpt><trkpt lat="43.6174138" lon="11.7673557"><ele>808.0</ele><time>2026-04-25T13:26:29.874Z</time></trkpt><trkpt lat="43.6172863" lon="11.7674881"><ele>808.0</ele><time>2026-04-25T13:26:30.868Z</time></trkpt><trkpt lat="43.6171591" lon="11.7676137"><ele>808.0</ele><time>2026-04-25T13:26:31.867Z</time></trkpt><trkpt lat="43.6170203" lon="11.7677069"><ele>811.0</ele><time>2026-04-25T13:26:32.866Z</time></trkpt><trkpt lat="43.616899" lon="11.7677677"><ele>814.0</ele><time>2026-04-25T13:26:33.867Z</time></trkpt><trkpt lat="43.6167825" lon="11.7678206"><ele>817.0</ele><time>2026-04-25T13:26:34.861Z</time></trkpt><trkpt lat="43.6166429" lon="11.7678704"><ele>820.0</ele><time>2026-04-25T13:26:35.867Z</time></trkpt><trkpt lat="43.616495" lon="11.7679192"><ele>819.9999999999999</ele><time>2026-04-25T13:26:36.867Z</time></trkpt><trkpt lat="43.6163703" lon="11.7679564"><ele>820.0</ele><time>2026-04-25T13:26:37.865Z</time></trkpt><trkpt lat="43.6163068" lon="11.7679969"><ele>820.0</ele><time>2026-04-25T13:26:38.864Z</time></trkpt><trkpt lat="43.6162687" lon="11.7680672"><ele>820.0</ele><time>2026-04-25T13:26:39.876Z</time></trkpt><trkpt lat="43.616235" lon="11.7681475"><ele>819.9999999999999</ele><time>2026-04-25T13:26:40.869Z</time></trkpt><trkpt lat="43.6161943" lon="11.7682221"><ele>820.0</ele><time>2026-04-25T13:26:41.87Z</time></trkpt><trkpt lat="43.6160684" lon="11.7682345"><ele>822.4</ele><time>2026-04-25T13:26:43.874Z</time></trkpt><trkpt lat="43.6159756" lon="11.7682055"><ele>824.8</ele><time>2026-04-25T13:26:44.889Z</time></trkpt><trkpt lat="43.6158601" lon="11.7681625"><ele>827.2</ele><time>2026-04-25T13:26:45.865Z</time></trkpt><trkpt lat="43.6157584" lon="11.7681132"><ele>829.6</ele><time>2026-04-25T13:26:46.864Z</time></trkpt><trkpt lat="43.615658" lon="11.7680382"><ele>832.0</ele><time>2026-04-25T13:26:47.891Z</time></trkpt><trkpt lat="43.615569" lon="11.7679522"><ele>832.0</ele><time>2026-04-25T13:26:48.878Z</time></trkpt><trkpt lat="43.6154832" lon="11.7678404"><ele>832.0</ele><time>2026-04-25T13:26:49.868Z</time></trkpt><trkpt lat="43.615416" lon="11.7677077"><ele>832.0</ele><time>2026-04-25T13:26:50.864Z</time></trkpt><trkpt lat="43.6153583" lon="11.7675836"><ele>832.0</ele><time>2026-04-25T13:26:51.86Z</time></trkpt><trkpt lat="43.6153034" lon="11.7674714"><ele>832.0</ele><time>2026-04-25T13:26:52.866Z</time></trkpt><trkpt lat="43.6152252" lon="11.767387"><ele>831.5</ele><time>2026-04-25T13:26:53.866Z</time></trkpt><trkpt lat="43.6151239" lon="11.7673172"><ele>831.0</ele><time>2026-04-25T13:26:54.862Z</time></trkpt><trkpt lat="43.615006" lon="11.7672395"><ele>830.5</ele><time>2026-04-25T13:26:55.869Z</time></trkpt><trkpt lat="43.6148958" lon="11.76717"><ele>830.0</ele><time>2026-04-25T13:26:56.874Z</time></trkpt><trkpt lat="43.6147884" lon="11.7671172"><ele>830.0</ele><time>2026-04-25T13:26:57.872Z</time></trkpt><trkpt lat="43.6146804" lon="11.7670961"><ele>830.0</ele><time>2026-04-25T13:26:58.878Z</time></trkpt><trkpt lat="43.6145868" lon="11.7670602"><ele>830.0</ele><time>2026-04-25T13:26:59.865Z</time></trkpt><trkpt lat="43.6144996" lon="11.7670276"><ele>830.0</ele><time>2026-04-25T13:27:00.872Z</time></trkpt><trkpt lat="43.6144259" lon="11.7669108"><ele>830.0</ele><time>2026-04-25T13:27:02.863Z</time></trkpt><trkpt lat="43.6144094" lon="11.7668161"><ele>828.8</ele><time>2026-04-25T13:27:03.87Z</time></trkpt><trkpt lat="43.6143958" lon="11.7666933"><ele>827.6</ele><time>2026-04-25T13:27:04.872Z</time></trkpt><trkpt lat="43.6143917" lon="11.7665691"><ele>826.4000000000001</ele><time>2026-04-25T13:27:05.874Z</time></trkpt><trkpt lat="43.6143848" lon="11.7664546"><ele>825.2</ele><time>2026-04-25T13:27:06.864Z</time></trkpt><trkpt lat="43.6143611" lon="11.7663009"><ele>824.0</ele><time>2026-04-25T13:27:07.865Z</time></trkpt><trkpt lat="43.6143392" lon="11.7661528"><ele>825.8333333333334</ele><time>2026-04-25T13:27:08.86Z</time></trkpt><trkpt lat="43.6143299" lon="11.7660215"><ele>827.6666666666667</ele><time>2026-04-25T13:27:09.877Z</time></trkpt><trkpt lat="43.6143209" lon="11.765918"><ele>829.5</ele><time>2026-04-25T13:27:10.865Z</time></trkpt><trkpt lat="43.6142905" lon="11.7658269"><ele>831.3333333333333</ele><time>2026-04-25T13:27:11.87Z</time></trkpt><trkpt lat="43.6142382" lon="11.765745"><ele>833.1666666666666</ele><time>2026-04-25T13:27:12.876Z</time></trkpt><trkpt lat="43.6141696" lon="11.7656951"><ele>835.0</ele><time>2026-04-25T13:27:13.868Z</time></trkpt><trkpt lat="43.6140686" lon="11.7656724"><ele>835.0</ele><time>2026-04-25T13:27:14.867Z</time></trkpt><trkpt lat="43.6139485" lon="11.7656389"><ele>835.0</ele><time>2026-04-25T13:27:15.865Z</time></trkpt><trkpt lat="43.6138348" lon="11.7656037"><ele>835.0</ele><time>2026-04-25T13:27:16.872Z</time></trkpt><trkpt lat="43.6137335" lon="11.765599"><ele>835.0</ele><time>2026-04-25T13:27:17.875Z</time></trkpt><trkpt lat="43.6136475" lon="11.7656258"><ele>835.0</ele><time>2026-04-25T13:27:18.879Z</time></trkpt><trkpt lat="43.613566" lon="11.7656453"><ele>832.8</ele><time>2026-04-25T13:27:19.871Z</time></trkpt><trkpt lat="43.6135069" lon="11.7655967"><ele>830.6</ele><time>2026-04-25T13:27:20.871Z</time></trkpt><trkpt lat="43.6134408" lon="11.7654911"><ele>828.4000000000001</ele><time>2026-04-25T13:27:21.876Z</time></trkpt><trkpt lat="43.6133701" lon="11.7653655"><ele>826.2</ele><time>2026-04-25T13:27:22.867Z</time></trkpt><trkpt lat="43.6132997" lon="11.7652601"><ele>824.0</ele><time>2026-04-25T13:27:23.859Z</time></trkpt><trkpt lat="43.6132281" lon="11.7652254"><ele>824.0000000000001</ele><time>2026-04-25T13:27:24.874Z</time></trkpt><trkpt lat="43.6131575" lon="11.7652361"><ele>824.0</ele><time>2026-04-25T13:27:25.869Z</time></trkpt><trkpt lat="43.6130862" lon="11.765268"><ele>824.0</ele><time>2026-04-25T13:27:26.864Z</time></trkpt><trkpt lat="43.6129983" lon="11.7652963"><ele>824.0</ele><time>2026-04-25T13:27:27.868Z</time></trkpt><trkpt lat="43.6129055" lon="11.7653033"><ele>824.0000000000001</ele><time>2026-04-25T13:27:28.872Z</time></trkpt><trkpt lat="43.6127967" lon="11.7652831"><ele>824.0</ele><time>2026-04-25T13:27:29.88Z</time></trkpt><trkpt lat="43.6126761" lon="11.76523"><ele>828.0</ele><time>2026-04-25T13:27:30.872Z</time></trkpt><trkpt lat="43.6125337" lon="11.7651588"><ele>832.0</ele><time>2026-04-25T13:27:31.871Z</time></trkpt><trkpt lat="43.6123891" lon="11.7650977"><ele>836.0</ele><time>2026-04-25T13:27:32.876Z</time></trkpt><trkpt lat="43.6122784" lon="11.7650196"><ele>840.0</ele><time>2026-04-25T13:27:33.88Z</time></trkpt><trkpt lat="43.6121849" lon="11.7649164"><ele>840.0</ele><time>2026-04-25T13:27:34.869Z</time></trkpt><trkpt lat="43.6121047" lon="11.7648172"><ele>840.0</ele><time>2026-04-25T13:27:35.871Z</time></trkpt><trkpt lat="43.6120259" lon="11.7647147"><ele>840.0</ele><time>2026-04-25T13:27:36.883Z</time></trkpt><trkpt lat="43.6119658" lon="11.7645965"><ele>840.0</ele><time>2026-04-25T13:27:37.867Z</time></trkpt><trkpt lat="43.6119112" lon="11.7644815"><ele>840.0</ele><time>2026-04-25T13:27:38.872Z</time></trkpt><trkpt lat="43.6118443" lon="11.764384"><ele>839.4</ele><time>2026-04-25T13:27:39.89Z</time></trkpt><trkpt lat="43.6117742" lon="11.7643073"><ele>838.8</ele><time>2026-04-25T13:27:40.875Z</time></trkpt><trkpt lat="43.611688" lon="11.7642598"><ele>838.2</ele><time>2026-04-25T13:27:41.857Z</time></trkpt><trkpt lat="43.6115949" lon="11.7642193"><ele>837.6</ele><time>2026-04-25T13:27:42.868Z</time></trkpt><trkpt lat="43.6115002" lon="11.7641755"><ele>837.0</ele><time>2026-04-25T13:27:43.865Z</time></trkpt><trkpt lat="43.611421" lon="11.7641045"><ele>837.0</ele><time>2026-04-25T13:27:44.867Z</time></trkpt><trkpt lat="43.6113515" lon="11.7640219"><ele>837.0</ele><time>2026-04-25T13:27:45.869Z</time></trkpt><trkpt lat="43.6112796" lon="11.7639155"><ele>837.0</ele><time>2026-04-25T13:27:46.864Z</time></trkpt><trkpt lat="43.6112066" lon="11.7638014"><ele>837.0</ele><time>2026-04-25T13:27:47.878Z</time></trkpt><trkpt lat="43.6111427" lon="11.763681"><ele>837.0</ele><time>2026-04-25T13:27:48.876Z</time></trkpt><trkpt lat="43.6110821" lon="11.7635621"><ele>832.8333333333334</ele><time>2026-04-25T13:27:49.871Z</time></trkpt><trkpt lat="43.6110378" lon="11.7634463"><ele>828.6666666666667</ele><time>2026-04-25T13:27:50.87Z</time></trkpt><trkpt lat="43.6109868" lon="11.7633326"><ele>824.5</ele><time>2026-04-25T13:27:51.869Z</time></trkpt><trkpt lat="43.6109456" lon="11.7632166"><ele>820.3333333333334</ele><time>2026-04-25T13:27:52.867Z</time></trkpt><trkpt lat="43.610915" lon="11.7631023"><ele>816.1666666666667</ele><time>2026-04-25T13:27:53.867Z</time></trkpt><trkpt lat="43.6108933" lon="11.7630067"><ele>812.0</ele><time>2026-04-25T13:27:54.864Z</time></trkpt><trkpt lat="43.6108676" lon="11.7629166"><ele>812.0</ele><time>2026-04-25T13:27:55.87Z</time></trkpt><trkpt lat="43.6108774" lon="11.7627786"><ele>812.0</ele><time>2026-04-25T13:27:57.86Z</time></trkpt><trkpt lat="43.6109637" lon="11.7626545"><ele>812.0</ele><time>2026-04-25T13:27:59.87Z</time></trkpt><trkpt lat="43.6110374" lon="11.762572"><ele>812.0</ele><time>2026-04-25T13:28:00.88Z</time></trkpt><trkpt lat="43.611115" lon="11.7624695"><ele>812.0</ele><time>2026-04-25T13:28:01.87Z</time></trkpt><trkpt lat="43.6111736" lon="11.7623692"><ele>815.8333333333334</ele><time>2026-04-25T13:28:02.865Z</time></trkpt><trkpt lat="43.6112141" lon="11.7622497"><ele>819.6666666666667</ele><time>2026-04-25T13:28:03.866Z</time></trkpt><trkpt lat="43.6112377" lon="11.762125"><ele>823.5</ele><time>2026-04-25T13:28:04.873Z</time></trkpt><trkpt lat="43.6112616" lon="11.7619956"><ele>827.3333333333333</ele><time>2026-04-25T13:28:05.862Z</time></trkpt><trkpt lat="43.6112818" lon="11.7618797"><ele>831.1666666666666</ele><time>2026-04-25T13:28:06.879Z</time></trkpt><trkpt lat="43.6112956" lon="11.7617748"><ele>835.0</ele><time>2026-04-25T13:28:07.872Z</time></trkpt><trkpt lat="43.6112709" lon="11.7616392"><ele>827.6</ele><time>2026-04-25T13:28:09.873Z</time></trkpt><trkpt lat="43.6111523" lon="11.7615784"><ele>820.2</ele><time>2026-04-25T13:28:11.87Z</time></trkpt><trkpt lat="43.6110653" lon="11.7615137"><ele>812.8</ele><time>2026-04-25T13:28:12.87Z</time></trkpt><trkpt lat="43.6109784" lon="11.7614314"><ele>805.4</ele><time>2026-04-25T13:28:13.869Z</time></trkpt><trkpt lat="43.6108991" lon="11.7613577"><ele>798.0</ele><time>2026-04-25T13:28:14.867Z</time></trkpt><trkpt lat="43.6108246" lon="11.7612871"><ele>798.0</ele><time>2026-04-25T13:28:15.868Z</time></trkpt><trkpt lat="43.610762" lon="11.7612148"><ele>798.0</ele><time>2026-04-25T13:28:16.867Z</time></trkpt><trkpt lat="43.6107096" lon="11.7611368"><ele>798.0</ele><time>2026-04-25T13:28:17.875Z</time></trkpt><trkpt lat="43.6106724" lon="11.7610444"><ele>798.0</ele><time>2026-04-25T13:28:18.862Z</time></trkpt><trkpt lat="43.6106454" lon="11.7609518"><ele>798.0</ele><time>2026-04-25T13:28:19.863Z</time></trkpt><trkpt lat="43.6106391" lon="11.7607926"><ele>798.0</ele><time>2026-04-25T13:28:21.878Z</time></trkpt><trkpt lat="43.610662" lon="11.7606941"><ele>799.4</ele><time>2026-04-25T13:28:22.879Z</time></trkpt><trkpt lat="43.6107078" lon="11.7605682"><ele>800.8</ele><time>2026-04-25T13:28:23.866Z</time></trkpt><trkpt lat="43.6107511" lon="11.7604501"><ele>802.2</ele><time>2026-04-25T13:28:24.866Z</time></trkpt><trkpt lat="43.6107976" lon="11.7603433"><ele>803.6</ele><time>2026-04-25T13:28:25.876Z</time></trkpt><trkpt lat="43.6108097" lon="11.7602411"><ele>805.0</ele><time>2026-04-25T13:28:26.886Z</time></trkpt><trkpt lat="43.6107632" lon="11.7601048"><ele>804.9999999999999</ele><time>2026-04-25T13:28:28.874Z</time></trkpt><trkpt lat="43.6106512" lon="11.7600423"><ele>805.0</ele><time>2026-04-25T13:28:30.866Z</time></trkpt><trkpt lat="43.6105775" lon="11.7600297"><ele>805.0</ele><time>2026-04-25T13:28:31.868Z</time></trkpt><trkpt lat="43.610503" lon="11.7600252"><ele>805.0</ele><time>2026-04-25T13:28:32.869Z</time></trkpt><trkpt lat="43.610424" lon="11.7600181"><ele>804.9999999999999</ele><time>2026-04-25T13:28:33.871Z</time></trkpt><trkpt lat="43.6103575" lon="11.7599688"><ele>805.0</ele><time>2026-04-25T13:28:34.869Z</time></trkpt><trkpt lat="43.6103104" lon="11.7598903"><ele>800.1666666666666</ele><time>2026-04-25T13:28:35.871Z</time></trkpt><trkpt lat="43.6102733" lon="11.7597748"><ele>795.3333333333333</ele><time>2026-04-25T13:28:36.876Z</time></trkpt><trkpt lat="43.6102287" lon="11.7596615"><ele>790.5</ele><time>2026-04-25T13:28:37.869Z</time></trkpt><trkpt lat="43.6101675" lon="11.7595694"><ele>785.6666666666667</ele><time>2026-04-25T13:28:38.869Z</time></trkpt><trkpt lat="43.6101016" lon="11.7594966"><ele>780.8333333333334</ele><time>2026-04-25T13:28:39.875Z</time></trkpt><trkpt lat="43.6100405" lon="11.7594103"><ele>776.0</ele><time>2026-04-25T13:28:40.866Z</time></trkpt><trkpt lat="43.6100134" lon="11.7593251"><ele>775.6666666666667</ele><time>2026-04-25T13:28:41.87Z</time></trkpt><trkpt lat="43.6100281" lon="11.7592254"><ele>775.3333333333334</ele><time>2026-04-25T13:28:42.872Z</time></trkpt><trkpt lat="43.6100569" lon="11.7591128"><ele>775.0</ele><time>2026-04-25T13:28:43.877Z</time></trkpt><trkpt lat="43.6100954" lon="11.7590105"><ele>774.6666666666667</ele><time>2026-04-25T13:28:44.883Z</time></trkpt><trkpt lat="43.6101441" lon="11.7589118"><ele>774.3333333333334</ele><time>2026-04-25T13:28:45.872Z</time></trkpt><trkpt lat="43.6101951" lon="11.7588239"><ele>774.0</ele><time>2026-04-25T13:28:46.881Z</time></trkpt><trkpt lat="43.6102333" lon="11.7587513"><ele>774.0</ele><time>2026-04-25T13:28:47.867Z</time></trkpt><trkpt lat="43.6102458" lon="11.7585735"><ele>774.0</ele><time>2026-04-25T13:28:49.875Z</time></trkpt><trkpt lat="43.6102286" lon="11.7584628"><ele>774.0</ele><time>2026-04-25T13:28:50.868Z</time></trkpt><trkpt lat="43.6102297" lon="11.7583464"><ele>774.0</ele><time>2026-04-25T13:28:51.869Z</time></trkpt><trkpt lat="43.6102596" lon="11.7582367"><ele>774.0</ele><time>2026-04-25T13:28:52.877Z</time></trkpt><trkpt lat="43.6103066" lon="11.7581181"><ele>777.3333333333334</ele><time>2026-04-25T13:28:53.874Z</time></trkpt><trkpt lat="43.6103481" lon="11.758012"><ele>780.6666666666667</ele><time>2026-04-25T13:28:54.87Z</time></trkpt><trkpt lat="43.6103842" lon="11.757912"><ele>784.0</ele><time>2026-04-25T13:28:55.875Z</time></trkpt><trkpt lat="43.6103993" lon="11.7578213"><ele>787.3333333333334</ele><time>2026-04-25T13:28:56.872Z</time></trkpt><trkpt lat="43.6103881" lon="11.7577314"><ele>790.6666666666667</ele><time>2026-04-25T13:28:57.876Z</time></trkpt><trkpt lat="43.6102682" lon="11.7576524"><ele>794.0</ele><time>2026-04-25T13:28:59.87Z</time></trkpt><trkpt lat="43.6101467" lon="11.7576728"><ele>789.8000000000001</ele><time>2026-04-25T13:29:00.869Z</time></trkpt><trkpt lat="43.6100155" lon="11.7577236"><ele>785.6</ele><time>2026-04-25T13:29:01.874Z</time></trkpt><trkpt lat="43.6098878" lon="11.7577793"><ele>781.4</ele><time>2026-04-25T13:29:02.872Z</time></trkpt><trkpt lat="43.6097854" lon="11.7578024"><ele>777.2</ele><time>2026-04-25T13:29:03.882Z</time></trkpt><trkpt lat="43.6097173" lon="11.7577789"><ele>773.0</ele><time>2026-04-25T13:29:04.864Z</time></trkpt><trkpt lat="43.6096374" lon="11.7577459"><ele>776.5999999999999</ele><time>2026-04-25T13:29:05.864Z</time></trkpt><trkpt lat="43.6095444" lon="11.7576961"><ele>780.1999999999999</ele><time>2026-04-25T13:29:06.882Z</time></trkpt><trkpt lat="43.609447" lon="11.7576436"><ele>783.8</ele><time>2026-04-25T13:29:07.869Z</time></trkpt><trkpt lat="43.6093488" lon="11.7575783"><ele>787.4</ele><time>2026-04-25T13:29:08.884Z</time></trkpt><trkpt lat="43.6092362" lon="11.7574992"><ele>791.0</ele><time>2026-04-25T13:29:09.87Z</time></trkpt><trkpt lat="43.6091052" lon="11.7574092"><ele>791.0</ele><time>2026-04-25T13:29:10.867Z</time></trkpt><trkpt lat="43.6090111" lon="11.7573271"><ele>791.0</ele><time>2026-04-25T13:29:11.875Z</time></trkpt><trkpt lat="43.6089415" lon="11.757284"><ele>791.0</ele><time>2026-04-25T13:29:12.871Z</time></trkpt><trkpt lat="43.6088088" lon="11.7572872"><ele>791.0</ele><time>2026-04-25T13:29:14.875Z</time></trkpt><trkpt lat="43.6087328" lon="11.7572991"><ele>791.0</ele><time>2026-04-25T13:29:15.868Z</time></trkpt><trkpt lat="43.6086436" lon="11.7573258"><ele>789.0</ele><time>2026-04-25T13:29:16.867Z</time></trkpt><trkpt lat="43.6085337" lon="11.7573614"><ele>787.0</ele><time>2026-04-25T13:29:17.875Z</time></trkpt><trkpt lat="43.6084149" lon="11.7573956"><ele>785.0</ele><time>2026-04-25T13:29:18.869Z</time></trkpt><trkpt lat="43.608304" lon="11.757424"><ele>783.0</ele><time>2026-04-25T13:29:19.861Z</time></trkpt><trkpt lat="43.6081839" lon="11.7574496"><ele>783.0</ele><time>2026-04-25T13:29:20.859Z</time></trkpt><trkpt lat="43.6080504" lon="11.7574878"><ele>783.0</ele><time>2026-04-25T13:29:21.878Z</time></trkpt><trkpt lat="43.6079098" lon="11.7575149"><ele>783.0</ele><time>2026-04-25T13:29:22.87Z</time></trkpt><trkpt lat="43.6077734" lon="11.7575444"><ele>783.0</ele><time>2026-04-25T13:29:23.864Z</time></trkpt><trkpt lat="43.6076421" lon="11.7575678"><ele>780.5</ele><time>2026-04-25T13:29:24.872Z</time></trkpt><trkpt lat="43.6075174" lon="11.757574"><ele>778.0</ele><time>2026-04-25T13:29:25.865Z</time></trkpt><trkpt lat="43.6073865" lon="11.7575972"><ele>775.5</ele><time>2026-04-25T13:29:26.87Z</time></trkpt><trkpt lat="43.6072499" lon="11.7576046"><ele>773.0</ele><time>2026-04-25T13:29:27.87Z</time></trkpt><trkpt lat="43.607111" lon="11.757603"><ele>771.2</ele><time>2026-04-25T13:29:28.88Z</time></trkpt><trkpt lat="43.6069889" lon="11.7576003"><ele>769.4</ele><time>2026-04-25T13:29:29.869Z</time></trkpt><trkpt lat="43.606885" lon="11.7576034"><ele>767.6</ele><time>2026-04-25T13:29:30.859Z</time></trkpt><trkpt lat="43.6067907" lon="11.7576105"><ele>765.8000000000001</ele><time>2026-04-25T13:29:31.861Z</time></trkpt><trkpt lat="43.6066785" lon="11.7576162"><ele>764.0</ele><time>2026-04-25T13:29:33.868Z</time></trkpt><trkpt lat="43.6066223" lon="11.7575202"><ele>764.0</ele><time>2026-04-25T13:29:35.881Z</time></trkpt><trkpt lat="43.6066512" lon="11.7573813"><ele>764.0</ele><time>2026-04-25T13:29:37.872Z</time></trkpt><trkpt lat="43.6066961" lon="11.7572848"><ele>764.0</ele><time>2026-04-25T13:29:39.871Z</time></trkpt><trkpt lat="43.6067502" lon="11.7572356"><ele>764.0</ele><time>2026-04-25T13:29:58.875Z</time></trkpt><trkpt lat="43.6068252" lon="11.7571005"><ele>764.0</ele><time>2026-04-25T13:30:01.877Z</time></trkpt><trkpt lat="43.6068777" lon="11.7570196"><ele>764.0</ele><time>2026-04-25T13:30:02.864Z</time></trkpt><trkpt lat="43.6069476" lon="11.7569457"><ele>764.0</ele><time>2026-04-25T13:30:03.868Z</time></trkpt><trkpt lat="43.6070249" lon="11.7568665"><ele>764.0</ele><time>2026-04-25T13:30:04.871Z</time></trkpt><trkpt lat="43.6070947" lon="11.7568036"><ele>764.0</ele><time>2026-04-25T13:30:05.878Z</time></trkpt><trkpt lat="43.6071582" lon="11.7567354"><ele>764.0</ele><time>2026-04-25T13:30:06.882Z</time></trkpt><trkpt lat="43.607201" lon="11.7566415"><ele>764.0</ele><time>2026-04-25T13:30:07.861Z</time></trkpt><trkpt lat="43.6072299" lon="11.7565428"><ele>764.0</ele><time>2026-04-25T13:30:08.869Z</time></trkpt><trkpt lat="43.6072796" lon="11.7564422"><ele>764.0</ele><time>2026-04-25T13:30:09.866Z</time></trkpt><trkpt lat="43.6073549" lon="11.7563357"><ele>764.0</ele><time>2026-04-25T13:30:10.863Z</time></trkpt><trkpt lat="43.6074361" lon="11.7562368"><ele>764.0</ele><time>2026-04-25T13:30:11.894Z</time></trkpt><trkpt lat="43.6075092" lon="11.7561491"><ele>764.0</ele><time>2026-04-25T13:30:12.868Z</time></trkpt><trkpt lat="43.60757" lon="11.7560676"><ele>762.8333333333333</ele><time>2026-04-25T13:30:13.866Z</time></trkpt><trkpt lat="43.6076288" lon="11.7559981"><ele>761.6666666666666</ele><time>2026-04-25T13:30:14.863Z</time></trkpt><trkpt lat="43.6076912" lon="11.7559221"><ele>760.5</ele><time>2026-04-25T13:30:15.875Z</time></trkpt><trkpt lat="43.6077477" lon="11.7558489"><ele>759.3333333333334</ele><time>2026-04-25T13:30:16.875Z</time></trkpt><trkpt lat="43.6078092" lon="11.7557752"><ele>758.1666666666667</ele><time>2026-04-25T13:30:17.87Z</time></trkpt><trkpt lat="43.6078883" lon="11.7557071"><ele>757.0</ele><time>2026-04-25T13:30:18.873Z</time></trkpt><trkpt lat="43.6079782" lon="11.7556391"><ele>757.0</ele><time>2026-04-25T13:30:19.871Z</time></trkpt><trkpt lat="43.6080706" lon="11.7555755"><ele>757.0</ele><time>2026-04-25T13:30:20.863Z</time></trkpt><trkpt lat="43.6081584" lon="11.7555164"><ele>757.0</ele><time>2026-04-25T13:30:21.869Z</time></trkpt><trkpt lat="43.6082313" lon="11.7554625"><ele>757.0</ele><time>2026-04-25T13:30:22.868Z</time></trkpt><trkpt lat="43.6082919" lon="11.7554131"><ele>757.0</ele><time>2026-04-25T13:30:23.872Z</time></trkpt><trkpt lat="43.6083543" lon="11.7553675"><ele>757.0</ele><time>2026-04-25T13:30:24.866Z</time></trkpt><trkpt lat="43.6083953" lon="11.7552952"><ele>753.2</ele><time>2026-04-25T13:30:25.871Z</time></trkpt><trkpt lat="43.6084107" lon="11.7551839"><ele>749.4000000000001</ele><time>2026-04-25T13:30:26.871Z</time></trkpt><trkpt lat="43.6084094" lon="11.7550631"><ele>745.5999999999999</ele><time>2026-04-25T13:30:27.872Z</time></trkpt><trkpt lat="43.6084215" lon="11.7549253"><ele>741.8</ele><time>2026-04-25T13:30:28.866Z</time></trkpt><trkpt lat="43.6084232" lon="11.7547631"><ele>738.0</ele><time>2026-04-25T13:30:29.872Z</time></trkpt><trkpt lat="43.6084333" lon="11.7546247"><ele>738.0</ele><time>2026-04-25T13:30:30.862Z</time></trkpt><trkpt lat="43.6084407" lon="11.7544683"><ele>738.0</ele><time>2026-04-25T13:30:31.871Z</time></trkpt><trkpt lat="43.6084309" lon="11.7543065"><ele>738.0</ele><time>2026-04-25T13:30:32.863Z</time></trkpt><trkpt lat="43.6084175" lon="11.7541416"><ele>738.0</ele><time>2026-04-25T13:30:33.864Z</time></trkpt><trkpt lat="43.6084026" lon="11.7539908"><ele>737.2</ele><time>2026-04-25T13:30:34.863Z</time></trkpt><trkpt lat="43.6083842" lon="11.7538667"><ele>736.4</ele><time>2026-04-25T13:30:35.876Z</time></trkpt><trkpt lat="43.6083656" lon="11.7537318"><ele>735.6</ele><time>2026-04-25T13:30:36.863Z</time></trkpt><trkpt lat="43.6083443" lon="11.7535916"><ele>734.8000000000001</ele><time>2026-04-25T13:30:37.857Z</time></trkpt><trkpt lat="43.6083073" lon="11.7534599"><ele>734.0</ele><time>2026-04-25T13:30:38.871Z</time></trkpt><trkpt lat="43.6082453" lon="11.7533303"><ele>734.0</ele><time>2026-04-25T13:30:39.87Z</time></trkpt><trkpt lat="43.6081631" lon="11.753212"><ele>734.0</ele><time>2026-04-25T13:30:40.862Z</time></trkpt><trkpt lat="43.6080864" lon="11.7530802"><ele>734.0</ele><time>2026-04-25T13:30:41.851Z</time></trkpt><trkpt lat="43.6080151" lon="11.7529375"><ele>734.0</ele><time>2026-04-25T13:30:42.862Z</time></trkpt><trkpt lat="43.6079406" lon="11.7527963"><ele>734.8000000000001</ele><time>2026-04-25T13:30:43.874Z</time></trkpt><trkpt lat="43.6078644" lon="11.7526709"><ele>735.6</ele><time>2026-04-25T13:30:44.875Z</time></trkpt><trkpt lat="43.6078214" lon="11.7525669"><ele>736.4</ele><time>2026-04-25T13:30:45.866Z</time></trkpt><trkpt lat="43.6078013" lon="11.7524579"><ele>737.2</ele><time>2026-04-25T13:30:46.875Z</time></trkpt><trkpt lat="43.6077958" lon="11.7523218"><ele>738.0</ele><time>2026-04-25T13:30:47.857Z</time></trkpt><trkpt lat="43.6078015" lon="11.7521548"><ele>731.0</ele><time>2026-04-25T13:30:48.871Z</time></trkpt><trkpt lat="43.6078083" lon="11.7519734"><ele>724.0</ele><time>2026-04-25T13:30:49.864Z</time></trkpt><trkpt lat="43.6078109" lon="11.7517974"><ele>717.0</ele><time>2026-04-25T13:30:50.871Z</time></trkpt><trkpt lat="43.6078119" lon="11.7516268"><ele>710.0</ele><time>2026-04-25T13:30:51.864Z</time></trkpt><trkpt lat="43.6078116" lon="11.7514862"><ele>710.0</ele><time>2026-04-25T13:30:52.864Z</time></trkpt><trkpt lat="43.6078015" lon="11.7513788"><ele>710.0</ele><time>2026-04-25T13:30:53.88Z</time></trkpt><trkpt lat="43.6078143" lon="11.7512446"><ele>710.0</ele><time>2026-04-25T13:30:55.867Z</time></trkpt><trkpt lat="43.6078726" lon="11.7511209"><ele>710.0</ele><time>2026-04-25T13:30:57.862Z</time></trkpt><trkpt lat="43.6078456" lon="11.7510158"><ele>710.0</ele><time>2026-04-25T13:31:00.875Z</time></trkpt><trkpt lat="43.6077888" lon="11.750939"><ele>710.0</ele><time>2026-04-25T13:31:03.864Z</time></trkpt><trkpt lat="43.6078071" lon="11.7508024"><ele>714.4</ele><time>2026-04-25T13:31:07.859Z</time></trkpt><trkpt lat="43.6078306" lon="11.7507035"><ele>718.8</ele><time>2026-04-25T13:31:08.868Z</time></trkpt><trkpt lat="43.6078747" lon="11.750579"><ele>723.2</ele><time>2026-04-25T13:31:09.871Z</time></trkpt><trkpt lat="43.6079321" lon="11.750445"><ele>727.6</ele><time>2026-04-25T13:31:10.874Z</time></trkpt><trkpt lat="43.607985" lon="11.7502851"><ele>732.0</ele><time>2026-04-25T13:31:11.866Z</time></trkpt><trkpt lat="43.6080385" lon="11.7500861"><ele>732.0</ele><time>2026-04-25T13:31:12.862Z</time></trkpt><trkpt lat="43.6080947" lon="11.7498747"><ele>732.0</ele><time>2026-04-25T13:31:13.858Z</time></trkpt><trkpt lat="43.6081563" lon="11.7496767"><ele>732.0</ele><time>2026-04-25T13:31:14.876Z</time></trkpt><trkpt lat="43.6082176" lon="11.7495292"><ele>732.0</ele><time>2026-04-25T13:31:15.866Z</time></trkpt><trkpt lat="43.6082742" lon="11.7493928"><ele>731.0</ele><time>2026-04-25T13:31:16.864Z</time></trkpt><trkpt lat="43.6083228" lon="11.7492562"><ele>730.0</ele><time>2026-04-25T13:31:17.872Z</time></trkpt><trkpt lat="43.6083625" lon="11.7491494"><ele>729.0</ele><time>2026-04-25T13:31:18.867Z</time></trkpt><trkpt lat="43.6084045" lon="11.7490837"><ele>728.0</ele><time>2026-04-25T13:31:19.866Z</time></trkpt><trkpt lat="43.6084841" lon="11.7489865"><ele>727.0</ele><time>2026-04-25T13:31:21.867Z</time></trkpt><trkpt lat="43.6085904" lon="11.7489777"><ele>727.0</ele><time>2026-04-25T13:31:23.865Z</time></trkpt><trkpt lat="43.6086543" lon="11.748998"><ele>727.0</ele><time>2026-04-25T13:31:24.869Z</time></trkpt><trkpt lat="43.6087182" lon="11.7490171"><ele>727.0</ele><time>2026-04-25T13:31:25.86Z</time></trkpt><trkpt lat="43.6087883" lon="11.7490523"><ele>727.0</ele><time>2026-04-25T13:31:26.881Z</time></trkpt><trkpt lat="43.608885" lon="11.7490936"><ele>727.0</ele><time>2026-04-25T13:31:27.869Z</time></trkpt><trkpt lat="43.6090068" lon="11.7491313"><ele>727.0</ele><time>2026-04-25T13:31:28.857Z</time></trkpt><trkpt lat="43.6091253" lon="11.7491692"><ele>731.8</ele><time>2026-04-25T13:31:29.871Z</time></trkpt><trkpt lat="43.6092422" lon="11.7492077"><ele>736.6</ele><time>2026-04-25T13:31:30.881Z</time></trkpt><trkpt lat="43.6093532" lon="11.7492357"><ele>741.4</ele><time>2026-04-25T13:31:31.875Z</time></trkpt><trkpt lat="43.6094599" lon="11.7492515"><ele>746.1999999999999</ele><time>2026-04-25T13:31:32.859Z</time></trkpt><trkpt lat="43.6095632" lon="11.7492279"><ele>751.0</ele><time>2026-04-25T13:31:33.868Z</time></trkpt><trkpt lat="43.6096577" lon="11.7492068"><ele>755.4</ele><time>2026-04-25T13:31:34.864Z</time></trkpt><trkpt lat="43.6097531" lon="11.7492006"><ele>759.8</ele><time>2026-04-25T13:31:35.868Z</time></trkpt><trkpt lat="43.6098517" lon="11.7492062"><ele>764.1999999999999</ele><time>2026-04-25T13:31:36.857Z</time></trkpt><trkpt lat="43.6099387" lon="11.7491798"><ele>768.5999999999999</ele><time>2026-04-25T13:31:37.863Z</time></trkpt><trkpt lat="43.610008" lon="11.7490577"><ele>773.0</ele><time>2026-04-25T13:31:39.875Z</time></trkpt><trkpt lat="43.6100129" lon="11.748958"><ele>773.0</ele><time>2026-04-25T13:31:40.865Z</time></trkpt><trkpt lat="43.6099749" lon="11.7488145"><ele>773.0</ele><time>2026-04-25T13:31:41.862Z</time></trkpt><trkpt lat="43.6099141" lon="11.7486575"><ele>773.0</ele><time>2026-04-25T13:31:42.858Z</time></trkpt><trkpt lat="43.6098573" lon="11.7485244"><ele>773.0</ele><time>2026-04-25T13:31:43.872Z</time></trkpt><trkpt lat="43.609812" lon="11.7484011"><ele>773.5</ele><time>2026-04-25T13:31:44.871Z</time></trkpt><trkpt lat="43.6097866" lon="11.748245"><ele>774.0</ele><time>2026-04-25T13:31:45.865Z</time></trkpt><trkpt lat="43.6097544" lon="11.7480799"><ele>774.5</ele><time>2026-04-25T13:31:46.867Z</time></trkpt><trkpt lat="43.6097222" lon="11.7479188"><ele>775.0</ele><time>2026-04-25T13:31:47.867Z</time></trkpt><trkpt lat="43.6096889" lon="11.7477464"><ele>778.5</ele><time>2026-04-25T13:31:48.859Z</time></trkpt><trkpt lat="43.6096715" lon="11.7475474"><ele>782.0</ele><time>2026-04-25T13:31:49.863Z</time></trkpt><trkpt lat="43.6096382" lon="11.7473741"><ele>785.5</ele><time>2026-04-25T13:31:50.863Z</time></trkpt><trkpt lat="43.6095935" lon="11.7472241"><ele>789.0</ele><time>2026-04-25T13:31:51.867Z</time></trkpt><trkpt lat="43.6095399" lon="11.7470688"><ele>785.5</ele><time>2026-04-25T13:31:52.87Z</time></trkpt><trkpt lat="43.6094805" lon="11.7469026"><ele>782.0</ele><time>2026-04-25T13:31:53.872Z</time></trkpt><trkpt lat="43.6094148" lon="11.7467199"><ele>778.5</ele><time>2026-04-25T13:31:54.866Z</time></trkpt><trkpt lat="43.6093517" lon="11.7465566"><ele>775.0</ele><time>2026-04-25T13:31:55.865Z</time></trkpt><trkpt lat="43.6092959" lon="11.7464121"><ele>775.0</ele><time>2026-04-25T13:31:56.862Z</time></trkpt><trkpt lat="43.6092532" lon="11.7463015"><ele>775.0</ele><time>2026-04-25T13:31:57.852Z</time></trkpt><trkpt lat="43.6092344" lon="11.7461885"><ele>775.0</ele><time>2026-04-25T13:31:58.859Z</time></trkpt><trkpt lat="43.6092426" lon="11.7460889"><ele>775.0</ele><time>2026-04-25T13:31:59.873Z</time></trkpt><trkpt lat="43.609294" lon="11.7459532"><ele>775.0</ele><time>2026-04-25T13:32:00.863Z</time></trkpt><trkpt lat="43.6093626" lon="11.7457892"><ele>776.0</ele><time>2026-04-25T13:32:01.862Z</time></trkpt><trkpt lat="43.6094164" lon="11.7456436"><ele>777.0</ele><time>2026-04-25T13:32:02.863Z</time></trkpt><trkpt lat="43.6094546" lon="11.7455307"><ele>778.0</ele><time>2026-04-25T13:32:03.858Z</time></trkpt><trkpt lat="43.6095144" lon="11.7454688"><ele>779.0</ele><time>2026-04-25T13:32:04.865Z</time></trkpt><trkpt lat="43.6095998" lon="11.7454148"><ele>780.0</ele><time>2026-04-25T13:32:05.866Z</time></trkpt><trkpt lat="43.6096986" lon="11.7453687"><ele>785.75</ele><time>2026-04-25T13:32:06.867Z</time></trkpt><trkpt lat="43.6098142" lon="11.7453038"><ele>791.5</ele><time>2026-04-25T13:32:07.873Z</time></trkpt><trkpt lat="43.6099416" lon="11.7452202"><ele>797.25</ele><time>2026-04-25T13:32:08.86Z</time></trkpt><trkpt lat="43.6100618" lon="11.7451163"><ele>803.0</ele><time>2026-04-25T13:32:09.857Z</time></trkpt><trkpt lat="43.610172" lon="11.7450366"><ele>803.0000000000001</ele><time>2026-04-25T13:32:10.865Z</time></trkpt><trkpt lat="43.6102523" lon="11.7449747"><ele>803.0</ele><time>2026-04-25T13:32:11.85Z</time></trkpt><trkpt lat="43.6102988" lon="11.7448987"><ele>803.0</ele><time>2026-04-25T13:32:12.859Z</time></trkpt><trkpt lat="43.6103202" lon="11.7448099"><ele>803.0</ele><time>2026-04-25T13:32:13.857Z</time></trkpt><trkpt lat="43.6103043" lon="11.7446413"><ele>803.0000000000001</ele><time>2026-04-25T13:32:15.855Z</time></trkpt><trkpt lat="43.6102525" lon="11.7445413"><ele>803.0</ele><time>2026-04-25T13:32:16.856Z</time></trkpt><trkpt lat="43.6101969" lon="11.7444354"><ele>804.5999999999999</ele><time>2026-04-25T13:32:17.859Z</time></trkpt><trkpt lat="43.6101605" lon="11.7443413"><ele>806.1999999999999</ele><time>2026-04-25T13:32:18.873Z</time></trkpt><trkpt lat="43.6101347" lon="11.744244"><ele>807.8</ele><time>2026-04-25T13:32:19.859Z</time></trkpt><trkpt lat="43.6101359" lon="11.7441036"><ele>809.4</ele><time>2026-04-25T13:32:20.863Z</time></trkpt><trkpt lat="43.610147" lon="11.7439324"><ele>811.0</ele><time>2026-04-25T13:32:21.865Z</time></trkpt><trkpt lat="43.6101349" lon="11.7437575"><ele>811.0</ele><time>2026-04-25T13:32:22.869Z</time></trkpt><trkpt lat="43.6101186" lon="11.7435775"><ele>811.0</ele><time>2026-04-25T13:32:23.855Z</time></trkpt><trkpt lat="43.6100877" lon="11.7434253"><ele>811.0</ele><time>2026-04-25T13:32:24.876Z</time></trkpt><trkpt lat="43.6100499" lon="11.7432985"><ele>811.0</ele><time>2026-04-25T13:32:25.866Z</time></trkpt><trkpt lat="43.6100099" lon="11.7431497"><ele>814.0</ele><time>2026-04-25T13:32:26.857Z</time></trkpt><trkpt lat="43.6099611" lon="11.7429793"><ele>817.0</ele><time>2026-04-25T13:32:27.857Z</time></trkpt><trkpt lat="43.609937" lon="11.7428372"><ele>820.0</ele><time>2026-04-25T13:32:28.858Z</time></trkpt><trkpt lat="43.6099376" lon="11.7427187"><ele>823.0</ele><time>2026-04-25T13:32:29.861Z</time></trkpt><trkpt lat="43.6099661" lon="11.742619"><ele>826.0</ele><time>2026-04-25T13:32:30.856Z</time></trkpt><trkpt lat="43.6100056" lon="11.7425282"><ele>826.0</ele><time>2026-04-25T13:32:31.856Z</time></trkpt><trkpt lat="43.6100817" lon="11.7424324"><ele>826.0</ele><time>2026-04-25T13:32:32.861Z</time></trkpt><trkpt lat="43.6101669" lon="11.7423356"><ele>826.0</ele><time>2026-04-25T13:32:33.862Z</time></trkpt><trkpt lat="43.6102547" lon="11.7422286"><ele>826.0</ele><time>2026-04-25T13:32:34.881Z</time></trkpt><trkpt lat="43.6103539" lon="11.7421193"><ele>829.75</ele><time>2026-04-25T13:32:35.865Z</time></trkpt><trkpt lat="43.6104594" lon="11.7420018"><ele>833.5</ele><time>2026-04-25T13:32:36.87Z</time></trkpt><trkpt lat="43.6105728" lon="11.7418756"><ele>837.25</ele><time>2026-04-25T13:32:37.874Z</time></trkpt><trkpt lat="43.6106832" lon="11.7417729"><ele>841.0</ele><time>2026-04-25T13:32:38.855Z</time></trkpt><trkpt lat="43.610777" lon="11.7416923"><ele>841.0</ele><time>2026-04-25T13:32:39.869Z</time></trkpt><trkpt lat="43.610875" lon="11.741635"><ele>841.0</ele><time>2026-04-25T13:32:40.859Z</time></trkpt><trkpt lat="43.6109822" lon="11.7415971"><ele>841.0</ele><time>2026-04-25T13:32:41.872Z</time></trkpt><trkpt lat="43.6110876" lon="11.7415624"><ele>841.0</ele><time>2026-04-25T13:32:42.862Z</time></trkpt><trkpt lat="43.6111739" lon="11.741549"><ele>841.0</ele><time>2026-04-25T13:32:43.867Z</time></trkpt><trkpt lat="43.6112593" lon="11.7415694"><ele>846.1999999999999</ele><time>2026-04-25T13:32:44.865Z</time></trkpt><trkpt lat="43.6113688" lon="11.7415987"><ele>851.4</ele><time>2026-04-25T13:32:45.862Z</time></trkpt><trkpt lat="43.6114714" lon="11.7416062"><ele>856.6</ele><time>2026-04-25T13:32:46.859Z</time></trkpt><trkpt lat="43.6115609" lon="11.7415669"><ele>861.8</ele><time>2026-04-25T13:32:47.866Z</time></trkpt><trkpt lat="43.6116565" lon="11.741489"><ele>867.0</ele><time>2026-04-25T13:32:48.864Z</time></trkpt><trkpt lat="43.611742" lon="11.7414025"><ele>867.0</ele><time>2026-04-25T13:32:49.865Z</time></trkpt><trkpt lat="43.611801" lon="11.7413239"><ele>867.0</ele><time>2026-04-25T13:32:50.863Z</time></trkpt><trkpt lat="43.6118201" lon="11.7412171"><ele>867.0</ele><time>2026-04-25T13:32:51.87Z</time></trkpt><trkpt lat="43.6118104" lon="11.7410744"><ele>867.0</ele><time>2026-04-25T13:32:52.865Z</time></trkpt><trkpt lat="43.6117926" lon="11.7409312"><ele>867.0</ele><time>2026-04-25T13:32:53.858Z</time></trkpt><trkpt lat="43.6117991" lon="11.7408307"><ele>867.0</ele><time>2026-04-25T13:32:54.866Z</time></trkpt><trkpt lat="43.6118311" lon="11.7407538"><ele>866.1666666666666</ele><time>2026-04-25T13:32:55.864Z</time></trkpt><trkpt lat="43.6118832" lon="11.7407041"><ele>865.3333333333333</ele><time>2026-04-25T13:32:56.874Z</time></trkpt><trkpt lat="43.6119604" lon="11.7406744"><ele>864.5</ele><time>2026-04-25T13:32:57.863Z</time></trkpt><trkpt lat="43.6120373" lon="11.7406427"><ele>863.6666666666666</ele><time>2026-04-25T13:32:58.872Z</time></trkpt><trkpt lat="43.6121174" lon="11.7406186"><ele>862.8333333333333</ele><time>2026-04-25T13:32:59.87Z</time></trkpt><trkpt lat="43.6122132" lon="11.7406256"><ele>862.0</ele><time>2026-04-25T13:33:00.883Z</time></trkpt><trkpt lat="43.6123227" lon="11.7406353"><ele>865.2</ele><time>2026-04-25T13:33:01.864Z</time></trkpt><trkpt lat="43.6124369" lon="11.7406501"><ele>868.4000000000001</ele><time>2026-04-25T13:33:02.871Z</time></trkpt><trkpt lat="43.6125463" lon="11.7406662"><ele>871.5999999999999</ele><time>2026-04-25T13:33:03.873Z</time></trkpt><trkpt lat="43.6126431" lon="11.740669"><ele>874.8</ele><time>2026-04-25T13:33:04.87Z</time></trkpt><trkpt lat="43.6127182" lon="11.7406203"><ele>878.0</ele><time>2026-04-25T13:33:05.867Z</time></trkpt><trkpt lat="43.6127947" lon="11.7405495"><ele>879.5999999999999</ele><time>2026-04-25T13:33:06.866Z</time></trkpt><trkpt lat="43.6128754" lon="11.7405294"><ele>881.1999999999999</ele><time>2026-04-25T13:33:07.87Z</time></trkpt><trkpt lat="43.6129646" lon="11.7405574"><ele>882.8</ele><time>2026-04-25T13:33:08.858Z</time></trkpt><trkpt lat="43.6130775" lon="11.7406231"><ele>884.4</ele><time>2026-04-25T13:33:09.86Z</time></trkpt><trkpt lat="43.6132103" lon="11.7407242"><ele>886.0</ele><time>2026-04-25T13:33:10.86Z</time></trkpt><trkpt lat="43.613341" lon="11.7408217"><ele>886.0</ele><time>2026-04-25T13:33:11.864Z</time></trkpt><trkpt lat="43.6134498" lon="11.7409157"><ele>885.9999999999999</ele><time>2026-04-25T13:33:12.872Z</time></trkpt><trkpt lat="43.6135399" lon="11.7409788"><ele>885.9999999999999</ele><time>2026-04-25T13:33:13.867Z</time></trkpt><trkpt lat="43.6136245" lon="11.7409932"><ele>886.0</ele><time>2026-04-25T13:33:14.859Z</time></trkpt><trkpt lat="43.6136941" lon="11.7409922"><ele>886.0</ele><time>2026-04-25T13:33:15.871Z</time></trkpt><trkpt lat="43.6137794" lon="11.7409332"><ele>891.25</ele><time>2026-04-25T13:33:16.865Z</time></trkpt><trkpt lat="43.613873" lon="11.7408252"><ele>896.5</ele><time>2026-04-25T13:33:17.859Z</time></trkpt><trkpt lat="43.6139624" lon="11.7406968"><ele>901.75</ele><time>2026-04-25T13:33:18.868Z</time></trkpt><trkpt lat="43.6140412" lon="11.7405871"><ele>907.0</ele><time>2026-04-25T13:33:19.863Z</time></trkpt><trkpt lat="43.6140753" lon="11.7404688"><ele>907.0</ele><time>2026-04-25T13:33:20.868Z</time></trkpt><trkpt lat="43.614089" lon="11.7403253"><ele>907.0</ele><time>2026-04-25T13:33:21.866Z</time></trkpt><trkpt lat="43.6140959" lon="11.7401606"><ele>907.0</ele><time>2026-04-25T13:33:22.86Z</time></trkpt><trkpt lat="43.6141068" lon="11.7399763"><ele>907.0</ele><time>2026-04-25T13:33:23.862Z</time></trkpt><trkpt lat="43.6141398" lon="11.7397957"><ele>906.25</ele><time>2026-04-25T13:33:24.871Z</time></trkpt><trkpt lat="43.6141964" lon="11.7396168"><ele>905.5</ele><time>2026-04-25T13:33:25.862Z</time></trkpt><trkpt lat="43.6142487" lon="11.7394542"><ele>904.75</ele><time>2026-04-25T13:33:26.87Z</time></trkpt><trkpt lat="43.6143138" lon="11.7393174"><ele>904.0</ele><time>2026-04-25T13:33:27.857Z</time></trkpt><trkpt lat="43.6144101" lon="11.739182"><ele>903.75</ele><time>2026-04-25T13:33:28.875Z</time></trkpt><trkpt lat="43.6144854" lon="11.7390463"><ele>903.5</ele><time>2026-04-25T13:33:29.869Z</time></trkpt><trkpt lat="43.6145676" lon="11.7389321"><ele>903.25</ele><time>2026-04-25T13:33:30.869Z</time></trkpt><trkpt lat="43.6146615" lon="11.738826"><ele>903.0</ele><time>2026-04-25T13:33:31.864Z</time></trkpt><trkpt lat="43.6147721" lon="11.7387136"><ele>906.2</ele><time>2026-04-25T13:33:32.87Z</time></trkpt><trkpt lat="43.6148856" lon="11.7386338"><ele>909.4</ele><time>2026-04-25T13:33:33.865Z</time></trkpt><trkpt lat="43.6149575" lon="11.738559"><ele>912.6000000000001</ele><time>2026-04-25T13:33:34.869Z</time></trkpt><trkpt lat="43.6150323" lon="11.7384984"><ele>915.8000000000001</ele><time>2026-04-25T13:33:35.858Z</time></trkpt><trkpt lat="43.6150977" lon="11.7384094"><ele>919.0</ele><time>2026-04-25T13:33:36.868Z</time></trkpt><trkpt lat="43.6151463" lon="11.7383056"><ele>919.0</ele><time>2026-04-25T13:33:37.868Z</time></trkpt><trkpt lat="43.615157" lon="11.7381982"><ele>919.0000000000001</ele><time>2026-04-25T13:33:38.862Z</time></trkpt><trkpt lat="43.6151236" lon="11.7381211"><ele>919.0000000000001</ele><time>2026-04-25T13:33:39.862Z</time></trkpt><trkpt lat="43.6150626" lon="11.738074"><ele>919.0</ele><time>2026-04-25T13:33:40.861Z</time></trkpt><trkpt lat="43.6149657" lon="11.7380156"><ele>919.0</ele><time>2026-04-25T13:33:41.858Z</time></trkpt><trkpt lat="43.6148252" lon="11.7379626"><ele>919.0</ele><time>2026-04-25T13:33:42.87Z</time></trkpt><trkpt lat="43.6146868" lon="11.7379101"><ele>919.0</ele><time>2026-04-25T13:33:43.858Z</time></trkpt><trkpt lat="43.614563" lon="11.7378268"><ele>919.0</ele><time>2026-04-25T13:33:44.859Z</time></trkpt><trkpt lat="43.6144468" lon="11.7377186"><ele>919.0</ele><time>2026-04-25T13:33:45.868Z</time></trkpt><trkpt lat="43.6143217" lon="11.7375571"><ele>918.75</ele><time>2026-04-25T13:33:46.862Z</time></trkpt><trkpt lat="43.6142082" lon="11.7373669"><ele>918.5</ele><time>2026-04-25T13:33:47.862Z</time></trkpt><trkpt lat="43.614135" lon="11.7372286"><ele>918.25</ele><time>2026-04-25T13:33:48.867Z</time></trkpt><trkpt lat="43.6141013" lon="11.737152"><ele>918.0</ele><time>2026-04-25T13:33:49.872Z</time></trkpt><trkpt lat="43.6140842" lon="11.7370176"><ele>920.4</ele><time>2026-04-25T13:33:51.866Z</time></trkpt><trkpt lat="43.6141049" lon="11.7368823"><ele>922.8</ele><time>2026-04-25T13:33:53.87Z</time></trkpt><trkpt lat="43.6141142" lon="11.7367435"><ele>925.2</ele><time>2026-04-25T13:33:55.861Z</time></trkpt><trkpt lat="43.6141161" lon="11.7365883"><ele>927.6</ele><time>2026-04-25T13:33:57.857Z</time></trkpt><trkpt lat="43.6141113" lon="11.7364898"><ele>930.0</ele><time>2026-04-25T13:33:58.86Z</time></trkpt><trkpt lat="43.6140963" lon="11.7363681"><ele>930.0</ele><time>2026-04-25T13:33:59.873Z</time></trkpt><trkpt lat="43.6140736" lon="11.7362409"><ele>930.0</ele><time>2026-04-25T13:34:00.864Z</time></trkpt><trkpt lat="43.6140451" lon="11.7361215"><ele>930.0</ele><time>2026-04-25T13:34:01.865Z</time></trkpt><trkpt lat="43.6140218" lon="11.7360209"><ele>930.0</ele><time>2026-04-25T13:34:02.864Z</time></trkpt><trkpt lat="43.61402" lon="11.7358944"><ele>930.0</ele><time>2026-04-25T13:34:04.875Z</time></trkpt><trkpt lat="43.6140899" lon="11.735887"><ele>930.0</ele><time>2026-04-25T13:34:06.867Z</time></trkpt><trkpt lat="43.6141738" lon="11.7359833"><ele>930.0</ele><time>2026-04-25T13:34:08.871Z</time></trkpt><trkpt lat="43.6142702" lon="11.7361067"><ele>930.0</ele><time>2026-04-25T13:34:10.861Z</time></trkpt><trkpt lat="43.6143278" lon="11.7361796"><ele>930.0</ele><time>2026-04-25T13:34:11.861Z</time></trkpt><trkpt lat="43.6143965" lon="11.736263"><ele>930.0</ele><time>2026-04-25T13:34:12.863Z</time></trkpt><trkpt lat="43.6144806" lon="11.7363412"><ele>930.0</ele><time>2026-04-25T13:34:13.865Z</time></trkpt><trkpt lat="43.6145599" lon="11.7364116"><ele>930.5</ele><time>2026-04-25T13:34:14.865Z</time></trkpt><trkpt lat="43.6146245" lon="11.7364885"><ele>931.0</ele><time>2026-04-25T13:34:15.866Z</time></trkpt><trkpt lat="43.6146743" lon="11.7365954"><ele>931.5</ele><time>2026-04-25T13:34:16.86Z</time></trkpt><trkpt lat="43.6147015" lon="11.7367132"><ele>932.0</ele><time>2026-04-25T13:34:17.862Z</time></trkpt><trkpt lat="43.6147383" lon="11.7368278"><ele>932.5</ele><time>2026-04-25T13:34:18.865Z</time></trkpt><trkpt lat="43.6148004" lon="11.7369163"><ele>933.0</ele><time>2026-04-25T13:34:19.869Z</time></trkpt><trkpt lat="43.6149001" lon="11.7369829"><ele>933.0</ele><time>2026-04-25T13:34:20.869Z</time></trkpt><trkpt lat="43.6150052" lon="11.7370264"><ele>933.0</ele><time>2026-04-25T13:34:21.874Z</time></trkpt><trkpt lat="43.6151253" lon="11.7370468"><ele>933.0</ele><time>2026-04-25T13:34:22.866Z</time></trkpt><trkpt lat="43.6152607" lon="11.7370588"><ele>933.0</ele><time>2026-04-25T13:34:23.861Z</time></trkpt><trkpt lat="43.6154038" lon="11.7370791"><ele>938.25</ele><time>2026-04-25T13:34:24.87Z</time></trkpt><trkpt lat="43.6155229" lon="11.7371074"><ele>943.5</ele><time>2026-04-25T13:34:25.863Z</time></trkpt><trkpt lat="43.615644" lon="11.7371217"><ele>948.75</ele><time>2026-04-25T13:34:26.867Z</time></trkpt><trkpt lat="43.615767" lon="11.7371067"><ele>954.0</ele><time>2026-04-25T13:34:27.863Z</time></trkpt><trkpt lat="43.6158675" lon="11.7370966"><ele>954.0</ele><time>2026-04-25T13:34:28.869Z</time></trkpt><trkpt lat="43.6159343" lon="11.7370737"><ele>954.0</ele><time>2026-04-25T13:34:29.861Z</time></trkpt><trkpt lat="43.6159907" lon="11.7370184"><ele>954.0</ele><time>2026-04-25T13:34:31.862Z</time></trkpt><trkpt lat="43.6158889" lon="11.7369654"><ele>954.0</ele><time>2026-04-25T13:34:33.863Z</time></trkpt><trkpt lat="43.615811" lon="11.7369448"><ele>954.0</ele><time>2026-04-25T13:34:34.862Z</time></trkpt><trkpt lat="43.6157279" lon="11.7369416"><ele>954.0</ele><time>2026-04-25T13:34:35.875Z</time></trkpt><trkpt lat="43.6156487" lon="11.7369138"><ele>954.5</ele><time>2026-04-25T13:34:36.864Z</time></trkpt><trkpt lat="43.6155715" lon="11.7368647"><ele>955.0</ele><time>2026-04-25T13:34:37.861Z</time></trkpt><trkpt lat="43.6154702" lon="11.7367312"><ele>955.5</ele><time>2026-04-25T13:34:38.871Z</time></trkpt><trkpt lat="43.6153365" lon="11.7365291"><ele>956.0</ele><time>2026-04-25T13:34:39.863Z</time></trkpt><trkpt lat="43.6152241" lon="11.736355"><ele>956.0</ele><time>2026-04-25T13:34:40.861Z</time></trkpt><trkpt lat="43.6151494" lon="11.7361874"><ele>956.0</ele><time>2026-04-25T13:34:41.866Z</time></trkpt><trkpt lat="43.615084" lon="11.7360263"><ele>956.0</ele><time>2026-04-25T13:34:42.868Z</time></trkpt><trkpt lat="43.6150306" lon="11.7358807"><ele>956.0</ele><time>2026-04-25T13:34:43.858Z</time></trkpt><trkpt lat="43.6150078" lon="11.7357264"><ele>960.0</ele><time>2026-04-25T13:34:44.878Z</time></trkpt><trkpt lat="43.6149923" lon="11.7355568"><ele>964.0</ele><time>2026-04-25T13:34:45.865Z</time></trkpt><trkpt lat="43.6149805" lon="11.7353912"><ele>968.0</ele><time>2026-04-25T13:34:46.861Z</time></trkpt><trkpt lat="43.6149811" lon="11.735238"><ele>972.0</ele><time>2026-04-25T13:34:47.862Z</time></trkpt><trkpt lat="43.6150003" lon="11.7350998"><ele>972.5</ele><time>2026-04-25T13:34:48.87Z</time></trkpt><trkpt lat="43.6150218" lon="11.7349327"><ele>973.0</ele><time>2026-04-25T13:34:49.865Z</time></trkpt><trkpt lat="43.6150584" lon="11.7347464"><ele>973.5</ele><time>2026-04-25T13:34:50.866Z</time></trkpt><trkpt lat="43.6151202" lon="11.7345765"><ele>974.0</ele><time>2026-04-25T13:34:51.859Z</time></trkpt><trkpt lat="43.6151818" lon="11.7344254"><ele>977.0</ele><time>2026-04-25T13:34:52.866Z</time></trkpt><trkpt lat="43.6152438" lon="11.7343178"><ele>980.0000000000001</ele><time>2026-04-25T13:34:53.872Z</time></trkpt><trkpt lat="43.615271" lon="11.7342292"><ele>983.0000000000001</ele><time>2026-04-25T13:34:54.867Z</time></trkpt><trkpt lat="43.6152204" lon="11.7341154"><ele>986.0</ele><time>2026-04-25T13:34:56.869Z</time></trkpt><trkpt lat="43.6151317" lon="11.7340628"><ele>989.0</ele><time>2026-04-25T13:34:57.864Z</time></trkpt><trkpt lat="43.6150369" lon="11.733986"><ele>989.0</ele><time>2026-04-25T13:34:58.861Z</time></trkpt><trkpt lat="43.614973" lon="11.7339121"><ele>989.0000000000001</ele><time>2026-04-25T13:34:59.859Z</time></trkpt><trkpt lat="43.6149392" lon="11.7338284"><ele>989.0000000000001</ele><time>2026-04-25T13:35:00.868Z</time></trkpt><trkpt lat="43.6149121" lon="11.7337164"><ele>989.0</ele><time>2026-04-25T13:35:01.861Z</time></trkpt><trkpt lat="43.6149015" lon="11.7335686"><ele>989.0</ele><time>2026-04-25T13:35:02.866Z</time></trkpt><trkpt lat="43.6148864" lon="11.7334215"><ele>992.4000000000001</ele><time>2026-04-25T13:35:03.871Z</time></trkpt><trkpt lat="43.6148659" lon="11.7332952"><ele>995.8000000000001</ele><time>2026-04-25T13:35:04.873Z</time></trkpt><trkpt lat="43.6148153" lon="11.7332068"><ele>999.1999999999999</ele><time>2026-04-25T13:35:05.87Z</time></trkpt><trkpt lat="43.6147395" lon="11.7331352"><ele>1002.5999999999999</ele><time>2026-04-25T13:35:06.864Z</time></trkpt><trkpt lat="43.6146312" lon="11.7330586"><ele>1006.0</ele><time>2026-04-25T13:35:07.862Z</time></trkpt><trkpt lat="43.6145327" lon="11.7329719"><ele>1002.1999999999999</ele><time>2026-04-25T13:35:08.862Z</time></trkpt><trkpt lat="43.6144642" lon="11.7328778"><ele>998.3999999999999</ele><time>2026-04-25T13:35:09.861Z</time></trkpt><trkpt lat="43.6144069" lon="11.7327687"><ele>994.6</ele><time>2026-04-25T13:35:10.861Z</time></trkpt><trkpt lat="43.6143733" lon="11.7326138"><ele>990.8</ele><time>2026-04-25T13:35:11.864Z</time></trkpt><trkpt lat="43.6143759" lon="11.7324329"><ele>987.0</ele><time>2026-04-25T13:35:12.868Z</time></trkpt><trkpt lat="43.6143983" lon="11.7322966"><ele>987.0</ele><time>2026-04-25T13:35:13.868Z</time></trkpt><trkpt lat="43.6144487" lon="11.7322106"><ele>987.0</ele><time>2026-04-25T13:35:15.874Z</time></trkpt><trkpt lat="43.6145165" lon="11.7322383"><ele>987.0</ele><time>2026-04-25T13:35:17.864Z</time></trkpt><trkpt lat="43.6146175" lon="11.7323569"><ele>987.0</ele><time>2026-04-25T13:35:19.867Z</time></trkpt><trkpt lat="43.6146634" lon="11.7324378"><ele>987.0</ele><time>2026-04-25T13:35:20.869Z</time></trkpt><trkpt lat="43.6147251" lon="11.7324939"><ele>987.0</ele><time>2026-04-25T13:35:21.872Z</time></trkpt><trkpt lat="43.614798" lon="11.7325433"><ele>993.2</ele><time>2026-04-25T13:35:22.863Z</time></trkpt><trkpt lat="43.6148775" lon="11.7325691"><ele>999.4000000000001</ele><time>2026-04-25T13:35:23.867Z</time></trkpt><trkpt lat="43.6149788" lon="11.7325621"><ele>1005.5999999999999</ele><time>2026-04-25T13:35:24.863Z</time></trkpt><trkpt lat="43.615092" lon="11.7325381"><ele>1011.8</ele><time>2026-04-25T13:35:25.862Z</time></trkpt><trkpt lat="43.6152161" lon="11.7325224"><ele>1018.0</ele><time>2026-04-25T13:35:26.867Z</time></trkpt><trkpt lat="43.6153341" lon="11.732526"><ele>1020.0</ele><time>2026-04-25T13:35:27.858Z</time></trkpt><trkpt lat="43.6154419" lon="11.7325705"><ele>1022.0</ele><time>2026-04-25T13:35:28.856Z</time></trkpt><trkpt lat="43.6155486" lon="11.7326388"><ele>1024.0</ele><time>2026-04-25T13:35:29.86Z</time></trkpt><trkpt lat="43.6156551" lon="11.7326886"><ele>1026.0</ele><time>2026-04-25T13:35:30.856Z</time></trkpt><trkpt lat="43.615759" lon="11.7327211"><ele>1028.0</ele><time>2026-04-25T13:35:31.861Z</time></trkpt><trkpt lat="43.6158657" lon="11.732721"><ele>1028.0</ele><time>2026-04-25T13:35:32.872Z</time></trkpt><trkpt lat="43.6159836" lon="11.7326751"><ele>1028.0</ele><time>2026-04-25T13:35:33.872Z</time></trkpt><trkpt lat="43.616111" lon="11.7325816"><ele>1028.0</ele><time>2026-04-25T13:35:34.877Z</time></trkpt><trkpt lat="43.6162509" lon="11.73247"><ele>1028.0</ele><time>2026-04-25T13:35:35.866Z</time></trkpt><trkpt lat="43.6163913" lon="11.7323605"><ele>1029.8</ele><time>2026-04-25T13:35:36.863Z</time></trkpt><trkpt lat="43.6164836" lon="11.7322873"><ele>1031.6</ele><time>2026-04-25T13:35:37.865Z</time></trkpt><trkpt lat="43.6165759" lon="11.7322627"><ele>1033.4</ele><time>2026-04-25T13:35:39.86Z</time></trkpt><trkpt lat="43.6166196" lon="11.7323556"><ele>1035.2</ele><time>2026-04-25T13:35:41.856Z</time></trkpt><trkpt lat="43.6165987" lon="11.7325714"><ele>1037.0</ele><time>2026-04-25T13:35:43.871Z</time></trkpt><trkpt lat="43.6165955" lon="11.7327033"><ele>1035.6</ele><time>2026-04-25T13:35:44.855Z</time></trkpt><trkpt lat="43.6166019" lon="11.7328286"><ele>1034.2</ele><time>2026-04-25T13:35:45.855Z</time></trkpt><trkpt lat="43.6166208" lon="11.7329387"><ele>1032.8</ele><time>2026-04-25T13:35:46.859Z</time></trkpt><trkpt lat="43.6166789" lon="11.7330055"><ele>1031.4</ele><time>2026-04-25T13:35:47.874Z</time></trkpt><trkpt lat="43.6167617" lon="11.7330393"><ele>1030.0</ele><time>2026-04-25T13:35:48.873Z</time></trkpt><trkpt lat="43.6168793" lon="11.7330613"><ele>1033.75</ele><time>2026-04-25T13:35:49.866Z</time></trkpt><trkpt lat="43.6169969" lon="11.7330517"><ele>1037.5</ele><time>2026-04-25T13:35:50.853Z</time></trkpt><trkpt lat="43.617123" lon="11.7330156"><ele>1041.25</ele><time>2026-04-25T13:35:51.854Z</time></trkpt><trkpt lat="43.6172798" lon="11.7329643"><ele>1045.0</ele><time>2026-04-25T13:35:52.874Z</time></trkpt><trkpt lat="43.6174381" lon="11.7329204"><ele>1045.0</ele><time>2026-04-25T13:35:53.881Z</time></trkpt><trkpt lat="43.6175673" lon="11.7328713"><ele>1045.0</ele><time>2026-04-25T13:35:54.866Z</time></trkpt><trkpt lat="43.6176749" lon="11.7328275"><ele>1045.0</ele><time>2026-04-25T13:35:55.864Z</time></trkpt><trkpt lat="43.6177584" lon="11.7328301"><ele>1045.0</ele><time>2026-04-25T13:35:56.868Z</time></trkpt><trkpt lat="43.6178348" lon="11.7328902"><ele>1045.0</ele><time>2026-04-25T13:35:57.859Z</time></trkpt><trkpt lat="43.6178902" lon="11.7329893"><ele>1047.4</ele><time>2026-04-25T13:35:58.859Z</time></trkpt><trkpt lat="43.6179329" lon="11.7331172"><ele>1049.8</ele><time>2026-04-25T13:35:59.866Z</time></trkpt><trkpt lat="43.6179974" lon="11.7332319"><ele>1052.2</ele><time>2026-04-25T13:36:00.869Z</time></trkpt><trkpt lat="43.6180805" lon="11.7333321"><ele>1054.6</ele><time>2026-04-25T13:36:01.858Z</time></trkpt><trkpt lat="43.6181809" lon="11.7334148"><ele>1057.0</ele><time>2026-04-25T13:36:02.863Z</time></trkpt><trkpt lat="43.6182535" lon="11.733492"><ele>1057.0</ele><time>2026-04-25T13:36:03.857Z</time></trkpt><trkpt lat="43.6183399" lon="11.7335724"><ele>1057.0</ele><time>2026-04-25T13:36:05.864Z</time></trkpt><trkpt lat="43.6184218" lon="11.7335307"><ele>1057.0</ele><time>2026-04-25T13:36:06.868Z</time></trkpt><trkpt lat="43.6185231" lon="11.7334482"><ele>1057.0</ele><time>2026-04-25T13:36:07.866Z</time></trkpt><trkpt lat="43.6186162" lon="11.7333922"><ele>1057.0</ele><time>2026-04-25T13:36:08.87Z</time></trkpt><trkpt lat="43.6187042" lon="11.7333521"><ele>1059.25</ele><time>2026-04-25T13:36:09.867Z</time></trkpt><trkpt lat="43.6188184" lon="11.7333546"><ele>1061.5</ele><time>2026-04-25T13:36:10.863Z</time></trkpt><trkpt lat="43.6189572" lon="11.7333835"><ele>1063.75</ele><time>2026-04-25T13:36:11.865Z</time></trkpt><trkpt lat="43.6190838" lon="11.7334239"><ele>1066.0</ele><time>2026-04-25T13:36:12.87Z</time></trkpt><trkpt lat="43.6191704" lon="11.7334469"><ele>1066.0</ele><time>2026-04-25T13:36:13.853Z</time></trkpt><trkpt lat="43.6192535" lon="11.7334051"><ele>1066.0</ele><time>2026-04-25T13:36:15.864Z</time></trkpt><trkpt lat="43.6191486" lon="11.7332483"><ele>1066.0</ele><time>2026-04-25T13:36:17.871Z</time></trkpt><trkpt lat="43.6190598" lon="11.7331319"><ele>1066.0</ele><time>2026-04-25T13:36:18.867Z</time></trkpt><trkpt lat="43.6189879" lon="11.7330321"><ele>1066.0</ele><time>2026-04-25T13:36:19.865Z</time></trkpt><trkpt lat="43.6189309" lon="11.7329485"><ele>1066.0</ele><time>2026-04-25T13:36:20.867Z</time></trkpt><trkpt lat="43.6188752" lon="11.732809"><ele>1066.0</ele><time>2026-04-25T13:36:22.87Z</time></trkpt><trkpt lat="43.6188821" lon="11.7327093"><ele>1066.0</ele><time>2026-04-25T13:36:23.862Z</time></trkpt><trkpt lat="43.6188845" lon="11.7326089"><ele>1066.0</ele><time>2026-04-25T13:36:24.864Z</time></trkpt><trkpt lat="43.618887" lon="11.7325216"><ele>1066.0</ele><time>2026-04-25T13:36:25.868Z</time></trkpt><trkpt lat="43.61889" lon="11.7324214"><ele>1066.5</ele><time>2026-04-25T13:36:27.86Z</time></trkpt><trkpt lat="43.6188051" lon="11.7323963"><ele>1067.0</ele><time>2026-04-25T13:37:24.877Z</time></trkpt><trkpt lat="43.6187299" lon="11.7323929"><ele>1067.5</ele><time>2026-04-25T13:37:25.882Z</time></trkpt><trkpt lat="43.6186543" lon="11.7323992"><ele>1068.0</ele><time>2026-04-25T13:37:26.87Z</time></trkpt><trkpt lat="43.6185789" lon="11.7323894"><ele>1068.5</ele><time>2026-04-25T13:37:27.873Z</time></trkpt><trkpt lat="43.6184816" lon="11.7323097"><ele>1069.0</ele><time>2026-04-25T13:37:29.872Z</time></trkpt><trkpt lat="43.6184345" lon="11.7322103"><ele>1069.0</ele><time>2026-04-25T13:37:30.875Z</time></trkpt><trkpt lat="43.6183866" lon="11.732072"><ele>1069.0</ele><time>2026-04-25T13:37:31.871Z</time></trkpt><trkpt lat="43.618337" lon="11.7319089"><ele>1069.0</ele><time>2026-04-25T13:37:32.872Z</time></trkpt><trkpt lat="43.618301" lon="11.7317325"><ele>1069.0</ele><time>2026-04-25T13:37:33.867Z</time></trkpt><trkpt lat="43.6182729" lon="11.7315331"><ele>1070.6666666666665</ele><time>2026-04-25T13:37:34.87Z</time></trkpt><trkpt lat="43.6182579" lon="11.7313029"><ele>1072.3333333333333</ele><time>2026-04-25T13:37:35.88Z</time></trkpt><trkpt lat="43.618234" lon="11.7310789"><ele>1074.0</ele><time>2026-04-25T13:37:36.866Z</time></trkpt><trkpt lat="43.618206" lon="11.7309098"><ele>1075.2</ele><time>2026-04-25T13:37:37.872Z</time></trkpt><trkpt lat="43.6181786" lon="11.7307611"><ele>1076.4</ele><time>2026-04-25T13:37:38.873Z</time></trkpt><trkpt lat="43.6181398" lon="11.7306468"><ele>1077.6</ele><time>2026-04-25T13:37:39.88Z</time></trkpt><trkpt lat="43.6180813" lon="11.7305794"><ele>1078.8</ele><time>2026-04-25T13:37:40.864Z</time></trkpt><trkpt lat="43.6179947" lon="11.7305296"><ele>1080.0</ele><time>2026-04-25T13:37:41.867Z</time></trkpt><trkpt lat="43.6179002" lon="11.7304716"><ele>1079.8</ele><time>2026-04-25T13:37:42.86Z</time></trkpt><trkpt lat="43.6178089" lon="11.7303816"><ele>1079.6</ele><time>2026-04-25T13:37:43.868Z</time></trkpt><trkpt lat="43.6177384" lon="11.7302617"><ele>1079.4</ele><time>2026-04-25T13:37:44.862Z</time></trkpt><trkpt lat="43.6176855" lon="11.7301321"><ele>1079.2</ele><time>2026-04-25T13:37:45.871Z</time></trkpt><trkpt lat="43.6176673" lon="11.7300082"><ele>1079.0</ele><time>2026-04-25T13:37:46.858Z</time></trkpt><trkpt lat="43.6176535" lon="11.7298822"><ele>1079.0</ele><time>2026-04-25T13:37:47.864Z</time></trkpt><trkpt lat="43.6176628" lon="11.7297291"><ele>1079.0</ele><time>2026-04-25T13:37:48.861Z</time></trkpt><trkpt lat="43.6176963" lon="11.7295379"><ele>1079.0</ele><time>2026-04-25T13:37:49.868Z</time></trkpt><trkpt lat="43.6177225" lon="11.7293537"><ele>1079.0</ele><time>2026-04-25T13:37:50.869Z</time></trkpt><trkpt lat="43.6177594" lon="11.7292241"><ele>1079.8333333333335</ele><time>2026-04-25T13:37:51.866Z</time></trkpt><trkpt lat="43.6178098" lon="11.7291483"><ele>1080.6666666666667</ele><time>2026-04-25T13:37:52.868Z</time></trkpt><trkpt lat="43.6178639" lon="11.7290839"><ele>1081.5</ele><time>2026-04-25T13:37:53.878Z</time></trkpt><trkpt lat="43.6179346" lon="11.7290159"><ele>1082.3333333333333</ele><time>2026-04-25T13:37:54.865Z</time></trkpt><trkpt lat="43.6180255" lon="11.7289385"><ele>1083.1666666666665</ele><time>2026-04-25T13:37:55.868Z</time></trkpt><trkpt lat="43.6181116" lon="11.7288961"><ele>1084.0</ele><time>2026-04-25T13:37:56.865Z</time></trkpt><trkpt lat="43.6181843" lon="11.7287954"><ele>1083.4</ele><time>2026-04-25T13:37:58.872Z</time></trkpt><trkpt lat="43.6181808" lon="11.7287073"><ele>1082.8000000000002</ele><time>2026-04-25T13:37:59.863Z</time></trkpt><trkpt lat="43.6181741" lon="11.7286128"><ele>1082.1999999999998</ele><time>2026-04-25T13:38:00.862Z</time></trkpt><trkpt lat="43.6181682" lon="11.7284705"><ele>1081.6</ele><time>2026-04-25T13:38:01.866Z</time></trkpt><trkpt lat="43.6181638" lon="11.7283109"><ele>1081.0</ele><time>2026-04-25T13:38:02.863Z</time></trkpt><trkpt lat="43.6181744" lon="11.7281519"><ele>1081.0</ele><time>2026-04-25T13:38:03.875Z</time></trkpt><trkpt lat="43.6182134" lon="11.7279914"><ele>1081.0</ele><time>2026-04-25T13:38:04.859Z</time></trkpt><trkpt lat="43.6182626" lon="11.7278385"><ele>1081.0</ele><time>2026-04-25T13:38:05.861Z</time></trkpt><trkpt lat="43.6183028" lon="11.7277163"><ele>1081.0</ele><time>2026-04-25T13:38:06.87Z</time></trkpt><trkpt lat="43.6183273" lon="11.727593"><ele>1081.0</ele><time>2026-04-25T13:38:07.866Z</time></trkpt><trkpt lat="43.6183331" lon="11.7274672"><ele>1081.8</ele><time>2026-04-25T13:38:08.869Z</time></trkpt><trkpt lat="43.6183267" lon="11.7273304"><ele>1082.6</ele><time>2026-04-25T13:38:09.865Z</time></trkpt><trkpt lat="43.6183212" lon="11.7271756"><ele>1083.4</ele><time>2026-04-25T13:38:10.872Z</time></trkpt><trkpt lat="43.6183242" lon="11.7270286"><ele>1084.2</ele><time>2026-04-25T13:38:11.869Z</time></trkpt><trkpt lat="43.6183536" lon="11.7268811"><ele>1085.0</ele><time>2026-04-25T13:38:12.885Z</time></trkpt><trkpt lat="43.6184055" lon="11.7267132"><ele>1084.8</ele><time>2026-04-25T13:38:13.872Z</time></trkpt><trkpt lat="43.6184536" lon="11.726574"><ele>1084.6</ele><time>2026-04-25T13:38:14.865Z</time></trkpt><trkpt lat="43.6184895" lon="11.726479"><ele>1084.4</ele><time>2026-04-25T13:38:15.866Z</time></trkpt><trkpt lat="43.6185193" lon="11.7263503"><ele>1084.2</ele><time>2026-04-25T13:38:16.861Z</time></trkpt><trkpt lat="43.618549" lon="11.7261982"><ele>1084.0</ele><time>2026-04-25T13:38:17.871Z</time></trkpt><trkpt lat="43.6185781" lon="11.7260245"><ele>1084.0</ele><time>2026-04-25T13:38:18.867Z</time></trkpt><trkpt lat="43.6186202" lon="11.725863"><ele>1084.0</ele><time>2026-04-25T13:38:19.869Z</time></trkpt><trkpt lat="43.6186528" lon="11.7257127"><ele>1084.0</ele><time>2026-04-25T13:38:20.873Z</time></trkpt><trkpt lat="43.6186664" lon="11.7255836"><ele>1084.0</ele><time>2026-04-25T13:38:21.879Z</time></trkpt><trkpt lat="43.6186788" lon="11.7254632"><ele>1084.0</ele><time>2026-04-25T13:38:22.887Z</time></trkpt><trkpt lat="43.6186942" lon="11.7253407"><ele>1081.2</ele><time>2026-04-25T13:38:23.877Z</time></trkpt><trkpt lat="43.618738" lon="11.7252324"><ele>1078.4</ele><time>2026-04-25T13:38:24.88Z</time></trkpt><trkpt lat="43.6188105" lon="11.7251313"><ele>1075.6</ele><time>2026-04-25T13:38:25.866Z</time></trkpt><trkpt lat="43.6188923" lon="11.7250279"><ele>1072.8</ele><time>2026-04-25T13:38:26.861Z</time></trkpt><trkpt lat="43.6189877" lon="11.7249441"><ele>1070.0</ele><time>2026-04-25T13:38:27.865Z</time></trkpt><trkpt lat="43.6190786" lon="11.7248818"><ele>1070.0</ele><time>2026-04-25T13:38:28.864Z</time></trkpt><trkpt lat="43.6191557" lon="11.7248388"><ele>1070.0</ele><time>2026-04-25T13:38:29.868Z</time></trkpt><trkpt lat="43.6192219" lon="11.7247016"><ele>1070.0</ele><time>2026-04-25T13:38:31.861Z</time></trkpt><trkpt lat="43.6192387" lon="11.7245787"><ele>1070.0</ele><time>2026-04-25T13:38:32.869Z</time></trkpt><trkpt lat="43.6192396" lon="11.7244272"><ele>1070.0</ele><time>2026-04-25T13:38:33.874Z</time></trkpt><trkpt lat="43.6192311" lon="11.7242742"><ele>1069.8333333333335</ele><time>2026-04-25T13:38:34.871Z</time></trkpt><trkpt lat="43.6192182" lon="11.7241317"><ele>1069.6666666666667</ele><time>2026-04-25T13:38:35.866Z</time></trkpt><trkpt lat="43.6192022" lon="11.7240214"><ele>1069.5</ele><time>2026-04-25T13:38:36.871Z</time></trkpt><trkpt lat="43.6192027" lon="11.723916"><ele>1069.3333333333333</ele><time>2026-04-25T13:38:37.878Z</time></trkpt><trkpt lat="43.6192296" lon="11.7237929"><ele>1069.1666666666665</ele><time>2026-04-25T13:38:38.857Z</time></trkpt><trkpt lat="43.6192522" lon="11.7236888"><ele>1069.0</ele><time>2026-04-25T13:38:39.858Z</time></trkpt><trkpt lat="43.6192724" lon="11.7236003"><ele>1067.8</ele><time>2026-04-25T13:38:40.871Z</time></trkpt><trkpt lat="43.6192853" lon="11.723507"><ele>1066.6000000000001</ele><time>2026-04-25T13:38:41.86Z</time></trkpt><trkpt lat="43.6192861" lon="11.7234009"><ele>1065.4</ele><time>2026-04-25T13:38:42.86Z</time></trkpt><trkpt lat="43.6192633" lon="11.7232619"><ele>1064.2</ele><time>2026-04-25T13:38:43.869Z</time></trkpt><trkpt lat="43.619223" lon="11.7230723"><ele>1063.0</ele><time>2026-04-25T13:38:44.879Z</time></trkpt><trkpt lat="43.6191834" lon="11.7228829"><ele>1063.4</ele><time>2026-04-25T13:38:45.871Z</time></trkpt><trkpt lat="43.6191726" lon="11.7227258"><ele>1063.8</ele><time>2026-04-25T13:38:46.891Z</time></trkpt><trkpt lat="43.6191905" lon="11.7226101"><ele>1064.2</ele><time>2026-04-25T13:38:47.868Z</time></trkpt><trkpt lat="43.6192196" lon="11.7224916"><ele>1064.6</ele><time>2026-04-25T13:38:48.87Z</time></trkpt><trkpt lat="43.6192583" lon="11.7223658"><ele>1065.0</ele><time>2026-04-25T13:38:49.869Z</time></trkpt><trkpt lat="43.6193016" lon="11.7222236"><ele>1065.0</ele><time>2026-04-25T13:38:50.882Z</time></trkpt><trkpt lat="43.6193572" lon="11.7220457"><ele>1065.0</ele><time>2026-04-25T13:38:51.865Z</time></trkpt><trkpt lat="43.6194114" lon="11.7218861"><ele>1065.0</ele><time>2026-04-25T13:38:52.871Z</time></trkpt><trkpt lat="43.6194851" lon="11.7217717"><ele>1065.0</ele><time>2026-04-25T13:38:53.874Z</time></trkpt><trkpt lat="43.6195666" lon="11.7216668"><ele>1068.25</ele><time>2026-04-25T13:38:54.869Z</time></trkpt><trkpt lat="43.6196407" lon="11.7215132"><ele>1071.5</ele><time>2026-04-25T13:38:55.865Z</time></trkpt><trkpt lat="43.6197075" lon="11.7213308"><ele>1074.75</ele><time>2026-04-25T13:38:56.878Z</time></trkpt><trkpt lat="43.6197717" lon="11.7211656"><ele>1078.0</ele><time>2026-04-25T13:38:57.874Z</time></trkpt><trkpt lat="43.6198341" lon="11.7210412"><ele>1079.8</ele><time>2026-04-25T13:38:58.861Z</time></trkpt><trkpt lat="43.6199061" lon="11.7209709"><ele>1081.6</ele><time>2026-04-25T13:38:59.87Z</time></trkpt><trkpt lat="43.6199541" lon="11.7209032"><ele>1083.4</ele><time>2026-04-25T13:39:00.866Z</time></trkpt><trkpt lat="43.6199374" lon="11.7207306"><ele>1085.2</ele><time>2026-04-25T13:39:02.877Z</time></trkpt><trkpt lat="43.6199038" lon="11.7206178"><ele>1087.0</ele><time>2026-04-25T13:39:03.87Z</time></trkpt><trkpt lat="43.6198872" lon="11.7205093"><ele>1087.0</ele><time>2026-04-25T13:39:04.877Z</time></trkpt><trkpt lat="43.6199498" lon="11.7204177"><ele>1087.0</ele><time>2026-04-25T13:39:06.871Z</time></trkpt><trkpt lat="43.6200789" lon="11.7203888"><ele>1087.0</ele><time>2026-04-25T13:39:08.869Z</time></trkpt><trkpt lat="43.6201607" lon="11.7203546"><ele>1087.0</ele><time>2026-04-25T13:39:09.875Z</time></trkpt><trkpt lat="43.6202272" lon="11.7203189"><ele>1087.0</ele><time>2026-04-25T13:39:10.88Z</time></trkpt><trkpt lat="43.6202846" lon="11.7202376"><ele>1090.8</ele><time>2026-04-25T13:39:11.872Z</time></trkpt><trkpt lat="43.6203531" lon="11.7201454"><ele>1094.6</ele><time>2026-04-25T13:39:12.878Z</time></trkpt><trkpt lat="43.6204133" lon="11.7200482"><ele>1098.3999999999999</ele><time>2026-04-25T13:39:13.865Z</time></trkpt><trkpt lat="43.6204574" lon="11.719936"><ele>1102.2</ele><time>2026-04-25T13:39:14.868Z</time></trkpt><trkpt lat="43.6204923" lon="11.7198222"><ele>1106.0</ele><time>2026-04-25T13:39:15.865Z</time></trkpt><trkpt lat="43.6205367" lon="11.7197191"><ele>1106.0</ele><time>2026-04-25T13:39:16.868Z</time></trkpt><trkpt lat="43.6205907" lon="11.7196379"><ele>1106.0</ele><time>2026-04-25T13:39:17.872Z</time></trkpt><trkpt lat="43.6206646" lon="11.7195335"><ele>1106.0</ele><time>2026-04-25T13:39:18.856Z</time></trkpt><trkpt lat="43.6207506" lon="11.7194246"><ele>1106.0</ele><time>2026-04-25T13:39:19.864Z</time></trkpt><trkpt lat="43.6208484" lon="11.7193288"><ele>1106.0</ele><time>2026-04-25T13:39:20.88Z</time></trkpt><trkpt lat="43.6209527" lon="11.7192461"><ele>1105.75</ele><time>2026-04-25T13:39:21.871Z</time></trkpt><trkpt lat="43.6210696" lon="11.7191666"><ele>1105.5</ele><time>2026-04-25T13:39:22.86Z</time></trkpt><trkpt lat="43.6211795" lon="11.719103"><ele>1105.25</ele><time>2026-04-25T13:39:23.864Z</time></trkpt><trkpt lat="43.621298" lon="11.7190548"><ele>1105.0</ele><time>2026-04-25T13:39:24.867Z</time></trkpt><trkpt lat="43.6214288" lon="11.7189963"><ele>1107.0</ele><time>2026-04-25T13:39:25.874Z</time></trkpt><trkpt lat="43.6215662" lon="11.7189134"><ele>1109.0</ele><time>2026-04-25T13:39:26.865Z</time></trkpt><trkpt lat="43.6217149" lon="11.718796"><ele>1111.0</ele><time>2026-04-25T13:39:27.875Z</time></trkpt><trkpt lat="43.6218694" lon="11.7186611"><ele>1112.8</ele><time>2026-04-25T13:39:28.87Z</time></trkpt><trkpt lat="43.6219912" lon="11.7185516"><ele>1114.6</ele><time>2026-04-25T13:39:29.882Z</time></trkpt><trkpt lat="43.6220788" lon="11.7184643"><ele>1116.4</ele><time>2026-04-25T13:39:30.873Z</time></trkpt><trkpt lat="43.6221477" lon="11.7183664"><ele>1118.2</ele><time>2026-04-25T13:39:31.88Z</time></trkpt><trkpt lat="43.6221911" lon="11.7182637"><ele>1120.0</ele><time>2026-04-25T13:39:32.862Z</time></trkpt><trkpt lat="43.6222214" lon="11.7181352"><ele>1120.0</ele><time>2026-04-25T13:39:33.857Z</time></trkpt><trkpt lat="43.6222396" lon="11.7179871"><ele>1120.0</ele><time>2026-04-25T13:39:34.863Z</time></trkpt><trkpt lat="43.6222496" lon="11.717828"><ele>1120.0</ele><time>2026-04-25T13:39:35.88Z</time></trkpt><trkpt lat="43.6222533" lon="11.7176865"><ele>1120.0</ele><time>2026-04-25T13:39:36.857Z</time></trkpt><trkpt lat="43.622274" lon="11.7175783"><ele>1120.0</ele><time>2026-04-25T13:39:37.864Z</time></trkpt><trkpt lat="43.6223212" lon="11.7174845"><ele>1121.0</ele><time>2026-04-25T13:39:38.862Z</time></trkpt><trkpt lat="43.6223866" lon="11.7173969"><ele>1122.0</ele><time>2026-04-25T13:39:39.867Z</time></trkpt><trkpt lat="43.622463" lon="11.7173139"><ele>1123.0</ele><time>2026-04-25T13:39:40.866Z</time></trkpt><trkpt lat="43.6225454" lon="11.7172271"><ele>1124.0</ele><time>2026-04-25T13:39:41.871Z</time></trkpt><trkpt lat="43.6226417" lon="11.717127"><ele>1125.0</ele><time>2026-04-25T13:39:42.874Z</time></trkpt><trkpt lat="43.6227489" lon="11.717011"><ele>1127.25</ele><time>2026-04-25T13:39:43.856Z</time></trkpt><trkpt lat="43.6228596" lon="11.7169018"><ele>1129.5</ele><time>2026-04-25T13:39:44.866Z</time></trkpt><trkpt lat="43.622966" lon="11.716798"><ele>1131.75</ele><time>2026-04-25T13:39:45.867Z</time></trkpt><trkpt lat="43.6230731" lon="11.7166926"><ele>1134.0</ele><time>2026-04-25T13:39:46.861Z</time></trkpt><trkpt lat="43.6231744" lon="11.716581"><ele>1134.0</ele><time>2026-04-25T13:39:47.862Z</time></trkpt><trkpt lat="43.6232775" lon="11.7164447"><ele>1134.0</ele><time>2026-04-25T13:39:48.873Z</time></trkpt><trkpt lat="43.6233723" lon="11.7162681"><ele>1134.0</ele><time>2026-04-25T13:39:49.862Z</time></trkpt><trkpt lat="43.623472" lon="11.7160627"><ele>1134.5</ele><time>2026-04-25T13:39:50.874Z</time></trkpt><trkpt lat="43.6235751" lon="11.7158848"><ele>1135.0</ele><time>2026-04-25T13:39:51.861Z</time></trkpt><trkpt lat="43.6236621" lon="11.7157569"><ele>1135.5</ele><time>2026-04-25T13:39:52.87Z</time></trkpt><trkpt lat="43.6237697" lon="11.7156454"><ele>1136.0</ele><time>2026-04-25T13:39:53.869Z</time></trkpt><trkpt lat="43.6238835" lon="11.7155156"><ele>1136.0</ele><time>2026-04-25T13:39:54.872Z</time></trkpt><trkpt lat="43.6239865" lon="11.7153789"><ele>1136.0</ele><time>2026-04-25T13:39:55.857Z</time></trkpt><trkpt lat="43.6240766" lon="11.7152359"><ele>1136.0</ele><time>2026-04-25T13:39:56.87Z</time></trkpt><trkpt lat="43.624167" lon="11.7151073"><ele>1136.0</ele><time>2026-04-25T13:39:57.87Z</time></trkpt><trkpt lat="43.6242781" lon="11.7149896"><ele>1138.0</ele><time>2026-04-25T13:39:58.862Z</time></trkpt><trkpt lat="43.6244106" lon="11.7148774"><ele>1140.0</ele><time>2026-04-25T13:39:59.863Z</time></trkpt><trkpt lat="43.6245418" lon="11.7147676"><ele>1142.0</ele><time>2026-04-25T13:40:00.875Z</time></trkpt><trkpt lat="43.6246693" lon="11.714678"><ele>1143.0</ele><time>2026-04-25T13:40:01.866Z</time></trkpt><trkpt lat="43.6247895" lon="11.7146086"><ele>1144.0</ele><time>2026-04-25T13:40:02.879Z</time></trkpt><trkpt lat="43.6249075" lon="11.7145424"><ele>1145.0</ele><time>2026-04-25T13:40:03.881Z</time></trkpt><trkpt lat="43.6250292" lon="11.7144696"><ele>1146.0</ele><time>2026-04-25T13:40:04.874Z</time></trkpt><trkpt lat="43.6251467" lon="11.7143933"><ele>1147.25</ele><time>2026-04-25T13:40:05.866Z</time></trkpt><trkpt lat="43.6252774" lon="11.7142912"><ele>1148.5</ele><time>2026-04-25T13:40:06.86Z</time></trkpt><trkpt lat="43.625411" lon="11.7141974"><ele>1149.75</ele><time>2026-04-25T13:40:07.857Z</time></trkpt><trkpt lat="43.6255222" lon="11.7140999"><ele>1151.0</ele><time>2026-04-25T13:40:08.878Z</time></trkpt><trkpt lat="43.6256027" lon="11.7140359"><ele>1151.8</ele><time>2026-04-25T13:40:09.876Z</time></trkpt><trkpt lat="43.6256855" lon="11.713987"><ele>1152.6</ele><time>2026-04-25T13:40:10.875Z</time></trkpt><trkpt lat="43.6257794" lon="11.7139362"><ele>1153.4</ele><time>2026-04-25T13:40:11.872Z</time></trkpt><trkpt lat="43.625871" lon="11.7138669"><ele>1154.2</ele><time>2026-04-25T13:40:12.882Z</time></trkpt><trkpt lat="43.6259488" lon="11.7137724"><ele>1155.0</ele><time>2026-04-25T13:40:13.868Z</time></trkpt><trkpt lat="43.6260211" lon="11.7136749"><ele>1155.0</ele><time>2026-04-25T13:40:14.864Z</time></trkpt><trkpt lat="43.6261068" lon="11.7136004"><ele>1155.0</ele><time>2026-04-25T13:40:15.877Z</time></trkpt><trkpt lat="43.6262059" lon="11.7135312"><ele>1155.0</ele><time>2026-04-25T13:40:16.869Z</time></trkpt><trkpt lat="43.6262943" lon="11.7134611"><ele>1155.0</ele><time>2026-04-25T13:40:17.869Z</time></trkpt><trkpt lat="43.6263535" lon="11.7133703"><ele>1155.0</ele><time>2026-04-25T13:40:18.86Z</time></trkpt><trkpt lat="43.6264087" lon="11.7132522"><ele>1157.0</ele><time>2026-04-25T13:40:19.87Z</time></trkpt><trkpt lat="43.6264617" lon="11.7131319"><ele>1159.0</ele><time>2026-04-25T13:40:20.862Z</time></trkpt><trkpt lat="43.6265293" lon="11.7129988"><ele>1161.0</ele><time>2026-04-25T13:40:21.871Z</time></trkpt><trkpt lat="43.6266018" lon="11.7128664"><ele>1163.0</ele><time>2026-04-25T13:40:22.855Z</time></trkpt><trkpt lat="43.6266824" lon="11.7127277"><ele>1163.0</ele><time>2026-04-25T13:40:23.858Z</time></trkpt><trkpt lat="43.626771" lon="11.712605"><ele>1163.0</ele><time>2026-04-25T13:40:24.851Z</time></trkpt><trkpt lat="43.62684" lon="11.7124899"><ele>1163.0</ele><time>2026-04-25T13:40:25.863Z</time></trkpt><trkpt lat="43.6268999" lon="11.7123929"><ele>1163.0</ele><time>2026-04-25T13:40:26.862Z</time></trkpt><trkpt lat="43.6269347" lon="11.7122672"><ele>1163.0</ele><time>2026-04-25T13:40:27.856Z</time></trkpt><trkpt lat="43.6269503" lon="11.7121146"><ele>1163.0</ele><time>2026-04-25T13:40:28.861Z</time></trkpt><trkpt lat="43.6269643" lon="11.7119641"><ele>1163.0</ele><time>2026-04-25T13:40:29.864Z</time></trkpt><trkpt lat="43.626979" lon="11.7118248"><ele>1163.0</ele><time>2026-04-25T13:40:30.86Z</time></trkpt><trkpt lat="43.6270047" lon="11.7117404"><ele>1163.0</ele><time>2026-04-25T13:40:31.868Z</time></trkpt><trkpt lat="43.6270468" lon="11.711643"><ele>1163.0</ele><time>2026-04-25T13:40:32.867Z</time></trkpt><trkpt lat="43.627091" lon="11.7115508"><ele>1163.0</ele><time>2026-04-25T13:40:33.861Z</time></trkpt><trkpt lat="43.6271472" lon="11.7114539"><ele>1163.5</ele><time>2026-04-25T13:40:34.866Z</time></trkpt><trkpt lat="43.6272044" lon="11.7113633"><ele>1164.0</ele><time>2026-04-25T13:40:35.865Z</time></trkpt><trkpt lat="43.6272546" lon="11.7112887"><ele>1164.5</ele><time>2026-04-25T13:40:36.876Z</time></trkpt><trkpt lat="43.6272954" lon="11.7112064"><ele>1165.0</ele><time>2026-04-25T13:40:37.874Z</time></trkpt><trkpt lat="43.6273217" lon="11.7111104"><ele>1165.5</ele><time>2026-04-25T13:40:38.872Z</time></trkpt><trkpt lat="43.6273341" lon="11.7109706"><ele>1166.0</ele><time>2026-04-25T13:40:39.859Z</time></trkpt><trkpt lat="43.6273419" lon="11.7107976"><ele>1164.5</ele><time>2026-04-25T13:40:40.866Z</time></trkpt><trkpt lat="43.6273476" lon="11.7106259"><ele>1163.0</ele><time>2026-04-25T13:40:41.869Z</time></trkpt><trkpt lat="43.6273671" lon="11.7104727"><ele>1161.5</ele><time>2026-04-25T13:40:42.864Z</time></trkpt><trkpt lat="43.6274298" lon="11.7103156"><ele>1160.0</ele><time>2026-04-25T13:40:43.866Z</time></trkpt><trkpt lat="43.6275234" lon="11.7101488"><ele>1159.6666666666667</ele><time>2026-04-25T13:40:44.872Z</time></trkpt><trkpt lat="43.6276317" lon="11.7099885"><ele>1159.3333333333333</ele><time>2026-04-25T13:40:45.865Z</time></trkpt><trkpt lat="43.6277437" lon="11.7098376"><ele>1159.0</ele><time>2026-04-25T13:40:46.864Z</time></trkpt><trkpt lat="43.6278243" lon="11.7096858"><ele>1158.8</ele><time>2026-04-25T13:40:47.864Z</time></trkpt><trkpt lat="43.6278777" lon="11.7095427"><ele>1158.6000000000001</ele><time>2026-04-25T13:40:48.864Z</time></trkpt><trkpt lat="43.627928" lon="11.7094324"><ele>1158.4</ele><time>2026-04-25T13:40:49.864Z</time></trkpt><trkpt lat="43.6279612" lon="11.7093117"><ele>1158.2</ele><time>2026-04-25T13:40:50.869Z</time></trkpt><trkpt lat="43.6279801" lon="11.7092049"><ele>1158.0</ele><time>2026-04-25T13:40:51.865Z</time></trkpt><trkpt lat="43.6279486" lon="11.7091152"><ele>1159.0</ele><time>2026-04-25T13:40:52.882Z</time></trkpt><trkpt lat="43.6279079" lon="11.7090187"><ele>1160.0</ele><time>2026-04-25T13:40:53.876Z</time></trkpt><trkpt lat="43.6278706" lon="11.7089365"><ele>1161.0</ele><time>2026-04-25T13:40:54.873Z</time></trkpt><trkpt lat="43.6278998" lon="11.7087815"><ele>1162.0</ele><time>2026-04-25T13:40:56.853Z</time></trkpt><trkpt lat="43.6279462" lon="11.7087091"><ele>1163.0</ele><time>2026-04-25T13:40:57.852Z</time></trkpt><trkpt lat="43.6280077" lon="11.7086658"><ele>1164.0</ele><time>2026-04-25T13:40:58.857Z</time></trkpt><trkpt lat="43.6280934" lon="11.7086586"><ele>1164.0</ele><time>2026-04-25T13:40:59.863Z</time></trkpt><trkpt lat="43.6281748" lon="11.7086426"><ele>1164.0</ele><time>2026-04-25T13:41:00.869Z</time></trkpt><trkpt lat="43.6282678" lon="11.7086153"><ele>1164.0</ele><time>2026-04-25T13:41:01.867Z</time></trkpt><trkpt lat="43.6283384" lon="11.708581"><ele>1164.0</ele><time>2026-04-25T13:41:02.869Z</time></trkpt><trkpt lat="43.6283949" lon="11.708525"><ele>1164.0</ele><time>2026-04-25T13:41:03.869Z</time></trkpt><trkpt lat="43.6284243" lon="11.7083195"><ele>1161.75</ele><time>2026-04-25T13:41:05.866Z</time></trkpt><trkpt lat="43.6284519" lon="11.7081643"><ele>1159.5</ele><time>2026-04-25T13:41:06.873Z</time></trkpt><trkpt lat="43.6284976" lon="11.7079895"><ele>1157.25</ele><time>2026-04-25T13:41:07.856Z</time></trkpt><trkpt lat="43.6285503" lon="11.7078019"><ele>1155.0</ele><time>2026-04-25T13:41:08.859Z</time></trkpt><trkpt lat="43.6285672" lon="11.7075897"><ele>1155.0</ele><time>2026-04-25T13:41:09.862Z</time></trkpt><trkpt lat="43.6285841" lon="11.7074134"><ele>1155.0</ele><time>2026-04-25T13:41:10.859Z</time></trkpt><trkpt lat="43.6285934" lon="11.707264"><ele>1155.0</ele><time>2026-04-25T13:41:11.873Z</time></trkpt><trkpt lat="43.6285833" lon="11.7071218"><ele>1155.0</ele><time>2026-04-25T13:41:12.866Z</time></trkpt><trkpt lat="43.6285513" lon="11.706973"><ele>1157.0</ele><time>2026-04-25T13:41:13.869Z</time></trkpt><trkpt lat="43.6285164" lon="11.7068115"><ele>1159.0</ele><time>2026-04-25T13:41:14.861Z</time></trkpt><trkpt lat="43.628502" lon="11.7066551"><ele>1161.0</ele><time>2026-04-25T13:41:15.87Z</time></trkpt><trkpt lat="43.6285116" lon="11.7065138"><ele>1163.0</ele><time>2026-04-25T13:41:16.873Z</time></trkpt><trkpt lat="43.6285473" lon="11.7063919"><ele>1165.0</ele><time>2026-04-25T13:41:17.883Z</time></trkpt><trkpt lat="43.6285933" lon="11.7062479"><ele>1164.6</ele><time>2026-04-25T13:41:18.877Z</time></trkpt><trkpt lat="43.6286443" lon="11.7060845"><ele>1164.2</ele><time>2026-04-25T13:41:19.87Z</time></trkpt><trkpt lat="43.62871" lon="11.7059557"><ele>1163.8</ele><time>2026-04-25T13:41:20.878Z</time></trkpt><trkpt lat="43.6287721" lon="11.705861"><ele>1163.4</ele><time>2026-04-25T13:41:21.864Z</time></trkpt><trkpt lat="43.6288234" lon="11.7057407"><ele>1163.0</ele><time>2026-04-25T13:41:22.877Z</time></trkpt><trkpt lat="43.6288703" lon="11.7056052"><ele>1163.0</ele><time>2026-04-25T13:41:23.859Z</time></trkpt><trkpt lat="43.6289192" lon="11.7054395"><ele>1163.0</ele><time>2026-04-25T13:41:24.883Z</time></trkpt><trkpt lat="43.6289687" lon="11.7052737"><ele>1163.0</ele><time>2026-04-25T13:41:25.87Z</time></trkpt><trkpt lat="43.6290038" lon="11.7051146"><ele>1163.0</ele><time>2026-04-25T13:41:26.874Z</time></trkpt><trkpt lat="43.6290341" lon="11.7049877"><ele>1165.8333333333335</ele><time>2026-04-25T13:41:27.872Z</time></trkpt><trkpt lat="43.6290601" lon="11.7048888"><ele>1168.6666666666667</ele><time>2026-04-25T13:41:28.858Z</time></trkpt><trkpt lat="43.6290858" lon="11.7047923"><ele>1171.5</ele><time>2026-04-25T13:41:29.858Z</time></trkpt><trkpt lat="43.629121" lon="11.7046265"><ele>1174.3333333333333</ele><time>2026-04-25T13:41:31.863Z</time></trkpt><trkpt lat="43.629137" lon="11.7045387"><ele>1177.1666666666665</ele><time>2026-04-25T13:41:32.868Z</time></trkpt><trkpt lat="43.6291537" lon="11.7044368"><ele>1180.0</ele><time>2026-04-25T13:41:33.867Z</time></trkpt><trkpt lat="43.6291744" lon="11.7043245"><ele>1183.2</ele><time>2026-04-25T13:41:34.868Z</time></trkpt><trkpt lat="43.6291904" lon="11.7042086"><ele>1186.4</ele><time>2026-04-25T13:41:35.862Z</time></trkpt><trkpt lat="43.6292174" lon="11.7040867"><ele>1189.6</ele><time>2026-04-25T13:41:36.861Z</time></trkpt><trkpt lat="43.6292604" lon="11.7039698"><ele>1192.8</ele><time>2026-04-25T13:41:37.857Z</time></trkpt><trkpt lat="43.6293018" lon="11.7038427"><ele>1196.0</ele><time>2026-04-25T13:41:38.861Z</time></trkpt><trkpt lat="43.6293508" lon="11.703699"><ele>1196.0</ele><time>2026-04-25T13:41:39.858Z</time></trkpt><trkpt lat="43.6293923" lon="11.7035805"><ele>1196.0</ele><time>2026-04-25T13:41:40.859Z</time></trkpt><trkpt lat="43.6294233" lon="11.7034648"><ele>1196.0</ele><time>2026-04-25T13:41:41.878Z</time></trkpt><trkpt lat="43.6294427" lon="11.7033745"><ele>1196.0</ele><time>2026-04-25T13:41:42.868Z</time></trkpt><trkpt lat="43.6294341" lon="11.7032878"><ele>1196.0</ele><time>2026-04-25T13:41:43.863Z</time></trkpt><trkpt lat="43.6293987" lon="11.7032041"><ele>1196.0</ele><time>2026-04-25T13:41:44.869Z</time></trkpt><trkpt lat="43.6293599" lon="11.7031211"><ele>1197.3333333333335</ele><time>2026-04-25T13:41:45.865Z</time></trkpt><trkpt lat="43.6293111" lon="11.7030302"><ele>1198.6666666666667</ele><time>2026-04-25T13:41:46.868Z</time></trkpt><trkpt lat="43.6292575" lon="11.7029308"><ele>1200.0</ele><time>2026-04-25T13:41:47.883Z</time></trkpt><trkpt lat="43.6292409" lon="11.7028243"><ele>1201.3333333333333</ele><time>2026-04-25T13:41:48.865Z</time></trkpt><trkpt lat="43.6292581" lon="11.7027256"><ele>1202.6666666666665</ele><time>2026-04-25T13:41:49.863Z</time></trkpt><trkpt lat="43.6292881" lon="11.7026121"><ele>1204.0</ele><time>2026-04-25T13:41:50.857Z</time></trkpt><trkpt lat="43.6293543" lon="11.7025015"><ele>1204.25</ele><time>2026-04-25T13:41:51.872Z</time></trkpt><trkpt lat="43.6294223" lon="11.7023755"><ele>1204.5</ele><time>2026-04-25T13:41:52.871Z</time></trkpt><trkpt lat="43.6294885" lon="11.7022299"><ele>1204.75</ele><time>2026-04-25T13:41:53.862Z</time></trkpt><trkpt lat="43.6295359" lon="11.7020822"><ele>1205.0</ele><time>2026-04-25T13:41:54.866Z</time></trkpt><trkpt lat="43.6295502" lon="11.7019401"><ele>1206.8</ele><time>2026-04-25T13:41:55.864Z</time></trkpt><trkpt lat="43.6295528" lon="11.7018098"><ele>1208.6</ele><time>2026-04-25T13:41:56.858Z</time></trkpt><trkpt lat="43.6295471" lon="11.7017095"><ele>1210.4</ele><time>2026-04-25T13:41:57.876Z</time></trkpt><trkpt lat="43.6296026" lon="11.7015599"><ele>1212.2</ele><time>2026-04-25T13:41:59.863Z</time></trkpt><trkpt lat="43.6296381" lon="11.7014629"><ele>1214.0</ele><time>2026-04-25T13:42:00.872Z</time></trkpt><trkpt lat="43.6296745" lon="11.7013491"><ele>1214.0</ele><time>2026-04-25T13:42:01.861Z</time></trkpt><trkpt lat="43.6297053" lon="11.7012486"><ele>1214.0</ele><time>2026-04-25T13:42:02.874Z</time></trkpt><trkpt lat="43.6297383" lon="11.7011604"><ele>1214.0</ele><time>2026-04-25T13:42:03.87Z</time></trkpt><trkpt lat="43.6297797" lon="11.7010852"><ele>1214.0</ele><time>2026-04-25T13:42:04.868Z</time></trkpt><trkpt lat="43.6298318" lon="11.7010361"><ele>1214.0</ele><time>2026-04-25T13:42:05.866Z</time></trkpt><trkpt lat="43.6299382" lon="11.7009559"><ele>1214.0</ele><time>2026-04-25T13:42:07.864Z</time></trkpt><trkpt lat="43.6299885" lon="11.7009015"><ele>1214.3333333333335</ele><time>2026-04-25T13:42:08.863Z</time></trkpt><trkpt lat="43.6300356" lon="11.700824"><ele>1214.6666666666667</ele><time>2026-04-25T13:42:09.862Z</time></trkpt><trkpt lat="43.630067" lon="11.700742"><ele>1215.0</ele><time>2026-04-25T13:42:10.857Z</time></trkpt><trkpt lat="43.6300993" lon="11.7006625"><ele>1215.3333333333333</ele><time>2026-04-25T13:42:11.87Z</time></trkpt><trkpt lat="43.6301662" lon="11.7005954"><ele>1215.6666666666665</ele><time>2026-04-25T13:42:12.859Z</time></trkpt><trkpt lat="43.6302593" lon="11.7005218"><ele>1216.0</ele><time>2026-04-25T13:42:13.859Z</time></trkpt><trkpt lat="43.6303559" lon="11.7004408"><ele>1217.0</ele><time>2026-04-25T13:42:14.867Z</time></trkpt><trkpt lat="43.6304642" lon="11.7003427"><ele>1218.0</ele><time>2026-04-25T13:42:15.86Z</time></trkpt><trkpt lat="43.6305657" lon="11.700242"><ele>1219.0</ele><time>2026-04-25T13:42:16.861Z</time></trkpt><trkpt lat="43.6306626" lon="11.7001443"><ele>1220.0</ele><time>2026-04-25T13:42:17.855Z</time></trkpt><trkpt lat="43.6307603" lon="11.7000706"><ele>1220.0</ele><time>2026-04-25T13:42:18.865Z</time></trkpt><trkpt lat="43.6308571" lon="11.7000055"><ele>1220.0</ele><time>2026-04-25T13:42:19.87Z</time></trkpt><trkpt lat="43.63096" lon="11.6999638"><ele>1220.0</ele><time>2026-04-25T13:42:20.868Z</time></trkpt><trkpt lat="43.6310629" lon="11.6999095"><ele>1220.0</ele><time>2026-04-25T13:42:21.859Z</time></trkpt><trkpt lat="43.6311544" lon="11.6998597"><ele>1220.0</ele><time>2026-04-25T13:42:22.861Z</time></trkpt><trkpt lat="43.6312385" lon="11.6998338"><ele>1218.1666666666667</ele><time>2026-04-25T13:42:23.861Z</time></trkpt><trkpt lat="43.6313266" lon="11.6998346"><ele>1216.3333333333335</ele><time>2026-04-25T13:42:24.866Z</time></trkpt><trkpt lat="43.6314223" lon="11.6998471"><ele>1214.5</ele><time>2026-04-25T13:42:25.862Z</time></trkpt><trkpt lat="43.6315103" lon="11.6998282"><ele>1212.6666666666667</ele><time>2026-04-25T13:42:26.86Z</time></trkpt><trkpt lat="43.6315563" lon="11.6997603"><ele>1210.8333333333333</ele><time>2026-04-25T13:42:27.859Z</time></trkpt><trkpt lat="43.631606" lon="11.699639"><ele>1209.0</ele><time>2026-04-25T13:42:28.857Z</time></trkpt><trkpt lat="43.6316445" lon="11.6995013"><ele>1210.0</ele><time>2026-04-25T13:42:29.865Z</time></trkpt><trkpt lat="43.6316835" lon="11.6993698"><ele>1211.0</ele><time>2026-04-25T13:42:30.858Z</time></trkpt><trkpt lat="43.6317323" lon="11.6992581"><ele>1212.0</ele><time>2026-04-25T13:42:31.857Z</time></trkpt><trkpt lat="43.6317932" lon="11.6991783"><ele>1213.0</ele><time>2026-04-25T13:42:32.862Z</time></trkpt><trkpt lat="43.631856" lon="11.6991035"><ele>1214.0</ele><time>2026-04-25T13:42:33.855Z</time></trkpt><trkpt lat="43.6319366" lon="11.6990263"><ele>1210.5</ele><time>2026-04-25T13:42:34.867Z</time></trkpt><trkpt lat="43.6320248" lon="11.6989509"><ele>1207.0</ele><time>2026-04-25T13:42:35.854Z</time></trkpt><trkpt lat="43.632119" lon="11.6988884"><ele>1203.5</ele><time>2026-04-25T13:42:36.862Z</time></trkpt><trkpt lat="43.6322288" lon="11.69884"><ele>1200.0</ele><time>2026-04-25T13:42:37.859Z</time></trkpt><trkpt lat="43.6323721" lon="11.6987896"><ele>1200.0</ele><time>2026-04-25T13:42:38.862Z</time></trkpt><trkpt lat="43.6325383" lon="11.6987176"><ele>1200.0</ele><time>2026-04-25T13:42:39.856Z</time></trkpt><trkpt lat="43.6326984" lon="11.6986533"><ele>1200.0</ele><time>2026-04-25T13:42:40.857Z</time></trkpt><trkpt lat="43.632854" lon="11.6986103"><ele>1203.6666666666667</ele><time>2026-04-25T13:42:41.86Z</time></trkpt><trkpt lat="43.6330065" lon="11.6985689"><ele>1207.3333333333335</ele><time>2026-04-25T13:42:42.859Z</time></trkpt><trkpt lat="43.6331577" lon="11.6985196"><ele>1211.0</ele><time>2026-04-25T13:42:43.865Z</time></trkpt><trkpt lat="43.6333107" lon="11.6984788"><ele>1211.0</ele><time>2026-04-25T13:42:44.867Z</time></trkpt><trkpt lat="43.6334654" lon="11.6984428"><ele>1211.0</ele><time>2026-04-25T13:42:45.867Z</time></trkpt><trkpt lat="43.6335951" lon="11.6984094"><ele>1211.0</ele><time>2026-04-25T13:42:46.861Z</time></trkpt><trkpt lat="43.6337031" lon="11.6983529"><ele>1211.0</ele><time>2026-04-25T13:42:47.857Z</time></trkpt><trkpt lat="43.6338067" lon="11.6983144"><ele>1210.8</ele><time>2026-04-25T13:42:48.872Z</time></trkpt><trkpt lat="43.6338615" lon="11.6982713"><ele>1210.6</ele><time>2026-04-25T13:42:49.87Z</time></trkpt><trkpt lat="43.6339302" lon="11.6982244"><ele>1210.4</ele><time>2026-04-25T13:42:51.861Z</time></trkpt><trkpt lat="43.6340583" lon="11.6981815"><ele>1210.2</ele><time>2026-04-25T13:43:52.86Z</time></trkpt><trkpt lat="43.6341427" lon="11.6981157"><ele>1210.0</ele><time>2026-04-25T13:43:53.859Z</time></trkpt><trkpt lat="43.6342558" lon="11.6980589"><ele>1210.0</ele><time>2026-04-25T13:43:54.859Z</time></trkpt><trkpt lat="43.6343988" lon="11.6980129"><ele>1210.0</ele><time>2026-04-25T13:43:55.857Z</time></trkpt><trkpt lat="43.6345315" lon="11.6979481"><ele>1210.0</ele><time>2026-04-25T13:43:56.864Z</time></trkpt><trkpt lat="43.634645" lon="11.6978771"><ele>1210.0</ele><time>2026-04-25T13:43:57.86Z</time></trkpt><trkpt lat="43.6347272" lon="11.6978033"><ele>1208.5</ele><time>2026-04-25T13:43:58.869Z</time></trkpt><trkpt lat="43.6348088" lon="11.6977798"><ele>1207.0</ele><time>2026-04-25T13:43:59.865Z</time></trkpt><trkpt lat="43.6348948" lon="11.6978213"><ele>1205.5</ele><time>2026-04-25T13:44:00.856Z</time></trkpt><trkpt lat="43.6349732" lon="11.6978937"><ele>1204.0</ele><time>2026-04-25T13:44:01.858Z</time></trkpt><trkpt lat="43.6350397" lon="11.6979629"><ele>1202.5</ele><time>2026-04-25T13:44:02.869Z</time></trkpt><trkpt lat="43.6351038" lon="11.6980174"><ele>1201.0</ele><time>2026-04-25T13:44:03.861Z</time></trkpt><trkpt lat="43.635174" lon="11.6980435"><ele>1201.0</ele><time>2026-04-25T13:44:04.876Z</time></trkpt><trkpt lat="43.6352612" lon="11.6980245"><ele>1201.0</ele><time>2026-04-25T13:44:05.857Z</time></trkpt><trkpt lat="43.6353717" lon="11.6979964"><ele>1201.0</ele><time>2026-04-25T13:44:06.855Z</time></trkpt><trkpt lat="43.6354807" lon="11.6981203"><ele>1201.0</ele><time>2026-04-25T13:44:08.86Z</time></trkpt><trkpt lat="43.635529" lon="11.6982308"><ele>1201.0</ele><time>2026-04-25T13:44:09.865Z</time></trkpt><trkpt lat="43.6355632" lon="11.6983655"><ele>1203.3999999999999</ele><time>2026-04-25T13:44:10.855Z</time></trkpt><trkpt lat="43.6355695" lon="11.6985321"><ele>1205.8</ele><time>2026-04-25T13:44:11.862Z</time></trkpt><trkpt lat="43.6355552" lon="11.6986774"><ele>1208.1999999999998</ele><time>2026-04-25T13:44:12.866Z</time></trkpt><trkpt lat="43.6355677" lon="11.6987892"><ele>1210.6</ele><time>2026-04-25T13:44:13.873Z</time></trkpt><trkpt lat="43.6356" lon="11.6989004"><ele>1213.0</ele><time>2026-04-25T13:44:14.872Z</time></trkpt><trkpt lat="43.6356677" lon="11.6990296"><ele>1213.0</ele><time>2026-04-25T13:44:15.875Z</time></trkpt><trkpt lat="43.6357655" lon="11.6992153"><ele>1213.0</ele><time>2026-04-25T13:44:16.871Z</time></trkpt><trkpt lat="43.6358519" lon="11.6994087"><ele>1213.0</ele><time>2026-04-25T13:44:17.858Z</time></trkpt><trkpt lat="43.6359195" lon="11.6995873"><ele>1210.2</ele><time>2026-04-25T13:44:18.862Z</time></trkpt><trkpt lat="43.6359626" lon="11.6997137"><ele>1207.4</ele><time>2026-04-25T13:44:19.868Z</time></trkpt><trkpt lat="43.6360404" lon="11.6997997"><ele>1204.6000000000001</ele><time>2026-04-25T13:44:21.856Z</time></trkpt><trkpt lat="43.6361645" lon="11.6997781"><ele>1201.8</ele><time>2026-04-25T13:44:23.855Z</time></trkpt><trkpt lat="43.6362282" lon="11.6997474"><ele>1199.0</ele><time>2026-04-25T13:44:24.853Z</time></trkpt><trkpt lat="43.6362955" lon="11.6997152"><ele>1199.0</ele><time>2026-04-25T13:44:25.85Z</time></trkpt><trkpt lat="43.6363621" lon="11.6996966"><ele>1199.0</ele><time>2026-04-25T13:44:26.856Z</time></trkpt><trkpt lat="43.6364904" lon="11.6997733"><ele>1199.0</ele><time>2026-04-25T13:44:28.868Z</time></trkpt><trkpt lat="43.6365595" lon="11.6997951"><ele>1199.0</ele><time>2026-04-25T13:44:29.874Z</time></trkpt><trkpt lat="43.6366282" lon="11.6997854"><ele>1199.0</ele><time>2026-04-25T13:44:30.866Z</time></trkpt><trkpt lat="43.6366991" lon="11.699754"><ele>1199.0</ele><time>2026-04-25T13:44:31.856Z</time></trkpt><trkpt lat="43.636773" lon="11.6996998"><ele>1199.0</ele><time>2026-04-25T13:44:32.853Z</time></trkpt><trkpt lat="43.6368626" lon="11.6996298"><ele>1199.0</ele><time>2026-04-25T13:44:33.852Z</time></trkpt><trkpt lat="43.6369841" lon="11.6995574"><ele>1199.0</ele><time>2026-04-25T13:44:34.855Z</time></trkpt><trkpt lat="43.6370969" lon="11.6994586"><ele>1199.0</ele><time>2026-04-25T13:44:35.857Z</time></trkpt><trkpt lat="43.6372098" lon="11.6993487"><ele>1201.0</ele><time>2026-04-25T13:44:36.864Z</time></trkpt><trkpt lat="43.6373254" lon="11.6992153"><ele>1203.0</ele><time>2026-04-25T13:44:37.872Z</time></trkpt><trkpt lat="43.6374474" lon="11.699095"><ele>1205.0</ele><time>2026-04-25T13:44:38.858Z</time></trkpt><trkpt lat="43.6375358" lon="11.6989673"><ele>1207.0</ele><time>2026-04-25T13:44:39.863Z</time></trkpt><trkpt lat="43.6376052" lon="11.6988414"><ele>1207.0</ele><time>2026-04-25T13:44:40.872Z</time></trkpt><trkpt lat="43.6376761" lon="11.6987199"><ele>1207.0</ele><time>2026-04-25T13:44:41.875Z</time></trkpt><trkpt lat="43.637731" lon="11.6986232"><ele>1207.0</ele><time>2026-04-25T13:44:42.854Z</time></trkpt><trkpt lat="43.6377815" lon="11.6985577"><ele>1207.0</ele><time>2026-04-25T13:44:43.86Z</time></trkpt><trkpt lat="43.6379079" lon="11.6985406"><ele>1207.0</ele><time>2026-04-25T13:44:45.861Z</time></trkpt><trkpt lat="43.6379848" lon="11.6985995"><ele>1206.2</ele><time>2026-04-25T13:44:46.873Z</time></trkpt><trkpt lat="43.6380658" lon="11.6986819"><ele>1205.4</ele><time>2026-04-25T13:44:47.869Z</time></trkpt><trkpt lat="43.6381404" lon="11.698772"><ele>1204.6</ele><time>2026-04-25T13:44:48.859Z</time></trkpt><trkpt lat="43.6382171" lon="11.6988538"><ele>1203.8</ele><time>2026-04-25T13:44:49.862Z</time></trkpt><trkpt lat="43.6382792" lon="11.6989399"><ele>1203.0</ele><time>2026-04-25T13:44:50.873Z</time></trkpt><trkpt lat="43.638325" lon="11.6990699"><ele>1203.0</ele><time>2026-04-25T13:44:51.865Z</time></trkpt><trkpt lat="43.6383369" lon="11.699249"><ele>1203.0</ele><time>2026-04-25T13:44:52.868Z</time></trkpt><trkpt lat="43.6383515" lon="11.6994271"><ele>1203.0</ele><time>2026-04-25T13:44:53.859Z</time></trkpt><trkpt lat="43.6383483" lon="11.6995982"><ele>1203.0</ele><time>2026-04-25T13:44:54.864Z</time></trkpt><trkpt lat="43.6383533" lon="11.6997902"><ele>1200.25</ele><time>2026-04-25T13:44:55.878Z</time></trkpt><trkpt lat="43.6383385" lon="11.6999776"><ele>1197.5</ele><time>2026-04-25T13:44:56.861Z</time></trkpt><trkpt lat="43.6383304" lon="11.700152"><ele>1194.75</ele><time>2026-04-25T13:44:57.865Z</time></trkpt><trkpt lat="43.6383267" lon="11.7003166"><ele>1192.0</ele><time>2026-04-25T13:44:58.87Z</time></trkpt><trkpt lat="43.6383263" lon="11.7004746"><ele>1190.0</ele><time>2026-04-25T13:44:59.861Z</time></trkpt><trkpt lat="43.638332" lon="11.7006397"><ele>1188.0</ele><time>2026-04-25T13:45:00.865Z</time></trkpt><trkpt lat="43.6383475" lon="11.7007899"><ele>1186.0</ele><time>2026-04-25T13:45:01.86Z</time></trkpt><trkpt lat="43.6383671" lon="11.7009171"><ele>1184.0</ele><time>2026-04-25T13:45:02.868Z</time></trkpt><trkpt lat="43.6383968" lon="11.7010277"><ele>1182.0</ele><time>2026-04-25T13:45:03.86Z</time></trkpt><trkpt lat="43.6384431" lon="11.7011208"><ele>1184.5</ele><time>2026-04-25T13:45:04.861Z</time></trkpt><trkpt lat="43.6384984" lon="11.7011903"><ele>1187.0</ele><time>2026-04-25T13:45:05.872Z</time></trkpt><trkpt lat="43.6385547" lon="11.7012549"><ele>1189.5</ele><time>2026-04-25T13:45:06.856Z</time></trkpt><trkpt lat="43.6386252" lon="11.7013102"><ele>1192.0</ele><time>2026-04-25T13:45:07.858Z</time></trkpt><trkpt lat="43.6387014" lon="11.7013837"><ele>1194.5</ele><time>2026-04-25T13:45:08.864Z</time></trkpt><trkpt lat="43.6387565" lon="11.7014682"><ele>1197.0</ele><time>2026-04-25T13:45:09.856Z</time></trkpt><trkpt lat="43.6387832" lon="11.7015621"><ele>1197.0</ele><time>2026-04-25T13:45:10.874Z</time></trkpt><trkpt lat="43.6387819" lon="11.7016879"><ele>1197.0</ele><time>2026-04-25T13:45:11.855Z</time></trkpt><trkpt lat="43.63877" lon="11.7018502"><ele>1197.0</ele><time>2026-04-25T13:45:12.863Z</time></trkpt><trkpt lat="43.6387716" lon="11.7020044"><ele>1197.0</ele><time>2026-04-25T13:45:13.874Z</time></trkpt><trkpt lat="43.6388038" lon="11.7021323"><ele>1197.0</ele><time>2026-04-25T13:45:14.865Z</time></trkpt><trkpt lat="43.6388433" lon="11.7022564"><ele>1195.25</ele><time>2026-04-25T13:45:15.854Z</time></trkpt><trkpt lat="43.6388912" lon="11.7024255"><ele>1193.5</ele><time>2026-04-25T13:45:16.862Z</time></trkpt><trkpt lat="43.6389293" lon="11.7026037"><ele>1191.75</ele><time>2026-04-25T13:45:17.861Z</time></trkpt><trkpt lat="43.6389488" lon="11.7027731"><ele>1190.0</ele><time>2026-04-25T13:45:18.851Z</time></trkpt><trkpt lat="43.6389352" lon="11.7029387"><ele>1188.0</ele><time>2026-04-25T13:45:19.857Z</time></trkpt><trkpt lat="43.6389159" lon="11.7031014"><ele>1186.0</ele><time>2026-04-25T13:45:20.86Z</time></trkpt><trkpt lat="43.6389099" lon="11.7032435"><ele>1184.0</ele><time>2026-04-25T13:45:21.849Z</time></trkpt><trkpt lat="43.6389343" lon="11.7033464"><ele>1182.0</ele><time>2026-04-25T13:45:22.864Z</time></trkpt><trkpt lat="43.6389703" lon="11.7034422"><ele>1180.0</ele><time>2026-04-25T13:45:23.866Z</time></trkpt><trkpt lat="43.6390204" lon="11.7035304"><ele>1176.75</ele><time>2026-04-25T13:45:24.865Z</time></trkpt><trkpt lat="43.6391044" lon="11.7036405"><ele>1173.5</ele><time>2026-04-25T13:45:25.857Z</time></trkpt><trkpt lat="43.6391922" lon="11.70378"><ele>1170.25</ele><time>2026-04-25T13:45:26.858Z</time></trkpt><trkpt lat="43.6392607" lon="11.7039384"><ele>1167.0</ele><time>2026-04-25T13:45:27.862Z</time></trkpt><trkpt lat="43.6393233" lon="11.7041132"><ele>1167.0</ele><time>2026-04-25T13:45:28.865Z</time></trkpt><trkpt lat="43.6393597" lon="11.7042977"><ele>1167.0</ele><time>2026-04-25T13:45:29.857Z</time></trkpt><trkpt lat="43.6393772" lon="11.7044803"><ele>1167.0</ele><time>2026-04-25T13:45:30.852Z</time></trkpt><trkpt lat="43.6393866" lon="11.7046488"><ele>1167.0</ele><time>2026-04-25T13:45:31.86Z</time></trkpt><trkpt lat="43.6393872" lon="11.7047788"><ele>1165.5</ele><time>2026-04-25T13:45:32.863Z</time></trkpt><trkpt lat="43.6393988" lon="11.7048893"><ele>1164.0</ele><time>2026-04-25T13:45:33.859Z</time></trkpt><trkpt lat="43.6394272" lon="11.7049955"><ele>1162.5</ele><time>2026-04-25T13:45:34.859Z</time></trkpt><trkpt lat="43.6394784" lon="11.7051011"><ele>1161.0</ele><time>2026-04-25T13:45:35.857Z</time></trkpt><trkpt lat="43.6394983" lon="11.7052052"><ele>1159.5</ele><time>2026-04-25T13:45:36.853Z</time></trkpt><trkpt lat="43.639508" lon="11.7053071"><ele>1158.0</ele><time>2026-04-25T13:45:37.858Z</time></trkpt><trkpt lat="43.6395078" lon="11.7054208"><ele>1157.6</ele><time>2026-04-25T13:45:38.863Z</time></trkpt><trkpt lat="43.6394781" lon="11.7055501"><ele>1157.1999999999998</ele><time>2026-04-25T13:45:39.861Z</time></trkpt><trkpt lat="43.6394292" lon="11.7056819"><ele>1156.8</ele><time>2026-04-25T13:45:40.856Z</time></trkpt><trkpt lat="43.6393993" lon="11.7058173"><ele>1156.3999999999999</ele><time>2026-04-25T13:45:41.865Z</time></trkpt><trkpt lat="43.6393746" lon="11.7059614"><ele>1156.0</ele><time>2026-04-25T13:45:42.869Z</time></trkpt><trkpt lat="43.6393688" lon="11.7061161"><ele>1155.0</ele><time>2026-04-25T13:45:43.859Z</time></trkpt><trkpt lat="43.639364" lon="11.706277"><ele>1154.0</ele><time>2026-04-25T13:45:44.864Z</time></trkpt><trkpt lat="43.6393885" lon="11.7064258"><ele>1153.0</ele><time>2026-04-25T13:45:45.853Z</time></trkpt><trkpt lat="43.6394356" lon="11.7065682"><ele>1152.0</ele><time>2026-04-25T13:45:46.859Z</time></trkpt><trkpt lat="43.6394986" lon="11.7067398"><ele>1152.0</ele><time>2026-04-25T13:45:47.861Z</time></trkpt><trkpt lat="43.639584" lon="11.70694"><ele>1152.0</ele><time>2026-04-25T13:45:48.859Z</time></trkpt><trkpt lat="43.639657" lon="11.7071486"><ele>1152.0</ele><time>2026-04-25T13:45:49.855Z</time></trkpt><trkpt lat="43.6397271" lon="11.7073372"><ele>1152.0</ele><time>2026-04-25T13:45:50.855Z</time></trkpt><trkpt lat="43.6397889" lon="11.7074953"><ele>1152.0</ele><time>2026-04-25T13:45:51.869Z</time></trkpt><trkpt lat="43.639844" lon="11.7076243"><ele>1152.0</ele><time>2026-04-25T13:45:52.865Z</time></trkpt><trkpt lat="43.6399045" lon="11.7077184"><ele>1152.0</ele><time>2026-04-25T13:45:53.86Z</time></trkpt><trkpt lat="43.6399751" lon="11.70779"><ele>1152.0</ele><time>2026-04-25T13:45:54.863Z</time></trkpt><trkpt lat="43.6400582" lon="11.7078273"><ele>1149.6666666666667</ele><time>2026-04-25T13:45:55.867Z</time></trkpt><trkpt lat="43.6401425" lon="11.7078415"><ele>1147.3333333333333</ele><time>2026-04-25T13:45:56.86Z</time></trkpt><trkpt lat="43.6402144" lon="11.7078356"><ele>1145.0</ele><time>2026-04-25T13:45:57.875Z</time></trkpt><trkpt lat="43.6403207" lon="11.7077438"><ele>1142.6666666666665</ele><time>2026-04-25T13:45:59.858Z</time></trkpt><trkpt lat="43.6403541" lon="11.7076651"><ele>1140.3333333333333</ele><time>2026-04-25T13:46:00.867Z</time></trkpt><trkpt lat="43.6403753" lon="11.7075779"><ele>1138.0</ele><time>2026-04-25T13:46:01.869Z</time></trkpt><trkpt lat="43.6404062" lon="11.7074784"><ele>1136.8333333333333</ele><time>2026-04-25T13:46:02.861Z</time></trkpt><trkpt lat="43.6404437" lon="11.7073733"><ele>1135.6666666666665</ele><time>2026-04-25T13:46:03.859Z</time></trkpt><trkpt lat="43.640478" lon="11.7072713"><ele>1134.5</ele><time>2026-04-25T13:46:04.865Z</time></trkpt><trkpt lat="43.6405123" lon="11.7071664"><ele>1133.3333333333333</ele><time>2026-04-25T13:46:05.878Z</time></trkpt><trkpt lat="43.6405432" lon="11.7070545"><ele>1132.1666666666667</ele><time>2026-04-25T13:46:06.858Z</time></trkpt><trkpt lat="43.6405718" lon="11.7069359"><ele>1131.0</ele><time>2026-04-25T13:46:07.845Z</time></trkpt><trkpt lat="43.6406043" lon="11.706816"><ele>1134.0</ele><time>2026-04-25T13:46:08.862Z</time></trkpt><trkpt lat="43.6406511" lon="11.7066925"><ele>1137.0</ele><time>2026-04-25T13:46:09.869Z</time></trkpt><trkpt lat="43.6407127" lon="11.7065903"><ele>1140.0</ele><time>2026-04-25T13:46:10.858Z</time></trkpt><trkpt lat="43.6407838" lon="11.7065029"><ele>1143.0</ele><time>2026-04-25T13:46:11.863Z</time></trkpt><trkpt lat="43.6408592" lon="11.7064161"><ele>1146.0</ele><time>2026-04-25T13:46:12.871Z</time></trkpt><trkpt lat="43.6409456" lon="11.7063378"><ele>1146.0</ele><time>2026-04-25T13:46:13.848Z</time></trkpt><trkpt lat="43.6410458" lon="11.7062584"><ele>1146.0</ele><time>2026-04-25T13:46:14.858Z</time></trkpt><trkpt lat="43.6411477" lon="11.7061881"><ele>1146.0</ele><time>2026-04-25T13:46:15.847Z</time></trkpt><trkpt lat="43.6412388" lon="11.7061304"><ele>1146.0</ele><time>2026-04-25T13:46:16.851Z</time></trkpt><trkpt lat="43.6413208" lon="11.7060822"><ele>1146.0</ele><time>2026-04-25T13:46:17.86Z</time></trkpt><trkpt lat="43.6414044" lon="11.7060427"><ele>1144.5</ele><time>2026-04-25T13:46:18.855Z</time></trkpt><trkpt lat="43.6414749" lon="11.7059765"><ele>1143.0</ele><time>2026-04-25T13:46:19.863Z</time></trkpt><trkpt lat="43.6415309" lon="11.7058879"><ele>1141.5</ele><time>2026-04-25T13:46:20.863Z</time></trkpt><trkpt lat="43.641573" lon="11.705789"><ele>1140.0</ele><time>2026-04-25T13:46:21.857Z</time></trkpt><trkpt lat="43.6416021" lon="11.7056716"><ele>1138.5</ele><time>2026-04-25T13:46:22.858Z</time></trkpt><trkpt lat="43.6416391" lon="11.7055525"><ele>1137.0</ele><time>2026-04-25T13:46:23.844Z</time></trkpt><trkpt lat="43.6417015" lon="11.70546"><ele>1137.0</ele><time>2026-04-25T13:46:24.863Z</time></trkpt><trkpt lat="43.6417729" lon="11.7053787"><ele>1137.0</ele><time>2026-04-25T13:46:25.861Z</time></trkpt><trkpt lat="43.6418531" lon="11.7052969"><ele>1137.0</ele><time>2026-04-25T13:46:26.874Z</time></trkpt><trkpt lat="43.6419567" lon="11.7052134"><ele>1137.0</ele><time>2026-04-25T13:46:27.853Z</time></trkpt><trkpt lat="43.6420565" lon="11.7051488"><ele>1137.0</ele><time>2026-04-25T13:46:28.858Z</time></trkpt><trkpt lat="43.6421304" lon="11.705086"><ele>1133.1666666666667</ele><time>2026-04-25T13:46:29.87Z</time></trkpt><trkpt lat="43.6421873" lon="11.7050176"><ele>1129.3333333333333</ele><time>2026-04-25T13:46:30.875Z</time></trkpt><trkpt lat="43.642236" lon="11.7049554"><ele>1125.5</ele><time>2026-04-25T13:46:31.859Z</time></trkpt><trkpt lat="43.6422565" lon="11.7048698"><ele>1121.6666666666665</ele><time>2026-04-25T13:46:32.854Z</time></trkpt><trkpt lat="43.6422357" lon="11.7047163"><ele>1117.8333333333333</ele><time>2026-04-25T13:46:34.86Z</time></trkpt><trkpt lat="43.6421676" lon="11.7045949"><ele>1114.0</ele><time>2026-04-25T13:46:36.866Z</time></trkpt><trkpt lat="43.6421143" lon="11.7045412"><ele>1114.0</ele><time>2026-04-25T13:46:37.864Z</time></trkpt><trkpt lat="43.6420394" lon="11.7044251"><ele>1114.0</ele><time>2026-04-25T13:46:39.869Z</time></trkpt><trkpt lat="43.6420062" lon="11.704295"><ele>1114.0</ele><time>2026-04-25T13:46:41.863Z</time></trkpt><trkpt lat="43.6419987" lon="11.7041757"><ele>1114.0</ele><time>2026-04-25T13:46:43.868Z</time></trkpt><trkpt lat="43.6420352" lon="11.7040883"><ele>1114.0</ele><time>2026-04-25T13:46:46.876Z</time></trkpt><trkpt lat="43.6420288" lon="11.7039785"><ele>1114.0</ele><time>2026-04-25T13:47:32.873Z</time></trkpt><trkpt lat="43.6420527" lon="11.7038504"><ele>1114.0</ele><time>2026-04-25T13:47:34.87Z</time></trkpt><trkpt lat="43.6421157" lon="11.7037143"><ele>1114.0</ele><time>2026-04-25T13:47:36.87Z</time></trkpt><trkpt lat="43.642147" lon="11.7036265"><ele>1114.0</ele><time>2026-04-25T13:47:37.861Z</time></trkpt><trkpt lat="43.642172" lon="11.703517"><ele>1114.0</ele><time>2026-04-25T13:47:38.865Z</time></trkpt><trkpt lat="43.6421823" lon="11.7033906"><ele>1114.4</ele><time>2026-04-25T13:47:39.868Z</time></trkpt><trkpt lat="43.642178" lon="11.7032559"><ele>1114.8000000000002</ele><time>2026-04-25T13:47:40.878Z</time></trkpt><trkpt lat="43.6421572" lon="11.7031141"><ele>1115.1999999999998</ele><time>2026-04-25T13:47:41.879Z</time></trkpt><trkpt lat="43.6421293" lon="11.7029762"><ele>1115.6</ele><time>2026-04-25T13:47:42.864Z</time></trkpt><trkpt lat="43.6421009" lon="11.70284"><ele>1116.0</ele><time>2026-04-25T13:47:43.853Z</time></trkpt><trkpt lat="43.6420953" lon="11.7026891"><ele>1115.0</ele><time>2026-04-25T13:47:44.864Z</time></trkpt><trkpt lat="43.6421158" lon="11.7025239"><ele>1114.0</ele><time>2026-04-25T13:47:45.867Z</time></trkpt><trkpt lat="43.6421266" lon="11.7023541"><ele>1113.0</ele><time>2026-04-25T13:47:46.867Z</time></trkpt><trkpt lat="43.6421173" lon="11.7022038"><ele>1112.0</ele><time>2026-04-25T13:47:47.855Z</time></trkpt><trkpt lat="43.6421183" lon="11.7020593"><ele>1112.0</ele><time>2026-04-25T13:47:48.875Z</time></trkpt><trkpt lat="43.64211" lon="11.7019248"><ele>1112.0</ele><time>2026-04-25T13:47:49.866Z</time></trkpt><trkpt lat="43.6420998" lon="11.7017983"><ele>1112.0</ele><time>2026-04-25T13:47:50.871Z</time></trkpt><trkpt lat="43.6420889" lon="11.7016573"><ele>1112.0</ele><time>2026-04-25T13:47:51.855Z</time></trkpt><trkpt lat="43.6420726" lon="11.7015077"><ele>1112.0</ele><time>2026-04-25T13:47:52.86Z</time></trkpt><trkpt lat="43.6420706" lon="11.7013494"><ele>1111.25</ele><time>2026-04-25T13:47:53.853Z</time></trkpt><trkpt lat="43.6420567" lon="11.7011715"><ele>1110.5</ele><time>2026-04-25T13:47:54.855Z</time></trkpt><trkpt lat="43.6420547" lon="11.7009875"><ele>1109.75</ele><time>2026-04-25T13:47:55.872Z</time></trkpt><trkpt lat="43.6420798" lon="11.7008148"><ele>1109.0</ele><time>2026-04-25T13:47:56.858Z</time></trkpt><trkpt lat="43.642097" lon="11.7006571"><ele>1110.2</ele><time>2026-04-25T13:47:57.868Z</time></trkpt><trkpt lat="43.6420985" lon="11.700506"><ele>1111.4</ele><time>2026-04-25T13:47:58.857Z</time></trkpt><trkpt lat="43.6421063" lon="11.7003545"><ele>1112.6</ele><time>2026-04-25T13:47:59.854Z</time></trkpt><trkpt lat="43.64212" lon="11.7002176"><ele>1113.8</ele><time>2026-04-25T13:48:00.855Z</time></trkpt><trkpt lat="43.6421397" lon="11.7000862"><ele>1115.0</ele><time>2026-04-25T13:48:01.867Z</time></trkpt><trkpt lat="43.6421595" lon="11.6999601"><ele>1116.5</ele><time>2026-04-25T13:48:02.853Z</time></trkpt><trkpt lat="43.6421984" lon="11.6998569"><ele>1118.0</ele><time>2026-04-25T13:48:03.863Z</time></trkpt><trkpt lat="43.6422362" lon="11.6997739"><ele>1119.5</ele><time>2026-04-25T13:48:04.861Z</time></trkpt><trkpt lat="43.642303" lon="11.6997204"><ele>1121.0</ele><time>2026-04-25T13:48:06.859Z</time></trkpt><trkpt lat="43.6423717" lon="11.6997388"><ele>1122.5</ele><time>2026-04-25T13:48:08.859Z</time></trkpt><trkpt lat="43.6424363" lon="11.6998053"><ele>1124.0</ele><time>2026-04-25T13:48:11.863Z</time></trkpt><trkpt lat="43.6424496" lon="11.6999573"><ele>1124.0</ele><time>2026-04-25T13:48:14.864Z</time></trkpt><trkpt lat="43.6424574" lon="11.7001342"><ele>1124.0</ele><time>2026-04-25T13:48:16.866Z</time></trkpt><trkpt lat="43.6424859" lon="11.7002256"><ele>1124.0</ele><time>2026-04-25T13:48:17.864Z</time></trkpt><trkpt lat="43.6425281" lon="11.7003301"><ele>1124.0</ele><time>2026-04-25T13:48:18.864Z</time></trkpt><trkpt lat="43.6425886" lon="11.7004457"><ele>1124.0</ele><time>2026-04-25T13:48:19.861Z</time></trkpt><trkpt lat="43.6426608" lon="11.7005605"><ele>1125.4</ele><time>2026-04-25T13:48:20.861Z</time></trkpt><trkpt lat="43.6427249" lon="11.700675"><ele>1126.8000000000002</ele><time>2026-04-25T13:48:21.864Z</time></trkpt><trkpt lat="43.6427813" lon="11.7007908"><ele>1128.1999999999998</ele><time>2026-04-25T13:48:22.849Z</time></trkpt><trkpt lat="43.642829" lon="11.7009098"><ele>1129.6</ele><time>2026-04-25T13:48:23.884Z</time></trkpt><trkpt lat="43.6428756" lon="11.7010103"><ele>1131.0</ele><time>2026-04-25T13:48:24.859Z</time></trkpt><trkpt lat="43.6429343" lon="11.7011142"><ele>1128.2</ele><time>2026-04-25T13:48:25.855Z</time></trkpt><trkpt lat="43.6429929" lon="11.7012253"><ele>1125.3999999999999</ele><time>2026-04-25T13:48:26.855Z</time></trkpt><trkpt lat="43.6430533" lon="11.7013626"><ele>1122.6</ele><time>2026-04-25T13:48:27.847Z</time></trkpt><trkpt lat="43.6431116" lon="11.7014938"><ele>1119.8</ele><time>2026-04-25T13:48:28.849Z</time></trkpt><trkpt lat="43.6431669" lon="11.7016101"><ele>1117.0</ele><time>2026-04-25T13:48:29.85Z</time></trkpt><trkpt lat="43.643216" lon="11.7017188"><ele>1117.0</ele><time>2026-04-25T13:48:30.846Z</time></trkpt><trkpt lat="43.6432732" lon="11.701822"><ele>1117.0</ele><time>2026-04-25T13:48:31.848Z</time></trkpt><trkpt lat="43.6433363" lon="11.7019267"><ele>1117.0</ele><time>2026-04-25T13:48:32.851Z</time></trkpt><trkpt lat="43.6434177" lon="11.702024"><ele>1117.0</ele><time>2026-04-25T13:48:33.854Z</time></trkpt><trkpt lat="43.6435017" lon="11.7021271"><ele>1117.0</ele><time>2026-04-25T13:48:34.867Z</time></trkpt><trkpt lat="43.64358" lon="11.7022411"><ele>1115.6</ele><time>2026-04-25T13:48:35.858Z</time></trkpt><trkpt lat="43.6436556" lon="11.7023622"><ele>1114.2</ele><time>2026-04-25T13:48:36.866Z</time></trkpt><trkpt lat="43.6437184" lon="11.7024928"><ele>1112.8</ele><time>2026-04-25T13:48:37.864Z</time></trkpt><trkpt lat="43.6437718" lon="11.7026091"><ele>1111.4</ele><time>2026-04-25T13:48:38.874Z</time></trkpt><trkpt lat="43.643832" lon="11.702718"><ele>1110.0</ele><time>2026-04-25T13:48:39.853Z</time></trkpt><trkpt lat="43.6438954" lon="11.7027919"><ele>1107.0</ele><time>2026-04-25T13:48:40.853Z</time></trkpt><trkpt lat="43.6439622" lon="11.7028175"><ele>1104.0</ele><time>2026-04-25T13:48:41.857Z</time></trkpt><trkpt lat="43.6440411" lon="11.7028096"><ele>1101.0</ele><time>2026-04-25T13:48:42.867Z</time></trkpt><trkpt lat="43.6441301" lon="11.7027917"><ele>1098.0</ele><time>2026-04-25T13:48:43.859Z</time></trkpt><trkpt lat="43.6442278" lon="11.7027782"><ele>1095.0</ele><time>2026-04-25T13:48:44.874Z</time></trkpt><trkpt lat="43.6443141" lon="11.7027741"><ele>1092.0</ele><time>2026-04-25T13:48:45.857Z</time></trkpt><trkpt lat="43.6443882" lon="11.7028036"><ele>1093.4</ele><time>2026-04-25T13:48:46.864Z</time></trkpt><trkpt lat="43.6444918" lon="11.702942"><ele>1094.8000000000002</ele><time>2026-04-25T13:48:48.857Z</time></trkpt><trkpt lat="43.6445252" lon="11.7030331"><ele>1096.2</ele><time>2026-04-25T13:48:49.863Z</time></trkpt><trkpt lat="43.6445395" lon="11.7031492"><ele>1097.6000000000001</ele><time>2026-04-25T13:48:50.867Z</time></trkpt><trkpt lat="43.6445346" lon="11.7032634"><ele>1099.0</ele><time>2026-04-25T13:48:51.86Z</time></trkpt><trkpt lat="43.6445444" lon="11.703378"><ele>1099.0</ele><time>2026-04-25T13:48:52.868Z</time></trkpt><trkpt lat="43.6445625" lon="11.7035014"><ele>1099.0</ele><time>2026-04-25T13:48:53.876Z</time></trkpt><trkpt lat="43.6445858" lon="11.7036271"><ele>1099.0</ele><time>2026-04-25T13:48:54.849Z</time></trkpt><trkpt lat="43.6446101" lon="11.7037328"><ele>1099.0</ele><time>2026-04-25T13:48:55.853Z</time></trkpt><trkpt lat="43.6446877" lon="11.7038244"><ele>1099.0</ele><time>2026-04-25T13:48:57.859Z</time></trkpt><trkpt lat="43.6447952" lon="11.7038265"><ele>1096.75</ele><time>2026-04-25T13:48:59.88Z</time></trkpt><trkpt lat="43.6449055" lon="11.7037547"><ele>1094.5</ele><time>2026-04-25T13:49:01.861Z</time></trkpt><trkpt lat="43.6450192" lon="11.7037889"><ele>1092.25</ele><time>2026-04-25T13:49:03.853Z</time></trkpt><trkpt lat="43.6450493" lon="11.7039235"><ele>1090.0</ele><time>2026-04-25T13:49:05.88Z</time></trkpt><trkpt lat="43.6450371" lon="11.7041075"><ele>1090.0</ele><time>2026-04-25T13:49:07.869Z</time></trkpt><trkpt lat="43.6450215" lon="11.7042187"><ele>1090.0</ele><time>2026-04-25T13:49:08.863Z</time></trkpt><trkpt lat="43.6449975" lon="11.7043586"><ele>1090.0</ele><time>2026-04-25T13:49:09.861Z</time></trkpt><trkpt lat="43.6449656" lon="11.7045"><ele>1090.0</ele><time>2026-04-25T13:49:10.858Z</time></trkpt><trkpt lat="43.6449333" lon="11.7046328"><ele>1090.0</ele><time>2026-04-25T13:49:11.868Z</time></trkpt><trkpt lat="43.6449177" lon="11.7047685"><ele>1088.6666666666665</ele><time>2026-04-25T13:49:12.866Z</time></trkpt><trkpt lat="43.6449169" lon="11.704889"><ele>1087.3333333333333</ele><time>2026-04-25T13:49:13.864Z</time></trkpt><trkpt lat="43.6449384" lon="11.7049892"><ele>1086.0</ele><time>2026-04-25T13:49:14.856Z</time></trkpt><trkpt lat="43.6449783" lon="11.7050634"><ele>1084.6666666666667</ele><time>2026-04-25T13:49:15.873Z</time></trkpt><trkpt lat="43.6450407" lon="11.7051238"><ele>1083.3333333333335</ele><time>2026-04-25T13:49:16.859Z</time></trkpt><trkpt lat="43.6451128" lon="11.7051929"><ele>1082.0</ele><time>2026-04-25T13:49:17.866Z</time></trkpt><trkpt lat="43.6451936" lon="11.7052751"><ele>1079.8</ele><time>2026-04-25T13:49:18.859Z</time></trkpt><trkpt lat="43.6452687" lon="11.705377"><ele>1077.6</ele><time>2026-04-25T13:49:19.853Z</time></trkpt><trkpt lat="43.6453234" lon="11.7054914"><ele>1075.3999999999999</ele><time>2026-04-25T13:49:20.858Z</time></trkpt><trkpt lat="43.6453584" lon="11.7056241"><ele>1073.2</ele><time>2026-04-25T13:49:21.873Z</time></trkpt><trkpt lat="43.6453814" lon="11.7057622"><ele>1071.0</ele><time>2026-04-25T13:49:22.859Z</time></trkpt><trkpt lat="43.645405" lon="11.7058909"><ele>1072.3999999999999</ele><time>2026-04-25T13:49:23.86Z</time></trkpt><trkpt lat="43.6454312" lon="11.7060234"><ele>1073.8</ele><time>2026-04-25T13:49:24.861Z</time></trkpt><trkpt lat="43.6454572" lon="11.7061625"><ele>1075.1999999999998</ele><time>2026-04-25T13:49:25.85Z</time></trkpt><trkpt lat="43.6454762" lon="11.7063168"><ele>1076.6</ele><time>2026-04-25T13:49:26.86Z</time></trkpt><trkpt lat="43.6454926" lon="11.7064879"><ele>1078.0</ele><time>2026-04-25T13:49:27.858Z</time></trkpt><trkpt lat="43.6455094" lon="11.7066393"><ele>1078.0</ele><time>2026-04-25T13:49:28.863Z</time></trkpt><trkpt lat="43.6455222" lon="11.7067854"><ele>1078.0</ele><time>2026-04-25T13:49:29.868Z</time></trkpt><trkpt lat="43.6455449" lon="11.7069076"><ele>1078.0</ele><time>2026-04-25T13:49:30.862Z</time></trkpt><trkpt lat="43.6455827" lon="11.7070011"><ele>1078.0</ele><time>2026-04-25T13:49:31.865Z</time></trkpt><trkpt lat="43.6456494" lon="11.7070732"><ele>1078.0</ele><time>2026-04-25T13:49:32.858Z</time></trkpt><trkpt lat="43.6457329" lon="11.7071144"><ele>1078.0</ele><time>2026-04-25T13:49:33.854Z</time></trkpt><trkpt lat="43.6458142" lon="11.7071621"><ele>1074.6666666666665</ele><time>2026-04-25T13:49:34.864Z</time></trkpt><trkpt lat="43.645876" lon="11.7072292"><ele>1071.3333333333333</ele><time>2026-04-25T13:49:35.867Z</time></trkpt><trkpt lat="43.6459222" lon="11.7073113"><ele>1068.0</ele><time>2026-04-25T13:49:36.864Z</time></trkpt><trkpt lat="43.6459597" lon="11.7073961"><ele>1064.6666666666667</ele><time>2026-04-25T13:49:37.865Z</time></trkpt><trkpt lat="43.6459988" lon="11.7075084"><ele>1061.3333333333335</ele><time>2026-04-25T13:49:38.855Z</time></trkpt><trkpt lat="43.6460375" lon="11.7076465"><ele>1058.0</ele><time>2026-04-25T13:49:39.867Z</time></trkpt><trkpt lat="43.6460787" lon="11.7077919"><ele>1058.2</ele><time>2026-04-25T13:49:40.867Z</time></trkpt><trkpt lat="43.6461183" lon="11.7079229"><ele>1058.4</ele><time>2026-04-25T13:49:41.858Z</time></trkpt><trkpt lat="43.6461496" lon="11.7080584"><ele>1058.6000000000001</ele><time>2026-04-25T13:49:42.863Z</time></trkpt><trkpt lat="43.6462113" lon="11.7081691"><ele>1058.8</ele><time>2026-04-25T13:49:43.855Z</time></trkpt><trkpt lat="43.6462871" lon="11.7082478"><ele>1059.0</ele><time>2026-04-25T13:49:44.869Z</time></trkpt><trkpt lat="43.6463773" lon="11.7083014"><ele>1059.0</ele><time>2026-04-25T13:49:45.857Z</time></trkpt><trkpt lat="43.6464842" lon="11.7083322"><ele>1059.0</ele><time>2026-04-25T13:49:46.865Z</time></trkpt><trkpt lat="43.646589" lon="11.7083632"><ele>1059.0</ele><time>2026-04-25T13:49:47.867Z</time></trkpt><trkpt lat="43.6466907" lon="11.7084089"><ele>1059.0</ele><time>2026-04-25T13:49:48.865Z</time></trkpt><trkpt lat="43.6467995" lon="11.7084463"><ele>1059.0</ele><time>2026-04-25T13:49:49.86Z</time></trkpt><trkpt lat="43.6469141" lon="11.7084831"><ele>1060.2</ele><time>2026-04-25T13:49:50.868Z</time></trkpt><trkpt lat="43.6470087" lon="11.7084992"><ele>1061.4</ele><time>2026-04-25T13:49:51.853Z</time></trkpt><trkpt lat="43.6471018" lon="11.7085199"><ele>1062.6</ele><time>2026-04-25T13:49:52.866Z</time></trkpt><trkpt lat="43.6471835" lon="11.7085893"><ele>1063.8</ele><time>2026-04-25T13:49:53.867Z</time></trkpt><trkpt lat="43.6472408" lon="11.708695"><ele>1065.0</ele><time>2026-04-25T13:49:54.87Z</time></trkpt><trkpt lat="43.6472876" lon="11.7088204"><ele>1062.5</ele><time>2026-04-25T13:49:55.856Z</time></trkpt><trkpt lat="43.6473198" lon="11.7089492"><ele>1060.0</ele><time>2026-04-25T13:49:56.867Z</time></trkpt><trkpt lat="43.6473444" lon="11.7090769"><ele>1057.5</ele><time>2026-04-25T13:49:57.847Z</time></trkpt><trkpt lat="43.647378" lon="11.7092021"><ele>1055.0</ele><time>2026-04-25T13:49:58.861Z</time></trkpt><trkpt lat="43.6474242" lon="11.709299"><ele>1052.5</ele><time>2026-04-25T13:49:59.866Z</time></trkpt><trkpt lat="43.6474803" lon="11.7093669"><ele>1050.0</ele><time>2026-04-25T13:50:00.863Z</time></trkpt><trkpt lat="43.6475517" lon="11.7094267"><ele>1051.0</ele><time>2026-04-25T13:50:01.854Z</time></trkpt><trkpt lat="43.6476298" lon="11.7094609"><ele>1052.0</ele><time>2026-04-25T13:50:02.856Z</time></trkpt><trkpt lat="43.6477277" lon="11.7095011"><ele>1053.0</ele><time>2026-04-25T13:50:03.867Z</time></trkpt><trkpt lat="43.6478293" lon="11.7095342"><ele>1054.0</ele><time>2026-04-25T13:50:04.853Z</time></trkpt><trkpt lat="43.6479271" lon="11.7095624"><ele>1055.0</ele><time>2026-04-25T13:50:05.872Z</time></trkpt><trkpt lat="43.6480182" lon="11.7095837"><ele>1055.0</ele><time>2026-04-25T13:50:06.859Z</time></trkpt><trkpt lat="43.648092" lon="11.7096213"><ele>1055.0</ele><time>2026-04-25T13:50:07.868Z</time></trkpt><trkpt lat="43.6481635" lon="11.7097726"><ele>1055.0</ele><time>2026-04-25T13:50:09.859Z</time></trkpt><trkpt lat="43.6481784" lon="11.7098713"><ele>1055.0</ele><time>2026-04-25T13:50:10.869Z</time></trkpt><trkpt lat="43.6481742" lon="11.7099767"><ele>1055.0</ele><time>2026-04-25T13:50:11.862Z</time></trkpt><trkpt lat="43.6481552" lon="11.710081"><ele>1055.0</ele><time>2026-04-25T13:50:12.868Z</time></trkpt><trkpt lat="43.6481309" lon="11.7101886"><ele>1055.4</ele><time>2026-04-25T13:50:13.851Z</time></trkpt><trkpt lat="43.6480887" lon="11.7102971"><ele>1055.8</ele><time>2026-04-25T13:50:14.852Z</time></trkpt><trkpt lat="43.6480279" lon="11.7103985"><ele>1056.2</ele><time>2026-04-25T13:50:15.855Z</time></trkpt><trkpt lat="43.6479584" lon="11.7104963"><ele>1056.6</ele><time>2026-04-25T13:50:16.866Z</time></trkpt><trkpt lat="43.6478901" lon="11.7105856"><ele>1057.0</ele><time>2026-04-25T13:50:17.869Z</time></trkpt><trkpt lat="43.6478342" lon="11.7106752"><ele>1057.0</ele><time>2026-04-25T13:50:18.853Z</time></trkpt><trkpt lat="43.6477989" lon="11.7107866"><ele>1057.0</ele><time>2026-04-25T13:50:19.857Z</time></trkpt><trkpt lat="43.6477878" lon="11.7109054"><ele>1057.0</ele><time>2026-04-25T13:50:20.863Z</time></trkpt><trkpt lat="43.6478016" lon="11.7110258"><ele>1057.0</ele><time>2026-04-25T13:50:21.869Z</time></trkpt><trkpt lat="43.6478148" lon="11.7111649"><ele>1057.0</ele><time>2026-04-25T13:50:22.859Z</time></trkpt><trkpt lat="43.6478412" lon="11.7113115"><ele>1055.5</ele><time>2026-04-25T13:50:23.853Z</time></trkpt><trkpt lat="43.6478515" lon="11.7114679"><ele>1054.0</ele><time>2026-04-25T13:50:24.858Z</time></trkpt><trkpt lat="43.6478499" lon="11.7116311"><ele>1052.5</ele><time>2026-04-25T13:50:25.857Z</time></trkpt><trkpt lat="43.6478404" lon="11.7117955"><ele>1051.0</ele><time>2026-04-25T13:50:26.865Z</time></trkpt><trkpt lat="43.6478366" lon="11.7119528"><ele>1047.8</ele><time>2026-04-25T13:50:27.852Z</time></trkpt><trkpt lat="43.6478414" lon="11.7121119"><ele>1044.6</ele><time>2026-04-25T13:50:28.857Z</time></trkpt><trkpt lat="43.6478478" lon="11.7122627"><ele>1041.4</ele><time>2026-04-25T13:50:29.868Z</time></trkpt><trkpt lat="43.6478603" lon="11.7124041"><ele>1038.2</ele><time>2026-04-25T13:50:30.863Z</time></trkpt><trkpt lat="43.647885" lon="11.7125315"><ele>1035.0</ele><time>2026-04-25T13:50:31.858Z</time></trkpt><trkpt lat="43.6479277" lon="11.712632"><ele>1035.0</ele><time>2026-04-25T13:50:32.855Z</time></trkpt><trkpt lat="43.6479866" lon="11.7127326"><ele>1035.0</ele><time>2026-04-25T13:50:33.859Z</time></trkpt><trkpt lat="43.6480586" lon="11.712813"><ele>1035.0</ele><time>2026-04-25T13:50:34.875Z</time></trkpt><trkpt lat="43.6481439" lon="11.7128749"><ele>1035.0</ele><time>2026-04-25T13:50:35.869Z</time></trkpt><trkpt lat="43.6482301" lon="11.7129129"><ele>1035.0</ele><time>2026-04-25T13:50:36.867Z</time></trkpt><trkpt lat="43.6483238" lon="11.7129435"><ele>1035.8</ele><time>2026-04-25T13:50:37.859Z</time></trkpt><trkpt lat="43.6484244" lon="11.7129541"><ele>1036.6</ele><time>2026-04-25T13:50:38.86Z</time></trkpt><trkpt lat="43.648514" lon="11.7129708"><ele>1037.4</ele><time>2026-04-25T13:50:39.867Z</time></trkpt><trkpt lat="43.6486014" lon="11.7130085"><ele>1038.2</ele><time>2026-04-25T13:50:40.87Z</time></trkpt><trkpt lat="43.6486843" lon="11.7130736"><ele>1039.0</ele><time>2026-04-25T13:50:41.864Z</time></trkpt><trkpt lat="43.6487439" lon="11.7131548"><ele>1039.0</ele><time>2026-04-25T13:50:42.87Z</time></trkpt><trkpt lat="43.6487853" lon="11.7132681"><ele>1039.0</ele><time>2026-04-25T13:50:43.859Z</time></trkpt><trkpt lat="43.6488007" lon="11.7133922"><ele>1039.0</ele><time>2026-04-25T13:50:44.853Z</time></trkpt><trkpt lat="43.6488126" lon="11.7135182"><ele>1039.0</ele><time>2026-04-25T13:50:45.877Z</time></trkpt><trkpt lat="43.6488077" lon="11.7136414"><ele>1039.0</ele><time>2026-04-25T13:50:46.853Z</time></trkpt><trkpt lat="43.6488083" lon="11.713757"><ele>1039.0</ele><time>2026-04-25T13:50:47.854Z</time></trkpt><trkpt lat="43.648791" lon="11.7138529"><ele>1039.2</ele><time>2026-04-25T13:50:48.852Z</time></trkpt><trkpt lat="43.648753" lon="11.7139466"><ele>1039.4</ele><time>2026-04-25T13:50:49.858Z</time></trkpt><trkpt lat="43.6486902" lon="11.7140218"><ele>1039.6</ele><time>2026-04-25T13:50:50.85Z</time></trkpt><trkpt lat="43.6486131" lon="11.7140852"><ele>1039.8</ele><time>2026-04-25T13:50:51.871Z</time></trkpt><trkpt lat="43.6485233" lon="11.7141662"><ele>1040.0</ele><time>2026-04-25T13:50:52.863Z</time></trkpt><trkpt lat="43.6484443" lon="11.7142542"><ele>1032.8</ele><time>2026-04-25T13:50:53.855Z</time></trkpt><trkpt lat="43.6483806" lon="11.714322"><ele>1025.6</ele><time>2026-04-25T13:50:54.859Z</time></trkpt><trkpt lat="43.6483354" lon="11.7144252"><ele>1018.4000000000001</ele><time>2026-04-25T13:50:55.862Z</time></trkpt><trkpt lat="43.6483186" lon="11.7145554"><ele>1011.2</ele><time>2026-04-25T13:50:56.863Z</time></trkpt><trkpt lat="43.6483124" lon="11.7146889"><ele>1004.0</ele><time>2026-04-25T13:50:57.858Z</time></trkpt><trkpt lat="43.64832" lon="11.7148391"><ele>1004.0</ele><time>2026-04-25T13:50:58.854Z</time></trkpt><trkpt lat="43.6483288" lon="11.7150137"><ele>1004.0</ele><time>2026-04-25T13:50:59.862Z</time></trkpt><trkpt lat="43.6483465" lon="11.7151872"><ele>1004.0</ele><time>2026-04-25T13:51:00.856Z</time></trkpt><trkpt lat="43.648364" lon="11.7153677"><ele>1004.0</ele><time>2026-04-25T13:51:01.863Z</time></trkpt><trkpt lat="43.6483816" lon="11.7155383"><ele>1002.0</ele><time>2026-04-25T13:51:02.857Z</time></trkpt><trkpt lat="43.6483948" lon="11.7156997"><ele>1000.0000000000001</ele><time>2026-04-25T13:51:03.866Z</time></trkpt><trkpt lat="43.6484027" lon="11.7158395"><ele>998.0000000000001</ele><time>2026-04-25T13:51:04.867Z</time></trkpt><trkpt lat="43.648417" lon="11.715957"><ele>996.0</ele><time>2026-04-25T13:51:05.858Z</time></trkpt><trkpt lat="43.6484311" lon="11.716072"><ele>994.0</ele><time>2026-04-25T13:51:06.864Z</time></trkpt><trkpt lat="43.6484622" lon="11.7161745"><ele>991.0</ele><time>2026-04-25T13:51:07.864Z</time></trkpt><trkpt lat="43.6485105" lon="11.716273"><ele>988.0000000000001</ele><time>2026-04-25T13:51:08.867Z</time></trkpt><trkpt lat="43.648576" lon="11.7163539"><ele>985.0000000000001</ele><time>2026-04-25T13:51:09.859Z</time></trkpt><trkpt lat="43.648666" lon="11.7164181"><ele>982.0</ele><time>2026-04-25T13:51:10.857Z</time></trkpt><trkpt lat="43.6487547" lon="11.7164879"><ele>979.0</ele><time>2026-04-25T13:51:11.867Z</time></trkpt><trkpt lat="43.6488454" lon="11.7165697"><ele>983.0</ele><time>2026-04-25T13:51:12.871Z</time></trkpt><trkpt lat="43.6489177" lon="11.7166926"><ele>987.0</ele><time>2026-04-25T13:51:13.855Z</time></trkpt><trkpt lat="43.6489628" lon="11.7168587"><ele>991.0</ele><time>2026-04-25T13:51:14.856Z</time></trkpt><trkpt lat="43.6489991" lon="11.717045"><ele>995.0</ele><time>2026-04-25T13:51:15.866Z</time></trkpt><trkpt lat="43.6490221" lon="11.7172335"><ele>995.0</ele><time>2026-04-25T13:51:16.872Z</time></trkpt><trkpt lat="43.6490411" lon="11.7174265"><ele>995.0</ele><time>2026-04-25T13:51:17.857Z</time></trkpt><trkpt lat="43.6490616" lon="11.7176182"><ele>995.0</ele><time>2026-04-25T13:51:18.86Z</time></trkpt><trkpt lat="43.6490946" lon="11.7177923"><ele>995.0</ele><time>2026-04-25T13:51:19.859Z</time></trkpt><trkpt lat="43.6491376" lon="11.7179698"><ele>992.25</ele><time>2026-04-25T13:51:20.859Z</time></trkpt><trkpt lat="43.6491799" lon="11.7181342"><ele>989.5</ele><time>2026-04-25T13:51:21.856Z</time></trkpt><trkpt lat="43.6492132" lon="11.7183087"><ele>986.75</ele><time>2026-04-25T13:51:22.866Z</time></trkpt><trkpt lat="43.6492404" lon="11.7184859"><ele>984.0</ele><time>2026-04-25T13:51:23.867Z</time></trkpt><trkpt lat="43.6492583" lon="11.7186691"><ele>981.5</ele><time>2026-04-25T13:51:24.856Z</time></trkpt><trkpt lat="43.6492655" lon="11.7188516"><ele>979.0</ele><time>2026-04-25T13:51:25.854Z</time></trkpt><trkpt lat="43.6492672" lon="11.7190386"><ele>976.5</ele><time>2026-04-25T13:51:26.863Z</time></trkpt><trkpt lat="43.6492569" lon="11.7192335"><ele>974.0</ele><time>2026-04-25T13:51:27.856Z</time></trkpt><trkpt lat="43.64924" lon="11.7194292"><ele>972.75</ele><time>2026-04-25T13:51:28.853Z</time></trkpt><trkpt lat="43.6492238" lon="11.7196255"><ele>971.5</ele><time>2026-04-25T13:51:29.868Z</time></trkpt><trkpt lat="43.6492091" lon="11.7197998"><ele>970.25</ele><time>2026-04-25T13:51:30.862Z</time></trkpt><trkpt lat="43.6492065" lon="11.7199359"><ele>969.0</ele><time>2026-04-25T13:51:31.863Z</time></trkpt><trkpt lat="43.6492051" lon="11.7200529"><ele>969.0</ele><time>2026-04-25T13:51:32.859Z</time></trkpt><trkpt lat="43.6492234" lon="11.7201688"><ele>969.0000000000001</ele><time>2026-04-25T13:51:33.86Z</time></trkpt><trkpt lat="43.6492545" lon="11.7203017"><ele>969.0000000000001</ele><time>2026-04-25T13:51:34.855Z</time></trkpt><trkpt lat="43.6492897" lon="11.72043"><ele>969.0</ele><time>2026-04-25T13:51:35.851Z</time></trkpt><trkpt lat="43.6493562" lon="11.7205647"><ele>969.0</ele><time>2026-04-25T13:51:36.846Z</time></trkpt><trkpt lat="43.6494341" lon="11.7207179"><ele>971.0</ele><time>2026-04-25T13:51:37.862Z</time></trkpt><trkpt lat="43.6495077" lon="11.7208793"><ele>973.0</ele><time>2026-04-25T13:51:38.851Z</time></trkpt><trkpt lat="43.6495823" lon="11.7210416"><ele>975.0</ele><time>2026-04-25T13:51:39.864Z</time></trkpt><trkpt lat="43.6496535" lon="11.7212117"><ele>977.0</ele><time>2026-04-25T13:51:40.858Z</time></trkpt><trkpt lat="43.6497103" lon="11.7213842"><ele>977.0</ele><time>2026-04-25T13:51:41.854Z</time></trkpt><trkpt lat="43.6497575" lon="11.7215694"><ele>977.0</ele><time>2026-04-25T13:51:42.852Z</time></trkpt><trkpt lat="43.6498054" lon="11.7217668"><ele>977.0</ele><time>2026-04-25T13:51:43.869Z</time></trkpt><trkpt lat="43.6498551" lon="11.7219558"><ele>977.0</ele><time>2026-04-25T13:51:44.854Z</time></trkpt><trkpt lat="43.6499018" lon="11.7221506"><ele>973.25</ele><time>2026-04-25T13:51:45.857Z</time></trkpt><trkpt lat="43.6499492" lon="11.7223461"><ele>969.5</ele><time>2026-04-25T13:51:46.864Z</time></trkpt><trkpt lat="43.6499955" lon="11.7225452"><ele>965.75</ele><time>2026-04-25T13:51:47.853Z</time></trkpt><trkpt lat="43.6500423" lon="11.7227372"><ele>962.0</ele><time>2026-04-25T13:51:48.859Z</time></trkpt><trkpt lat="43.6500865" lon="11.722917"><ele>960.25</ele><time>2026-04-25T13:51:49.869Z</time></trkpt><trkpt lat="43.6501213" lon="11.7230957"><ele>958.5</ele><time>2026-04-25T13:51:50.868Z</time></trkpt><trkpt lat="43.6501445" lon="11.7232651"><ele>956.75</ele><time>2026-04-25T13:51:51.861Z</time></trkpt><trkpt lat="43.6501618" lon="11.7234471"><ele>955.0</ele><time>2026-04-25T13:51:52.847Z</time></trkpt><trkpt lat="43.6501708" lon="11.7236334"><ele>951.5</ele><time>2026-04-25T13:51:53.859Z</time></trkpt><trkpt lat="43.6501838" lon="11.7238073"><ele>948.0</ele><time>2026-04-25T13:51:54.855Z</time></trkpt><trkpt lat="43.6502006" lon="11.7239596"><ele>944.5</ele><time>2026-04-25T13:51:55.853Z</time></trkpt><trkpt lat="43.6502343" lon="11.7240964"><ele>941.0</ele><time>2026-04-25T13:51:56.876Z</time></trkpt><trkpt lat="43.650287" lon="11.7242292"><ele>938.8</ele><time>2026-04-25T13:51:57.859Z</time></trkpt><trkpt lat="43.6503457" lon="11.7243553"><ele>936.5999999999999</ele><time>2026-04-25T13:51:58.855Z</time></trkpt><trkpt lat="43.6503913" lon="11.7244511"><ele>934.4</ele><time>2026-04-25T13:51:59.879Z</time></trkpt><trkpt lat="43.6504137" lon="11.7246005"><ele>932.2</ele><time>2026-04-25T13:52:01.866Z</time></trkpt><trkpt lat="43.6503522" lon="11.7247212"><ele>930.0</ele><time>2026-04-25T13:52:03.854Z</time></trkpt><trkpt lat="43.650291" lon="11.7247461"><ele>930.0</ele><time>2026-04-25T13:52:04.858Z</time></trkpt><trkpt lat="43.6501753" lon="11.724731"><ele>930.0</ele><time>2026-04-25T13:52:06.858Z</time></trkpt><trkpt lat="43.6501303" lon="11.7246684"><ele>930.0</ele><time>2026-04-25T13:52:07.857Z</time></trkpt><trkpt lat="43.6500954" lon="11.7245581"><ele>930.0</ele><time>2026-04-25T13:52:08.864Z</time></trkpt><trkpt lat="43.6500626" lon="11.7244265"><ele>930.0</ele><time>2026-04-25T13:52:09.856Z</time></trkpt><trkpt lat="43.6500377" lon="11.7242946"><ele>932.2</ele><time>2026-04-25T13:52:10.866Z</time></trkpt><trkpt lat="43.6500132" lon="11.7241594"><ele>934.4</ele><time>2026-04-25T13:52:11.856Z</time></trkpt><trkpt lat="43.6499916" lon="11.7240257"><ele>936.5999999999999</ele><time>2026-04-25T13:52:12.871Z</time></trkpt><trkpt lat="43.6499726" lon="11.7238916"><ele>938.8</ele><time>2026-04-25T13:52:13.859Z</time></trkpt><trkpt lat="43.6499604" lon="11.7237665"><ele>941.0</ele><time>2026-04-25T13:52:14.861Z</time></trkpt><trkpt lat="43.6499483" lon="11.7236386"><ele>943.8</ele><time>2026-04-25T13:52:15.868Z</time></trkpt><trkpt lat="43.6499314" lon="11.7235194"><ele>946.5999999999999</ele><time>2026-04-25T13:52:16.86Z</time></trkpt><trkpt lat="43.6498982" lon="11.7233999"><ele>949.4</ele><time>2026-04-25T13:52:17.852Z</time></trkpt><trkpt lat="43.6498436" lon="11.7232946"><ele>952.2</ele><time>2026-04-25T13:52:18.864Z</time></trkpt><trkpt lat="43.6497705" lon="11.7231779"><ele>955.0</ele><time>2026-04-25T13:52:19.865Z</time></trkpt><trkpt lat="43.6496921" lon="11.7230573"><ele>955.0</ele><time>2026-04-25T13:52:20.87Z</time></trkpt><trkpt lat="43.6496115" lon="11.7229391"><ele>955.0</ele><time>2026-04-25T13:52:21.862Z</time></trkpt><trkpt lat="43.6495496" lon="11.7228262"><ele>955.0</ele><time>2026-04-25T13:52:22.851Z</time></trkpt><trkpt lat="43.6494919" lon="11.7227026"><ele>955.0</ele><time>2026-04-25T13:52:23.851Z</time></trkpt><trkpt lat="43.6494489" lon="11.7225703"><ele>955.0</ele><time>2026-04-25T13:52:24.867Z</time></trkpt><trkpt lat="43.6494044" lon="11.722413"><ele>951.0</ele><time>2026-04-25T13:52:25.86Z</time></trkpt><trkpt lat="43.6493646" lon="11.7222466"><ele>947.0</ele><time>2026-04-25T13:52:26.857Z</time></trkpt><trkpt lat="43.6493235" lon="11.7220837"><ele>943.0</ele><time>2026-04-25T13:52:27.856Z</time></trkpt><trkpt lat="43.6492761" lon="11.7219167"><ele>939.0</ele><time>2026-04-25T13:52:28.851Z</time></trkpt><trkpt lat="43.6492212" lon="11.7217732"><ele>939.0</ele><time>2026-04-25T13:52:29.853Z</time></trkpt><trkpt lat="43.6491605" lon="11.7216603"><ele>939.0000000000001</ele><time>2026-04-25T13:52:30.855Z</time></trkpt><trkpt lat="43.6490882" lon="11.7215693"><ele>939.0000000000001</ele><time>2026-04-25T13:52:31.864Z</time></trkpt><trkpt lat="43.6490041" lon="11.7214958"><ele>939.0</ele><time>2026-04-25T13:52:32.859Z</time></trkpt><trkpt lat="43.648905" lon="11.7214307"><ele>939.0</ele><time>2026-04-25T13:52:33.861Z</time></trkpt><trkpt lat="43.648798" lon="11.7213835"><ele>939.0</ele><time>2026-04-25T13:52:34.858Z</time></trkpt><trkpt lat="43.648689" lon="11.7213671"><ele>939.0000000000001</ele><time>2026-04-25T13:52:35.855Z</time></trkpt><trkpt lat="43.6485838" lon="11.7213693"><ele>939.0000000000001</ele><time>2026-04-25T13:52:36.862Z</time></trkpt><trkpt lat="43.6484875" lon="11.7213779"><ele>939.0</ele><time>2026-04-25T13:52:37.858Z</time></trkpt><trkpt lat="43.6484048" lon="11.7213701"><ele>939.0</ele><time>2026-04-25T13:52:38.859Z</time></trkpt><trkpt lat="43.6483344" lon="11.7213308"><ele>936.8333333333334</ele><time>2026-04-25T13:52:39.859Z</time></trkpt><trkpt lat="43.6482629" lon="11.7212706"><ele>934.6666666666667</ele><time>2026-04-25T13:52:40.866Z</time></trkpt><trkpt lat="43.648203" lon="11.7212014"><ele>932.5</ele><time>2026-04-25T13:52:41.862Z</time></trkpt><trkpt lat="43.6481705" lon="11.7211015"><ele>930.3333333333334</ele><time>2026-04-25T13:52:42.87Z</time></trkpt><trkpt lat="43.6481498" lon="11.7209891"><ele>928.1666666666667</ele><time>2026-04-25T13:52:43.862Z</time></trkpt><trkpt lat="43.6481483" lon="11.7208503"><ele>926.0</ele><time>2026-04-25T13:52:44.868Z</time></trkpt><trkpt lat="43.6481577" lon="11.7207088"><ele>926.0000000000001</ele><time>2026-04-25T13:52:45.857Z</time></trkpt><trkpt lat="43.6481501" lon="11.720589"><ele>926.0</ele><time>2026-04-25T13:52:46.861Z</time></trkpt><trkpt lat="43.6481176" lon="11.7204938"><ele>926.0</ele><time>2026-04-25T13:52:47.86Z</time></trkpt><trkpt lat="43.6480675" lon="11.7204138"><ele>926.0</ele><time>2026-04-25T13:52:48.857Z</time></trkpt><trkpt lat="43.6480125" lon="11.7203544"><ele>926.0000000000001</ele><time>2026-04-25T13:52:49.869Z</time></trkpt><trkpt lat="43.6479051" lon="11.7203963"><ele>926.0</ele><time>2026-04-25T13:52:51.863Z</time></trkpt><trkpt lat="43.6478577" lon="11.7204606"><ele>926.0</ele><time>2026-04-25T13:52:52.87Z</time></trkpt><trkpt lat="43.6478431" lon="11.7205555"><ele>925.9999999999999</ele><time>2026-04-25T13:52:53.862Z</time></trkpt><trkpt lat="43.6478475" lon="11.7206727"><ele>925.9999999999999</ele><time>2026-04-25T13:52:54.855Z</time></trkpt><trkpt lat="43.6478689" lon="11.7207975"><ele>926.0</ele><time>2026-04-25T13:52:55.877Z</time></trkpt><trkpt lat="43.6478929" lon="11.720933"><ele>926.0</ele><time>2026-04-25T13:52:56.866Z</time></trkpt><trkpt lat="43.6479292" lon="11.7210828"><ele>924.0</ele><time>2026-04-25T13:52:57.861Z</time></trkpt><trkpt lat="43.647964" lon="11.721232"><ele>921.9999999999999</ele><time>2026-04-25T13:52:58.862Z</time></trkpt><trkpt lat="43.6479903" lon="11.7213609"><ele>919.9999999999999</ele><time>2026-04-25T13:52:59.867Z</time></trkpt><trkpt lat="43.6480257" lon="11.7214682"><ele>918.0</ele><time>2026-04-25T13:53:00.857Z</time></trkpt><trkpt lat="43.6480687" lon="11.7215683"><ele>916.0</ele><time>2026-04-25T13:53:01.855Z</time></trkpt><trkpt lat="43.6481177" lon="11.7216528"><ele>916.0</ele><time>2026-04-25T13:53:02.853Z</time></trkpt><trkpt lat="43.6481893" lon="11.721721"><ele>915.9999999999999</ele><time>2026-04-25T13:53:03.856Z</time></trkpt><trkpt lat="43.648277" lon="11.7217894"><ele>915.9999999999999</ele><time>2026-04-25T13:53:04.858Z</time></trkpt><trkpt lat="43.6483653" lon="11.7218502"><ele>916.0</ele><time>2026-04-25T13:53:05.86Z</time></trkpt><trkpt lat="43.648457" lon="11.7219081"><ele>916.0</ele><time>2026-04-25T13:53:06.861Z</time></trkpt><trkpt lat="43.6485423" lon="11.7219752"><ele>917.3333333333333</ele><time>2026-04-25T13:53:07.866Z</time></trkpt><trkpt lat="43.6486085" lon="11.722048"><ele>918.6666666666666</ele><time>2026-04-25T13:53:08.854Z</time></trkpt><trkpt lat="43.648664" lon="11.7221326"><ele>920.0</ele><time>2026-04-25T13:53:09.87Z</time></trkpt><trkpt lat="43.6487071" lon="11.7222272"><ele>921.3333333333333</ele><time>2026-04-25T13:53:10.86Z</time></trkpt><trkpt lat="43.6487448" lon="11.7223298"><ele>922.6666666666666</ele><time>2026-04-25T13:53:11.861Z</time></trkpt><trkpt lat="43.6487678" lon="11.722448"><ele>924.0</ele><time>2026-04-25T13:53:12.864Z</time></trkpt><trkpt lat="43.6487945" lon="11.7225674"><ele>924.0</ele><time>2026-04-25T13:53:13.866Z</time></trkpt><trkpt lat="43.6487978" lon="11.7226819"><ele>924.0</ele><time>2026-04-25T13:53:14.86Z</time></trkpt><trkpt lat="43.6487834" lon="11.7227843"><ele>924.0</ele><time>2026-04-25T13:53:15.865Z</time></trkpt><trkpt lat="43.6487468" lon="11.7228883"><ele>924.0</ele><time>2026-04-25T13:53:16.863Z</time></trkpt><trkpt lat="43.6487109" lon="11.7229934"><ele>924.0</ele><time>2026-04-25T13:53:17.866Z</time></trkpt><trkpt lat="43.6486842" lon="11.7231172"><ele>924.0</ele><time>2026-04-25T13:53:18.86Z</time></trkpt><trkpt lat="43.6486688" lon="11.7232536"><ele>922.0</ele><time>2026-04-25T13:53:19.863Z</time></trkpt><trkpt lat="43.6486715" lon="11.7234017"><ele>920.0</ele><time>2026-04-25T13:53:20.857Z</time></trkpt><trkpt lat="43.6486916" lon="11.723557"><ele>918.0</ele><time>2026-04-25T13:53:21.858Z</time></trkpt><trkpt lat="43.6487168" lon="11.7237095"><ele>916.0</ele><time>2026-04-25T13:53:22.86Z</time></trkpt><trkpt lat="43.6487372" lon="11.7238706"><ele>913.5</ele><time>2026-04-25T13:53:23.86Z</time></trkpt><trkpt lat="43.6487759" lon="11.7240368"><ele>911.0</ele><time>2026-04-25T13:53:24.848Z</time></trkpt><trkpt lat="43.648811" lon="11.7241923"><ele>908.5</ele><time>2026-04-25T13:53:25.862Z</time></trkpt><trkpt lat="43.648856" lon="11.7243474"><ele>906.0</ele><time>2026-04-25T13:53:26.851Z</time></trkpt><trkpt lat="43.6489129" lon="11.7245003"><ele>902.5</ele><time>2026-04-25T13:53:27.85Z</time></trkpt><trkpt lat="43.6489762" lon="11.7246409"><ele>899.0</ele><time>2026-04-25T13:53:28.859Z</time></trkpt><trkpt lat="43.6490385" lon="11.7247759"><ele>895.5</ele><time>2026-04-25T13:53:29.852Z</time></trkpt><trkpt lat="43.6490771" lon="11.7249255"><ele>892.0</ele><time>2026-04-25T13:53:30.857Z</time></trkpt><trkpt lat="43.6491261" lon="11.7250512"><ele>892.0</ele><time>2026-04-25T13:53:31.862Z</time></trkpt><trkpt lat="43.6491549" lon="11.7252053"><ele>892.0</ele><time>2026-04-25T13:53:32.862Z</time></trkpt><trkpt lat="43.6491731" lon="11.7253687"><ele>892.0</ele><time>2026-04-25T13:53:33.866Z</time></trkpt><trkpt lat="43.6491849" lon="11.7255016"><ele>892.0</ele><time>2026-04-25T13:53:34.864Z</time></trkpt><trkpt lat="43.6492029" lon="11.725621"><ele>892.0</ele><time>2026-04-25T13:53:35.866Z</time></trkpt><trkpt lat="43.6491897" lon="11.7257199"><ele>892.1666666666666</ele><time>2026-04-25T13:53:36.861Z</time></trkpt><trkpt lat="43.6491748" lon="11.7258233"><ele>892.3333333333333</ele><time>2026-04-25T13:53:37.848Z</time></trkpt><trkpt lat="43.6491448" lon="11.7259236"><ele>892.5</ele><time>2026-04-25T13:53:38.849Z</time></trkpt><trkpt lat="43.6490527" lon="11.7260496"><ele>892.6666666666667</ele><time>2026-04-25T13:53:40.862Z</time></trkpt><trkpt lat="43.6489899" lon="11.7260908"><ele>892.8333333333334</ele><time>2026-04-25T13:53:41.854Z</time></trkpt><trkpt lat="43.6489191" lon="11.726124"><ele>893.0</ele><time>2026-04-25T13:53:42.868Z</time></trkpt><trkpt lat="43.6488347" lon="11.726144"><ele>893.0</ele><time>2026-04-25T13:53:44.864Z</time></trkpt><trkpt lat="43.6487573" lon="11.7261888"><ele>893.0</ele><time>2026-04-25T13:53:47.857Z</time></trkpt><trkpt lat="43.6486325" lon="11.7262667"><ele>893.0</ele><time>2026-04-25T13:53:49.861Z</time></trkpt><trkpt lat="43.6485425" lon="11.7263197"><ele>893.0</ele><time>2026-04-25T13:53:50.863Z</time></trkpt><trkpt lat="43.6484658" lon="11.7263556"><ele>893.0</ele><time>2026-04-25T13:53:51.863Z</time></trkpt><trkpt lat="43.648383" lon="11.7264173"><ele>872.0</ele><time>2026-04-25T13:53:53.859Z</time></trkpt></trkseg></trk></gpx>